<?xml version='1.0' encoding='UTF-8'?><gpx version="1.1" creator="JPX - https://github.com/jenetics/jpx" xmlns="http://www.topografix.com/GPX/1/1"><trk><trkseg><trkpt lat="45.4285929" lon="10.5140587"><ele>121.99999999999999</ele><time>2026-04-18T08:50:29.662Z</time></trkpt><trkpt lat="45.4285795" lon="10.5141481"><ele>122.0</ele><time>2026-04-18T08:50:31.662Z</time></trkpt><trkpt lat="45.4285728" lon="10.5142626"><ele>122.0</ele><time>2026-04-18T08:50:33.661Z</time></trkpt><trkpt lat="45.4285565" lon="10.5143852"><ele>122.0</ele><time>2026-04-18T08:50:35.66Z</time></trkpt><trkpt lat="45.4285367" lon="10.5145126"><ele>121.99999999999999</ele><time>2026-04-18T08:50:37.66Z</time></trkpt><trkpt lat="45.4284856" lon="10.5146094"><ele>122.0</ele><time>2026-04-18T08:50:39.661Z</time></trkpt><trkpt lat="45.4284181" lon="10.5145473"><ele>121.99999999999999</ele><time>2026-04-18T08:50:41.661Z</time></trkpt><trkpt lat="45.4283767" lon="10.5144436"><ele>122.0</ele><time>2026-04-18T08:50:44.66Z</time></trkpt><trkpt lat="45.428375" lon="10.5143158"><ele>122.0</ele><time>2026-04-18T08:50:53.66Z</time></trkpt><trkpt lat="45.4284103" lon="10.5141777"><ele>122.0</ele><time>2026-04-18T08:50:55.66Z</time></trkpt><trkpt lat="45.4284337" lon="10.5140346"><ele>121.99999999999999</ele><time>2026-04-18T08:50:57.66Z</time></trkpt><trkpt lat="45.4284433" lon="10.5139387"><ele>122.0</ele><time>2026-04-18T08:50:59.66Z</time></trkpt><trkpt lat="45.4284617" lon="10.5138276"><ele>122.19999999999999</ele><time>2026-04-18T08:51:01.659Z</time></trkpt><trkpt lat="45.4284758" lon="10.5136964"><ele>122.39999999999999</ele><time>2026-04-18T08:51:03.66Z</time></trkpt><trkpt lat="45.4284991" lon="10.5135552"><ele>122.60000000000001</ele><time>2026-04-18T08:51:05.66Z</time></trkpt><trkpt lat="45.4285197" lon="10.5134135"><ele>122.80000000000001</ele><time>2026-04-18T08:51:07.66Z</time></trkpt><trkpt lat="45.4285364" lon="10.5132704"><ele>123.0</ele><time>2026-04-18T08:51:09.66Z</time></trkpt><trkpt lat="45.4285623" lon="10.513098"><ele>123.00000000000001</ele><time>2026-04-18T08:51:11.66Z</time></trkpt><trkpt lat="45.4285771" lon="10.5130043"><ele>123.0</ele><time>2026-04-18T08:51:12.66Z</time></trkpt><trkpt lat="45.4285951" lon="10.5129111"><ele>123.00000000000001</ele><time>2026-04-18T08:51:13.661Z</time></trkpt><trkpt lat="45.4286077" lon="10.5128143"><ele>123.00000000000001</ele><time>2026-04-18T08:51:14.66Z</time></trkpt><trkpt lat="45.428612" lon="10.5127159"><ele>123.0</ele><time>2026-04-18T08:51:15.66Z</time></trkpt><trkpt lat="45.4286197" lon="10.5126144"><ele>123.00000000000001</ele><time>2026-04-18T08:51:16.66Z</time></trkpt><trkpt lat="45.4286326" lon="10.5125167"><ele>123.00000000000001</ele><time>2026-04-18T08:51:17.661Z</time></trkpt><trkpt lat="45.4286457" lon="10.5124176"><ele>123.00000000000001</ele><time>2026-04-18T08:51:18.66Z</time></trkpt><trkpt lat="45.4286616" lon="10.5123209"><ele>123.0</ele><time>2026-04-18T08:51:19.66Z</time></trkpt><trkpt lat="45.4286814" lon="10.5122217"><ele>123.00000000000001</ele><time>2026-04-18T08:51:20.66Z</time></trkpt><trkpt lat="45.4286934" lon="10.5121238"><ele>123.00000000000001</ele><time>2026-04-18T08:51:21.661Z</time></trkpt><trkpt lat="45.4287031" lon="10.5120236"><ele>123.0</ele><time>2026-04-18T08:51:22.66Z</time></trkpt><trkpt lat="45.4287151" lon="10.5119262"><ele>123.00000000000001</ele><time>2026-04-18T08:51:23.66Z</time></trkpt><trkpt lat="45.4287248" lon="10.511828"><ele>123.00000000000001</ele><time>2026-04-18T08:51:24.659Z</time></trkpt><trkpt lat="45.4287411" lon="10.5117327"><ele>123.0</ele><time>2026-04-18T08:51:25.66Z</time></trkpt><trkpt lat="45.4287584" lon="10.5116427"><ele>123.0</ele><time>2026-04-18T08:51:26.659Z</time></trkpt><trkpt lat="45.4287844" lon="10.5115528"><ele>123.0</ele><time>2026-04-18T08:51:27.661Z</time></trkpt><trkpt lat="45.4288274" lon="10.5114696"><ele>123.0</ele><time>2026-04-18T08:51:28.66Z</time></trkpt><trkpt lat="45.4288724" lon="10.5114037"><ele>123.0</ele><time>2026-04-18T08:51:29.66Z</time></trkpt><trkpt lat="45.4289218" lon="10.5112789"><ele>123.0</ele><time>2026-04-18T08:51:31.66Z</time></trkpt><trkpt lat="45.428866" lon="10.5111794"><ele>123.0</ele><time>2026-04-18T08:51:33.661Z</time></trkpt><trkpt lat="45.428805" lon="10.5110879"><ele>123.0</ele><time>2026-04-18T08:51:35.659Z</time></trkpt><trkpt lat="45.4288373" lon="10.5109396"><ele>123.0</ele><time>2026-04-18T08:51:37.66Z</time></trkpt><trkpt lat="45.4288675" lon="10.5108596"><ele>123.0</ele><time>2026-04-18T08:51:38.661Z</time></trkpt><trkpt lat="45.4289076" lon="10.5107761"><ele>123.0</ele><time>2026-04-18T08:51:39.66Z</time></trkpt><trkpt lat="45.428948" lon="10.510693"><ele>123.0</ele><time>2026-04-18T08:51:40.661Z</time></trkpt><trkpt lat="45.4289862" lon="10.5106035"><ele>123.00000000000001</ele><time>2026-04-18T08:51:41.659Z</time></trkpt><trkpt lat="45.429026" lon="10.5105183"><ele>123.0</ele><time>2026-04-18T08:51:42.659Z</time></trkpt><trkpt lat="45.4290624" lon="10.5104302"><ele>123.00000000000001</ele><time>2026-04-18T08:51:43.661Z</time></trkpt><trkpt lat="45.4291018" lon="10.5103451"><ele>123.00000000000001</ele><time>2026-04-18T08:51:44.66Z</time></trkpt><trkpt lat="45.4291392" lon="10.5102566"><ele>123.0</ele><time>2026-04-18T08:51:45.661Z</time></trkpt><trkpt lat="45.4291775" lon="10.5101697"><ele>123.00000000000001</ele><time>2026-04-18T08:51:46.661Z</time></trkpt><trkpt lat="45.4292197" lon="10.5100792"><ele>123.00000000000001</ele><time>2026-04-18T08:51:47.66Z</time></trkpt><trkpt lat="45.4292629" lon="10.5099879"><ele>123.16666666666667</ele><time>2026-04-18T08:51:48.659Z</time></trkpt><trkpt lat="45.4293071" lon="10.5099002"><ele>123.33333333333334</ele><time>2026-04-18T08:51:49.661Z</time></trkpt><trkpt lat="45.4293508" lon="10.5098087"><ele>123.5</ele><time>2026-04-18T08:51:50.661Z</time></trkpt><trkpt lat="45.4293933" lon="10.5097194"><ele>123.66666666666667</ele><time>2026-04-18T08:51:51.661Z</time></trkpt><trkpt lat="45.4294246" lon="10.5096407"><ele>123.83333333333334</ele><time>2026-04-18T08:51:52.66Z</time></trkpt><trkpt lat="45.4294759" lon="10.5095247"><ele>124.0</ele><time>2026-04-18T08:51:54.66Z</time></trkpt><trkpt lat="45.4295321" lon="10.5094202"><ele>124.16666666666667</ele><time>2026-04-18T08:51:56.661Z</time></trkpt><trkpt lat="45.4296005" lon="10.5092778"><ele>124.33333333333334</ele><time>2026-04-18T08:51:58.66Z</time></trkpt><trkpt lat="45.4296334" lon="10.509196"><ele>124.5</ele><time>2026-04-18T08:51:59.661Z</time></trkpt><trkpt lat="45.4296732" lon="10.5091123"><ele>124.66666666666666</ele><time>2026-04-18T08:52:00.66Z</time></trkpt><trkpt lat="45.4297139" lon="10.5090266"><ele>124.83333333333333</ele><time>2026-04-18T08:52:01.661Z</time></trkpt><trkpt lat="45.4297589" lon="10.5089433"><ele>125.0</ele><time>2026-04-18T08:52:02.661Z</time></trkpt><trkpt lat="45.4298044" lon="10.5088651"><ele>125.16666666666666</ele><time>2026-04-18T08:52:03.661Z</time></trkpt><trkpt lat="45.4298543" lon="10.5087852"><ele>125.33333333333333</ele><time>2026-04-18T08:52:04.66Z</time></trkpt><trkpt lat="45.4299093" lon="10.5087094"><ele>125.5</ele><time>2026-04-18T08:52:05.66Z</time></trkpt><trkpt lat="45.429965" lon="10.5086369"><ele>125.66666666666666</ele><time>2026-04-18T08:52:06.661Z</time></trkpt><trkpt lat="45.4300259" lon="10.50857"><ele>125.83333333333333</ele><time>2026-04-18T08:52:07.661Z</time></trkpt><trkpt lat="45.4300854" lon="10.5085025"><ele>126.0</ele><time>2026-04-18T08:52:08.66Z</time></trkpt><trkpt lat="45.4301479" lon="10.5084365"><ele>126.33333333333333</ele><time>2026-04-18T08:52:09.662Z</time></trkpt><trkpt lat="45.4302105" lon="10.5083791"><ele>126.66666666666666</ele><time>2026-04-18T08:52:10.66Z</time></trkpt><trkpt lat="45.4302764" lon="10.5083222"><ele>127.0</ele><time>2026-04-18T08:52:11.661Z</time></trkpt><trkpt lat="45.4303447" lon="10.508264"><ele>127.33333333333333</ele><time>2026-04-18T08:52:12.661Z</time></trkpt><trkpt lat="45.4304101" lon="10.5082045"><ele>127.66666666666666</ele><time>2026-04-18T08:52:13.66Z</time></trkpt><trkpt lat="45.4304776" lon="10.5081369"><ele>128.0</ele><time>2026-04-18T08:52:14.661Z</time></trkpt><trkpt lat="45.4305442" lon="10.5080641"><ele>128.83333333333331</ele><time>2026-04-18T08:52:15.662Z</time></trkpt><trkpt lat="45.4306111" lon="10.5079941"><ele>129.66666666666666</ele><time>2026-04-18T08:52:16.66Z</time></trkpt><trkpt lat="45.4306792" lon="10.5079171"><ele>130.5</ele><time>2026-04-18T08:52:17.66Z</time></trkpt><trkpt lat="45.4307469" lon="10.5078447"><ele>131.33333333333334</ele><time>2026-04-18T08:52:18.66Z</time></trkpt><trkpt lat="45.4308177" lon="10.5077757"><ele>132.16666666666669</ele><time>2026-04-18T08:52:19.66Z</time></trkpt><trkpt lat="45.4308922" lon="10.5077096"><ele>133.0</ele><time>2026-04-18T08:52:20.661Z</time></trkpt><trkpt lat="45.4309651" lon="10.5076446"><ele>133.16666666666669</ele><time>2026-04-18T08:52:21.661Z</time></trkpt><trkpt lat="45.4310421" lon="10.5075815"><ele>133.33333333333334</ele><time>2026-04-18T08:52:22.661Z</time></trkpt><trkpt lat="45.4311206" lon="10.5075266"><ele>133.5</ele><time>2026-04-18T08:52:23.659Z</time></trkpt><trkpt lat="45.4311983" lon="10.5074772"><ele>133.66666666666666</ele><time>2026-04-18T08:52:24.659Z</time></trkpt><trkpt lat="45.4312775" lon="10.5074318"><ele>133.83333333333331</ele><time>2026-04-18T08:52:25.661Z</time></trkpt><trkpt lat="45.4313553" lon="10.5073881"><ele>134.0</ele><time>2026-04-18T08:52:26.66Z</time></trkpt><trkpt lat="45.4314349" lon="10.5073492"><ele>135.16666666666666</ele><time>2026-04-18T08:52:27.661Z</time></trkpt><trkpt lat="45.431506" lon="10.5073099"><ele>136.33333333333331</ele><time>2026-04-18T08:52:28.66Z</time></trkpt><trkpt lat="45.4316037" lon="10.5072712"><ele>137.5</ele><time>2026-04-18T08:52:30.662Z</time></trkpt><trkpt lat="45.4316946" lon="10.5072983"><ele>138.66666666666666</ele><time>2026-04-18T08:52:32.661Z</time></trkpt><trkpt lat="45.4317537" lon="10.5073318"><ele>139.83333333333334</ele><time>2026-04-18T08:52:33.66Z</time></trkpt><trkpt lat="45.4318195" lon="10.5073666"><ele>141.0</ele><time>2026-04-18T08:52:34.66Z</time></trkpt><trkpt lat="45.4318979" lon="10.5073883"><ele>141.0</ele><time>2026-04-18T08:52:35.66Z</time></trkpt><trkpt lat="45.4319755" lon="10.5074102"><ele>141.0</ele><time>2026-04-18T08:52:36.661Z</time></trkpt><trkpt lat="45.4320544" lon="10.5074421"><ele>141.0</ele><time>2026-04-18T08:52:37.661Z</time></trkpt><trkpt lat="45.4321231" lon="10.5074839"><ele>141.0</ele><time>2026-04-18T08:52:38.661Z</time></trkpt><trkpt lat="45.4321873" lon="10.507533"><ele>141.0</ele><time>2026-04-18T08:52:39.661Z</time></trkpt><trkpt lat="45.4322572" lon="10.5075848"><ele>141.0</ele><time>2026-04-18T08:52:40.66Z</time></trkpt><trkpt lat="45.4323244" lon="10.5076328"><ele>140.66666666666666</ele><time>2026-04-18T08:52:41.66Z</time></trkpt><trkpt lat="45.4323871" lon="10.5076817"><ele>140.33333333333334</ele><time>2026-04-18T08:52:42.661Z</time></trkpt><trkpt lat="45.432453" lon="10.5077417"><ele>140.0</ele><time>2026-04-18T08:52:43.662Z</time></trkpt><trkpt lat="45.4325151" lon="10.5078046"><ele>139.66666666666669</ele><time>2026-04-18T08:52:44.661Z</time></trkpt><trkpt lat="45.4325702" lon="10.5078653"><ele>139.33333333333334</ele><time>2026-04-18T08:52:45.659Z</time></trkpt><trkpt lat="45.4326095" lon="10.507936"><ele>139.0</ele><time>2026-04-18T08:52:46.661Z</time></trkpt><trkpt lat="45.4326518" lon="10.5080504"><ele>139.0</ele><time>2026-04-18T08:52:48.66Z</time></trkpt><trkpt lat="45.4326681" lon="10.5081743"><ele>139.0</ele><time>2026-04-18T08:52:51.66Z</time></trkpt><trkpt lat="45.4326601" lon="10.5082929"><ele>139.0</ele><time>2026-04-18T08:52:53.66Z</time></trkpt><trkpt lat="45.432638" lon="10.5083948"><ele>139.0</ele><time>2026-04-18T08:52:55.661Z</time></trkpt><trkpt lat="45.4326162" lon="10.5084991"><ele>139.0</ele><time>2026-04-18T08:52:58.66Z</time></trkpt><trkpt lat="45.432576" lon="10.5086337"><ele>139.0</ele><time>2026-04-18T08:53:00.661Z</time></trkpt><trkpt lat="45.4325347" lon="10.5087885"><ele>139.0</ele><time>2026-04-18T08:53:02.659Z</time></trkpt><trkpt lat="45.4325223" lon="10.5088864"><ele>139.0</ele><time>2026-04-18T08:53:04.66Z</time></trkpt><trkpt lat="45.4325094" lon="10.5089931"><ele>139.0</ele><time>2026-04-18T08:53:07.659Z</time></trkpt><trkpt lat="45.432495" lon="10.5090884"><ele>139.0</ele><time>2026-04-18T08:53:09.661Z</time></trkpt><trkpt lat="45.4325751" lon="10.5090963"><ele>139.0</ele><time>2026-04-18T08:53:19.66Z</time></trkpt><trkpt lat="45.4326456" lon="10.5090538"><ele>139.0</ele><time>2026-04-18T08:53:21.66Z</time></trkpt><trkpt lat="45.4327265" lon="10.509064"><ele>139.0</ele><time>2026-04-18T08:53:23.66Z</time></trkpt><trkpt lat="45.4328057" lon="10.50912"><ele>139.0</ele><time>2026-04-18T08:53:25.66Z</time></trkpt><trkpt lat="45.4328943" lon="10.509166"><ele>139.0</ele><time>2026-04-18T08:53:27.66Z</time></trkpt><trkpt lat="45.4329836" lon="10.5091963"><ele>139.0</ele><time>2026-04-18T08:53:29.66Z</time></trkpt><trkpt lat="45.4330587" lon="10.5092127"><ele>139.0</ele><time>2026-04-18T08:53:31.66Z</time></trkpt><trkpt lat="45.4331344" lon="10.5092078"><ele>139.0</ele><time>2026-04-18T08:53:36.66Z</time></trkpt><trkpt lat="45.4332116" lon="10.509122"><ele>140.33333333333334</ele><time>2026-04-18T08:53:39.66Z</time></trkpt><trkpt lat="45.4332747" lon="10.5090529"><ele>141.66666666666669</ele><time>2026-04-18T08:53:41.661Z</time></trkpt><trkpt lat="45.4333488" lon="10.5090098"><ele>143.0</ele><time>2026-04-18T08:53:43.66Z</time></trkpt><trkpt lat="45.4334308" lon="10.5089935"><ele>144.33333333333334</ele><time>2026-04-18T08:53:45.66Z</time></trkpt><trkpt lat="45.4335065" lon="10.5089809"><ele>145.66666666666666</ele><time>2026-04-18T08:53:47.66Z</time></trkpt><trkpt lat="45.4335962" lon="10.5089575"><ele>147.0</ele><time>2026-04-18T08:53:49.66Z</time></trkpt><trkpt lat="45.4337077" lon="10.5089501"><ele>147.0</ele><time>2026-04-18T08:53:51.66Z</time></trkpt><trkpt lat="45.4337748" lon="10.5089134"><ele>147.0</ele><time>2026-04-18T08:53:55.661Z</time></trkpt><trkpt lat="45.4338437" lon="10.5088973"><ele>147.0</ele><time>2026-04-18T08:54:13.66Z</time></trkpt><trkpt lat="45.4339236" lon="10.5089454"><ele>147.0</ele><time>2026-04-18T08:54:25.66Z</time></trkpt><trkpt lat="45.4339877" lon="10.5089745"><ele>147.0</ele><time>2026-04-18T08:54:27.66Z</time></trkpt><trkpt lat="45.4340606" lon="10.5090019"><ele>147.0</ele><time>2026-04-18T08:54:29.66Z</time></trkpt><trkpt lat="45.4341276" lon="10.5090436"><ele>147.0</ele><time>2026-04-18T08:54:31.66Z</time></trkpt><trkpt lat="45.4341797" lon="10.5091479"><ele>147.14285714285714</ele><time>2026-04-18T08:54:34.66Z</time></trkpt><trkpt lat="45.4342195" lon="10.5092338"><ele>147.28571428571428</ele><time>2026-04-18T08:54:36.66Z</time></trkpt><trkpt lat="45.4342615" lon="10.509304"><ele>147.42857142857144</ele><time>2026-04-18T08:54:38.66Z</time></trkpt><trkpt lat="45.4343186" lon="10.50937"><ele>147.57142857142856</ele><time>2026-04-18T08:54:41.66Z</time></trkpt><trkpt lat="45.4343876" lon="10.5093983"><ele>147.71428571428572</ele><time>2026-04-18T08:54:42.66Z</time></trkpt><trkpt lat="45.434445" lon="10.5094396"><ele>147.85714285714286</ele><time>2026-04-18T08:54:43.66Z</time></trkpt><trkpt lat="45.4345014" lon="10.5094882"><ele>148.0</ele><time>2026-04-18T08:54:44.66Z</time></trkpt><trkpt lat="45.4345648" lon="10.5095327"><ele>147.71428571428572</ele><time>2026-04-18T08:54:45.66Z</time></trkpt><trkpt lat="45.434632" lon="10.5095765"><ele>147.42857142857142</ele><time>2026-04-18T08:54:46.659Z</time></trkpt><trkpt lat="45.4346954" lon="10.5096229"><ele>147.14285714285714</ele><time>2026-04-18T08:54:47.66Z</time></trkpt><trkpt lat="45.4347541" lon="10.5096718"><ele>146.85714285714286</ele><time>2026-04-18T08:54:48.66Z</time></trkpt><trkpt lat="45.4348098" lon="10.509731"><ele>146.57142857142858</ele><time>2026-04-18T08:54:49.659Z</time></trkpt><trkpt lat="45.4348731" lon="10.5097748"><ele>146.28571428571428</ele><time>2026-04-18T08:54:50.66Z</time></trkpt><trkpt lat="45.4349518" lon="10.5097932"><ele>146.0</ele><time>2026-04-18T08:54:51.66Z</time></trkpt><trkpt lat="45.4350238" lon="10.5098279"><ele>146.0</ele><time>2026-04-18T08:54:52.659Z</time></trkpt><trkpt lat="45.4350991" lon="10.5098585"><ele>146.0</ele><time>2026-04-18T08:54:53.66Z</time></trkpt><trkpt lat="45.4351724" lon="10.5098923"><ele>146.0</ele><time>2026-04-18T08:54:54.66Z</time></trkpt><trkpt lat="45.4352406" lon="10.5099436"><ele>146.0</ele><time>2026-04-18T08:54:55.66Z</time></trkpt><trkpt lat="45.4353055" lon="10.509982"><ele>146.0</ele><time>2026-04-18T08:54:56.659Z</time></trkpt><trkpt lat="45.4354226" lon="10.5099987"><ele>146.0</ele><time>2026-04-18T08:54:58.66Z</time></trkpt><trkpt lat="45.4355015" lon="10.5099603"><ele>146.0</ele><time>2026-04-18T08:54:59.662Z</time></trkpt><trkpt lat="45.4355766" lon="10.5099344"><ele>146.0</ele><time>2026-04-18T08:55:00.66Z</time></trkpt><trkpt lat="45.4356404" lon="10.5099232"><ele>146.0</ele><time>2026-04-18T08:55:01.661Z</time></trkpt><trkpt lat="45.435706" lon="10.5099173"><ele>146.0</ele><time>2026-04-18T08:55:02.66Z</time></trkpt><trkpt lat="45.4358316" lon="10.5099059"><ele>146.0</ele><time>2026-04-18T08:55:04.661Z</time></trkpt><trkpt lat="45.4359611" lon="10.5098967"><ele>146.0</ele><time>2026-04-18T08:55:06.661Z</time></trkpt><trkpt lat="45.4360733" lon="10.5098788"><ele>146.0</ele><time>2026-04-18T08:55:08.66Z</time></trkpt><trkpt lat="45.4361807" lon="10.5098629"><ele>146.0</ele><time>2026-04-18T08:55:10.66Z</time></trkpt><trkpt lat="45.4362607" lon="10.5099374"><ele>146.0</ele><time>2026-04-18T08:55:12.66Z</time></trkpt><trkpt lat="45.4363226" lon="10.5099575"><ele>146.0</ele><time>2026-04-18T08:55:14.66Z</time></trkpt><trkpt lat="45.4363882" lon="10.5100186"><ele>145.33333333333331</ele><time>2026-04-18T08:55:16.66Z</time></trkpt><trkpt lat="45.4364487" lon="10.5100953"><ele>144.66666666666666</ele><time>2026-04-18T08:55:19.66Z</time></trkpt><trkpt lat="45.4365385" lon="10.5101946"><ele>144.0</ele><time>2026-04-18T08:55:21.659Z</time></trkpt><trkpt lat="45.4365872" lon="10.5102603"><ele>143.33333333333334</ele><time>2026-04-18T08:55:22.661Z</time></trkpt><trkpt lat="45.4366399" lon="10.5103277"><ele>142.66666666666669</ele><time>2026-04-18T08:55:23.66Z</time></trkpt><trkpt lat="45.4366909" lon="10.5103893"><ele>142.0</ele><time>2026-04-18T08:55:24.66Z</time></trkpt><trkpt lat="45.4367793" lon="10.5103974"><ele>142.0</ele><time>2026-04-18T08:55:26.66Z</time></trkpt><trkpt lat="45.4368572" lon="10.510266"><ele>142.0</ele><time>2026-04-18T08:55:28.66Z</time></trkpt><trkpt lat="45.4369037" lon="10.5101936"><ele>142.0</ele><time>2026-04-18T08:55:29.659Z</time></trkpt><trkpt lat="45.4369838" lon="10.5100766"><ele>142.0</ele><time>2026-04-18T08:55:31.66Z</time></trkpt><trkpt lat="45.4370794" lon="10.5100534"><ele>142.0</ele><time>2026-04-18T08:55:33.659Z</time></trkpt><trkpt lat="45.4371856" lon="10.5101164"><ele>142.33333333333334</ele><time>2026-04-18T08:55:35.661Z</time></trkpt><trkpt lat="45.4372453" lon="10.510174"><ele>142.66666666666669</ele><time>2026-04-18T08:55:36.66Z</time></trkpt><trkpt lat="45.4373058" lon="10.5102364"><ele>143.0</ele><time>2026-04-18T08:55:37.66Z</time></trkpt><trkpt lat="45.4373697" lon="10.510304"><ele>143.33333333333334</ele><time>2026-04-18T08:55:38.66Z</time></trkpt><trkpt lat="45.4374368" lon="10.5103757"><ele>143.66666666666666</ele><time>2026-04-18T08:55:39.66Z</time></trkpt><trkpt lat="45.4375078" lon="10.5104442"><ele>144.0</ele><time>2026-04-18T08:55:40.661Z</time></trkpt><trkpt lat="45.4375796" lon="10.5105159"><ele>144.0</ele><time>2026-04-18T08:55:41.66Z</time></trkpt><trkpt lat="45.4376468" lon="10.5105886"><ele>144.0</ele><time>2026-04-18T08:55:42.659Z</time></trkpt><trkpt lat="45.4377196" lon="10.5106585"><ele>144.0</ele><time>2026-04-18T08:55:43.66Z</time></trkpt><trkpt lat="45.4377937" lon="10.510725"><ele>144.0</ele><time>2026-04-18T08:55:44.66Z</time></trkpt><trkpt lat="45.4378704" lon="10.5107868"><ele>144.0</ele><time>2026-04-18T08:55:45.659Z</time></trkpt><trkpt lat="45.4379503" lon="10.510846"><ele>144.0</ele><time>2026-04-18T08:55:46.66Z</time></trkpt><trkpt lat="45.4380356" lon="10.5108957"><ele>145.2</ele><time>2026-04-18T08:55:47.66Z</time></trkpt><trkpt lat="45.4381259" lon="10.5109387"><ele>146.4</ele><time>2026-04-18T08:55:48.66Z</time></trkpt><trkpt lat="45.4382172" lon="10.510988"><ele>147.6</ele><time>2026-04-18T08:55:49.659Z</time></trkpt><trkpt lat="45.4383043" lon="10.5110458"><ele>148.8</ele><time>2026-04-18T08:55:50.661Z</time></trkpt><trkpt lat="45.4383769" lon="10.5111094"><ele>150.0</ele><time>2026-04-18T08:55:51.66Z</time></trkpt><trkpt lat="45.4384393" lon="10.5111756"><ele>150.0</ele><time>2026-04-18T08:55:52.659Z</time></trkpt><trkpt lat="45.4385217" lon="10.5112786"><ele>150.0</ele><time>2026-04-18T08:55:54.66Z</time></trkpt><trkpt lat="45.4385468" lon="10.5113689"><ele>150.0</ele><time>2026-04-18T08:56:03.66Z</time></trkpt><trkpt lat="45.4385928" lon="10.5112717"><ele>150.0</ele><time>2026-04-18T08:56:14.659Z</time></trkpt><trkpt lat="45.4386809" lon="10.5111561"><ele>150.0</ele><time>2026-04-18T08:56:16.66Z</time></trkpt><trkpt lat="45.4387298" lon="10.5110954"><ele>150.0</ele><time>2026-04-18T08:57:49.659Z</time></trkpt><trkpt lat="45.4386811" lon="10.5111541"><ele>148.33333333333334</ele><time>2026-04-18T08:58:21.659Z</time></trkpt><trkpt lat="45.4386385" lon="10.5112492"><ele>146.66666666666666</ele><time>2026-04-18T08:58:23.659Z</time></trkpt><trkpt lat="45.4385763" lon="10.5113508"><ele>145.0</ele><time>2026-04-18T08:58:25.659Z</time></trkpt><trkpt lat="45.4385449" lon="10.5114364"><ele>143.33333333333331</ele><time>2026-04-18T08:58:27.659Z</time></trkpt><trkpt lat="45.4386064" lon="10.5114863"><ele>141.66666666666666</ele><time>2026-04-18T08:58:48.66Z</time></trkpt><trkpt lat="45.4386907" lon="10.5114977"><ele>140.0</ele><time>2026-04-18T08:58:50.659Z</time></trkpt><trkpt lat="45.4387898" lon="10.5114995"><ele>140.33333333333331</ele><time>2026-04-18T08:58:52.66Z</time></trkpt><trkpt lat="45.4389056" lon="10.5115159"><ele>140.66666666666666</ele><time>2026-04-18T08:58:54.659Z</time></trkpt><trkpt lat="45.4389707" lon="10.5115192"><ele>141.0</ele><time>2026-04-18T08:58:55.66Z</time></trkpt><trkpt lat="45.439039" lon="10.5115116"><ele>141.33333333333334</ele><time>2026-04-18T08:58:56.659Z</time></trkpt><trkpt lat="45.4391092" lon="10.5114873"><ele>141.66666666666669</ele><time>2026-04-18T08:58:57.659Z</time></trkpt><trkpt lat="45.4391772" lon="10.5114487"><ele>142.0</ele><time>2026-04-18T08:58:58.659Z</time></trkpt><trkpt lat="45.4392521" lon="10.5113947"><ele>142.0</ele><time>2026-04-18T08:58:59.66Z</time></trkpt><trkpt lat="45.4393266" lon="10.5113498"><ele>142.0</ele><time>2026-04-18T08:59:00.659Z</time></trkpt><trkpt lat="45.4394062" lon="10.5113121"><ele>142.0</ele><time>2026-04-18T08:59:01.659Z</time></trkpt><trkpt lat="45.4394831" lon="10.511303"><ele>142.0</ele><time>2026-04-18T08:59:02.659Z</time></trkpt><trkpt lat="45.4395669" lon="10.5112982"><ele>142.0</ele><time>2026-04-18T08:59:03.659Z</time></trkpt><trkpt lat="45.4396517" lon="10.5112973"><ele>142.0</ele><time>2026-04-18T08:59:04.659Z</time></trkpt><trkpt lat="45.4397367" lon="10.5112938"><ele>142.33333333333334</ele><time>2026-04-18T08:59:05.659Z</time></trkpt><trkpt lat="45.4398183" lon="10.5112808"><ele>142.66666666666669</ele><time>2026-04-18T08:59:06.659Z</time></trkpt><trkpt lat="45.4399012" lon="10.5112533"><ele>143.0</ele><time>2026-04-18T08:59:07.659Z</time></trkpt><trkpt lat="45.4399846" lon="10.5112217"><ele>143.33333333333334</ele><time>2026-04-18T08:59:08.658Z</time></trkpt><trkpt lat="45.44007" lon="10.5111773"><ele>143.66666666666666</ele><time>2026-04-18T08:59:09.658Z</time></trkpt><trkpt lat="45.4401553" lon="10.5111208"><ele>144.0</ele><time>2026-04-18T08:59:10.659Z</time></trkpt><trkpt lat="45.4402364" lon="10.5110607"><ele>147.6</ele><time>2026-04-18T08:59:11.659Z</time></trkpt><trkpt lat="45.4403211" lon="10.5110039"><ele>151.2</ele><time>2026-04-18T08:59:12.659Z</time></trkpt><trkpt lat="45.4404059" lon="10.5109511"><ele>154.79999999999998</ele><time>2026-04-18T08:59:13.658Z</time></trkpt><trkpt lat="45.4404954" lon="10.5108997"><ele>158.4</ele><time>2026-04-18T08:59:14.659Z</time></trkpt><trkpt lat="45.4405829" lon="10.5108538"><ele>162.0</ele><time>2026-04-18T08:59:15.659Z</time></trkpt><trkpt lat="45.4406721" lon="10.5108005"><ele>162.0</ele><time>2026-04-18T08:59:16.66Z</time></trkpt><trkpt lat="45.4407616" lon="10.5107609"><ele>162.0</ele><time>2026-04-18T08:59:17.659Z</time></trkpt><trkpt lat="45.4408553" lon="10.5107273"><ele>162.0</ele><time>2026-04-18T08:59:18.659Z</time></trkpt><trkpt lat="45.4409502" lon="10.5107035"><ele>162.0</ele><time>2026-04-18T08:59:19.659Z</time></trkpt><trkpt lat="45.4410464" lon="10.5106734"><ele>162.0</ele><time>2026-04-18T08:59:20.659Z</time></trkpt><trkpt lat="45.4412366" lon="10.5106298"><ele>162.39999999999998</ele><time>2026-04-18T08:59:22.659Z</time></trkpt><trkpt lat="45.4413268" lon="10.5106039"><ele>162.79999999999998</ele><time>2026-04-18T08:59:23.661Z</time></trkpt><trkpt lat="45.4414106" lon="10.5105441"><ele>163.2</ele><time>2026-04-18T08:59:24.659Z</time></trkpt><trkpt lat="45.441504" lon="10.5104842"><ele>163.6</ele><time>2026-04-18T08:59:25.659Z</time></trkpt><trkpt lat="45.4416045" lon="10.5104523"><ele>164.0</ele><time>2026-04-18T08:59:26.659Z</time></trkpt><trkpt lat="45.4417066" lon="10.5104578"><ele>164.0</ele><time>2026-04-18T08:59:27.66Z</time></trkpt><trkpt lat="45.4418056" lon="10.5104853"><ele>164.0</ele><time>2026-04-18T08:59:28.659Z</time></trkpt><trkpt lat="45.4418933" lon="10.5105135"><ele>164.0</ele><time>2026-04-18T08:59:29.659Z</time></trkpt><trkpt lat="45.4419659" lon="10.5105253"><ele>164.0</ele><time>2026-04-18T08:59:30.659Z</time></trkpt><trkpt lat="45.4420345" lon="10.5105071"><ele>164.0</ele><time>2026-04-18T08:59:31.659Z</time></trkpt><trkpt lat="45.442112" lon="10.5104908"><ele>164.0</ele><time>2026-04-18T08:59:32.659Z</time></trkpt><trkpt lat="45.4421856" lon="10.5104708"><ele>164.66666666666666</ele><time>2026-04-18T08:59:33.659Z</time></trkpt><trkpt lat="45.4422559" lon="10.5104543"><ele>165.33333333333331</ele><time>2026-04-18T08:59:34.659Z</time></trkpt><trkpt lat="45.4423315" lon="10.5104312"><ele>166.0</ele><time>2026-04-18T08:59:35.66Z</time></trkpt><trkpt lat="45.4424106" lon="10.5103896"><ele>166.66666666666666</ele><time>2026-04-18T08:59:36.659Z</time></trkpt><trkpt lat="45.4424903" lon="10.5103541"><ele>167.33333333333334</ele><time>2026-04-18T08:59:37.659Z</time></trkpt><trkpt lat="45.442571" lon="10.5103179"><ele>168.0</ele><time>2026-04-18T08:59:38.657Z</time></trkpt><trkpt lat="45.4426513" lon="10.510282"><ele>170.85714285714286</ele><time>2026-04-18T08:59:39.659Z</time></trkpt><trkpt lat="45.4427071" lon="10.5102143"><ele>173.71428571428572</ele><time>2026-04-18T08:59:40.66Z</time></trkpt><trkpt lat="45.4427631" lon="10.5101548"><ele>176.57142857142856</ele><time>2026-04-18T08:59:41.659Z</time></trkpt><trkpt lat="45.4428128" lon="10.5100891"><ele>179.42857142857144</ele><time>2026-04-18T08:59:42.658Z</time></trkpt><trkpt lat="45.4428569" lon="10.5100037"><ele>182.28571428571428</ele><time>2026-04-18T08:59:43.66Z</time></trkpt><trkpt lat="45.4428925" lon="10.5099079"><ele>185.14285714285714</ele><time>2026-04-18T08:59:44.659Z</time></trkpt><trkpt lat="45.4429157" lon="10.5098067"><ele>188.0</ele><time>2026-04-18T08:59:45.66Z</time></trkpt><trkpt lat="45.4429394" lon="10.5097052"><ele>188.0</ele><time>2026-04-18T08:59:46.659Z</time></trkpt><trkpt lat="45.4429587" lon="10.5096031"><ele>188.0</ele><time>2026-04-18T08:59:47.659Z</time></trkpt><trkpt lat="45.4429811" lon="10.5095185"><ele>188.0</ele><time>2026-04-18T08:59:48.659Z</time></trkpt><trkpt lat="45.4430118" lon="10.5094226"><ele>188.0</ele><time>2026-04-18T08:59:50.659Z</time></trkpt><trkpt lat="45.4429368" lon="10.5094478"><ele>188.0</ele><time>2026-04-18T08:59:53.659Z</time></trkpt><trkpt lat="45.4429252" lon="10.5095434"><ele>188.0</ele><time>2026-04-18T08:59:54.659Z</time></trkpt><trkpt lat="45.4429113" lon="10.5096672"><ele>188.0</ele><time>2026-04-18T08:59:55.659Z</time></trkpt><trkpt lat="45.4428759" lon="10.5098138"><ele>188.0</ele><time>2026-04-18T08:59:56.659Z</time></trkpt><trkpt lat="45.4428325" lon="10.509938"><ele>188.0</ele><time>2026-04-18T08:59:57.658Z</time></trkpt><trkpt lat="45.442768" lon="10.5100437"><ele>188.0</ele><time>2026-04-18T08:59:58.659Z</time></trkpt><trkpt lat="45.4426998" lon="10.5101254"><ele>188.0</ele><time>2026-04-18T08:59:59.659Z</time></trkpt><trkpt lat="45.4426295" lon="10.5101946"><ele>188.0</ele><time>2026-04-18T09:00:00.659Z</time></trkpt><trkpt lat="45.4425547" lon="10.5102602"><ele>188.0</ele><time>2026-04-18T09:00:01.658Z</time></trkpt><trkpt lat="45.4424741" lon="10.5103054"><ele>188.0</ele><time>2026-04-18T09:00:02.66Z</time></trkpt><trkpt lat="45.4423919" lon="10.5103465"><ele>188.0</ele><time>2026-04-18T09:00:03.659Z</time></trkpt><trkpt lat="45.4423133" lon="10.5103815"><ele>188.0</ele><time>2026-04-18T09:00:04.658Z</time></trkpt><trkpt lat="45.4422413" lon="10.5104114"><ele>188.0</ele><time>2026-04-18T09:00:05.659Z</time></trkpt><trkpt lat="45.4421548" lon="10.5104409"><ele>188.0</ele><time>2026-04-18T09:00:06.659Z</time></trkpt><trkpt lat="45.4420787" lon="10.5104637"><ele>183.2</ele><time>2026-04-18T09:00:07.659Z</time></trkpt><trkpt lat="45.441995" lon="10.5104667"><ele>178.4</ele><time>2026-04-18T09:00:08.658Z</time></trkpt><trkpt lat="45.4419057" lon="10.5104631"><ele>173.6</ele><time>2026-04-18T09:00:09.659Z</time></trkpt><trkpt lat="45.4418132" lon="10.5104477"><ele>168.79999999999998</ele><time>2026-04-18T09:00:10.658Z</time></trkpt><trkpt lat="45.4417177" lon="10.51042"><ele>164.0</ele><time>2026-04-18T09:00:11.659Z</time></trkpt><trkpt lat="45.4416228" lon="10.5104091"><ele>164.0</ele><time>2026-04-18T09:00:12.658Z</time></trkpt><trkpt lat="45.4415372" lon="10.5104285"><ele>164.0</ele><time>2026-04-18T09:00:13.659Z</time></trkpt><trkpt lat="45.4414437" lon="10.5104739"><ele>164.0</ele><time>2026-04-18T09:00:14.658Z</time></trkpt><trkpt lat="45.4413526" lon="10.5105248"><ele>164.0</ele><time>2026-04-18T09:00:15.659Z</time></trkpt><trkpt lat="45.4412598" lon="10.5105773"><ele>164.0</ele><time>2026-04-18T09:00:16.658Z</time></trkpt><trkpt lat="45.4411598" lon="10.5106288"><ele>163.6</ele><time>2026-04-18T09:00:17.659Z</time></trkpt><trkpt lat="45.441065" lon="10.5106597"><ele>163.2</ele><time>2026-04-18T09:00:18.659Z</time></trkpt><trkpt lat="45.440974" lon="10.5106755"><ele>162.79999999999998</ele><time>2026-04-18T09:00:19.66Z</time></trkpt><trkpt lat="45.4408764" lon="10.5106998"><ele>162.39999999999998</ele><time>2026-04-18T09:00:20.659Z</time></trkpt><trkpt lat="45.4407823" lon="10.510726"><ele>162.0</ele><time>2026-04-18T09:00:21.657Z</time></trkpt><trkpt lat="45.4406871" lon="10.5107661"><ele>162.0</ele><time>2026-04-18T09:00:22.659Z</time></trkpt><trkpt lat="45.4405955" lon="10.5108093"><ele>162.0</ele><time>2026-04-18T09:00:23.659Z</time></trkpt><trkpt lat="45.440502" lon="10.510855"><ele>162.0</ele><time>2026-04-18T09:00:24.659Z</time></trkpt><trkpt lat="45.4404052" lon="10.5109063"><ele>162.0</ele><time>2026-04-18T09:00:25.658Z</time></trkpt><trkpt lat="45.4403113" lon="10.5109608"><ele>162.0</ele><time>2026-04-18T09:00:26.66Z</time></trkpt><trkpt lat="45.440218" lon="10.5110218"><ele>162.39999999999998</ele><time>2026-04-18T09:00:27.658Z</time></trkpt><trkpt lat="45.4401245" lon="10.5110818"><ele>162.79999999999998</ele><time>2026-04-18T09:00:28.66Z</time></trkpt><trkpt lat="45.4400254" lon="10.511144"><ele>163.2</ele><time>2026-04-18T09:00:29.659Z</time></trkpt><trkpt lat="45.4399245" lon="10.5111997"><ele>163.6</ele><time>2026-04-18T09:00:30.66Z</time></trkpt><trkpt lat="45.4398222" lon="10.511226"><ele>164.0</ele><time>2026-04-18T09:00:31.659Z</time></trkpt><trkpt lat="45.4397195" lon="10.5112458"><ele>159.6</ele><time>2026-04-18T09:00:32.657Z</time></trkpt><trkpt lat="45.4396194" lon="10.5112493"><ele>155.2</ele><time>2026-04-18T09:00:33.658Z</time></trkpt><trkpt lat="45.4395228" lon="10.5112433"><ele>150.79999999999998</ele><time>2026-04-18T09:00:34.659Z</time></trkpt><trkpt lat="45.4394299" lon="10.5112582"><ele>146.39999999999998</ele><time>2026-04-18T09:00:35.659Z</time></trkpt><trkpt lat="45.43934" lon="10.5113018"><ele>142.0</ele><time>2026-04-18T09:00:36.659Z</time></trkpt><trkpt lat="45.4392605" lon="10.5113731"><ele>142.0</ele><time>2026-04-18T09:00:37.659Z</time></trkpt><trkpt lat="45.4391751" lon="10.5114388"><ele>142.0</ele><time>2026-04-18T09:00:38.658Z</time></trkpt><trkpt lat="45.4390742" lon="10.5114754"><ele>142.0</ele><time>2026-04-18T09:00:39.659Z</time></trkpt><trkpt lat="45.4389822" lon="10.511487"><ele>142.0</ele><time>2026-04-18T09:00:40.659Z</time></trkpt><trkpt lat="45.4388895" lon="10.5114816"><ele>142.0</ele><time>2026-04-18T09:00:41.66Z</time></trkpt><trkpt lat="45.438804" lon="10.5114804"><ele>142.0</ele><time>2026-04-18T09:00:42.658Z</time></trkpt><trkpt lat="45.4387395" lon="10.5114844"><ele>142.0</ele><time>2026-04-18T09:00:43.658Z</time></trkpt><trkpt lat="45.4386731" lon="10.5115269"><ele>142.0</ele><time>2026-04-18T09:00:45.659Z</time></trkpt><trkpt lat="45.4387058" lon="10.5116054"><ele>142.0</ele><time>2026-04-18T09:00:48.659Z</time></trkpt><trkpt lat="45.4387852" lon="10.5116406"><ele>142.0</ele><time>2026-04-18T09:00:50.66Z</time></trkpt><trkpt lat="45.4388674" lon="10.5116462"><ele>142.0</ele><time>2026-04-18T09:00:52.658Z</time></trkpt><trkpt lat="45.4389342" lon="10.5116526"><ele>142.0</ele><time>2026-04-18T09:00:54.657Z</time></trkpt><trkpt lat="45.4390031" lon="10.511671"><ele>142.0</ele><time>2026-04-18T09:00:56.659Z</time></trkpt><trkpt lat="45.4390766" lon="10.5116856"><ele>142.0</ele><time>2026-04-18T09:00:58.657Z</time></trkpt><trkpt lat="45.4391464" lon="10.5116842"><ele>142.0</ele><time>2026-04-18T09:01:00.659Z</time></trkpt><trkpt lat="45.4392155" lon="10.511648"><ele>142.0</ele><time>2026-04-18T09:01:02.659Z</time></trkpt><trkpt lat="45.4392822" lon="10.5115993"><ele>142.0</ele><time>2026-04-18T09:01:03.659Z</time></trkpt><trkpt lat="45.4393903" lon="10.5115287"><ele>142.0</ele><time>2026-04-18T09:01:05.658Z</time></trkpt><trkpt lat="45.4394738" lon="10.5115048"><ele>142.0</ele><time>2026-04-18T09:01:07.658Z</time></trkpt><trkpt lat="45.4395779" lon="10.5114858"><ele>142.0</ele><time>2026-04-18T09:01:09.658Z</time></trkpt><trkpt lat="45.4396442" lon="10.5114495"><ele>142.0</ele><time>2026-04-18T09:01:10.659Z</time></trkpt><trkpt lat="45.4397391" lon="10.5114816"><ele>142.0</ele><time>2026-04-18T09:01:12.659Z</time></trkpt><trkpt lat="45.4398207" lon="10.5114403"><ele>142.0</ele><time>2026-04-18T09:01:17.658Z</time></trkpt><trkpt lat="45.4399136" lon="10.5113937"><ele>142.33333333333334</ele><time>2026-04-18T09:01:19.659Z</time></trkpt><trkpt lat="45.4400212" lon="10.5113455"><ele>142.66666666666669</ele><time>2026-04-18T09:01:21.659Z</time></trkpt><trkpt lat="45.4401048" lon="10.5112943"><ele>143.0</ele><time>2026-04-18T09:01:23.658Z</time></trkpt><trkpt lat="45.4401667" lon="10.5112384"><ele>143.33333333333334</ele><time>2026-04-18T09:01:25.659Z</time></trkpt><trkpt lat="45.4402564" lon="10.5112079"><ele>143.66666666666666</ele><time>2026-04-18T09:01:27.659Z</time></trkpt><trkpt lat="45.4403154" lon="10.5111709"><ele>144.0</ele><time>2026-04-18T09:01:29.658Z</time></trkpt><trkpt lat="45.4403999" lon="10.5111351"><ele>147.0</ele><time>2026-04-18T09:01:32.659Z</time></trkpt><trkpt lat="45.4404696" lon="10.5110894"><ele>150.0</ele><time>2026-04-18T09:01:34.658Z</time></trkpt><trkpt lat="45.440549" lon="10.5110563"><ele>153.0</ele><time>2026-04-18T09:01:36.658Z</time></trkpt><trkpt lat="45.44062" lon="10.5110257"><ele>156.0</ele><time>2026-04-18T09:01:38.659Z</time></trkpt><trkpt lat="45.4406817" lon="10.5109851"><ele>159.0</ele><time>2026-04-18T09:01:40.66Z</time></trkpt><trkpt lat="45.4407744" lon="10.5109714"><ele>162.0</ele><time>2026-04-18T09:01:42.658Z</time></trkpt><trkpt lat="45.4408592" lon="10.5109597"><ele>162.0</ele><time>2026-04-18T09:01:44.658Z</time></trkpt><trkpt lat="45.4409488" lon="10.5109467"><ele>162.0</ele><time>2026-04-18T09:01:48.658Z</time></trkpt><trkpt lat="45.4410162" lon="10.5109825"><ele>162.0</ele><time>2026-04-18T09:01:50.659Z</time></trkpt><trkpt lat="45.4410917" lon="10.5110213"><ele>162.0</ele><time>2026-04-18T09:01:53.658Z</time></trkpt><trkpt lat="45.4411291" lon="10.5111082"><ele>162.0</ele><time>2026-04-18T09:02:07.657Z</time></trkpt><trkpt lat="45.4412004" lon="10.5111278"><ele>162.0</ele><time>2026-04-18T09:02:13.659Z</time></trkpt><trkpt lat="45.4412607" lon="10.5110807"><ele>162.28571428571428</ele><time>2026-04-18T09:02:20.659Z</time></trkpt><trkpt lat="45.4413113" lon="10.5109845"><ele>162.57142857142856</ele><time>2026-04-18T09:02:23.659Z</time></trkpt><trkpt lat="45.4413674" lon="10.510908"><ele>162.85714285714283</ele><time>2026-04-18T09:02:45.659Z</time></trkpt><trkpt lat="45.441423" lon="10.5108473"><ele>163.14285714285714</ele><time>2026-04-18T09:02:49.658Z</time></trkpt><trkpt lat="45.4414898" lon="10.510801"><ele>163.42857142857142</ele><time>2026-04-18T09:02:53.659Z</time></trkpt><trkpt lat="45.441551" lon="10.5108337"><ele>163.7142857142857</ele><time>2026-04-18T09:03:02.659Z</time></trkpt><trkpt lat="45.4416187" lon="10.5108367"><ele>164.0</ele><time>2026-04-18T09:03:06.658Z</time></trkpt><trkpt lat="45.4417071" lon="10.5108296"><ele>164.0</ele><time>2026-04-18T09:03:10.658Z</time></trkpt><trkpt lat="45.4418386" lon="10.5108253"><ele>164.0</ele><time>2026-04-18T09:03:12.657Z</time></trkpt><trkpt lat="45.4419114" lon="10.5108234"><ele>164.0</ele><time>2026-04-18T09:03:13.659Z</time></trkpt><trkpt lat="45.4420193" lon="10.5108102"><ele>164.0</ele><time>2026-04-18T09:03:15.657Z</time></trkpt><trkpt lat="45.4421052" lon="10.5107921"><ele>164.0</ele><time>2026-04-18T09:03:18.658Z</time></trkpt><trkpt lat="45.4422027" lon="10.5107239"><ele>164.79999999999998</ele><time>2026-04-18T09:03:20.658Z</time></trkpt><trkpt lat="45.4422955" lon="10.5106351"><ele>165.6</ele><time>2026-04-18T09:03:22.66Z</time></trkpt><trkpt lat="45.4423782" lon="10.5105894"><ele>166.4</ele><time>2026-04-18T09:03:24.658Z</time></trkpt><trkpt lat="45.4424684" lon="10.5105645"><ele>167.2</ele><time>2026-04-18T09:03:26.657Z</time></trkpt><trkpt lat="45.4425669" lon="10.5105378"><ele>168.0</ele><time>2026-04-18T09:03:28.659Z</time></trkpt><trkpt lat="45.4426462" lon="10.5105707"><ele>168.0</ele><time>2026-04-18T09:03:29.658Z</time></trkpt><trkpt lat="45.442719" lon="10.5105912"><ele>168.0</ele><time>2026-04-18T09:03:30.657Z</time></trkpt><trkpt lat="45.4428198" lon="10.5106105"><ele>168.0</ele><time>2026-04-18T09:03:32.659Z</time></trkpt><trkpt lat="45.4429037" lon="10.5105854"><ele>168.0</ele><time>2026-04-18T09:03:34.66Z</time></trkpt><trkpt lat="45.4430083" lon="10.5105416"><ele>168.0</ele><time>2026-04-18T09:03:36.659Z</time></trkpt><trkpt lat="45.4430735" lon="10.5105311"><ele>168.0</ele><time>2026-04-18T09:03:37.659Z</time></trkpt><trkpt lat="45.4431443" lon="10.5105334"><ele>168.0</ele><time>2026-04-18T09:03:38.658Z</time></trkpt><trkpt lat="45.4432081" lon="10.5105364"><ele>168.0</ele><time>2026-04-18T09:03:39.658Z</time></trkpt><trkpt lat="45.4432899" lon="10.5105175"><ele>168.0</ele><time>2026-04-18T09:03:40.659Z</time></trkpt><trkpt lat="45.4433633" lon="10.510512"><ele>168.0</ele><time>2026-04-18T09:03:41.658Z</time></trkpt><trkpt lat="45.4434451" lon="10.5106049"><ele>168.0</ele><time>2026-04-18T09:03:43.658Z</time></trkpt><trkpt lat="45.4435325" lon="10.5106109"><ele>168.0</ele><time>2026-04-18T09:03:45.658Z</time></trkpt><trkpt lat="45.4436348" lon="10.5105818"><ele>168.0</ele><time>2026-04-18T09:03:48.658Z</time></trkpt><trkpt lat="45.4437105" lon="10.5105878"><ele>168.0</ele><time>2026-04-18T09:03:49.66Z</time></trkpt><trkpt lat="45.4437767" lon="10.5106698"><ele>168.0</ele><time>2026-04-18T09:03:50.658Z</time></trkpt><trkpt lat="45.4438398" lon="10.5107384"><ele>168.0</ele><time>2026-04-18T09:03:51.658Z</time></trkpt><trkpt lat="45.4439216" lon="10.5108166"><ele>168.0</ele><time>2026-04-18T09:03:52.659Z</time></trkpt><trkpt lat="45.4439879" lon="10.5108849"><ele>168.0</ele><time>2026-04-18T09:03:53.658Z</time></trkpt><trkpt lat="45.444055" lon="10.5109294"><ele>168.5</ele><time>2026-04-18T09:03:54.658Z</time></trkpt><trkpt lat="45.4441234" lon="10.5109671"><ele>169.0</ele><time>2026-04-18T09:03:55.658Z</time></trkpt><trkpt lat="45.444201" lon="10.510872"><ele>169.5</ele><time>2026-04-18T09:03:56.659Z</time></trkpt><trkpt lat="45.4442851" lon="10.510795"><ele>170.0</ele><time>2026-04-18T09:03:57.657Z</time></trkpt><trkpt lat="45.4443468" lon="10.5107384"><ele>170.5</ele><time>2026-04-18T09:03:58.659Z</time></trkpt><trkpt lat="45.444412" lon="10.51069"><ele>171.0</ele><time>2026-04-18T09:03:59.658Z</time></trkpt><trkpt lat="45.444469" lon="10.510553"><ele>171.0</ele><time>2026-04-18T09:04:01.658Z</time></trkpt><trkpt lat="45.4444849" lon="10.5104552"><ele>171.0</ele><time>2026-04-18T09:04:02.659Z</time></trkpt><trkpt lat="45.4444731" lon="10.5103519"><ele>171.0</ele><time>2026-04-18T09:04:10.658Z</time></trkpt><trkpt lat="45.4444777" lon="10.5102274"><ele>171.0</ele><time>2026-04-18T09:04:13.658Z</time></trkpt><trkpt lat="45.444487" lon="10.5100721"><ele>171.0</ele><time>2026-04-18T09:04:15.658Z</time></trkpt><trkpt lat="45.444477" lon="10.5099363"><ele>171.0</ele><time>2026-04-18T09:04:17.658Z</time></trkpt><trkpt lat="45.4445011" lon="10.5098447"><ele>173.0</ele><time>2026-04-18T09:04:19.658Z</time></trkpt><trkpt lat="45.4445167" lon="10.5096984"><ele>175.0</ele><time>2026-04-18T09:04:23.658Z</time></trkpt><trkpt lat="45.4445561" lon="10.5096247"><ele>177.0</ele><time>2026-04-18T09:04:25.658Z</time></trkpt><trkpt lat="45.4446046" lon="10.5095545"><ele>179.0</ele><time>2026-04-18T09:04:28.657Z</time></trkpt><trkpt lat="45.4446677" lon="10.5095069"><ele>181.0</ele><time>2026-04-18T09:04:58.656Z</time></trkpt><trkpt lat="45.4447237" lon="10.5094072"><ele>183.0</ele><time>2026-04-18T09:05:02.656Z</time></trkpt><trkpt lat="45.4447734" lon="10.5093398"><ele>183.0</ele><time>2026-04-18T09:05:04.657Z</time></trkpt><trkpt lat="45.4448098" lon="10.5092665"><ele>183.0</ele><time>2026-04-18T09:05:05.657Z</time></trkpt><trkpt lat="45.4448722" lon="10.5091708"><ele>183.0</ele><time>2026-04-18T09:05:07.656Z</time></trkpt><trkpt lat="45.4449018" lon="10.5090912"><ele>183.0</ele><time>2026-04-18T09:05:10.657Z</time></trkpt><trkpt lat="45.4449238" lon="10.509005"><ele>183.0</ele><time>2026-04-18T09:05:13.656Z</time></trkpt><trkpt lat="45.4448942" lon="10.5090992"><ele>183.0</ele><time>2026-04-18T09:05:33.659Z</time></trkpt><trkpt lat="45.4448527" lon="10.5091922"><ele>183.0</ele><time>2026-04-18T09:05:35.658Z</time></trkpt><trkpt lat="45.4448069" lon="10.50928"><ele>183.0</ele><time>2026-04-18T09:05:37.658Z</time></trkpt><trkpt lat="45.4447464" lon="10.5094098"><ele>183.0</ele><time>2026-04-18T09:05:39.658Z</time></trkpt><trkpt lat="45.4446188" lon="10.5095608"><ele>183.0</ele><time>2026-04-18T09:05:41.658Z</time></trkpt><trkpt lat="45.4445584" lon="10.5096497"><ele>183.0</ele><time>2026-04-18T09:05:42.659Z</time></trkpt><trkpt lat="45.4444373" lon="10.5098147"><ele>184.66666666666666</ele><time>2026-04-18T09:05:44.659Z</time></trkpt><trkpt lat="45.444412" lon="10.509897"><ele>186.33333333333331</ele><time>2026-04-18T09:05:45.657Z</time></trkpt><trkpt lat="45.4444415" lon="10.5100741"><ele>188.0</ele><time>2026-04-18T09:05:47.658Z</time></trkpt><trkpt lat="45.4444418" lon="10.510176"><ele>189.66666666666666</ele><time>2026-04-18T09:05:48.658Z</time></trkpt><trkpt lat="45.4444294" lon="10.510274"><ele>191.33333333333331</ele><time>2026-04-18T09:05:49.657Z</time></trkpt><trkpt lat="45.4444171" lon="10.5103622"><ele>193.0</ele><time>2026-04-18T09:05:50.658Z</time></trkpt><trkpt lat="45.4443962" lon="10.5105273"><ele>188.60000000000002</ele><time>2026-04-18T09:05:52.657Z</time></trkpt><trkpt lat="45.444334" lon="10.5106291"><ele>184.20000000000002</ele><time>2026-04-18T09:05:54.658Z</time></trkpt><trkpt lat="45.4442625" lon="10.5106726"><ele>179.8</ele><time>2026-04-18T09:05:56.658Z</time></trkpt><trkpt lat="45.4441688" lon="10.5107223"><ele>175.4</ele><time>2026-04-18T09:06:01.657Z</time></trkpt><trkpt lat="45.4440665" lon="10.5107577"><ele>171.0</ele><time>2026-04-18T09:06:03.657Z</time></trkpt><trkpt lat="45.4439909" lon="10.5107887"><ele>171.0</ele><time>2026-04-18T09:06:06.658Z</time></trkpt><trkpt lat="45.4439283" lon="10.5107545"><ele>171.0</ele><time>2026-04-18T09:06:08.657Z</time></trkpt><trkpt lat="45.4438573" lon="10.5106802"><ele>171.0</ele><time>2026-04-18T09:06:10.657Z</time></trkpt><trkpt lat="45.4437785" lon="10.5106009"><ele>171.0</ele><time>2026-04-18T09:06:12.657Z</time></trkpt><trkpt lat="45.4436817" lon="10.5106053"><ele>171.0</ele><time>2026-04-18T09:06:14.657Z</time></trkpt><trkpt lat="45.4436146" lon="10.5105966"><ele>171.0</ele><time>2026-04-18T09:06:16.656Z</time></trkpt><trkpt lat="45.4435456" lon="10.5106118"><ele>171.0</ele><time>2026-04-18T09:06:19.657Z</time></trkpt><trkpt lat="45.4435478" lon="10.5107138"><ele>171.0</ele><time>2026-04-18T09:06:23.658Z</time></trkpt><trkpt lat="45.4436241" lon="10.5107951"><ele>171.0</ele><time>2026-04-18T09:06:25.658Z</time></trkpt><trkpt lat="45.4437162" lon="10.5108601"><ele>171.0</ele><time>2026-04-18T09:06:27.658Z</time></trkpt><trkpt lat="45.4437811" lon="10.5108894"><ele>171.0</ele><time>2026-04-18T09:06:28.658Z</time></trkpt><trkpt lat="45.4438403" lon="10.5109383"><ele>171.0</ele><time>2026-04-18T09:06:29.657Z</time></trkpt><trkpt lat="45.4439266" lon="10.5110524"><ele>171.0</ele><time>2026-04-18T09:06:31.657Z</time></trkpt><trkpt lat="45.4439802" lon="10.5111057"><ele>171.0</ele><time>2026-04-18T09:06:32.658Z</time></trkpt><trkpt lat="45.4440747" lon="10.5111255"><ele>171.0</ele><time>2026-04-18T09:06:34.657Z</time></trkpt><trkpt lat="45.4441255" lon="10.5112116"><ele>171.0</ele><time>2026-04-18T09:06:37.657Z</time></trkpt><trkpt lat="45.4441977" lon="10.5112363"><ele>171.0</ele><time>2026-04-18T09:06:40.66Z</time></trkpt><trkpt lat="45.444273" lon="10.5112509"><ele>171.0</ele><time>2026-04-18T09:06:42.658Z</time></trkpt><trkpt lat="45.4443386" lon="10.5112613"><ele>167.83333333333334</ele><time>2026-04-18T09:06:44.659Z</time></trkpt><trkpt lat="45.4444128" lon="10.5113152"><ele>164.66666666666666</ele><time>2026-04-18T09:06:47.658Z</time></trkpt><trkpt lat="45.4444904" lon="10.5113342"><ele>161.5</ele><time>2026-04-18T09:06:51.658Z</time></trkpt><trkpt lat="45.4445779" lon="10.5113714"><ele>158.33333333333331</ele><time>2026-04-18T09:06:54.658Z</time></trkpt><trkpt lat="45.4446638" lon="10.5113993"><ele>155.16666666666666</ele><time>2026-04-18T09:06:56.658Z</time></trkpt><trkpt lat="45.4447254" lon="10.5114754"><ele>152.0</ele><time>2026-04-18T09:06:58.658Z</time></trkpt><trkpt lat="45.4447771" lon="10.5115436"><ele>152.0</ele><time>2026-04-18T09:07:00.658Z</time></trkpt><trkpt lat="45.444782" lon="10.5114464"><ele>152.0</ele><time>2026-04-18T09:07:17.657Z</time></trkpt><trkpt lat="45.444686" lon="10.5114622"><ele>152.0</ele><time>2026-04-18T09:07:22.657Z</time></trkpt><trkpt lat="45.4446248" lon="10.5114257"><ele>152.0</ele><time>2026-04-18T09:07:24.658Z</time></trkpt><trkpt lat="45.444567" lon="10.5113873"><ele>152.0</ele><time>2026-04-18T09:07:26.656Z</time></trkpt><trkpt lat="45.4445001" lon="10.5113502"><ele>152.0</ele><time>2026-04-18T09:07:29.658Z</time></trkpt><trkpt lat="45.4444377" lon="10.5112695"><ele>152.0</ele><time>2026-04-18T09:07:31.657Z</time></trkpt><trkpt lat="45.4444559" lon="10.5111333"><ele>152.0</ele><time>2026-04-18T09:07:34.657Z</time></trkpt><trkpt lat="45.4445002" lon="10.5110665"><ele>152.0</ele><time>2026-04-18T09:07:36.658Z</time></trkpt><trkpt lat="45.4445888" lon="10.5110089"><ele>152.0</ele><time>2026-04-18T09:07:39.657Z</time></trkpt><trkpt lat="45.4446537" lon="10.5109583"><ele>152.0</ele><time>2026-04-18T09:07:41.657Z</time></trkpt><trkpt lat="45.4447159" lon="10.5108988"><ele>152.0</ele><time>2026-04-18T09:07:43.657Z</time></trkpt><trkpt lat="45.4447749" lon="10.5108232"><ele>152.0</ele><time>2026-04-18T09:07:45.657Z</time></trkpt><trkpt lat="45.4448304" lon="10.5106935"><ele>152.0</ele><time>2026-04-18T09:07:47.657Z</time></trkpt><trkpt lat="45.4448608" lon="10.5105911"><ele>152.0</ele><time>2026-04-18T09:07:48.657Z</time></trkpt><trkpt lat="45.4448919" lon="10.510491"><ele>152.0</ele><time>2026-04-18T09:07:49.657Z</time></trkpt><trkpt lat="45.4449252" lon="10.5103774"><ele>152.0</ele><time>2026-04-18T09:07:50.657Z</time></trkpt><trkpt lat="45.4449589" lon="10.5102316"><ele>154.39999999999998</ele><time>2026-04-18T09:07:51.657Z</time></trkpt><trkpt lat="45.4450049" lon="10.5100953"><ele>156.79999999999998</ele><time>2026-04-18T09:07:52.658Z</time></trkpt><trkpt lat="45.4450493" lon="10.5099824"><ele>159.2</ele><time>2026-04-18T09:07:53.657Z</time></trkpt><trkpt lat="45.4450764" lon="10.5098898"><ele>161.6</ele><time>2026-04-18T09:07:54.656Z</time></trkpt><trkpt lat="45.4451328" lon="10.5097461"><ele>164.0</ele><time>2026-04-18T09:07:56.659Z</time></trkpt><trkpt lat="45.4451949" lon="10.5096624"><ele>165.0</ele><time>2026-04-18T09:07:57.658Z</time></trkpt><trkpt lat="45.4452436" lon="10.5095666"><ele>166.0</ele><time>2026-04-18T09:07:58.657Z</time></trkpt><trkpt lat="45.4453695" lon="10.5095073"><ele>167.0</ele><time>2026-04-18T09:08:00.657Z</time></trkpt><trkpt lat="45.4455014" lon="10.5094857"><ele>168.0</ele><time>2026-04-18T09:08:01.658Z</time></trkpt><trkpt lat="45.4456067" lon="10.5094498"><ele>168.0</ele><time>2026-04-18T09:08:02.657Z</time></trkpt><trkpt lat="45.4457736" lon="10.5093713"><ele>168.0</ele><time>2026-04-18T09:08:03.658Z</time></trkpt><trkpt lat="45.445883" lon="10.5093117"><ele>168.0</ele><time>2026-04-18T09:08:04.657Z</time></trkpt><trkpt lat="45.4459684" lon="10.5093038"><ele>168.0</ele><time>2026-04-18T09:08:05.657Z</time></trkpt><trkpt lat="45.4460458" lon="10.5092839"><ele>168.0</ele><time>2026-04-18T09:08:06.657Z</time></trkpt><trkpt lat="45.4461303" lon="10.5092489"><ele>168.0</ele><time>2026-04-18T09:08:08.657Z</time></trkpt><trkpt lat="45.446162" lon="10.5091341"><ele>168.0</ele><time>2026-04-18T09:08:11.659Z</time></trkpt><trkpt lat="45.4462281" lon="10.5090734"><ele>168.0</ele><time>2026-04-18T09:08:15.657Z</time></trkpt><trkpt lat="45.4463101" lon="10.5091173"><ele>168.0</ele><time>2026-04-18T09:08:18.657Z</time></trkpt><trkpt lat="45.446423" lon="10.5090961"><ele>167.25</ele><time>2026-04-18T09:08:20.657Z</time></trkpt><trkpt lat="45.4465363" lon="10.5090451"><ele>166.5</ele><time>2026-04-18T09:08:21.658Z</time></trkpt><trkpt lat="45.4466264" lon="10.5089934"><ele>165.75</ele><time>2026-04-18T09:08:22.658Z</time></trkpt><trkpt lat="45.4467517" lon="10.5089222"><ele>165.0</ele><time>2026-04-18T09:08:23.658Z</time></trkpt><trkpt lat="45.4468621" lon="10.5088681"><ele>165.0</ele><time>2026-04-18T09:08:24.658Z</time></trkpt><trkpt lat="45.4469737" lon="10.5088129"><ele>165.0</ele><time>2026-04-18T09:08:25.658Z</time></trkpt><trkpt lat="45.4470848" lon="10.5087668"><ele>165.0</ele><time>2026-04-18T09:08:26.657Z</time></trkpt><trkpt lat="45.4471868" lon="10.5087281"><ele>165.0</ele><time>2026-04-18T09:08:27.657Z</time></trkpt><trkpt lat="45.4473304" lon="10.5086826"><ele>165.2</ele><time>2026-04-18T09:08:29.657Z</time></trkpt><trkpt lat="45.4474161" lon="10.5086649"><ele>165.4</ele><time>2026-04-18T09:08:30.657Z</time></trkpt><trkpt lat="45.4474944" lon="10.5086432"><ele>165.60000000000002</ele><time>2026-04-18T09:08:31.657Z</time></trkpt><trkpt lat="45.4475884" lon="10.5085762"><ele>165.8</ele><time>2026-04-18T09:08:33.656Z</time></trkpt><trkpt lat="45.4476893" lon="10.508409"><ele>166.0</ele><time>2026-04-18T09:08:35.657Z</time></trkpt><trkpt lat="45.4477505" lon="10.5083232"><ele>166.0</ele><time>2026-04-18T09:08:36.657Z</time></trkpt><trkpt lat="45.4478253" lon="10.5082828"><ele>166.0</ele><time>2026-04-18T09:08:37.657Z</time></trkpt><trkpt lat="45.4478902" lon="10.5082422"><ele>166.0</ele><time>2026-04-18T09:08:38.656Z</time></trkpt><trkpt lat="45.44795" lon="10.5081686"><ele>166.0</ele><time>2026-04-18T09:08:39.657Z</time></trkpt><trkpt lat="45.4480352" lon="10.5082848"><ele>166.0</ele><time>2026-04-18T09:08:41.657Z</time></trkpt><trkpt lat="45.4480915" lon="10.5083856"><ele>166.0</ele><time>2026-04-18T09:08:42.658Z</time></trkpt><trkpt lat="45.4481448" lon="10.5084615"><ele>164.33333333333334</ele><time>2026-04-18T09:08:43.657Z</time></trkpt><trkpt lat="45.4481899" lon="10.5085344"><ele>162.66666666666669</ele><time>2026-04-18T09:08:44.657Z</time></trkpt><trkpt lat="45.44822" lon="10.5086345"><ele>161.0</ele><time>2026-04-18T09:08:45.657Z</time></trkpt><trkpt lat="45.4482338" lon="10.5087318"><ele>159.33333333333334</ele><time>2026-04-18T09:08:46.658Z</time></trkpt><trkpt lat="45.4482304" lon="10.5088967"><ele>157.66666666666666</ele><time>2026-04-18T09:08:48.657Z</time></trkpt><trkpt lat="45.4483197" lon="10.5089474"><ele>156.0</ele><time>2026-04-18T09:08:50.657Z</time></trkpt><trkpt lat="45.4484231" lon="10.5089495"><ele>155.85714285714286</ele><time>2026-04-18T09:08:52.657Z</time></trkpt><trkpt lat="45.4484663" lon="10.5090305"><ele>155.7142857142857</ele><time>2026-04-18T09:08:54.657Z</time></trkpt><trkpt lat="45.4484556" lon="10.5091431"><ele>155.57142857142856</ele><time>2026-04-18T09:08:56.657Z</time></trkpt><trkpt lat="45.4484357" lon="10.5092456"><ele>155.42857142857144</ele><time>2026-04-18T09:08:57.657Z</time></trkpt><trkpt lat="45.448425" lon="10.5093487"><ele>155.28571428571428</ele><time>2026-04-18T09:08:58.657Z</time></trkpt><trkpt lat="45.4484414" lon="10.5094419"><ele>155.14285714285714</ele><time>2026-04-18T09:08:59.656Z</time></trkpt><trkpt lat="45.4484776" lon="10.5095166"><ele>155.0</ele><time>2026-04-18T09:09:00.657Z</time></trkpt><trkpt lat="45.4485854" lon="10.5096313"><ele>154.2</ele><time>2026-04-18T09:09:02.657Z</time></trkpt><trkpt lat="45.4486542" lon="10.5096961"><ele>153.4</ele><time>2026-04-18T09:09:03.657Z</time></trkpt><trkpt lat="45.4487185" lon="10.5097582"><ele>152.6</ele><time>2026-04-18T09:09:04.656Z</time></trkpt><trkpt lat="45.4487782" lon="10.5097955"><ele>151.8</ele><time>2026-04-18T09:09:05.657Z</time></trkpt><trkpt lat="45.4489044" lon="10.5098065"><ele>151.0</ele><time>2026-04-18T09:09:07.657Z</time></trkpt><trkpt lat="45.4490283" lon="10.5098339"><ele>150.83333333333334</ele><time>2026-04-18T09:09:09.657Z</time></trkpt><trkpt lat="45.4490974" lon="10.5098547"><ele>150.66666666666669</ele><time>2026-04-18T09:09:10.657Z</time></trkpt><trkpt lat="45.4491681" lon="10.509881"><ele>150.5</ele><time>2026-04-18T09:09:11.656Z</time></trkpt><trkpt lat="45.4492399" lon="10.5099287"><ele>150.33333333333334</ele><time>2026-04-18T09:09:12.656Z</time></trkpt><trkpt lat="45.4493132" lon="10.5099725"><ele>150.16666666666666</ele><time>2026-04-18T09:09:13.657Z</time></trkpt><trkpt lat="45.4493887" lon="10.5100079"><ele>150.0</ele><time>2026-04-18T09:09:14.657Z</time></trkpt><trkpt lat="45.4494725" lon="10.5100351"><ele>150.0</ele><time>2026-04-18T09:09:15.657Z</time></trkpt><trkpt lat="45.4495566" lon="10.5100702"><ele>150.0</ele><time>2026-04-18T09:09:16.658Z</time></trkpt><trkpt lat="45.4496375" lon="10.5101122"><ele>150.0</ele><time>2026-04-18T09:09:17.658Z</time></trkpt><trkpt lat="45.4497233" lon="10.5101443"><ele>150.0</ele><time>2026-04-18T09:09:18.657Z</time></trkpt><trkpt lat="45.4498113" lon="10.5101748"><ele>150.0</ele><time>2026-04-18T09:09:19.657Z</time></trkpt><trkpt lat="45.449894" lon="10.5101975"><ele>150.0</ele><time>2026-04-18T09:09:20.657Z</time></trkpt><trkpt lat="45.4499708" lon="10.51022"><ele>150.0</ele><time>2026-04-18T09:09:21.657Z</time></trkpt><trkpt lat="45.4500978" lon="10.5103394"><ele>150.0</ele><time>2026-04-18T09:09:24.658Z</time></trkpt><trkpt lat="45.4501041" lon="10.5104322"><ele>150.0</ele><time>2026-04-18T09:09:25.657Z</time></trkpt><trkpt lat="45.4501071" lon="10.5105879"><ele>150.0</ele><time>2026-04-18T09:09:27.658Z</time></trkpt><trkpt lat="45.4501109" lon="10.5107193"><ele>150.0</ele><time>2026-04-18T09:09:29.658Z</time></trkpt><trkpt lat="45.450112" lon="10.5108884"><ele>149.66666666666666</ele><time>2026-04-18T09:09:31.657Z</time></trkpt><trkpt lat="45.4501289" lon="10.5109884"><ele>149.33333333333334</ele><time>2026-04-18T09:09:32.657Z</time></trkpt><trkpt lat="45.4501465" lon="10.5110981"><ele>149.0</ele><time>2026-04-18T09:09:33.657Z</time></trkpt><trkpt lat="45.4501766" lon="10.5111951"><ele>148.66666666666669</ele><time>2026-04-18T09:09:34.658Z</time></trkpt><trkpt lat="45.4502284" lon="10.511273"><ele>148.33333333333334</ele><time>2026-04-18T09:09:35.658Z</time></trkpt><trkpt lat="45.4502972" lon="10.5113168"><ele>148.0</ele><time>2026-04-18T09:09:36.657Z</time></trkpt><trkpt lat="45.4503759" lon="10.5113485"><ele>147.4</ele><time>2026-04-18T09:09:37.657Z</time></trkpt><trkpt lat="45.4504579" lon="10.5113559"><ele>146.8</ele><time>2026-04-18T09:09:38.658Z</time></trkpt><trkpt lat="45.450548" lon="10.5113567"><ele>146.2</ele><time>2026-04-18T09:09:39.658Z</time></trkpt><trkpt lat="45.4506347" lon="10.5113478"><ele>145.6</ele><time>2026-04-18T09:09:40.657Z</time></trkpt><trkpt lat="45.4507211" lon="10.5113777"><ele>145.0</ele><time>2026-04-18T09:09:41.657Z</time></trkpt><trkpt lat="45.4508223" lon="10.5114072"><ele>145.0</ele><time>2026-04-18T09:09:42.656Z</time></trkpt><trkpt lat="45.450919" lon="10.511432"><ele>145.0</ele><time>2026-04-18T09:09:43.657Z</time></trkpt><trkpt lat="45.4510092" lon="10.5114609"><ele>145.0</ele><time>2026-04-18T09:09:44.657Z</time></trkpt><trkpt lat="45.4511009" lon="10.5114984"><ele>145.0</ele><time>2026-04-18T09:09:45.657Z</time></trkpt><trkpt lat="45.4511845" lon="10.5115341"><ele>145.0</ele><time>2026-04-18T09:09:46.657Z</time></trkpt><trkpt lat="45.4512716" lon="10.5115551"><ele>144.4</ele><time>2026-04-18T09:09:47.657Z</time></trkpt><trkpt lat="45.4513651" lon="10.5115701"><ele>143.8</ele><time>2026-04-18T09:09:48.657Z</time></trkpt><trkpt lat="45.4514605" lon="10.5115786"><ele>143.2</ele><time>2026-04-18T09:09:49.657Z</time></trkpt><trkpt lat="45.4515585" lon="10.5115923"><ele>142.6</ele><time>2026-04-18T09:09:50.657Z</time></trkpt><trkpt lat="45.451652" lon="10.511618"><ele>142.0</ele><time>2026-04-18T09:09:51.657Z</time></trkpt><trkpt lat="45.4517332" lon="10.5116542"><ele>142.0</ele><time>2026-04-18T09:09:52.657Z</time></trkpt><trkpt lat="45.4518036" lon="10.5117095"><ele>142.0</ele><time>2026-04-18T09:09:53.657Z</time></trkpt><trkpt lat="45.4518701" lon="10.5117788"><ele>142.0</ele><time>2026-04-18T09:09:54.657Z</time></trkpt><trkpt lat="45.4519367" lon="10.5118461"><ele>142.0</ele><time>2026-04-18T09:09:55.658Z</time></trkpt><trkpt lat="45.4520046" lon="10.5119131"><ele>142.0</ele><time>2026-04-18T09:09:56.656Z</time></trkpt><trkpt lat="45.4520678" lon="10.5119621"><ele>142.0</ele><time>2026-04-18T09:09:57.657Z</time></trkpt><trkpt lat="45.4521421" lon="10.512019"><ele>142.0</ele><time>2026-04-18T09:09:59.656Z</time></trkpt><trkpt lat="45.4520661" lon="10.5119768"><ele>142.0</ele><time>2026-04-18T09:10:05.658Z</time></trkpt><trkpt lat="45.452003" lon="10.5119212"><ele>142.0</ele><time>2026-04-18T09:10:06.658Z</time></trkpt><trkpt lat="45.4519376" lon="10.5118617"><ele>142.0</ele><time>2026-04-18T09:10:07.658Z</time></trkpt><trkpt lat="45.4518774" lon="10.5118222"><ele>142.0</ele><time>2026-04-18T09:10:08.657Z</time></trkpt><trkpt lat="45.451806" lon="10.5117559"><ele>142.0</ele><time>2026-04-18T09:10:11.657Z</time></trkpt><trkpt lat="45.4518024" lon="10.5116569"><ele>142.0</ele><time>2026-04-18T09:10:13.657Z</time></trkpt><trkpt lat="45.4518573" lon="10.5115296"><ele>142.0</ele><time>2026-04-18T09:10:15.657Z</time></trkpt><trkpt lat="45.4519118" lon="10.5113675"><ele>142.0</ele><time>2026-04-18T09:10:17.657Z</time></trkpt><trkpt lat="45.4519409" lon="10.5112658"><ele>142.0</ele><time>2026-04-18T09:10:18.657Z</time></trkpt><trkpt lat="45.4519723" lon="10.5111633"><ele>142.0</ele><time>2026-04-18T09:10:19.656Z</time></trkpt><trkpt lat="45.4520328" lon="10.5110732"><ele>143.0</ele><time>2026-04-18T09:10:20.658Z</time></trkpt><trkpt lat="45.4520834" lon="10.5109767"><ele>144.0</ele><time>2026-04-18T09:10:21.657Z</time></trkpt><trkpt lat="45.4521323" lon="10.5108794"><ele>145.0</ele><time>2026-04-18T09:10:22.656Z</time></trkpt><trkpt lat="45.4521944" lon="10.5107823"><ele>146.0</ele><time>2026-04-18T09:10:23.657Z</time></trkpt><trkpt lat="45.4522576" lon="10.5106788"><ele>147.0</ele><time>2026-04-18T09:10:24.657Z</time></trkpt><trkpt lat="45.4523215" lon="10.5105909"><ele>148.0</ele><time>2026-04-18T09:10:25.658Z</time></trkpt><trkpt lat="45.4523823" lon="10.5105154"><ele>148.0</ele><time>2026-04-18T09:10:26.657Z</time></trkpt><trkpt lat="45.4524613" lon="10.5104406"><ele>148.0</ele><time>2026-04-18T09:10:28.657Z</time></trkpt><trkpt lat="45.4525244" lon="10.5105119"><ele>148.0</ele><time>2026-04-18T09:10:30.656Z</time></trkpt><trkpt lat="45.452602" lon="10.5106362"><ele>148.0</ele><time>2026-04-18T09:10:32.657Z</time></trkpt><trkpt lat="45.4526971" lon="10.5106685"><ele>148.0</ele><time>2026-04-18T09:10:34.657Z</time></trkpt><trkpt lat="45.4528005" lon="10.5106715"><ele>148.0</ele><time>2026-04-18T09:10:36.657Z</time></trkpt><trkpt lat="45.4529035" lon="10.5107014"><ele>148.0</ele><time>2026-04-18T09:10:38.656Z</time></trkpt><trkpt lat="45.4529684" lon="10.5107328"><ele>148.0</ele><time>2026-04-18T09:10:39.657Z</time></trkpt><trkpt lat="45.4530432" lon="10.5107759"><ele>148.0</ele><time>2026-04-18T09:10:40.657Z</time></trkpt><trkpt lat="45.4531346" lon="10.5108068"><ele>148.0</ele><time>2026-04-18T09:10:41.658Z</time></trkpt><trkpt lat="45.4532276" lon="10.5108296"><ele>148.0</ele><time>2026-04-18T09:10:42.655Z</time></trkpt><trkpt lat="45.4533291" lon="10.510827"><ele>149.4</ele><time>2026-04-18T09:10:43.657Z</time></trkpt><trkpt lat="45.4534233" lon="10.5108132"><ele>150.8</ele><time>2026-04-18T09:10:44.656Z</time></trkpt><trkpt lat="45.4535203" lon="10.510832"><ele>152.2</ele><time>2026-04-18T09:10:45.657Z</time></trkpt><trkpt lat="45.4536194" lon="10.5108373"><ele>153.6</ele><time>2026-04-18T09:10:46.657Z</time></trkpt><trkpt lat="45.4537161" lon="10.5108291"><ele>155.0</ele><time>2026-04-18T09:10:47.657Z</time></trkpt><trkpt lat="45.4538084" lon="10.5108209"><ele>156.4</ele><time>2026-04-18T09:10:48.656Z</time></trkpt><trkpt lat="45.4539091" lon="10.510811"><ele>157.8</ele><time>2026-04-18T09:10:49.657Z</time></trkpt><trkpt lat="45.4540068" lon="10.5108002"><ele>159.2</ele><time>2026-04-18T09:10:50.657Z</time></trkpt><trkpt lat="45.4541052" lon="10.510791"><ele>160.6</ele><time>2026-04-18T09:10:51.655Z</time></trkpt><trkpt lat="45.4542036" lon="10.5107872"><ele>162.0</ele><time>2026-04-18T09:10:52.656Z</time></trkpt><trkpt lat="45.4542991" lon="10.5107922"><ele>162.0</ele><time>2026-04-18T09:10:53.656Z</time></trkpt><trkpt lat="45.4543966" lon="10.5108095"><ele>162.0</ele><time>2026-04-18T09:10:54.658Z</time></trkpt><trkpt lat="45.4544873" lon="10.5108522"><ele>162.0</ele><time>2026-04-18T09:10:55.658Z</time></trkpt><trkpt lat="45.4545808" lon="10.5108673"><ele>162.0</ele><time>2026-04-18T09:10:56.657Z</time></trkpt><trkpt lat="45.4546709" lon="10.5108132"><ele>162.0</ele><time>2026-04-18T09:10:57.659Z</time></trkpt><trkpt lat="45.4547524" lon="10.510751"><ele>163.39999999999998</ele><time>2026-04-18T09:10:58.658Z</time></trkpt><trkpt lat="45.4548388" lon="10.5107133"><ele>164.79999999999998</ele><time>2026-04-18T09:10:59.656Z</time></trkpt><trkpt lat="45.4549278" lon="10.5107051"><ele>166.2</ele><time>2026-04-18T09:11:00.657Z</time></trkpt><trkpt lat="45.4550203" lon="10.5107194"><ele>167.6</ele><time>2026-04-18T09:11:01.656Z</time></trkpt><trkpt lat="45.4551122" lon="10.510738"><ele>169.0</ele><time>2026-04-18T09:11:02.658Z</time></trkpt><trkpt lat="45.4552051" lon="10.5107568"><ele>169.0</ele><time>2026-04-18T09:11:03.657Z</time></trkpt><trkpt lat="45.455303" lon="10.510779"><ele>169.0</ele><time>2026-04-18T09:11:04.657Z</time></trkpt><trkpt lat="45.4553992" lon="10.5108023"><ele>169.0</ele><time>2026-04-18T09:11:05.656Z</time></trkpt><trkpt lat="45.4554952" lon="10.5108281"><ele>169.0</ele><time>2026-04-18T09:11:06.656Z</time></trkpt><trkpt lat="45.4555913" lon="10.5108521"><ele>169.0</ele><time>2026-04-18T09:11:07.657Z</time></trkpt><trkpt lat="45.4556853" lon="10.5109056"><ele>169.39999999999998</ele><time>2026-04-18T09:11:08.656Z</time></trkpt><trkpt lat="45.4557805" lon="10.5109129"><ele>169.8</ele><time>2026-04-18T09:11:09.658Z</time></trkpt><trkpt lat="45.455866" lon="10.5108882"><ele>170.2</ele><time>2026-04-18T09:11:10.657Z</time></trkpt><trkpt lat="45.4559459" lon="10.5108597"><ele>170.60000000000002</ele><time>2026-04-18T09:11:11.657Z</time></trkpt><trkpt lat="45.4560303" lon="10.5108129"><ele>171.0</ele><time>2026-04-18T09:11:12.656Z</time></trkpt><trkpt lat="45.4560919" lon="10.5106876"><ele>171.0</ele><time>2026-04-18T09:11:13.657Z</time></trkpt><trkpt lat="45.4561529" lon="10.5105473"><ele>171.0</ele><time>2026-04-18T09:11:14.657Z</time></trkpt><trkpt lat="45.4562151" lon="10.5104402"><ele>171.0</ele><time>2026-04-18T09:11:15.657Z</time></trkpt><trkpt lat="45.4562699" lon="10.5103229"><ele>171.0</ele><time>2026-04-18T09:11:16.655Z</time></trkpt><trkpt lat="45.4563277" lon="10.5102145"><ele>171.0</ele><time>2026-04-18T09:11:17.656Z</time></trkpt><trkpt lat="45.4563846" lon="10.5101041"><ele>171.8</ele><time>2026-04-18T09:11:18.657Z</time></trkpt><trkpt lat="45.4564262" lon="10.5099762"><ele>172.60000000000002</ele><time>2026-04-18T09:11:19.656Z</time></trkpt><trkpt lat="45.4564681" lon="10.5098437"><ele>173.4</ele><time>2026-04-18T09:11:20.656Z</time></trkpt><trkpt lat="45.4564925" lon="10.5096998"><ele>174.2</ele><time>2026-04-18T09:11:21.657Z</time></trkpt><trkpt lat="45.4565174" lon="10.5095552"><ele>175.0</ele><time>2026-04-18T09:11:22.657Z</time></trkpt><trkpt lat="45.4565261" lon="10.5094064"><ele>175.0</ele><time>2026-04-18T09:11:23.657Z</time></trkpt><trkpt lat="45.4565274" lon="10.5092645"><ele>175.0</ele><time>2026-04-18T09:11:24.657Z</time></trkpt><trkpt lat="45.4565256" lon="10.509146"><ele>175.0</ele><time>2026-04-18T09:11:25.657Z</time></trkpt><trkpt lat="45.4565396" lon="10.5089854"><ele>175.0</ele><time>2026-04-18T09:11:27.657Z</time></trkpt><trkpt lat="45.4566404" lon="10.5088544"><ele>175.0</ele><time>2026-04-18T09:11:29.657Z</time></trkpt><trkpt lat="45.4567146" lon="10.5087921"><ele>175.0</ele><time>2026-04-18T09:11:30.657Z</time></trkpt><trkpt lat="45.4567952" lon="10.5087373"><ele>175.0</ele><time>2026-04-18T09:11:31.657Z</time></trkpt><trkpt lat="45.4568834" lon="10.5086871"><ele>175.0</ele><time>2026-04-18T09:11:32.656Z</time></trkpt><trkpt lat="45.456972" lon="10.5086351"><ele>175.0</ele><time>2026-04-18T09:11:33.658Z</time></trkpt><trkpt lat="45.4570625" lon="10.5085668"><ele>175.0</ele><time>2026-04-18T09:11:34.658Z</time></trkpt><trkpt lat="45.45715" lon="10.5084865"><ele>173.4</ele><time>2026-04-18T09:11:35.657Z</time></trkpt><trkpt lat="45.4572286" lon="10.5084141"><ele>171.8</ele><time>2026-04-18T09:11:36.657Z</time></trkpt><trkpt lat="45.4573036" lon="10.5083276"><ele>170.2</ele><time>2026-04-18T09:11:37.658Z</time></trkpt><trkpt lat="45.4573716" lon="10.5082318"><ele>168.6</ele><time>2026-04-18T09:11:38.657Z</time></trkpt><trkpt lat="45.4574094" lon="10.5081275"><ele>167.0</ele><time>2026-04-18T09:11:39.656Z</time></trkpt><trkpt lat="45.4574377" lon="10.5080121"><ele>167.33333333333331</ele><time>2026-04-18T09:11:40.656Z</time></trkpt><trkpt lat="45.4574677" lon="10.5078757"><ele>167.66666666666666</ele><time>2026-04-18T09:11:41.657Z</time></trkpt><trkpt lat="45.4575058" lon="10.5077609"><ele>168.0</ele><time>2026-04-18T09:11:42.656Z</time></trkpt><trkpt lat="45.457555" lon="10.5076908"><ele>168.33333333333334</ele><time>2026-04-18T09:11:43.657Z</time></trkpt><trkpt lat="45.4576211" lon="10.5076275"><ele>168.66666666666669</ele><time>2026-04-18T09:11:45.657Z</time></trkpt><trkpt lat="45.457697" lon="10.507565"><ele>169.0</ele><time>2026-04-18T09:11:47.656Z</time></trkpt><trkpt lat="45.457758" lon="10.5074813"><ele>169.0</ele><time>2026-04-18T09:11:49.657Z</time></trkpt><trkpt lat="45.4578171" lon="10.5073689"><ele>169.0</ele><time>2026-04-18T09:11:51.657Z</time></trkpt><trkpt lat="45.4578692" lon="10.5072618"><ele>169.0</ele><time>2026-04-18T09:11:53.657Z</time></trkpt><trkpt lat="45.4579075" lon="10.5071371"><ele>169.0</ele><time>2026-04-18T09:11:55.657Z</time></trkpt><trkpt lat="45.4579237" lon="10.5070088"><ele>169.0</ele><time>2026-04-18T09:11:57.657Z</time></trkpt><trkpt lat="45.4579389" lon="10.5068729"><ele>169.2</ele><time>2026-04-18T09:11:59.658Z</time></trkpt><trkpt lat="45.4579508" lon="10.5067282"><ele>169.39999999999998</ele><time>2026-04-18T09:12:01.657Z</time></trkpt><trkpt lat="45.4579762" lon="10.5065925"><ele>169.6</ele><time>2026-04-18T09:12:03.657Z</time></trkpt><trkpt lat="45.4580003" lon="10.5064564"><ele>169.8</ele><time>2026-04-18T09:12:05.657Z</time></trkpt><trkpt lat="45.4580224" lon="10.5063126"><ele>170.0</ele><time>2026-04-18T09:12:07.655Z</time></trkpt><trkpt lat="45.4580382" lon="10.5061607"><ele>170.0</ele><time>2026-04-18T09:12:09.656Z</time></trkpt><trkpt lat="45.4580584" lon="10.5059804"><ele>170.0</ele><time>2026-04-18T09:12:11.656Z</time></trkpt><trkpt lat="45.4580596" lon="10.5058856"><ele>170.0</ele><time>2026-04-18T09:12:12.657Z</time></trkpt><trkpt lat="45.4580631" lon="10.505782"><ele>170.0</ele><time>2026-04-18T09:12:13.657Z</time></trkpt><trkpt lat="45.458063" lon="10.5056756"><ele>170.0</ele><time>2026-04-18T09:12:14.658Z</time></trkpt><trkpt lat="45.4580681" lon="10.5055708"><ele>170.0</ele><time>2026-04-18T09:12:15.657Z</time></trkpt><trkpt lat="45.4580557" lon="10.5054751"><ele>168.66666666666666</ele><time>2026-04-18T09:12:16.657Z</time></trkpt><trkpt lat="45.4580282" lon="10.5053729"><ele>167.33333333333331</ele><time>2026-04-18T09:12:17.658Z</time></trkpt><trkpt lat="45.4580187" lon="10.5052659"><ele>166.0</ele><time>2026-04-18T09:12:18.657Z</time></trkpt><trkpt lat="45.4580144" lon="10.5051578"><ele>164.66666666666666</ele><time>2026-04-18T09:12:19.657Z</time></trkpt><trkpt lat="45.4579689" lon="10.5050463"><ele>163.33333333333334</ele><time>2026-04-18T09:12:20.658Z</time></trkpt><trkpt lat="45.4579474" lon="10.5049255"><ele>162.0</ele><time>2026-04-18T09:12:21.656Z</time></trkpt><trkpt lat="45.457913" lon="10.5048067"><ele>164.6</ele><time>2026-04-18T09:12:22.657Z</time></trkpt><trkpt lat="45.457859" lon="10.5046999"><ele>167.2</ele><time>2026-04-18T09:12:23.655Z</time></trkpt><trkpt lat="45.457832" lon="10.5046161"><ele>169.8</ele><time>2026-04-18T09:12:24.656Z</time></trkpt><trkpt lat="45.4577973" lon="10.5045084"><ele>172.4</ele><time>2026-04-18T09:12:26.656Z</time></trkpt><trkpt lat="45.4577834" lon="10.504317"><ele>175.0</ele><time>2026-04-18T09:12:28.657Z</time></trkpt><trkpt lat="45.4577806" lon="10.504185"><ele>175.0</ele><time>2026-04-18T09:12:29.657Z</time></trkpt><trkpt lat="45.4577804" lon="10.5040435"><ele>175.0</ele><time>2026-04-18T09:12:30.655Z</time></trkpt><trkpt lat="45.4577966" lon="10.503893"><ele>175.0</ele><time>2026-04-18T09:12:31.656Z</time></trkpt><trkpt lat="45.4578374" lon="10.5037597"><ele>175.0</ele><time>2026-04-18T09:12:32.656Z</time></trkpt><trkpt lat="45.457882" lon="10.5036366"><ele>175.0</ele><time>2026-04-18T09:12:33.657Z</time></trkpt><trkpt lat="45.4579104" lon="10.5035167"><ele>174.83333333333334</ele><time>2026-04-18T09:12:34.656Z</time></trkpt><trkpt lat="45.4579358" lon="10.5033999"><ele>174.66666666666669</ele><time>2026-04-18T09:12:35.656Z</time></trkpt><trkpt lat="45.4579528" lon="10.5032983"><ele>174.5</ele><time>2026-04-18T09:12:36.656Z</time></trkpt><trkpt lat="45.4579698" lon="10.5031832"><ele>174.33333333333334</ele><time>2026-04-18T09:12:37.656Z</time></trkpt><trkpt lat="45.4579914" lon="10.5030668"><ele>174.16666666666666</ele><time>2026-04-18T09:12:38.656Z</time></trkpt><trkpt lat="45.4580303" lon="10.5029507"><ele>174.0</ele><time>2026-04-18T09:12:39.657Z</time></trkpt><trkpt lat="45.4580827" lon="10.5028621"><ele>174.66666666666666</ele><time>2026-04-18T09:12:40.655Z</time></trkpt><trkpt lat="45.4581652" lon="10.5027835"><ele>175.33333333333334</ele><time>2026-04-18T09:12:41.656Z</time></trkpt><trkpt lat="45.4582147" lon="10.5026904"><ele>176.0</ele><time>2026-04-18T09:12:42.656Z</time></trkpt><trkpt lat="45.4582817" lon="10.5026055"><ele>176.66666666666669</ele><time>2026-04-18T09:12:43.656Z</time></trkpt><trkpt lat="45.4583502" lon="10.5025134"><ele>177.33333333333334</ele><time>2026-04-18T09:12:44.657Z</time></trkpt><trkpt lat="45.4584175" lon="10.502442"><ele>178.0</ele><time>2026-04-18T09:12:45.657Z</time></trkpt><trkpt lat="45.4584766" lon="10.5023624"><ele>178.0</ele><time>2026-04-18T09:12:46.656Z</time></trkpt><trkpt lat="45.4585346" lon="10.5022561"><ele>178.0</ele><time>2026-04-18T09:12:47.657Z</time></trkpt><trkpt lat="45.4585888" lon="10.5021685"><ele>178.0</ele><time>2026-04-18T09:12:48.656Z</time></trkpt><trkpt lat="45.4586417" lon="10.5020734"><ele>178.0</ele><time>2026-04-18T09:12:49.657Z</time></trkpt><trkpt lat="45.4586706" lon="10.5019573"><ele>178.0</ele><time>2026-04-18T09:12:50.657Z</time></trkpt><trkpt lat="45.4587188" lon="10.5018779"><ele>178.0</ele><time>2026-04-18T09:12:51.657Z</time></trkpt><trkpt lat="45.4587671" lon="10.5017967"><ele>177.83333333333334</ele><time>2026-04-18T09:12:52.657Z</time></trkpt><trkpt lat="45.4588369" lon="10.5017247"><ele>177.66666666666669</ele><time>2026-04-18T09:12:53.657Z</time></trkpt><trkpt lat="45.4589036" lon="10.5016561"><ele>177.5</ele><time>2026-04-18T09:12:54.657Z</time></trkpt><trkpt lat="45.4589624" lon="10.50159"><ele>177.33333333333334</ele><time>2026-04-18T09:12:55.656Z</time></trkpt><trkpt lat="45.4590178" lon="10.5015285"><ele>177.16666666666666</ele><time>2026-04-18T09:12:56.655Z</time></trkpt><trkpt lat="45.4590716" lon="10.5014215"><ele>177.0</ele><time>2026-04-18T09:12:57.657Z</time></trkpt><trkpt lat="45.4591276" lon="10.5013093"><ele>179.0</ele><time>2026-04-18T09:12:58.655Z</time></trkpt><trkpt lat="45.4591872" lon="10.5011812"><ele>181.0</ele><time>2026-04-18T09:12:59.657Z</time></trkpt><trkpt lat="45.4592441" lon="10.5010626"><ele>183.0</ele><time>2026-04-18T09:13:00.656Z</time></trkpt><trkpt lat="45.4593004" lon="10.5009548"><ele>185.0</ele><time>2026-04-18T09:13:01.656Z</time></trkpt><trkpt lat="45.4593342" lon="10.5008275"><ele>187.0</ele><time>2026-04-18T09:13:02.657Z</time></trkpt><trkpt lat="45.4593728" lon="10.500713"><ele>187.0</ele><time>2026-04-18T09:13:03.657Z</time></trkpt><trkpt lat="45.4594039" lon="10.5006051"><ele>187.0</ele><time>2026-04-18T09:13:04.657Z</time></trkpt><trkpt lat="45.4594322" lon="10.5005071"><ele>187.0</ele><time>2026-04-18T09:13:05.656Z</time></trkpt><trkpt lat="45.45946" lon="10.5004058"><ele>187.0</ele><time>2026-04-18T09:13:06.656Z</time></trkpt><trkpt lat="45.4594833" lon="10.5003075"><ele>187.0</ele><time>2026-04-18T09:13:07.658Z</time></trkpt><trkpt lat="45.4595024" lon="10.5001983"><ele>187.0</ele><time>2026-04-18T09:13:08.657Z</time></trkpt><trkpt lat="45.4595277" lon="10.5000876"><ele>186.83333333333334</ele><time>2026-04-18T09:13:09.657Z</time></trkpt><trkpt lat="45.4595378" lon="10.4999749"><ele>186.66666666666669</ele><time>2026-04-18T09:13:10.657Z</time></trkpt><trkpt lat="45.4595313" lon="10.4998605"><ele>186.5</ele><time>2026-04-18T09:13:11.656Z</time></trkpt><trkpt lat="45.4595154" lon="10.4997603"><ele>186.33333333333334</ele><time>2026-04-18T09:13:12.657Z</time></trkpt><trkpt lat="45.4594911" lon="10.4996573"><ele>186.16666666666666</ele><time>2026-04-18T09:13:13.656Z</time></trkpt><trkpt lat="45.4594623" lon="10.4995417"><ele>186.0</ele><time>2026-04-18T09:13:14.657Z</time></trkpt><trkpt lat="45.4594414" lon="10.4994167"><ele>186.4</ele><time>2026-04-18T09:13:15.657Z</time></trkpt><trkpt lat="45.4594217" lon="10.499285"><ele>186.8</ele><time>2026-04-18T09:13:16.656Z</time></trkpt><trkpt lat="45.4593991" lon="10.4991471"><ele>187.20000000000002</ele><time>2026-04-18T09:13:17.657Z</time></trkpt><trkpt lat="45.4593705" lon="10.49901"><ele>187.60000000000002</ele><time>2026-04-18T09:13:18.656Z</time></trkpt><trkpt lat="45.4593375" lon="10.4988828"><ele>188.0</ele><time>2026-04-18T09:13:19.657Z</time></trkpt><trkpt lat="45.4593098" lon="10.4987616"><ele>187.60000000000002</ele><time>2026-04-18T09:13:20.658Z</time></trkpt><trkpt lat="45.459277" lon="10.4986349"><ele>187.20000000000002</ele><time>2026-04-18T09:13:21.657Z</time></trkpt><trkpt lat="45.4592453" lon="10.4985079"><ele>186.8</ele><time>2026-04-18T09:13:22.656Z</time></trkpt><trkpt lat="45.4592081" lon="10.4983808"><ele>186.4</ele><time>2026-04-18T09:13:23.656Z</time></trkpt><trkpt lat="45.4591722" lon="10.49826"><ele>186.0</ele><time>2026-04-18T09:13:24.657Z</time></trkpt><trkpt lat="45.4591501" lon="10.4981329"><ele>186.0</ele><time>2026-04-18T09:13:25.657Z</time></trkpt><trkpt lat="45.4591256" lon="10.4980097"><ele>186.0</ele><time>2026-04-18T09:13:26.657Z</time></trkpt><trkpt lat="45.4590995" lon="10.49789"><ele>186.0</ele><time>2026-04-18T09:13:27.657Z</time></trkpt><trkpt lat="45.4590739" lon="10.4977728"><ele>186.0</ele><time>2026-04-18T09:13:28.657Z</time></trkpt><trkpt lat="45.4590411" lon="10.4976435"><ele>186.0</ele><time>2026-04-18T09:13:29.656Z</time></trkpt><trkpt lat="45.4590095" lon="10.4975112"><ele>184.8</ele><time>2026-04-18T09:13:30.655Z</time></trkpt><trkpt lat="45.4589762" lon="10.4973758"><ele>183.60000000000002</ele><time>2026-04-18T09:13:31.656Z</time></trkpt><trkpt lat="45.4589426" lon="10.4972378"><ele>182.4</ele><time>2026-04-18T09:13:32.657Z</time></trkpt><trkpt lat="45.4589126" lon="10.4971058"><ele>181.2</ele><time>2026-04-18T09:13:33.656Z</time></trkpt><trkpt lat="45.4588891" lon="10.4969775"><ele>180.0</ele><time>2026-04-18T09:13:34.657Z</time></trkpt><trkpt lat="45.458869" lon="10.4968515"><ele>179.16666666666666</ele><time>2026-04-18T09:13:35.656Z</time></trkpt><trkpt lat="45.4588414" lon="10.4967345"><ele>178.33333333333334</ele><time>2026-04-18T09:13:36.656Z</time></trkpt><trkpt lat="45.4588046" lon="10.496645"><ele>177.5</ele><time>2026-04-18T09:13:37.657Z</time></trkpt><trkpt lat="45.4587504" lon="10.4965822"><ele>176.66666666666669</ele><time>2026-04-18T09:13:38.656Z</time></trkpt><trkpt lat="45.4586886" lon="10.4965336"><ele>175.83333333333334</ele><time>2026-04-18T09:13:39.656Z</time></trkpt><trkpt lat="45.4585977" lon="10.496537"><ele>175.0</ele><time>2026-04-18T09:13:40.657Z</time></trkpt><trkpt lat="45.4585032" lon="10.4965532"><ele>175.0</ele><time>2026-04-18T09:13:41.656Z</time></trkpt><trkpt lat="45.4584115" lon="10.4965472"><ele>175.0</ele><time>2026-04-18T09:13:42.657Z</time></trkpt><trkpt lat="45.4583262" lon="10.4965446"><ele>175.0</ele><time>2026-04-18T09:13:43.656Z</time></trkpt><trkpt lat="45.4582367" lon="10.4965508"><ele>175.0</ele><time>2026-04-18T09:13:44.658Z</time></trkpt><trkpt lat="45.4581426" lon="10.4965452"><ele>175.0</ele><time>2026-04-18T09:13:45.657Z</time></trkpt><trkpt lat="45.4580609" lon="10.4965291"><ele>175.0</ele><time>2026-04-18T09:13:46.656Z</time></trkpt><trkpt lat="45.4579798" lon="10.4964912"><ele>175.0</ele><time>2026-04-18T09:13:47.658Z</time></trkpt><trkpt lat="45.4579029" lon="10.4964286"><ele>175.0</ele><time>2026-04-18T09:13:48.656Z</time></trkpt><trkpt lat="45.4578541" lon="10.4963345"><ele>175.0</ele><time>2026-04-18T09:13:49.656Z</time></trkpt><trkpt lat="45.4578228" lon="10.4962254"><ele>175.0</ele><time>2026-04-18T09:13:50.656Z</time></trkpt><trkpt lat="45.4578072" lon="10.4961085"><ele>175.0</ele><time>2026-04-18T09:13:51.657Z</time></trkpt><trkpt lat="45.4577998" lon="10.4959896"><ele>175.0</ele><time>2026-04-18T09:13:52.656Z</time></trkpt><trkpt lat="45.4577864" lon="10.4958766"><ele>175.14285714285714</ele><time>2026-04-18T09:13:53.657Z</time></trkpt><trkpt lat="45.457771" lon="10.495764"><ele>175.28571428571428</ele><time>2026-04-18T09:13:54.656Z</time></trkpt><trkpt lat="45.4577547" lon="10.4956561"><ele>175.42857142857144</ele><time>2026-04-18T09:13:55.656Z</time></trkpt><trkpt lat="45.4577434" lon="10.4955506"><ele>175.57142857142856</ele><time>2026-04-18T09:13:56.657Z</time></trkpt><trkpt lat="45.4577278" lon="10.4954543"><ele>175.71428571428572</ele><time>2026-04-18T09:13:57.656Z</time></trkpt><trkpt lat="45.4577062" lon="10.495355"><ele>175.85714285714286</ele><time>2026-04-18T09:13:58.656Z</time></trkpt><trkpt lat="45.4576905" lon="10.4952536"><ele>176.0</ele><time>2026-04-18T09:13:59.656Z</time></trkpt><trkpt lat="45.4576828" lon="10.4951571"><ele>176.0</ele><time>2026-04-18T09:14:00.657Z</time></trkpt><trkpt lat="45.4576698" lon="10.4950161"><ele>176.0</ele><time>2026-04-18T09:14:02.656Z</time></trkpt><trkpt lat="45.4576627" lon="10.4951315"><ele>176.0</ele><time>2026-04-18T09:14:07.656Z</time></trkpt><trkpt lat="45.4576903" lon="10.4953032"><ele>176.0</ele><time>2026-04-18T09:14:09.657Z</time></trkpt><trkpt lat="45.4577099" lon="10.4954034"><ele>176.0</ele><time>2026-04-18T09:14:10.655Z</time></trkpt><trkpt lat="45.4577195" lon="10.4955123"><ele>175.33333333333331</ele><time>2026-04-18T09:14:11.657Z</time></trkpt><trkpt lat="45.4577301" lon="10.4956303"><ele>174.66666666666666</ele><time>2026-04-18T09:14:12.657Z</time></trkpt><trkpt lat="45.4577408" lon="10.4957425"><ele>174.0</ele><time>2026-04-18T09:14:13.655Z</time></trkpt><trkpt lat="45.4577551" lon="10.4958552"><ele>173.33333333333334</ele><time>2026-04-18T09:14:14.657Z</time></trkpt><trkpt lat="45.457771" lon="10.4959724"><ele>172.66666666666669</ele><time>2026-04-18T09:14:15.657Z</time></trkpt><trkpt lat="45.4577873" lon="10.4960997"><ele>172.0</ele><time>2026-04-18T09:14:16.656Z</time></trkpt><trkpt lat="45.4578102" lon="10.4962142"><ele>172.5</ele><time>2026-04-18T09:14:17.658Z</time></trkpt><trkpt lat="45.4578366" lon="10.4963294"><ele>173.0</ele><time>2026-04-18T09:14:18.657Z</time></trkpt><trkpt lat="45.4578792" lon="10.4964281"><ele>173.5</ele><time>2026-04-18T09:14:19.657Z</time></trkpt><trkpt lat="45.4579416" lon="10.4964995"><ele>174.0</ele><time>2026-04-18T09:14:20.657Z</time></trkpt><trkpt lat="45.458019" lon="10.4965395"><ele>174.5</ele><time>2026-04-18T09:14:21.657Z</time></trkpt><trkpt lat="45.4581044" lon="10.4965581"><ele>175.0</ele><time>2026-04-18T09:14:22.658Z</time></trkpt><trkpt lat="45.4581922" lon="10.496569"><ele>175.0</ele><time>2026-04-18T09:14:23.656Z</time></trkpt><trkpt lat="45.4582802" lon="10.4965717"><ele>175.0</ele><time>2026-04-18T09:14:24.657Z</time></trkpt><trkpt lat="45.4583683" lon="10.4965805"><ele>175.0</ele><time>2026-04-18T09:14:25.656Z</time></trkpt><trkpt lat="45.4584602" lon="10.4965839"><ele>175.0</ele><time>2026-04-18T09:14:26.656Z</time></trkpt><trkpt lat="45.4585594" lon="10.4965925"><ele>175.0</ele><time>2026-04-18T09:14:27.657Z</time></trkpt><trkpt lat="45.4586458" lon="10.4965912"><ele>175.0</ele><time>2026-04-18T09:14:29.656Z</time></trkpt><trkpt lat="45.4587361" lon="10.4965811"><ele>175.0</ele><time>2026-04-18T09:14:31.658Z</time></trkpt><trkpt lat="45.458812" lon="10.4965607"><ele>175.0</ele><time>2026-04-18T09:14:34.656Z</time></trkpt><trkpt lat="45.4588555" lon="10.4964834"><ele>175.0</ele><time>2026-04-18T09:14:38.656Z</time></trkpt><trkpt lat="45.458922" lon="10.4964161"><ele>175.0</ele><time>2026-04-18T09:14:42.655Z</time></trkpt><trkpt lat="45.4589988" lon="10.4963847"><ele>175.0</ele><time>2026-04-18T09:14:44.656Z</time></trkpt><trkpt lat="45.4591376" lon="10.4963705"><ele>174.6</ele><time>2026-04-18T09:14:46.656Z</time></trkpt><trkpt lat="45.4592259" lon="10.4963955"><ele>174.2</ele><time>2026-04-18T09:14:47.656Z</time></trkpt><trkpt lat="45.4593115" lon="10.4964144"><ele>173.8</ele><time>2026-04-18T09:14:48.656Z</time></trkpt><trkpt lat="45.4594336" lon="10.4964154"><ele>173.4</ele><time>2026-04-18T09:14:50.657Z</time></trkpt><trkpt lat="45.4595017" lon="10.4964235"><ele>173.0</ele><time>2026-04-18T09:14:52.655Z</time></trkpt><trkpt lat="45.4595954" lon="10.4963936"><ele>171.0</ele><time>2026-04-18T09:14:57.655Z</time></trkpt><trkpt lat="45.4596582" lon="10.4963713"><ele>169.0</ele><time>2026-04-18T09:14:58.657Z</time></trkpt><trkpt lat="45.4597205" lon="10.4963412"><ele>167.0</ele><time>2026-04-18T09:14:59.658Z</time></trkpt><trkpt lat="45.4597962" lon="10.4962752"><ele>165.0</ele><time>2026-04-18T09:15:00.657Z</time></trkpt><trkpt lat="45.4599035" lon="10.4961831"><ele>163.0</ele><time>2026-04-18T09:15:01.656Z</time></trkpt><trkpt lat="45.4600029" lon="10.4961013"><ele>162.60000000000002</ele><time>2026-04-18T09:15:02.657Z</time></trkpt><trkpt lat="45.4600637" lon="10.4960461"><ele>162.20000000000002</ele><time>2026-04-18T09:15:03.657Z</time></trkpt><trkpt lat="45.4600877" lon="10.4959293"><ele>161.8</ele><time>2026-04-18T09:15:05.658Z</time></trkpt><trkpt lat="45.4600254" lon="10.495771"><ele>161.4</ele><time>2026-04-18T09:15:07.657Z</time></trkpt><trkpt lat="45.4599743" lon="10.4956427"><ele>161.0</ele><time>2026-04-18T09:15:08.656Z</time></trkpt><trkpt lat="45.459915" lon="10.4954817"><ele>160.25</ele><time>2026-04-18T09:15:09.656Z</time></trkpt><trkpt lat="45.4598474" lon="10.495294"><ele>159.5</ele><time>2026-04-18T09:15:10.658Z</time></trkpt><trkpt lat="45.4597789" lon="10.4951051"><ele>158.75</ele><time>2026-04-18T09:15:11.655Z</time></trkpt><trkpt lat="45.4597138" lon="10.4949236"><ele>158.0</ele><time>2026-04-18T09:15:12.655Z</time></trkpt><trkpt lat="45.4596454" lon="10.4947539"><ele>159.2</ele><time>2026-04-18T09:15:13.656Z</time></trkpt><trkpt lat="45.4595768" lon="10.4946016"><ele>160.4</ele><time>2026-04-18T09:15:14.656Z</time></trkpt><trkpt lat="45.4595122" lon="10.4944886"><ele>161.6</ele><time>2026-04-18T09:15:15.656Z</time></trkpt><trkpt lat="45.4594614" lon="10.4944051"><ele>162.79999999999998</ele><time>2026-04-18T09:15:16.655Z</time></trkpt><trkpt lat="45.4594169" lon="10.4943115"><ele>164.0</ele><time>2026-04-18T09:15:18.656Z</time></trkpt><trkpt lat="45.4594835" lon="10.4943754"><ele>164.0</ele><time>2026-04-18T09:15:22.656Z</time></trkpt><trkpt lat="45.4595332" lon="10.4945248"><ele>164.0</ele><time>2026-04-18T09:15:24.656Z</time></trkpt><trkpt lat="45.4595777" lon="10.4946089"><ele>164.0</ele><time>2026-04-18T09:15:25.656Z</time></trkpt><trkpt lat="45.4596238" lon="10.4947033"><ele>164.0</ele><time>2026-04-18T09:15:26.657Z</time></trkpt><trkpt lat="45.4596693" lon="10.4948074"><ele>164.0</ele><time>2026-04-18T09:15:27.657Z</time></trkpt><trkpt lat="45.4597147" lon="10.4949224"><ele>164.0</ele><time>2026-04-18T09:15:28.656Z</time></trkpt><trkpt lat="45.4597584" lon="10.4950495"><ele>163.39999999999998</ele><time>2026-04-18T09:15:29.656Z</time></trkpt><trkpt lat="45.4598024" lon="10.4951773"><ele>162.8</ele><time>2026-04-18T09:15:30.656Z</time></trkpt><trkpt lat="45.4598493" lon="10.4952975"><ele>162.2</ele><time>2026-04-18T09:15:31.657Z</time></trkpt><trkpt lat="45.4598955" lon="10.4954146"><ele>161.60000000000002</ele><time>2026-04-18T09:15:32.656Z</time></trkpt><trkpt lat="45.4599325" lon="10.4955327"><ele>161.0</ele><time>2026-04-18T09:15:33.656Z</time></trkpt><trkpt lat="45.4599735" lon="10.4956471"><ele>161.0</ele><time>2026-04-18T09:15:34.656Z</time></trkpt><trkpt lat="45.4600098" lon="10.4957502"><ele>161.0</ele><time>2026-04-18T09:15:35.656Z</time></trkpt><trkpt lat="45.4600459" lon="10.4958385"><ele>161.0</ele><time>2026-04-18T09:15:36.656Z</time></trkpt><trkpt lat="45.4600907" lon="10.4959627"><ele>161.0</ele><time>2026-04-18T09:15:38.656Z</time></trkpt><trkpt lat="45.4600565" lon="10.4960658"><ele>161.0</ele><time>2026-04-18T09:15:42.656Z</time></trkpt><trkpt lat="45.4599948" lon="10.4961338"><ele>161.0</ele><time>2026-04-18T09:15:46.656Z</time></trkpt><trkpt lat="45.4599044" lon="10.4962007"><ele>161.4</ele><time>2026-04-18T09:15:49.655Z</time></trkpt><trkpt lat="45.4597926" lon="10.4962915"><ele>161.8</ele><time>2026-04-18T09:15:51.656Z</time></trkpt><trkpt lat="45.4597312" lon="10.4963479"><ele>162.20000000000002</ele><time>2026-04-18T09:15:52.656Z</time></trkpt><trkpt lat="45.4596777" lon="10.4964589"><ele>162.60000000000002</ele><time>2026-04-18T09:15:54.656Z</time></trkpt><trkpt lat="45.4597335" lon="10.4966301"><ele>163.0</ele><time>2026-04-18T09:15:56.656Z</time></trkpt><trkpt lat="45.4597958" lon="10.4967814"><ele>163.0</ele><time>2026-04-18T09:15:57.656Z</time></trkpt><trkpt lat="45.4598715" lon="10.4969669"><ele>163.0</ele><time>2026-04-18T09:15:58.657Z</time></trkpt><trkpt lat="45.4599522" lon="10.4971513"><ele>163.0</ele><time>2026-04-18T09:15:59.656Z</time></trkpt><trkpt lat="45.4600231" lon="10.4973024"><ele>163.0</ele><time>2026-04-18T09:16:00.657Z</time></trkpt><trkpt lat="45.4600849" lon="10.497415"><ele>164.8</ele><time>2026-04-18T09:16:01.656Z</time></trkpt><trkpt lat="45.4601556" lon="10.4975171"><ele>166.60000000000002</ele><time>2026-04-18T09:16:02.656Z</time></trkpt><trkpt lat="45.4602282" lon="10.4976243"><ele>168.39999999999998</ele><time>2026-04-18T09:16:03.656Z</time></trkpt><trkpt lat="45.4603006" lon="10.4977366"><ele>170.2</ele><time>2026-04-18T09:16:04.655Z</time></trkpt><trkpt lat="45.4603712" lon="10.497851"><ele>172.0</ele><time>2026-04-18T09:16:05.656Z</time></trkpt><trkpt lat="45.4604391" lon="10.4979637"><ele>170.2</ele><time>2026-04-18T09:16:06.656Z</time></trkpt><trkpt lat="45.4605027" lon="10.4980656"><ele>168.39999999999998</ele><time>2026-04-18T09:16:07.656Z</time></trkpt><trkpt lat="45.4605523" lon="10.498152"><ele>166.60000000000002</ele><time>2026-04-18T09:16:08.656Z</time></trkpt><trkpt lat="45.4606251" lon="10.4982583"><ele>164.8</ele><time>2026-04-18T09:16:10.655Z</time></trkpt><trkpt lat="45.4606953" lon="10.4982282"><ele>163.0</ele><time>2026-04-18T09:16:13.656Z</time></trkpt><trkpt lat="45.4607343" lon="10.4980814"><ele>162.0</ele><time>2026-04-18T09:16:15.656Z</time></trkpt><trkpt lat="45.4607796" lon="10.4979077"><ele>161.0</ele><time>2026-04-18T09:16:17.656Z</time></trkpt><trkpt lat="45.4608171" lon="10.4978205"><ele>160.0</ele><time>2026-04-18T09:16:18.657Z</time></trkpt><trkpt lat="45.4608614" lon="10.4977484"><ele>159.0</ele><time>2026-04-18T09:16:19.656Z</time></trkpt><trkpt lat="45.4609659" lon="10.4976961"><ele>158.0</ele><time>2026-04-18T09:16:21.655Z</time></trkpt><trkpt lat="45.4610524" lon="10.4977871"><ele>158.00000000000003</ele><time>2026-04-18T09:16:23.656Z</time></trkpt><trkpt lat="45.4610819" lon="10.4978677"><ele>158.0</ele><time>2026-04-18T09:16:24.657Z</time></trkpt><trkpt lat="45.4611106" lon="10.4979535"><ele>158.0</ele><time>2026-04-18T09:16:25.657Z</time></trkpt><trkpt lat="45.4611399" lon="10.4980435"><ele>158.0</ele><time>2026-04-18T09:16:26.655Z</time></trkpt><trkpt lat="45.4611691" lon="10.4981517"><ele>158.0</ele><time>2026-04-18T09:16:27.656Z</time></trkpt><trkpt lat="45.4611935" lon="10.4982629"><ele>158.00000000000003</ele><time>2026-04-18T09:16:28.656Z</time></trkpt><trkpt lat="45.4612096" lon="10.4983801"><ele>158.0</ele><time>2026-04-18T09:16:29.657Z</time></trkpt><trkpt lat="45.461229" lon="10.4985071"><ele>157.20000000000002</ele><time>2026-04-18T09:16:30.657Z</time></trkpt><trkpt lat="45.4612499" lon="10.4986313"><ele>156.4</ele><time>2026-04-18T09:16:31.657Z</time></trkpt><trkpt lat="45.4612812" lon="10.4987526"><ele>155.60000000000002</ele><time>2026-04-18T09:16:32.656Z</time></trkpt><trkpt lat="45.4613145" lon="10.4988689"><ele>154.8</ele><time>2026-04-18T09:16:33.655Z</time></trkpt><trkpt lat="45.4613457" lon="10.4989881"><ele>154.0</ele><time>2026-04-18T09:16:34.656Z</time></trkpt><trkpt lat="45.4613752" lon="10.4991145"><ele>154.0</ele><time>2026-04-18T09:16:35.656Z</time></trkpt><trkpt lat="45.4614032" lon="10.499241"><ele>154.0</ele><time>2026-04-18T09:16:36.656Z</time></trkpt><trkpt lat="45.461438" lon="10.4993657"><ele>154.0</ele><time>2026-04-18T09:16:37.655Z</time></trkpt><trkpt lat="45.4614776" lon="10.499496"><ele>154.0</ele><time>2026-04-18T09:16:38.656Z</time></trkpt><trkpt lat="45.461514" lon="10.4996247"><ele>154.0</ele><time>2026-04-18T09:16:39.656Z</time></trkpt><trkpt lat="45.4615513" lon="10.4997502"><ele>154.8</ele><time>2026-04-18T09:16:40.656Z</time></trkpt><trkpt lat="45.4616023" lon="10.4998665"><ele>155.60000000000002</ele><time>2026-04-18T09:16:41.656Z</time></trkpt><trkpt lat="45.4616598" lon="10.4999868"><ele>156.4</ele><time>2026-04-18T09:16:42.656Z</time></trkpt><trkpt lat="45.4617132" lon="10.5000963"><ele>157.20000000000002</ele><time>2026-04-18T09:16:43.656Z</time></trkpt><trkpt lat="45.4617618" lon="10.5002001"><ele>158.0</ele><time>2026-04-18T09:16:44.657Z</time></trkpt><trkpt lat="45.4617998" lon="10.5002873"><ele>158.0</ele><time>2026-04-18T09:16:45.656Z</time></trkpt><trkpt lat="45.4618476" lon="10.5003919"><ele>158.0</ele><time>2026-04-18T09:16:47.656Z</time></trkpt><trkpt lat="45.4619041" lon="10.5004587"><ele>158.0</ele><time>2026-04-18T09:17:01.655Z</time></trkpt><trkpt lat="45.4619169" lon="10.5005704"><ele>158.0</ele><time>2026-04-18T09:17:03.656Z</time></trkpt><trkpt lat="45.4619309" lon="10.5007086"><ele>158.0</ele><time>2026-04-18T09:17:05.655Z</time></trkpt><trkpt lat="45.461942" lon="10.5007979"><ele>158.0</ele><time>2026-04-18T09:17:07.657Z</time></trkpt><trkpt lat="45.4618658" lon="10.5008413"><ele>158.0</ele><time>2026-04-18T09:17:17.656Z</time></trkpt><trkpt lat="45.4618563" lon="10.5007106"><ele>158.0</ele><time>2026-04-18T09:17:20.656Z</time></trkpt><trkpt lat="45.4618744" lon="10.5006045"><ele>158.0</ele><time>2026-04-18T09:17:22.656Z</time></trkpt><trkpt lat="45.4618921" lon="10.5005175"><ele>158.0</ele><time>2026-04-18T09:17:34.657Z</time></trkpt><trkpt lat="45.4619104" lon="10.5003819"><ele>158.0</ele><time>2026-04-18T09:17:36.656Z</time></trkpt><trkpt lat="45.4619172" lon="10.5002808"><ele>158.0</ele><time>2026-04-18T09:17:37.656Z</time></trkpt><trkpt lat="45.4619248" lon="10.5001767"><ele>158.0</ele><time>2026-04-18T09:17:38.656Z</time></trkpt><trkpt lat="45.4619451" lon="10.500065"><ele>158.0</ele><time>2026-04-18T09:17:39.656Z</time></trkpt><trkpt lat="45.461972" lon="10.4999506"><ele>158.0</ele><time>2026-04-18T09:17:40.655Z</time></trkpt><trkpt lat="45.4620105" lon="10.4998419"><ele>158.0</ele><time>2026-04-18T09:17:41.656Z</time></trkpt><trkpt lat="45.4620535" lon="10.4997339"><ele>158.0</ele><time>2026-04-18T09:17:42.656Z</time></trkpt><trkpt lat="45.4621005" lon="10.4996202"><ele>158.0</ele><time>2026-04-18T09:17:43.656Z</time></trkpt><trkpt lat="45.4621373" lon="10.4995005"><ele>157.8</ele><time>2026-04-18T09:17:44.655Z</time></trkpt><trkpt lat="45.4621599" lon="10.4993814"><ele>157.60000000000002</ele><time>2026-04-18T09:17:45.655Z</time></trkpt><trkpt lat="45.4621829" lon="10.4992502"><ele>157.39999999999998</ele><time>2026-04-18T09:17:46.655Z</time></trkpt><trkpt lat="45.4621979" lon="10.4991096"><ele>157.2</ele><time>2026-04-18T09:17:47.656Z</time></trkpt><trkpt lat="45.4622088" lon="10.4989676"><ele>157.0</ele><time>2026-04-18T09:17:48.655Z</time></trkpt><trkpt lat="45.4621935" lon="10.4988255"><ele>156.79999999999998</ele><time>2026-04-18T09:17:49.657Z</time></trkpt><trkpt lat="45.4621889" lon="10.4986826"><ele>156.6</ele><time>2026-04-18T09:17:50.656Z</time></trkpt><trkpt lat="45.4621866" lon="10.4985406"><ele>156.39999999999998</ele><time>2026-04-18T09:17:51.656Z</time></trkpt><trkpt lat="45.4621757" lon="10.498395"><ele>156.2</ele><time>2026-04-18T09:17:52.656Z</time></trkpt><trkpt lat="45.4621703" lon="10.4982482"><ele>156.0</ele><time>2026-04-18T09:17:53.656Z</time></trkpt><trkpt lat="45.4621622" lon="10.4981"><ele>156.0</ele><time>2026-04-18T09:17:54.658Z</time></trkpt><trkpt lat="45.4621518" lon="10.4979517"><ele>156.0</ele><time>2026-04-18T09:17:55.655Z</time></trkpt><trkpt lat="45.4621477" lon="10.4978126"><ele>156.0</ele><time>2026-04-18T09:17:56.657Z</time></trkpt><trkpt lat="45.4621337" lon="10.497671"><ele>156.0</ele><time>2026-04-18T09:17:57.655Z</time></trkpt><trkpt lat="45.4621222" lon="10.4975311"><ele>156.0</ele><time>2026-04-18T09:17:58.656Z</time></trkpt><trkpt lat="45.462114" lon="10.4973871"><ele>156.2</ele><time>2026-04-18T09:17:59.657Z</time></trkpt><trkpt lat="45.4621058" lon="10.4972418"><ele>156.39999999999998</ele><time>2026-04-18T09:18:00.657Z</time></trkpt><trkpt lat="45.4620966" lon="10.4970975"><ele>156.6</ele><time>2026-04-18T09:18:01.655Z</time></trkpt><trkpt lat="45.4620854" lon="10.4969459"><ele>156.79999999999998</ele><time>2026-04-18T09:18:02.657Z</time></trkpt><trkpt lat="45.4620699" lon="10.4967987"><ele>157.0</ele><time>2026-04-18T09:18:03.655Z</time></trkpt><trkpt lat="45.4620546" lon="10.4966602"><ele>157.66666666666669</ele><time>2026-04-18T09:18:04.656Z</time></trkpt><trkpt lat="45.4620388" lon="10.4965261"><ele>158.33333333333334</ele><time>2026-04-18T09:18:05.656Z</time></trkpt><trkpt lat="45.4620226" lon="10.496399"><ele>159.0</ele><time>2026-04-18T09:18:06.656Z</time></trkpt><trkpt lat="45.4620106" lon="10.4962849"><ele>159.66666666666666</ele><time>2026-04-18T09:18:07.655Z</time></trkpt><trkpt lat="45.4620005" lon="10.496173"><ele>160.33333333333331</ele><time>2026-04-18T09:18:08.655Z</time></trkpt><trkpt lat="45.4619932" lon="10.4960635"><ele>161.0</ele><time>2026-04-18T09:18:09.656Z</time></trkpt><trkpt lat="45.4619953" lon="10.4959611"><ele>161.0</ele><time>2026-04-18T09:18:10.657Z</time></trkpt><trkpt lat="45.4620504" lon="10.4958079"><ele>161.0</ele><time>2026-04-18T09:18:12.656Z</time></trkpt><trkpt lat="45.4621448" lon="10.4956996"><ele>161.0</ele><time>2026-04-18T09:18:14.657Z</time></trkpt><trkpt lat="45.4622406" lon="10.4956722"><ele>161.0</ele><time>2026-04-18T09:18:16.655Z</time></trkpt><trkpt lat="45.4623241" lon="10.4956813"><ele>161.0</ele><time>2026-04-18T09:18:18.655Z</time></trkpt><trkpt lat="45.4624283" lon="10.4957508"><ele>160.16666666666666</ele><time>2026-04-18T09:18:20.655Z</time></trkpt><trkpt lat="45.4624869" lon="10.4957927"><ele>159.33333333333331</ele><time>2026-04-18T09:18:21.655Z</time></trkpt><trkpt lat="45.4625807" lon="10.4958574"><ele>158.5</ele><time>2026-04-18T09:18:23.656Z</time></trkpt><trkpt lat="45.4626438" lon="10.4959027"><ele>157.66666666666666</ele><time>2026-04-18T09:18:25.657Z</time></trkpt><trkpt lat="45.4627151" lon="10.4959772"><ele>156.83333333333334</ele><time>2026-04-18T09:18:40.655Z</time></trkpt><trkpt lat="45.4628052" lon="10.4960381"><ele>156.0</ele><time>2026-04-18T09:18:42.656Z</time></trkpt><trkpt lat="45.4628544" lon="10.496102"><ele>155.6</ele><time>2026-04-18T09:18:43.656Z</time></trkpt><trkpt lat="45.4629619" lon="10.4962229"><ele>155.2</ele><time>2026-04-18T09:18:45.656Z</time></trkpt><trkpt lat="45.463029" lon="10.4962905"><ele>154.8</ele><time>2026-04-18T09:18:46.655Z</time></trkpt><trkpt lat="45.4630893" lon="10.4963684"><ele>154.4</ele><time>2026-04-18T09:18:47.656Z</time></trkpt><trkpt lat="45.4631503" lon="10.4964609"><ele>154.0</ele><time>2026-04-18T09:18:48.656Z</time></trkpt><trkpt lat="45.4632091" lon="10.4965554"><ele>154.8</ele><time>2026-04-18T09:18:49.656Z</time></trkpt><trkpt lat="45.4632668" lon="10.4966529"><ele>155.60000000000002</ele><time>2026-04-18T09:18:50.656Z</time></trkpt><trkpt lat="45.463331" lon="10.496745"><ele>156.4</ele><time>2026-04-18T09:18:51.654Z</time></trkpt><trkpt lat="45.4634033" lon="10.4968232"><ele>157.20000000000002</ele><time>2026-04-18T09:18:52.656Z</time></trkpt><trkpt lat="45.4634778" lon="10.4968971"><ele>158.0</ele><time>2026-04-18T09:18:53.654Z</time></trkpt><trkpt lat="45.4635584" lon="10.4969669"><ele>158.0</ele><time>2026-04-18T09:18:54.656Z</time></trkpt><trkpt lat="45.4636399" lon="10.4970372"><ele>158.0</ele><time>2026-04-18T09:18:55.655Z</time></trkpt><trkpt lat="45.4637234" lon="10.4971042"><ele>158.0</ele><time>2026-04-18T09:18:56.654Z</time></trkpt><trkpt lat="45.4638096" lon="10.4971729"><ele>158.0</ele><time>2026-04-18T09:18:57.656Z</time></trkpt><trkpt lat="45.4638981" lon="10.4972448"><ele>158.0</ele><time>2026-04-18T09:18:58.654Z</time></trkpt><trkpt lat="45.4639896" lon="10.4973289"><ele>158.8</ele><time>2026-04-18T09:18:59.655Z</time></trkpt><trkpt lat="45.4640804" lon="10.4974136"><ele>159.60000000000002</ele><time>2026-04-18T09:19:00.656Z</time></trkpt><trkpt lat="45.4641659" lon="10.4975128"><ele>160.39999999999998</ele><time>2026-04-18T09:19:01.655Z</time></trkpt><trkpt lat="45.4642417" lon="10.4976102"><ele>161.2</ele><time>2026-04-18T09:19:02.654Z</time></trkpt><trkpt lat="45.46432" lon="10.4977087"><ele>162.0</ele><time>2026-04-18T09:19:03.654Z</time></trkpt><trkpt lat="45.464396" lon="10.4978091"><ele>160.79999999999998</ele><time>2026-04-18T09:19:04.656Z</time></trkpt><trkpt lat="45.4644651" lon="10.4979188"><ele>159.6</ele><time>2026-04-18T09:19:05.658Z</time></trkpt><trkpt lat="45.4645331" lon="10.4980317"><ele>158.39999999999998</ele><time>2026-04-18T09:19:06.656Z</time></trkpt><trkpt lat="45.46461" lon="10.4981363"><ele>157.2</ele><time>2026-04-18T09:19:07.656Z</time></trkpt><trkpt lat="45.4646856" lon="10.498239"><ele>156.0</ele><time>2026-04-18T09:19:08.656Z</time></trkpt><trkpt lat="45.4647554" lon="10.4983426"><ele>155.2</ele><time>2026-04-18T09:19:09.656Z</time></trkpt><trkpt lat="45.4648289" lon="10.498452"><ele>154.39999999999998</ele><time>2026-04-18T09:19:10.655Z</time></trkpt><trkpt lat="45.4649005" lon="10.4985597"><ele>153.6</ele><time>2026-04-18T09:19:11.655Z</time></trkpt><trkpt lat="45.4649742" lon="10.498667"><ele>152.79999999999998</ele><time>2026-04-18T09:19:12.654Z</time></trkpt><trkpt lat="45.4650484" lon="10.498774"><ele>152.0</ele><time>2026-04-18T09:19:13.655Z</time></trkpt><trkpt lat="45.4651249" lon="10.4988745"><ele>151.2</ele><time>2026-04-18T09:19:14.656Z</time></trkpt><trkpt lat="45.4652011" lon="10.4989805"><ele>150.39999999999998</ele><time>2026-04-18T09:19:15.654Z</time></trkpt><trkpt lat="45.4652759" lon="10.4990878"><ele>149.60000000000002</ele><time>2026-04-18T09:19:16.656Z</time></trkpt><trkpt lat="45.4653413" lon="10.499195"><ele>148.8</ele><time>2026-04-18T09:19:17.656Z</time></trkpt><trkpt lat="45.4654055" lon="10.4992916"><ele>148.0</ele><time>2026-04-18T09:19:18.656Z</time></trkpt><trkpt lat="45.4654632" lon="10.4993696"><ele>148.0</ele><time>2026-04-18T09:19:19.657Z</time></trkpt><trkpt lat="45.4655154" lon="10.4994451"><ele>148.0</ele><time>2026-04-18T09:19:20.655Z</time></trkpt><trkpt lat="45.4655707" lon="10.4995552"><ele>148.0</ele><time>2026-04-18T09:19:22.655Z</time></trkpt><trkpt lat="45.4655865" lon="10.4994544"><ele>148.0</ele><time>2026-04-18T09:19:32.655Z</time></trkpt><trkpt lat="45.4655334" lon="10.49939"><ele>148.0</ele><time>2026-04-18T09:19:33.655Z</time></trkpt><trkpt lat="45.4654496" lon="10.4993233"><ele>148.0</ele><time>2026-04-18T09:19:34.655Z</time></trkpt><trkpt lat="45.4653699" lon="10.4992508"><ele>148.0</ele><time>2026-04-18T09:19:35.656Z</time></trkpt><trkpt lat="45.465303" lon="10.4991959"><ele>148.0</ele><time>2026-04-18T09:19:36.656Z</time></trkpt><trkpt lat="45.4651911" lon="10.4991681"><ele>148.0</ele><time>2026-04-18T09:19:38.655Z</time></trkpt><trkpt lat="45.4652504" lon="10.4992161"><ele>148.0</ele><time>2026-04-18T09:19:43.657Z</time></trkpt><trkpt lat="45.4653188" lon="10.4992072"><ele>148.0</ele><time>2026-04-18T09:19:55.657Z</time></trkpt><trkpt lat="45.4653971" lon="10.4992948"><ele>148.0</ele><time>2026-04-18T09:19:59.656Z</time></trkpt><trkpt lat="45.4654493" lon="10.4993695"><ele>147.6</ele><time>2026-04-18T09:20:00.655Z</time></trkpt><trkpt lat="45.4655089" lon="10.4994532"><ele>147.20000000000002</ele><time>2026-04-18T09:20:01.656Z</time></trkpt><trkpt lat="45.4655686" lon="10.499546"><ele>146.8</ele><time>2026-04-18T09:20:02.656Z</time></trkpt><trkpt lat="45.4656303" lon="10.4996417"><ele>146.4</ele><time>2026-04-18T09:20:03.656Z</time></trkpt><trkpt lat="45.4656958" lon="10.4997511"><ele>146.0</ele><time>2026-04-18T09:20:04.657Z</time></trkpt><trkpt lat="45.4657593" lon="10.4998667"><ele>145.4</ele><time>2026-04-18T09:20:05.655Z</time></trkpt><trkpt lat="45.4658127" lon="10.4999757"><ele>144.8</ele><time>2026-04-18T09:20:06.657Z</time></trkpt><trkpt lat="45.4658613" lon="10.500085"><ele>144.20000000000002</ele><time>2026-04-18T09:20:07.656Z</time></trkpt><trkpt lat="45.4659107" lon="10.5001926"><ele>143.6</ele><time>2026-04-18T09:20:08.654Z</time></trkpt><trkpt lat="45.4659602" lon="10.5003043"><ele>143.0</ele><time>2026-04-18T09:20:09.655Z</time></trkpt><trkpt lat="45.4660101" lon="10.5004257"><ele>142.8</ele><time>2026-04-18T09:20:10.655Z</time></trkpt><trkpt lat="45.4660604" lon="10.5005473"><ele>142.60000000000002</ele><time>2026-04-18T09:20:11.655Z</time></trkpt><trkpt lat="45.4661201" lon="10.5006693"><ele>142.39999999999998</ele><time>2026-04-18T09:20:12.655Z</time></trkpt><trkpt lat="45.4661838" lon="10.5007855"><ele>142.2</ele><time>2026-04-18T09:20:13.655Z</time></trkpt><trkpt lat="45.4662439" lon="10.5009042"><ele>142.0</ele><time>2026-04-18T09:20:14.656Z</time></trkpt><trkpt lat="45.4663198" lon="10.5010159"><ele>142.0</ele><time>2026-04-18T09:20:15.656Z</time></trkpt><trkpt lat="45.4663904" lon="10.5011278"><ele>142.0</ele><time>2026-04-18T09:20:16.655Z</time></trkpt><trkpt lat="45.4664637" lon="10.5012334"><ele>142.0</ele><time>2026-04-18T09:20:17.656Z</time></trkpt><trkpt lat="45.4665125" lon="10.5013445"><ele>142.0</ele><time>2026-04-18T09:20:18.654Z</time></trkpt><trkpt lat="45.4665497" lon="10.5014587"><ele>142.0</ele><time>2026-04-18T09:20:19.655Z</time></trkpt><trkpt lat="45.4665884" lon="10.5015804"><ele>142.0</ele><time>2026-04-18T09:20:20.656Z</time></trkpt><trkpt lat="45.4665941" lon="10.5017125"><ele>142.0</ele><time>2026-04-18T09:20:21.656Z</time></trkpt><trkpt lat="45.4665901" lon="10.5018425"><ele>142.0</ele><time>2026-04-18T09:20:22.655Z</time></trkpt><trkpt lat="45.4665847" lon="10.5019811"><ele>142.0</ele><time>2026-04-18T09:20:23.655Z</time></trkpt><trkpt lat="45.4665841" lon="10.5021227"><ele>142.0</ele><time>2026-04-18T09:20:24.655Z</time></trkpt><trkpt lat="45.4665844" lon="10.502252"><ele>142.0</ele><time>2026-04-18T09:20:25.655Z</time></trkpt><trkpt lat="45.466585" lon="10.5023659"><ele>142.0</ele><time>2026-04-18T09:20:26.656Z</time></trkpt><trkpt lat="45.4665828" lon="10.5024639"><ele>142.0</ele><time>2026-04-18T09:20:27.655Z</time></trkpt><trkpt lat="45.4665783" lon="10.5025549"><ele>142.0</ele><time>2026-04-18T09:20:28.656Z</time></trkpt><trkpt lat="45.4666039" lon="10.5026454"><ele>142.0</ele><time>2026-04-18T09:20:30.654Z</time></trkpt><trkpt lat="45.4666767" lon="10.502704"><ele>142.0</ele><time>2026-04-18T09:20:33.655Z</time></trkpt><trkpt lat="45.4668009" lon="10.5026909"><ele>142.0</ele><time>2026-04-18T09:20:35.656Z</time></trkpt><trkpt lat="45.4668762" lon="10.5026678"><ele>142.0</ele><time>2026-04-18T09:20:36.654Z</time></trkpt><trkpt lat="45.4669539" lon="10.5026424"><ele>142.0</ele><time>2026-04-18T09:20:37.656Z</time></trkpt><trkpt lat="45.4670399" lon="10.5026151"><ele>142.0</ele><time>2026-04-18T09:20:38.654Z</time></trkpt><trkpt lat="45.4671253" lon="10.5025882"><ele>142.0</ele><time>2026-04-18T09:20:39.656Z</time></trkpt><trkpt lat="45.4672117" lon="10.5025551"><ele>142.0</ele><time>2026-04-18T09:20:40.656Z</time></trkpt><trkpt lat="45.4672967" lon="10.5025213"><ele>142.6</ele><time>2026-04-18T09:20:41.656Z</time></trkpt><trkpt lat="45.4673855" lon="10.5024861"><ele>143.2</ele><time>2026-04-18T09:20:42.655Z</time></trkpt><trkpt lat="45.4674744" lon="10.5024526"><ele>143.8</ele><time>2026-04-18T09:20:43.656Z</time></trkpt><trkpt lat="45.4675683" lon="10.5024394"><ele>144.4</ele><time>2026-04-18T09:20:44.656Z</time></trkpt><trkpt lat="45.4676616" lon="10.5024344"><ele>145.0</ele><time>2026-04-18T09:20:45.654Z</time></trkpt><trkpt lat="45.4677598" lon="10.5024317"><ele>145.0</ele><time>2026-04-18T09:20:46.654Z</time></trkpt><trkpt lat="45.4678565" lon="10.5024283"><ele>145.0</ele><time>2026-04-18T09:20:47.654Z</time></trkpt><trkpt lat="45.467956" lon="10.5024315"><ele>145.0</ele><time>2026-04-18T09:20:48.655Z</time></trkpt><trkpt lat="45.4680556" lon="10.5024322"><ele>145.0</ele><time>2026-04-18T09:20:49.655Z</time></trkpt><trkpt lat="45.4681539" lon="10.5024331"><ele>145.0</ele><time>2026-04-18T09:20:50.656Z</time></trkpt><trkpt lat="45.4682534" lon="10.5024368"><ele>145.0</ele><time>2026-04-18T09:20:51.654Z</time></trkpt><trkpt lat="45.4683597" lon="10.5024509"><ele>145.0</ele><time>2026-04-18T09:20:52.656Z</time></trkpt><trkpt lat="45.4684642" lon="10.5024459"><ele>145.0</ele><time>2026-04-18T09:20:53.655Z</time></trkpt><trkpt lat="45.4685697" lon="10.5024528"><ele>145.0</ele><time>2026-04-18T09:20:54.654Z</time></trkpt><trkpt lat="45.4686752" lon="10.5024729"><ele>145.0</ele><time>2026-04-18T09:20:55.654Z</time></trkpt><trkpt lat="45.4687862" lon="10.5024554"><ele>144.6</ele><time>2026-04-18T09:20:56.656Z</time></trkpt><trkpt lat="45.4688921" lon="10.5024538"><ele>144.2</ele><time>2026-04-18T09:20:57.656Z</time></trkpt><trkpt lat="45.4689897" lon="10.5024182"><ele>143.8</ele><time>2026-04-18T09:20:58.656Z</time></trkpt><trkpt lat="45.4690956" lon="10.5023861"><ele>143.4</ele><time>2026-04-18T09:20:59.656Z</time></trkpt><trkpt lat="45.4691903" lon="10.5023199"><ele>143.0</ele><time>2026-04-18T09:21:00.655Z</time></trkpt><trkpt lat="45.4692959" lon="10.5022624"><ele>143.0</ele><time>2026-04-18T09:21:01.655Z</time></trkpt><trkpt lat="45.4693902" lon="10.5022044"><ele>143.0</ele><time>2026-04-18T09:21:02.655Z</time></trkpt><trkpt lat="45.4694667" lon="10.502139"><ele>143.0</ele><time>2026-04-18T09:21:03.655Z</time></trkpt><trkpt lat="45.4695384" lon="10.5020842"><ele>143.0</ele><time>2026-04-18T09:21:04.656Z</time></trkpt><trkpt lat="45.4696161" lon="10.5020193"><ele>143.0</ele><time>2026-04-18T09:21:05.655Z</time></trkpt><trkpt lat="45.4697123" lon="10.5020005"><ele>143.0</ele><time>2026-04-18T09:21:06.655Z</time></trkpt><trkpt lat="45.4698055" lon="10.5019909"><ele>143.0</ele><time>2026-04-18T09:21:07.654Z</time></trkpt><trkpt lat="45.4699037" lon="10.5019943"><ele>143.0</ele><time>2026-04-18T09:21:08.656Z</time></trkpt><trkpt lat="45.4699916" lon="10.5020059"><ele>143.0</ele><time>2026-04-18T09:21:09.656Z</time></trkpt><trkpt lat="45.4700828" lon="10.5020191"><ele>143.0</ele><time>2026-04-18T09:21:10.657Z</time></trkpt><trkpt lat="45.470157" lon="10.5020343"><ele>143.0</ele><time>2026-04-18T09:21:11.655Z</time></trkpt><trkpt lat="45.4702203" lon="10.5020484"><ele>143.0</ele><time>2026-04-18T09:21:12.656Z</time></trkpt><trkpt lat="45.4702854" lon="10.5020535"><ele>143.0</ele><time>2026-04-18T09:21:13.656Z</time></trkpt><trkpt lat="45.4702836" lon="10.5018792"><ele>143.0</ele><time>2026-04-18T09:21:15.655Z</time></trkpt><trkpt lat="45.4702998" lon="10.5017783"><ele>143.0</ele><time>2026-04-18T09:21:16.655Z</time></trkpt><trkpt lat="45.4703243" lon="10.5016791"><ele>143.0</ele><time>2026-04-18T09:21:17.655Z</time></trkpt><trkpt lat="45.4703557" lon="10.501573"><ele>143.0</ele><time>2026-04-18T09:21:18.656Z</time></trkpt><trkpt lat="45.4703838" lon="10.5014493"><ele>143.0</ele><time>2026-04-18T09:21:19.655Z</time></trkpt><trkpt lat="45.4704185" lon="10.5013286"><ele>143.0</ele><time>2026-04-18T09:21:20.655Z</time></trkpt><trkpt lat="45.4704346" lon="10.5011862"><ele>143.0</ele><time>2026-04-18T09:21:21.655Z</time></trkpt><trkpt lat="45.4704228" lon="10.5010377"><ele>143.0</ele><time>2026-04-18T09:21:22.655Z</time></trkpt><trkpt lat="45.4703863" lon="10.5008838"><ele>143.0</ele><time>2026-04-18T09:21:23.656Z</time></trkpt><trkpt lat="45.4703448" lon="10.5007452"><ele>142.20000000000002</ele><time>2026-04-18T09:21:24.656Z</time></trkpt><trkpt lat="45.4703239" lon="10.5006048"><ele>141.4</ele><time>2026-04-18T09:21:25.655Z</time></trkpt><trkpt lat="45.4703056" lon="10.5004939"><ele>140.60000000000002</ele><time>2026-04-18T09:21:26.654Z</time></trkpt><trkpt lat="45.4702693" lon="10.5004048"><ele>139.8</ele><time>2026-04-18T09:21:27.654Z</time></trkpt><trkpt lat="45.4701861" lon="10.5002566"><ele>139.0</ele><time>2026-04-18T09:21:29.655Z</time></trkpt><trkpt lat="45.4701555" lon="10.5001711"><ele>139.0</ele><time>2026-04-18T09:21:30.655Z</time></trkpt><trkpt lat="45.4701219" lon="10.5000813"><ele>139.0</ele><time>2026-04-18T09:21:31.656Z</time></trkpt><trkpt lat="45.4700833" lon="10.4999913"><ele>139.0</ele><time>2026-04-18T09:21:32.655Z</time></trkpt><trkpt lat="45.4700322" lon="10.4998997"><ele>139.0</ele><time>2026-04-18T09:21:33.655Z</time></trkpt><trkpt lat="45.4699849" lon="10.4998084"><ele>139.0</ele><time>2026-04-18T09:21:34.655Z</time></trkpt><trkpt lat="45.4699338" lon="10.4997202"><ele>139.0</ele><time>2026-04-18T09:21:35.654Z</time></trkpt><trkpt lat="45.4698786" lon="10.4996356"><ele>138.16666666666669</ele><time>2026-04-18T09:21:36.657Z</time></trkpt><trkpt lat="45.4698222" lon="10.4995468"><ele>137.33333333333334</ele><time>2026-04-18T09:21:37.655Z</time></trkpt><trkpt lat="45.4697657" lon="10.4994506"><ele>136.5</ele><time>2026-04-18T09:21:38.654Z</time></trkpt><trkpt lat="45.4697063" lon="10.4993596"><ele>135.66666666666666</ele><time>2026-04-18T09:21:39.654Z</time></trkpt><trkpt lat="45.4696438" lon="10.4992775"><ele>134.83333333333331</ele><time>2026-04-18T09:21:40.657Z</time></trkpt><trkpt lat="45.4695798" lon="10.4991866"><ele>134.0</ele><time>2026-04-18T09:21:41.655Z</time></trkpt><trkpt lat="45.4695167" lon="10.4990921"><ele>137.0</ele><time>2026-04-18T09:21:42.654Z</time></trkpt><trkpt lat="45.4694585" lon="10.498993"><ele>140.0</ele><time>2026-04-18T09:21:43.654Z</time></trkpt><trkpt lat="45.4694025" lon="10.4988921"><ele>143.0</ele><time>2026-04-18T09:21:44.655Z</time></trkpt><trkpt lat="45.4693524" lon="10.4987804"><ele>146.0</ele><time>2026-04-18T09:21:45.655Z</time></trkpt><trkpt lat="45.4693118" lon="10.4986657"><ele>149.0</ele><time>2026-04-18T09:21:46.656Z</time></trkpt><trkpt lat="45.4692849" lon="10.4985436"><ele>149.0</ele><time>2026-04-18T09:21:47.655Z</time></trkpt><trkpt lat="45.4692774" lon="10.4984269"><ele>149.0</ele><time>2026-04-18T09:21:48.655Z</time></trkpt><trkpt lat="45.469271" lon="10.4983111"><ele>149.0</ele><time>2026-04-18T09:21:49.654Z</time></trkpt><trkpt lat="45.4692746" lon="10.4982037"><ele>149.0</ele><time>2026-04-18T09:21:50.656Z</time></trkpt><trkpt lat="45.4693302" lon="10.4981264"><ele>149.0</ele><time>2026-04-18T09:21:51.655Z</time></trkpt><trkpt lat="45.4694228" lon="10.4980553"><ele>149.0</ele><time>2026-04-18T09:21:52.655Z</time></trkpt><trkpt lat="45.4694907" lon="10.4979849"><ele>149.0</ele><time>2026-04-18T09:21:53.654Z</time></trkpt><trkpt lat="45.4695757" lon="10.4979303"><ele>149.0</ele><time>2026-04-18T09:21:54.657Z</time></trkpt><trkpt lat="45.4696513" lon="10.4978586"><ele>149.0</ele><time>2026-04-18T09:21:55.654Z</time></trkpt><trkpt lat="45.4697116" lon="10.4977963"><ele>149.0</ele><time>2026-04-18T09:21:56.655Z</time></trkpt><trkpt lat="45.4697683" lon="10.4977175"><ele>149.0</ele><time>2026-04-18T09:21:57.654Z</time></trkpt><trkpt lat="45.4697902" lon="10.4976115"><ele>149.0</ele><time>2026-04-18T09:21:58.655Z</time></trkpt><trkpt lat="45.469811" lon="10.4975155"><ele>149.0</ele><time>2026-04-18T09:21:59.655Z</time></trkpt><trkpt lat="45.4698206" lon="10.4974228"><ele>149.0</ele><time>2026-04-18T09:22:00.655Z</time></trkpt><trkpt lat="45.4697941" lon="10.4972859"><ele>149.0</ele><time>2026-04-18T09:22:02.655Z</time></trkpt><trkpt lat="45.4698038" lon="10.497112"><ele>149.0</ele><time>2026-04-18T09:22:04.657Z</time></trkpt><trkpt lat="45.4698304" lon="10.4970288"><ele>149.0</ele><time>2026-04-18T09:22:05.655Z</time></trkpt><trkpt lat="45.4698732" lon="10.496867"><ele>149.0</ele><time>2026-04-18T09:22:07.655Z</time></trkpt><trkpt lat="45.4699632" lon="10.496858"><ele>149.0</ele><time>2026-04-18T09:22:08.655Z</time></trkpt><trkpt lat="45.4700782" lon="10.4967767"><ele>149.0</ele><time>2026-04-18T09:22:10.656Z</time></trkpt><trkpt lat="45.4701355" lon="10.496739"><ele>149.0</ele><time>2026-04-18T09:22:11.655Z</time></trkpt><trkpt lat="45.4701914" lon="10.4966911"><ele>149.0</ele><time>2026-04-18T09:22:12.655Z</time></trkpt><trkpt lat="45.470247" lon="10.4966307"><ele>149.0</ele><time>2026-04-18T09:22:13.655Z</time></trkpt><trkpt lat="45.470301" lon="10.4965732"><ele>149.0</ele><time>2026-04-18T09:22:14.656Z</time></trkpt><trkpt lat="45.4703633" lon="10.4965108"><ele>149.0</ele><time>2026-04-18T09:22:15.657Z</time></trkpt><trkpt lat="45.4704193" lon="10.4964522"><ele>149.0</ele><time>2026-04-18T09:22:16.656Z</time></trkpt><trkpt lat="45.4704622" lon="10.4963769"><ele>149.0</ele><time>2026-04-18T09:22:17.656Z</time></trkpt><trkpt lat="45.4705118" lon="10.4963071"><ele>149.0</ele><time>2026-04-18T09:22:18.655Z</time></trkpt><trkpt lat="45.4705594" lon="10.4962418"><ele>149.0</ele><time>2026-04-18T09:22:19.655Z</time></trkpt><trkpt lat="45.4706065" lon="10.4961806"><ele>149.0</ele><time>2026-04-18T09:22:20.656Z</time></trkpt><trkpt lat="45.470654" lon="10.496117"><ele>149.83333333333331</ele><time>2026-04-18T09:22:21.655Z</time></trkpt><trkpt lat="45.4707005" lon="10.4960444"><ele>150.66666666666666</ele><time>2026-04-18T09:22:22.655Z</time></trkpt><trkpt lat="45.4707554" lon="10.4959744"><ele>151.5</ele><time>2026-04-18T09:22:23.655Z</time></trkpt><trkpt lat="45.4708126" lon="10.4959003"><ele>152.33333333333334</ele><time>2026-04-18T09:22:24.656Z</time></trkpt><trkpt lat="45.4708795" lon="10.4958253"><ele>153.16666666666669</ele><time>2026-04-18T09:22:25.656Z</time></trkpt><trkpt lat="45.470949" lon="10.4957537"><ele>154.0</ele><time>2026-04-18T09:22:26.655Z</time></trkpt><trkpt lat="45.4710198" lon="10.4956852"><ele>154.0</ele><time>2026-04-18T09:22:27.656Z</time></trkpt><trkpt lat="45.4710901" lon="10.4956201"><ele>154.0</ele><time>2026-04-18T09:22:28.656Z</time></trkpt><trkpt lat="45.4711633" lon="10.4955625"><ele>154.0</ele><time>2026-04-18T09:22:29.654Z</time></trkpt><trkpt lat="45.4712362" lon="10.4954989"><ele>154.0</ele><time>2026-04-18T09:22:30.655Z</time></trkpt><trkpt lat="45.4712969" lon="10.4954246"><ele>154.0</ele><time>2026-04-18T09:22:31.655Z</time></trkpt><trkpt lat="45.4713646" lon="10.495372"><ele>154.0</ele><time>2026-04-18T09:22:32.655Z</time></trkpt><trkpt lat="45.4714258" lon="10.4953188"><ele>153.66666666666669</ele><time>2026-04-18T09:22:33.655Z</time></trkpt><trkpt lat="45.4714931" lon="10.4952465"><ele>153.33333333333334</ele><time>2026-04-18T09:22:34.655Z</time></trkpt><trkpt lat="45.4715622" lon="10.4951768"><ele>153.0</ele><time>2026-04-18T09:22:35.656Z</time></trkpt><trkpt lat="45.4716301" lon="10.4951011"><ele>152.66666666666666</ele><time>2026-04-18T09:22:36.654Z</time></trkpt><trkpt lat="45.4716955" lon="10.4950309"><ele>152.33333333333331</ele><time>2026-04-18T09:22:37.655Z</time></trkpt><trkpt lat="45.4717663" lon="10.4949611"><ele>152.0</ele><time>2026-04-18T09:22:38.656Z</time></trkpt><trkpt lat="45.4718367" lon="10.4948888"><ele>152.0</ele><time>2026-04-18T09:22:39.656Z</time></trkpt><trkpt lat="45.471899" lon="10.4948504"><ele>152.0</ele><time>2026-04-18T09:22:40.656Z</time></trkpt><trkpt lat="45.4719694" lon="10.4947223"><ele>152.0</ele><time>2026-04-18T09:22:42.655Z</time></trkpt><trkpt lat="45.4719693" lon="10.4945587"><ele>152.0</ele><time>2026-04-18T09:22:44.656Z</time></trkpt><trkpt lat="45.4719395" lon="10.4944741"><ele>152.0</ele><time>2026-04-18T09:22:45.655Z</time></trkpt><trkpt lat="45.4718957" lon="10.4943767"><ele>152.0</ele><time>2026-04-18T09:22:46.656Z</time></trkpt><trkpt lat="45.4718542" lon="10.494278"><ele>151.33333333333331</ele><time>2026-04-18T09:22:47.655Z</time></trkpt><trkpt lat="45.4718168" lon="10.4941737"><ele>150.66666666666666</ele><time>2026-04-18T09:22:48.655Z</time></trkpt><trkpt lat="45.4717622" lon="10.494073"><ele>150.0</ele><time>2026-04-18T09:22:49.656Z</time></trkpt><trkpt lat="45.4717088" lon="10.4939753"><ele>149.33333333333334</ele><time>2026-04-18T09:22:50.655Z</time></trkpt><trkpt lat="45.4716714" lon="10.4938801"><ele>148.66666666666669</ele><time>2026-04-18T09:22:51.656Z</time></trkpt><trkpt lat="45.4716281" lon="10.4937737"><ele>148.0</ele><time>2026-04-18T09:22:52.655Z</time></trkpt><trkpt lat="45.4715853" lon="10.4936712"><ele>148.0</ele><time>2026-04-18T09:22:53.655Z</time></trkpt><trkpt lat="45.4715445" lon="10.4935603"><ele>148.0</ele><time>2026-04-18T09:22:54.654Z</time></trkpt><trkpt lat="45.4715021" lon="10.4934576"><ele>148.0</ele><time>2026-04-18T09:22:55.655Z</time></trkpt><trkpt lat="45.4714606" lon="10.4933549"><ele>148.0</ele><time>2026-04-18T09:22:56.655Z</time></trkpt><trkpt lat="45.4714134" lon="10.4932535"><ele>148.0</ele><time>2026-04-18T09:22:57.655Z</time></trkpt><trkpt lat="45.4713754" lon="10.4931511"><ele>148.0</ele><time>2026-04-18T09:22:58.656Z</time></trkpt><trkpt lat="45.4713366" lon="10.4930457"><ele>148.0</ele><time>2026-04-18T09:22:59.653Z</time></trkpt><trkpt lat="45.4712946" lon="10.4929476"><ele>148.0</ele><time>2026-04-18T09:23:00.656Z</time></trkpt><trkpt lat="45.4712639" lon="10.4928453"><ele>148.0</ele><time>2026-04-18T09:23:01.655Z</time></trkpt><trkpt lat="45.4712381" lon="10.49273"><ele>148.0</ele><time>2026-04-18T09:23:02.654Z</time></trkpt><trkpt lat="45.4712101" lon="10.4926039"><ele>148.0</ele><time>2026-04-18T09:23:03.654Z</time></trkpt><trkpt lat="45.4712033" lon="10.4924914"><ele>148.0</ele><time>2026-04-18T09:23:04.654Z</time></trkpt><trkpt lat="45.471247" lon="10.4923929"><ele>148.8</ele><time>2026-04-18T09:23:05.654Z</time></trkpt><trkpt lat="45.4712836" lon="10.492303"><ele>149.60000000000002</ele><time>2026-04-18T09:23:06.655Z</time></trkpt><trkpt lat="45.4713708" lon="10.4921962"><ele>150.39999999999998</ele><time>2026-04-18T09:23:08.655Z</time></trkpt><trkpt lat="45.471493" lon="10.4921284"><ele>151.2</ele><time>2026-04-18T09:23:10.655Z</time></trkpt><trkpt lat="45.4715624" lon="10.4920933"><ele>152.0</ele><time>2026-04-18T09:23:11.654Z</time></trkpt><trkpt lat="45.471631" lon="10.4920585"><ele>152.0</ele><time>2026-04-18T09:23:12.655Z</time></trkpt><trkpt lat="45.4717041" lon="10.4920257"><ele>152.0</ele><time>2026-04-18T09:23:13.654Z</time></trkpt><trkpt lat="45.4717809" lon="10.4919991"><ele>152.0</ele><time>2026-04-18T09:23:14.654Z</time></trkpt><trkpt lat="45.4718519" lon="10.4919771"><ele>152.0</ele><time>2026-04-18T09:23:15.655Z</time></trkpt><trkpt lat="45.4719139" lon="10.4919478"><ele>152.0</ele><time>2026-04-18T09:23:16.655Z</time></trkpt><trkpt lat="45.4719736" lon="10.4919147"><ele>152.0</ele><time>2026-04-18T09:23:17.655Z</time></trkpt><trkpt lat="45.472036" lon="10.4918791"><ele>152.0</ele><time>2026-04-18T09:23:18.653Z</time></trkpt><trkpt lat="45.4721083" lon="10.491845"><ele>152.0</ele><time>2026-04-18T09:23:19.656Z</time></trkpt><trkpt lat="45.4721836" lon="10.4918107"><ele>152.0</ele><time>2026-04-18T09:23:20.656Z</time></trkpt><trkpt lat="45.4722469" lon="10.4917972"><ele>152.0</ele><time>2026-04-18T09:23:21.656Z</time></trkpt><trkpt lat="45.4723771" lon="10.4917529"><ele>152.0</ele><time>2026-04-18T09:23:23.656Z</time></trkpt><trkpt lat="45.4724531" lon="10.4917417"><ele>152.0</ele><time>2026-04-18T09:23:24.655Z</time></trkpt><trkpt lat="45.4725251" lon="10.4917573"><ele>152.0</ele><time>2026-04-18T09:23:25.654Z</time></trkpt><trkpt lat="45.4725953" lon="10.491774"><ele>152.0</ele><time>2026-04-18T09:23:26.654Z</time></trkpt><trkpt lat="45.4726609" lon="10.4917861"><ele>152.0</ele><time>2026-04-18T09:23:27.653Z</time></trkpt><trkpt lat="45.4727375" lon="10.4918065"><ele>152.0</ele><time>2026-04-18T09:23:35.656Z</time></trkpt><trkpt lat="45.4727818" lon="10.491737"><ele>152.0</ele><time>2026-04-18T09:23:37.655Z</time></trkpt><trkpt lat="45.4728202" lon="10.4916257"><ele>152.0</ele><time>2026-04-18T09:23:40.654Z</time></trkpt><trkpt lat="45.4728553" lon="10.4914451"><ele>152.0</ele><time>2026-04-18T09:23:42.655Z</time></trkpt><trkpt lat="45.4728777" lon="10.4913355"><ele>152.66666666666666</ele><time>2026-04-18T09:23:43.655Z</time></trkpt><trkpt lat="45.4728966" lon="10.4912246"><ele>153.33333333333331</ele><time>2026-04-18T09:23:44.653Z</time></trkpt><trkpt lat="45.472911" lon="10.4911096"><ele>154.0</ele><time>2026-04-18T09:23:45.655Z</time></trkpt><trkpt lat="45.4729274" lon="10.4909907"><ele>154.66666666666666</ele><time>2026-04-18T09:23:46.655Z</time></trkpt><trkpt lat="45.472956" lon="10.4908942"><ele>155.33333333333334</ele><time>2026-04-18T09:23:47.655Z</time></trkpt><trkpt lat="45.4730539" lon="10.490799"><ele>156.0</ele><time>2026-04-18T09:23:49.654Z</time></trkpt><trkpt lat="45.4731254" lon="10.4908248"><ele>156.16666666666666</ele><time>2026-04-18T09:23:50.655Z</time></trkpt><trkpt lat="45.473198" lon="10.4908516"><ele>156.33333333333334</ele><time>2026-04-18T09:23:51.655Z</time></trkpt><trkpt lat="45.473289" lon="10.4908854"><ele>156.5</ele><time>2026-04-18T09:23:52.655Z</time></trkpt><trkpt lat="45.4733805" lon="10.4909071"><ele>156.66666666666669</ele><time>2026-04-18T09:23:53.655Z</time></trkpt><trkpt lat="45.4734662" lon="10.4908982"><ele>156.83333333333334</ele><time>2026-04-18T09:23:54.655Z</time></trkpt><trkpt lat="45.4735481" lon="10.4908621"><ele>157.0</ele><time>2026-04-18T09:23:55.655Z</time></trkpt><trkpt lat="45.4736103" lon="10.4907902"><ele>157.0</ele><time>2026-04-18T09:23:56.655Z</time></trkpt><trkpt lat="45.4736611" lon="10.4907153"><ele>157.0</ele><time>2026-04-18T09:23:57.655Z</time></trkpt><trkpt lat="45.4737318" lon="10.4906478"><ele>157.0</ele><time>2026-04-18T09:23:59.656Z</time></trkpt><trkpt lat="45.4738189" lon="10.4906118"><ele>157.0</ele><time>2026-04-18T09:24:01.655Z</time></trkpt><trkpt lat="45.4739428" lon="10.4906292"><ele>157.0</ele><time>2026-04-18T09:24:03.654Z</time></trkpt><trkpt lat="45.4740092" lon="10.4906398"><ele>157.0</ele><time>2026-04-18T09:24:04.656Z</time></trkpt><trkpt lat="45.4741185" lon="10.4906571"><ele>157.6</ele><time>2026-04-18T09:24:06.653Z</time></trkpt><trkpt lat="45.4742281" lon="10.4906831"><ele>158.2</ele><time>2026-04-18T09:24:08.655Z</time></trkpt><trkpt lat="45.4743077" lon="10.4906796"><ele>158.8</ele><time>2026-04-18T09:24:09.656Z</time></trkpt><trkpt lat="45.4743923" lon="10.4906888"><ele>159.4</ele><time>2026-04-18T09:24:10.653Z</time></trkpt><trkpt lat="45.4744745" lon="10.4907042"><ele>160.0</ele><time>2026-04-18T09:24:11.655Z</time></trkpt><trkpt lat="45.4745653" lon="10.4907211"><ele>160.5</ele><time>2026-04-18T09:24:12.656Z</time></trkpt><trkpt lat="45.4746574" lon="10.4907246"><ele>161.0</ele><time>2026-04-18T09:24:13.655Z</time></trkpt><trkpt lat="45.4747448" lon="10.4907058"><ele>161.5</ele><time>2026-04-18T09:24:14.654Z</time></trkpt><trkpt lat="45.4748254" lon="10.4906695"><ele>162.0</ele><time>2026-04-18T09:24:15.655Z</time></trkpt><trkpt lat="45.4749067" lon="10.4906186"><ele>162.5</ele><time>2026-04-18T09:24:16.656Z</time></trkpt><trkpt lat="45.4749886" lon="10.4905621"><ele>163.0</ele><time>2026-04-18T09:24:17.655Z</time></trkpt><trkpt lat="45.4750703" lon="10.4905105"><ele>163.0</ele><time>2026-04-18T09:24:18.655Z</time></trkpt><trkpt lat="45.4751531" lon="10.4904666"><ele>163.0</ele><time>2026-04-18T09:24:19.656Z</time></trkpt><trkpt lat="45.4752269" lon="10.4904353"><ele>163.0</ele><time>2026-04-18T09:24:20.656Z</time></trkpt><trkpt lat="45.4752945" lon="10.4904201"><ele>163.0</ele><time>2026-04-18T09:24:21.655Z</time></trkpt><trkpt lat="45.4754177" lon="10.4904583"><ele>163.0</ele><time>2026-04-18T09:24:23.654Z</time></trkpt><trkpt lat="45.4754775" lon="10.4904916"><ele>163.0</ele><time>2026-04-18T09:24:24.654Z</time></trkpt><trkpt lat="45.4756009" lon="10.4905547"><ele>163.66666666666669</ele><time>2026-04-18T09:24:26.657Z</time></trkpt><trkpt lat="45.4756757" lon="10.4905678"><ele>164.33333333333334</ele><time>2026-04-18T09:24:27.656Z</time></trkpt><trkpt lat="45.4757533" lon="10.4905927"><ele>165.0</ele><time>2026-04-18T09:24:28.655Z</time></trkpt><trkpt lat="45.4758404" lon="10.4906081"><ele>165.66666666666666</ele><time>2026-04-18T09:24:29.655Z</time></trkpt><trkpt lat="45.47593" lon="10.490637"><ele>166.33333333333331</ele><time>2026-04-18T09:24:30.656Z</time></trkpt><trkpt lat="45.4759903" lon="10.4907059"><ele>167.0</ele><time>2026-04-18T09:24:31.654Z</time></trkpt><trkpt lat="45.4760599" lon="10.4907612"><ele>167.0</ele><time>2026-04-18T09:24:32.655Z</time></trkpt><trkpt lat="45.4761267" lon="10.4908129"><ele>167.0</ele><time>2026-04-18T09:24:33.655Z</time></trkpt><trkpt lat="45.4761877" lon="10.490874"><ele>167.0</ele><time>2026-04-18T09:24:34.653Z</time></trkpt><trkpt lat="45.4762517" lon="10.490929"><ele>167.0</ele><time>2026-04-18T09:24:35.655Z</time></trkpt><trkpt lat="45.4763212" lon="10.4909979"><ele>167.0</ele><time>2026-04-18T09:24:36.655Z</time></trkpt><trkpt lat="45.4763907" lon="10.4910527"><ele>167.0</ele><time>2026-04-18T09:24:37.655Z</time></trkpt><trkpt lat="45.4764664" lon="10.4910959"><ele>167.0</ele><time>2026-04-18T09:24:38.655Z</time></trkpt><trkpt lat="45.4765325" lon="10.4911414"><ele>167.0</ele><time>2026-04-18T09:24:39.654Z</time></trkpt><trkpt lat="45.476613" lon="10.4911944"><ele>167.0</ele><time>2026-04-18T09:24:40.654Z</time></trkpt><trkpt lat="45.4766938" lon="10.4912378"><ele>167.0</ele><time>2026-04-18T09:24:41.655Z</time></trkpt><trkpt lat="45.4767631" lon="10.4912922"><ele>167.0</ele><time>2026-04-18T09:24:42.655Z</time></trkpt><trkpt lat="45.476831" lon="10.4913528"><ele>167.0</ele><time>2026-04-18T09:24:43.654Z</time></trkpt><trkpt lat="45.4768985" lon="10.4914199"><ele>167.0</ele><time>2026-04-18T09:24:44.655Z</time></trkpt><trkpt lat="45.4769625" lon="10.4914894"><ele>167.0</ele><time>2026-04-18T09:24:45.654Z</time></trkpt><trkpt lat="45.4770228" lon="10.4915677"><ele>167.0</ele><time>2026-04-18T09:24:46.656Z</time></trkpt><trkpt lat="45.4770777" lon="10.4916454"><ele>167.0</ele><time>2026-04-18T09:24:47.655Z</time></trkpt><trkpt lat="45.4771333" lon="10.4917164"><ele>167.0</ele><time>2026-04-18T09:24:48.654Z</time></trkpt><trkpt lat="45.4771958" lon="10.4917955"><ele>167.0</ele><time>2026-04-18T09:24:49.654Z</time></trkpt><trkpt lat="45.4772571" lon="10.4918702"><ele>167.66666666666666</ele><time>2026-04-18T09:24:50.654Z</time></trkpt><trkpt lat="45.4773213" lon="10.4919487"><ele>168.33333333333331</ele><time>2026-04-18T09:24:51.655Z</time></trkpt><trkpt lat="45.4773808" lon="10.492028"><ele>169.0</ele><time>2026-04-18T09:24:52.655Z</time></trkpt><trkpt lat="45.4774468" lon="10.492104"><ele>169.66666666666666</ele><time>2026-04-18T09:24:53.654Z</time></trkpt><trkpt lat="45.4775173" lon="10.4921734"><ele>170.33333333333334</ele><time>2026-04-18T09:24:54.654Z</time></trkpt><trkpt lat="45.4775885" lon="10.4922449"><ele>171.0</ele><time>2026-04-18T09:24:55.654Z</time></trkpt><trkpt lat="45.4776566" lon="10.4923183"><ele>171.0</ele><time>2026-04-18T09:24:56.655Z</time></trkpt><trkpt lat="45.47772" lon="10.4923982"><ele>171.0</ele><time>2026-04-18T09:24:57.656Z</time></trkpt><trkpt lat="45.4777883" lon="10.4924749"><ele>171.0</ele><time>2026-04-18T09:24:58.654Z</time></trkpt><trkpt lat="45.4778531" lon="10.4925497"><ele>171.0</ele><time>2026-04-18T09:24:59.653Z</time></trkpt><trkpt lat="45.4779177" lon="10.4926207"><ele>171.0</ele><time>2026-04-18T09:25:00.655Z</time></trkpt><trkpt lat="45.4780228" lon="10.4927147"><ele>170.66666666666666</ele><time>2026-04-18T09:25:02.655Z</time></trkpt><trkpt lat="45.4780868" lon="10.4927721"><ele>170.33333333333334</ele><time>2026-04-18T09:25:03.655Z</time></trkpt><trkpt lat="45.4781599" lon="10.4928374"><ele>170.0</ele><time>2026-04-18T09:25:04.656Z</time></trkpt><trkpt lat="45.4782385" lon="10.4929017"><ele>169.66666666666669</ele><time>2026-04-18T09:25:05.654Z</time></trkpt><trkpt lat="45.4783191" lon="10.4929865"><ele>169.33333333333334</ele><time>2026-04-18T09:25:06.655Z</time></trkpt><trkpt lat="45.4783932" lon="10.4930703"><ele>169.0</ele><time>2026-04-18T09:25:07.656Z</time></trkpt><trkpt lat="45.4784671" lon="10.4931456"><ele>169.0</ele><time>2026-04-18T09:25:08.654Z</time></trkpt><trkpt lat="45.4785331" lon="10.4932081"><ele>169.0</ele><time>2026-04-18T09:25:09.654Z</time></trkpt><trkpt lat="45.4786531" lon="10.4932253"><ele>169.0</ele><time>2026-04-18T09:25:11.655Z</time></trkpt><trkpt lat="45.4787256" lon="10.4930847"><ele>169.0</ele><time>2026-04-18T09:25:13.655Z</time></trkpt><trkpt lat="45.4787564" lon="10.4929717"><ele>169.0</ele><time>2026-04-18T09:25:14.656Z</time></trkpt><trkpt lat="45.4787746" lon="10.4928557"><ele>169.83333333333334</ele><time>2026-04-18T09:25:15.654Z</time></trkpt><trkpt lat="45.4787889" lon="10.4927433"><ele>170.66666666666669</ele><time>2026-04-18T09:25:16.655Z</time></trkpt><trkpt lat="45.4788076" lon="10.4926247"><ele>171.5</ele><time>2026-04-18T09:25:17.655Z</time></trkpt><trkpt lat="45.4788264" lon="10.4925079"><ele>172.33333333333334</ele><time>2026-04-18T09:25:18.655Z</time></trkpt><trkpt lat="45.4788513" lon="10.4923972"><ele>173.16666666666666</ele><time>2026-04-18T09:25:19.655Z</time></trkpt><trkpt lat="45.4788766" lon="10.4922764"><ele>174.0</ele><time>2026-04-18T09:25:20.655Z</time></trkpt><trkpt lat="45.4788999" lon="10.4921624"><ele>174.5</ele><time>2026-04-18T09:25:21.653Z</time></trkpt><trkpt lat="45.478925" lon="10.492042"><ele>175.0</ele><time>2026-04-18T09:25:22.654Z</time></trkpt><trkpt lat="45.4789546" lon="10.4919213"><ele>175.5</ele><time>2026-04-18T09:25:23.654Z</time></trkpt><trkpt lat="45.4789958" lon="10.491809"><ele>176.0</ele><time>2026-04-18T09:25:24.654Z</time></trkpt><trkpt lat="45.479044" lon="10.4917042"><ele>176.5</ele><time>2026-04-18T09:25:25.654Z</time></trkpt><trkpt lat="45.4791016" lon="10.4916133"><ele>177.0</ele><time>2026-04-18T09:25:26.655Z</time></trkpt><trkpt lat="45.4791709" lon="10.4915519"><ele>177.0</ele><time>2026-04-18T09:25:27.654Z</time></trkpt><trkpt lat="45.4792604" lon="10.4915201"><ele>177.0</ele><time>2026-04-18T09:25:28.655Z</time></trkpt><trkpt lat="45.4793509" lon="10.4915263"><ele>177.0</ele><time>2026-04-18T09:25:29.656Z</time></trkpt><trkpt lat="45.4794441" lon="10.4915396"><ele>177.0</ele><time>2026-04-18T09:25:30.654Z</time></trkpt><trkpt lat="45.4795394" lon="10.4915587"><ele>177.0</ele><time>2026-04-18T09:25:31.653Z</time></trkpt><trkpt lat="45.4796321" lon="10.4915739"><ele>177.33333333333334</ele><time>2026-04-18T09:25:32.653Z</time></trkpt><trkpt lat="45.4797261" lon="10.4915829"><ele>177.66666666666666</ele><time>2026-04-18T09:25:33.653Z</time></trkpt><trkpt lat="45.4798088" lon="10.4915967"><ele>178.0</ele><time>2026-04-18T09:25:34.656Z</time></trkpt><trkpt lat="45.4798966" lon="10.4916059"><ele>178.33333333333331</ele><time>2026-04-18T09:25:35.654Z</time></trkpt><trkpt lat="45.4799873" lon="10.4916204"><ele>178.66666666666666</ele><time>2026-04-18T09:25:36.655Z</time></trkpt><trkpt lat="45.4800782" lon="10.4916309"><ele>179.0</ele><time>2026-04-18T09:25:37.654Z</time></trkpt><trkpt lat="45.4801699" lon="10.4916322"><ele>179.0</ele><time>2026-04-18T09:25:38.654Z</time></trkpt><trkpt lat="45.4802592" lon="10.4916296"><ele>179.0</ele><time>2026-04-18T09:25:39.655Z</time></trkpt><trkpt lat="45.4803544" lon="10.49163"><ele>179.0</ele><time>2026-04-18T09:25:40.654Z</time></trkpt><trkpt lat="45.4804497" lon="10.4916395"><ele>179.0</ele><time>2026-04-18T09:25:41.654Z</time></trkpt><trkpt lat="45.4805501" lon="10.4916546"><ele>179.0</ele><time>2026-04-18T09:25:42.655Z</time></trkpt><trkpt lat="45.4806573" lon="10.4916887"><ele>179.39999999999998</ele><time>2026-04-18T09:25:43.654Z</time></trkpt><trkpt lat="45.4807622" lon="10.4917393"><ele>179.8</ele><time>2026-04-18T09:25:44.654Z</time></trkpt><trkpt lat="45.4808561" lon="10.491792"><ele>180.2</ele><time>2026-04-18T09:25:45.653Z</time></trkpt><trkpt lat="45.4809574" lon="10.4918406"><ele>180.60000000000002</ele><time>2026-04-18T09:25:46.654Z</time></trkpt><trkpt lat="45.4810585" lon="10.4918844"><ele>181.0</ele><time>2026-04-18T09:25:47.655Z</time></trkpt><trkpt lat="45.48117" lon="10.4919086"><ele>182.25</ele><time>2026-04-18T09:25:48.655Z</time></trkpt><trkpt lat="45.4812841" lon="10.4919099"><ele>183.5</ele><time>2026-04-18T09:25:49.655Z</time></trkpt><trkpt lat="45.4813909" lon="10.4919336"><ele>184.75</ele><time>2026-04-18T09:25:50.655Z</time></trkpt><trkpt lat="45.481506" lon="10.4919604"><ele>186.0</ele><time>2026-04-18T09:25:51.655Z</time></trkpt><trkpt lat="45.4816162" lon="10.4919779"><ele>186.0</ele><time>2026-04-18T09:25:52.654Z</time></trkpt><trkpt lat="45.4817197" lon="10.4919969"><ele>186.0</ele><time>2026-04-18T09:25:53.656Z</time></trkpt><trkpt lat="45.4818233" lon="10.4920259"><ele>186.0</ele><time>2026-04-18T09:25:54.654Z</time></trkpt><trkpt lat="45.4819254" lon="10.4920561"><ele>186.0</ele><time>2026-04-18T09:25:55.656Z</time></trkpt><trkpt lat="45.4819949" lon="10.4920722"><ele>186.0</ele><time>2026-04-18T09:25:56.655Z</time></trkpt><trkpt lat="45.4820558" lon="10.4921008"><ele>186.0</ele><time>2026-04-18T09:25:57.654Z</time></trkpt><trkpt lat="45.4821207" lon="10.4921126"><ele>185.16666666666666</ele><time>2026-04-18T09:25:58.655Z</time></trkpt><trkpt lat="45.4822201" lon="10.4921153"><ele>184.33333333333334</ele><time>2026-04-18T09:26:00.655Z</time></trkpt><trkpt lat="45.4823221" lon="10.4920907"><ele>183.5</ele><time>2026-04-18T09:26:02.654Z</time></trkpt><trkpt lat="45.4823598" lon="10.4920106"><ele>182.66666666666669</ele><time>2026-04-18T09:26:06.655Z</time></trkpt><trkpt lat="45.482316" lon="10.4919132"><ele>181.83333333333334</ele><time>2026-04-18T09:26:08.656Z</time></trkpt><trkpt lat="45.4822921" lon="10.4918156"><ele>181.0</ele><time>2026-04-18T09:26:09.655Z</time></trkpt><trkpt lat="45.4822071" lon="10.4916783"><ele>182.0</ele><time>2026-04-18T09:26:11.654Z</time></trkpt><trkpt lat="45.4821211" lon="10.4915655"><ele>183.0</ele><time>2026-04-18T09:26:13.653Z</time></trkpt><trkpt lat="45.4820722" lon="10.4915017"><ele>184.0</ele><time>2026-04-18T09:26:14.654Z</time></trkpt><trkpt lat="45.482011" lon="10.4914193"><ele>185.0</ele><time>2026-04-18T09:26:15.655Z</time></trkpt><trkpt lat="45.4819599" lon="10.4913417"><ele>186.0</ele><time>2026-04-18T09:26:16.656Z</time></trkpt><trkpt lat="45.4818792" lon="10.4912037"><ele>187.4</ele><time>2026-04-18T09:26:18.655Z</time></trkpt><trkpt lat="45.4818243" lon="10.491157"><ele>188.8</ele><time>2026-04-18T09:26:19.654Z</time></trkpt><trkpt lat="45.4817551" lon="10.4909811"><ele>190.20000000000002</ele><time>2026-04-18T09:26:21.654Z</time></trkpt><trkpt lat="45.4817367" lon="10.4908914"><ele>191.60000000000002</ele><time>2026-04-18T09:26:22.655Z</time></trkpt><trkpt lat="45.481623" lon="10.4907566"><ele>193.0</ele><time>2026-04-18T09:26:24.656Z</time></trkpt><trkpt lat="45.4815379" lon="10.4906901"><ele>192.99999999999997</ele><time>2026-04-18T09:26:25.654Z</time></trkpt><trkpt lat="45.4814806" lon="10.4906267"><ele>193.0</ele><time>2026-04-18T09:26:26.654Z</time></trkpt><trkpt lat="45.4814434" lon="10.4905406"><ele>193.0</ele><time>2026-04-18T09:26:27.654Z</time></trkpt><trkpt lat="45.4814353" lon="10.4904354"><ele>193.0</ele><time>2026-04-18T09:26:28.655Z</time></trkpt><trkpt lat="45.4814061" lon="10.4903537"><ele>192.99999999999997</ele><time>2026-04-18T09:26:29.655Z</time></trkpt><trkpt lat="45.481383" lon="10.4902017"><ele>193.0</ele><time>2026-04-18T09:26:31.654Z</time></trkpt><trkpt lat="45.4813686" lon="10.4900843"><ele>194.66666666666666</ele><time>2026-04-18T09:26:32.655Z</time></trkpt><trkpt lat="45.4813523" lon="10.4899832"><ele>196.33333333333331</ele><time>2026-04-18T09:26:33.654Z</time></trkpt><trkpt lat="45.4813291" lon="10.4898082"><ele>198.0</ele><time>2026-04-18T09:26:35.654Z</time></trkpt><trkpt lat="45.4813021" lon="10.489712"><ele>199.66666666666669</ele><time>2026-04-18T09:26:36.654Z</time></trkpt><trkpt lat="45.481301" lon="10.4896014"><ele>201.33333333333334</ele><time>2026-04-18T09:26:37.655Z</time></trkpt><trkpt lat="45.4813174" lon="10.4894808"><ele>203.0</ele><time>2026-04-18T09:26:38.655Z</time></trkpt><trkpt lat="45.4813314" lon="10.4893641"><ele>203.33333333333334</ele><time>2026-04-18T09:26:39.654Z</time></trkpt><trkpt lat="45.4813274" lon="10.4892173"><ele>203.66666666666669</ele><time>2026-04-18T09:26:40.655Z</time></trkpt><trkpt lat="45.4813344" lon="10.4890948"><ele>204.0</ele><time>2026-04-18T09:26:41.656Z</time></trkpt><trkpt lat="45.4813624" lon="10.4889861"><ele>204.33333333333331</ele><time>2026-04-18T09:26:42.654Z</time></trkpt><trkpt lat="45.4813885" lon="10.4888765"><ele>204.66666666666666</ele><time>2026-04-18T09:26:43.654Z</time></trkpt><trkpt lat="45.4814146" lon="10.4887696"><ele>205.0</ele><time>2026-04-18T09:26:44.654Z</time></trkpt><trkpt lat="45.4814512" lon="10.4886517"><ele>204.99999999999997</ele><time>2026-04-18T09:26:45.655Z</time></trkpt><trkpt lat="45.4814817" lon="10.4885488"><ele>205.0</ele><time>2026-04-18T09:26:46.654Z</time></trkpt><trkpt lat="45.4815145" lon="10.4884445"><ele>205.0</ele><time>2026-04-18T09:26:47.655Z</time></trkpt><trkpt lat="45.4815459" lon="10.4883359"><ele>205.0</ele><time>2026-04-18T09:26:48.654Z</time></trkpt><trkpt lat="45.4815928" lon="10.488261"><ele>204.99999999999997</ele><time>2026-04-18T09:26:49.653Z</time></trkpt><trkpt lat="45.4816481" lon="10.4881852"><ele>205.0</ele><time>2026-04-18T09:26:50.655Z</time></trkpt><trkpt lat="45.4817049" lon="10.4881126"><ele>204.99999999999997</ele><time>2026-04-18T09:26:51.656Z</time></trkpt><trkpt lat="45.4817597" lon="10.4880642"><ele>205.0</ele><time>2026-04-18T09:26:52.656Z</time></trkpt><trkpt lat="45.4818376" lon="10.4880358"><ele>205.0</ele><time>2026-04-18T09:26:53.653Z</time></trkpt><trkpt lat="45.4819144" lon="10.4879998"><ele>205.0</ele><time>2026-04-18T09:26:54.655Z</time></trkpt><trkpt lat="45.4819821" lon="10.4879711"><ele>204.99999999999997</ele><time>2026-04-18T09:26:55.655Z</time></trkpt><trkpt lat="45.4820483" lon="10.4879424"><ele>205.0</ele><time>2026-04-18T09:26:56.654Z</time></trkpt><trkpt lat="45.4821788" lon="10.487903"><ele>205.99999999999997</ele><time>2026-04-18T09:26:58.655Z</time></trkpt><trkpt lat="45.4822655" lon="10.4878926"><ele>207.0</ele><time>2026-04-18T09:26:59.653Z</time></trkpt><trkpt lat="45.4823411" lon="10.4879004"><ele>208.0</ele><time>2026-04-18T09:27:00.655Z</time></trkpt><trkpt lat="45.4824275" lon="10.4878957"><ele>209.0</ele><time>2026-04-18T09:27:02.654Z</time></trkpt><trkpt lat="45.4825076" lon="10.4878533"><ele>209.99999999999997</ele><time>2026-04-18T09:27:04.654Z</time></trkpt><trkpt lat="45.4825764" lon="10.4878521"><ele>211.0</ele><time>2026-04-18T09:27:06.653Z</time></trkpt><trkpt lat="45.4826515" lon="10.4877747"><ele>210.99999999999997</ele><time>2026-04-18T09:28:22.654Z</time></trkpt><trkpt lat="45.4827286" lon="10.4876687"><ele>211.0</ele><time>2026-04-18T09:28:24.654Z</time></trkpt><trkpt lat="45.4827939" lon="10.4876154"><ele>211.0</ele><time>2026-04-18T09:28:25.655Z</time></trkpt><trkpt lat="45.482854" lon="10.487553"><ele>211.0</ele><time>2026-04-18T09:28:26.653Z</time></trkpt><trkpt lat="45.482916" lon="10.4874787"><ele>210.99999999999997</ele><time>2026-04-18T09:28:27.654Z</time></trkpt><trkpt lat="45.4829846" lon="10.4874079"><ele>211.0</ele><time>2026-04-18T09:28:28.655Z</time></trkpt><trkpt lat="45.4830515" lon="10.4873385"><ele>211.14285714285714</ele><time>2026-04-18T09:28:29.655Z</time></trkpt><trkpt lat="45.4831129" lon="10.4872782"><ele>211.28571428571428</ele><time>2026-04-18T09:28:30.655Z</time></trkpt><trkpt lat="45.4831746" lon="10.4872116"><ele>211.42857142857144</ele><time>2026-04-18T09:28:31.655Z</time></trkpt><trkpt lat="45.4832355" lon="10.4871422"><ele>211.57142857142856</ele><time>2026-04-18T09:28:32.655Z</time></trkpt><trkpt lat="45.4832868" lon="10.4870647"><ele>211.7142857142857</ele><time>2026-04-18T09:28:33.655Z</time></trkpt><trkpt lat="45.4833291" lon="10.4869934"><ele>211.85714285714286</ele><time>2026-04-18T09:28:34.655Z</time></trkpt><trkpt lat="45.4833732" lon="10.4869067"><ele>212.0</ele><time>2026-04-18T09:28:35.654Z</time></trkpt><trkpt lat="45.4834107" lon="10.4868186"><ele>212.00000000000003</ele><time>2026-04-18T09:28:36.653Z</time></trkpt><trkpt lat="45.4834438" lon="10.4867222"><ele>212.0</ele><time>2026-04-18T09:28:37.654Z</time></trkpt><trkpt lat="45.4834864" lon="10.4866187"><ele>212.0</ele><time>2026-04-18T09:28:38.654Z</time></trkpt><trkpt lat="45.4835295" lon="10.4865152"><ele>212.0</ele><time>2026-04-18T09:28:39.653Z</time></trkpt><trkpt lat="45.4835746" lon="10.4864044"><ele>212.00000000000003</ele><time>2026-04-18T09:28:40.653Z</time></trkpt><trkpt lat="45.4836151" lon="10.4862879"><ele>212.0</ele><time>2026-04-18T09:28:41.653Z</time></trkpt><trkpt lat="45.4836534" lon="10.4861831"><ele>212.00000000000003</ele><time>2026-04-18T09:28:42.655Z</time></trkpt><trkpt lat="45.4836901" lon="10.4860818"><ele>212.0</ele><time>2026-04-18T09:28:43.653Z</time></trkpt><trkpt lat="45.4837081" lon="10.4859426"><ele>212.0</ele><time>2026-04-18T09:28:45.655Z</time></trkpt><trkpt lat="45.4837323" lon="10.4857724"><ele>212.0</ele><time>2026-04-18T09:28:47.654Z</time></trkpt><trkpt lat="45.4837489" lon="10.4856823"><ele>212.00000000000003</ele><time>2026-04-18T09:28:48.653Z</time></trkpt><trkpt lat="45.4837681" lon="10.4855932"><ele>212.0</ele><time>2026-04-18T09:28:49.654Z</time></trkpt><trkpt lat="45.48379" lon="10.4854992"><ele>211.0</ele><time>2026-04-18T09:28:50.655Z</time></trkpt><trkpt lat="45.4838123" lon="10.4853995"><ele>210.0</ele><time>2026-04-18T09:28:51.654Z</time></trkpt><trkpt lat="45.4838516" lon="10.4853094"><ele>209.0</ele><time>2026-04-18T09:28:52.655Z</time></trkpt><trkpt lat="45.4838899" lon="10.4852201"><ele>208.0</ele><time>2026-04-18T09:28:53.654Z</time></trkpt><trkpt lat="45.4839147" lon="10.4851253"><ele>207.0</ele><time>2026-04-18T09:28:54.655Z</time></trkpt><trkpt lat="45.4839447" lon="10.4850343"><ele>206.0</ele><time>2026-04-18T09:28:55.653Z</time></trkpt><trkpt lat="45.4839801" lon="10.4849433"><ele>205.0</ele><time>2026-04-18T09:28:56.654Z</time></trkpt><trkpt lat="45.4840497" lon="10.484801"><ele>205.0</ele><time>2026-04-18T09:28:58.654Z</time></trkpt><trkpt lat="45.4840955" lon="10.4846657"><ele>205.0</ele><time>2026-04-18T09:29:00.654Z</time></trkpt><trkpt lat="45.4841359" lon="10.4845899"><ele>205.0</ele><time>2026-04-18T09:29:08.654Z</time></trkpt><trkpt lat="45.4841728" lon="10.484478"><ele>205.0</ele><time>2026-04-18T09:29:10.655Z</time></trkpt><trkpt lat="45.4842367" lon="10.4843027"><ele>205.0</ele><time>2026-04-18T09:29:12.655Z</time></trkpt><trkpt lat="45.4842695" lon="10.484201"><ele>204.6</ele><time>2026-04-18T09:29:13.653Z</time></trkpt><trkpt lat="45.4843045" lon="10.4840913"><ele>204.2</ele><time>2026-04-18T09:29:14.654Z</time></trkpt><trkpt lat="45.4843444" lon="10.4839798"><ele>203.8</ele><time>2026-04-18T09:29:15.655Z</time></trkpt><trkpt lat="45.4843862" lon="10.4838615"><ele>203.4</ele><time>2026-04-18T09:29:16.655Z</time></trkpt><trkpt lat="45.4844336" lon="10.483745"><ele>203.0</ele><time>2026-04-18T09:29:17.655Z</time></trkpt><trkpt lat="45.4844765" lon="10.4836259"><ele>202.66666666666669</ele><time>2026-04-18T09:29:18.654Z</time></trkpt><trkpt lat="45.4845171" lon="10.4835146"><ele>202.33333333333334</ele><time>2026-04-18T09:29:19.653Z</time></trkpt><trkpt lat="45.4845504" lon="10.4834175"><ele>202.0</ele><time>2026-04-18T09:29:20.653Z</time></trkpt><trkpt lat="45.4845775" lon="10.4833346"><ele>201.66666666666669</ele><time>2026-04-18T09:29:21.655Z</time></trkpt><trkpt lat="45.484632" lon="10.4831695"><ele>201.33333333333334</ele><time>2026-04-18T09:29:23.654Z</time></trkpt><trkpt lat="45.484661" lon="10.4830831"><ele>201.0</ele><time>2026-04-18T09:29:24.655Z</time></trkpt><trkpt lat="45.4847512" lon="10.4828774"><ele>200.20000000000002</ele><time>2026-04-18T09:29:26.655Z</time></trkpt><trkpt lat="45.4848073" lon="10.482767"><ele>199.4</ele><time>2026-04-18T09:29:27.655Z</time></trkpt><trkpt lat="45.4848562" lon="10.4826457"><ele>198.6</ele><time>2026-04-18T09:29:28.654Z</time></trkpt><trkpt lat="45.4849092" lon="10.4825278"><ele>197.8</ele><time>2026-04-18T09:29:29.654Z</time></trkpt><trkpt lat="45.4849584" lon="10.4824058"><ele>197.0</ele><time>2026-04-18T09:29:30.655Z</time></trkpt><trkpt lat="45.4850029" lon="10.4822781"><ele>197.00000000000003</ele><time>2026-04-18T09:29:31.656Z</time></trkpt><trkpt lat="45.4850459" lon="10.4821476"><ele>197.0</ele><time>2026-04-18T09:29:32.654Z</time></trkpt><trkpt lat="45.4850927" lon="10.4820378"><ele>197.0</ele><time>2026-04-18T09:29:33.655Z</time></trkpt><trkpt lat="45.4851357" lon="10.4819293"><ele>197.0</ele><time>2026-04-18T09:29:34.654Z</time></trkpt><trkpt lat="45.4851765" lon="10.4818234"><ele>197.00000000000003</ele><time>2026-04-18T09:29:35.653Z</time></trkpt><trkpt lat="45.4852147" lon="10.4817345"><ele>197.0</ele><time>2026-04-18T09:29:36.653Z</time></trkpt><trkpt lat="45.4852852" lon="10.4815917"><ele>197.00000000000003</ele><time>2026-04-18T09:29:38.654Z</time></trkpt><trkpt lat="45.4853408" lon="10.4814625"><ele>197.0</ele><time>2026-04-18T09:29:40.655Z</time></trkpt><trkpt lat="45.4854037" lon="10.4813396"><ele>197.0</ele><time>2026-04-18T09:29:42.653Z</time></trkpt><trkpt lat="45.4854206" lon="10.4812372"><ele>197.0</ele><time>2026-04-18T09:29:44.654Z</time></trkpt><trkpt lat="45.485516" lon="10.4812222"><ele>197.00000000000003</ele><time>2026-04-18T09:29:59.655Z</time></trkpt><trkpt lat="45.4855751" lon="10.4812659"><ele>197.0</ele><time>2026-04-18T09:30:01.655Z</time></trkpt><trkpt lat="45.4856687" lon="10.4813155"><ele>196.6</ele><time>2026-04-18T09:30:03.655Z</time></trkpt><trkpt lat="45.4857752" lon="10.4813784"><ele>196.2</ele><time>2026-04-18T09:30:05.653Z</time></trkpt><trkpt lat="45.4858973" lon="10.4814579"><ele>195.8</ele><time>2026-04-18T09:30:07.654Z</time></trkpt><trkpt lat="45.4859699" lon="10.481492"><ele>195.4</ele><time>2026-04-18T09:30:08.654Z</time></trkpt><trkpt lat="45.4860319" lon="10.4815327"><ele>195.0</ele><time>2026-04-18T09:30:09.654Z</time></trkpt><trkpt lat="45.4860912" lon="10.4815748"><ele>195.0</ele><time>2026-04-18T09:30:10.654Z</time></trkpt><trkpt lat="45.486148" lon="10.4816136"><ele>195.0</ele><time>2026-04-18T09:30:11.652Z</time></trkpt><trkpt lat="45.4862083" lon="10.4816486"><ele>195.0</ele><time>2026-04-18T09:30:12.654Z</time></trkpt><trkpt lat="45.4862705" lon="10.4816757"><ele>195.0</ele><time>2026-04-18T09:30:13.654Z</time></trkpt><trkpt lat="45.4863344" lon="10.4817223"><ele>195.0</ele><time>2026-04-18T09:30:14.654Z</time></trkpt><trkpt lat="45.4864016" lon="10.4817562"><ele>195.0</ele><time>2026-04-18T09:30:15.654Z</time></trkpt><trkpt lat="45.4864725" lon="10.4817972"><ele>195.0</ele><time>2026-04-18T09:30:16.653Z</time></trkpt><trkpt lat="45.4865862" lon="10.4818621"><ele>195.16666666666666</ele><time>2026-04-18T09:30:18.653Z</time></trkpt><trkpt lat="45.4866485" lon="10.4818951"><ele>195.33333333333331</ele><time>2026-04-18T09:30:19.653Z</time></trkpt><trkpt lat="45.4867099" lon="10.481936"><ele>195.5</ele><time>2026-04-18T09:30:20.654Z</time></trkpt><trkpt lat="45.4867633" lon="10.4820298"><ele>195.66666666666666</ele><time>2026-04-18T09:30:22.654Z</time></trkpt><trkpt lat="45.486743" lon="10.4821597"><ele>195.83333333333331</ele><time>2026-04-18T09:30:27.654Z</time></trkpt><trkpt lat="45.4867034" lon="10.4822654"><ele>196.0</ele><time>2026-04-18T09:30:29.654Z</time></trkpt><trkpt lat="45.4866893" lon="10.4823698"><ele>195.99999999999997</ele><time>2026-04-18T09:30:32.654Z</time></trkpt><trkpt lat="45.4867438" lon="10.4822732"><ele>196.0</ele><time>2026-04-18T09:30:36.653Z</time></trkpt><trkpt lat="45.4867424" lon="10.4821477"><ele>196.0</ele><time>2026-04-18T09:30:37.654Z</time></trkpt><trkpt lat="45.486751" lon="10.482058"><ele>196.0</ele><time>2026-04-18T09:30:38.653Z</time></trkpt><trkpt lat="45.4867076" lon="10.481938"><ele>195.99999999999997</ele><time>2026-04-18T09:30:40.653Z</time></trkpt><trkpt lat="45.4866495" lon="10.4818785"><ele>196.0</ele><time>2026-04-18T09:30:42.654Z</time></trkpt><trkpt lat="45.486537" lon="10.4818262"><ele>195.99999999999997</ele><time>2026-04-18T09:30:44.654Z</time></trkpt><trkpt lat="45.4864723" lon="10.4818105"><ele>196.0</ele><time>2026-04-18T09:30:45.655Z</time></trkpt><trkpt lat="45.4863615" lon="10.4817424"><ele>196.0</ele><time>2026-04-18T09:30:47.654Z</time></trkpt><trkpt lat="45.4863008" lon="10.4817081"><ele>196.0</ele><time>2026-04-18T09:30:48.654Z</time></trkpt><trkpt lat="45.4862316" lon="10.481675"><ele>195.99999999999997</ele><time>2026-04-18T09:30:49.653Z</time></trkpt><trkpt lat="45.4861651" lon="10.481635"><ele>196.0</ele><time>2026-04-18T09:30:50.653Z</time></trkpt><trkpt lat="45.4861009" lon="10.4815909"><ele>195.83333333333331</ele><time>2026-04-18T09:30:51.655Z</time></trkpt><trkpt lat="45.4860416" lon="10.481547"><ele>195.66666666666666</ele><time>2026-04-18T09:30:52.653Z</time></trkpt><trkpt lat="45.4859796" lon="10.4815126"><ele>195.5</ele><time>2026-04-18T09:30:53.654Z</time></trkpt><trkpt lat="45.4859178" lon="10.4814895"><ele>195.33333333333331</ele><time>2026-04-18T09:30:54.653Z</time></trkpt><trkpt lat="45.4858028" lon="10.4814168"><ele>195.16666666666666</ele><time>2026-04-18T09:30:56.655Z</time></trkpt><trkpt lat="45.4857422" lon="10.481385"><ele>195.0</ele><time>2026-04-18T09:30:57.655Z</time></trkpt><trkpt lat="45.4856449" lon="10.4813282"><ele>195.0</ele><time>2026-04-18T09:30:59.653Z</time></trkpt><trkpt lat="45.4855441" lon="10.4812822"><ele>195.0</ele><time>2026-04-18T09:31:01.654Z</time></trkpt><trkpt lat="45.4854775" lon="10.48124"><ele>195.0</ele><time>2026-04-18T09:31:03.655Z</time></trkpt><trkpt lat="45.4854253" lon="10.4813013"><ele>195.0</ele><time>2026-04-18T09:31:23.653Z</time></trkpt><trkpt lat="45.4853852" lon="10.4814148"><ele>195.0</ele><time>2026-04-18T09:31:26.654Z</time></trkpt><trkpt lat="45.485346" lon="10.4814869"><ele>195.0</ele><time>2026-04-18T09:31:28.654Z</time></trkpt><trkpt lat="45.4852896" lon="10.4816006"><ele>195.4</ele><time>2026-04-18T09:31:30.654Z</time></trkpt><trkpt lat="45.4852316" lon="10.4817365"><ele>195.8</ele><time>2026-04-18T09:31:32.653Z</time></trkpt><trkpt lat="45.4851878" lon="10.4818362"><ele>196.2</ele><time>2026-04-18T09:31:34.653Z</time></trkpt><trkpt lat="45.4851486" lon="10.4819514"><ele>196.6</ele><time>2026-04-18T09:31:36.654Z</time></trkpt><trkpt lat="45.4850958" lon="10.4820793"><ele>197.0</ele><time>2026-04-18T09:31:38.652Z</time></trkpt><trkpt lat="45.4850607" lon="10.482155"><ele>197.0</ele><time>2026-04-18T09:31:39.654Z</time></trkpt><trkpt lat="45.4850053" lon="10.4822923"><ele>197.0</ele><time>2026-04-18T09:31:41.655Z</time></trkpt><trkpt lat="45.4849481" lon="10.4824329"><ele>197.0</ele><time>2026-04-18T09:31:43.654Z</time></trkpt><trkpt lat="45.4848895" lon="10.4825845"><ele>197.0</ele><time>2026-04-18T09:31:45.655Z</time></trkpt><trkpt lat="45.4848521" lon="10.4826598"><ele>197.0</ele><time>2026-04-18T09:31:46.654Z</time></trkpt><trkpt lat="45.4848211" lon="10.4827395"><ele>197.0</ele><time>2026-04-18T09:31:47.655Z</time></trkpt><trkpt lat="45.4847859" lon="10.4828235"><ele>197.0</ele><time>2026-04-18T09:31:48.653Z</time></trkpt><trkpt lat="45.4847452" lon="10.482909"><ele>197.0</ele><time>2026-04-18T09:31:49.653Z</time></trkpt><trkpt lat="45.4847093" lon="10.482989"><ele>197.0</ele><time>2026-04-18T09:31:50.653Z</time></trkpt><trkpt lat="45.4846789" lon="10.4830697"><ele>197.0</ele><time>2026-04-18T09:31:51.654Z</time></trkpt><trkpt lat="45.4846467" lon="10.4831533"><ele>197.0</ele><time>2026-04-18T09:31:52.653Z</time></trkpt><trkpt lat="45.4846175" lon="10.4832429"><ele>197.0</ele><time>2026-04-18T09:31:53.654Z</time></trkpt><trkpt lat="45.4845926" lon="10.4833269"><ele>197.66666666666669</ele><time>2026-04-18T09:31:54.653Z</time></trkpt><trkpt lat="45.4845634" lon="10.4834079"><ele>198.33333333333334</ele><time>2026-04-18T09:31:55.654Z</time></trkpt><trkpt lat="45.4844981" lon="10.483574"><ele>199.0</ele><time>2026-04-18T09:31:57.653Z</time></trkpt><trkpt lat="45.4844638" lon="10.4836541"><ele>199.66666666666669</ele><time>2026-04-18T09:31:58.654Z</time></trkpt><trkpt lat="45.4844306" lon="10.4837402"><ele>200.33333333333334</ele><time>2026-04-18T09:31:59.653Z</time></trkpt><trkpt lat="45.4844025" lon="10.4838356"><ele>201.0</ele><time>2026-04-18T09:32:00.653Z</time></trkpt><trkpt lat="45.4843775" lon="10.4839303"><ele>201.28571428571428</ele><time>2026-04-18T09:32:01.654Z</time></trkpt><trkpt lat="45.484347" lon="10.4840293"><ele>201.57142857142858</ele><time>2026-04-18T09:32:02.652Z</time></trkpt><trkpt lat="45.4843181" lon="10.4841208"><ele>201.85714285714286</ele><time>2026-04-18T09:32:03.654Z</time></trkpt><trkpt lat="45.484285" lon="10.4842094"><ele>202.14285714285714</ele><time>2026-04-18T09:32:04.655Z</time></trkpt><trkpt lat="45.4842499" lon="10.484296"><ele>202.42857142857144</ele><time>2026-04-18T09:32:05.653Z</time></trkpt><trkpt lat="45.484217" lon="10.4843817"><ele>202.71428571428572</ele><time>2026-04-18T09:32:06.653Z</time></trkpt><trkpt lat="45.4841885" lon="10.4844703"><ele>203.0</ele><time>2026-04-18T09:32:07.654Z</time></trkpt><trkpt lat="45.484155" lon="10.4845572"><ele>203.28571428571428</ele><time>2026-04-18T09:32:08.653Z</time></trkpt><trkpt lat="45.4841181" lon="10.484644"><ele>203.57142857142856</ele><time>2026-04-18T09:32:09.653Z</time></trkpt><trkpt lat="45.4840826" lon="10.4847346"><ele>203.85714285714286</ele><time>2026-04-18T09:32:10.653Z</time></trkpt><trkpt lat="45.4840459" lon="10.4848306"><ele>204.14285714285714</ele><time>2026-04-18T09:32:11.653Z</time></trkpt><trkpt lat="45.484011" lon="10.4849213"><ele>204.42857142857142</ele><time>2026-04-18T09:32:12.655Z</time></trkpt><trkpt lat="45.483976" lon="10.4850017"><ele>204.71428571428572</ele><time>2026-04-18T09:32:13.652Z</time></trkpt><trkpt lat="45.483937" lon="10.485082"><ele>205.0</ele><time>2026-04-18T09:32:14.653Z</time></trkpt><trkpt lat="45.4838966" lon="10.4851648"><ele>205.0</ele><time>2026-04-18T09:32:15.653Z</time></trkpt><trkpt lat="45.4838643" lon="10.4852581"><ele>205.0</ele><time>2026-04-18T09:32:16.653Z</time></trkpt><trkpt lat="45.4838349" lon="10.48535"><ele>205.0</ele><time>2026-04-18T09:32:17.654Z</time></trkpt><trkpt lat="45.4838035" lon="10.4854379"><ele>205.0</ele><time>2026-04-18T09:32:18.653Z</time></trkpt><trkpt lat="45.4837793" lon="10.4855261"><ele>205.0</ele><time>2026-04-18T09:32:19.653Z</time></trkpt><trkpt lat="45.4837624" lon="10.4856216"><ele>205.0</ele><time>2026-04-18T09:32:20.653Z</time></trkpt><trkpt lat="45.4837506" lon="10.4857177"><ele>205.0</ele><time>2026-04-18T09:32:21.653Z</time></trkpt><trkpt lat="45.4837348" lon="10.4858102"><ele>206.0</ele><time>2026-04-18T09:32:22.654Z</time></trkpt><trkpt lat="45.4837189" lon="10.4859087"><ele>207.0</ele><time>2026-04-18T09:32:23.654Z</time></trkpt><trkpt lat="45.4836962" lon="10.4860069"><ele>208.0</ele><time>2026-04-18T09:32:24.653Z</time></trkpt><trkpt lat="45.4836677" lon="10.4860998"><ele>209.0</ele><time>2026-04-18T09:32:25.654Z</time></trkpt><trkpt lat="45.4836363" lon="10.4861868"><ele>210.0</ele><time>2026-04-18T09:32:26.653Z</time></trkpt><trkpt lat="45.4836059" lon="10.4862718"><ele>211.0</ele><time>2026-04-18T09:32:27.653Z</time></trkpt><trkpt lat="45.4835766" lon="10.4863567"><ele>212.0</ele><time>2026-04-18T09:32:28.653Z</time></trkpt><trkpt lat="45.4835435" lon="10.4864431"><ele>212.2857142857143</ele><time>2026-04-18T09:32:29.654Z</time></trkpt><trkpt lat="45.4835116" lon="10.4865286"><ele>212.57142857142856</ele><time>2026-04-18T09:32:30.653Z</time></trkpt><trkpt lat="45.4834785" lon="10.4866167"><ele>212.85714285714286</ele><time>2026-04-18T09:32:31.653Z</time></trkpt><trkpt lat="45.4834472" lon="10.4867112"><ele>213.14285714285717</ele><time>2026-04-18T09:32:32.655Z</time></trkpt><trkpt lat="45.4834115" lon="10.4868018"><ele>213.42857142857144</ele><time>2026-04-18T09:32:33.654Z</time></trkpt><trkpt lat="45.4833716" lon="10.4868904"><ele>213.71428571428572</ele><time>2026-04-18T09:32:34.653Z</time></trkpt><trkpt lat="45.4833255" lon="10.4869742"><ele>214.0</ele><time>2026-04-18T09:32:35.652Z</time></trkpt><trkpt lat="45.4832773" lon="10.4870554"><ele>213.66666666666666</ele><time>2026-04-18T09:32:36.652Z</time></trkpt><trkpt lat="45.4832261" lon="10.4871284"><ele>213.33333333333331</ele><time>2026-04-18T09:32:37.654Z</time></trkpt><trkpt lat="45.4831668" lon="10.4871974"><ele>213.0</ele><time>2026-04-18T09:32:38.653Z</time></trkpt><trkpt lat="45.4831046" lon="10.4872731"><ele>212.66666666666669</ele><time>2026-04-18T09:32:39.653Z</time></trkpt><trkpt lat="45.4830387" lon="10.4873477"><ele>212.33333333333334</ele><time>2026-04-18T09:32:40.654Z</time></trkpt><trkpt lat="45.4829708" lon="10.4874132"><ele>212.0</ele><time>2026-04-18T09:32:41.654Z</time></trkpt><trkpt lat="45.482905" lon="10.4874761"><ele>211.85714285714286</ele><time>2026-04-18T09:32:42.653Z</time></trkpt><trkpt lat="45.482848" lon="10.4875351"><ele>211.7142857142857</ele><time>2026-04-18T09:32:43.654Z</time></trkpt><trkpt lat="45.4827963" lon="10.4875996"><ele>211.57142857142856</ele><time>2026-04-18T09:32:44.654Z</time></trkpt><trkpt lat="45.4827434" lon="10.4876527"><ele>211.42857142857144</ele><time>2026-04-18T09:32:45.652Z</time></trkpt><trkpt lat="45.4826816" lon="10.4877551"><ele>211.28571428571428</ele><time>2026-04-18T09:32:47.655Z</time></trkpt><trkpt lat="45.4826309" lon="10.4878223"><ele>211.14285714285714</ele><time>2026-04-18T09:32:49.653Z</time></trkpt><trkpt lat="45.4825594" lon="10.4878596"><ele>211.0</ele><time>2026-04-18T09:34:27.654Z</time></trkpt><trkpt lat="45.4824918" lon="10.4878861"><ele>211.49999999999997</ele><time>2026-04-18T09:34:30.654Z</time></trkpt><trkpt lat="45.4824337" lon="10.4879591"><ele>212.0</ele><time>2026-04-18T09:34:37.654Z</time></trkpt><trkpt lat="45.4823773" lon="10.4880497"><ele>212.5</ele><time>2026-04-18T09:34:40.653Z</time></trkpt><trkpt lat="45.4823359" lon="10.4881356"><ele>213.0</ele><time>2026-04-18T09:34:43.654Z</time></trkpt><trkpt lat="45.4822585" lon="10.4882145"><ele>213.49999999999997</ele><time>2026-04-18T09:34:47.652Z</time></trkpt><trkpt lat="45.4822067" lon="10.4883133"><ele>214.0</ele><time>2026-04-18T09:34:50.653Z</time></trkpt><trkpt lat="45.4822585" lon="10.4882392"><ele>213.99999999999997</ele><time>2026-04-18T09:35:23.653Z</time></trkpt><trkpt lat="45.4823094" lon="10.4881362"><ele>214.0</ele><time>2026-04-18T09:35:25.653Z</time></trkpt><trkpt lat="45.4823714" lon="10.4880837"><ele>214.0</ele><time>2026-04-18T09:35:26.652Z</time></trkpt><trkpt lat="45.4824425" lon="10.487997"><ele>214.0</ele><time>2026-04-18T09:35:28.651Z</time></trkpt><trkpt lat="45.4824438" lon="10.4879072"><ele>213.99999999999997</ele><time>2026-04-18T09:35:31.653Z</time></trkpt><trkpt lat="45.4824068" lon="10.4878303"><ele>214.0</ele><time>2026-04-18T09:35:54.652Z</time></trkpt><trkpt lat="45.4823384" lon="10.4878025"><ele>213.39999999999998</ele><time>2026-04-18T09:35:57.654Z</time></trkpt><trkpt lat="45.4822237" lon="10.4878254"><ele>212.79999999999998</ele><time>2026-04-18T09:36:00.653Z</time></trkpt><trkpt lat="45.4821348" lon="10.4878447"><ele>212.2</ele><time>2026-04-18T09:36:02.654Z</time></trkpt><trkpt lat="45.4820629" lon="10.4879046"><ele>211.60000000000002</ele><time>2026-04-18T09:36:04.652Z</time></trkpt><trkpt lat="45.4819793" lon="10.4879484"><ele>211.0</ele><time>2026-04-18T09:36:06.652Z</time></trkpt><trkpt lat="45.4818967" lon="10.4879914"><ele>209.99999999999997</ele><time>2026-04-18T09:36:08.654Z</time></trkpt><trkpt lat="45.4818201" lon="10.4880406"><ele>209.0</ele><time>2026-04-18T09:36:10.652Z</time></trkpt><trkpt lat="45.4817511" lon="10.4880944"><ele>208.0</ele><time>2026-04-18T09:36:12.651Z</time></trkpt><trkpt lat="45.4816855" lon="10.4881585"><ele>207.0</ele><time>2026-04-18T09:36:14.653Z</time></trkpt><trkpt lat="45.4816242" lon="10.4882344"><ele>205.99999999999997</ele><time>2026-04-18T09:36:17.652Z</time></trkpt><trkpt lat="45.4815544" lon="10.4883214"><ele>205.0</ele><time>2026-04-18T09:36:19.652Z</time></trkpt><trkpt lat="45.4814817" lon="10.4884373"><ele>204.99999999999997</ele><time>2026-04-18T09:36:21.653Z</time></trkpt><trkpt lat="45.4814127" lon="10.4885287"><ele>205.0</ele><time>2026-04-18T09:36:22.653Z</time></trkpt><trkpt lat="45.4813893" lon="10.4886649"><ele>205.0</ele><time>2026-04-18T09:36:23.651Z</time></trkpt><trkpt lat="45.4813679" lon="10.4887783"><ele>205.0</ele><time>2026-04-18T09:36:24.652Z</time></trkpt><trkpt lat="45.4813508" lon="10.4888894"><ele>204.99999999999997</ele><time>2026-04-18T09:36:25.652Z</time></trkpt><trkpt lat="45.4813231" lon="10.4889889"><ele>205.0</ele><time>2026-04-18T09:36:26.652Z</time></trkpt><trkpt lat="45.4812982" lon="10.4890829"><ele>204.99999999999997</ele><time>2026-04-18T09:36:27.653Z</time></trkpt><trkpt lat="45.4812876" lon="10.489177"><ele>205.0</ele><time>2026-04-18T09:36:28.652Z</time></trkpt><trkpt lat="45.4812795" lon="10.4892819"><ele>205.0</ele><time>2026-04-18T09:36:29.653Z</time></trkpt><trkpt lat="45.4812907" lon="10.489414"><ele>205.0</ele><time>2026-04-18T09:36:30.652Z</time></trkpt><trkpt lat="45.4812855" lon="10.4895413"><ele>204.99999999999997</ele><time>2026-04-18T09:36:31.653Z</time></trkpt><trkpt lat="45.4812824" lon="10.4896414"><ele>205.0</ele><time>2026-04-18T09:36:32.652Z</time></trkpt><trkpt lat="45.4812842" lon="10.4898496"><ele>204.66666666666666</ele><time>2026-04-18T09:36:34.653Z</time></trkpt><trkpt lat="45.4812967" lon="10.4899459"><ele>204.33333333333331</ele><time>2026-04-18T09:36:35.652Z</time></trkpt><trkpt lat="45.4813191" lon="10.4900317"><ele>204.0</ele><time>2026-04-18T09:36:36.652Z</time></trkpt><trkpt lat="45.481332" lon="10.4901277"><ele>203.66666666666669</ele><time>2026-04-18T09:36:37.652Z</time></trkpt><trkpt lat="45.4813961" lon="10.4902365"><ele>203.33333333333334</ele><time>2026-04-18T09:36:38.652Z</time></trkpt><trkpt lat="45.48143" lon="10.4903332"><ele>203.0</ele><time>2026-04-18T09:36:39.651Z</time></trkpt><trkpt lat="45.4814598" lon="10.4904288"><ele>201.33333333333334</ele><time>2026-04-18T09:36:40.653Z</time></trkpt><trkpt lat="45.4814806" lon="10.4905577"><ele>199.66666666666669</ele><time>2026-04-18T09:36:43.652Z</time></trkpt><trkpt lat="45.4815521" lon="10.490597"><ele>198.0</ele><time>2026-04-18T09:36:45.652Z</time></trkpt><trkpt lat="45.4815671" lon="10.4906849"><ele>196.33333333333331</ele><time>2026-04-18T09:37:04.652Z</time></trkpt><trkpt lat="45.4816291" lon="10.4907806"><ele>194.66666666666666</ele><time>2026-04-18T09:37:06.651Z</time></trkpt><trkpt lat="45.4816942" lon="10.4908482"><ele>193.0</ele><time>2026-04-18T09:37:08.652Z</time></trkpt><trkpt lat="45.4817612" lon="10.4909469"><ele>193.0</ele><time>2026-04-18T09:37:10.651Z</time></trkpt><trkpt lat="45.481816" lon="10.4910232"><ele>193.0</ele><time>2026-04-18T09:37:12.652Z</time></trkpt><trkpt lat="45.481861" lon="10.4911136"><ele>193.0</ele><time>2026-04-18T09:37:14.653Z</time></trkpt><trkpt lat="45.4819415" lon="10.4912407"><ele>193.0</ele><time>2026-04-18T09:37:16.653Z</time></trkpt><trkpt lat="45.482043" lon="10.4913954"><ele>193.0</ele><time>2026-04-18T09:37:18.652Z</time></trkpt><trkpt lat="45.4820992" lon="10.4915032"><ele>193.2</ele><time>2026-04-18T09:37:19.651Z</time></trkpt><trkpt lat="45.4821492" lon="10.4915915"><ele>193.4</ele><time>2026-04-18T09:37:20.652Z</time></trkpt><trkpt lat="45.4822074" lon="10.4917302"><ele>193.6</ele><time>2026-04-18T09:37:22.652Z</time></trkpt><trkpt lat="45.4822518" lon="10.4918137"><ele>193.79999999999998</ele><time>2026-04-18T09:37:23.653Z</time></trkpt><trkpt lat="45.4822865" lon="10.4918944"><ele>194.0</ele><time>2026-04-18T09:37:24.653Z</time></trkpt><trkpt lat="45.4823671" lon="10.4920266"><ele>191.83333333333334</ele><time>2026-04-18T09:37:26.651Z</time></trkpt><trkpt lat="45.4823281" lon="10.4921126"><ele>189.66666666666669</ele><time>2026-04-18T09:37:37.653Z</time></trkpt><trkpt lat="45.4822258" lon="10.4921324"><ele>187.5</ele><time>2026-04-18T09:37:40.652Z</time></trkpt><trkpt lat="45.4821628" lon="10.4921462"><ele>185.33333333333334</ele><time>2026-04-18T09:38:34.653Z</time></trkpt><trkpt lat="45.4822347" lon="10.4921462"><ele>183.16666666666669</ele><time>2026-04-18T09:38:42.652Z</time></trkpt><trkpt lat="45.4823033" lon="10.4921274"><ele>181.0</ele><time>2026-04-18T09:38:46.653Z</time></trkpt><trkpt lat="45.4823726" lon="10.4921199"><ele>181.0</ele><time>2026-04-18T09:38:49.653Z</time></trkpt><trkpt lat="45.4824389" lon="10.4920755"><ele>181.0</ele><time>2026-04-18T09:38:51.652Z</time></trkpt><trkpt lat="45.4825515" lon="10.492047"><ele>181.0</ele><time>2026-04-18T09:38:53.653Z</time></trkpt><trkpt lat="45.4826155" lon="10.4920665"><ele>181.0</ele><time>2026-04-18T09:38:54.652Z</time></trkpt><trkpt lat="45.4826834" lon="10.4920933"><ele>181.0</ele><time>2026-04-18T09:38:55.652Z</time></trkpt><trkpt lat="45.4827527" lon="10.4921174"><ele>181.0</ele><time>2026-04-18T09:38:56.65Z</time></trkpt><trkpt lat="45.4828242" lon="10.4921411"><ele>181.0</ele><time>2026-04-18T09:38:57.652Z</time></trkpt><trkpt lat="45.4828967" lon="10.4921675"><ele>181.0</ele><time>2026-04-18T09:38:58.652Z</time></trkpt><trkpt lat="45.4829695" lon="10.4921934"><ele>181.0</ele><time>2026-04-18T09:38:59.653Z</time></trkpt><trkpt lat="45.4830392" lon="10.4922327"><ele>181.0</ele><time>2026-04-18T09:39:00.651Z</time></trkpt><trkpt lat="45.4831102" lon="10.4922699"><ele>181.0</ele><time>2026-04-18T09:39:01.651Z</time></trkpt><trkpt lat="45.4831855" lon="10.4923107"><ele>181.0</ele><time>2026-04-18T09:39:02.651Z</time></trkpt><trkpt lat="45.4832605" lon="10.4923488"><ele>182.33333333333334</ele><time>2026-04-18T09:39:03.652Z</time></trkpt><trkpt lat="45.4833334" lon="10.4923829"><ele>183.66666666666669</ele><time>2026-04-18T09:39:04.652Z</time></trkpt><trkpt lat="45.4834087" lon="10.4924155"><ele>185.0</ele><time>2026-04-18T09:39:05.652Z</time></trkpt><trkpt lat="45.4834818" lon="10.4924487"><ele>186.33333333333334</ele><time>2026-04-18T09:39:06.652Z</time></trkpt><trkpt lat="45.4835554" lon="10.49248"><ele>187.66666666666666</ele><time>2026-04-18T09:39:07.652Z</time></trkpt><trkpt lat="45.4836308" lon="10.4925138"><ele>189.0</ele><time>2026-04-18T09:39:08.651Z</time></trkpt><trkpt lat="45.4837061" lon="10.4925456"><ele>189.5</ele><time>2026-04-18T09:39:09.652Z</time></trkpt><trkpt lat="45.4837821" lon="10.4925771"><ele>190.0</ele><time>2026-04-18T09:39:10.652Z</time></trkpt><trkpt lat="45.4838676" lon="10.4926038"><ele>190.5</ele><time>2026-04-18T09:39:11.652Z</time></trkpt><trkpt lat="45.4839557" lon="10.4926265"><ele>191.0</ele><time>2026-04-18T09:39:12.651Z</time></trkpt><trkpt lat="45.4840379" lon="10.492645"><ele>191.5</ele><time>2026-04-18T09:39:13.653Z</time></trkpt><trkpt lat="45.4841192" lon="10.4926641"><ele>192.0</ele><time>2026-04-18T09:39:14.651Z</time></trkpt><trkpt lat="45.4842029" lon="10.4926891"><ele>192.0</ele><time>2026-04-18T09:39:15.652Z</time></trkpt><trkpt lat="45.48428" lon="10.4927046"><ele>192.0</ele><time>2026-04-18T09:39:16.652Z</time></trkpt><trkpt lat="45.4843566" lon="10.4927092"><ele>192.0</ele><time>2026-04-18T09:39:17.651Z</time></trkpt><trkpt lat="45.4844321" lon="10.4927137"><ele>192.0</ele><time>2026-04-18T09:39:18.651Z</time></trkpt><trkpt lat="45.4845066" lon="10.492719"><ele>192.0</ele><time>2026-04-18T09:39:19.651Z</time></trkpt><trkpt lat="45.4845782" lon="10.4927165"><ele>192.0</ele><time>2026-04-18T09:39:20.652Z</time></trkpt><trkpt lat="45.4846514" lon="10.492702"><ele>192.16666666666666</ele><time>2026-04-18T09:39:21.652Z</time></trkpt><trkpt lat="45.4847211" lon="10.4926918"><ele>192.33333333333331</ele><time>2026-04-18T09:39:22.653Z</time></trkpt><trkpt lat="45.484795" lon="10.4926821"><ele>192.5</ele><time>2026-04-18T09:39:23.652Z</time></trkpt><trkpt lat="45.4848674" lon="10.4926813"><ele>192.66666666666666</ele><time>2026-04-18T09:39:24.654Z</time></trkpt><trkpt lat="45.4849372" lon="10.4926753"><ele>192.83333333333331</ele><time>2026-04-18T09:39:25.651Z</time></trkpt><trkpt lat="45.4850759" lon="10.4926723"><ele>193.0</ele><time>2026-04-18T09:39:27.652Z</time></trkpt><trkpt lat="45.4851451" lon="10.4926764"><ele>193.00000000000003</ele><time>2026-04-18T09:39:28.652Z</time></trkpt><trkpt lat="45.4852104" lon="10.4926843"><ele>193.0</ele><time>2026-04-18T09:39:29.65Z</time></trkpt><trkpt lat="45.4852777" lon="10.4926923"><ele>193.0</ele><time>2026-04-18T09:39:30.652Z</time></trkpt><trkpt lat="45.4853427" lon="10.4926955"><ele>193.0</ele><time>2026-04-18T09:39:31.651Z</time></trkpt><trkpt lat="45.4854172" lon="10.4927025"><ele>193.0</ele><time>2026-04-18T09:39:32.651Z</time></trkpt><trkpt lat="45.4854973" lon="10.4927088"><ele>193.00000000000003</ele><time>2026-04-18T09:39:33.65Z</time></trkpt><trkpt lat="45.485577" lon="10.4927147"><ele>193.0</ele><time>2026-04-18T09:39:34.651Z</time></trkpt><trkpt lat="45.4856742" lon="10.4927299"><ele>193.66666666666666</ele><time>2026-04-18T09:39:35.653Z</time></trkpt><trkpt lat="45.4857597" lon="10.4927253"><ele>194.33333333333331</ele><time>2026-04-18T09:39:36.653Z</time></trkpt><trkpt lat="45.4858427" lon="10.4927271"><ele>195.0</ele><time>2026-04-18T09:39:37.652Z</time></trkpt><trkpt lat="45.4859266" lon="10.4927286"><ele>195.66666666666669</ele><time>2026-04-18T09:39:38.651Z</time></trkpt><trkpt lat="45.4860099" lon="10.4927219"><ele>196.33333333333334</ele><time>2026-04-18T09:39:39.652Z</time></trkpt><trkpt lat="45.4860935" lon="10.4927112"><ele>197.0</ele><time>2026-04-18T09:39:40.652Z</time></trkpt><trkpt lat="45.4861738" lon="10.4926984"><ele>197.00000000000003</ele><time>2026-04-18T09:39:41.652Z</time></trkpt><trkpt lat="45.4862538" lon="10.4926851"><ele>197.0</ele><time>2026-04-18T09:39:42.651Z</time></trkpt><trkpt lat="45.4863344" lon="10.4926703"><ele>197.0</ele><time>2026-04-18T09:39:43.651Z</time></trkpt><trkpt lat="45.4864134" lon="10.4926399"><ele>197.0</ele><time>2026-04-18T09:39:44.652Z</time></trkpt><trkpt lat="45.4864918" lon="10.4926259"><ele>197.00000000000003</ele><time>2026-04-18T09:39:45.651Z</time></trkpt><trkpt lat="45.48657" lon="10.4926124"><ele>197.0</ele><time>2026-04-18T09:39:46.652Z</time></trkpt><trkpt lat="45.4866471" lon="10.492604"><ele>196.83333333333334</ele><time>2026-04-18T09:39:47.652Z</time></trkpt><trkpt lat="45.4867219" lon="10.4925848"><ele>196.66666666666669</ele><time>2026-04-18T09:39:48.651Z</time></trkpt><trkpt lat="45.4867972" lon="10.4925692"><ele>196.5</ele><time>2026-04-18T09:39:49.652Z</time></trkpt><trkpt lat="45.486879" lon="10.4925666"><ele>196.33333333333331</ele><time>2026-04-18T09:39:50.652Z</time></trkpt><trkpt lat="45.486961" lon="10.4925544"><ele>196.16666666666666</ele><time>2026-04-18T09:39:51.651Z</time></trkpt><trkpt lat="45.4870393" lon="10.492529"><ele>196.0</ele><time>2026-04-18T09:39:52.653Z</time></trkpt><trkpt lat="45.4871235" lon="10.4925001"><ele>195.66666666666666</ele><time>2026-04-18T09:39:53.653Z</time></trkpt><trkpt lat="45.4872065" lon="10.4924618"><ele>195.33333333333331</ele><time>2026-04-18T09:39:54.651Z</time></trkpt><trkpt lat="45.4872884" lon="10.4924189"><ele>195.0</ele><time>2026-04-18T09:39:55.652Z</time></trkpt><trkpt lat="45.4873685" lon="10.49238"><ele>194.66666666666669</ele><time>2026-04-18T09:39:56.652Z</time></trkpt><trkpt lat="45.4874371" lon="10.4923193"><ele>194.33333333333334</ele><time>2026-04-18T09:39:57.652Z</time></trkpt><trkpt lat="45.487484" lon="10.4922578"><ele>194.0</ele><time>2026-04-18T09:39:58.653Z</time></trkpt><trkpt lat="45.4875487" lon="10.4921743"><ele>194.0</ele><time>2026-04-18T09:39:59.651Z</time></trkpt><trkpt lat="45.4876288" lon="10.4920942"><ele>194.0</ele><time>2026-04-18T09:40:00.651Z</time></trkpt><trkpt lat="45.48771" lon="10.4920163"><ele>194.0</ele><time>2026-04-18T09:40:01.653Z</time></trkpt><trkpt lat="45.4877979" lon="10.4919291"><ele>194.0</ele><time>2026-04-18T09:40:03.651Z</time></trkpt><trkpt lat="45.4878865" lon="10.4918299"><ele>194.0</ele><time>2026-04-18T09:40:05.652Z</time></trkpt><trkpt lat="45.4879857" lon="10.4917367"><ele>194.83333333333334</ele><time>2026-04-18T09:40:07.652Z</time></trkpt><trkpt lat="45.4880526" lon="10.4916887"><ele>195.66666666666669</ele><time>2026-04-18T09:40:09.651Z</time></trkpt><trkpt lat="45.4881096" lon="10.4916368"><ele>196.5</ele><time>2026-04-18T09:40:11.652Z</time></trkpt><trkpt lat="45.4880006" lon="10.4916776"><ele>197.33333333333331</ele><time>2026-04-18T09:40:14.651Z</time></trkpt><trkpt lat="45.4879557" lon="10.491742"><ele>198.16666666666666</ele><time>2026-04-18T09:40:15.652Z</time></trkpt><trkpt lat="45.4878951" lon="10.491813"><ele>199.0</ele><time>2026-04-18T09:40:16.651Z</time></trkpt><trkpt lat="45.4878151" lon="10.4919038"><ele>198.16666666666666</ele><time>2026-04-18T09:40:17.653Z</time></trkpt><trkpt lat="45.4877461" lon="10.4919755"><ele>197.33333333333331</ele><time>2026-04-18T09:40:18.652Z</time></trkpt><trkpt lat="45.4876793" lon="10.4920444"><ele>196.5</ele><time>2026-04-18T09:40:19.652Z</time></trkpt><trkpt lat="45.4876138" lon="10.4921081"><ele>195.66666666666669</ele><time>2026-04-18T09:40:20.652Z</time></trkpt><trkpt lat="45.487548" lon="10.4921786"><ele>194.83333333333334</ele><time>2026-04-18T09:40:21.653Z</time></trkpt><trkpt lat="45.4874934" lon="10.4922397"><ele>194.0</ele><time>2026-04-18T09:40:22.652Z</time></trkpt><trkpt lat="45.487425" lon="10.4923432"><ele>194.0</ele><time>2026-04-18T09:40:24.652Z</time></trkpt><trkpt lat="45.4873263" lon="10.4924578"><ele>194.0</ele><time>2026-04-18T09:40:26.652Z</time></trkpt><trkpt lat="45.487253" lon="10.4924974"><ele>194.0</ele><time>2026-04-18T09:40:27.652Z</time></trkpt><trkpt lat="45.4871674" lon="10.4925286"><ele>194.0</ele><time>2026-04-18T09:40:28.651Z</time></trkpt><trkpt lat="45.4870855" lon="10.4925413"><ele>194.0</ele><time>2026-04-18T09:40:29.652Z</time></trkpt><trkpt lat="45.4870064" lon="10.4925707"><ele>194.33333333333334</ele><time>2026-04-18T09:40:30.65Z</time></trkpt><trkpt lat="45.4869133" lon="10.4925512"><ele>194.66666666666669</ele><time>2026-04-18T09:40:31.652Z</time></trkpt><trkpt lat="45.4868157" lon="10.4925498"><ele>195.0</ele><time>2026-04-18T09:40:32.651Z</time></trkpt><trkpt lat="45.4867258" lon="10.4925596"><ele>195.33333333333331</ele><time>2026-04-18T09:40:33.651Z</time></trkpt><trkpt lat="45.4866466" lon="10.4925893"><ele>195.66666666666666</ele><time>2026-04-18T09:40:34.653Z</time></trkpt><trkpt lat="45.48657" lon="10.49262"><ele>196.0</ele><time>2026-04-18T09:40:35.652Z</time></trkpt><trkpt lat="45.4864912" lon="10.4926421"><ele>195.99999999999997</ele><time>2026-04-18T09:40:36.651Z</time></trkpt><trkpt lat="45.4864145" lon="10.4926716"><ele>196.0</ele><time>2026-04-18T09:40:37.653Z</time></trkpt><trkpt lat="45.4863391" lon="10.4926876"><ele>196.0</ele><time>2026-04-18T09:40:38.651Z</time></trkpt><trkpt lat="45.486263" lon="10.4927047"><ele>196.0</ele><time>2026-04-18T09:40:39.652Z</time></trkpt><trkpt lat="45.4861894" lon="10.492722"><ele>195.99999999999997</ele><time>2026-04-18T09:40:40.652Z</time></trkpt><trkpt lat="45.4861104" lon="10.4927362"><ele>196.0</ele><time>2026-04-18T09:40:41.652Z</time></trkpt><trkpt lat="45.4860324" lon="10.4927501"><ele>196.16666666666666</ele><time>2026-04-18T09:40:42.652Z</time></trkpt><trkpt lat="45.4859524" lon="10.4927519"><ele>196.33333333333331</ele><time>2026-04-18T09:40:43.652Z</time></trkpt><trkpt lat="45.4858783" lon="10.4927543"><ele>196.5</ele><time>2026-04-18T09:40:44.652Z</time></trkpt><trkpt lat="45.4857987" lon="10.4927618"><ele>196.66666666666669</ele><time>2026-04-18T09:40:45.651Z</time></trkpt><trkpt lat="45.4857188" lon="10.4927635"><ele>196.83333333333334</ele><time>2026-04-18T09:40:46.651Z</time></trkpt><trkpt lat="45.4856368" lon="10.4927602"><ele>197.0</ele><time>2026-04-18T09:40:47.651Z</time></trkpt><trkpt lat="45.4855634" lon="10.4927648"><ele>197.0</ele><time>2026-04-18T09:40:48.651Z</time></trkpt><trkpt lat="45.4854442" lon="10.4927522"><ele>197.0</ele><time>2026-04-18T09:40:50.652Z</time></trkpt><trkpt lat="45.4853367" lon="10.492722"><ele>197.0</ele><time>2026-04-18T09:40:52.651Z</time></trkpt><trkpt lat="45.4852355" lon="10.4926971"><ele>197.0</ele><time>2026-04-18T09:40:54.65Z</time></trkpt><trkpt lat="45.4851137" lon="10.4926901"><ele>196.42857142857144</ele><time>2026-04-18T09:40:56.653Z</time></trkpt><trkpt lat="45.4850486" lon="10.4926878"><ele>195.85714285714286</ele><time>2026-04-18T09:40:57.651Z</time></trkpt><trkpt lat="45.4849771" lon="10.4926909"><ele>195.28571428571428</ele><time>2026-04-18T09:40:58.652Z</time></trkpt><trkpt lat="45.4849085" lon="10.4926936"><ele>194.71428571428572</ele><time>2026-04-18T09:40:59.652Z</time></trkpt><trkpt lat="45.484838" lon="10.4926877"><ele>194.14285714285714</ele><time>2026-04-18T09:41:00.651Z</time></trkpt><trkpt lat="45.4847676" lon="10.4926897"><ele>193.57142857142858</ele><time>2026-04-18T09:41:01.651Z</time></trkpt><trkpt lat="45.4846898" lon="10.4927108"><ele>193.0</ele><time>2026-04-18T09:41:02.652Z</time></trkpt><trkpt lat="45.4845925" lon="10.4927255"><ele>192.99999999999997</ele><time>2026-04-18T09:41:04.652Z</time></trkpt><trkpt lat="45.4845494" lon="10.4926432"><ele>193.0</ele><time>2026-04-18T09:41:08.652Z</time></trkpt><trkpt lat="45.4845553" lon="10.4925264"><ele>193.0</ele><time>2026-04-18T09:41:10.651Z</time></trkpt><trkpt lat="45.4845672" lon="10.4923914"><ele>193.0</ele><time>2026-04-18T09:41:12.651Z</time></trkpt><trkpt lat="45.4845871" lon="10.4922466"><ele>192.99999999999997</ele><time>2026-04-18T09:41:14.652Z</time></trkpt><trkpt lat="45.4846018" lon="10.4921117"><ele>193.0</ele><time>2026-04-18T09:41:16.651Z</time></trkpt><trkpt lat="45.4846347" lon="10.4919893"><ele>192.99999999999997</ele><time>2026-04-18T09:41:18.651Z</time></trkpt><trkpt lat="45.4846666" lon="10.4919094"><ele>193.0</ele><time>2026-04-18T09:41:20.652Z</time></trkpt><trkpt lat="45.4846083" lon="10.491847"><ele>193.0</ele><time>2026-04-18T09:41:24.651Z</time></trkpt><trkpt lat="45.4846106" lon="10.4919582"><ele>193.0</ele><time>2026-04-18T09:41:28.652Z</time></trkpt><trkpt lat="45.4846354" lon="10.4921079"><ele>192.99999999999997</ele><time>2026-04-18T09:41:30.651Z</time></trkpt><trkpt lat="45.4846178" lon="10.4922012"><ele>193.0</ele><time>2026-04-18T09:41:31.651Z</time></trkpt><trkpt lat="45.4846055" lon="10.49229"><ele>193.0</ele><time>2026-04-18T09:41:32.652Z</time></trkpt><trkpt lat="45.4845915" lon="10.4924014"><ele>193.0</ele><time>2026-04-18T09:41:33.653Z</time></trkpt><trkpt lat="45.4845858" lon="10.4924998"><ele>193.0</ele><time>2026-04-18T09:41:34.651Z</time></trkpt><trkpt lat="45.4845931" lon="10.4926313"><ele>193.0</ele><time>2026-04-18T09:41:36.651Z</time></trkpt><trkpt lat="45.4846667" lon="10.4927048"><ele>193.0</ele><time>2026-04-18T09:41:39.65Z</time></trkpt><trkpt lat="45.4847867" lon="10.4927169"><ele>192.99999999999997</ele><time>2026-04-18T09:41:41.653Z</time></trkpt><trkpt lat="45.4848721" lon="10.4927091"><ele>193.0</ele><time>2026-04-18T09:41:42.652Z</time></trkpt><trkpt lat="45.4849527" lon="10.4927042"><ele>193.0</ele><time>2026-04-18T09:41:43.651Z</time></trkpt><trkpt lat="45.485049" lon="10.4927009"><ele>193.0</ele><time>2026-04-18T09:41:44.652Z</time></trkpt><trkpt lat="45.4851423" lon="10.4927064"><ele>192.99999999999997</ele><time>2026-04-18T09:41:45.652Z</time></trkpt><trkpt lat="45.4852342" lon="10.4927165"><ele>193.0</ele><time>2026-04-18T09:41:46.651Z</time></trkpt><trkpt lat="45.4853269" lon="10.4927338"><ele>193.0</ele><time>2026-04-18T09:41:47.652Z</time></trkpt><trkpt lat="45.4854195" lon="10.4927493"><ele>193.0</ele><time>2026-04-18T09:41:48.652Z</time></trkpt><trkpt lat="45.485515" lon="10.4927412"><ele>193.0</ele><time>2026-04-18T09:41:49.652Z</time></trkpt><trkpt lat="45.4856195" lon="10.4927512"><ele>193.0</ele><time>2026-04-18T09:41:50.652Z</time></trkpt><trkpt lat="45.4857202" lon="10.4927565"><ele>193.0</ele><time>2026-04-18T09:41:51.652Z</time></trkpt><trkpt lat="45.4858222" lon="10.4927474"><ele>193.60000000000002</ele><time>2026-04-18T09:41:52.652Z</time></trkpt><trkpt lat="45.485925" lon="10.4927381"><ele>194.20000000000002</ele><time>2026-04-18T09:41:53.652Z</time></trkpt><trkpt lat="45.4860289" lon="10.4927222"><ele>194.8</ele><time>2026-04-18T09:41:54.652Z</time></trkpt><trkpt lat="45.486135" lon="10.4927124"><ele>195.4</ele><time>2026-04-18T09:41:55.651Z</time></trkpt><trkpt lat="45.4862411" lon="10.4926896"><ele>196.0</ele><time>2026-04-18T09:41:56.654Z</time></trkpt><trkpt lat="45.4863493" lon="10.4926714"><ele>196.0</ele><time>2026-04-18T09:41:57.651Z</time></trkpt><trkpt lat="45.4864585" lon="10.4926445"><ele>196.0</ele><time>2026-04-18T09:41:58.652Z</time></trkpt><trkpt lat="45.4865613" lon="10.4926284"><ele>196.0</ele><time>2026-04-18T09:41:59.652Z</time></trkpt><trkpt lat="45.4866676" lon="10.4926122"><ele>196.0</ele><time>2026-04-18T09:42:00.651Z</time></trkpt><trkpt lat="45.4867668" lon="10.4925913"><ele>196.0</ele><time>2026-04-18T09:42:01.653Z</time></trkpt><trkpt lat="45.4868728" lon="10.4925657"><ele>196.0</ele><time>2026-04-18T09:42:02.652Z</time></trkpt><trkpt lat="45.4869784" lon="10.4925401"><ele>196.0</ele><time>2026-04-18T09:42:03.651Z</time></trkpt><trkpt lat="45.4870769" lon="10.4925005"><ele>196.0</ele><time>2026-04-18T09:42:04.652Z</time></trkpt><trkpt lat="45.4871788" lon="10.4924616"><ele>196.0</ele><time>2026-04-18T09:42:05.652Z</time></trkpt><trkpt lat="45.4872751" lon="10.4924207"><ele>196.0</ele><time>2026-04-18T09:42:06.651Z</time></trkpt><trkpt lat="45.487363" lon="10.492376"><ele>195.60000000000002</ele><time>2026-04-18T09:42:07.652Z</time></trkpt><trkpt lat="45.48745" lon="10.4923407"><ele>195.2</ele><time>2026-04-18T09:42:08.651Z</time></trkpt><trkpt lat="45.487533" lon="10.4923158"><ele>194.8</ele><time>2026-04-18T09:42:09.653Z</time></trkpt><trkpt lat="45.4876305" lon="10.4922967"><ele>194.39999999999998</ele><time>2026-04-18T09:42:10.65Z</time></trkpt><trkpt lat="45.4877329" lon="10.4922731"><ele>194.0</ele><time>2026-04-18T09:42:11.651Z</time></trkpt><trkpt lat="45.4878329" lon="10.4922539"><ele>193.0</ele><time>2026-04-18T09:42:12.651Z</time></trkpt><trkpt lat="45.4879302" lon="10.4922295"><ele>192.0</ele><time>2026-04-18T09:42:13.65Z</time></trkpt><trkpt lat="45.4880435" lon="10.4922"><ele>191.0</ele><time>2026-04-18T09:42:14.652Z</time></trkpt><trkpt lat="45.48815" lon="10.4921781"><ele>190.0</ele><time>2026-04-18T09:42:15.65Z</time></trkpt><trkpt lat="45.4882572" lon="10.4921543"><ele>189.0</ele><time>2026-04-18T09:42:16.651Z</time></trkpt><trkpt lat="45.4883718" lon="10.4921279"><ele>189.0</ele><time>2026-04-18T09:42:17.652Z</time></trkpt><trkpt lat="45.4884751" lon="10.4921093"><ele>189.0</ele><time>2026-04-18T09:42:18.653Z</time></trkpt><trkpt lat="45.4885822" lon="10.4920822"><ele>189.0</ele><time>2026-04-18T09:42:19.651Z</time></trkpt><trkpt lat="45.4886664" lon="10.4920445"><ele>189.0</ele><time>2026-04-18T09:42:20.653Z</time></trkpt><trkpt lat="45.4887424" lon="10.4919949"><ele>189.0</ele><time>2026-04-18T09:42:21.651Z</time></trkpt><trkpt lat="45.4888194" lon="10.4919525"><ele>189.39999999999998</ele><time>2026-04-18T09:42:22.652Z</time></trkpt><trkpt lat="45.4889184" lon="10.491868"><ele>189.8</ele><time>2026-04-18T09:42:24.651Z</time></trkpt><trkpt lat="45.4890202" lon="10.4917944"><ele>190.2</ele><time>2026-04-18T09:42:26.652Z</time></trkpt><trkpt lat="45.4891274" lon="10.491738"><ele>190.60000000000002</ele><time>2026-04-18T09:42:28.651Z</time></trkpt><trkpt lat="45.489208" lon="10.4916863"><ele>191.0</ele><time>2026-04-18T09:42:30.651Z</time></trkpt><trkpt lat="45.4892787" lon="10.4916698"><ele>191.0</ele><time>2026-04-18T09:42:33.651Z</time></trkpt><trkpt lat="45.4893075" lon="10.491546"><ele>191.0</ele><time>2026-04-18T09:42:51.651Z</time></trkpt><trkpt lat="45.4893164" lon="10.4914497"><ele>191.0</ele><time>2026-04-18T09:42:54.652Z</time></trkpt><trkpt lat="45.4893008" lon="10.4915811"><ele>191.0</ele><time>2026-04-18T09:43:03.651Z</time></trkpt><trkpt lat="45.4892928" lon="10.4916732"><ele>191.0</ele><time>2026-04-18T09:43:05.651Z</time></trkpt><trkpt lat="45.4892181" lon="10.4917232"><ele>191.0</ele><time>2026-04-18T09:43:09.652Z</time></trkpt><trkpt lat="45.4893769" lon="10.4916573"><ele>191.0</ele><time>2026-04-18T09:43:17.651Z</time></trkpt><trkpt lat="45.489459" lon="10.4916491"><ele>191.0</ele><time>2026-04-18T09:43:18.653Z</time></trkpt><trkpt lat="45.489535" lon="10.4916526"><ele>191.0</ele><time>2026-04-18T09:43:19.65Z</time></trkpt><trkpt lat="45.4896193" lon="10.491629"><ele>191.0</ele><time>2026-04-18T09:43:20.651Z</time></trkpt><trkpt lat="45.4896921" lon="10.49159"><ele>191.0</ele><time>2026-04-18T09:43:21.651Z</time></trkpt><trkpt lat="45.4897723" lon="10.4915565"><ele>191.0</ele><time>2026-04-18T09:43:22.651Z</time></trkpt><trkpt lat="45.4898403" lon="10.49151"><ele>189.83333333333331</ele><time>2026-04-18T09:43:23.652Z</time></trkpt><trkpt lat="45.4899152" lon="10.4914604"><ele>188.66666666666666</ele><time>2026-04-18T09:43:24.652Z</time></trkpt><trkpt lat="45.4899861" lon="10.491431"><ele>187.5</ele><time>2026-04-18T09:43:25.652Z</time></trkpt><trkpt lat="45.4900582" lon="10.4913968"><ele>186.33333333333334</ele><time>2026-04-18T09:43:26.651Z</time></trkpt><trkpt lat="45.4901272" lon="10.4913614"><ele>185.16666666666669</ele><time>2026-04-18T09:43:27.652Z</time></trkpt><trkpt lat="45.4901962" lon="10.4913267"><ele>184.0</ele><time>2026-04-18T09:43:28.653Z</time></trkpt><trkpt lat="45.490267" lon="10.4912863"><ele>185.16666666666669</ele><time>2026-04-18T09:43:29.651Z</time></trkpt><trkpt lat="45.4903404" lon="10.4912517"><ele>186.33333333333334</ele><time>2026-04-18T09:43:30.651Z</time></trkpt><trkpt lat="45.4904161" lon="10.4912163"><ele>187.5</ele><time>2026-04-18T09:43:31.65Z</time></trkpt><trkpt lat="45.4904901" lon="10.4911769"><ele>188.66666666666666</ele><time>2026-04-18T09:43:32.65Z</time></trkpt><trkpt lat="45.4905621" lon="10.4911392"><ele>189.83333333333331</ele><time>2026-04-18T09:43:33.651Z</time></trkpt><trkpt lat="45.4906295" lon="10.491104"><ele>191.0</ele><time>2026-04-18T09:43:34.65Z</time></trkpt><trkpt lat="45.4906914" lon="10.491055"><ele>191.0</ele><time>2026-04-18T09:43:35.651Z</time></trkpt><trkpt lat="45.4907585" lon="10.4910167"><ele>191.0</ele><time>2026-04-18T09:43:36.651Z</time></trkpt><trkpt lat="45.4908349" lon="10.4909746"><ele>191.0</ele><time>2026-04-18T09:43:37.651Z</time></trkpt><trkpt lat="45.4909594" lon="10.4909178"><ele>191.0</ele><time>2026-04-18T09:43:39.651Z</time></trkpt><trkpt lat="45.4910328" lon="10.4908967"><ele>191.0</ele><time>2026-04-18T09:43:40.651Z</time></trkpt><trkpt lat="45.4911045" lon="10.490872"><ele>191.0</ele><time>2026-04-18T09:43:41.651Z</time></trkpt><trkpt lat="45.491167" lon="10.4908407"><ele>191.0</ele><time>2026-04-18T09:43:42.651Z</time></trkpt><trkpt lat="45.4912295" lon="10.4908073"><ele>191.0</ele><time>2026-04-18T09:43:43.651Z</time></trkpt><trkpt lat="45.4913063" lon="10.490771"><ele>191.0</ele><time>2026-04-18T09:43:44.653Z</time></trkpt><trkpt lat="45.4913759" lon="10.4907337"><ele>191.0</ele><time>2026-04-18T09:43:45.651Z</time></trkpt><trkpt lat="45.4914452" lon="10.4907006"><ele>191.0</ele><time>2026-04-18T09:43:46.651Z</time></trkpt><trkpt lat="45.4915109" lon="10.4906595"><ele>191.0</ele><time>2026-04-18T09:43:47.651Z</time></trkpt><trkpt lat="45.4915815" lon="10.4906182"><ele>191.0</ele><time>2026-04-18T09:43:48.65Z</time></trkpt><trkpt lat="45.4916457" lon="10.4905666"><ele>190.16666666666666</ele><time>2026-04-18T09:43:49.651Z</time></trkpt><trkpt lat="45.4917208" lon="10.4905253"><ele>189.33333333333331</ele><time>2026-04-18T09:43:50.651Z</time></trkpt><trkpt lat="45.4918121" lon="10.4904238"><ele>188.5</ele><time>2026-04-18T09:43:52.651Z</time></trkpt><trkpt lat="45.491859" lon="10.4903586"><ele>187.66666666666666</ele><time>2026-04-18T09:44:02.652Z</time></trkpt><trkpt lat="45.4917875" lon="10.4903929"><ele>186.83333333333334</ele><time>2026-04-18T09:44:05.652Z</time></trkpt><trkpt lat="45.4917312" lon="10.4903329"><ele>186.0</ele><time>2026-04-18T09:44:16.651Z</time></trkpt><trkpt lat="45.4917644" lon="10.4902541"><ele>188.33333333333334</ele><time>2026-04-18T09:44:20.652Z</time></trkpt><trkpt lat="45.4917835" lon="10.4903482"><ele>190.66666666666669</ele><time>2026-04-18T09:44:26.651Z</time></trkpt><trkpt lat="45.4918759" lon="10.4903879"><ele>193.0</ele><time>2026-04-18T09:44:29.651Z</time></trkpt><trkpt lat="45.4919398" lon="10.4903692"><ele>195.33333333333334</ele><time>2026-04-18T09:44:30.651Z</time></trkpt><trkpt lat="45.4920458" lon="10.4903479"><ele>197.66666666666669</ele><time>2026-04-18T09:44:32.651Z</time></trkpt><trkpt lat="45.4921205" lon="10.4903539"><ele>200.0</ele><time>2026-04-18T09:44:33.651Z</time></trkpt><trkpt lat="45.4921872" lon="10.4903549"><ele>200.00000000000003</ele><time>2026-04-18T09:44:34.651Z</time></trkpt><trkpt lat="45.492257" lon="10.4903741"><ele>200.0</ele><time>2026-04-18T09:44:35.651Z</time></trkpt><trkpt lat="45.4923884" lon="10.490321"><ele>200.0</ele><time>2026-04-18T09:44:37.651Z</time></trkpt><trkpt lat="45.4924643" lon="10.4902514"><ele>200.0</ele><time>2026-04-18T09:44:38.651Z</time></trkpt><trkpt lat="45.4925253" lon="10.4902259"><ele>200.00000000000003</ele><time>2026-04-18T09:44:39.65Z</time></trkpt><trkpt lat="45.4925899" lon="10.4902097"><ele>200.0</ele><time>2026-04-18T09:44:40.651Z</time></trkpt><trkpt lat="45.4927251" lon="10.4901755"><ele>200.00000000000003</ele><time>2026-04-18T09:44:42.649Z</time></trkpt><trkpt lat="45.4927882" lon="10.4901591"><ele>200.0</ele><time>2026-04-18T09:44:43.65Z</time></trkpt><trkpt lat="45.4928495" lon="10.4901342"><ele>200.0</ele><time>2026-04-18T09:44:44.651Z</time></trkpt><trkpt lat="45.4929165" lon="10.4901052"><ele>200.0</ele><time>2026-04-18T09:44:45.651Z</time></trkpt><trkpt lat="45.4929833" lon="10.4900822"><ele>200.0</ele><time>2026-04-18T09:44:46.65Z</time></trkpt><trkpt lat="45.4930521" lon="10.4900558"><ele>200.00000000000003</ele><time>2026-04-18T09:44:47.651Z</time></trkpt><trkpt lat="45.4931331" lon="10.4900464"><ele>200.0</ele><time>2026-04-18T09:44:48.651Z</time></trkpt><trkpt lat="45.4932042" lon="10.4900447"><ele>199.66666666666669</ele><time>2026-04-18T09:44:49.651Z</time></trkpt><trkpt lat="45.4932781" lon="10.4900461"><ele>199.33333333333334</ele><time>2026-04-18T09:44:50.65Z</time></trkpt><trkpt lat="45.4933445" lon="10.4900453"><ele>199.0</ele><time>2026-04-18T09:44:51.651Z</time></trkpt><trkpt lat="45.4934094" lon="10.4900488"><ele>198.66666666666669</ele><time>2026-04-18T09:44:52.652Z</time></trkpt><trkpt lat="45.4934765" lon="10.4900465"><ele>198.33333333333334</ele><time>2026-04-18T09:44:53.651Z</time></trkpt><trkpt lat="45.4935948" lon="10.4900461"><ele>198.0</ele><time>2026-04-18T09:44:55.651Z</time></trkpt><trkpt lat="45.4936974" lon="10.4900335"><ele>197.83333333333334</ele><time>2026-04-18T09:44:57.65Z</time></trkpt><trkpt lat="45.4937902" lon="10.4900046"><ele>197.66666666666669</ele><time>2026-04-18T09:44:59.651Z</time></trkpt><trkpt lat="45.4938537" lon="10.490054"><ele>197.5</ele><time>2026-04-18T09:45:10.65Z</time></trkpt><trkpt lat="45.4939186" lon="10.4900377"><ele>197.33333333333334</ele><time>2026-04-18T09:45:13.652Z</time></trkpt><trkpt lat="45.4939502" lon="10.4899006"><ele>197.16666666666669</ele><time>2026-04-18T09:45:51.651Z</time></trkpt><trkpt lat="45.4939526" lon="10.4897489"><ele>197.0</ele><time>2026-04-18T09:45:53.651Z</time></trkpt><trkpt lat="45.4939764" lon="10.4895742"><ele>198.66666666666669</ele><time>2026-04-18T09:45:55.651Z</time></trkpt><trkpt lat="45.4939903" lon="10.4894392"><ele>200.33333333333334</ele><time>2026-04-18T09:45:57.651Z</time></trkpt><trkpt lat="45.4939899" lon="10.4893438"><ele>202.0</ele><time>2026-04-18T09:46:01.65Z</time></trkpt><trkpt lat="45.4940139" lon="10.4892206"><ele>203.66666666666669</ele><time>2026-04-18T09:46:06.651Z</time></trkpt><trkpt lat="45.4940724" lon="10.4891358"><ele>205.33333333333334</ele><time>2026-04-18T09:46:08.65Z</time></trkpt><trkpt lat="45.4941229" lon="10.4890141"><ele>207.0</ele><time>2026-04-18T09:46:10.651Z</time></trkpt><trkpt lat="45.4941978" lon="10.4889171"><ele>207.0</ele><time>2026-04-18T09:46:12.651Z</time></trkpt><trkpt lat="45.4942634" lon="10.4888351"><ele>207.0</ele><time>2026-04-18T09:46:14.649Z</time></trkpt><trkpt lat="45.4943169" lon="10.4887437"><ele>207.0</ele><time>2026-04-18T09:46:16.651Z</time></trkpt><trkpt lat="45.4943815" lon="10.488695"><ele>207.0</ele><time>2026-04-18T09:46:18.65Z</time></trkpt><trkpt lat="45.4943142" lon="10.4887935"><ele>207.0</ele><time>2026-04-18T09:46:25.651Z</time></trkpt><trkpt lat="45.4942578" lon="10.4888745"><ele>207.0</ele><time>2026-04-18T09:46:26.652Z</time></trkpt><trkpt lat="45.4941885" lon="10.4889549"><ele>207.0</ele><time>2026-04-18T09:46:27.65Z</time></trkpt><trkpt lat="45.4941316" lon="10.4890476"><ele>207.0</ele><time>2026-04-18T09:46:28.651Z</time></trkpt><trkpt lat="45.494087" lon="10.4891286"><ele>207.0</ele><time>2026-04-18T09:46:29.651Z</time></trkpt><trkpt lat="45.4940458" lon="10.48922"><ele>207.0</ele><time>2026-04-18T09:46:30.65Z</time></trkpt><trkpt lat="45.4940034" lon="10.4893175"><ele>207.0</ele><time>2026-04-18T09:46:31.65Z</time></trkpt><trkpt lat="45.493982" lon="10.4894283"><ele>207.0</ele><time>2026-04-18T09:46:32.65Z</time></trkpt><trkpt lat="45.4940091" lon="10.4895124"><ele>205.33333333333334</ele><time>2026-04-18T09:46:33.651Z</time></trkpt><trkpt lat="45.4940026" lon="10.4896116"><ele>203.66666666666669</ele><time>2026-04-18T09:46:34.65Z</time></trkpt><trkpt lat="45.4939874" lon="10.4897204"><ele>202.0</ele><time>2026-04-18T09:46:35.65Z</time></trkpt><trkpt lat="45.4939684" lon="10.4898111"><ele>200.33333333333334</ele><time>2026-04-18T09:46:36.651Z</time></trkpt><trkpt lat="45.4939607" lon="10.4899396"><ele>198.66666666666669</ele><time>2026-04-18T09:46:38.65Z</time></trkpt><trkpt lat="45.4939572" lon="10.490033"><ele>197.0</ele><time>2026-04-18T09:46:41.652Z</time></trkpt><trkpt lat="45.4940746" lon="10.4900519"><ele>197.0</ele><time>2026-04-18T09:46:44.651Z</time></trkpt><trkpt lat="45.4941412" lon="10.490042"><ele>197.0</ele><time>2026-04-18T09:46:45.65Z</time></trkpt><trkpt lat="45.4942146" lon="10.4900383"><ele>197.0</ele><time>2026-04-18T09:46:46.651Z</time></trkpt><trkpt lat="45.494291" lon="10.4900491"><ele>197.0</ele><time>2026-04-18T09:46:47.65Z</time></trkpt><trkpt lat="45.4943633" lon="10.4900422"><ele>197.0</ele><time>2026-04-18T09:46:48.651Z</time></trkpt><trkpt lat="45.4944377" lon="10.490078"><ele>197.0</ele><time>2026-04-18T09:46:49.649Z</time></trkpt><trkpt lat="45.4945131" lon="10.4901187"><ele>197.0</ele><time>2026-04-18T09:46:50.652Z</time></trkpt><trkpt lat="45.4945903" lon="10.4901429"><ele>196.66666666666669</ele><time>2026-04-18T09:46:51.65Z</time></trkpt><trkpt lat="45.4946674" lon="10.4901806"><ele>196.33333333333334</ele><time>2026-04-18T09:46:52.65Z</time></trkpt><trkpt lat="45.4947473" lon="10.490216"><ele>196.0</ele><time>2026-04-18T09:46:53.65Z</time></trkpt><trkpt lat="45.4948285" lon="10.4902556"><ele>195.66666666666669</ele><time>2026-04-18T09:46:54.65Z</time></trkpt><trkpt lat="45.4949125" lon="10.4902854"><ele>195.33333333333334</ele><time>2026-04-18T09:46:55.65Z</time></trkpt><trkpt lat="45.4950003" lon="10.4903143"><ele>195.0</ele><time>2026-04-18T09:46:56.651Z</time></trkpt><trkpt lat="45.495085" lon="10.4903294"><ele>195.0</ele><time>2026-04-18T09:46:57.651Z</time></trkpt><trkpt lat="45.4951697" lon="10.4903339"><ele>195.0</ele><time>2026-04-18T09:46:58.65Z</time></trkpt><trkpt lat="45.4952539" lon="10.4903343"><ele>195.0</ele><time>2026-04-18T09:46:59.65Z</time></trkpt><trkpt lat="45.4953426" lon="10.4903343"><ele>195.0</ele><time>2026-04-18T09:47:00.651Z</time></trkpt><trkpt lat="45.4954303" lon="10.4903265"><ele>195.0</ele><time>2026-04-18T09:47:01.65Z</time></trkpt><trkpt lat="45.4955181" lon="10.4903261"><ele>195.0</ele><time>2026-04-18T09:47:02.651Z</time></trkpt><trkpt lat="45.4956047" lon="10.4903139"><ele>195.5</ele><time>2026-04-18T09:47:03.649Z</time></trkpt><trkpt lat="45.495692" lon="10.4903032"><ele>196.0</ele><time>2026-04-18T09:47:04.651Z</time></trkpt><trkpt lat="45.4957747" lon="10.4903001"><ele>196.5</ele><time>2026-04-18T09:47:05.651Z</time></trkpt><trkpt lat="45.4958515" lon="10.490297"><ele>197.0</ele><time>2026-04-18T09:47:06.651Z</time></trkpt><trkpt lat="45.4959312" lon="10.4902979"><ele>197.5</ele><time>2026-04-18T09:47:07.65Z</time></trkpt><trkpt lat="45.4960069" lon="10.4903054"><ele>198.0</ele><time>2026-04-18T09:47:08.651Z</time></trkpt><trkpt lat="45.4960842" lon="10.4903252"><ele>198.0</ele><time>2026-04-18T09:47:09.649Z</time></trkpt><trkpt lat="45.4961599" lon="10.4903464"><ele>198.0</ele><time>2026-04-18T09:47:10.651Z</time></trkpt><trkpt lat="45.4962357" lon="10.4903692"><ele>198.0</ele><time>2026-04-18T09:47:11.651Z</time></trkpt><trkpt lat="45.496317" lon="10.4903933"><ele>198.0</ele><time>2026-04-18T09:47:12.65Z</time></trkpt><trkpt lat="45.4963974" lon="10.4904328"><ele>198.0</ele><time>2026-04-18T09:47:13.652Z</time></trkpt><trkpt lat="45.4964743" lon="10.4904895"><ele>198.0</ele><time>2026-04-18T09:47:14.65Z</time></trkpt><trkpt lat="45.4965486" lon="10.490563"><ele>198.4</ele><time>2026-04-18T09:47:15.65Z</time></trkpt><trkpt lat="45.4966243" lon="10.4906407"><ele>198.8</ele><time>2026-04-18T09:47:16.649Z</time></trkpt><trkpt lat="45.4967018" lon="10.4907128"><ele>199.2</ele><time>2026-04-18T09:47:17.652Z</time></trkpt><trkpt lat="45.4967798" lon="10.4907835"><ele>199.6</ele><time>2026-04-18T09:47:18.651Z</time></trkpt><trkpt lat="45.4968622" lon="10.4908402"><ele>200.0</ele><time>2026-04-18T09:47:19.651Z</time></trkpt><trkpt lat="45.4969423" lon="10.4909003"><ele>200.0</ele><time>2026-04-18T09:47:20.651Z</time></trkpt><trkpt lat="45.4970246" lon="10.4909609"><ele>200.0</ele><time>2026-04-18T09:47:21.651Z</time></trkpt><trkpt lat="45.497107" lon="10.4910239"><ele>200.0</ele><time>2026-04-18T09:47:22.65Z</time></trkpt><trkpt lat="45.4971916" lon="10.4910863"><ele>200.0</ele><time>2026-04-18T09:47:23.649Z</time></trkpt><trkpt lat="45.4972735" lon="10.4911609"><ele>200.0</ele><time>2026-04-18T09:47:24.65Z</time></trkpt><trkpt lat="45.4973553" lon="10.4912248"><ele>200.4</ele><time>2026-04-18T09:47:25.65Z</time></trkpt><trkpt lat="45.4974416" lon="10.4912852"><ele>200.8</ele><time>2026-04-18T09:47:26.649Z</time></trkpt><trkpt lat="45.4975286" lon="10.4913433"><ele>201.2</ele><time>2026-04-18T09:47:27.65Z</time></trkpt><trkpt lat="45.4976109" lon="10.4914046"><ele>201.6</ele><time>2026-04-18T09:47:28.651Z</time></trkpt><trkpt lat="45.4976899" lon="10.4914673"><ele>202.0</ele><time>2026-04-18T09:47:29.65Z</time></trkpt><trkpt lat="45.4977653" lon="10.4915319"><ele>201.99999999999997</ele><time>2026-04-18T09:47:30.651Z</time></trkpt><trkpt lat="45.4978388" lon="10.4915974"><ele>202.0</ele><time>2026-04-18T09:47:31.65Z</time></trkpt><trkpt lat="45.4978959" lon="10.4916699"><ele>202.0</ele><time>2026-04-18T09:47:32.651Z</time></trkpt><trkpt lat="45.4979396" lon="10.491738"><ele>202.0</ele><time>2026-04-18T09:47:33.65Z</time></trkpt><trkpt lat="45.4980024" lon="10.4918268"><ele>201.99999999999997</ele><time>2026-04-18T09:47:35.652Z</time></trkpt><trkpt lat="45.4980539" lon="10.491893"><ele>202.0</ele><time>2026-04-18T09:47:38.65Z</time></trkpt><trkpt lat="45.4981293" lon="10.4919832"><ele>202.33333333333331</ele><time>2026-04-18T09:47:41.651Z</time></trkpt><trkpt lat="45.4981945" lon="10.4920635"><ele>202.66666666666666</ele><time>2026-04-18T09:47:43.651Z</time></trkpt><trkpt lat="45.4982782" lon="10.4921728"><ele>203.0</ele><time>2026-04-18T09:47:45.65Z</time></trkpt><trkpt lat="45.4983261" lon="10.4922368"><ele>203.33333333333331</ele><time>2026-04-18T09:47:46.65Z</time></trkpt><trkpt lat="45.4983786" lon="10.492311"><ele>203.66666666666666</ele><time>2026-04-18T09:47:47.65Z</time></trkpt><trkpt lat="45.4984325" lon="10.4923913"><ele>204.0</ele><time>2026-04-18T09:47:48.65Z</time></trkpt><trkpt lat="45.4984896" lon="10.4924696"><ele>204.0</ele><time>2026-04-18T09:47:49.65Z</time></trkpt><trkpt lat="45.4985487" lon="10.4925421"><ele>204.0</ele><time>2026-04-18T09:47:50.65Z</time></trkpt><trkpt lat="45.498628" lon="10.4925865"><ele>204.0</ele><time>2026-04-18T09:47:51.65Z</time></trkpt><trkpt lat="45.4986949" lon="10.4926238"><ele>204.0</ele><time>2026-04-18T09:47:52.65Z</time></trkpt><trkpt lat="45.4987708" lon="10.4926689"><ele>204.0</ele><time>2026-04-18T09:47:53.65Z</time></trkpt><trkpt lat="45.4988352" lon="10.4927223"><ele>204.0</ele><time>2026-04-18T09:47:54.65Z</time></trkpt><trkpt lat="45.4988968" lon="10.4927546"><ele>204.16666666666666</ele><time>2026-04-18T09:47:55.651Z</time></trkpt><trkpt lat="45.498961" lon="10.4927901"><ele>204.33333333333331</ele><time>2026-04-18T09:47:56.65Z</time></trkpt><trkpt lat="45.4990229" lon="10.4928304"><ele>204.5</ele><time>2026-04-18T09:47:57.65Z</time></trkpt><trkpt lat="45.4990889" lon="10.4928469"><ele>204.66666666666666</ele><time>2026-04-18T09:47:58.65Z</time></trkpt><trkpt lat="45.4991548" lon="10.4928475"><ele>204.83333333333331</ele><time>2026-04-18T09:47:59.651Z</time></trkpt><trkpt lat="45.499264" lon="10.4928642"><ele>205.0</ele><time>2026-04-18T09:48:01.65Z</time></trkpt><trkpt lat="45.4993527" lon="10.4928633"><ele>204.99999999999997</ele><time>2026-04-18T09:48:03.651Z</time></trkpt><trkpt lat="45.499439" lon="10.4929068"><ele>205.0</ele><time>2026-04-18T09:48:05.651Z</time></trkpt><trkpt lat="45.4995231" lon="10.4929392"><ele>205.0</ele><time>2026-04-18T09:48:07.65Z</time></trkpt><trkpt lat="45.4996144" lon="10.4929826"><ele>205.0</ele><time>2026-04-18T09:48:09.651Z</time></trkpt><trkpt lat="45.4997168" lon="10.4930147"><ele>204.99999999999997</ele><time>2026-04-18T09:48:11.651Z</time></trkpt><trkpt lat="45.4997806" lon="10.4930432"><ele>205.0</ele><time>2026-04-18T09:48:12.65Z</time></trkpt><trkpt lat="45.4998446" lon="10.4930798"><ele>202.83333333333331</ele><time>2026-04-18T09:48:13.651Z</time></trkpt><trkpt lat="45.4999815" lon="10.4930838"><ele>200.66666666666666</ele><time>2026-04-18T09:48:15.651Z</time></trkpt><trkpt lat="45.5000593" lon="10.4930746"><ele>198.5</ele><time>2026-04-18T09:48:16.65Z</time></trkpt><trkpt lat="45.5001341" lon="10.493078"><ele>196.33333333333331</ele><time>2026-04-18T09:48:17.652Z</time></trkpt><trkpt lat="45.5001988" lon="10.4930823"><ele>194.16666666666666</ele><time>2026-04-18T09:48:18.651Z</time></trkpt><trkpt lat="45.5002912" lon="10.4930848"><ele>192.0</ele><time>2026-04-18T09:48:20.651Z</time></trkpt><trkpt lat="45.5002383" lon="10.493014"><ele>192.0</ele><time>2026-04-18T09:48:23.65Z</time></trkpt><trkpt lat="45.5001366" lon="10.4930445"><ele>192.0</ele><time>2026-04-18T09:48:25.65Z</time></trkpt><trkpt lat="45.5000583" lon="10.4930413"><ele>192.0</ele><time>2026-04-18T09:48:26.652Z</time></trkpt><trkpt lat="45.4999731" lon="10.4930354"><ele>192.0</ele><time>2026-04-18T09:48:27.65Z</time></trkpt><trkpt lat="45.4998823" lon="10.4930188"><ele>192.0</ele><time>2026-04-18T09:48:28.651Z</time></trkpt><trkpt lat="45.4997849" lon="10.4930045"><ele>192.0</ele><time>2026-04-18T09:48:29.649Z</time></trkpt><trkpt lat="45.4996904" lon="10.4929774"><ele>192.0</ele><time>2026-04-18T09:48:30.649Z</time></trkpt><trkpt lat="45.4995974" lon="10.4929496"><ele>192.0</ele><time>2026-04-18T09:48:31.65Z</time></trkpt><trkpt lat="45.4995053" lon="10.492911"><ele>192.0</ele><time>2026-04-18T09:48:32.652Z</time></trkpt><trkpt lat="45.4994126" lon="10.4928779"><ele>192.0</ele><time>2026-04-18T09:48:33.65Z</time></trkpt><trkpt lat="45.4993289" lon="10.4928556"><ele>194.16666666666666</ele><time>2026-04-18T09:48:34.65Z</time></trkpt><trkpt lat="45.4992504" lon="10.4928325"><ele>196.33333333333331</ele><time>2026-04-18T09:48:35.65Z</time></trkpt><trkpt lat="45.4991995" lon="10.4927664"><ele>198.5</ele><time>2026-04-18T09:48:36.65Z</time></trkpt><trkpt lat="45.499151" lon="10.4926937"><ele>200.66666666666666</ele><time>2026-04-18T09:48:37.651Z</time></trkpt><trkpt lat="45.4991239" lon="10.4925802"><ele>202.83333333333331</ele><time>2026-04-18T09:48:38.651Z</time></trkpt><trkpt lat="45.4991083" lon="10.4924433"><ele>205.0</ele><time>2026-04-18T09:48:39.65Z</time></trkpt><trkpt lat="45.4991507" lon="10.4923173"><ele>205.0</ele><time>2026-04-18T09:48:40.65Z</time></trkpt><trkpt lat="45.4991441" lon="10.4921787"><ele>205.0</ele><time>2026-04-18T09:48:41.651Z</time></trkpt><trkpt lat="45.499136" lon="10.4920452"><ele>205.0</ele><time>2026-04-18T09:48:42.65Z</time></trkpt><trkpt lat="45.4991282" lon="10.4919101"><ele>205.0</ele><time>2026-04-18T09:48:43.651Z</time></trkpt><trkpt lat="45.499133" lon="10.4917852"><ele>205.0</ele><time>2026-04-18T09:48:44.649Z</time></trkpt><trkpt lat="45.4991298" lon="10.4916612"><ele>205.2</ele><time>2026-04-18T09:48:45.65Z</time></trkpt><trkpt lat="45.4990954" lon="10.4915346"><ele>205.4</ele><time>2026-04-18T09:48:46.65Z</time></trkpt><trkpt lat="45.4990341" lon="10.4914202"><ele>205.60000000000002</ele><time>2026-04-18T09:48:47.65Z</time></trkpt><trkpt lat="45.4989619" lon="10.491311"><ele>205.8</ele><time>2026-04-18T09:48:48.651Z</time></trkpt><trkpt lat="45.49888" lon="10.4911934"><ele>206.0</ele><time>2026-04-18T09:48:49.649Z</time></trkpt><trkpt lat="45.498793" lon="10.4911218"><ele>207.33333333333334</ele><time>2026-04-18T09:48:50.65Z</time></trkpt><trkpt lat="45.4987146" lon="10.491048"><ele>208.66666666666669</ele><time>2026-04-18T09:48:51.65Z</time></trkpt><trkpt lat="45.4986626" lon="10.4909549"><ele>210.0</ele><time>2026-04-18T09:48:52.65Z</time></trkpt><trkpt lat="45.498615" lon="10.4908443"><ele>211.33333333333331</ele><time>2026-04-18T09:48:53.65Z</time></trkpt><trkpt lat="45.4985681" lon="10.4907371"><ele>212.66666666666666</ele><time>2026-04-18T09:48:54.65Z</time></trkpt><trkpt lat="45.4985277" lon="10.4906279"><ele>214.0</ele><time>2026-04-18T09:48:55.651Z</time></trkpt><trkpt lat="45.4984861" lon="10.4905158"><ele>214.16666666666666</ele><time>2026-04-18T09:48:56.651Z</time></trkpt><trkpt lat="45.498447" lon="10.490401"><ele>214.33333333333331</ele><time>2026-04-18T09:48:57.65Z</time></trkpt><trkpt lat="45.4984084" lon="10.4902883"><ele>214.5</ele><time>2026-04-18T09:48:58.65Z</time></trkpt><trkpt lat="45.4983785" lon="10.4901785"><ele>214.66666666666669</ele><time>2026-04-18T09:48:59.65Z</time></trkpt><trkpt lat="45.4983623" lon="10.4900721"><ele>214.83333333333334</ele><time>2026-04-18T09:49:00.651Z</time></trkpt><trkpt lat="45.4983461" lon="10.489983"><ele>215.0</ele><time>2026-04-18T09:49:01.65Z</time></trkpt><trkpt lat="45.498333" lon="10.4898562"><ele>215.00000000000003</ele><time>2026-04-18T09:49:03.649Z</time></trkpt><trkpt lat="45.4983553" lon="10.4896801"><ele>215.0</ele><time>2026-04-18T09:49:05.65Z</time></trkpt><trkpt lat="45.4983713" lon="10.4895878"><ele>215.0</ele><time>2026-04-18T09:49:06.651Z</time></trkpt><trkpt lat="45.4983994" lon="10.4895033"><ele>215.0</ele><time>2026-04-18T09:49:07.651Z</time></trkpt><trkpt lat="45.4984242" lon="10.4894172"><ele>215.00000000000003</ele><time>2026-04-18T09:49:08.65Z</time></trkpt><trkpt lat="45.4984725" lon="10.4893405"><ele>215.0</ele><time>2026-04-18T09:49:09.651Z</time></trkpt><trkpt lat="45.49853" lon="10.4892616"><ele>214.83333333333334</ele><time>2026-04-18T09:49:10.65Z</time></trkpt><trkpt lat="45.4985831" lon="10.489182"><ele>214.66666666666669</ele><time>2026-04-18T09:49:11.65Z</time></trkpt><trkpt lat="45.4986451" lon="10.4890964"><ele>214.5</ele><time>2026-04-18T09:49:12.651Z</time></trkpt><trkpt lat="45.4987084" lon="10.4890112"><ele>214.33333333333331</ele><time>2026-04-18T09:49:13.649Z</time></trkpt><trkpt lat="45.4987695" lon="10.4889275"><ele>214.16666666666666</ele><time>2026-04-18T09:49:14.65Z</time></trkpt><trkpt lat="45.4988159" lon="10.4888273"><ele>214.0</ele><time>2026-04-18T09:49:15.651Z</time></trkpt><trkpt lat="45.4988388" lon="10.48872"><ele>215.99999999999997</ele><time>2026-04-18T09:49:16.65Z</time></trkpt><trkpt lat="45.498852" lon="10.4886138"><ele>218.0</ele><time>2026-04-18T09:49:17.649Z</time></trkpt><trkpt lat="45.4988643" lon="10.4884654"><ele>220.0</ele><time>2026-04-18T09:49:19.65Z</time></trkpt><trkpt lat="45.4988027" lon="10.4883835"><ele>222.0</ele><time>2026-04-18T09:49:22.65Z</time></trkpt><trkpt lat="45.4987518" lon="10.4883122"><ele>223.99999999999997</ele><time>2026-04-18T09:49:24.651Z</time></trkpt><trkpt lat="45.4986714" lon="10.4882742"><ele>226.0</ele><time>2026-04-18T09:49:26.651Z</time></trkpt><trkpt lat="45.4986095" lon="10.4882539"><ele>227.4</ele><time>2026-04-18T09:49:27.65Z</time></trkpt><trkpt lat="45.4984718" lon="10.4882281"><ele>228.8</ele><time>2026-04-18T09:49:29.65Z</time></trkpt><trkpt lat="45.498406" lon="10.488219"><ele>230.20000000000002</ele><time>2026-04-18T09:49:30.651Z</time></trkpt><trkpt lat="45.4983083" lon="10.4881974"><ele>231.60000000000002</ele><time>2026-04-18T09:49:31.651Z</time></trkpt><trkpt lat="45.4981871" lon="10.4882063"><ele>233.0</ele><time>2026-04-18T09:49:32.65Z</time></trkpt><trkpt lat="45.4980677" lon="10.4882381"><ele>233.0</ele><time>2026-04-18T09:49:33.649Z</time></trkpt><trkpt lat="45.4979543" lon="10.4882557"><ele>233.0</ele><time>2026-04-18T09:49:34.649Z</time></trkpt><trkpt lat="45.4978651" lon="10.4882493"><ele>233.0</ele><time>2026-04-18T09:49:35.651Z</time></trkpt><trkpt lat="45.4977888" lon="10.4882166"><ele>233.0</ele><time>2026-04-18T09:49:36.65Z</time></trkpt><trkpt lat="45.4976757" lon="10.4882072"><ele>233.0</ele><time>2026-04-18T09:49:38.65Z</time></trkpt><trkpt lat="45.4975488" lon="10.4882214"><ele>232.83333333333334</ele><time>2026-04-18T09:49:40.65Z</time></trkpt><trkpt lat="45.4974838" lon="10.488227"><ele>232.66666666666669</ele><time>2026-04-18T09:49:41.65Z</time></trkpt><trkpt lat="45.4974022" lon="10.4882211"><ele>232.5</ele><time>2026-04-18T09:49:42.65Z</time></trkpt><trkpt lat="45.4973327" lon="10.4882169"><ele>232.33333333333331</ele><time>2026-04-18T09:49:43.65Z</time></trkpt><trkpt lat="45.4972692" lon="10.4882422"><ele>232.16666666666666</ele><time>2026-04-18T09:49:44.65Z</time></trkpt><trkpt lat="45.4971963" lon="10.4882662"><ele>232.0</ele><time>2026-04-18T09:49:45.65Z</time></trkpt><trkpt lat="45.497116" lon="10.4883558"><ele>231.99999999999997</ele><time>2026-04-18T09:49:48.651Z</time></trkpt><trkpt lat="45.4970912" lon="10.4882558"><ele>232.0</ele><time>2026-04-18T09:49:50.65Z</time></trkpt><trkpt lat="45.4970233" lon="10.4881821"><ele>232.0</ele><time>2026-04-18T09:49:52.651Z</time></trkpt><trkpt lat="45.4969647" lon="10.4881371"><ele>232.0</ele><time>2026-04-18T09:49:54.65Z</time></trkpt><trkpt lat="45.4968987" lon="10.488114"><ele>231.99999999999997</ele><time>2026-04-18T09:50:02.65Z</time></trkpt><trkpt lat="45.496827" lon="10.4880643"><ele>232.0</ele><time>2026-04-18T09:50:06.65Z</time></trkpt><trkpt lat="45.4967396" lon="10.488088"><ele>231.6</ele><time>2026-04-18T09:50:09.65Z</time></trkpt><trkpt lat="45.4966571" lon="10.4880824"><ele>231.2</ele><time>2026-04-18T09:50:11.65Z</time></trkpt><trkpt lat="45.496559" lon="10.4880478"><ele>230.8</ele><time>2026-04-18T09:50:13.65Z</time></trkpt><trkpt lat="45.496481" lon="10.4879922"><ele>230.4</ele><time>2026-04-18T09:50:14.651Z</time></trkpt><trkpt lat="45.4964191" lon="10.4879107"><ele>230.0</ele><time>2026-04-18T09:50:15.65Z</time></trkpt><trkpt lat="45.4963233" lon="10.4878507"><ele>232.50000000000003</ele><time>2026-04-18T09:50:17.649Z</time></trkpt><trkpt lat="45.4962377" lon="10.4878412"><ele>235.0</ele><time>2026-04-18T09:50:19.65Z</time></trkpt><trkpt lat="45.4961658" lon="10.4877638"><ele>237.5</ele><time>2026-04-18T09:50:21.65Z</time></trkpt><trkpt lat="45.4961035" lon="10.4877161"><ele>240.0</ele><time>2026-04-18T09:50:23.65Z</time></trkpt><trkpt lat="45.4960157" lon="10.487702"><ele>242.50000000000003</ele><time>2026-04-18T09:50:26.65Z</time></trkpt><trkpt lat="45.4959295" lon="10.4876444"><ele>245.0</ele><time>2026-04-18T09:50:34.651Z</time></trkpt><trkpt lat="45.4958595" lon="10.487643"><ele>245.00000000000003</ele><time>2026-04-18T09:50:37.649Z</time></trkpt><trkpt lat="45.4957877" lon="10.4876287"><ele>245.0</ele><time>2026-04-18T09:50:43.65Z</time></trkpt><trkpt lat="45.4957196" lon="10.4875769"><ele>245.0</ele><time>2026-04-18T09:50:45.649Z</time></trkpt><trkpt lat="45.495641" lon="10.4875386"><ele>245.0</ele><time>2026-04-18T09:50:47.65Z</time></trkpt><trkpt lat="45.4955675" lon="10.4875105"><ele>245.00000000000003</ele><time>2026-04-18T09:50:49.65Z</time></trkpt><trkpt lat="45.4955036" lon="10.4874768"><ele>245.0</ele><time>2026-04-18T09:50:51.65Z</time></trkpt><trkpt lat="45.4954287" lon="10.4874486"><ele>245.16666666666669</ele><time>2026-04-18T09:50:56.65Z</time></trkpt><trkpt lat="45.4953904" lon="10.4873655"><ele>245.33333333333334</ele><time>2026-04-18T09:51:05.649Z</time></trkpt><trkpt lat="45.4953317" lon="10.4872624"><ele>245.5</ele><time>2026-04-18T09:51:09.651Z</time></trkpt><trkpt lat="45.495261" lon="10.4871734"><ele>245.66666666666669</ele><time>2026-04-18T09:51:11.649Z</time></trkpt><trkpt lat="45.4951753" lon="10.4871328"><ele>245.83333333333334</ele><time>2026-04-18T09:51:14.65Z</time></trkpt><trkpt lat="45.4950965" lon="10.487088"><ele>246.0</ele><time>2026-04-18T09:51:17.65Z</time></trkpt><trkpt lat="45.495034" lon="10.4870446"><ele>248.20000000000002</ele><time>2026-04-18T09:51:19.649Z</time></trkpt><trkpt lat="45.4949587" lon="10.4869674"><ele>250.40000000000003</ele><time>2026-04-18T09:51:21.65Z</time></trkpt><trkpt lat="45.4948346" lon="10.4869563"><ele>252.6</ele><time>2026-04-18T09:51:23.651Z</time></trkpt><trkpt lat="45.4947703" lon="10.4869645"><ele>254.8</ele><time>2026-04-18T09:51:24.65Z</time></trkpt><trkpt lat="45.4946645" lon="10.4869794"><ele>257.0</ele><time>2026-04-18T09:51:26.65Z</time></trkpt><trkpt lat="45.4945455" lon="10.486952"><ele>257.33333333333337</ele><time>2026-04-18T09:51:28.649Z</time></trkpt><trkpt lat="45.4944642" lon="10.4869706"><ele>257.6666666666667</ele><time>2026-04-18T09:51:30.65Z</time></trkpt><trkpt lat="45.4943982" lon="10.4870124"><ele>258.0</ele><time>2026-04-18T09:51:31.65Z</time></trkpt><trkpt lat="45.4942962" lon="10.4870571"><ele>258.3333333333333</ele><time>2026-04-18T09:51:32.65Z</time></trkpt><trkpt lat="45.4942192" lon="10.4870429"><ele>258.66666666666663</ele><time>2026-04-18T09:51:33.65Z</time></trkpt><trkpt lat="45.494132" lon="10.4870541"><ele>259.0</ele><time>2026-04-18T09:51:35.648Z</time></trkpt><trkpt lat="45.4940458" lon="10.4870291"><ele>259.0</ele><time>2026-04-18T09:51:36.649Z</time></trkpt><trkpt lat="45.4939743" lon="10.4870155"><ele>259.0</ele><time>2026-04-18T09:51:37.65Z</time></trkpt><trkpt lat="45.4939019" lon="10.4869249"><ele>259.0</ele><time>2026-04-18T09:51:39.65Z</time></trkpt><trkpt lat="45.4938495" lon="10.4868522"><ele>259.0</ele><time>2026-04-18T09:51:40.649Z</time></trkpt><trkpt lat="45.4937957" lon="10.4867187"><ele>259.0</ele><time>2026-04-18T09:51:42.649Z</time></trkpt><trkpt lat="45.4937238" lon="10.4866311"><ele>259.0</ele><time>2026-04-18T09:51:44.649Z</time></trkpt><trkpt lat="45.4936438" lon="10.486586"><ele>258.16666666666663</ele><time>2026-04-18T09:51:48.649Z</time></trkpt><trkpt lat="45.4935839" lon="10.4866582"><ele>257.3333333333333</ele><time>2026-04-18T09:51:50.649Z</time></trkpt><trkpt lat="45.4934791" lon="10.4866778"><ele>256.5</ele><time>2026-04-18T09:51:52.649Z</time></trkpt><trkpt lat="45.4934182" lon="10.4866489"><ele>255.66666666666669</ele><time>2026-04-18T09:51:53.651Z</time></trkpt><trkpt lat="45.4933191" lon="10.4866573"><ele>254.83333333333334</ele><time>2026-04-18T09:51:55.65Z</time></trkpt><trkpt lat="45.4932559" lon="10.4867394"><ele>254.0</ele><time>2026-04-18T09:52:12.65Z</time></trkpt><trkpt lat="45.4932215" lon="10.4868236"><ele>254.0</ele><time>2026-04-18T09:52:17.649Z</time></trkpt><trkpt lat="45.4931824" lon="10.4869643"><ele>253.99999999999997</ele><time>2026-04-18T09:52:19.65Z</time></trkpt><trkpt lat="45.4931435" lon="10.4870984"><ele>253.99999999999997</ele><time>2026-04-18T09:52:21.65Z</time></trkpt><trkpt lat="45.4931072" lon="10.4872438"><ele>254.0</ele><time>2026-04-18T09:52:23.648Z</time></trkpt><trkpt lat="45.4930619" lon="10.4873899"><ele>254.0</ele><time>2026-04-18T09:52:25.65Z</time></trkpt><trkpt lat="45.4930005" lon="10.4875157"><ele>254.50000000000003</ele><time>2026-04-18T09:52:27.649Z</time></trkpt><trkpt lat="45.4929493" lon="10.4875752"><ele>255.0</ele><time>2026-04-18T09:52:28.648Z</time></trkpt><trkpt lat="45.4928721" lon="10.4876538"><ele>255.5</ele><time>2026-04-18T09:52:29.649Z</time></trkpt><trkpt lat="45.4928061" lon="10.4877528"><ele>256.0</ele><time>2026-04-18T09:52:30.649Z</time></trkpt><trkpt lat="45.4927592" lon="10.4878491"><ele>256.5</ele><time>2026-04-18T09:52:31.649Z</time></trkpt><trkpt lat="45.4927123" lon="10.4879262"><ele>257.0</ele><time>2026-04-18T09:52:32.65Z</time></trkpt><trkpt lat="45.4926485" lon="10.4879464"><ele>253.39999999999998</ele><time>2026-04-18T09:52:33.65Z</time></trkpt><trkpt lat="45.4925451" lon="10.488012"><ele>249.79999999999998</ele><time>2026-04-18T09:52:35.649Z</time></trkpt><trkpt lat="45.4924492" lon="10.4880204"><ele>246.2</ele><time>2026-04-18T09:52:49.65Z</time></trkpt><trkpt lat="45.4923707" lon="10.4880142"><ele>242.6</ele><time>2026-04-18T09:52:50.649Z</time></trkpt><trkpt lat="45.4922878" lon="10.4879993"><ele>239.0</ele><time>2026-04-18T09:52:51.651Z</time></trkpt><trkpt lat="45.4921957" lon="10.4880242"><ele>239.00000000000003</ele><time>2026-04-18T09:52:52.65Z</time></trkpt><trkpt lat="45.4921198" lon="10.4880525"><ele>239.0</ele><time>2026-04-18T09:52:53.649Z</time></trkpt><trkpt lat="45.492043" lon="10.4880955"><ele>239.00000000000003</ele><time>2026-04-18T09:52:54.651Z</time></trkpt><trkpt lat="45.4919793" lon="10.4881318"><ele>239.00000000000003</ele><time>2026-04-18T09:52:55.649Z</time></trkpt><trkpt lat="45.4919264" lon="10.4881974"><ele>239.0</ele><time>2026-04-18T09:52:56.648Z</time></trkpt><trkpt lat="45.4918725" lon="10.4882694"><ele>239.00000000000003</ele><time>2026-04-18T09:52:57.649Z</time></trkpt><trkpt lat="45.4918141" lon="10.4883302"><ele>239.00000000000003</ele><time>2026-04-18T09:52:58.651Z</time></trkpt><trkpt lat="45.4917639" lon="10.4883928"><ele>239.66666666666669</ele><time>2026-04-18T09:52:59.649Z</time></trkpt><trkpt lat="45.4917017" lon="10.4884736"><ele>240.33333333333334</ele><time>2026-04-18T09:53:00.649Z</time></trkpt><trkpt lat="45.4916428" lon="10.4885366"><ele>241.0</ele><time>2026-04-18T09:53:01.648Z</time></trkpt><trkpt lat="45.491558" lon="10.4885813"><ele>241.66666666666669</ele><time>2026-04-18T09:53:03.649Z</time></trkpt><trkpt lat="45.4915033" lon="10.4886316"><ele>242.33333333333334</ele><time>2026-04-18T09:53:04.648Z</time></trkpt><trkpt lat="45.4914493" lon="10.48868"><ele>243.0</ele><time>2026-04-18T09:53:05.65Z</time></trkpt><trkpt lat="45.4913463" lon="10.48871"><ele>240.83333333333334</ele><time>2026-04-18T09:53:06.651Z</time></trkpt><trkpt lat="45.4912735" lon="10.4887674"><ele>238.66666666666669</ele><time>2026-04-18T09:53:07.649Z</time></trkpt><trkpt lat="45.4912226" lon="10.4888232"><ele>236.5</ele><time>2026-04-18T09:53:08.65Z</time></trkpt><trkpt lat="45.4911721" lon="10.4888808"><ele>234.33333333333334</ele><time>2026-04-18T09:53:09.65Z</time></trkpt><trkpt lat="45.491131" lon="10.4889713"><ele>232.16666666666669</ele><time>2026-04-18T09:53:11.65Z</time></trkpt><trkpt lat="45.4910494" lon="10.4890619"><ele>230.0</ele><time>2026-04-18T09:53:13.65Z</time></trkpt><trkpt lat="45.4909909" lon="10.4891017"><ele>230.0</ele><time>2026-04-18T09:53:14.65Z</time></trkpt><trkpt lat="45.4908574" lon="10.4892002"><ele>230.0</ele><time>2026-04-18T09:53:16.65Z</time></trkpt><trkpt lat="45.4907698" lon="10.4892139"><ele>230.0</ele><time>2026-04-18T09:53:17.65Z</time></trkpt><trkpt lat="45.4906524" lon="10.4891969"><ele>230.0</ele><time>2026-04-18T09:53:19.649Z</time></trkpt><trkpt lat="45.4906121" lon="10.4891247"><ele>230.0</ele><time>2026-04-18T09:53:20.649Z</time></trkpt><trkpt lat="45.4905555" lon="10.489066"><ele>230.00000000000003</ele><time>2026-04-18T09:53:21.649Z</time></trkpt><trkpt lat="45.490495" lon="10.4889349"><ele>230.0</ele><time>2026-04-18T09:53:23.649Z</time></trkpt><trkpt lat="45.4904201" lon="10.488883"><ele>230.0</ele><time>2026-04-18T09:53:25.65Z</time></trkpt><trkpt lat="45.4903313" lon="10.4888156"><ele>230.0</ele><time>2026-04-18T09:53:29.649Z</time></trkpt><trkpt lat="45.4902692" lon="10.4887955"><ele>230.00000000000003</ele><time>2026-04-18T09:53:31.65Z</time></trkpt><trkpt lat="45.4902783" lon="10.4888847"><ele>230.0</ele><time>2026-04-18T09:53:35.649Z</time></trkpt><trkpt lat="45.4902603" lon="10.4889784"><ele>231.66666666666669</ele><time>2026-04-18T09:53:37.649Z</time></trkpt><trkpt lat="45.4902482" lon="10.4891112"><ele>233.33333333333334</ele><time>2026-04-18T09:53:39.648Z</time></trkpt><trkpt lat="45.4902052" lon="10.4892079"><ele>235.0</ele><time>2026-04-18T09:53:41.65Z</time></trkpt><trkpt lat="45.4901203" lon="10.4892562"><ele>236.66666666666669</ele><time>2026-04-18T09:53:43.649Z</time></trkpt><trkpt lat="45.4900625" lon="10.4893043"><ele>238.33333333333334</ele><time>2026-04-18T09:53:45.649Z</time></trkpt><trkpt lat="45.4899993" lon="10.489352"><ele>240.0</ele><time>2026-04-18T09:53:47.648Z</time></trkpt><trkpt lat="45.4899211" lon="10.4893593"><ele>240.0</ele><time>2026-04-18T09:53:49.648Z</time></trkpt><trkpt lat="45.4898407" lon="10.4893423"><ele>240.0</ele><time>2026-04-18T09:53:51.65Z</time></trkpt><trkpt lat="45.4897669" lon="10.4893868"><ele>240.0</ele><time>2026-04-18T09:53:54.65Z</time></trkpt><trkpt lat="45.4897095" lon="10.4894683"><ele>240.0</ele><time>2026-04-18T09:53:57.649Z</time></trkpt><trkpt lat="45.4896414" lon="10.4894791"><ele>240.0</ele><time>2026-04-18T09:53:58.649Z</time></trkpt><trkpt lat="45.4895371" lon="10.489469"><ele>240.0</ele><time>2026-04-18T09:54:00.649Z</time></trkpt><trkpt lat="45.489573" lon="10.4893857"><ele>240.0</ele><time>2026-04-18T09:54:02.65Z</time></trkpt><trkpt lat="45.4894958" lon="10.4893313"><ele>240.0</ele><time>2026-04-18T09:54:09.65Z</time></trkpt><trkpt lat="45.4894743" lon="10.4892417"><ele>240.0</ele><time>2026-04-18T09:54:12.648Z</time></trkpt><trkpt lat="45.4895093" lon="10.4891137"><ele>240.0</ele><time>2026-04-18T09:54:16.649Z</time></trkpt><trkpt lat="45.4896282" lon="10.4890011"><ele>240.0</ele><time>2026-04-18T09:54:18.651Z</time></trkpt><trkpt lat="45.4897158" lon="10.4889169"><ele>240.0</ele><time>2026-04-18T09:54:20.649Z</time></trkpt><trkpt lat="45.4897592" lon="10.488808"><ele>240.0</ele><time>2026-04-18T09:54:22.649Z</time></trkpt><trkpt lat="45.4898401" lon="10.4886937"><ele>240.0</ele><time>2026-04-18T09:54:24.65Z</time></trkpt><trkpt lat="45.4899106" lon="10.4885875"><ele>240.0</ele><time>2026-04-18T09:54:26.649Z</time></trkpt><trkpt lat="45.4900237" lon="10.4885035"><ele>240.0</ele><time>2026-04-18T09:54:29.649Z</time></trkpt><trkpt lat="45.4900945" lon="10.4885088"><ele>240.0</ele><time>2026-04-18T09:54:34.649Z</time></trkpt><trkpt lat="45.4901221" lon="10.4886364"><ele>240.0</ele><time>2026-04-18T09:54:36.649Z</time></trkpt><trkpt lat="45.4901165" lon="10.4887327"><ele>240.0</ele><time>2026-04-18T09:54:37.65Z</time></trkpt><trkpt lat="45.4900969" lon="10.4888181"><ele>240.0</ele><time>2026-04-18T09:54:38.649Z</time></trkpt><trkpt lat="45.4900976" lon="10.4889125"><ele>240.0</ele><time>2026-04-18T09:54:39.649Z</time></trkpt><trkpt lat="45.4901896" lon="10.4888205"><ele>240.0</ele><time>2026-04-18T09:54:45.649Z</time></trkpt><trkpt lat="45.4902191" lon="10.4887158"><ele>240.0</ele><time>2026-04-18T09:54:47.649Z</time></trkpt><trkpt lat="45.490334" lon="10.488812"><ele>240.0</ele><time>2026-04-18T09:54:56.649Z</time></trkpt><trkpt lat="45.4904408" lon="10.4888607"><ele>240.0</ele><time>2026-04-18T09:54:58.65Z</time></trkpt><trkpt lat="45.4905216" lon="10.4888445"><ele>240.0</ele><time>2026-04-18T09:55:00.649Z</time></trkpt><trkpt lat="45.4905799" lon="10.4889064"><ele>240.0</ele><time>2026-04-18T09:55:02.65Z</time></trkpt><trkpt lat="45.4906482" lon="10.4890408"><ele>238.0</ele><time>2026-04-18T09:55:04.649Z</time></trkpt><trkpt lat="45.4907005" lon="10.4891176"><ele>236.0</ele><time>2026-04-18T09:55:05.649Z</time></trkpt><trkpt lat="45.4907748" lon="10.4891274"><ele>234.0</ele><time>2026-04-18T09:55:06.649Z</time></trkpt><trkpt lat="45.4909149" lon="10.4891286"><ele>232.0</ele><time>2026-04-18T09:55:08.65Z</time></trkpt><trkpt lat="45.4910417" lon="10.4890952"><ele>230.0</ele><time>2026-04-18T09:55:10.649Z</time></trkpt><trkpt lat="45.4911225" lon="10.4890578"><ele>230.00000000000003</ele><time>2026-04-18T09:55:11.65Z</time></trkpt><trkpt lat="45.4911647" lon="10.4889854"><ele>230.0</ele><time>2026-04-18T09:55:12.649Z</time></trkpt><trkpt lat="45.4912148" lon="10.4889147"><ele>230.0</ele><time>2026-04-18T09:55:13.65Z</time></trkpt><trkpt lat="45.4912644" lon="10.4888517"><ele>230.0</ele><time>2026-04-18T09:55:14.649Z</time></trkpt><trkpt lat="45.491325" lon="10.4888011"><ele>230.00000000000003</ele><time>2026-04-18T09:55:15.65Z</time></trkpt><trkpt lat="45.4913931" lon="10.4886742"><ele>230.0</ele><time>2026-04-18T09:55:17.649Z</time></trkpt><trkpt lat="45.4914392" lon="10.4886021"><ele>232.16666666666669</ele><time>2026-04-18T09:55:18.649Z</time></trkpt><trkpt lat="45.4915028" lon="10.4885563"><ele>234.33333333333334</ele><time>2026-04-18T09:55:19.649Z</time></trkpt><trkpt lat="45.4915747" lon="10.4885134"><ele>236.5</ele><time>2026-04-18T09:55:20.649Z</time></trkpt><trkpt lat="45.4916453" lon="10.4884528"><ele>238.66666666666669</ele><time>2026-04-18T09:55:21.649Z</time></trkpt><trkpt lat="45.4917544" lon="10.4884008"><ele>240.83333333333334</ele><time>2026-04-18T09:55:22.649Z</time></trkpt><trkpt lat="45.4918418" lon="10.4883305"><ele>243.0</ele><time>2026-04-18T09:55:23.649Z</time></trkpt><trkpt lat="45.4919361" lon="10.488251"><ele>243.0</ele><time>2026-04-18T09:55:24.649Z</time></trkpt><trkpt lat="45.4920127" lon="10.488161"><ele>243.0</ele><time>2026-04-18T09:55:25.649Z</time></trkpt><trkpt lat="45.4920955" lon="10.4880824"><ele>243.0</ele><time>2026-04-18T09:55:26.649Z</time></trkpt><trkpt lat="45.4921676" lon="10.4880227"><ele>243.0</ele><time>2026-04-18T09:55:27.649Z</time></trkpt><trkpt lat="45.4922521" lon="10.4880172"><ele>243.0</ele><time>2026-04-18T09:55:28.649Z</time></trkpt><trkpt lat="45.4923238" lon="10.4880155"><ele>243.0</ele><time>2026-04-18T09:55:29.651Z</time></trkpt><trkpt lat="45.4923968" lon="10.4880021"><ele>242.33333333333334</ele><time>2026-04-18T09:55:30.649Z</time></trkpt><trkpt lat="45.4924785" lon="10.4879832"><ele>241.66666666666669</ele><time>2026-04-18T09:55:31.649Z</time></trkpt><trkpt lat="45.4925516" lon="10.4879535"><ele>241.0</ele><time>2026-04-18T09:55:32.649Z</time></trkpt><trkpt lat="45.4926316" lon="10.487924"><ele>240.33333333333334</ele><time>2026-04-18T09:55:33.649Z</time></trkpt><trkpt lat="45.4926967" lon="10.4879118"><ele>239.66666666666669</ele><time>2026-04-18T09:55:34.649Z</time></trkpt><trkpt lat="45.4927792" lon="10.4878341"><ele>239.0</ele><time>2026-04-18T09:55:35.65Z</time></trkpt><trkpt lat="45.492852" lon="10.4877323"><ele>239.6</ele><time>2026-04-18T09:55:36.649Z</time></trkpt><trkpt lat="45.4928871" lon="10.487628"><ele>240.2</ele><time>2026-04-18T09:55:37.648Z</time></trkpt><trkpt lat="45.4929472" lon="10.4875172"><ele>240.79999999999998</ele><time>2026-04-18T09:55:38.649Z</time></trkpt><trkpt lat="45.4929825" lon="10.4874163"><ele>241.39999999999998</ele><time>2026-04-18T09:55:39.649Z</time></trkpt><trkpt lat="45.4930077" lon="10.4872903"><ele>242.0</ele><time>2026-04-18T09:55:40.65Z</time></trkpt><trkpt lat="45.4930636" lon="10.4871698"><ele>244.00000000000003</ele><time>2026-04-18T09:55:41.649Z</time></trkpt><trkpt lat="45.4931182" lon="10.4870916"><ele>246.0</ele><time>2026-04-18T09:55:42.649Z</time></trkpt><trkpt lat="45.4931633" lon="10.4869974"><ele>248.0</ele><time>2026-04-18T09:55:43.649Z</time></trkpt><trkpt lat="45.4931944" lon="10.4868915"><ele>250.0</ele><time>2026-04-18T09:55:44.649Z</time></trkpt><trkpt lat="45.4932335" lon="10.4867957"><ele>252.00000000000003</ele><time>2026-04-18T09:55:45.648Z</time></trkpt><trkpt lat="45.4932659" lon="10.4867055"><ele>254.0</ele><time>2026-04-18T09:55:46.648Z</time></trkpt><trkpt lat="45.4932986" lon="10.4866223"><ele>254.0</ele><time>2026-04-18T09:55:48.649Z</time></trkpt><trkpt lat="45.4932808" lon="10.4865244"><ele>254.0</ele><time>2026-04-18T09:56:12.649Z</time></trkpt><trkpt lat="45.4932209" lon="10.4864403"><ele>254.0</ele><time>2026-04-18T09:56:21.649Z</time></trkpt><trkpt lat="45.4931569" lon="10.486363"><ele>254.0</ele><time>2026-04-18T09:56:47.649Z</time></trkpt><trkpt lat="45.4931282" lon="10.4862727"><ele>254.0</ele><time>2026-04-18T09:56:49.649Z</time></trkpt><trkpt lat="45.4931211" lon="10.4861678"><ele>254.0</ele><time>2026-04-18T09:56:51.648Z</time></trkpt><trkpt lat="45.4931208" lon="10.4860733"><ele>254.0</ele><time>2026-04-18T09:56:53.649Z</time></trkpt><trkpt lat="45.4931396" lon="10.4859865"><ele>254.5</ele><time>2026-04-18T09:56:55.65Z</time></trkpt><trkpt lat="45.4931874" lon="10.4858268"><ele>255.0</ele><time>2026-04-18T09:56:57.649Z</time></trkpt><trkpt lat="45.4932076" lon="10.4856551"><ele>255.5</ele><time>2026-04-18T09:56:59.649Z</time></trkpt><trkpt lat="45.4931826" lon="10.4855058"><ele>256.0</ele><time>2026-04-18T09:57:01.649Z</time></trkpt><trkpt lat="45.4931582" lon="10.4853502"><ele>256.0</ele><time>2026-04-18T09:57:03.648Z</time></trkpt><trkpt lat="45.4931415" lon="10.4852116"><ele>256.0</ele><time>2026-04-18T09:57:05.649Z</time></trkpt><trkpt lat="45.4931126" lon="10.4851202"><ele>256.0</ele><time>2026-04-18T09:57:07.65Z</time></trkpt><trkpt lat="45.4931308" lon="10.4850124"><ele>256.0</ele><time>2026-04-18T09:57:12.649Z</time></trkpt><trkpt lat="45.4931644" lon="10.4851436"><ele>256.0</ele><time>2026-04-18T09:57:34.65Z</time></trkpt><trkpt lat="45.4931969" lon="10.4853249"><ele>256.2</ele><time>2026-04-18T09:57:36.649Z</time></trkpt><trkpt lat="45.4931702" lon="10.4854932"><ele>256.40000000000003</ele><time>2026-04-18T09:57:38.649Z</time></trkpt><trkpt lat="45.4931695" lon="10.4855891"><ele>256.6</ele><time>2026-04-18T09:57:39.649Z</time></trkpt><trkpt lat="45.4931469" lon="10.4856822"><ele>256.8</ele><time>2026-04-18T09:57:40.649Z</time></trkpt><trkpt lat="45.4931305" lon="10.4857742"><ele>257.0</ele><time>2026-04-18T09:57:41.649Z</time></trkpt><trkpt lat="45.4931486" lon="10.4859535"><ele>257.0</ele><time>2026-04-18T09:57:43.649Z</time></trkpt><trkpt lat="45.4931355" lon="10.4860499"><ele>257.0</ele><time>2026-04-18T09:57:44.65Z</time></trkpt><trkpt lat="45.4931352" lon="10.4861436"><ele>257.0</ele><time>2026-04-18T09:57:45.649Z</time></trkpt><trkpt lat="45.4931493" lon="10.4862456"><ele>257.0</ele><time>2026-04-18T09:57:46.649Z</time></trkpt><trkpt lat="45.4931607" lon="10.4863445"><ele>257.0</ele><time>2026-04-18T09:57:47.648Z</time></trkpt><trkpt lat="45.4932101" lon="10.486421"><ele>257.0</ele><time>2026-04-18T09:57:48.649Z</time></trkpt><trkpt lat="45.4932907" lon="10.4864932"><ele>257.0</ele><time>2026-04-18T09:57:50.648Z</time></trkpt><trkpt lat="45.4933493" lon="10.4863529"><ele>257.0</ele><time>2026-04-18T09:57:52.648Z</time></trkpt><trkpt lat="45.4933422" lon="10.4862584"><ele>257.0</ele><time>2026-04-18T09:57:53.648Z</time></trkpt><trkpt lat="45.4933475" lon="10.4860764"><ele>257.0</ele><time>2026-04-18T09:57:55.648Z</time></trkpt><trkpt lat="45.4933503" lon="10.4859219"><ele>257.0</ele><time>2026-04-18T09:57:57.648Z</time></trkpt><trkpt lat="45.493383" lon="10.4858451"><ele>257.0</ele><time>2026-04-18T09:57:58.649Z</time></trkpt><trkpt lat="45.4934087" lon="10.4857583"><ele>257.0</ele><time>2026-04-18T09:57:59.65Z</time></trkpt><trkpt lat="45.4934334" lon="10.4856677"><ele>257.0</ele><time>2026-04-18T09:58:00.648Z</time></trkpt><trkpt lat="45.4934574" lon="10.4854941"><ele>257.0</ele><time>2026-04-18T09:58:02.649Z</time></trkpt><trkpt lat="45.4934563" lon="10.4853926"><ele>257.0</ele><time>2026-04-18T09:58:03.649Z</time></trkpt><trkpt lat="45.4934558" lon="10.4852739"><ele>257.0</ele><time>2026-04-18T09:58:04.649Z</time></trkpt><trkpt lat="45.4934687" lon="10.4851686"><ele>257.0</ele><time>2026-04-18T09:58:05.649Z</time></trkpt><trkpt lat="45.4934799" lon="10.4850635"><ele>257.0</ele><time>2026-04-18T09:58:06.648Z</time></trkpt><trkpt lat="45.4935109" lon="10.4849085"><ele>257.0</ele><time>2026-04-18T09:58:08.648Z</time></trkpt><trkpt lat="45.4934826" lon="10.4848127"><ele>257.0</ele><time>2026-04-18T09:58:15.648Z</time></trkpt><trkpt lat="45.4934813" lon="10.4846992"><ele>257.0</ele><time>2026-04-18T09:58:17.65Z</time></trkpt><trkpt lat="45.4935103" lon="10.4846184"><ele>257.0</ele><time>2026-04-18T09:58:20.65Z</time></trkpt><trkpt lat="45.4934975" lon="10.4845273"><ele>257.0</ele><time>2026-04-18T09:58:28.649Z</time></trkpt><trkpt lat="45.4934811" lon="10.4846158"><ele>257.0</ele><time>2026-04-18T09:58:51.649Z</time></trkpt><trkpt lat="45.4935138" lon="10.4845357"><ele>257.0</ele><time>2026-04-18T09:59:05.649Z</time></trkpt><trkpt lat="45.4935978" lon="10.4844985"><ele>257.0</ele><time>2026-04-18T09:59:08.649Z</time></trkpt><trkpt lat="45.4936724" lon="10.4844749"><ele>257.0</ele><time>2026-04-18T09:59:10.649Z</time></trkpt><trkpt lat="45.4937616" lon="10.4844113"><ele>257.0</ele><time>2026-04-18T09:59:12.649Z</time></trkpt><trkpt lat="45.4938455" lon="10.4843378"><ele>257.0</ele><time>2026-04-18T09:59:14.649Z</time></trkpt><trkpt lat="45.4939224" lon="10.4842536"><ele>257.0</ele><time>2026-04-18T09:59:16.651Z</time></trkpt><trkpt lat="45.4939869" lon="10.4841931"><ele>257.0</ele><time>2026-04-18T09:59:18.649Z</time></trkpt><trkpt lat="45.49404" lon="10.4841419"><ele>257.83333333333337</ele><time>2026-04-18T09:59:21.65Z</time></trkpt><trkpt lat="45.4940874" lon="10.484052"><ele>258.6666666666667</ele><time>2026-04-18T09:59:24.648Z</time></trkpt><trkpt lat="45.4941319" lon="10.483934"><ele>259.5</ele><time>2026-04-18T09:59:27.648Z</time></trkpt><trkpt lat="45.4941559" lon="10.4838441"><ele>260.3333333333333</ele><time>2026-04-18T09:59:29.648Z</time></trkpt><trkpt lat="45.4941817" lon="10.4837506"><ele>261.16666666666663</ele><time>2026-04-18T09:59:32.65Z</time></trkpt><trkpt lat="45.4941543" lon="10.4836392"><ele>262.0</ele><time>2026-04-18T09:59:37.648Z</time></trkpt><trkpt lat="45.4941391" lon="10.4835415"><ele>262.8</ele><time>2026-04-18T09:59:41.648Z</time></trkpt><trkpt lat="45.4941292" lon="10.4834244"><ele>263.6</ele><time>2026-04-18T09:59:44.649Z</time></trkpt><trkpt lat="45.4941284" lon="10.4833"><ele>264.40000000000003</ele><time>2026-04-18T09:59:46.648Z</time></trkpt><trkpt lat="45.4941323" lon="10.4831726"><ele>265.2</ele><time>2026-04-18T09:59:48.647Z</time></trkpt><trkpt lat="45.4941357" lon="10.4830478"><ele>266.0</ele><time>2026-04-18T09:59:50.649Z</time></trkpt><trkpt lat="45.4941599" lon="10.4829036"><ele>266.0</ele><time>2026-04-18T09:59:52.648Z</time></trkpt><trkpt lat="45.4941902" lon="10.4827248"><ele>266.0</ele><time>2026-04-18T09:59:54.649Z</time></trkpt><trkpt lat="45.4942072" lon="10.4826195"><ele>266.0</ele><time>2026-04-18T09:59:55.649Z</time></trkpt><trkpt lat="45.4942231" lon="10.4825074"><ele>266.0</ele><time>2026-04-18T09:59:56.648Z</time></trkpt><trkpt lat="45.4942402" lon="10.4823925"><ele>266.0</ele><time>2026-04-18T09:59:57.649Z</time></trkpt><trkpt lat="45.4942652" lon="10.4822699"><ele>266.0</ele><time>2026-04-18T09:59:58.648Z</time></trkpt><trkpt lat="45.494284" lon="10.4821548"><ele>266.0</ele><time>2026-04-18T09:59:59.649Z</time></trkpt><trkpt lat="45.4943024" lon="10.4820413"><ele>266.0</ele><time>2026-04-18T10:00:00.648Z</time></trkpt><trkpt lat="45.4943224" lon="10.481952"><ele>266.0</ele><time>2026-04-18T10:00:01.649Z</time></trkpt><trkpt lat="45.4943462" lon="10.4817905"><ele>266.0</ele><time>2026-04-18T10:00:03.649Z</time></trkpt><trkpt lat="45.4943499" lon="10.481654"><ele>266.0</ele><time>2026-04-18T10:00:05.648Z</time></trkpt><trkpt lat="45.4943103" lon="10.4815615"><ele>264.6</ele><time>2026-04-18T10:00:08.648Z</time></trkpt><trkpt lat="45.4942756" lon="10.4814351"><ele>263.20000000000005</ele><time>2026-04-18T10:00:12.649Z</time></trkpt><trkpt lat="45.4941541" lon="10.4813593"><ele>261.79999999999995</ele><time>2026-04-18T10:00:14.65Z</time></trkpt><trkpt lat="45.4940841" lon="10.481318"><ele>260.4</ele><time>2026-04-18T10:00:15.648Z</time></trkpt><trkpt lat="45.4940183" lon="10.4812726"><ele>259.0</ele><time>2026-04-18T10:00:16.648Z</time></trkpt><trkpt lat="45.4939369" lon="10.4812128"><ele>257.8333333333333</ele><time>2026-04-18T10:00:17.648Z</time></trkpt><trkpt lat="45.4938491" lon="10.4811537"><ele>256.66666666666663</ele><time>2026-04-18T10:00:18.648Z</time></trkpt><trkpt lat="45.4937834" lon="10.4810534"><ele>255.5</ele><time>2026-04-18T10:00:20.648Z</time></trkpt><trkpt lat="45.4937651" lon="10.4809066"><ele>254.33333333333331</ele><time>2026-04-18T10:00:22.649Z</time></trkpt><trkpt lat="45.4938028" lon="10.4808151"><ele>253.16666666666666</ele><time>2026-04-18T10:00:23.649Z</time></trkpt><trkpt lat="45.4938428" lon="10.4807446"><ele>252.0</ele><time>2026-04-18T10:00:24.649Z</time></trkpt><trkpt lat="45.4939144" lon="10.4806319"><ele>252.0</ele><time>2026-04-18T10:00:26.648Z</time></trkpt><trkpt lat="45.4940255" lon="10.4805822"><ele>252.0</ele><time>2026-04-18T10:00:28.648Z</time></trkpt><trkpt lat="45.4940862" lon="10.480555"><ele>252.0</ele><time>2026-04-18T10:00:29.648Z</time></trkpt><trkpt lat="45.4941515" lon="10.4805547"><ele>252.0</ele><time>2026-04-18T10:00:30.649Z</time></trkpt><trkpt lat="45.4942146" lon="10.4805637"><ele>252.0</ele><time>2026-04-18T10:00:31.648Z</time></trkpt><trkpt lat="45.4942804" lon="10.4805704"><ele>252.0</ele><time>2026-04-18T10:00:32.649Z</time></trkpt><trkpt lat="45.4943485" lon="10.4805991"><ele>252.0</ele><time>2026-04-18T10:00:33.649Z</time></trkpt><trkpt lat="45.4944196" lon="10.4806151"><ele>252.0</ele><time>2026-04-18T10:00:34.649Z</time></trkpt><trkpt lat="45.4944889" lon="10.4806233"><ele>252.0</ele><time>2026-04-18T10:00:35.649Z</time></trkpt><trkpt lat="45.4945539" lon="10.4806383"><ele>252.0</ele><time>2026-04-18T10:00:36.648Z</time></trkpt><trkpt lat="45.4946552" lon="10.4806305"><ele>252.0</ele><time>2026-04-18T10:00:38.65Z</time></trkpt><trkpt lat="45.4947596" lon="10.4806235"><ele>252.0</ele><time>2026-04-18T10:00:40.649Z</time></trkpt><trkpt lat="45.4948782" lon="10.4806057"><ele>252.0</ele><time>2026-04-18T10:00:42.649Z</time></trkpt><trkpt lat="45.4949424" lon="10.4805621"><ele>252.0</ele><time>2026-04-18T10:00:43.649Z</time></trkpt><trkpt lat="45.494999" lon="10.4804966"><ele>252.0</ele><time>2026-04-18T10:00:44.648Z</time></trkpt><trkpt lat="45.4950525" lon="10.480417"><ele>252.0</ele><time>2026-04-18T10:00:45.649Z</time></trkpt><trkpt lat="45.495101" lon="10.4803364"><ele>252.0</ele><time>2026-04-18T10:00:46.648Z</time></trkpt><trkpt lat="45.4951596" lon="10.480248"><ele>252.0</ele><time>2026-04-18T10:00:47.649Z</time></trkpt><trkpt lat="45.4952181" lon="10.480147"><ele>249.39999999999998</ele><time>2026-04-18T10:00:48.648Z</time></trkpt><trkpt lat="45.4952821" lon="10.4800353"><ele>246.79999999999998</ele><time>2026-04-18T10:00:49.648Z</time></trkpt><trkpt lat="45.4953433" lon="10.479948"><ele>244.2</ele><time>2026-04-18T10:00:50.65Z</time></trkpt><trkpt lat="45.4954124" lon="10.4798629"><ele>241.6</ele><time>2026-04-18T10:00:51.65Z</time></trkpt><trkpt lat="45.4954816" lon="10.4797781"><ele>239.0</ele><time>2026-04-18T10:00:52.649Z</time></trkpt><trkpt lat="45.4955654" lon="10.4796933"><ele>236.79999999999998</ele><time>2026-04-18T10:00:53.649Z</time></trkpt><trkpt lat="45.4956381" lon="10.4795983"><ele>234.59999999999997</ele><time>2026-04-18T10:00:54.648Z</time></trkpt><trkpt lat="45.4957019" lon="10.4795051"><ele>232.4</ele><time>2026-04-18T10:00:55.649Z</time></trkpt><trkpt lat="45.4957613" lon="10.4793865"><ele>230.2</ele><time>2026-04-18T10:00:56.649Z</time></trkpt><trkpt lat="45.4958228" lon="10.4792822"><ele>228.0</ele><time>2026-04-18T10:00:57.648Z</time></trkpt><trkpt lat="45.4958732" lon="10.4791875"><ele>228.0</ele><time>2026-04-18T10:00:58.648Z</time></trkpt><trkpt lat="45.4959112" lon="10.4790814"><ele>228.0</ele><time>2026-04-18T10:00:59.648Z</time></trkpt><trkpt lat="45.4959497" lon="10.4789684"><ele>228.0</ele><time>2026-04-18T10:01:00.648Z</time></trkpt><trkpt lat="45.4959576" lon="10.478828"><ele>228.0</ele><time>2026-04-18T10:01:01.649Z</time></trkpt><trkpt lat="45.4959684" lon="10.4786856"><ele>228.0</ele><time>2026-04-18T10:01:02.648Z</time></trkpt><trkpt lat="45.4959834" lon="10.4785516"><ele>227.33333333333334</ele><time>2026-04-18T10:01:03.649Z</time></trkpt><trkpt lat="45.4960014" lon="10.4784258"><ele>226.66666666666669</ele><time>2026-04-18T10:01:04.648Z</time></trkpt><trkpt lat="45.4960209" lon="10.4782978"><ele>226.0</ele><time>2026-04-18T10:01:05.648Z</time></trkpt><trkpt lat="45.4960695" lon="10.4781987"><ele>225.33333333333334</ele><time>2026-04-18T10:01:07.649Z</time></trkpt><trkpt lat="45.496146" lon="10.4781462"><ele>224.66666666666669</ele><time>2026-04-18T10:01:11.648Z</time></trkpt><trkpt lat="45.4962031" lon="10.4780701"><ele>224.0</ele><time>2026-04-18T10:01:13.648Z</time></trkpt><trkpt lat="45.4962675" lon="10.4780263"><ele>224.00000000000003</ele><time>2026-04-18T10:01:15.648Z</time></trkpt><trkpt lat="45.4963403" lon="10.4779801"><ele>224.0</ele><time>2026-04-18T10:01:17.648Z</time></trkpt><trkpt lat="45.4964446" lon="10.477967"><ele>224.0</ele><time>2026-04-18T10:01:19.648Z</time></trkpt><trkpt lat="45.4965086" lon="10.4779764"><ele>224.0</ele><time>2026-04-18T10:01:21.648Z</time></trkpt><trkpt lat="45.4965793" lon="10.4780045"><ele>224.00000000000003</ele><time>2026-04-18T10:01:23.649Z</time></trkpt><trkpt lat="45.4966472" lon="10.4780285"><ele>224.0</ele><time>2026-04-18T10:01:25.649Z</time></trkpt><trkpt lat="45.4967199" lon="10.4780594"><ele>224.0</ele><time>2026-04-18T10:01:27.649Z</time></trkpt><trkpt lat="45.4968111" lon="10.4780836"><ele>223.99999999999997</ele><time>2026-04-18T10:01:29.647Z</time></trkpt><trkpt lat="45.4968963" lon="10.4781284"><ele>223.99999999999997</ele><time>2026-04-18T10:01:31.648Z</time></trkpt><trkpt lat="45.4969931" lon="10.4782026"><ele>224.0</ele><time>2026-04-18T10:01:33.648Z</time></trkpt><trkpt lat="45.4970914" lon="10.4782557"><ele>224.0</ele><time>2026-04-18T10:01:35.649Z</time></trkpt><trkpt lat="45.4971956" lon="10.4782985"><ele>223.83333333333334</ele><time>2026-04-18T10:01:37.649Z</time></trkpt><trkpt lat="45.4972843" lon="10.4783247"><ele>223.66666666666669</ele><time>2026-04-18T10:01:39.649Z</time></trkpt><trkpt lat="45.4973556" lon="10.4783567"><ele>223.5</ele><time>2026-04-18T10:01:41.648Z</time></trkpt><trkpt lat="45.4974187" lon="10.4783531"><ele>223.33333333333331</ele><time>2026-04-18T10:01:43.649Z</time></trkpt><trkpt lat="45.4974792" lon="10.4783977"><ele>223.16666666666666</ele><time>2026-04-18T10:01:45.649Z</time></trkpt><trkpt lat="45.4975733" lon="10.4784428"><ele>223.0</ele><time>2026-04-18T10:01:47.648Z</time></trkpt><trkpt lat="45.4976485" lon="10.4784605"><ele>223.0</ele><time>2026-04-18T10:01:48.648Z</time></trkpt><trkpt lat="45.4977502" lon="10.4784529"><ele>223.0</ele><time>2026-04-18T10:01:49.648Z</time></trkpt><trkpt lat="45.4978322" lon="10.4784529"><ele>223.0</ele><time>2026-04-18T10:01:50.648Z</time></trkpt><trkpt lat="45.4979253" lon="10.4784324"><ele>223.0</ele><time>2026-04-18T10:01:51.648Z</time></trkpt><trkpt lat="45.4980065" lon="10.4783891"><ele>223.0</ele><time>2026-04-18T10:01:52.648Z</time></trkpt><trkpt lat="45.4980942" lon="10.4783325"><ele>223.16666666666666</ele><time>2026-04-18T10:01:53.648Z</time></trkpt><trkpt lat="45.4981743" lon="10.4782866"><ele>223.33333333333331</ele><time>2026-04-18T10:01:54.648Z</time></trkpt><trkpt lat="45.4982516" lon="10.4782451"><ele>223.5</ele><time>2026-04-18T10:01:55.649Z</time></trkpt><trkpt lat="45.4983174" lon="10.4781838"><ele>223.66666666666669</ele><time>2026-04-18T10:01:56.648Z</time></trkpt><trkpt lat="45.4983914" lon="10.4781206"><ele>223.83333333333334</ele><time>2026-04-18T10:01:57.648Z</time></trkpt><trkpt lat="45.4984542" lon="10.4780447"><ele>224.0</ele><time>2026-04-18T10:01:58.648Z</time></trkpt><trkpt lat="45.4985111" lon="10.4779579"><ele>222.25</ele><time>2026-04-18T10:01:59.648Z</time></trkpt><trkpt lat="45.4985668" lon="10.4778429"><ele>220.5</ele><time>2026-04-18T10:02:00.649Z</time></trkpt><trkpt lat="45.4986106" lon="10.4777198"><ele>218.75</ele><time>2026-04-18T10:02:01.648Z</time></trkpt><trkpt lat="45.4986676" lon="10.4774646"><ele>217.0</ele><time>2026-04-18T10:02:03.648Z</time></trkpt><trkpt lat="45.4986918" lon="10.4773332"><ele>216.99999999999997</ele><time>2026-04-18T10:02:04.648Z</time></trkpt><trkpt lat="45.498713" lon="10.4772027"><ele>217.0</ele><time>2026-04-18T10:02:05.647Z</time></trkpt><trkpt lat="45.4987361" lon="10.4770875"><ele>217.0</ele><time>2026-04-18T10:02:06.647Z</time></trkpt><trkpt lat="45.4987548" lon="10.4769725"><ele>217.0</ele><time>2026-04-18T10:02:07.648Z</time></trkpt><trkpt lat="45.4987712" lon="10.4768615"><ele>216.99999999999997</ele><time>2026-04-18T10:02:08.649Z</time></trkpt><trkpt lat="45.4987836" lon="10.4767592"><ele>217.0</ele><time>2026-04-18T10:02:09.65Z</time></trkpt><trkpt lat="45.498802" lon="10.4766562"><ele>216.49999999999997</ele><time>2026-04-18T10:02:10.649Z</time></trkpt><trkpt lat="45.4988256" lon="10.4765451"><ele>216.0</ele><time>2026-04-18T10:02:11.649Z</time></trkpt><trkpt lat="45.4988529" lon="10.4764325"><ele>215.5</ele><time>2026-04-18T10:02:12.648Z</time></trkpt><trkpt lat="45.4988702" lon="10.4763126"><ele>215.0</ele><time>2026-04-18T10:02:13.648Z</time></trkpt><trkpt lat="45.4988809" lon="10.4761796"><ele>214.49999999999997</ele><time>2026-04-18T10:02:14.647Z</time></trkpt><trkpt lat="45.4988866" lon="10.4760469"><ele>214.0</ele><time>2026-04-18T10:02:15.648Z</time></trkpt><trkpt lat="45.4988907" lon="10.4758954"><ele>213.2</ele><time>2026-04-18T10:02:16.649Z</time></trkpt><trkpt lat="45.4988971" lon="10.4757566"><ele>212.39999999999998</ele><time>2026-04-18T10:02:17.649Z</time></trkpt><trkpt lat="45.4989054" lon="10.4756111"><ele>211.6</ele><time>2026-04-18T10:02:18.648Z</time></trkpt><trkpt lat="45.498918" lon="10.4754623"><ele>210.8</ele><time>2026-04-18T10:02:19.65Z</time></trkpt><trkpt lat="45.498926" lon="10.4753105"><ele>210.0</ele><time>2026-04-18T10:02:20.648Z</time></trkpt><trkpt lat="45.4989321" lon="10.4751588"><ele>208.8</ele><time>2026-04-18T10:02:21.647Z</time></trkpt><trkpt lat="45.4989417" lon="10.4750041"><ele>207.6</ele><time>2026-04-18T10:02:22.649Z</time></trkpt><trkpt lat="45.498955" lon="10.4748591"><ele>206.39999999999998</ele><time>2026-04-18T10:02:23.648Z</time></trkpt><trkpt lat="45.4989635" lon="10.4747105"><ele>205.2</ele><time>2026-04-18T10:02:24.648Z</time></trkpt><trkpt lat="45.4989707" lon="10.4745616"><ele>204.0</ele><time>2026-04-18T10:02:25.649Z</time></trkpt><trkpt lat="45.4989792" lon="10.4744123"><ele>203.6</ele><time>2026-04-18T10:02:26.648Z</time></trkpt><trkpt lat="45.4989905" lon="10.4742612"><ele>203.2</ele><time>2026-04-18T10:02:27.647Z</time></trkpt><trkpt lat="45.4990009" lon="10.4741085"><ele>202.79999999999998</ele><time>2026-04-18T10:02:28.648Z</time></trkpt><trkpt lat="45.4990088" lon="10.4739512"><ele>202.39999999999998</ele><time>2026-04-18T10:02:29.649Z</time></trkpt><trkpt lat="45.4990166" lon="10.4737997"><ele>202.0</ele><time>2026-04-18T10:02:30.648Z</time></trkpt><trkpt lat="45.4990233" lon="10.4736422"><ele>201.6</ele><time>2026-04-18T10:02:31.648Z</time></trkpt><trkpt lat="45.4990332" lon="10.4734882"><ele>201.2</ele><time>2026-04-18T10:02:32.648Z</time></trkpt><trkpt lat="45.4990402" lon="10.4733313"><ele>200.8</ele><time>2026-04-18T10:02:33.648Z</time></trkpt><trkpt lat="45.4990449" lon="10.473179"><ele>200.4</ele><time>2026-04-18T10:02:34.649Z</time></trkpt><trkpt lat="45.4990507" lon="10.4730473"><ele>200.0</ele><time>2026-04-18T10:02:35.648Z</time></trkpt><trkpt lat="45.4990552" lon="10.4729165"><ele>199.8</ele><time>2026-04-18T10:02:36.647Z</time></trkpt><trkpt lat="45.4990527" lon="10.472817"><ele>199.6</ele><time>2026-04-18T10:02:37.649Z</time></trkpt><trkpt lat="45.4990474" lon="10.4726665"><ele>199.39999999999998</ele><time>2026-04-18T10:02:39.648Z</time></trkpt><trkpt lat="45.4991011" lon="10.4725769"><ele>199.2</ele><time>2026-04-18T10:02:42.648Z</time></trkpt><trkpt lat="45.499191" lon="10.4725914"><ele>199.0</ele><time>2026-04-18T10:02:44.649Z</time></trkpt><trkpt lat="45.4993136" lon="10.4726521"><ele>198.99999999999997</ele><time>2026-04-18T10:02:46.648Z</time></trkpt><trkpt lat="45.4993879" lon="10.4726808"><ele>199.0</ele><time>2026-04-18T10:02:47.647Z</time></trkpt><trkpt lat="45.4994643" lon="10.4727066"><ele>199.0</ele><time>2026-04-18T10:02:48.648Z</time></trkpt><trkpt lat="45.4995408" lon="10.4727298"><ele>199.0</ele><time>2026-04-18T10:02:49.649Z</time></trkpt><trkpt lat="45.4996156" lon="10.4727641"><ele>198.99999999999997</ele><time>2026-04-18T10:02:50.649Z</time></trkpt><trkpt lat="45.499697" lon="10.4727869"><ele>199.0</ele><time>2026-04-18T10:02:51.648Z</time></trkpt><trkpt lat="45.4997853" lon="10.47281"><ele>199.6</ele><time>2026-04-18T10:02:52.648Z</time></trkpt><trkpt lat="45.4998726" lon="10.472834"><ele>200.2</ele><time>2026-04-18T10:02:53.648Z</time></trkpt><trkpt lat="45.499958" lon="10.4728643"><ele>200.79999999999998</ele><time>2026-04-18T10:02:54.649Z</time></trkpt><trkpt lat="45.500047" lon="10.4728939"><ele>201.39999999999998</ele><time>2026-04-18T10:02:55.647Z</time></trkpt><trkpt lat="45.5001409" lon="10.4729212"><ele>202.0</ele><time>2026-04-18T10:02:56.648Z</time></trkpt><trkpt lat="45.5002353" lon="10.4729411"><ele>202.0</ele><time>2026-04-18T10:02:57.647Z</time></trkpt><trkpt lat="45.5003262" lon="10.4729678"><ele>202.0</ele><time>2026-04-18T10:02:58.649Z</time></trkpt><trkpt lat="45.5004181" lon="10.4729952"><ele>202.0</ele><time>2026-04-18T10:02:59.648Z</time></trkpt><trkpt lat="45.5005062" lon="10.4730328"><ele>202.0</ele><time>2026-04-18T10:03:00.647Z</time></trkpt><trkpt lat="45.5005986" lon="10.4730623"><ele>202.0</ele><time>2026-04-18T10:03:01.648Z</time></trkpt><trkpt lat="45.5006781" lon="10.4731007"><ele>203.75</ele><time>2026-04-18T10:03:02.649Z</time></trkpt><trkpt lat="45.5008" lon="10.473146"><ele>205.5</ele><time>2026-04-18T10:03:04.648Z</time></trkpt><trkpt lat="45.5009079" lon="10.4732109"><ele>207.25</ele><time>2026-04-18T10:03:06.647Z</time></trkpt><trkpt lat="45.5008535" lon="10.4733954"><ele>209.0</ele><time>2026-04-18T10:03:08.647Z</time></trkpt><trkpt lat="45.5008508" lon="10.4734963"><ele>209.00000000000003</ele><time>2026-04-18T10:03:09.649Z</time></trkpt><trkpt lat="45.5008832" lon="10.4736108"><ele>209.0</ele><time>2026-04-18T10:03:10.648Z</time></trkpt><trkpt lat="45.5009179" lon="10.4737179"><ele>209.0</ele><time>2026-04-18T10:03:11.647Z</time></trkpt><trkpt lat="45.500973" lon="10.4738115"><ele>209.0</ele><time>2026-04-18T10:03:12.648Z</time></trkpt><trkpt lat="45.5010324" lon="10.47394"><ele>209.00000000000003</ele><time>2026-04-18T10:03:13.649Z</time></trkpt><trkpt lat="45.5010763" lon="10.4740354"><ele>209.0</ele><time>2026-04-18T10:03:14.647Z</time></trkpt><trkpt lat="45.5011264" lon="10.474116"><ele>208.79999999999998</ele><time>2026-04-18T10:03:15.647Z</time></trkpt><trkpt lat="45.5011825" lon="10.4741806"><ele>208.6</ele><time>2026-04-18T10:03:16.647Z</time></trkpt><trkpt lat="45.5012828" lon="10.4741592"><ele>208.4</ele><time>2026-04-18T10:03:18.649Z</time></trkpt><trkpt lat="45.5013649" lon="10.4740857"><ele>208.2</ele><time>2026-04-18T10:03:20.647Z</time></trkpt><trkpt lat="45.5014497" lon="10.4740491"><ele>208.0</ele><time>2026-04-18T10:03:22.649Z</time></trkpt><trkpt lat="45.501537" lon="10.4741354"><ele>208.33333333333331</ele><time>2026-04-18T10:03:24.648Z</time></trkpt><trkpt lat="45.5016376" lon="10.4742181"><ele>208.66666666666666</ele><time>2026-04-18T10:03:26.648Z</time></trkpt><trkpt lat="45.5016953" lon="10.4742711"><ele>209.0</ele><time>2026-04-18T10:03:27.648Z</time></trkpt><trkpt lat="45.5017474" lon="10.4743228"><ele>209.33333333333331</ele><time>2026-04-18T10:03:28.649Z</time></trkpt><trkpt lat="45.5018112" lon="10.4743788"><ele>209.66666666666666</ele><time>2026-04-18T10:03:29.648Z</time></trkpt><trkpt lat="45.5018767" lon="10.4744279"><ele>210.0</ele><time>2026-04-18T10:03:30.648Z</time></trkpt><trkpt lat="45.5019412" lon="10.4744688"><ele>210.0</ele><time>2026-04-18T10:03:31.646Z</time></trkpt><trkpt lat="45.5020151" lon="10.4745081"><ele>210.0</ele><time>2026-04-18T10:03:32.649Z</time></trkpt><trkpt lat="45.5020767" lon="10.4745505"><ele>210.0</ele><time>2026-04-18T10:03:33.648Z</time></trkpt><trkpt lat="45.5021481" lon="10.4745923"><ele>210.0</ele><time>2026-04-18T10:03:34.648Z</time></trkpt><trkpt lat="45.502224" lon="10.4746358"><ele>210.0</ele><time>2026-04-18T10:03:35.648Z</time></trkpt><trkpt lat="45.502309" lon="10.4746492"><ele>210.0</ele><time>2026-04-18T10:03:36.647Z</time></trkpt><trkpt lat="45.5023876" lon="10.4746783"><ele>209.83333333333334</ele><time>2026-04-18T10:03:37.648Z</time></trkpt><trkpt lat="45.5024714" lon="10.4746846"><ele>209.66666666666669</ele><time>2026-04-18T10:03:38.649Z</time></trkpt><trkpt lat="45.5025528" lon="10.4746593"><ele>209.5</ele><time>2026-04-18T10:03:39.648Z</time></trkpt><trkpt lat="45.502619" lon="10.4746357"><ele>209.33333333333334</ele><time>2026-04-18T10:03:40.648Z</time></trkpt><trkpt lat="45.5026949" lon="10.4745898"><ele>209.16666666666669</ele><time>2026-04-18T10:03:41.648Z</time></trkpt><trkpt lat="45.5027719" lon="10.4745277"><ele>209.0</ele><time>2026-04-18T10:03:42.648Z</time></trkpt><trkpt lat="45.5028435" lon="10.4744739"><ele>208.83333333333334</ele><time>2026-04-18T10:03:43.648Z</time></trkpt><trkpt lat="45.5029128" lon="10.4744198"><ele>208.66666666666669</ele><time>2026-04-18T10:03:44.648Z</time></trkpt><trkpt lat="45.5029849" lon="10.4743571"><ele>208.5</ele><time>2026-04-18T10:03:45.65Z</time></trkpt><trkpt lat="45.503056" lon="10.4742969"><ele>208.33333333333331</ele><time>2026-04-18T10:03:46.648Z</time></trkpt><trkpt lat="45.5031302" lon="10.4742322"><ele>208.16666666666666</ele><time>2026-04-18T10:03:47.649Z</time></trkpt><trkpt lat="45.5032038" lon="10.4741742"><ele>208.0</ele><time>2026-04-18T10:03:48.649Z</time></trkpt><trkpt lat="45.5032779" lon="10.4741211"><ele>208.33333333333331</ele><time>2026-04-18T10:03:49.646Z</time></trkpt><trkpt lat="45.5033572" lon="10.4740794"><ele>208.66666666666666</ele><time>2026-04-18T10:03:50.648Z</time></trkpt><trkpt lat="45.5034424" lon="10.4740455"><ele>209.0</ele><time>2026-04-18T10:03:51.647Z</time></trkpt><trkpt lat="45.50353" lon="10.4740222"><ele>209.33333333333331</ele><time>2026-04-18T10:03:52.648Z</time></trkpt><trkpt lat="45.5036126" lon="10.4740066"><ele>209.66666666666666</ele><time>2026-04-18T10:03:53.647Z</time></trkpt><trkpt lat="45.5036955" lon="10.4740098"><ele>210.0</ele><time>2026-04-18T10:03:54.648Z</time></trkpt><trkpt lat="45.5037801" lon="10.474019"><ele>209.0</ele><time>2026-04-18T10:03:55.647Z</time></trkpt><trkpt lat="45.503864" lon="10.4740188"><ele>208.0</ele><time>2026-04-18T10:03:56.647Z</time></trkpt><trkpt lat="45.5039584" lon="10.4740254"><ele>207.0</ele><time>2026-04-18T10:03:57.648Z</time></trkpt><trkpt lat="45.5040713" lon="10.4740505"><ele>206.0</ele><time>2026-04-18T10:03:58.648Z</time></trkpt><trkpt lat="45.504174" lon="10.4740664"><ele>205.0</ele><time>2026-04-18T10:03:59.649Z</time></trkpt><trkpt lat="45.5042781" lon="10.4740796"><ele>205.0</ele><time>2026-04-18T10:04:00.647Z</time></trkpt><trkpt lat="45.5043903" lon="10.4740632"><ele>205.0</ele><time>2026-04-18T10:04:01.649Z</time></trkpt><trkpt lat="45.5044974" lon="10.4740412"><ele>205.0</ele><time>2026-04-18T10:04:02.647Z</time></trkpt><trkpt lat="45.5046033" lon="10.4740237"><ele>205.0</ele><time>2026-04-18T10:04:03.648Z</time></trkpt><trkpt lat="45.5046976" lon="10.473981"><ele>205.0</ele><time>2026-04-18T10:04:04.649Z</time></trkpt><trkpt lat="45.5048166" lon="10.4738482"><ele>202.5</ele><time>2026-04-18T10:04:05.648Z</time></trkpt><trkpt lat="45.5049284" lon="10.4737601"><ele>200.0</ele><time>2026-04-18T10:04:06.646Z</time></trkpt><trkpt lat="45.5050049" lon="10.4736148"><ele>197.5</ele><time>2026-04-18T10:04:07.649Z</time></trkpt><trkpt lat="45.5051056" lon="10.4735002"><ele>195.0</ele><time>2026-04-18T10:04:08.648Z</time></trkpt><trkpt lat="45.5052027" lon="10.4733864"><ele>195.0</ele><time>2026-04-18T10:04:09.647Z</time></trkpt><trkpt lat="45.5052724" lon="10.4732577"><ele>195.0</ele><time>2026-04-18T10:04:10.649Z</time></trkpt><trkpt lat="45.5053265" lon="10.4731632"><ele>195.0</ele><time>2026-04-18T10:04:11.648Z</time></trkpt><trkpt lat="45.5053758" lon="10.4730878"><ele>195.0</ele><time>2026-04-18T10:04:12.647Z</time></trkpt><trkpt lat="45.5054684" lon="10.4729846"><ele>195.0</ele><time>2026-04-18T10:04:14.647Z</time></trkpt><trkpt lat="45.5055565" lon="10.4730921"><ele>194.8</ele><time>2026-04-18T10:04:16.646Z</time></trkpt><trkpt lat="45.5056334" lon="10.4732526"><ele>194.6</ele><time>2026-04-18T10:04:18.649Z</time></trkpt><trkpt lat="45.5056665" lon="10.4733654"><ele>194.39999999999998</ele><time>2026-04-18T10:04:19.647Z</time></trkpt><trkpt lat="45.5056891" lon="10.4734954"><ele>194.2</ele><time>2026-04-18T10:04:20.647Z</time></trkpt><trkpt lat="45.5057169" lon="10.4736229"><ele>194.0</ele><time>2026-04-18T10:04:21.647Z</time></trkpt><trkpt lat="45.5057391" lon="10.4737549"><ele>194.0</ele><time>2026-04-18T10:04:22.647Z</time></trkpt><trkpt lat="45.5057633" lon="10.4738842"><ele>194.0</ele><time>2026-04-18T10:04:23.647Z</time></trkpt><trkpt lat="45.5057813" lon="10.4740187"><ele>194.0</ele><time>2026-04-18T10:04:24.647Z</time></trkpt><trkpt lat="45.5057959" lon="10.4741524"><ele>194.0</ele><time>2026-04-18T10:04:25.649Z</time></trkpt><trkpt lat="45.5058167" lon="10.4742798"><ele>194.0</ele><time>2026-04-18T10:04:26.649Z</time></trkpt><trkpt lat="45.5058556" lon="10.4743921"><ele>194.00000000000003</ele><time>2026-04-18T10:04:27.647Z</time></trkpt><trkpt lat="45.5058992" lon="10.4745055"><ele>194.0</ele><time>2026-04-18T10:04:28.648Z</time></trkpt><trkpt lat="45.5059694" lon="10.4745859"><ele>194.0</ele><time>2026-04-18T10:04:29.648Z</time></trkpt><trkpt lat="45.5060421" lon="10.4746593"><ele>194.0</ele><time>2026-04-18T10:04:30.649Z</time></trkpt><trkpt lat="45.506101" lon="10.4747282"><ele>194.00000000000003</ele><time>2026-04-18T10:04:31.647Z</time></trkpt><trkpt lat="45.5061556" lon="10.4747963"><ele>194.0</ele><time>2026-04-18T10:04:32.649Z</time></trkpt><trkpt lat="45.5062039" lon="10.4749377"><ele>194.16666666666669</ele><time>2026-04-18T10:04:34.649Z</time></trkpt><trkpt lat="45.5061895" lon="10.4750346"><ele>194.33333333333334</ele><time>2026-04-18T10:04:35.649Z</time></trkpt><trkpt lat="45.5061635" lon="10.4751404"><ele>194.5</ele><time>2026-04-18T10:04:36.649Z</time></trkpt><trkpt lat="45.5061401" lon="10.4752432"><ele>194.66666666666669</ele><time>2026-04-18T10:04:37.646Z</time></trkpt><trkpt lat="45.5061156" lon="10.4753533"><ele>194.83333333333334</ele><time>2026-04-18T10:04:38.65Z</time></trkpt><trkpt lat="45.5060935" lon="10.4754663"><ele>195.0</ele><time>2026-04-18T10:04:39.647Z</time></trkpt><trkpt lat="45.5060695" lon="10.4755718"><ele>195.83333333333334</ele><time>2026-04-18T10:04:40.649Z</time></trkpt><trkpt lat="45.5060495" lon="10.4756823"><ele>196.66666666666669</ele><time>2026-04-18T10:04:41.648Z</time></trkpt><trkpt lat="45.5060357" lon="10.4758017"><ele>197.5</ele><time>2026-04-18T10:04:42.648Z</time></trkpt><trkpt lat="45.5060229" lon="10.4759196"><ele>198.33333333333334</ele><time>2026-04-18T10:04:43.648Z</time></trkpt><trkpt lat="45.5060102" lon="10.476034"><ele>199.16666666666669</ele><time>2026-04-18T10:04:44.648Z</time></trkpt><trkpt lat="45.506011" lon="10.4761468"><ele>200.0</ele><time>2026-04-18T10:04:45.648Z</time></trkpt><trkpt lat="45.50601" lon="10.4762662"><ele>200.83333333333334</ele><time>2026-04-18T10:04:46.647Z</time></trkpt><trkpt lat="45.5060098" lon="10.4763856"><ele>201.66666666666669</ele><time>2026-04-18T10:04:47.647Z</time></trkpt><trkpt lat="45.5060178" lon="10.47651"><ele>202.5</ele><time>2026-04-18T10:04:48.648Z</time></trkpt><trkpt lat="45.5060278" lon="10.4766305"><ele>203.33333333333331</ele><time>2026-04-18T10:04:49.647Z</time></trkpt><trkpt lat="45.5060383" lon="10.4767497"><ele>204.16666666666666</ele><time>2026-04-18T10:04:50.648Z</time></trkpt><trkpt lat="45.5060472" lon="10.476873"><ele>205.0</ele><time>2026-04-18T10:04:51.648Z</time></trkpt><trkpt lat="45.5060533" lon="10.4769996"><ele>206.0</ele><time>2026-04-18T10:04:52.649Z</time></trkpt><trkpt lat="45.5060516" lon="10.477123"><ele>207.0</ele><time>2026-04-18T10:04:53.648Z</time></trkpt><trkpt lat="45.5060494" lon="10.477246"><ele>208.0</ele><time>2026-04-18T10:04:54.647Z</time></trkpt><trkpt lat="45.5060439" lon="10.4773735"><ele>209.0</ele><time>2026-04-18T10:04:55.649Z</time></trkpt><trkpt lat="45.5060352" lon="10.4775058"><ele>210.0</ele><time>2026-04-18T10:04:56.647Z</time></trkpt><trkpt lat="45.5060166" lon="10.4776394"><ele>210.0</ele><time>2026-04-18T10:04:57.646Z</time></trkpt><trkpt lat="45.5059897" lon="10.4777741"><ele>210.0</ele><time>2026-04-18T10:04:58.648Z</time></trkpt><trkpt lat="45.5059581" lon="10.4778962"><ele>210.0</ele><time>2026-04-18T10:04:59.648Z</time></trkpt><trkpt lat="45.5059183" lon="10.4780152"><ele>210.0</ele><time>2026-04-18T10:05:00.648Z</time></trkpt><trkpt lat="45.5058726" lon="10.4781311"><ele>210.0</ele><time>2026-04-18T10:05:01.648Z</time></trkpt><trkpt lat="45.5058281" lon="10.4782385"><ele>209.66666666666666</ele><time>2026-04-18T10:05:02.647Z</time></trkpt><trkpt lat="45.5057685" lon="10.4783409"><ele>209.33333333333331</ele><time>2026-04-18T10:05:03.648Z</time></trkpt><trkpt lat="45.5057096" lon="10.4784422"><ele>209.0</ele><time>2026-04-18T10:05:04.647Z</time></trkpt><trkpt lat="45.5056567" lon="10.4785322"><ele>208.66666666666666</ele><time>2026-04-18T10:05:05.648Z</time></trkpt><trkpt lat="45.5056176" lon="10.4786081"><ele>208.33333333333331</ele><time>2026-04-18T10:05:06.647Z</time></trkpt><trkpt lat="45.5055787" lon="10.4787448"><ele>208.0</ele><time>2026-04-18T10:05:08.646Z</time></trkpt><trkpt lat="45.5056875" lon="10.4788204"><ele>208.8</ele><time>2026-04-18T10:05:10.648Z</time></trkpt><trkpt lat="45.5057525" lon="10.4788574"><ele>209.60000000000002</ele><time>2026-04-18T10:05:11.648Z</time></trkpt><trkpt lat="45.5058235" lon="10.478905"><ele>210.39999999999998</ele><time>2026-04-18T10:05:12.647Z</time></trkpt><trkpt lat="45.5058929" lon="10.4789527"><ele>211.2</ele><time>2026-04-18T10:05:13.648Z</time></trkpt><trkpt lat="45.5059966" lon="10.4789899"><ele>212.0</ele><time>2026-04-18T10:05:14.647Z</time></trkpt><trkpt lat="45.5061295" lon="10.4790402"><ele>212.0</ele><time>2026-04-18T10:05:15.649Z</time></trkpt><trkpt lat="45.506239" lon="10.4790657"><ele>212.0</ele><time>2026-04-18T10:05:16.647Z</time></trkpt><trkpt lat="45.5063381" lon="10.479123"><ele>212.0</ele><time>2026-04-18T10:05:17.646Z</time></trkpt><trkpt lat="45.506446" lon="10.4791607"><ele>212.0</ele><time>2026-04-18T10:05:18.646Z</time></trkpt><trkpt lat="45.5065518" lon="10.4791991"><ele>212.0</ele><time>2026-04-18T10:05:19.648Z</time></trkpt><trkpt lat="45.5066583" lon="10.4792459"><ele>212.2</ele><time>2026-04-18T10:05:20.649Z</time></trkpt><trkpt lat="45.5067537" lon="10.4793052"><ele>212.39999999999998</ele><time>2026-04-18T10:05:21.648Z</time></trkpt><trkpt lat="45.5068546" lon="10.4793578"><ele>212.60000000000002</ele><time>2026-04-18T10:05:22.647Z</time></trkpt><trkpt lat="45.5069527" lon="10.47941"><ele>212.8</ele><time>2026-04-18T10:05:23.648Z</time></trkpt><trkpt lat="45.5070555" lon="10.479454"><ele>213.0</ele><time>2026-04-18T10:05:24.648Z</time></trkpt><trkpt lat="45.5071587" lon="10.4794758"><ele>213.0</ele><time>2026-04-18T10:05:25.648Z</time></trkpt><trkpt lat="45.5072608" lon="10.4794958"><ele>213.0</ele><time>2026-04-18T10:05:26.648Z</time></trkpt><trkpt lat="45.5073626" lon="10.4795026"><ele>213.0</ele><time>2026-04-18T10:05:27.648Z</time></trkpt><trkpt lat="45.5074628" lon="10.479509"><ele>213.0</ele><time>2026-04-18T10:05:28.647Z</time></trkpt><trkpt lat="45.5075657" lon="10.4795212"><ele>213.0</ele><time>2026-04-18T10:05:29.648Z</time></trkpt><trkpt lat="45.5076681" lon="10.4795435"><ele>213.2</ele><time>2026-04-18T10:05:30.648Z</time></trkpt><trkpt lat="45.5077255" lon="10.479625"><ele>213.4</ele><time>2026-04-18T10:05:31.649Z</time></trkpt><trkpt lat="45.5078036" lon="10.479673"><ele>213.59999999999997</ele><time>2026-04-18T10:05:32.648Z</time></trkpt><trkpt lat="45.5079049" lon="10.4797169"><ele>213.79999999999998</ele><time>2026-04-18T10:05:34.646Z</time></trkpt><trkpt lat="45.5079739" lon="10.4797741"><ele>214.0</ele><time>2026-04-18T10:05:36.647Z</time></trkpt><trkpt lat="45.5080769" lon="10.4797537"><ele>214.57142857142858</ele><time>2026-04-18T10:05:38.648Z</time></trkpt><trkpt lat="45.5081458" lon="10.4797675"><ele>215.14285714285714</ele><time>2026-04-18T10:05:39.648Z</time></trkpt><trkpt lat="45.5082147" lon="10.4797999"><ele>215.71428571428572</ele><time>2026-04-18T10:05:40.648Z</time></trkpt><trkpt lat="45.5082861" lon="10.4798169"><ele>216.28571428571428</ele><time>2026-04-18T10:05:41.648Z</time></trkpt><trkpt lat="45.5083544" lon="10.4798314"><ele>216.85714285714286</ele><time>2026-04-18T10:05:42.648Z</time></trkpt><trkpt lat="45.5084405" lon="10.4798374"><ele>217.42857142857144</ele><time>2026-04-18T10:05:43.649Z</time></trkpt><trkpt lat="45.5085159" lon="10.4798459"><ele>218.0</ele><time>2026-04-18T10:05:44.649Z</time></trkpt><trkpt lat="45.5086068" lon="10.479876"><ele>218.0</ele><time>2026-04-18T10:05:45.647Z</time></trkpt><trkpt lat="45.508694" lon="10.4798929"><ele>218.0</ele><time>2026-04-18T10:05:46.647Z</time></trkpt><trkpt lat="45.5087855" lon="10.4799176"><ele>218.0</ele><time>2026-04-18T10:05:47.648Z</time></trkpt><trkpt lat="45.5088776" lon="10.4799301"><ele>218.0</ele><time>2026-04-18T10:05:48.648Z</time></trkpt><trkpt lat="45.508968" lon="10.4799498"><ele>218.0</ele><time>2026-04-18T10:05:49.646Z</time></trkpt><trkpt lat="45.509065" lon="10.4799639"><ele>218.33333333333334</ele><time>2026-04-18T10:05:50.647Z</time></trkpt><trkpt lat="45.5091531" lon="10.4799836"><ele>218.66666666666669</ele><time>2026-04-18T10:05:51.649Z</time></trkpt><trkpt lat="45.5092386" lon="10.4799916"><ele>219.0</ele><time>2026-04-18T10:05:52.648Z</time></trkpt><trkpt lat="45.5093247" lon="10.4799992"><ele>219.33333333333331</ele><time>2026-04-18T10:05:53.647Z</time></trkpt><trkpt lat="45.5094214" lon="10.480006"><ele>219.66666666666666</ele><time>2026-04-18T10:05:54.649Z</time></trkpt><trkpt lat="45.5095087" lon="10.4800127"><ele>220.0</ele><time>2026-04-18T10:05:55.649Z</time></trkpt><trkpt lat="45.5095872" lon="10.4800226"><ele>220.49999999999997</ele><time>2026-04-18T10:05:56.647Z</time></trkpt><trkpt lat="45.5096688" lon="10.4800414"><ele>221.0</ele><time>2026-04-18T10:05:57.648Z</time></trkpt><trkpt lat="45.5097478" lon="10.4800664"><ele>221.5</ele><time>2026-04-18T10:05:58.647Z</time></trkpt><trkpt lat="45.5098024" lon="10.480129"><ele>222.0</ele><time>2026-04-18T10:05:59.649Z</time></trkpt><trkpt lat="45.5098642" lon="10.4801967"><ele>222.49999999999997</ele><time>2026-04-18T10:06:00.647Z</time></trkpt><trkpt lat="45.509873" lon="10.4803228"><ele>223.0</ele><time>2026-04-18T10:06:01.649Z</time></trkpt><trkpt lat="45.5098976" lon="10.4804385"><ele>223.33333333333331</ele><time>2026-04-18T10:06:02.648Z</time></trkpt><trkpt lat="45.5099221" lon="10.4805419"><ele>223.66666666666666</ele><time>2026-04-18T10:06:03.648Z</time></trkpt><trkpt lat="45.5099504" lon="10.4806407"><ele>224.0</ele><time>2026-04-18T10:06:04.647Z</time></trkpt><trkpt lat="45.5099914" lon="10.4807108"><ele>224.33333333333331</ele><time>2026-04-18T10:06:05.647Z</time></trkpt><trkpt lat="45.5100931" lon="10.4807081"><ele>224.66666666666666</ele><time>2026-04-18T10:06:06.646Z</time></trkpt><trkpt lat="45.5101841" lon="10.4807159"><ele>225.0</ele><time>2026-04-18T10:06:07.647Z</time></trkpt><trkpt lat="45.5102662" lon="10.4807265"><ele>225.0</ele><time>2026-04-18T10:06:08.647Z</time></trkpt><trkpt lat="45.5103484" lon="10.4807388"><ele>225.0</ele><time>2026-04-18T10:06:09.649Z</time></trkpt><trkpt lat="45.5104339" lon="10.4807456"><ele>225.0</ele><time>2026-04-18T10:06:10.647Z</time></trkpt><trkpt lat="45.5105102" lon="10.480759"><ele>225.0</ele><time>2026-04-18T10:06:11.647Z</time></trkpt><trkpt lat="45.510598" lon="10.480775"><ele>225.0</ele><time>2026-04-18T10:06:12.647Z</time></trkpt><trkpt lat="45.5106841" lon="10.4807872"><ele>225.0</ele><time>2026-04-18T10:06:13.648Z</time></trkpt><trkpt lat="45.5107651" lon="10.4807974"><ele>225.33333333333334</ele><time>2026-04-18T10:06:14.648Z</time></trkpt><trkpt lat="45.5108327" lon="10.4808043"><ele>225.66666666666669</ele><time>2026-04-18T10:06:15.647Z</time></trkpt><trkpt lat="45.5108884" lon="10.4807399"><ele>226.0</ele><time>2026-04-18T10:06:17.648Z</time></trkpt><trkpt lat="45.5108774" lon="10.4806407"><ele>226.33333333333334</ele><time>2026-04-18T10:06:18.646Z</time></trkpt><trkpt lat="45.5108673" lon="10.4805374"><ele>226.66666666666669</ele><time>2026-04-18T10:06:19.648Z</time></trkpt><trkpt lat="45.5108236" lon="10.4803445"><ele>227.0</ele><time>2026-04-18T10:06:21.648Z</time></trkpt><trkpt lat="45.5108033" lon="10.4802365"><ele>225.66666666666669</ele><time>2026-04-18T10:06:22.647Z</time></trkpt><trkpt lat="45.5107874" lon="10.4801261"><ele>224.33333333333334</ele><time>2026-04-18T10:06:23.649Z</time></trkpt><trkpt lat="45.5107678" lon="10.4800132"><ele>223.0</ele><time>2026-04-18T10:06:24.646Z</time></trkpt><trkpt lat="45.5107504" lon="10.4798877"><ele>221.66666666666669</ele><time>2026-04-18T10:06:25.648Z</time></trkpt><trkpt lat="45.5107312" lon="10.4797719"><ele>220.33333333333334</ele><time>2026-04-18T10:06:26.647Z</time></trkpt><trkpt lat="45.5107118" lon="10.479659"><ele>219.0</ele><time>2026-04-18T10:06:27.648Z</time></trkpt><trkpt lat="45.5106972" lon="10.4795438"><ele>218.42857142857144</ele><time>2026-04-18T10:06:28.646Z</time></trkpt><trkpt lat="45.5106784" lon="10.4794355"><ele>217.85714285714283</ele><time>2026-04-18T10:06:29.648Z</time></trkpt><trkpt lat="45.5106677" lon="10.4793274"><ele>217.28571428571428</ele><time>2026-04-18T10:06:30.647Z</time></trkpt><trkpt lat="45.5106724" lon="10.4792334"><ele>216.71428571428572</ele><time>2026-04-18T10:06:31.649Z</time></trkpt><trkpt lat="45.510679" lon="10.4791381"><ele>216.14285714285717</ele><time>2026-04-18T10:06:32.647Z</time></trkpt><trkpt lat="45.5106886" lon="10.4790374"><ele>215.57142857142856</ele><time>2026-04-18T10:06:33.646Z</time></trkpt><trkpt lat="45.5106948" lon="10.4789221"><ele>215.0</ele><time>2026-04-18T10:06:34.65Z</time></trkpt><trkpt lat="45.5107062" lon="10.478817"><ele>214.16666666666669</ele><time>2026-04-18T10:06:35.646Z</time></trkpt><trkpt lat="45.5107286" lon="10.4787293"><ele>213.33333333333334</ele><time>2026-04-18T10:06:36.647Z</time></trkpt><trkpt lat="45.5107634" lon="10.4785881"><ele>212.5</ele><time>2026-04-18T10:06:38.649Z</time></trkpt><trkpt lat="45.5108148" lon="10.4785289"><ele>211.66666666666669</ele><time>2026-04-18T10:06:41.647Z</time></trkpt><trkpt lat="45.5109052" lon="10.4785215"><ele>210.83333333333334</ele><time>2026-04-18T10:06:44.648Z</time></trkpt><trkpt lat="45.5109786" lon="10.478501"><ele>210.0</ele><time>2026-04-18T10:06:46.648Z</time></trkpt><trkpt lat="45.5110644" lon="10.4784876"><ele>210.0</ele><time>2026-04-18T10:06:48.648Z</time></trkpt><trkpt lat="45.5111591" lon="10.4784947"><ele>210.0</ele><time>2026-04-18T10:06:50.648Z</time></trkpt><trkpt lat="45.5112424" lon="10.4785603"><ele>210.0</ele><time>2026-04-18T10:06:52.647Z</time></trkpt><trkpt lat="45.5112326" lon="10.4787091"><ele>210.0</ele><time>2026-04-18T10:06:54.647Z</time></trkpt><trkpt lat="45.511214" lon="10.4788015"><ele>210.0</ele><time>2026-04-18T10:06:55.646Z</time></trkpt><trkpt lat="45.5112069" lon="10.4789121"><ele>210.0</ele><time>2026-04-18T10:06:56.648Z</time></trkpt><trkpt lat="45.5112087" lon="10.4790223"><ele>210.83333333333334</ele><time>2026-04-18T10:06:57.648Z</time></trkpt><trkpt lat="45.5112114" lon="10.4791393"><ele>211.66666666666669</ele><time>2026-04-18T10:06:58.647Z</time></trkpt><trkpt lat="45.5112115" lon="10.4792573"><ele>212.5</ele><time>2026-04-18T10:06:59.647Z</time></trkpt><trkpt lat="45.51123" lon="10.4793851"><ele>213.33333333333334</ele><time>2026-04-18T10:07:00.647Z</time></trkpt><trkpt lat="45.5112426" lon="10.4795072"><ele>214.16666666666669</ele><time>2026-04-18T10:07:01.647Z</time></trkpt><trkpt lat="45.5112531" lon="10.4796317"><ele>215.0</ele><time>2026-04-18T10:07:02.647Z</time></trkpt><trkpt lat="45.5112961" lon="10.4798843"><ele>215.6</ele><time>2026-04-18T10:07:04.647Z</time></trkpt><trkpt lat="45.5113215" lon="10.479993"><ele>216.2</ele><time>2026-04-18T10:07:05.646Z</time></trkpt><trkpt lat="45.5113463" lon="10.4801197"><ele>216.8</ele><time>2026-04-18T10:07:06.647Z</time></trkpt><trkpt lat="45.5114039" lon="10.4802489"><ele>217.4</ele><time>2026-04-18T10:07:07.647Z</time></trkpt><trkpt lat="45.5114601" lon="10.4803625"><ele>218.0</ele><time>2026-04-18T10:07:08.648Z</time></trkpt><trkpt lat="45.5115168" lon="10.4804876"><ele>218.0</ele><time>2026-04-18T10:07:09.647Z</time></trkpt><trkpt lat="45.5115883" lon="10.4806084"><ele>218.0</ele><time>2026-04-18T10:07:10.647Z</time></trkpt><trkpt lat="45.5115982" lon="10.4807079"><ele>218.0</ele><time>2026-04-18T10:07:11.648Z</time></trkpt><trkpt lat="45.5116661" lon="10.4808005"><ele>218.0</ele><time>2026-04-18T10:07:12.648Z</time></trkpt><trkpt lat="45.5117322" lon="10.4809012"><ele>218.0</ele><time>2026-04-18T10:07:13.647Z</time></trkpt><trkpt lat="45.5117998" lon="10.4809944"><ele>218.0</ele><time>2026-04-18T10:07:14.647Z</time></trkpt><trkpt lat="45.5118677" lon="10.4810984"><ele>218.0</ele><time>2026-04-18T10:07:15.647Z</time></trkpt><trkpt lat="45.5119593" lon="10.4812064"><ele>218.0</ele><time>2026-04-18T10:07:16.647Z</time></trkpt><trkpt lat="45.5120687" lon="10.4812784"><ele>218.0</ele><time>2026-04-18T10:07:17.648Z</time></trkpt><trkpt lat="45.5121721" lon="10.481289"><ele>218.0</ele><time>2026-04-18T10:07:18.648Z</time></trkpt><trkpt lat="45.5122605" lon="10.481322"><ele>216.8</ele><time>2026-04-18T10:07:19.646Z</time></trkpt><trkpt lat="45.512369" lon="10.4813602"><ele>215.60000000000002</ele><time>2026-04-18T10:07:20.648Z</time></trkpt><trkpt lat="45.5124733" lon="10.481393"><ele>214.39999999999998</ele><time>2026-04-18T10:07:21.648Z</time></trkpt><trkpt lat="45.5125529" lon="10.4814358"><ele>213.2</ele><time>2026-04-18T10:07:22.647Z</time></trkpt><trkpt lat="45.5126466" lon="10.4814701"><ele>212.0</ele><time>2026-04-18T10:07:23.647Z</time></trkpt><trkpt lat="45.5127442" lon="10.4815188"><ele>212.0</ele><time>2026-04-18T10:07:24.647Z</time></trkpt><trkpt lat="45.5128282" lon="10.4815551"><ele>212.0</ele><time>2026-04-18T10:07:25.648Z</time></trkpt><trkpt lat="45.5129132" lon="10.4816214"><ele>212.0</ele><time>2026-04-18T10:07:26.647Z</time></trkpt><trkpt lat="45.5129992" lon="10.4816613"><ele>212.0</ele><time>2026-04-18T10:07:27.647Z</time></trkpt><trkpt lat="45.5130836" lon="10.4817047"><ele>212.0</ele><time>2026-04-18T10:07:28.647Z</time></trkpt><trkpt lat="45.5131817" lon="10.4817604"><ele>213.2</ele><time>2026-04-18T10:07:29.646Z</time></trkpt><trkpt lat="45.5132764" lon="10.4818047"><ele>214.39999999999998</ele><time>2026-04-18T10:07:30.648Z</time></trkpt><trkpt lat="45.513366" lon="10.4818372"><ele>215.60000000000002</ele><time>2026-04-18T10:07:31.647Z</time></trkpt><trkpt lat="45.5134567" lon="10.4818668"><ele>216.8</ele><time>2026-04-18T10:07:32.647Z</time></trkpt><trkpt lat="45.5135476" lon="10.4819021"><ele>218.0</ele><time>2026-04-18T10:07:33.647Z</time></trkpt><trkpt lat="45.513613" lon="10.481942"><ele>218.0</ele><time>2026-04-18T10:07:34.648Z</time></trkpt><trkpt lat="45.5137085" lon="10.4820083"><ele>218.0</ele><time>2026-04-18T10:07:36.648Z</time></trkpt><trkpt lat="45.5137825" lon="10.482074"><ele>218.0</ele><time>2026-04-18T10:07:38.648Z</time></trkpt><trkpt lat="45.5138822" lon="10.482017"><ele>218.0</ele><time>2026-04-18T10:07:41.648Z</time></trkpt><trkpt lat="45.5139265" lon="10.4819331"><ele>218.0</ele><time>2026-04-18T10:07:43.648Z</time></trkpt><trkpt lat="45.5139165" lon="10.4818097"><ele>219.2</ele><time>2026-04-18T10:07:45.647Z</time></trkpt><trkpt lat="45.5139728" lon="10.4816849"><ele>220.4</ele><time>2026-04-18T10:07:47.647Z</time></trkpt><trkpt lat="45.5140484" lon="10.4816688"><ele>221.59999999999997</ele><time>2026-04-18T10:07:48.647Z</time></trkpt><trkpt lat="45.5141464" lon="10.4816218"><ele>222.79999999999998</ele><time>2026-04-18T10:07:49.647Z</time></trkpt><trkpt lat="45.5142286" lon="10.481576"><ele>224.0</ele><time>2026-04-18T10:07:50.647Z</time></trkpt><trkpt lat="45.5143087" lon="10.4815481"><ele>224.00000000000003</ele><time>2026-04-18T10:07:51.647Z</time></trkpt><trkpt lat="45.5143979" lon="10.4815425"><ele>224.0</ele><time>2026-04-18T10:07:52.647Z</time></trkpt><trkpt lat="45.5144863" lon="10.4815332"><ele>224.0</ele><time>2026-04-18T10:07:53.647Z</time></trkpt><trkpt lat="45.5145783" lon="10.4815152"><ele>224.0</ele><time>2026-04-18T10:07:54.647Z</time></trkpt><trkpt lat="45.5146659" lon="10.4814832"><ele>224.00000000000003</ele><time>2026-04-18T10:07:55.647Z</time></trkpt><trkpt lat="45.5147514" lon="10.4814568"><ele>224.0</ele><time>2026-04-18T10:07:56.647Z</time></trkpt><trkpt lat="45.514841" lon="10.4814314"><ele>224.2</ele><time>2026-04-18T10:07:57.647Z</time></trkpt><trkpt lat="45.5149296" lon="10.4814112"><ele>224.39999999999998</ele><time>2026-04-18T10:07:58.647Z</time></trkpt><trkpt lat="45.5150159" lon="10.4813882"><ele>224.6</ele><time>2026-04-18T10:07:59.647Z</time></trkpt><trkpt lat="45.5151049" lon="10.4813733"><ele>224.8</ele><time>2026-04-18T10:08:00.647Z</time></trkpt><trkpt lat="45.5151995" lon="10.4813668"><ele>225.0</ele><time>2026-04-18T10:08:01.647Z</time></trkpt><trkpt lat="45.5152953" lon="10.4813711"><ele>225.0</ele><time>2026-04-18T10:08:02.647Z</time></trkpt><trkpt lat="45.5153978" lon="10.4813852"><ele>225.0</ele><time>2026-04-18T10:08:03.648Z</time></trkpt><trkpt lat="45.5154986" lon="10.4814044"><ele>225.0</ele><time>2026-04-18T10:08:04.647Z</time></trkpt><trkpt lat="45.5155962" lon="10.4814281"><ele>225.0</ele><time>2026-04-18T10:08:05.647Z</time></trkpt><trkpt lat="45.5156974" lon="10.4814513"><ele>225.0</ele><time>2026-04-18T10:08:06.647Z</time></trkpt><trkpt lat="45.5157977" lon="10.4814722"><ele>225.4</ele><time>2026-04-18T10:08:07.647Z</time></trkpt><trkpt lat="45.5159008" lon="10.4814857"><ele>225.8</ele><time>2026-04-18T10:08:08.647Z</time></trkpt><trkpt lat="45.5159941" lon="10.4815241"><ele>226.2</ele><time>2026-04-18T10:08:09.647Z</time></trkpt><trkpt lat="45.5160859" lon="10.4815751"><ele>226.6</ele><time>2026-04-18T10:08:10.646Z</time></trkpt><trkpt lat="45.5161886" lon="10.4816181"><ele>227.0</ele><time>2026-04-18T10:08:11.646Z</time></trkpt><trkpt lat="45.5163105" lon="10.4816402"><ele>228.2</ele><time>2026-04-18T10:08:12.646Z</time></trkpt><trkpt lat="45.5164238" lon="10.4816707"><ele>229.39999999999998</ele><time>2026-04-18T10:08:13.649Z</time></trkpt><trkpt lat="45.5165187" lon="10.48171"><ele>230.60000000000002</ele><time>2026-04-18T10:08:14.647Z</time></trkpt><trkpt lat="45.5166271" lon="10.481745"><ele>231.8</ele><time>2026-04-18T10:08:15.647Z</time></trkpt><trkpt lat="45.5167336" lon="10.4817979"><ele>233.0</ele><time>2026-04-18T10:08:16.648Z</time></trkpt><trkpt lat="45.5168422" lon="10.4818458"><ele>233.0</ele><time>2026-04-18T10:08:17.648Z</time></trkpt><trkpt lat="45.5169489" lon="10.4818963"><ele>233.0</ele><time>2026-04-18T10:08:18.649Z</time></trkpt><trkpt lat="45.5170508" lon="10.4819293"><ele>233.0</ele><time>2026-04-18T10:08:19.647Z</time></trkpt><trkpt lat="45.5171519" lon="10.4819693"><ele>233.0</ele><time>2026-04-18T10:08:20.647Z</time></trkpt><trkpt lat="45.5172506" lon="10.4820086"><ele>233.0</ele><time>2026-04-18T10:08:21.646Z</time></trkpt><trkpt lat="45.5173477" lon="10.482048"><ele>231.83333333333334</ele><time>2026-04-18T10:08:22.648Z</time></trkpt><trkpt lat="45.5174414" lon="10.4820973"><ele>230.66666666666669</ele><time>2026-04-18T10:08:23.647Z</time></trkpt><trkpt lat="45.51753" lon="10.4821614"><ele>229.5</ele><time>2026-04-18T10:08:24.648Z</time></trkpt><trkpt lat="45.517612" lon="10.4822198"><ele>228.33333333333331</ele><time>2026-04-18T10:08:25.647Z</time></trkpt><trkpt lat="45.5176815" lon="10.4822481"><ele>227.16666666666666</ele><time>2026-04-18T10:08:26.647Z</time></trkpt><trkpt lat="45.5177512" lon="10.4822442"><ele>226.0</ele><time>2026-04-18T10:08:27.647Z</time></trkpt><trkpt lat="45.5178097" lon="10.482167"><ele>229.0</ele><time>2026-04-18T10:08:28.648Z</time></trkpt><trkpt lat="45.5178739" lon="10.4820824"><ele>232.00000000000003</ele><time>2026-04-18T10:08:29.648Z</time></trkpt><trkpt lat="45.5179493" lon="10.4820234"><ele>235.00000000000003</ele><time>2026-04-18T10:08:30.647Z</time></trkpt><trkpt lat="45.5180247" lon="10.4819766"><ele>238.0</ele><time>2026-04-18T10:08:31.648Z</time></trkpt><trkpt lat="45.518115" lon="10.481933"><ele>241.0</ele><time>2026-04-18T10:08:32.647Z</time></trkpt><trkpt lat="45.5182143" lon="10.4818886"><ele>241.0</ele><time>2026-04-18T10:08:33.647Z</time></trkpt><trkpt lat="45.5183088" lon="10.4819067"><ele>241.00000000000003</ele><time>2026-04-18T10:08:34.647Z</time></trkpt><trkpt lat="45.5184003" lon="10.4819133"><ele>241.00000000000003</ele><time>2026-04-18T10:08:35.647Z</time></trkpt><trkpt lat="45.5184918" lon="10.4819153"><ele>241.0</ele><time>2026-04-18T10:08:36.647Z</time></trkpt><trkpt lat="45.5185784" lon="10.481914"><ele>241.0</ele><time>2026-04-18T10:08:37.647Z</time></trkpt><trkpt lat="45.5186667" lon="10.4819248"><ele>240.99999999999997</ele><time>2026-04-18T10:08:38.647Z</time></trkpt><trkpt lat="45.5187527" lon="10.4819423"><ele>241.0</ele><time>2026-04-18T10:08:39.648Z</time></trkpt><trkpt lat="45.5188369" lon="10.4819684"><ele>241.0</ele><time>2026-04-18T10:08:40.646Z</time></trkpt><trkpt lat="45.5189099" lon="10.4819733"><ele>241.0</ele><time>2026-04-18T10:08:41.648Z</time></trkpt><trkpt lat="45.5189934" lon="10.481871"><ele>240.99999999999997</ele><time>2026-04-18T10:08:43.646Z</time></trkpt><trkpt lat="45.5190179" lon="10.4817817"><ele>241.0</ele><time>2026-04-18T10:08:44.647Z</time></trkpt><trkpt lat="45.5190206" lon="10.4816764"><ele>241.0</ele><time>2026-04-18T10:08:45.647Z</time></trkpt><trkpt lat="45.5190264" lon="10.481584"><ele>241.00000000000003</ele><time>2026-04-18T10:08:46.647Z</time></trkpt><trkpt lat="45.5190515" lon="10.4814675"><ele>241.0</ele><time>2026-04-18T10:08:48.647Z</time></trkpt><trkpt lat="45.5191189" lon="10.4814439"><ele>241.0</ele><time>2026-04-18T10:09:19.647Z</time></trkpt><trkpt lat="45.5191968" lon="10.4814498"><ele>241.00000000000003</ele><time>2026-04-18T10:09:21.648Z</time></trkpt><trkpt lat="45.5192588" lon="10.4814977"><ele>241.0</ele><time>2026-04-18T10:09:24.647Z</time></trkpt><trkpt lat="45.5193286" lon="10.4814441"><ele>241.0</ele><time>2026-04-18T10:10:05.646Z</time></trkpt><trkpt lat="45.5193175" lon="10.4813273"><ele>240.99999999999997</ele><time>2026-04-18T10:10:08.646Z</time></trkpt><trkpt lat="45.5192898" lon="10.4812301"><ele>241.0</ele><time>2026-04-18T10:10:10.647Z</time></trkpt><trkpt lat="45.5193025" lon="10.4811244"><ele>241.0</ele><time>2026-04-18T10:10:13.647Z</time></trkpt><trkpt lat="45.5193944" lon="10.4811545"><ele>241.0</ele><time>2026-04-18T10:10:17.647Z</time></trkpt><trkpt lat="45.5194388" lon="10.4812285"><ele>240.99999999999997</ele><time>2026-04-18T10:10:18.648Z</time></trkpt><trkpt lat="45.5195054" lon="10.4812807"><ele>241.0</ele><time>2026-04-18T10:10:20.647Z</time></trkpt><trkpt lat="45.5196011" lon="10.4812841"><ele>242.49999999999997</ele><time>2026-04-18T10:10:23.647Z</time></trkpt><trkpt lat="45.5197224" lon="10.4812961"><ele>244.0</ele><time>2026-04-18T10:10:25.646Z</time></trkpt><trkpt lat="45.5197878" lon="10.4812987"><ele>245.5</ele><time>2026-04-18T10:10:26.648Z</time></trkpt><trkpt lat="45.5198526" lon="10.4813051"><ele>247.0</ele><time>2026-04-18T10:10:27.645Z</time></trkpt><trkpt lat="45.5199518" lon="10.4813216"><ele>248.49999999999997</ele><time>2026-04-18T10:10:29.647Z</time></trkpt><trkpt lat="45.5200451" lon="10.4813407"><ele>250.0</ele><time>2026-04-18T10:10:31.647Z</time></trkpt><trkpt lat="45.5201284" lon="10.4813947"><ele>249.99999999999997</ele><time>2026-04-18T10:10:33.647Z</time></trkpt><trkpt lat="45.520232" lon="10.4813899"><ele>250.0</ele><time>2026-04-18T10:10:35.647Z</time></trkpt><trkpt lat="45.5203118" lon="10.4814325"><ele>250.0</ele><time>2026-04-18T10:10:45.646Z</time></trkpt><trkpt lat="45.5203755" lon="10.4814521"><ele>250.0</ele><time>2026-04-18T10:10:47.647Z</time></trkpt><trkpt lat="45.520441" lon="10.48143"><ele>249.99999999999997</ele><time>2026-04-18T10:10:58.647Z</time></trkpt><trkpt lat="45.5204902" lon="10.4813706"><ele>250.0</ele><time>2026-04-18T10:11:01.646Z</time></trkpt><trkpt lat="45.5205488" lon="10.4814411"><ele>250.83333333333331</ele><time>2026-04-18T10:11:28.647Z</time></trkpt><trkpt lat="45.5206225" lon="10.4814388"><ele>251.66666666666666</ele><time>2026-04-18T10:11:39.647Z</time></trkpt><trkpt lat="45.5207486" lon="10.4814943"><ele>252.5</ele><time>2026-04-18T10:11:40.647Z</time></trkpt><trkpt lat="45.5208183" lon="10.4815176"><ele>253.33333333333331</ele><time>2026-04-18T10:11:41.646Z</time></trkpt><trkpt lat="45.5209083" lon="10.4815554"><ele>254.16666666666666</ele><time>2026-04-18T10:11:43.647Z</time></trkpt><trkpt lat="45.5209646" lon="10.4815968"><ele>255.0</ele><time>2026-04-18T10:11:51.645Z</time></trkpt><trkpt lat="45.5209004" lon="10.4815951"><ele>255.0</ele><time>2026-04-18T10:12:12.646Z</time></trkpt><trkpt lat="45.5208155" lon="10.4815084"><ele>255.0</ele><time>2026-04-18T10:12:14.645Z</time></trkpt><trkpt lat="45.5207197" lon="10.4814742"><ele>255.0</ele><time>2026-04-18T10:12:16.645Z</time></trkpt><trkpt lat="45.5206117" lon="10.4814693"><ele>255.0</ele><time>2026-04-18T10:12:18.646Z</time></trkpt><trkpt lat="45.5205456" lon="10.4814639"><ele>255.0</ele><time>2026-04-18T10:12:19.646Z</time></trkpt><trkpt lat="45.5204335" lon="10.4814653"><ele>254.16666666666666</ele><time>2026-04-18T10:12:21.645Z</time></trkpt><trkpt lat="45.520351" lon="10.4814631"><ele>253.33333333333331</ele><time>2026-04-18T10:12:23.647Z</time></trkpt><trkpt lat="45.520281" lon="10.4814383"><ele>252.5</ele><time>2026-04-18T10:12:32.646Z</time></trkpt><trkpt lat="45.5202168" lon="10.4814014"><ele>251.66666666666666</ele><time>2026-04-18T10:12:34.647Z</time></trkpt><trkpt lat="45.5201319" lon="10.4813966"><ele>250.83333333333331</ele><time>2026-04-18T10:12:36.646Z</time></trkpt><trkpt lat="45.5200497" lon="10.4813534"><ele>250.0</ele><time>2026-04-18T10:12:38.646Z</time></trkpt><trkpt lat="45.5199858" lon="10.4813237"><ele>249.99999999999997</ele><time>2026-04-18T10:12:40.646Z</time></trkpt><trkpt lat="45.5199217" lon="10.4813249"><ele>250.0</ele><time>2026-04-18T10:12:42.646Z</time></trkpt><trkpt lat="45.5198347" lon="10.4813177"><ele>250.0</ele><time>2026-04-18T10:12:47.646Z</time></trkpt><trkpt lat="45.5197166" lon="10.4813076"><ele>250.0</ele><time>2026-04-18T10:12:49.645Z</time></trkpt><trkpt lat="45.5196471" lon="10.4813027"><ele>249.99999999999997</ele><time>2026-04-18T10:12:50.646Z</time></trkpt><trkpt lat="45.5195819" lon="10.4812953"><ele>250.0</ele><time>2026-04-18T10:12:51.646Z</time></trkpt><trkpt lat="45.5195191" lon="10.4812873"><ele>249.71428571428572</ele><time>2026-04-18T10:12:52.646Z</time></trkpt><trkpt lat="45.5194489" lon="10.4812633"><ele>249.42857142857144</ele><time>2026-04-18T10:12:54.646Z</time></trkpt><trkpt lat="45.5193815" lon="10.4812214"><ele>249.14285714285717</ele><time>2026-04-18T10:12:57.646Z</time></trkpt><trkpt lat="45.5193185" lon="10.4811579"><ele>248.85714285714286</ele><time>2026-04-18T10:12:59.646Z</time></trkpt><trkpt lat="45.5192834" lon="10.4810816"><ele>248.5714285714286</ele><time>2026-04-18T10:13:01.647Z</time></trkpt><trkpt lat="45.5192808" lon="10.4809841"><ele>248.2857142857143</ele><time>2026-04-18T10:13:03.646Z</time></trkpt><trkpt lat="45.5192923" lon="10.4808658"><ele>248.0</ele><time>2026-04-18T10:13:05.646Z</time></trkpt><trkpt lat="45.519326" lon="10.480721"><ele>248.0</ele><time>2026-04-18T10:13:07.646Z</time></trkpt><trkpt lat="45.5193537" lon="10.4805545"><ele>248.0</ele><time>2026-04-18T10:13:09.646Z</time></trkpt><trkpt lat="45.5193607" lon="10.4803936"><ele>248.0</ele><time>2026-04-18T10:13:11.645Z</time></trkpt><trkpt lat="45.5193807" lon="10.4803012"><ele>248.0</ele><time>2026-04-18T10:13:13.646Z</time></trkpt><trkpt lat="45.5194078" lon="10.4801711"><ele>248.0</ele><time>2026-04-18T10:13:15.646Z</time></trkpt><trkpt lat="45.5193908" lon="10.4803411"><ele>248.0</ele><time>2026-04-18T10:13:33.646Z</time></trkpt><trkpt lat="45.5193845" lon="10.4804331"><ele>248.0</ele><time>2026-04-18T10:13:34.645Z</time></trkpt><trkpt lat="45.5193676" lon="10.4805987"><ele>248.0</ele><time>2026-04-18T10:13:36.646Z</time></trkpt><trkpt lat="45.5193368" lon="10.4807492"><ele>248.0</ele><time>2026-04-18T10:13:38.645Z</time></trkpt><trkpt lat="45.5193102" lon="10.4808836"><ele>248.0</ele><time>2026-04-18T10:13:40.645Z</time></trkpt><trkpt lat="45.5192919" lon="10.4809761"><ele>248.00000000000003</ele><time>2026-04-18T10:13:42.645Z</time></trkpt><trkpt lat="45.5193156" lon="10.4810941"><ele>248.0</ele><time>2026-04-18T10:14:12.646Z</time></trkpt><trkpt lat="45.5193714" lon="10.4811489"><ele>248.0</ele><time>2026-04-18T10:14:19.646Z</time></trkpt><trkpt lat="45.5194327" lon="10.4810787"><ele>248.0</ele><time>2026-04-18T10:14:24.645Z</time></trkpt><trkpt lat="45.5194715" lon="10.4809824"><ele>248.00000000000003</ele><time>2026-04-18T10:14:37.646Z</time></trkpt><trkpt lat="45.5195369" lon="10.4809024"><ele>248.0</ele><time>2026-04-18T10:14:46.645Z</time></trkpt><trkpt lat="45.5195773" lon="10.4808253"><ele>249.2857142857143</ele><time>2026-04-18T10:14:50.646Z</time></trkpt><trkpt lat="45.5196117" lon="10.4807485"><ele>250.5714285714286</ele><time>2026-04-18T10:15:09.645Z</time></trkpt><trkpt lat="45.5196707" lon="10.4806991"><ele>251.85714285714286</ele><time>2026-04-18T10:15:15.647Z</time></trkpt><trkpt lat="45.5197121" lon="10.4806281"><ele>253.14285714285717</ele><time>2026-04-18T10:15:21.647Z</time></trkpt><trkpt lat="45.5197591" lon="10.4805497"><ele>254.42857142857144</ele><time>2026-04-18T10:15:24.646Z</time></trkpt><trkpt lat="45.5198144" lon="10.4804988"><ele>255.71428571428572</ele><time>2026-04-18T10:15:28.646Z</time></trkpt><trkpt lat="45.5198607" lon="10.4803891"><ele>257.0</ele><time>2026-04-18T10:15:42.645Z</time></trkpt><trkpt lat="45.5199224" lon="10.4803236"><ele>257.0</ele><time>2026-04-18T10:15:45.646Z</time></trkpt><trkpt lat="45.5199898" lon="10.4803096"><ele>257.0</ele><time>2026-04-18T10:15:55.644Z</time></trkpt><trkpt lat="45.5199338" lon="10.4803828"><ele>257.0</ele><time>2026-04-18T10:15:58.646Z</time></trkpt><trkpt lat="45.5198567" lon="10.4804225"><ele>257.0</ele><time>2026-04-18T10:16:01.644Z</time></trkpt><trkpt lat="45.5198472" lon="10.4805302"><ele>257.0</ele><time>2026-04-18T10:16:03.646Z</time></trkpt><trkpt lat="45.5198944" lon="10.4805936"><ele>257.0</ele><time>2026-04-18T10:16:04.646Z</time></trkpt><trkpt lat="45.5199674" lon="10.480719"><ele>257.0</ele><time>2026-04-18T10:16:06.644Z</time></trkpt><trkpt lat="45.5200354" lon="10.4808193"><ele>257.0</ele><time>2026-04-18T10:16:08.644Z</time></trkpt><trkpt lat="45.5201259" lon="10.4809153"><ele>257.0</ele><time>2026-04-18T10:16:10.645Z</time></trkpt><trkpt lat="45.5202468" lon="10.480989"><ele>257.0</ele><time>2026-04-18T10:16:12.646Z</time></trkpt><trkpt lat="45.5203607" lon="10.4810261"><ele>258.33333333333337</ele><time>2026-04-18T10:16:14.645Z</time></trkpt><trkpt lat="45.5204662" lon="10.4810121"><ele>259.6666666666667</ele><time>2026-04-18T10:16:16.644Z</time></trkpt><trkpt lat="45.5205306" lon="10.4810201"><ele>261.0</ele><time>2026-04-18T10:16:17.645Z</time></trkpt><trkpt lat="45.5205976" lon="10.4810179"><ele>262.3333333333333</ele><time>2026-04-18T10:16:18.646Z</time></trkpt><trkpt lat="45.5206644" lon="10.4810144"><ele>263.66666666666663</ele><time>2026-04-18T10:16:19.645Z</time></trkpt><trkpt lat="45.5207899" lon="10.4809947"><ele>265.0</ele><time>2026-04-18T10:16:21.645Z</time></trkpt><trkpt lat="45.5208595" lon="10.4809999"><ele>265.0</ele><time>2026-04-18T10:16:22.645Z</time></trkpt><trkpt lat="45.5209228" lon="10.4809879"><ele>265.0</ele><time>2026-04-18T10:16:23.645Z</time></trkpt><trkpt lat="45.5210374" lon="10.4809913"><ele>265.0</ele><time>2026-04-18T10:16:25.646Z</time></trkpt><trkpt lat="45.5211502" lon="10.4810098"><ele>265.0</ele><time>2026-04-18T10:16:27.645Z</time></trkpt><trkpt lat="45.5212246" lon="10.4810339"><ele>265.0</ele><time>2026-04-18T10:16:28.645Z</time></trkpt><trkpt lat="45.5212904" lon="10.4810513"><ele>265.0</ele><time>2026-04-18T10:16:29.644Z</time></trkpt><trkpt lat="45.5214024" lon="10.4811085"><ele>267.16666666666663</ele><time>2026-04-18T10:16:31.645Z</time></trkpt><trkpt lat="45.5214929" lon="10.481135"><ele>269.3333333333333</ele><time>2026-04-18T10:16:33.645Z</time></trkpt><trkpt lat="45.5215907" lon="10.4811678"><ele>271.5</ele><time>2026-04-18T10:16:35.645Z</time></trkpt><trkpt lat="45.5216889" lon="10.4811609"><ele>273.6666666666667</ele><time>2026-04-18T10:16:37.645Z</time></trkpt><trkpt lat="45.5217584" lon="10.4811639"><ele>275.83333333333337</ele><time>2026-04-18T10:16:38.645Z</time></trkpt><trkpt lat="45.5218282" lon="10.4811749"><ele>278.0</ele><time>2026-04-18T10:16:39.645Z</time></trkpt><trkpt lat="45.5218918" lon="10.4812159"><ele>278.0</ele><time>2026-04-18T10:16:40.645Z</time></trkpt><trkpt lat="45.5219483" lon="10.4812558"><ele>278.0</ele><time>2026-04-18T10:16:41.644Z</time></trkpt><trkpt lat="45.5220427" lon="10.4812585"><ele>278.0</ele><time>2026-04-18T10:16:43.645Z</time></trkpt><trkpt lat="45.5219949" lon="10.4811954"><ele>278.0</ele><time>2026-04-18T10:16:49.644Z</time></trkpt><trkpt lat="45.5219239" lon="10.4811982"><ele>278.0</ele><time>2026-04-18T10:18:08.646Z</time></trkpt><trkpt lat="45.5218649" lon="10.4811662"><ele>278.0</ele><time>2026-04-18T10:19:05.645Z</time></trkpt><trkpt lat="45.5217981" lon="10.4811637"><ele>278.0</ele><time>2026-04-18T10:19:15.645Z</time></trkpt><trkpt lat="45.5217275" lon="10.4811455"><ele>278.0</ele><time>2026-04-18T10:19:21.643Z</time></trkpt><trkpt lat="45.5218321" lon="10.4811746"><ele>278.0</ele><time>2026-04-18T10:19:46.644Z</time></trkpt><trkpt lat="45.5219234" lon="10.4812396"><ele>278.0</ele><time>2026-04-18T10:19:48.645Z</time></trkpt><trkpt lat="45.5220139" lon="10.481283"><ele>278.0</ele><time>2026-04-18T10:19:50.645Z</time></trkpt><trkpt lat="45.5220823" lon="10.4812446"><ele>278.0</ele><time>2026-04-18T10:19:54.645Z</time></trkpt><trkpt lat="45.522145" lon="10.4813051"><ele>279.33333333333337</ele><time>2026-04-18T10:19:58.644Z</time></trkpt><trkpt lat="45.5222202" lon="10.4813663"><ele>280.6666666666667</ele><time>2026-04-18T10:20:01.644Z</time></trkpt><trkpt lat="45.5222825" lon="10.4813863"><ele>282.0</ele><time>2026-04-18T10:20:03.644Z</time></trkpt><trkpt lat="45.52237" lon="10.4813199"><ele>283.3333333333333</ele><time>2026-04-18T10:20:05.643Z</time></trkpt><trkpt lat="45.5224371" lon="10.4813348"><ele>284.66666666666663</ele><time>2026-04-18T10:20:19.644Z</time></trkpt><trkpt lat="45.5225059" lon="10.4814283"><ele>286.0</ele><time>2026-04-18T10:20:23.644Z</time></trkpt><trkpt lat="45.5225317" lon="10.4815319"><ele>286.0</ele><time>2026-04-18T10:20:25.643Z</time></trkpt><trkpt lat="45.5225996" lon="10.4816339"><ele>286.0</ele><time>2026-04-18T10:20:27.644Z</time></trkpt><trkpt lat="45.5226763" lon="10.4817196"><ele>286.0</ele><time>2026-04-18T10:20:29.644Z</time></trkpt><trkpt lat="45.5227477" lon="10.4817695"><ele>286.0</ele><time>2026-04-18T10:20:31.645Z</time></trkpt><trkpt lat="45.522814" lon="10.481752"><ele>286.0</ele><time>2026-04-18T10:20:32.644Z</time></trkpt><trkpt lat="45.5228747" lon="10.4817176"><ele>286.0</ele><time>2026-04-18T10:20:34.643Z</time></trkpt><trkpt lat="45.5229361" lon="10.4817627"><ele>286.3333333333333</ele><time>2026-04-18T10:20:38.645Z</time></trkpt><trkpt lat="45.5229711" lon="10.4818505"><ele>286.66666666666663</ele><time>2026-04-18T10:20:41.644Z</time></trkpt><trkpt lat="45.5230327" lon="10.4818773"><ele>287.0</ele><time>2026-04-18T10:20:44.644Z</time></trkpt><trkpt lat="45.5231009" lon="10.4819272"><ele>287.3333333333333</ele><time>2026-04-18T10:20:46.645Z</time></trkpt><trkpt lat="45.5231479" lon="10.4820443"><ele>287.6666666666667</ele><time>2026-04-18T10:20:51.644Z</time></trkpt><trkpt lat="45.5232226" lon="10.4821632"><ele>288.0</ele><time>2026-04-18T10:20:53.644Z</time></trkpt><trkpt lat="45.5232815" lon="10.4822368"><ele>286.6666666666667</ele><time>2026-04-18T10:20:56.644Z</time></trkpt><trkpt lat="45.5233178" lon="10.4823104"><ele>285.3333333333333</ele><time>2026-04-18T10:20:58.645Z</time></trkpt><trkpt lat="45.5233888" lon="10.4824017"><ele>284.0</ele><time>2026-04-18T10:21:00.643Z</time></trkpt><trkpt lat="45.5234726" lon="10.4825121"><ele>282.66666666666663</ele><time>2026-04-18T10:21:02.644Z</time></trkpt><trkpt lat="45.5235451" lon="10.4825867"><ele>281.3333333333333</ele><time>2026-04-18T10:21:04.644Z</time></trkpt><trkpt lat="45.5236106" lon="10.4826225"><ele>280.0</ele><time>2026-04-18T10:21:06.643Z</time></trkpt><trkpt lat="45.5236812" lon="10.4826709"><ele>281.0</ele><time>2026-04-18T10:21:11.644Z</time></trkpt><trkpt lat="45.5238143" lon="10.4827254"><ele>282.0</ele><time>2026-04-18T10:21:13.644Z</time></trkpt><trkpt lat="45.5239075" lon="10.4827455"><ele>283.0</ele><time>2026-04-18T10:21:14.644Z</time></trkpt><trkpt lat="45.5240082" lon="10.4827538"><ele>284.0</ele><time>2026-04-18T10:21:15.642Z</time></trkpt><trkpt lat="45.5241126" lon="10.4827579"><ele>285.0</ele><time>2026-04-18T10:21:16.645Z</time></trkpt><trkpt lat="45.5242177" lon="10.4827561"><ele>285.0</ele><time>2026-04-18T10:21:17.644Z</time></trkpt><trkpt lat="45.5243175" lon="10.4827522"><ele>285.0</ele><time>2026-04-18T10:21:18.643Z</time></trkpt><trkpt lat="45.5244163" lon="10.4827337"><ele>285.0</ele><time>2026-04-18T10:21:19.643Z</time></trkpt><trkpt lat="45.5245158" lon="10.4827059"><ele>285.0</ele><time>2026-04-18T10:21:20.642Z</time></trkpt><trkpt lat="45.5246124" lon="10.4826899"><ele>285.0</ele><time>2026-04-18T10:21:21.644Z</time></trkpt><trkpt lat="45.524709" lon="10.4826823"><ele>285.3333333333333</ele><time>2026-04-18T10:21:22.644Z</time></trkpt><trkpt lat="45.5247997" lon="10.482698"><ele>285.6666666666667</ele><time>2026-04-18T10:21:23.644Z</time></trkpt><trkpt lat="45.5248852" lon="10.4827188"><ele>286.0</ele><time>2026-04-18T10:21:24.644Z</time></trkpt><trkpt lat="45.5249498" lon="10.4827726"><ele>286.33333333333337</ele><time>2026-04-18T10:21:25.645Z</time></trkpt><trkpt lat="45.5250005" lon="10.4828273"><ele>286.6666666666667</ele><time>2026-04-18T10:21:26.645Z</time></trkpt><trkpt lat="45.5250948" lon="10.482929"><ele>287.0</ele><time>2026-04-18T10:21:28.643Z</time></trkpt><trkpt lat="45.5251774" lon="10.4829994"><ele>287.83333333333337</ele><time>2026-04-18T10:21:30.643Z</time></trkpt><trkpt lat="45.5252671" lon="10.4830148"><ele>288.6666666666667</ele><time>2026-04-18T10:21:32.643Z</time></trkpt><trkpt lat="45.5253777" lon="10.4829911"><ele>289.5</ele><time>2026-04-18T10:21:34.645Z</time></trkpt><trkpt lat="45.5254421" lon="10.4830162"><ele>290.3333333333333</ele><time>2026-04-18T10:21:35.643Z</time></trkpt><trkpt lat="45.5255153" lon="10.4830491"><ele>291.16666666666663</ele><time>2026-04-18T10:21:37.645Z</time></trkpt><trkpt lat="45.5255789" lon="10.483084"><ele>292.0</ele><time>2026-04-18T10:21:38.643Z</time></trkpt><trkpt lat="45.5256975" lon="10.4831589"><ele>292.0</ele><time>2026-04-18T10:21:40.645Z</time></trkpt><trkpt lat="45.5257453" lon="10.4832594"><ele>292.0</ele><time>2026-04-18T10:21:41.642Z</time></trkpt><trkpt lat="45.5257897" lon="10.4833352"><ele>292.0</ele><time>2026-04-18T10:21:42.644Z</time></trkpt><trkpt lat="45.5258377" lon="10.4833975"><ele>292.0</ele><time>2026-04-18T10:21:43.646Z</time></trkpt><trkpt lat="45.5259546" lon="10.4834424"><ele>292.0</ele><time>2026-04-18T10:21:45.645Z</time></trkpt><trkpt lat="45.5260413" lon="10.4834326"><ele>292.0</ele><time>2026-04-18T10:21:46.643Z</time></trkpt><trkpt lat="45.5261182" lon="10.4834061"><ele>292.0</ele><time>2026-04-18T10:21:47.643Z</time></trkpt><trkpt lat="45.5261868" lon="10.483355"><ele>292.0</ele><time>2026-04-18T10:21:48.644Z</time></trkpt><trkpt lat="45.5262379" lon="10.4832977"><ele>292.0</ele><time>2026-04-18T10:21:49.644Z</time></trkpt><trkpt lat="45.5263445" lon="10.4832624"><ele>292.0</ele><time>2026-04-18T10:21:51.644Z</time></trkpt><trkpt lat="45.5264047" lon="10.4833098"><ele>292.0</ele><time>2026-04-18T10:21:54.644Z</time></trkpt><trkpt lat="45.5264535" lon="10.4833936"><ele>292.0</ele><time>2026-04-18T10:21:59.645Z</time></trkpt><trkpt lat="45.5265238" lon="10.4834452"><ele>294.3333333333333</ele><time>2026-04-18T10:22:01.644Z</time></trkpt><trkpt lat="45.5265912" lon="10.4835243"><ele>296.66666666666663</ele><time>2026-04-18T10:22:04.644Z</time></trkpt><trkpt lat="45.5266396" lon="10.4835907"><ele>299.0</ele><time>2026-04-18T10:22:06.643Z</time></trkpt><trkpt lat="45.5266261" lon="10.4837032"><ele>301.3333333333333</ele><time>2026-04-18T10:22:08.643Z</time></trkpt><trkpt lat="45.5266206" lon="10.4838041"><ele>303.6666666666667</ele><time>2026-04-18T10:22:10.644Z</time></trkpt><trkpt lat="45.5266455" lon="10.4839417"><ele>306.0</ele><time>2026-04-18T10:22:12.643Z</time></trkpt><trkpt lat="45.5266918" lon="10.484076"><ele>306.6666666666667</ele><time>2026-04-18T10:22:14.644Z</time></trkpt><trkpt lat="45.5267249" lon="10.4841569"><ele>307.3333333333333</ele><time>2026-04-18T10:22:15.643Z</time></trkpt><trkpt lat="45.5267573" lon="10.4842349"><ele>308.0</ele><time>2026-04-18T10:22:16.643Z</time></trkpt><trkpt lat="45.526837" lon="10.4843794"><ele>308.66666666666663</ele><time>2026-04-18T10:22:18.642Z</time></trkpt><trkpt lat="45.5268928" lon="10.4844288"><ele>309.3333333333333</ele><time>2026-04-18T10:22:19.644Z</time></trkpt><trkpt lat="45.5269695" lon="10.4844942"><ele>310.0</ele><time>2026-04-18T10:22:21.643Z</time></trkpt><trkpt lat="45.5270052" lon="10.4846104"><ele>309.66666666666663</ele><time>2026-04-18T10:22:25.645Z</time></trkpt><trkpt lat="45.527044" lon="10.4847056"><ele>309.3333333333333</ele><time>2026-04-18T10:22:27.645Z</time></trkpt><trkpt lat="45.5271264" lon="10.4848071"><ele>309.0</ele><time>2026-04-18T10:22:29.643Z</time></trkpt><trkpt lat="45.5271671" lon="10.4848842"><ele>308.6666666666667</ele><time>2026-04-18T10:22:30.643Z</time></trkpt><trkpt lat="45.5272394" lon="10.4849739"><ele>308.33333333333337</ele><time>2026-04-18T10:22:32.644Z</time></trkpt><trkpt lat="45.5272847" lon="10.4850819"><ele>308.0</ele><time>2026-04-18T10:22:35.642Z</time></trkpt><trkpt lat="45.5273097" lon="10.4851827"><ele>308.0</ele><time>2026-04-18T10:22:37.642Z</time></trkpt><trkpt lat="45.5273659" lon="10.4853187"><ele>308.0</ele><time>2026-04-18T10:22:39.643Z</time></trkpt><trkpt lat="45.5274391" lon="10.4854434"><ele>308.0</ele><time>2026-04-18T10:22:41.644Z</time></trkpt><trkpt lat="45.527509" lon="10.4855426"><ele>308.0</ele><time>2026-04-18T10:22:44.644Z</time></trkpt><trkpt lat="45.527597" lon="10.4857446"><ele>306.8</ele><time>2026-04-18T10:22:48.642Z</time></trkpt><trkpt lat="45.5276866" lon="10.485754"><ele>305.6</ele><time>2026-04-18T10:22:50.643Z</time></trkpt><trkpt lat="45.5277814" lon="10.4857322"><ele>304.4</ele><time>2026-04-18T10:22:52.644Z</time></trkpt><trkpt lat="45.5278371" lon="10.485678"><ele>303.2</ele><time>2026-04-18T10:22:54.643Z</time></trkpt><trkpt lat="45.5279236" lon="10.4855512"><ele>302.0</ele><time>2026-04-18T10:22:57.643Z</time></trkpt><trkpt lat="45.5279785" lon="10.4854233"><ele>302.0</ele><time>2026-04-18T10:22:59.643Z</time></trkpt><trkpt lat="45.5279794" lon="10.4852587"><ele>302.0</ele><time>2026-04-18T10:23:01.642Z</time></trkpt><trkpt lat="45.5279402" lon="10.4851549"><ele>302.0</ele><time>2026-04-18T10:23:02.642Z</time></trkpt><trkpt lat="45.5279219" lon="10.4850682"><ele>302.0</ele><time>2026-04-18T10:23:03.643Z</time></trkpt><trkpt lat="45.5279302" lon="10.4849391"><ele>302.0</ele><time>2026-04-18T10:23:05.643Z</time></trkpt><trkpt lat="45.5279748" lon="10.4848658"><ele>302.0</ele><time>2026-04-18T10:23:07.645Z</time></trkpt><trkpt lat="45.5280209" lon="10.4849604"><ele>302.0</ele><time>2026-04-18T10:23:11.644Z</time></trkpt><trkpt lat="45.5281123" lon="10.4849373"><ele>302.0</ele><time>2026-04-18T10:23:15.643Z</time></trkpt><trkpt lat="45.5282219" lon="10.4848701"><ele>302.0</ele><time>2026-04-18T10:23:17.643Z</time></trkpt><trkpt lat="45.5283056" lon="10.4848656"><ele>302.0</ele><time>2026-04-18T10:23:18.644Z</time></trkpt><trkpt lat="45.5283815" lon="10.4848533"><ele>302.0</ele><time>2026-04-18T10:23:19.642Z</time></trkpt><trkpt lat="45.5284723" lon="10.4848079"><ele>302.0</ele><time>2026-04-18T10:23:20.644Z</time></trkpt><trkpt lat="45.5285535" lon="10.4847783"><ele>302.0</ele><time>2026-04-18T10:23:21.644Z</time></trkpt><trkpt lat="45.5286433" lon="10.4847606"><ele>302.0</ele><time>2026-04-18T10:23:22.643Z</time></trkpt><trkpt lat="45.5287316" lon="10.4847172"><ele>302.0</ele><time>2026-04-18T10:23:23.642Z</time></trkpt><trkpt lat="45.5288028" lon="10.4846664"><ele>302.0</ele><time>2026-04-18T10:23:24.643Z</time></trkpt><trkpt lat="45.5288661" lon="10.4846257"><ele>302.0</ele><time>2026-04-18T10:23:25.643Z</time></trkpt><trkpt lat="45.5289384" lon="10.4846031"><ele>302.0</ele><time>2026-04-18T10:23:27.643Z</time></trkpt><trkpt lat="45.5289318" lon="10.4847151"><ele>302.0</ele><time>2026-04-18T10:23:30.643Z</time></trkpt><trkpt lat="45.5288656" lon="10.4847236"><ele>302.0</ele><time>2026-04-18T10:23:31.642Z</time></trkpt><trkpt lat="45.5287942" lon="10.4847182"><ele>302.0</ele><time>2026-04-18T10:23:32.643Z</time></trkpt><trkpt lat="45.5287211" lon="10.4847508"><ele>302.0</ele><time>2026-04-18T10:23:33.642Z</time></trkpt><trkpt lat="45.5286037" lon="10.4848096"><ele>302.0</ele><time>2026-04-18T10:23:35.642Z</time></trkpt><trkpt lat="45.5285087" lon="10.4848528"><ele>302.0</ele><time>2026-04-18T10:23:37.643Z</time></trkpt><trkpt lat="45.5284273" lon="10.4848921"><ele>302.0</ele><time>2026-04-18T10:23:39.643Z</time></trkpt><trkpt lat="45.528334" lon="10.4849159"><ele>302.0</ele><time>2026-04-18T10:23:42.642Z</time></trkpt><trkpt lat="45.5282408" lon="10.4849344"><ele>302.0</ele><time>2026-04-18T10:23:44.643Z</time></trkpt><trkpt lat="45.5281319" lon="10.4849289"><ele>302.0</ele><time>2026-04-18T10:23:46.643Z</time></trkpt><trkpt lat="45.528048" lon="10.4849215"><ele>302.0</ele><time>2026-04-18T10:23:48.644Z</time></trkpt><trkpt lat="45.5279943" lon="10.4850275"><ele>302.0</ele><time>2026-04-18T10:23:50.642Z</time></trkpt><trkpt lat="45.5280118" lon="10.4851195"><ele>302.0</ele><time>2026-04-18T10:23:52.643Z</time></trkpt><trkpt lat="45.5280726" lon="10.4851836"><ele>302.0</ele><time>2026-04-18T10:23:55.643Z</time></trkpt><trkpt lat="45.5281469" lon="10.4852477"><ele>302.0</ele><time>2026-04-18T10:23:58.644Z</time></trkpt><trkpt lat="45.5281839" lon="10.485345"><ele>302.0</ele><time>2026-04-18T10:24:04.643Z</time></trkpt><trkpt lat="45.5281119" lon="10.4852825"><ele>302.0</ele><time>2026-04-18T10:25:50.643Z</time></trkpt><trkpt lat="45.528061" lon="10.4852209"><ele>302.0</ele><time>2026-04-18T10:25:52.642Z</time></trkpt><trkpt lat="45.5280185" lon="10.4851452"><ele>302.0</ele><time>2026-04-18T10:25:54.642Z</time></trkpt><trkpt lat="45.5280262" lon="10.4850253"><ele>302.0</ele><time>2026-04-18T10:25:57.642Z</time></trkpt><trkpt lat="45.5281342" lon="10.4849907"><ele>302.0</ele><time>2026-04-18T10:25:58.642Z</time></trkpt><trkpt lat="45.5282563" lon="10.4849303"><ele>302.0</ele><time>2026-04-18T10:26:00.644Z</time></trkpt><trkpt lat="45.5283699" lon="10.484909"><ele>302.0</ele><time>2026-04-18T10:26:02.642Z</time></trkpt><trkpt lat="45.5284383" lon="10.4848792"><ele>302.0</ele><time>2026-04-18T10:26:03.642Z</time></trkpt><trkpt lat="45.5285133" lon="10.4848397"><ele>302.0</ele><time>2026-04-18T10:26:04.642Z</time></trkpt><trkpt lat="45.5285932" lon="10.4848048"><ele>302.0</ele><time>2026-04-18T10:26:05.642Z</time></trkpt><trkpt lat="45.5286785" lon="10.4847779"><ele>302.0</ele><time>2026-04-18T10:26:06.643Z</time></trkpt><trkpt lat="45.5287624" lon="10.4847447"><ele>302.0</ele><time>2026-04-18T10:26:07.643Z</time></trkpt><trkpt lat="45.5288368" lon="10.484701"><ele>302.0</ele><time>2026-04-18T10:26:08.643Z</time></trkpt><trkpt lat="45.5289088" lon="10.4846507"><ele>302.0</ele><time>2026-04-18T10:26:09.643Z</time></trkpt><trkpt lat="45.528985" lon="10.4845942"><ele>302.0</ele><time>2026-04-18T10:26:10.643Z</time></trkpt><trkpt lat="45.5290743" lon="10.4845398"><ele>302.0</ele><time>2026-04-18T10:26:11.642Z</time></trkpt><trkpt lat="45.5291604" lon="10.4844855"><ele>302.0</ele><time>2026-04-18T10:26:12.642Z</time></trkpt><trkpt lat="45.5292421" lon="10.4844263"><ele>302.0</ele><time>2026-04-18T10:26:13.642Z</time></trkpt><trkpt lat="45.5293147" lon="10.4843812"><ele>302.0</ele><time>2026-04-18T10:26:14.644Z</time></trkpt><trkpt lat="45.5294169" lon="10.4843027"><ele>302.0</ele><time>2026-04-18T10:26:16.643Z</time></trkpt><trkpt lat="45.5295199" lon="10.4842636"><ele>302.0</ele><time>2026-04-18T10:26:18.642Z</time></trkpt><trkpt lat="45.5295985" lon="10.4842215"><ele>302.0</ele><time>2026-04-18T10:26:20.644Z</time></trkpt><trkpt lat="45.5296573" lon="10.4841307"><ele>302.8</ele><time>2026-04-18T10:26:33.644Z</time></trkpt><trkpt lat="45.5297094" lon="10.4840114"><ele>303.6</ele><time>2026-04-18T10:26:36.642Z</time></trkpt><trkpt lat="45.5297774" lon="10.4839631"><ele>304.40000000000003</ele><time>2026-04-18T10:26:38.643Z</time></trkpt><trkpt lat="45.5298461" lon="10.4839507"><ele>305.2</ele><time>2026-04-18T10:26:40.643Z</time></trkpt><trkpt lat="45.5299446" lon="10.4839334"><ele>306.0</ele><time>2026-04-18T10:26:42.643Z</time></trkpt><trkpt lat="45.5300534" lon="10.4838861"><ele>306.0</ele><time>2026-04-18T10:26:44.642Z</time></trkpt><trkpt lat="45.5301403" lon="10.4838133"><ele>306.0</ele><time>2026-04-18T10:26:46.642Z</time></trkpt><trkpt lat="45.530219" lon="10.483744"><ele>306.0</ele><time>2026-04-18T10:26:48.644Z</time></trkpt><trkpt lat="45.5303114" lon="10.4836738"><ele>306.0</ele><time>2026-04-18T10:26:50.642Z</time></trkpt><trkpt lat="45.5303747" lon="10.4836614"><ele>306.0</ele><time>2026-04-18T10:26:51.643Z</time></trkpt><trkpt lat="45.530479" lon="10.4836021"><ele>308.5</ele><time>2026-04-18T10:26:53.642Z</time></trkpt><trkpt lat="45.5305962" lon="10.4835799"><ele>311.0</ele><time>2026-04-18T10:26:55.643Z</time></trkpt><trkpt lat="45.5307055" lon="10.4835287"><ele>313.5</ele><time>2026-04-18T10:26:57.643Z</time></trkpt><trkpt lat="45.5308208" lon="10.483505"><ele>316.0</ele><time>2026-04-18T10:26:59.642Z</time></trkpt><trkpt lat="45.5309251" lon="10.4834631"><ele>316.0</ele><time>2026-04-18T10:27:01.642Z</time></trkpt><trkpt lat="45.5310349" lon="10.4834061"><ele>316.0</ele><time>2026-04-18T10:27:03.643Z</time></trkpt><trkpt lat="45.5311448" lon="10.4834013"><ele>316.0</ele><time>2026-04-18T10:27:05.642Z</time></trkpt><trkpt lat="45.5312758" lon="10.4834323"><ele>316.0</ele><time>2026-04-18T10:27:07.642Z</time></trkpt><trkpt lat="45.5313878" lon="10.4834317"><ele>315.3333333333333</ele><time>2026-04-18T10:27:09.642Z</time></trkpt><trkpt lat="45.5314859" lon="10.4834896"><ele>314.66666666666663</ele><time>2026-04-18T10:27:11.642Z</time></trkpt><trkpt lat="45.5315485" lon="10.4835321"><ele>314.0</ele><time>2026-04-18T10:27:12.644Z</time></trkpt><trkpt lat="45.5316088" lon="10.483584"><ele>313.3333333333333</ele><time>2026-04-18T10:27:13.642Z</time></trkpt><trkpt lat="45.5316688" lon="10.4836878"><ele>312.6666666666667</ele><time>2026-04-18T10:27:14.642Z</time></trkpt><trkpt lat="45.5317577" lon="10.4837569"><ele>312.0</ele><time>2026-04-18T10:27:16.642Z</time></trkpt><trkpt lat="45.5318017" lon="10.483853"><ele>312.4</ele><time>2026-04-18T10:27:18.643Z</time></trkpt><trkpt lat="45.5318882" lon="10.4839487"><ele>312.79999999999995</ele><time>2026-04-18T10:27:20.642Z</time></trkpt><trkpt lat="45.5319883" lon="10.4840606"><ele>313.2</ele><time>2026-04-18T10:27:22.643Z</time></trkpt><trkpt lat="45.5320541" lon="10.4841296"><ele>313.59999999999997</ele><time>2026-04-18T10:27:23.642Z</time></trkpt><trkpt lat="45.5321062" lon="10.4841956"><ele>314.0</ele><time>2026-04-18T10:27:24.641Z</time></trkpt><trkpt lat="45.5321691" lon="10.4842678"><ele>314.0</ele><time>2026-04-18T10:27:25.643Z</time></trkpt><trkpt lat="45.5322655" lon="10.484371"><ele>314.0</ele><time>2026-04-18T10:27:27.642Z</time></trkpt><trkpt lat="45.532342" lon="10.4844842"><ele>314.0</ele><time>2026-04-18T10:27:29.642Z</time></trkpt><trkpt lat="45.5324068" lon="10.4845236"><ele>314.0</ele><time>2026-04-18T10:27:30.642Z</time></trkpt><trkpt lat="45.5325029" lon="10.4846022"><ele>314.0</ele><time>2026-04-18T10:27:32.641Z</time></trkpt><trkpt lat="45.5325714" lon="10.4846687"><ele>313.0</ele><time>2026-04-18T10:27:33.643Z</time></trkpt><trkpt lat="45.532643" lon="10.4847818"><ele>312.0</ele><time>2026-04-18T10:27:35.642Z</time></trkpt><trkpt lat="45.5327268" lon="10.4849185"><ele>311.0</ele><time>2026-04-18T10:27:37.642Z</time></trkpt><trkpt lat="45.532829" lon="10.485002"><ele>310.0</ele><time>2026-04-18T10:27:39.642Z</time></trkpt><trkpt lat="45.5329182" lon="10.4850916"><ele>310.0</ele><time>2026-04-18T10:27:41.643Z</time></trkpt><trkpt lat="45.5328684" lon="10.4850014"><ele>310.0</ele><time>2026-04-18T10:27:43.642Z</time></trkpt><trkpt lat="45.5329372" lon="10.4850393"><ele>310.0</ele><time>2026-04-18T10:27:53.642Z</time></trkpt><trkpt lat="45.5330382" lon="10.4851044"><ele>310.0</ele><time>2026-04-18T10:27:55.642Z</time></trkpt><trkpt lat="45.5331675" lon="10.4851663"><ele>310.0</ele><time>2026-04-18T10:27:57.643Z</time></trkpt><trkpt lat="45.5332286" lon="10.4852129"><ele>309.4</ele><time>2026-04-18T10:27:58.641Z</time></trkpt><trkpt lat="45.5332814" lon="10.485271"><ele>308.8</ele><time>2026-04-18T10:27:59.642Z</time></trkpt><trkpt lat="45.5333704" lon="10.4853459"><ele>308.2</ele><time>2026-04-18T10:28:01.642Z</time></trkpt><trkpt lat="45.5334393" lon="10.4854475"><ele>307.6</ele><time>2026-04-18T10:28:03.641Z</time></trkpt><trkpt lat="45.5334911" lon="10.485548"><ele>307.0</ele><time>2026-04-18T10:28:04.642Z</time></trkpt><trkpt lat="45.5335672" lon="10.4856524"><ele>307.0</ele><time>2026-04-18T10:28:06.643Z</time></trkpt><trkpt lat="45.533659" lon="10.4856985"><ele>307.0</ele><time>2026-04-18T10:28:08.643Z</time></trkpt><trkpt lat="45.5337608" lon="10.4857732"><ele>307.0</ele><time>2026-04-18T10:28:10.643Z</time></trkpt><trkpt lat="45.5337816" lon="10.485861"><ele>307.0</ele><time>2026-04-18T10:28:13.642Z</time></trkpt><trkpt lat="45.5338377" lon="10.4859099"><ele>307.0</ele><time>2026-04-18T10:28:16.642Z</time></trkpt><trkpt lat="45.533907" lon="10.4859475"><ele>307.0</ele><time>2026-04-18T10:28:20.643Z</time></trkpt><trkpt lat="45.5339912" lon="10.4860094"><ele>307.3333333333333</ele><time>2026-04-18T10:28:24.641Z</time></trkpt><trkpt lat="45.53407" lon="10.4860407"><ele>307.66666666666663</ele><time>2026-04-18T10:28:26.642Z</time></trkpt><trkpt lat="45.5341711" lon="10.4860687"><ele>308.0</ele><time>2026-04-18T10:28:28.642Z</time></trkpt><trkpt lat="45.5342549" lon="10.4860983"><ele>308.3333333333333</ele><time>2026-04-18T10:28:30.643Z</time></trkpt><trkpt lat="45.5342938" lon="10.4861876"><ele>308.6666666666667</ele><time>2026-04-18T10:28:36.642Z</time></trkpt><trkpt lat="45.5343223" lon="10.4863095"><ele>309.0</ele><time>2026-04-18T10:28:39.642Z</time></trkpt><trkpt lat="45.5343532" lon="10.486418"><ele>307.5</ele><time>2026-04-18T10:28:41.642Z</time></trkpt><trkpt lat="45.5343817" lon="10.4865212"><ele>306.0</ele><time>2026-04-18T10:28:43.642Z</time></trkpt><trkpt lat="45.5344219" lon="10.4866055"><ele>304.5</ele><time>2026-04-18T10:28:45.641Z</time></trkpt><trkpt lat="45.5345078" lon="10.4866865"><ele>303.0</ele><time>2026-04-18T10:28:47.642Z</time></trkpt><trkpt lat="45.5346071" lon="10.4867405"><ele>301.5</ele><time>2026-04-18T10:28:49.643Z</time></trkpt><trkpt lat="45.5346693" lon="10.4867668"><ele>300.0</ele><time>2026-04-18T10:28:51.642Z</time></trkpt><trkpt lat="45.5347529" lon="10.4867909"><ele>303.0</ele><time>2026-04-18T10:28:53.641Z</time></trkpt><trkpt lat="45.534845" lon="10.4868111"><ele>306.0</ele><time>2026-04-18T10:28:55.642Z</time></trkpt><trkpt lat="45.534938" lon="10.4868206"><ele>309.0</ele><time>2026-04-18T10:28:57.643Z</time></trkpt><trkpt lat="45.535029" lon="10.4868119"><ele>312.0</ele><time>2026-04-18T10:28:59.643Z</time></trkpt><trkpt lat="45.5350963" lon="10.4868226"><ele>315.0</ele><time>2026-04-18T10:29:01.642Z</time></trkpt><trkpt lat="45.5351957" lon="10.4868349"><ele>318.0</ele><time>2026-04-18T10:29:03.642Z</time></trkpt><trkpt lat="45.5353181" lon="10.4868755"><ele>320.6</ele><time>2026-04-18T10:29:05.642Z</time></trkpt><trkpt lat="45.5354246" lon="10.4868974"><ele>323.20000000000005</ele><time>2026-04-18T10:29:07.642Z</time></trkpt><trkpt lat="45.535525" lon="10.4869199"><ele>325.8</ele><time>2026-04-18T10:29:09.643Z</time></trkpt><trkpt lat="45.5356275" lon="10.4869379"><ele>328.40000000000003</ele><time>2026-04-18T10:29:11.642Z</time></trkpt><trkpt lat="45.5357298" lon="10.4869078"><ele>331.0</ele><time>2026-04-18T10:29:13.642Z</time></trkpt><trkpt lat="45.5358507" lon="10.4868689"><ele>331.0</ele><time>2026-04-18T10:29:15.643Z</time></trkpt><trkpt lat="45.5359328" lon="10.4868459"><ele>331.0</ele><time>2026-04-18T10:29:17.641Z</time></trkpt><trkpt lat="45.5360042" lon="10.4868501"><ele>331.0</ele><time>2026-04-18T10:29:19.642Z</time></trkpt><trkpt lat="45.5361516" lon="10.4869009"><ele>331.0</ele><time>2026-04-18T10:29:21.642Z</time></trkpt><trkpt lat="45.5362239" lon="10.4869263"><ele>331.0</ele><time>2026-04-18T10:29:22.641Z</time></trkpt><trkpt lat="45.5363216" lon="10.4869436"><ele>331.8</ele><time>2026-04-18T10:29:24.642Z</time></trkpt><trkpt lat="45.5363814" lon="10.48698"><ele>332.6</ele><time>2026-04-18T10:29:25.642Z</time></trkpt><trkpt lat="45.5364654" lon="10.4870381"><ele>333.4</ele><time>2026-04-18T10:29:27.64Z</time></trkpt><trkpt lat="45.536402" lon="10.4872041"><ele>334.2</ele><time>2026-04-18T10:29:29.642Z</time></trkpt><trkpt lat="45.5363975" lon="10.4873091"><ele>335.0</ele><time>2026-04-18T10:29:30.641Z</time></trkpt><trkpt lat="45.536411" lon="10.4874531"><ele>335.0</ele><time>2026-04-18T10:29:32.642Z</time></trkpt><trkpt lat="45.5364486" lon="10.4875717"><ele>335.0</ele><time>2026-04-18T10:29:34.642Z</time></trkpt><trkpt lat="45.536502" lon="10.4876333"><ele>335.0</ele><time>2026-04-18T10:29:36.643Z</time></trkpt><trkpt lat="45.5365419" lon="10.4877603"><ele>335.0</ele><time>2026-04-18T10:29:42.643Z</time></trkpt><trkpt lat="45.5365591" lon="10.4878516"><ele>335.0</ele><time>2026-04-18T10:29:44.643Z</time></trkpt><trkpt lat="45.5365972" lon="10.4879436"><ele>335.0</ele><time>2026-04-18T10:29:46.643Z</time></trkpt><trkpt lat="45.5367275" lon="10.4879969"><ele>331.2</ele><time>2026-04-18T10:29:48.642Z</time></trkpt><trkpt lat="45.5367924" lon="10.4880228"><ele>327.4</ele><time>2026-04-18T10:29:49.643Z</time></trkpt><trkpt lat="45.5368848" lon="10.4880679"><ele>323.6</ele><time>2026-04-18T10:29:51.642Z</time></trkpt><trkpt lat="45.5369971" lon="10.4880731"><ele>319.8</ele><time>2026-04-18T10:29:53.643Z</time></trkpt><trkpt lat="45.5370918" lon="10.4880809"><ele>316.0</ele><time>2026-04-18T10:29:55.641Z</time></trkpt><trkpt lat="45.5371779" lon="10.4881255"><ele>316.0</ele><time>2026-04-18T10:29:57.642Z</time></trkpt><trkpt lat="45.5372042" lon="10.4882345"><ele>316.0</ele><time>2026-04-18T10:30:00.642Z</time></trkpt><trkpt lat="45.5371466" lon="10.4883417"><ele>316.0</ele><time>2026-04-18T10:30:03.642Z</time></trkpt><trkpt lat="45.537086" lon="10.4884348"><ele>316.0</ele><time>2026-04-18T10:30:05.642Z</time></trkpt><trkpt lat="45.5370221" lon="10.4885068"><ele>316.0</ele><time>2026-04-18T10:30:07.642Z</time></trkpt><trkpt lat="45.5369439" lon="10.4885298"><ele>316.0</ele><time>2026-04-18T10:30:08.642Z</time></trkpt><trkpt lat="45.5368516" lon="10.4885782"><ele>316.0</ele><time>2026-04-18T10:30:10.643Z</time></trkpt><trkpt lat="45.5368076" lon="10.4886528"><ele>316.0</ele><time>2026-04-18T10:30:12.642Z</time></trkpt><trkpt lat="45.5367794" lon="10.4888126"><ele>316.0</ele><time>2026-04-18T10:30:15.642Z</time></trkpt><trkpt lat="45.5368668" lon="10.4888301"><ele>316.0</ele><time>2026-04-18T10:30:16.641Z</time></trkpt><trkpt lat="45.5369335" lon="10.488938"><ele>316.0</ele><time>2026-04-18T10:30:18.642Z</time></trkpt><trkpt lat="45.5370376" lon="10.4890004"><ele>313.6</ele><time>2026-04-18T10:30:20.641Z</time></trkpt><trkpt lat="45.5371073" lon="10.4890798"><ele>311.20000000000005</ele><time>2026-04-18T10:30:22.642Z</time></trkpt><trkpt lat="45.537165" lon="10.4891817"><ele>308.79999999999995</ele><time>2026-04-18T10:30:24.642Z</time></trkpt><trkpt lat="45.5372012" lon="10.4893287"><ele>306.4</ele><time>2026-04-18T10:30:26.643Z</time></trkpt><trkpt lat="45.5372426" lon="10.4894386"><ele>304.0</ele><time>2026-04-18T10:30:28.642Z</time></trkpt><trkpt lat="45.5372708" lon="10.489578"><ele>302.8</ele><time>2026-04-18T10:30:30.642Z</time></trkpt><trkpt lat="45.5372823" lon="10.4897281"><ele>301.59999999999997</ele><time>2026-04-18T10:30:32.642Z</time></trkpt><trkpt lat="45.5372916" lon="10.4898228"><ele>300.4</ele><time>2026-04-18T10:30:35.642Z</time></trkpt><trkpt lat="45.5374064" lon="10.4899329"><ele>299.2</ele><time>2026-04-18T10:30:38.643Z</time></trkpt><trkpt lat="45.5374978" lon="10.4900344"><ele>298.0</ele><time>2026-04-18T10:30:40.642Z</time></trkpt><trkpt lat="45.5375592" lon="10.4900778"><ele>298.0</ele><time>2026-04-18T10:30:41.642Z</time></trkpt><trkpt lat="45.5376225" lon="10.49012"><ele>298.0</ele><time>2026-04-18T10:30:42.641Z</time></trkpt><trkpt lat="45.5377074" lon="10.4901252"><ele>298.0</ele><time>2026-04-18T10:30:43.642Z</time></trkpt><trkpt lat="45.5377721" lon="10.4901572"><ele>298.0</ele><time>2026-04-18T10:30:44.641Z</time></trkpt><trkpt lat="45.5378397" lon="10.4901751"><ele>298.0</ele><time>2026-04-18T10:30:45.641Z</time></trkpt><trkpt lat="45.5379127" lon="10.4901969"><ele>298.0</ele><time>2026-04-18T10:30:46.642Z</time></trkpt><trkpt lat="45.5380138" lon="10.4901911"><ele>299.0</ele><time>2026-04-18T10:30:47.64Z</time></trkpt><trkpt lat="45.5381004" lon="10.4902055"><ele>300.0</ele><time>2026-04-18T10:30:48.641Z</time></trkpt><trkpt lat="45.5381802" lon="10.4902269"><ele>301.0</ele><time>2026-04-18T10:30:49.641Z</time></trkpt><trkpt lat="45.5382581" lon="10.4902581"><ele>302.0</ele><time>2026-04-18T10:30:50.64Z</time></trkpt><trkpt lat="45.5383415" lon="10.4902883"><ele>303.0</ele><time>2026-04-18T10:30:51.641Z</time></trkpt><trkpt lat="45.5384168" lon="10.4903266"><ele>304.0</ele><time>2026-04-18T10:30:52.641Z</time></trkpt><trkpt lat="45.5384887" lon="10.4903682"><ele>304.0</ele><time>2026-04-18T10:30:53.641Z</time></trkpt><trkpt lat="45.5385708" lon="10.490413"><ele>304.0</ele><time>2026-04-18T10:30:54.641Z</time></trkpt><trkpt lat="45.5386412" lon="10.4904448"><ele>304.0</ele><time>2026-04-18T10:30:55.64Z</time></trkpt><trkpt lat="45.5387348" lon="10.4904602"><ele>304.0</ele><time>2026-04-18T10:30:56.641Z</time></trkpt><trkpt lat="45.5388233" lon="10.4905133"><ele>304.0</ele><time>2026-04-18T10:30:57.642Z</time></trkpt><trkpt lat="45.5388983" lon="10.490558"><ele>304.0</ele><time>2026-04-18T10:30:58.642Z</time></trkpt><trkpt lat="45.5389828" lon="10.490587"><ele>303.2</ele><time>2026-04-18T10:30:59.641Z</time></trkpt><trkpt lat="45.539084" lon="10.4906065"><ele>302.4</ele><time>2026-04-18T10:31:00.641Z</time></trkpt><trkpt lat="45.5391613" lon="10.4906345"><ele>301.6</ele><time>2026-04-18T10:31:01.641Z</time></trkpt><trkpt lat="45.5392654" lon="10.4906812"><ele>300.8</ele><time>2026-04-18T10:31:02.64Z</time></trkpt><trkpt lat="45.5393636" lon="10.4907141"><ele>300.0</ele><time>2026-04-18T10:31:03.642Z</time></trkpt><trkpt lat="45.5394473" lon="10.4907463"><ele>300.0</ele><time>2026-04-18T10:31:04.641Z</time></trkpt><trkpt lat="45.5395259" lon="10.4907646"><ele>300.0</ele><time>2026-04-18T10:31:05.642Z</time></trkpt><trkpt lat="45.5395939" lon="10.490789"><ele>300.0</ele><time>2026-04-18T10:31:07.642Z</time></trkpt><trkpt lat="45.5396835" lon="10.4908736"><ele>300.0</ele><time>2026-04-18T10:31:18.641Z</time></trkpt><trkpt lat="45.5397866" lon="10.490952"><ele>300.0</ele><time>2026-04-18T10:31:20.641Z</time></trkpt><trkpt lat="45.5398851" lon="10.4910275"><ele>300.2</ele><time>2026-04-18T10:31:22.642Z</time></trkpt><trkpt lat="45.5399713" lon="10.4911231"><ele>300.4</ele><time>2026-04-18T10:31:24.642Z</time></trkpt><trkpt lat="45.5400647" lon="10.4912072"><ele>300.6</ele><time>2026-04-18T10:31:26.64Z</time></trkpt><trkpt lat="45.5401426" lon="10.4912961"><ele>300.8</ele><time>2026-04-18T10:31:28.641Z</time></trkpt><trkpt lat="45.5402271" lon="10.4913613"><ele>301.0</ele><time>2026-04-18T10:31:30.641Z</time></trkpt><trkpt lat="45.5402897" lon="10.4914383"><ele>299.2</ele><time>2026-04-18T10:31:32.641Z</time></trkpt><trkpt lat="45.5403252" lon="10.4915538"><ele>297.40000000000003</ele><time>2026-04-18T10:31:34.641Z</time></trkpt><trkpt lat="45.540335" lon="10.4917125"><ele>295.6</ele><time>2026-04-18T10:31:36.641Z</time></trkpt><trkpt lat="45.5403133" lon="10.4918468"><ele>293.8</ele><time>2026-04-18T10:31:38.641Z</time></trkpt><trkpt lat="45.5402815" lon="10.4919353"><ele>292.0</ele><time>2026-04-18T10:31:40.642Z</time></trkpt><trkpt lat="45.5403654" lon="10.4919514"><ele>292.0</ele><time>2026-04-18T10:31:43.643Z</time></trkpt><trkpt lat="45.5403458" lon="10.491779"><ele>292.0</ele><time>2026-04-18T10:31:46.641Z</time></trkpt><trkpt lat="45.5403337" lon="10.4916081"><ele>292.0</ele><time>2026-04-18T10:31:48.641Z</time></trkpt><trkpt lat="45.5403027" lon="10.4914451"><ele>292.0</ele><time>2026-04-18T10:31:50.643Z</time></trkpt><trkpt lat="45.5402456" lon="10.4913475"><ele>292.0</ele><time>2026-04-18T10:31:52.641Z</time></trkpt><trkpt lat="45.540164" lon="10.4912831"><ele>292.0</ele><time>2026-04-18T10:31:54.642Z</time></trkpt><trkpt lat="45.540067" lon="10.4911856"><ele>292.0</ele><time>2026-04-18T10:31:56.641Z</time></trkpt><trkpt lat="45.5400146" lon="10.4911333"><ele>292.0</ele><time>2026-04-18T10:31:57.641Z</time></trkpt><trkpt lat="45.5399118" lon="10.4910439"><ele>292.0</ele><time>2026-04-18T10:31:59.64Z</time></trkpt><trkpt lat="45.5398208" lon="10.4909712"><ele>293.5</ele><time>2026-04-18T10:32:01.64Z</time></trkpt><trkpt lat="45.5397223" lon="10.4909005"><ele>295.0</ele><time>2026-04-18T10:32:03.642Z</time></trkpt><trkpt lat="45.5396639" lon="10.4908322"><ele>296.5</ele><time>2026-04-18T10:32:05.643Z</time></trkpt><trkpt lat="45.5397761" lon="10.490838"><ele>298.0</ele><time>2026-04-18T10:32:09.642Z</time></trkpt><trkpt lat="45.5398355" lon="10.4908718"><ele>299.5</ele><time>2026-04-18T10:32:10.64Z</time></trkpt><trkpt lat="45.5399057" lon="10.4909093"><ele>301.0</ele><time>2026-04-18T10:32:11.641Z</time></trkpt><trkpt lat="45.5399803" lon="10.4909395"><ele>301.0</ele><time>2026-04-18T10:32:12.642Z</time></trkpt><trkpt lat="45.5400529" lon="10.4909673"><ele>301.0</ele><time>2026-04-18T10:32:13.64Z</time></trkpt><trkpt lat="45.540115" lon="10.4909822"><ele>301.0</ele><time>2026-04-18T10:32:14.642Z</time></trkpt><trkpt lat="45.5402027" lon="10.4910104"><ele>301.0</ele><time>2026-04-18T10:32:16.641Z</time></trkpt><trkpt lat="45.5402691" lon="10.4910194"><ele>301.0</ele><time>2026-04-18T10:34:26.64Z</time></trkpt><trkpt lat="45.5403443" lon="10.4910279"><ele>301.0</ele><time>2026-04-18T10:34:28.64Z</time></trkpt><trkpt lat="45.5404513" lon="10.49103"><ele>300.8</ele><time>2026-04-18T10:34:30.643Z</time></trkpt><trkpt lat="45.540571" lon="10.4910201"><ele>300.6</ele><time>2026-04-18T10:34:32.641Z</time></trkpt><trkpt lat="45.5406344" lon="10.4910151"><ele>300.4</ele><time>2026-04-18T10:34:33.64Z</time></trkpt><trkpt lat="45.5407472" lon="10.4910071"><ele>300.2</ele><time>2026-04-18T10:34:35.641Z</time></trkpt><trkpt lat="45.5408689" lon="10.4909748"><ele>300.0</ele><time>2026-04-18T10:34:37.642Z</time></trkpt><trkpt lat="45.5409388" lon="10.4909607"><ele>300.0</ele><time>2026-04-18T10:34:38.641Z</time></trkpt><trkpt lat="45.54101" lon="10.4909507"><ele>300.0</ele><time>2026-04-18T10:34:39.641Z</time></trkpt><trkpt lat="45.541079" lon="10.4909457"><ele>300.0</ele><time>2026-04-18T10:34:40.642Z</time></trkpt><trkpt lat="45.5411475" lon="10.4909492"><ele>300.0</ele><time>2026-04-18T10:34:41.641Z</time></trkpt><trkpt lat="45.5412125" lon="10.4909562"><ele>300.0</ele><time>2026-04-18T10:34:42.64Z</time></trkpt><trkpt lat="45.5412826" lon="10.4909608"><ele>300.0</ele><time>2026-04-18T10:34:43.639Z</time></trkpt><trkpt lat="45.5414064" lon="10.4909685"><ele>299.2</ele><time>2026-04-18T10:34:45.641Z</time></trkpt><trkpt lat="45.5415164" lon="10.4909733"><ele>298.4</ele><time>2026-04-18T10:34:47.641Z</time></trkpt><trkpt lat="45.5416272" lon="10.4909865"><ele>297.6</ele><time>2026-04-18T10:34:49.641Z</time></trkpt><trkpt lat="45.5417469" lon="10.4909959"><ele>296.8</ele><time>2026-04-18T10:34:51.641Z</time></trkpt><trkpt lat="45.5418173" lon="10.4910074"><ele>296.0</ele><time>2026-04-18T10:34:52.641Z</time></trkpt><trkpt lat="45.5418955" lon="10.4910262"><ele>296.0</ele><time>2026-04-18T10:34:53.641Z</time></trkpt><trkpt lat="45.5419802" lon="10.4910486"><ele>296.0</ele><time>2026-04-18T10:34:54.641Z</time></trkpt><trkpt lat="45.5420643" lon="10.4910708"><ele>296.0</ele><time>2026-04-18T10:34:55.64Z</time></trkpt><trkpt lat="45.5421358" lon="10.4910873"><ele>296.0</ele><time>2026-04-18T10:34:56.641Z</time></trkpt><trkpt lat="45.5422103" lon="10.4911063"><ele>296.0</ele><time>2026-04-18T10:34:57.641Z</time></trkpt><trkpt lat="45.5422775" lon="10.4911224"><ele>296.0</ele><time>2026-04-18T10:34:58.64Z</time></trkpt><trkpt lat="45.5423393" lon="10.4911567"><ele>295.6666666666667</ele><time>2026-04-18T10:34:59.641Z</time></trkpt><trkpt lat="45.5424476" lon="10.491214"><ele>295.33333333333337</ele><time>2026-04-18T10:35:01.641Z</time></trkpt><trkpt lat="45.5425097" lon="10.4912489"><ele>295.0</ele><time>2026-04-18T10:35:03.64Z</time></trkpt><trkpt lat="45.542532" lon="10.4913357"><ele>294.6666666666667</ele><time>2026-04-18T10:35:10.641Z</time></trkpt><trkpt lat="45.5425031" lon="10.4914225"><ele>294.3333333333333</ele><time>2026-04-18T10:35:12.64Z</time></trkpt><trkpt lat="45.5424379" lon="10.4914846"><ele>294.0</ele><time>2026-04-18T10:35:14.642Z</time></trkpt><trkpt lat="45.5423643" lon="10.4915289"><ele>292.8</ele><time>2026-04-18T10:35:16.641Z</time></trkpt><trkpt lat="45.5422626" lon="10.4915404"><ele>291.59999999999997</ele><time>2026-04-18T10:35:18.64Z</time></trkpt><trkpt lat="45.5421567" lon="10.4916102"><ele>290.4</ele><time>2026-04-18T10:35:20.64Z</time></trkpt><trkpt lat="45.5420802" lon="10.4916823"><ele>289.2</ele><time>2026-04-18T10:35:22.641Z</time></trkpt><trkpt lat="45.5420056" lon="10.4917264"><ele>288.0</ele><time>2026-04-18T10:35:25.64Z</time></trkpt><trkpt lat="45.5419501" lon="10.4918061"><ele>288.0</ele><time>2026-04-18T10:35:28.64Z</time></trkpt><trkpt lat="45.542023" lon="10.4917486"><ele>288.0</ele><time>2026-04-18T10:35:30.641Z</time></trkpt><trkpt lat="45.5420796" lon="10.4916784"><ele>288.0</ele><time>2026-04-18T10:35:31.642Z</time></trkpt><trkpt lat="45.5421609" lon="10.4916006"><ele>288.0</ele><time>2026-04-18T10:35:32.641Z</time></trkpt><trkpt lat="45.5422405" lon="10.4915467"><ele>288.0</ele><time>2026-04-18T10:35:33.641Z</time></trkpt><trkpt lat="45.5423187" lon="10.4915172"><ele>288.0</ele><time>2026-04-18T10:35:34.641Z</time></trkpt><trkpt lat="45.5423938" lon="10.4915"><ele>288.0</ele><time>2026-04-18T10:35:35.641Z</time></trkpt><trkpt lat="45.5424796" lon="10.4914444"><ele>288.0</ele><time>2026-04-18T10:35:37.641Z</time></trkpt><trkpt lat="45.5425321" lon="10.4913469"><ele>288.0</ele><time>2026-04-18T10:35:39.642Z</time></trkpt><trkpt lat="45.5425867" lon="10.491268"><ele>288.0</ele><time>2026-04-18T10:35:41.64Z</time></trkpt><trkpt lat="45.5426512" lon="10.4912026"><ele>288.0</ele><time>2026-04-18T10:35:44.639Z</time></trkpt><trkpt lat="45.5426511" lon="10.4911125"><ele>288.0</ele><time>2026-04-18T10:35:46.641Z</time></trkpt><trkpt lat="45.5427342" lon="10.4911032"><ele>288.0</ele><time>2026-04-18T10:35:50.641Z</time></trkpt><trkpt lat="45.5427906" lon="10.4911584"><ele>288.0</ele><time>2026-04-18T10:35:52.641Z</time></trkpt><trkpt lat="45.5428505" lon="10.4912458"><ele>288.0</ele><time>2026-04-18T10:35:54.64Z</time></trkpt><trkpt lat="45.5428868" lon="10.4913199"><ele>288.0</ele><time>2026-04-18T10:36:00.64Z</time></trkpt><trkpt lat="45.5428573" lon="10.4914137"><ele>288.0</ele><time>2026-04-18T10:36:02.64Z</time></trkpt><trkpt lat="45.5428325" lon="10.4915161"><ele>288.0</ele><time>2026-04-18T10:36:06.64Z</time></trkpt><trkpt lat="45.5427601" lon="10.4915883"><ele>288.0</ele><time>2026-04-18T10:36:08.641Z</time></trkpt><trkpt lat="45.5426758" lon="10.4916242"><ele>288.0</ele><time>2026-04-18T10:36:10.64Z</time></trkpt><trkpt lat="45.5426061" lon="10.4916463"><ele>288.0</ele><time>2026-04-18T10:36:12.639Z</time></trkpt><trkpt lat="45.5425347" lon="10.491666"><ele>288.0</ele><time>2026-04-18T10:36:14.639Z</time></trkpt><trkpt lat="45.5424562" lon="10.4916651"><ele>288.0</ele><time>2026-04-18T10:36:16.64Z</time></trkpt><trkpt lat="45.5423709" lon="10.4916566"><ele>288.0</ele><time>2026-04-18T10:36:18.641Z</time></trkpt><trkpt lat="45.5422853" lon="10.4916353"><ele>288.0</ele><time>2026-04-18T10:36:20.641Z</time></trkpt><trkpt lat="45.5422054" lon="10.4916649"><ele>288.0</ele><time>2026-04-18T10:36:22.641Z</time></trkpt><trkpt lat="45.5421277" lon="10.491706"><ele>288.0</ele><time>2026-04-18T10:36:24.641Z</time></trkpt><trkpt lat="45.542052" lon="10.4917324"><ele>288.0</ele><time>2026-04-18T10:36:26.64Z</time></trkpt><trkpt lat="45.5419992" lon="10.4918155"><ele>288.0</ele><time>2026-04-18T10:36:28.64Z</time></trkpt><trkpt lat="45.5420973" lon="10.4917938"><ele>288.0</ele><time>2026-04-18T10:36:30.641Z</time></trkpt><trkpt lat="45.5421708" lon="10.4917649"><ele>288.0</ele><time>2026-04-18T10:36:31.641Z</time></trkpt><trkpt lat="45.5422429" lon="10.4917566"><ele>288.0</ele><time>2026-04-18T10:36:32.64Z</time></trkpt><trkpt lat="45.5423117" lon="10.4917539"><ele>288.0</ele><time>2026-04-18T10:36:33.64Z</time></trkpt><trkpt lat="45.5424289" lon="10.4917577"><ele>288.0</ele><time>2026-04-18T10:36:35.64Z</time></trkpt><trkpt lat="45.542498" lon="10.4917549"><ele>288.0</ele><time>2026-04-18T10:36:47.641Z</time></trkpt><trkpt lat="45.5425763" lon="10.4917463"><ele>288.0</ele><time>2026-04-18T10:36:48.641Z</time></trkpt><trkpt lat="45.5426566" lon="10.4917391"><ele>288.0</ele><time>2026-04-18T10:36:49.641Z</time></trkpt><trkpt lat="45.5427553" lon="10.4917792"><ele>288.0</ele><time>2026-04-18T10:36:50.642Z</time></trkpt><trkpt lat="45.5428515" lon="10.491816"><ele>288.0</ele><time>2026-04-18T10:36:51.64Z</time></trkpt><trkpt lat="45.542936" lon="10.4918348"><ele>288.0</ele><time>2026-04-18T10:36:52.64Z</time></trkpt><trkpt lat="45.543019" lon="10.4918278"><ele>288.0</ele><time>2026-04-18T10:36:53.642Z</time></trkpt><trkpt lat="45.5431139" lon="10.4917892"><ele>286.4</ele><time>2026-04-18T10:36:54.64Z</time></trkpt><trkpt lat="45.5432137" lon="10.4917435"><ele>284.8</ele><time>2026-04-18T10:36:55.64Z</time></trkpt><trkpt lat="45.5432967" lon="10.4916885"><ele>283.2</ele><time>2026-04-18T10:36:56.64Z</time></trkpt><trkpt lat="45.5433623" lon="10.4916465"><ele>281.6</ele><time>2026-04-18T10:36:57.64Z</time></trkpt><trkpt lat="45.5434296" lon="10.4916206"><ele>280.0</ele><time>2026-04-18T10:36:59.641Z</time></trkpt><trkpt lat="45.5434923" lon="10.4914858"><ele>280.0</ele><time>2026-04-18T10:37:07.64Z</time></trkpt><trkpt lat="45.5435751" lon="10.4913834"><ele>280.0</ele><time>2026-04-18T10:37:09.64Z</time></trkpt><trkpt lat="45.5436852" lon="10.4913128"><ele>280.0</ele><time>2026-04-18T10:37:11.641Z</time></trkpt><trkpt lat="45.5437504" lon="10.4912582"><ele>280.0</ele><time>2026-04-18T10:37:12.64Z</time></trkpt><trkpt lat="45.5438099" lon="10.4912001"><ele>280.0</ele><time>2026-04-18T10:37:13.64Z</time></trkpt><trkpt lat="45.5439042" lon="10.4911325"><ele>280.0</ele><time>2026-04-18T10:37:15.641Z</time></trkpt><trkpt lat="45.543983" lon="10.4911193"><ele>280.0</ele><time>2026-04-18T10:37:18.642Z</time></trkpt><trkpt lat="45.5440564" lon="10.4910681"><ele>280.0</ele><time>2026-04-18T10:37:21.641Z</time></trkpt><trkpt lat="45.5441566" lon="10.4910829"><ele>280.0</ele><time>2026-04-18T10:37:33.641Z</time></trkpt><trkpt lat="45.5442431" lon="10.4911395"><ele>280.0</ele><time>2026-04-18T10:37:35.64Z</time></trkpt><trkpt lat="45.5443266" lon="10.4912175"><ele>279.2</ele><time>2026-04-18T10:37:37.64Z</time></trkpt><trkpt lat="45.5444312" lon="10.491298"><ele>278.4</ele><time>2026-04-18T10:37:39.64Z</time></trkpt><trkpt lat="45.544541" lon="10.4913522"><ele>277.6</ele><time>2026-04-18T10:37:41.642Z</time></trkpt><trkpt lat="45.5446037" lon="10.4913772"><ele>276.8</ele><time>2026-04-18T10:37:42.64Z</time></trkpt><trkpt lat="45.5446623" lon="10.4914106"><ele>276.0</ele><time>2026-04-18T10:37:43.641Z</time></trkpt><trkpt lat="45.5447479" lon="10.4914792"><ele>274.6666666666667</ele><time>2026-04-18T10:37:45.641Z</time></trkpt><trkpt lat="45.5448422" lon="10.4914509"><ele>273.3333333333333</ele><time>2026-04-18T10:37:47.64Z</time></trkpt><trkpt lat="45.5449092" lon="10.4913778"><ele>272.0</ele><time>2026-04-18T10:37:49.64Z</time></trkpt><trkpt lat="45.5449836" lon="10.4913539"><ele>270.66666666666663</ele><time>2026-04-18T10:37:51.639Z</time></trkpt><trkpt lat="45.5450918" lon="10.4914016"><ele>269.3333333333333</ele><time>2026-04-18T10:37:53.639Z</time></trkpt><trkpt lat="45.545162" lon="10.4914399"><ele>268.0</ele><time>2026-04-18T10:37:54.64Z</time></trkpt><trkpt lat="45.5452355" lon="10.4914822"><ele>268.0</ele><time>2026-04-18T10:37:55.64Z</time></trkpt><trkpt lat="45.5453104" lon="10.491527"><ele>268.0</ele><time>2026-04-18T10:37:56.64Z</time></trkpt><trkpt lat="45.5453982" lon="10.4915665"><ele>268.0</ele><time>2026-04-18T10:37:57.64Z</time></trkpt><trkpt lat="45.5454904" lon="10.491615"><ele>268.0</ele><time>2026-04-18T10:37:58.641Z</time></trkpt><trkpt lat="45.5455803" lon="10.491662"><ele>268.0</ele><time>2026-04-18T10:37:59.641Z</time></trkpt><trkpt lat="45.5456645" lon="10.4917049"><ele>267.66666666666663</ele><time>2026-04-18T10:38:00.641Z</time></trkpt><trkpt lat="45.5457419" lon="10.491743"><ele>267.3333333333333</ele><time>2026-04-18T10:38:01.641Z</time></trkpt><trkpt lat="45.5458166" lon="10.49177"><ele>267.0</ele><time>2026-04-18T10:38:02.64Z</time></trkpt><trkpt lat="45.5458833" lon="10.491801"><ele>266.6666666666667</ele><time>2026-04-18T10:38:03.64Z</time></trkpt><trkpt lat="45.5459498" lon="10.4918335"><ele>266.33333333333337</ele><time>2026-04-18T10:38:04.64Z</time></trkpt><trkpt lat="45.5460239" lon="10.4918681"><ele>266.0</ele><time>2026-04-18T10:38:05.639Z</time></trkpt><trkpt lat="45.5461592" lon="10.4919058"><ele>265.0</ele><time>2026-04-18T10:38:07.64Z</time></trkpt><trkpt lat="45.5462599" lon="10.4918216"><ele>264.0</ele><time>2026-04-18T10:38:09.64Z</time></trkpt><trkpt lat="45.5463133" lon="10.4917449"><ele>263.0</ele><time>2026-04-18T10:38:10.64Z</time></trkpt><trkpt lat="45.5463724" lon="10.4916608"><ele>262.0</ele><time>2026-04-18T10:38:11.641Z</time></trkpt><trkpt lat="45.5464308" lon="10.4915763"><ele>261.0</ele><time>2026-04-18T10:38:12.64Z</time></trkpt><trkpt lat="45.5464801" lon="10.4915007"><ele>260.0</ele><time>2026-04-18T10:38:13.64Z</time></trkpt><trkpt lat="45.5465509" lon="10.4913561"><ele>260.0</ele><time>2026-04-18T10:38:15.639Z</time></trkpt><trkpt lat="45.546583" lon="10.491267"><ele>260.0</ele><time>2026-04-18T10:38:16.639Z</time></trkpt><trkpt lat="45.5466538" lon="10.4911324"><ele>260.0</ele><time>2026-04-18T10:38:18.64Z</time></trkpt><trkpt lat="45.5467332" lon="10.4910235"><ele>260.0</ele><time>2026-04-18T10:38:20.639Z</time></trkpt><trkpt lat="45.5468437" lon="10.4909509"><ele>260.0</ele><time>2026-04-18T10:38:22.641Z</time></trkpt><trkpt lat="45.5469475" lon="10.4908657"><ele>260.2</ele><time>2026-04-18T10:38:24.64Z</time></trkpt><trkpt lat="45.5470067" lon="10.4908119"><ele>260.4</ele><time>2026-04-18T10:38:25.64Z</time></trkpt><trkpt lat="45.5470643" lon="10.4907536"><ele>260.6</ele><time>2026-04-18T10:38:26.64Z</time></trkpt><trkpt lat="45.5471295" lon="10.4906675"><ele>260.8</ele><time>2026-04-18T10:38:27.64Z</time></trkpt><trkpt lat="45.5471928" lon="10.4905883"><ele>261.0</ele><time>2026-04-18T10:38:28.641Z</time></trkpt><trkpt lat="45.5472628" lon="10.490408"><ele>261.0</ele><time>2026-04-18T10:38:30.64Z</time></trkpt><trkpt lat="45.5473235" lon="10.4902877"><ele>261.0</ele><time>2026-04-18T10:38:31.64Z</time></trkpt><trkpt lat="45.547378" lon="10.4901723"><ele>261.0</ele><time>2026-04-18T10:38:32.64Z</time></trkpt><trkpt lat="45.5474275" lon="10.4900477"><ele>261.0</ele><time>2026-04-18T10:38:33.64Z</time></trkpt><trkpt lat="45.5474741" lon="10.4899189"><ele>261.0</ele><time>2026-04-18T10:38:34.64Z</time></trkpt><trkpt lat="45.5475167" lon="10.4897956"><ele>261.0</ele><time>2026-04-18T10:38:35.639Z</time></trkpt><trkpt lat="45.5475662" lon="10.4897246"><ele>261.0</ele><time>2026-04-18T10:38:36.64Z</time></trkpt><trkpt lat="45.547607" lon="10.4896182"><ele>261.0</ele><time>2026-04-18T10:38:37.639Z</time></trkpt><trkpt lat="45.5476462" lon="10.4895142"><ele>261.0</ele><time>2026-04-18T10:38:38.64Z</time></trkpt><trkpt lat="45.5476868" lon="10.4894038"><ele>261.0</ele><time>2026-04-18T10:38:39.64Z</time></trkpt><trkpt lat="45.547724" lon="10.4893039"><ele>261.0</ele><time>2026-04-18T10:38:40.641Z</time></trkpt><trkpt lat="45.5477683" lon="10.4892122"><ele>260.0</ele><time>2026-04-18T10:38:41.64Z</time></trkpt><trkpt lat="45.5477999" lon="10.4891137"><ele>259.0</ele><time>2026-04-18T10:38:42.64Z</time></trkpt><trkpt lat="45.5478326" lon="10.4889999"><ele>258.0</ele><time>2026-04-18T10:38:43.64Z</time></trkpt><trkpt lat="45.5478664" lon="10.4888923"><ele>257.0</ele><time>2026-04-18T10:38:44.639Z</time></trkpt><trkpt lat="45.5478982" lon="10.488781"><ele>256.0</ele><time>2026-04-18T10:38:45.64Z</time></trkpt><trkpt lat="45.5479259" lon="10.4886613"><ele>255.0</ele><time>2026-04-18T10:38:46.64Z</time></trkpt><trkpt lat="45.5479494" lon="10.488543"><ele>255.0</ele><time>2026-04-18T10:38:47.64Z</time></trkpt><trkpt lat="45.547974" lon="10.4884139"><ele>255.0</ele><time>2026-04-18T10:38:48.64Z</time></trkpt><trkpt lat="45.5480017" lon="10.4882922"><ele>255.0</ele><time>2026-04-18T10:38:49.639Z</time></trkpt><trkpt lat="45.5480326" lon="10.4881761"><ele>255.0</ele><time>2026-04-18T10:38:50.639Z</time></trkpt><trkpt lat="45.5480704" lon="10.4880608"><ele>255.0</ele><time>2026-04-18T10:38:51.64Z</time></trkpt><trkpt lat="45.5481057" lon="10.4879419"><ele>255.83333333333334</ele><time>2026-04-18T10:38:52.64Z</time></trkpt><trkpt lat="45.5481304" lon="10.4878156"><ele>256.6666666666667</ele><time>2026-04-18T10:38:53.64Z</time></trkpt><trkpt lat="45.5481585" lon="10.4876902"><ele>257.5</ele><time>2026-04-18T10:38:54.639Z</time></trkpt><trkpt lat="45.5481938" lon="10.4875775"><ele>258.33333333333337</ele><time>2026-04-18T10:38:55.641Z</time></trkpt><trkpt lat="45.5482245" lon="10.4874689"><ele>259.1666666666667</ele><time>2026-04-18T10:38:56.64Z</time></trkpt><trkpt lat="45.5482456" lon="10.4873493"><ele>260.0</ele><time>2026-04-18T10:38:57.64Z</time></trkpt><trkpt lat="45.5482714" lon="10.4872655"><ele>260.0</ele><time>2026-04-18T10:38:58.64Z</time></trkpt><trkpt lat="45.5483304" lon="10.4871264"><ele>260.0</ele><time>2026-04-18T10:39:00.639Z</time></trkpt><trkpt lat="45.5483798" lon="10.4869483"><ele>260.0</ele><time>2026-04-18T10:39:02.639Z</time></trkpt><trkpt lat="45.5484083" lon="10.4868359"><ele>260.0</ele><time>2026-04-18T10:39:03.64Z</time></trkpt><trkpt lat="45.5484337" lon="10.4867139"><ele>260.0</ele><time>2026-04-18T10:39:04.64Z</time></trkpt><trkpt lat="45.5484583" lon="10.4865888"><ele>261.5</ele><time>2026-04-18T10:39:05.64Z</time></trkpt><trkpt lat="45.5484819" lon="10.4864765"><ele>263.0</ele><time>2026-04-18T10:39:06.64Z</time></trkpt><trkpt lat="45.5485123" lon="10.48638"><ele>264.5</ele><time>2026-04-18T10:39:07.641Z</time></trkpt><trkpt lat="45.5485416" lon="10.4862721"><ele>266.0</ele><time>2026-04-18T10:39:08.64Z</time></trkpt><trkpt lat="45.5485667" lon="10.4861829"><ele>267.5</ele><time>2026-04-18T10:39:09.641Z</time></trkpt><trkpt lat="45.5485921" lon="10.486095"><ele>269.0</ele><time>2026-04-18T10:39:10.64Z</time></trkpt><trkpt lat="45.5486226" lon="10.4859841"><ele>268.1666666666667</ele><time>2026-04-18T10:39:12.64Z</time></trkpt><trkpt lat="45.5486551" lon="10.4858894"><ele>267.33333333333337</ele><time>2026-04-18T10:39:14.639Z</time></trkpt><trkpt lat="45.5487067" lon="10.4857926"><ele>266.5</ele><time>2026-04-18T10:39:16.641Z</time></trkpt><trkpt lat="45.5487492" lon="10.4857102"><ele>265.6666666666667</ele><time>2026-04-18T10:39:18.64Z</time></trkpt><trkpt lat="45.5488241" lon="10.4856008"><ele>264.8333333333333</ele><time>2026-04-18T10:39:20.64Z</time></trkpt><trkpt lat="45.5488922" lon="10.4854767"><ele>264.0</ele><time>2026-04-18T10:39:22.641Z</time></trkpt><trkpt lat="45.5489531" lon="10.4853552"><ele>264.0</ele><time>2026-04-18T10:39:24.641Z</time></trkpt><trkpt lat="45.5490236" lon="10.4851986"><ele>264.0</ele><time>2026-04-18T10:39:26.64Z</time></trkpt><trkpt lat="45.5490587" lon="10.485107"><ele>264.0</ele><time>2026-04-18T10:39:27.641Z</time></trkpt><trkpt lat="45.5490942" lon="10.4850187"><ele>264.0</ele><time>2026-04-18T10:39:28.64Z</time></trkpt><trkpt lat="45.549124" lon="10.4849062"><ele>264.0</ele><time>2026-04-18T10:39:29.64Z</time></trkpt><trkpt lat="45.5491633" lon="10.4848148"><ele>264.0</ele><time>2026-04-18T10:39:30.64Z</time></trkpt><trkpt lat="45.5491964" lon="10.48472"><ele>264.0</ele><time>2026-04-18T10:39:31.64Z</time></trkpt><trkpt lat="45.5492348" lon="10.4846243"><ele>264.0</ele><time>2026-04-18T10:39:32.64Z</time></trkpt><trkpt lat="45.5492746" lon="10.4845258"><ele>264.0</ele><time>2026-04-18T10:39:33.64Z</time></trkpt><trkpt lat="45.5493166" lon="10.4844288"><ele>264.0</ele><time>2026-04-18T10:39:34.64Z</time></trkpt><trkpt lat="45.5493718" lon="10.4843402"><ele>264.0</ele><time>2026-04-18T10:39:35.64Z</time></trkpt><trkpt lat="45.549425" lon="10.4842484"><ele>264.0</ele><time>2026-04-18T10:39:36.641Z</time></trkpt><trkpt lat="45.5494834" lon="10.4841589"><ele>263.59999999999997</ele><time>2026-04-18T10:39:37.64Z</time></trkpt><trkpt lat="45.5495527" lon="10.4840748"><ele>263.2</ele><time>2026-04-18T10:39:38.64Z</time></trkpt><trkpt lat="45.5496343" lon="10.4840138"><ele>262.79999999999995</ele><time>2026-04-18T10:39:39.639Z</time></trkpt><trkpt lat="45.5497186" lon="10.4839578"><ele>262.4</ele><time>2026-04-18T10:39:40.64Z</time></trkpt><trkpt lat="45.5498065" lon="10.483911"><ele>262.0</ele><time>2026-04-18T10:39:41.64Z</time></trkpt><trkpt lat="45.5498893" lon="10.4838724"><ele>262.0</ele><time>2026-04-18T10:39:42.64Z</time></trkpt><trkpt lat="45.5499751" lon="10.4838493"><ele>262.0</ele><time>2026-04-18T10:39:43.64Z</time></trkpt><trkpt lat="45.5500654" lon="10.4838494"><ele>262.0</ele><time>2026-04-18T10:39:44.64Z</time></trkpt><trkpt lat="45.5501559" lon="10.4838613"><ele>262.0</ele><time>2026-04-18T10:39:45.641Z</time></trkpt><trkpt lat="45.5502409" lon="10.4838721"><ele>262.0</ele><time>2026-04-18T10:39:46.639Z</time></trkpt><trkpt lat="45.550328" lon="10.483856"><ele>262.0</ele><time>2026-04-18T10:39:47.64Z</time></trkpt><trkpt lat="45.5504192" lon="10.4838275"><ele>261.0</ele><time>2026-04-18T10:39:48.639Z</time></trkpt><trkpt lat="45.55051" lon="10.4837834"><ele>260.0</ele><time>2026-04-18T10:39:49.638Z</time></trkpt><trkpt lat="45.5505952" lon="10.48372"><ele>259.0</ele><time>2026-04-18T10:39:50.638Z</time></trkpt><trkpt lat="45.5506829" lon="10.4836566"><ele>258.0</ele><time>2026-04-18T10:39:51.639Z</time></trkpt><trkpt lat="45.5507698" lon="10.4835977"><ele>257.0</ele><time>2026-04-18T10:39:52.64Z</time></trkpt><trkpt lat="45.5508555" lon="10.4835406"><ele>258.83333333333337</ele><time>2026-04-18T10:39:53.64Z</time></trkpt><trkpt lat="45.5509365" lon="10.4834782"><ele>260.6666666666667</ele><time>2026-04-18T10:39:54.639Z</time></trkpt><trkpt lat="45.5510148" lon="10.4834138"><ele>262.5</ele><time>2026-04-18T10:39:55.639Z</time></trkpt><trkpt lat="45.5510929" lon="10.483355"><ele>264.3333333333333</ele><time>2026-04-18T10:39:56.639Z</time></trkpt><trkpt lat="45.551167" lon="10.4832886"><ele>266.16666666666663</ele><time>2026-04-18T10:39:57.639Z</time></trkpt><trkpt lat="45.5512397" lon="10.4832244"><ele>268.0</ele><time>2026-04-18T10:39:58.639Z</time></trkpt><trkpt lat="45.5513162" lon="10.4831769"><ele>268.5</ele><time>2026-04-18T10:39:59.64Z</time></trkpt><trkpt lat="45.5513813" lon="10.4831515"><ele>269.0</ele><time>2026-04-18T10:40:00.64Z</time></trkpt><trkpt lat="45.5514508" lon="10.4831608"><ele>269.5</ele><time>2026-04-18T10:40:02.64Z</time></trkpt><trkpt lat="45.5515202" lon="10.483273"><ele>270.0</ele><time>2026-04-18T10:40:05.64Z</time></trkpt><trkpt lat="45.5515713" lon="10.4833374"><ele>270.5</ele><time>2026-04-18T10:40:06.639Z</time></trkpt><trkpt lat="45.5516191" lon="10.4833986"><ele>271.0</ele><time>2026-04-18T10:40:07.64Z</time></trkpt><trkpt lat="45.5517278" lon="10.4834498"><ele>271.0</ele><time>2026-04-18T10:40:09.639Z</time></trkpt><trkpt lat="45.5517717" lon="10.4833744"><ele>271.0</ele><time>2026-04-18T10:40:10.641Z</time></trkpt><trkpt lat="45.5518064" lon="10.4832799"><ele>271.0</ele><time>2026-04-18T10:40:11.64Z</time></trkpt><trkpt lat="45.5518506" lon="10.4832076"><ele>271.0</ele><time>2026-04-18T10:40:12.64Z</time></trkpt><trkpt lat="45.5519697" lon="10.4831858"><ele>271.0</ele><time>2026-04-18T10:40:14.639Z</time></trkpt><trkpt lat="45.5520939" lon="10.4831894"><ele>273.75</ele><time>2026-04-18T10:40:16.641Z</time></trkpt><trkpt lat="45.5521934" lon="10.4831969"><ele>276.5</ele><time>2026-04-18T10:40:18.64Z</time></trkpt><trkpt lat="45.5522886" lon="10.4832766"><ele>279.25</ele><time>2026-04-18T10:40:20.64Z</time></trkpt><trkpt lat="45.5523794" lon="10.4834101"><ele>282.0</ele><time>2026-04-18T10:40:22.639Z</time></trkpt><trkpt lat="45.5524637" lon="10.483546"><ele>282.0</ele><time>2026-04-18T10:40:24.639Z</time></trkpt><trkpt lat="45.5525164" lon="10.4835991"><ele>282.0</ele><time>2026-04-18T10:40:25.64Z</time></trkpt><trkpt lat="45.5526045" lon="10.4836958"><ele>282.0</ele><time>2026-04-18T10:40:27.639Z</time></trkpt><trkpt lat="45.5526952" lon="10.4837797"><ele>282.0</ele><time>2026-04-18T10:40:29.639Z</time></trkpt><trkpt lat="45.5527586" lon="10.4838313"><ele>282.0</ele><time>2026-04-18T10:40:30.638Z</time></trkpt><trkpt lat="45.5528221" lon="10.4838924"><ele>282.0</ele><time>2026-04-18T10:40:31.638Z</time></trkpt><trkpt lat="45.5529065" lon="10.4839954"><ele>282.7142857142857</ele><time>2026-04-18T10:40:33.639Z</time></trkpt><trkpt lat="45.5529612" lon="10.4840409"><ele>283.42857142857144</ele><time>2026-04-18T10:40:34.639Z</time></trkpt><trkpt lat="45.5530378" lon="10.4839969"><ele>284.1428571428571</ele><time>2026-04-18T10:40:36.64Z</time></trkpt><trkpt lat="45.5531046" lon="10.4839929"><ele>284.8571428571429</ele><time>2026-04-18T10:40:37.639Z</time></trkpt><trkpt lat="45.5531648" lon="10.4839608"><ele>285.57142857142856</ele><time>2026-04-18T10:40:39.639Z</time></trkpt><trkpt lat="45.5532281" lon="10.4839836"><ele>286.2857142857143</ele><time>2026-04-18T10:40:41.639Z</time></trkpt><trkpt lat="45.5533025" lon="10.4839668"><ele>287.0</ele><time>2026-04-18T10:40:47.639Z</time></trkpt><trkpt lat="45.5533839" lon="10.4839166"><ele>287.0</ele><time>2026-04-18T10:40:50.639Z</time></trkpt><trkpt lat="45.5534984" lon="10.4839386"><ele>287.0</ele><time>2026-04-18T10:40:52.639Z</time></trkpt><trkpt lat="45.5536126" lon="10.4839779"><ele>287.0</ele><time>2026-04-18T10:40:54.639Z</time></trkpt><trkpt lat="45.5536799" lon="10.4840289"><ele>287.0</ele><time>2026-04-18T10:40:55.639Z</time></trkpt><trkpt lat="45.553742" lon="10.4840908"><ele>287.0</ele><time>2026-04-18T10:40:56.64Z</time></trkpt><trkpt lat="45.5538181" lon="10.4841537"><ele>287.0</ele><time>2026-04-18T10:40:57.639Z</time></trkpt><trkpt lat="45.5539044" lon="10.4842118"><ele>287.0</ele><time>2026-04-18T10:40:58.639Z</time></trkpt><trkpt lat="45.5539853" lon="10.484308"><ele>287.0</ele><time>2026-04-18T10:40:59.639Z</time></trkpt><trkpt lat="45.5540496" lon="10.4843763"><ele>287.0</ele><time>2026-04-18T10:41:00.64Z</time></trkpt><trkpt lat="45.5541001" lon="10.4844682"><ele>287.0</ele><time>2026-04-18T10:41:01.638Z</time></trkpt><trkpt lat="45.5541656" lon="10.4845426"><ele>287.0</ele><time>2026-04-18T10:41:02.639Z</time></trkpt><trkpt lat="45.5542322" lon="10.4846474"><ele>287.0</ele><time>2026-04-18T10:41:03.639Z</time></trkpt><trkpt lat="45.5542945" lon="10.4847498"><ele>287.0</ele><time>2026-04-18T10:41:04.639Z</time></trkpt><trkpt lat="45.5543705" lon="10.4848333"><ele>287.0</ele><time>2026-04-18T10:41:05.64Z</time></trkpt><trkpt lat="45.5544402" lon="10.484942"><ele>287.0</ele><time>2026-04-18T10:41:06.639Z</time></trkpt><trkpt lat="45.554484" lon="10.4850303"><ele>287.0</ele><time>2026-04-18T10:41:07.639Z</time></trkpt><trkpt lat="45.5545169" lon="10.4851217"><ele>287.0</ele><time>2026-04-18T10:41:08.638Z</time></trkpt><trkpt lat="45.5545656" lon="10.4852122"><ele>289.0</ele><time>2026-04-18T10:41:09.64Z</time></trkpt><trkpt lat="45.5546337" lon="10.4853349"><ele>291.0</ele><time>2026-04-18T10:41:11.64Z</time></trkpt><trkpt lat="45.5546445" lon="10.4854384"><ele>293.0</ele><time>2026-04-18T10:41:20.639Z</time></trkpt><trkpt lat="45.5546535" lon="10.485553"><ele>295.0</ele><time>2026-04-18T10:41:22.639Z</time></trkpt><trkpt lat="45.5547119" lon="10.4856991"><ele>297.0</ele><time>2026-04-18T10:41:24.64Z</time></trkpt><trkpt lat="45.5547447" lon="10.4857772"><ele>299.0</ele><time>2026-04-18T10:41:25.64Z</time></trkpt><trkpt lat="45.5547752" lon="10.4859439"><ele>299.0</ele><time>2026-04-18T10:41:27.64Z</time></trkpt><trkpt lat="45.5548186" lon="10.4860933"><ele>299.0</ele><time>2026-04-18T10:41:29.638Z</time></trkpt><trkpt lat="45.554863" lon="10.4862546"><ele>299.0</ele><time>2026-04-18T10:41:31.639Z</time></trkpt><trkpt lat="45.55488" lon="10.4863419"><ele>299.0</ele><time>2026-04-18T10:41:32.638Z</time></trkpt><trkpt lat="45.5549174" lon="10.4864652"><ele>299.0</ele><time>2026-04-18T10:41:34.639Z</time></trkpt><trkpt lat="45.5549781" lon="10.4865819"><ele>295.5</ele><time>2026-04-18T10:41:36.639Z</time></trkpt><trkpt lat="45.5550759" lon="10.4866712"><ele>292.0</ele><time>2026-04-18T10:41:38.64Z</time></trkpt><trkpt lat="45.5551641" lon="10.4868003"><ele>288.5</ele><time>2026-04-18T10:41:40.639Z</time></trkpt><trkpt lat="45.5552205" lon="10.486978"><ele>285.0</ele><time>2026-04-18T10:41:42.639Z</time></trkpt><trkpt lat="45.5552978" lon="10.4871202"><ele>281.8</ele><time>2026-04-18T10:41:44.639Z</time></trkpt><trkpt lat="45.55534" lon="10.4872614"><ele>278.6</ele><time>2026-04-18T10:41:46.639Z</time></trkpt><trkpt lat="45.5553625" lon="10.4873462"><ele>275.4</ele><time>2026-04-18T10:41:48.638Z</time></trkpt><trkpt lat="45.5553648" lon="10.4874621"><ele>272.2</ele><time>2026-04-18T10:41:53.639Z</time></trkpt><trkpt lat="45.5552887" lon="10.4876575"><ele>269.0</ele><time>2026-04-18T10:41:55.639Z</time></trkpt><trkpt lat="45.5552505" lon="10.4877516"><ele>269.0</ele><time>2026-04-18T10:41:56.639Z</time></trkpt><trkpt lat="45.5552262" lon="10.4878531"><ele>269.0</ele><time>2026-04-18T10:41:57.639Z</time></trkpt><trkpt lat="45.555207" lon="10.4879439"><ele>269.0</ele><time>2026-04-18T10:41:58.639Z</time></trkpt><trkpt lat="45.5551668" lon="10.4881012"><ele>269.0</ele><time>2026-04-18T10:42:00.639Z</time></trkpt><trkpt lat="45.5551631" lon="10.4882477"><ele>269.0</ele><time>2026-04-18T10:42:02.639Z</time></trkpt><trkpt lat="45.5551879" lon="10.4883591"><ele>269.0</ele><time>2026-04-18T10:42:05.639Z</time></trkpt><trkpt lat="45.5552224" lon="10.4884804"><ele>267.83333333333337</ele><time>2026-04-18T10:42:07.638Z</time></trkpt><trkpt lat="45.5552488" lon="10.4885817"><ele>266.6666666666667</ele><time>2026-04-18T10:42:08.64Z</time></trkpt><trkpt lat="45.5552698" lon="10.4886803"><ele>265.5</ele><time>2026-04-18T10:42:09.639Z</time></trkpt><trkpt lat="45.5552873" lon="10.4887918"><ele>264.3333333333333</ele><time>2026-04-18T10:42:10.639Z</time></trkpt><trkpt lat="45.5553204" lon="10.4889018"><ele>263.16666666666663</ele><time>2026-04-18T10:42:11.639Z</time></trkpt><trkpt lat="45.555345" lon="10.4890153"><ele>262.0</ele><time>2026-04-18T10:42:12.638Z</time></trkpt><trkpt lat="45.5553518" lon="10.4891489"><ele>262.4</ele><time>2026-04-18T10:42:13.639Z</time></trkpt><trkpt lat="45.5553679" lon="10.4892773"><ele>262.79999999999995</ele><time>2026-04-18T10:42:14.64Z</time></trkpt><trkpt lat="45.5553913" lon="10.489404"><ele>263.2</ele><time>2026-04-18T10:42:15.64Z</time></trkpt><trkpt lat="45.5554067" lon="10.4895335"><ele>263.59999999999997</ele><time>2026-04-18T10:42:16.639Z</time></trkpt><trkpt lat="45.555394" lon="10.4896707"><ele>264.0</ele><time>2026-04-18T10:42:17.638Z</time></trkpt><trkpt lat="45.5553647" lon="10.4898059"><ele>264.8</ele><time>2026-04-18T10:42:18.638Z</time></trkpt><trkpt lat="45.5553395" lon="10.4899235"><ele>265.59999999999997</ele><time>2026-04-18T10:42:19.638Z</time></trkpt><trkpt lat="45.555319" lon="10.4900384"><ele>266.4</ele><time>2026-04-18T10:42:20.639Z</time></trkpt><trkpt lat="45.5553161" lon="10.4901453"><ele>267.2</ele><time>2026-04-18T10:42:21.639Z</time></trkpt><trkpt lat="45.5553451" lon="10.4902432"><ele>268.0</ele><time>2026-04-18T10:42:22.639Z</time></trkpt><trkpt lat="45.5554875" lon="10.4902728"><ele>268.0</ele><time>2026-04-18T10:42:23.64Z</time></trkpt><trkpt lat="45.5555857" lon="10.4903356"><ele>268.0</ele><time>2026-04-18T10:42:24.639Z</time></trkpt><trkpt lat="45.5556696" lon="10.4904053"><ele>268.0</ele><time>2026-04-18T10:42:25.639Z</time></trkpt><trkpt lat="45.5557597" lon="10.4904711"><ele>268.0</ele><time>2026-04-18T10:42:26.639Z</time></trkpt><trkpt lat="45.5558397" lon="10.4905523"><ele>268.0</ele><time>2026-04-18T10:42:27.64Z</time></trkpt><trkpt lat="45.5559216" lon="10.4906396"><ele>267.2</ele><time>2026-04-18T10:42:28.639Z</time></trkpt><trkpt lat="45.5560002" lon="10.4907371"><ele>266.4</ele><time>2026-04-18T10:42:29.639Z</time></trkpt><trkpt lat="45.5560747" lon="10.490839"><ele>265.59999999999997</ele><time>2026-04-18T10:42:30.64Z</time></trkpt><trkpt lat="45.5561216" lon="10.4909771"><ele>264.8</ele><time>2026-04-18T10:42:31.639Z</time></trkpt><trkpt lat="45.5561546" lon="10.4910824"><ele>264.0</ele><time>2026-04-18T10:42:32.64Z</time></trkpt><trkpt lat="45.5561817" lon="10.4911702"><ele>264.5</ele><time>2026-04-18T10:42:33.639Z</time></trkpt><trkpt lat="45.5562053" lon="10.4912924"><ele>265.0</ele><time>2026-04-18T10:42:35.64Z</time></trkpt><trkpt lat="45.556251" lon="10.491361"><ele>265.5</ele><time>2026-04-18T10:42:38.64Z</time></trkpt><trkpt lat="45.5563247" lon="10.4913955"><ele>266.0</ele><time>2026-04-18T10:42:41.639Z</time></trkpt><trkpt lat="45.5563928" lon="10.491411"><ele>266.5</ele><time>2026-04-18T10:42:43.639Z</time></trkpt><trkpt lat="45.5564987" lon="10.4914573"><ele>267.0</ele><time>2026-04-18T10:42:45.64Z</time></trkpt><trkpt lat="45.5565656" lon="10.4914974"><ele>267.00000000000006</ele><time>2026-04-18T10:42:46.639Z</time></trkpt><trkpt lat="45.5566326" lon="10.4915166"><ele>267.0</ele><time>2026-04-18T10:42:47.639Z</time></trkpt><trkpt lat="45.5566968" lon="10.4915175"><ele>267.0</ele><time>2026-04-18T10:42:48.639Z</time></trkpt><trkpt lat="45.5567588" lon="10.4914795"><ele>267.0</ele><time>2026-04-18T10:42:49.639Z</time></trkpt><trkpt lat="45.5568065" lon="10.4914126"><ele>267.0</ele><time>2026-04-18T10:42:50.64Z</time></trkpt><trkpt lat="45.5568409" lon="10.491331"><ele>267.00000000000006</ele><time>2026-04-18T10:42:51.639Z</time></trkpt><trkpt lat="45.5568706" lon="10.4912367"><ele>267.0</ele><time>2026-04-18T10:42:52.639Z</time></trkpt><trkpt lat="45.5569004" lon="10.4911328"><ele>267.4</ele><time>2026-04-18T10:42:53.64Z</time></trkpt><trkpt lat="45.5569411" lon="10.4910285"><ele>267.79999999999995</ele><time>2026-04-18T10:42:54.64Z</time></trkpt><trkpt lat="45.5569914" lon="10.4909211"><ele>268.2</ele><time>2026-04-18T10:42:55.638Z</time></trkpt><trkpt lat="45.5570285" lon="10.4907968"><ele>268.59999999999997</ele><time>2026-04-18T10:42:56.638Z</time></trkpt><trkpt lat="45.5570539" lon="10.4906724"><ele>269.0</ele><time>2026-04-18T10:42:57.639Z</time></trkpt><trkpt lat="45.5570797" lon="10.4905424"><ele>269.33333333333337</ele><time>2026-04-18T10:42:58.639Z</time></trkpt><trkpt lat="45.5570962" lon="10.4904102"><ele>269.6666666666667</ele><time>2026-04-18T10:42:59.639Z</time></trkpt><trkpt lat="45.5571073" lon="10.4902765"><ele>270.0</ele><time>2026-04-18T10:43:00.639Z</time></trkpt><trkpt lat="45.5571428" lon="10.490115"><ele>270.3333333333333</ele><time>2026-04-18T10:43:02.64Z</time></trkpt><trkpt lat="45.5571852" lon="10.4900307"><ele>270.66666666666663</ele><time>2026-04-18T10:43:03.641Z</time></trkpt><trkpt lat="45.5572341" lon="10.489964"><ele>271.0</ele><time>2026-04-18T10:43:04.638Z</time></trkpt><trkpt lat="45.5572886" lon="10.4899127"><ele>271.0</ele><time>2026-04-18T10:43:05.64Z</time></trkpt><trkpt lat="45.5573544" lon="10.4898774"><ele>271.0</ele><time>2026-04-18T10:43:06.639Z</time></trkpt><trkpt lat="45.5574311" lon="10.4898593"><ele>271.0</ele><time>2026-04-18T10:43:07.639Z</time></trkpt><trkpt lat="45.5575146" lon="10.4898602"><ele>271.0</ele><time>2026-04-18T10:43:08.639Z</time></trkpt><trkpt lat="45.5576021" lon="10.4898681"><ele>271.0</ele><time>2026-04-18T10:43:09.639Z</time></trkpt><trkpt lat="45.5576911" lon="10.4898826"><ele>271.0</ele><time>2026-04-18T10:43:10.64Z</time></trkpt><trkpt lat="45.5577866" lon="10.4899109"><ele>271.2</ele><time>2026-04-18T10:43:11.639Z</time></trkpt><trkpt lat="45.5578851" lon="10.4899323"><ele>271.40000000000003</ele><time>2026-04-18T10:43:12.639Z</time></trkpt><trkpt lat="45.5579768" lon="10.489945"><ele>271.6</ele><time>2026-04-18T10:43:13.64Z</time></trkpt><trkpt lat="45.5580691" lon="10.4899518"><ele>271.8</ele><time>2026-04-18T10:43:14.639Z</time></trkpt><trkpt lat="45.5581615" lon="10.4899597"><ele>272.0</ele><time>2026-04-18T10:43:15.639Z</time></trkpt><trkpt lat="45.5582534" lon="10.4899784"><ele>272.0</ele><time>2026-04-18T10:43:16.638Z</time></trkpt><trkpt lat="45.5583413" lon="10.4900104"><ele>272.0</ele><time>2026-04-18T10:43:17.639Z</time></trkpt><trkpt lat="45.5584267" lon="10.490055"><ele>272.0</ele><time>2026-04-18T10:43:18.64Z</time></trkpt><trkpt lat="45.5585133" lon="10.4900898"><ele>272.0</ele><time>2026-04-18T10:43:19.639Z</time></trkpt><trkpt lat="45.5585949" lon="10.490116"><ele>272.0</ele><time>2026-04-18T10:43:20.639Z</time></trkpt><trkpt lat="45.5586754" lon="10.4901445"><ele>272.0</ele><time>2026-04-18T10:43:21.64Z</time></trkpt><trkpt lat="45.5587449" lon="10.4901608"><ele>273.0</ele><time>2026-04-18T10:43:22.639Z</time></trkpt><trkpt lat="45.5588485" lon="10.4901889"><ele>274.0</ele><time>2026-04-18T10:43:24.638Z</time></trkpt><trkpt lat="45.558949" lon="10.4902016"><ele>275.0</ele><time>2026-04-18T10:43:26.639Z</time></trkpt><trkpt lat="45.5590223" lon="10.4901816"><ele>276.0</ele><time>2026-04-18T10:43:29.639Z</time></trkpt><trkpt lat="45.5589263" lon="10.4901679"><ele>277.0</ele><time>2026-04-18T10:43:33.639Z</time></trkpt><trkpt lat="45.5588599" lon="10.4901934"><ele>278.0</ele><time>2026-04-18T10:43:34.639Z</time></trkpt><trkpt lat="45.5587533" lon="10.4901756"><ele>276.5</ele><time>2026-04-18T10:43:35.638Z</time></trkpt><trkpt lat="45.5586294" lon="10.4901238"><ele>275.0</ele><time>2026-04-18T10:43:36.639Z</time></trkpt><trkpt lat="45.5585156" lon="10.4900742"><ele>273.5</ele><time>2026-04-18T10:43:37.639Z</time></trkpt><trkpt lat="45.5584049" lon="10.4900273"><ele>272.0</ele><time>2026-04-18T10:43:38.64Z</time></trkpt><trkpt lat="45.5582962" lon="10.489978"><ele>272.0</ele><time>2026-04-18T10:43:39.639Z</time></trkpt><trkpt lat="45.5581922" lon="10.4899382"><ele>272.0</ele><time>2026-04-18T10:43:40.639Z</time></trkpt><trkpt lat="45.5580733" lon="10.4899253"><ele>272.0</ele><time>2026-04-18T10:43:41.64Z</time></trkpt><trkpt lat="45.5579462" lon="10.4899175"><ele>272.0</ele><time>2026-04-18T10:43:42.639Z</time></trkpt><trkpt lat="45.5578113" lon="10.4898976"><ele>271.8</ele><time>2026-04-18T10:43:43.64Z</time></trkpt><trkpt lat="45.5576953" lon="10.4898744"><ele>271.6</ele><time>2026-04-18T10:43:44.639Z</time></trkpt><trkpt lat="45.5576033" lon="10.489861"><ele>271.40000000000003</ele><time>2026-04-18T10:43:45.639Z</time></trkpt><trkpt lat="45.5575279" lon="10.4898588"><ele>271.2</ele><time>2026-04-18T10:43:46.639Z</time></trkpt><trkpt lat="45.5574184" lon="10.4898793"><ele>271.0</ele><time>2026-04-18T10:43:48.638Z</time></trkpt><trkpt lat="45.5573529" lon="10.4898861"><ele>271.0</ele><time>2026-04-18T10:43:50.64Z</time></trkpt><trkpt lat="45.5572671" lon="10.4898866"><ele>271.0</ele><time>2026-04-18T10:43:55.64Z</time></trkpt><trkpt lat="45.5572144" lon="10.489946"><ele>271.0</ele><time>2026-04-18T10:43:58.639Z</time></trkpt><trkpt lat="45.5572874" lon="10.4899149"><ele>271.0</ele><time>2026-04-18T10:44:01.638Z</time></trkpt><trkpt lat="45.5573117" lon="10.4898115"><ele>271.0</ele><time>2026-04-18T10:44:04.639Z</time></trkpt><trkpt lat="45.5573404" lon="10.4897079"><ele>271.0</ele><time>2026-04-18T10:44:06.64Z</time></trkpt><trkpt lat="45.5573388" lon="10.4896149"><ele>271.0</ele><time>2026-04-18T10:44:07.639Z</time></trkpt><trkpt lat="45.5573377" lon="10.4895016"><ele>271.66666666666663</ele><time>2026-04-18T10:44:08.639Z</time></trkpt><trkpt lat="45.5573493" lon="10.489408"><ele>272.3333333333333</ele><time>2026-04-18T10:44:09.639Z</time></trkpt><trkpt lat="45.5573558" lon="10.489307"><ele>273.0</ele><time>2026-04-18T10:44:10.639Z</time></trkpt><trkpt lat="45.5573879" lon="10.4892169"><ele>273.6666666666667</ele><time>2026-04-18T10:44:11.64Z</time></trkpt><trkpt lat="45.5574254" lon="10.489138"><ele>274.33333333333337</ele><time>2026-04-18T10:44:12.639Z</time></trkpt><trkpt lat="45.5574684" lon="10.4889987"><ele>275.0</ele><time>2026-04-18T10:44:14.639Z</time></trkpt><trkpt lat="45.5574763" lon="10.4888751"><ele>275.0</ele><time>2026-04-18T10:44:17.638Z</time></trkpt><trkpt lat="45.5575984" lon="10.4888708"><ele>275.0</ele><time>2026-04-18T10:44:20.639Z</time></trkpt><trkpt lat="45.5576834" lon="10.4888855"><ele>275.0</ele><time>2026-04-18T10:44:21.64Z</time></trkpt><trkpt lat="45.557763" lon="10.4888951"><ele>275.0</ele><time>2026-04-18T10:44:22.639Z</time></trkpt><trkpt lat="45.5578408" lon="10.4889118"><ele>275.0</ele><time>2026-04-18T10:44:23.639Z</time></trkpt><trkpt lat="45.5579176" lon="10.4889236"><ele>275.0</ele><time>2026-04-18T10:44:24.638Z</time></trkpt><trkpt lat="45.5579855" lon="10.4889115"><ele>276.2</ele><time>2026-04-18T10:44:25.639Z</time></trkpt><trkpt lat="45.5580642" lon="10.488901"><ele>277.4</ele><time>2026-04-18T10:44:26.639Z</time></trkpt><trkpt lat="45.5581563" lon="10.4888952"><ele>278.6</ele><time>2026-04-18T10:44:27.639Z</time></trkpt><trkpt lat="45.5582817" lon="10.4889358"><ele>279.8</ele><time>2026-04-18T10:44:29.638Z</time></trkpt><trkpt lat="45.5583621" lon="10.4889742"><ele>281.0</ele><time>2026-04-18T10:44:30.639Z</time></trkpt><trkpt lat="45.5584344" lon="10.4890212"><ele>281.0</ele><time>2026-04-18T10:44:31.639Z</time></trkpt><trkpt lat="45.5585121" lon="10.4890779"><ele>281.0</ele><time>2026-04-18T10:44:32.639Z</time></trkpt><trkpt lat="45.5585747" lon="10.4891448"><ele>281.0</ele><time>2026-04-18T10:44:33.639Z</time></trkpt><trkpt lat="45.5586343" lon="10.4891853"><ele>281.0</ele><time>2026-04-18T10:44:34.638Z</time></trkpt><trkpt lat="45.5587272" lon="10.4892122"><ele>281.0</ele><time>2026-04-18T10:44:36.639Z</time></trkpt><trkpt lat="45.5588221" lon="10.4892071"><ele>281.0</ele><time>2026-04-18T10:44:38.64Z</time></trkpt><trkpt lat="45.5588819" lon="10.489236"><ele>283.2</ele><time>2026-04-18T10:44:39.64Z</time></trkpt><trkpt lat="45.5589403" lon="10.4892957"><ele>285.40000000000003</ele><time>2026-04-18T10:44:41.639Z</time></trkpt><trkpt lat="45.5590298" lon="10.4892289"><ele>287.6</ele><time>2026-04-18T10:44:43.64Z</time></trkpt><trkpt lat="45.5591254" lon="10.4893154"><ele>289.8</ele><time>2026-04-18T10:44:45.638Z</time></trkpt><trkpt lat="45.5591901" lon="10.4894363"><ele>292.0</ele><time>2026-04-18T10:44:47.639Z</time></trkpt><trkpt lat="45.5592628" lon="10.4894786"><ele>292.0</ele><time>2026-04-18T10:44:48.639Z</time></trkpt><trkpt lat="45.5593199" lon="10.489528"><ele>292.0</ele><time>2026-04-18T10:44:49.639Z</time></trkpt><trkpt lat="45.5593808" lon="10.4895884"><ele>292.0</ele><time>2026-04-18T10:44:50.639Z</time></trkpt><trkpt lat="45.5594417" lon="10.4896586"><ele>292.0</ele><time>2026-04-18T10:44:51.639Z</time></trkpt><trkpt lat="45.5594821" lon="10.4897541"><ele>292.0</ele><time>2026-04-18T10:44:52.64Z</time></trkpt><trkpt lat="45.5595689" lon="10.4898249"><ele>292.0</ele><time>2026-04-18T10:44:54.639Z</time></trkpt><trkpt lat="45.5596321" lon="10.4898267"><ele>291.8</ele><time>2026-04-18T10:44:55.638Z</time></trkpt><trkpt lat="45.5597003" lon="10.4897609"><ele>291.6</ele><time>2026-04-18T10:44:57.639Z</time></trkpt><trkpt lat="45.5597552" lon="10.4896796"><ele>291.40000000000003</ele><time>2026-04-18T10:44:58.639Z</time></trkpt><trkpt lat="45.5598634" lon="10.4896158"><ele>291.2</ele><time>2026-04-18T10:45:00.639Z</time></trkpt><trkpt lat="45.5599422" lon="10.4896732"><ele>291.0</ele><time>2026-04-18T10:45:01.639Z</time></trkpt><trkpt lat="45.5600205" lon="10.4897144"><ele>291.0</ele><time>2026-04-18T10:45:02.64Z</time></trkpt><trkpt lat="45.560122" lon="10.4898259"><ele>291.0</ele><time>2026-04-18T10:45:04.639Z</time></trkpt><trkpt lat="45.5601893" lon="10.4898852"><ele>291.0</ele><time>2026-04-18T10:45:05.639Z</time></trkpt><trkpt lat="45.5602649" lon="10.4899786"><ele>291.0</ele><time>2026-04-18T10:45:06.639Z</time></trkpt><trkpt lat="45.5603379" lon="10.4900626"><ele>291.0</ele><time>2026-04-18T10:45:07.64Z</time></trkpt><trkpt lat="45.5603886" lon="10.4901216"><ele>293.3333333333333</ele><time>2026-04-18T10:45:08.638Z</time></trkpt><trkpt lat="45.5604568" lon="10.49016"><ele>295.6666666666667</ele><time>2026-04-18T10:45:09.639Z</time></trkpt><trkpt lat="45.5605218" lon="10.4901663"><ele>298.0</ele><time>2026-04-18T10:45:10.638Z</time></trkpt><trkpt lat="45.5605871" lon="10.4901832"><ele>300.33333333333337</ele><time>2026-04-18T10:45:11.639Z</time></trkpt><trkpt lat="45.5606664" lon="10.4902113"><ele>302.6666666666667</ele><time>2026-04-18T10:45:13.639Z</time></trkpt><trkpt lat="45.560747" lon="10.4902306"><ele>305.0</ele><time>2026-04-18T10:45:17.639Z</time></trkpt><trkpt lat="45.5608059" lon="10.4903358"><ele>303.0</ele><time>2026-04-18T10:45:19.638Z</time></trkpt><trkpt lat="45.5609037" lon="10.4904357"><ele>301.0</ele><time>2026-04-18T10:45:21.64Z</time></trkpt><trkpt lat="45.560962" lon="10.4904849"><ele>299.0</ele><time>2026-04-18T10:45:22.639Z</time></trkpt><trkpt lat="45.5610539" lon="10.490511"><ele>297.0</ele><time>2026-04-18T10:45:23.639Z</time></trkpt><trkpt lat="45.5611244" lon="10.4905244"><ele>295.0</ele><time>2026-04-18T10:45:24.639Z</time></trkpt><trkpt lat="45.5611997" lon="10.4905355"><ele>293.0</ele><time>2026-04-18T10:45:25.638Z</time></trkpt><trkpt lat="45.5612872" lon="10.4905031"><ele>292.99999999999994</ele><time>2026-04-18T10:45:27.64Z</time></trkpt><trkpt lat="45.5613465" lon="10.4904707"><ele>293.0</ele><time>2026-04-18T10:45:28.639Z</time></trkpt><trkpt lat="45.5614151" lon="10.4904797"><ele>293.0</ele><time>2026-04-18T10:45:29.639Z</time></trkpt><trkpt lat="45.5614876" lon="10.4904769"><ele>293.0</ele><time>2026-04-18T10:45:30.638Z</time></trkpt><trkpt lat="45.5615704" lon="10.4905051"><ele>293.0</ele><time>2026-04-18T10:45:31.639Z</time></trkpt><trkpt lat="45.5616436" lon="10.4905127"><ele>292.99999999999994</ele><time>2026-04-18T10:45:32.638Z</time></trkpt><trkpt lat="45.5617182" lon="10.490525"><ele>293.0</ele><time>2026-04-18T10:45:33.639Z</time></trkpt><trkpt lat="45.5617839" lon="10.4905156"><ele>293.0</ele><time>2026-04-18T10:45:34.639Z</time></trkpt><trkpt lat="45.5618538" lon="10.4904911"><ele>293.0</ele><time>2026-04-18T10:45:36.64Z</time></trkpt><trkpt lat="45.5619069" lon="10.4904313"><ele>293.0</ele><time>2026-04-18T10:45:37.639Z</time></trkpt><trkpt lat="45.5619695" lon="10.4903675"><ele>293.0</ele><time>2026-04-18T10:45:38.639Z</time></trkpt><trkpt lat="45.562032" lon="10.4903146"><ele>293.0</ele><time>2026-04-18T10:45:39.639Z</time></trkpt><trkpt lat="45.5621017" lon="10.4902594"><ele>293.0</ele><time>2026-04-18T10:45:40.64Z</time></trkpt><trkpt lat="45.5621706" lon="10.490193"><ele>293.8</ele><time>2026-04-18T10:45:42.638Z</time></trkpt><trkpt lat="45.5622084" lon="10.4900647"><ele>294.6</ele><time>2026-04-18T10:45:44.64Z</time></trkpt><trkpt lat="45.5622985" lon="10.4899726"><ele>295.4</ele><time>2026-04-18T10:45:46.639Z</time></trkpt><trkpt lat="45.5623884" lon="10.4898912"><ele>296.2</ele><time>2026-04-18T10:45:48.639Z</time></trkpt><trkpt lat="45.5624566" lon="10.4897982"><ele>297.0</ele><time>2026-04-18T10:45:50.639Z</time></trkpt><trkpt lat="45.5624825" lon="10.4897057"><ele>297.0</ele><time>2026-04-18T10:45:57.638Z</time></trkpt><trkpt lat="45.5625144" lon="10.4896072"><ele>297.0</ele><time>2026-04-18T10:45:59.638Z</time></trkpt><trkpt lat="45.5625632" lon="10.4894667"><ele>297.0</ele><time>2026-04-18T10:46:01.639Z</time></trkpt><trkpt lat="45.5625913" lon="10.4892736"><ele>297.0</ele><time>2026-04-18T10:46:03.639Z</time></trkpt><trkpt lat="45.5625978" lon="10.4891614"><ele>297.0</ele><time>2026-04-18T10:46:04.639Z</time></trkpt><trkpt lat="45.5626312" lon="10.4890362"><ele>298.1666666666667</ele><time>2026-04-18T10:46:05.639Z</time></trkpt><trkpt lat="45.562666" lon="10.4889201"><ele>299.3333333333333</ele><time>2026-04-18T10:46:06.639Z</time></trkpt><trkpt lat="45.5626999" lon="10.4888087"><ele>300.5</ele><time>2026-04-18T10:46:07.64Z</time></trkpt><trkpt lat="45.562723" lon="10.488683"><ele>301.66666666666663</ele><time>2026-04-18T10:46:08.639Z</time></trkpt><trkpt lat="45.562753" lon="10.4885728"><ele>302.8333333333333</ele><time>2026-04-18T10:46:09.639Z</time></trkpt><trkpt lat="45.5627872" lon="10.4884772"><ele>304.0</ele><time>2026-04-18T10:46:10.639Z</time></trkpt><trkpt lat="45.5628204" lon="10.4883676"><ele>302.8333333333333</ele><time>2026-04-18T10:46:11.638Z</time></trkpt><trkpt lat="45.5628687" lon="10.4882589"><ele>301.66666666666663</ele><time>2026-04-18T10:46:12.638Z</time></trkpt><trkpt lat="45.5629064" lon="10.4881438"><ele>300.5</ele><time>2026-04-18T10:46:13.64Z</time></trkpt><trkpt lat="45.5629411" lon="10.4880215"><ele>299.3333333333333</ele><time>2026-04-18T10:46:14.64Z</time></trkpt><trkpt lat="45.5629779" lon="10.4879214"><ele>298.1666666666667</ele><time>2026-04-18T10:46:15.639Z</time></trkpt><trkpt lat="45.5630195" lon="10.4878018"><ele>297.0</ele><time>2026-04-18T10:46:16.639Z</time></trkpt><trkpt lat="45.56306" lon="10.4876869"><ele>297.0</ele><time>2026-04-18T10:46:17.639Z</time></trkpt><trkpt lat="45.5631074" lon="10.4875796"><ele>297.0</ele><time>2026-04-18T10:46:18.639Z</time></trkpt><trkpt lat="45.5631536" lon="10.4874528"><ele>297.0</ele><time>2026-04-18T10:46:19.639Z</time></trkpt><trkpt lat="45.563198" lon="10.4873295"><ele>297.0</ele><time>2026-04-18T10:46:20.639Z</time></trkpt><trkpt lat="45.5632378" lon="10.4872282"><ele>297.0</ele><time>2026-04-18T10:46:21.638Z</time></trkpt><trkpt lat="45.5633068" lon="10.4870646"><ele>297.6666666666667</ele><time>2026-04-18T10:46:23.639Z</time></trkpt><trkpt lat="45.5633493" lon="10.4869737"><ele>298.3333333333333</ele><time>2026-04-18T10:46:24.639Z</time></trkpt><trkpt lat="45.5633994" lon="10.4868903"><ele>299.0</ele><time>2026-04-18T10:46:25.639Z</time></trkpt><trkpt lat="45.5634426" lon="10.4868098"><ele>299.66666666666663</ele><time>2026-04-18T10:46:26.639Z</time></trkpt><trkpt lat="45.5635425" lon="10.486737"><ele>300.3333333333333</ele><time>2026-04-18T10:46:28.638Z</time></trkpt><trkpt lat="45.5636346" lon="10.4866791"><ele>301.0</ele><time>2026-04-18T10:46:30.639Z</time></trkpt><trkpt lat="45.5637012" lon="10.4866567"><ele>301.0</ele><time>2026-04-18T10:46:31.638Z</time></trkpt><trkpt lat="45.563828" lon="10.4866181"><ele>301.0</ele><time>2026-04-18T10:46:33.639Z</time></trkpt><trkpt lat="45.563899" lon="10.486617"><ele>301.0</ele><time>2026-04-18T10:46:34.639Z</time></trkpt><trkpt lat="45.5639725" lon="10.4866199"><ele>301.0</ele><time>2026-04-18T10:46:35.639Z</time></trkpt><trkpt lat="45.5640466" lon="10.4865966"><ele>301.0</ele><time>2026-04-18T10:46:36.639Z</time></trkpt><trkpt lat="45.5641214" lon="10.4865889"><ele>301.0</ele><time>2026-04-18T10:46:37.639Z</time></trkpt><trkpt lat="45.5642028" lon="10.4865801"><ele>301.0</ele><time>2026-04-18T10:46:38.638Z</time></trkpt><trkpt lat="45.5642817" lon="10.4865789"><ele>301.0</ele><time>2026-04-18T10:46:39.638Z</time></trkpt><trkpt lat="45.564356" lon="10.4865844"><ele>301.0</ele><time>2026-04-18T10:46:40.638Z</time></trkpt><trkpt lat="45.5644231" lon="10.4865756"><ele>301.0</ele><time>2026-04-18T10:46:41.638Z</time></trkpt><trkpt lat="45.5644929" lon="10.486569"><ele>301.0</ele><time>2026-04-18T10:46:42.639Z</time></trkpt><trkpt lat="45.5645573" lon="10.486589"><ele>301.0</ele><time>2026-04-18T10:46:43.639Z</time></trkpt><trkpt lat="45.5646253" lon="10.4865965"><ele>301.0</ele><time>2026-04-18T10:46:44.639Z</time></trkpt><trkpt lat="45.5646924" lon="10.4865913"><ele>300.3333333333333</ele><time>2026-04-18T10:46:45.639Z</time></trkpt><trkpt lat="45.5647251" lon="10.4865087"><ele>299.66666666666663</ele><time>2026-04-18T10:47:27.639Z</time></trkpt><trkpt lat="45.5647362" lon="10.4863764"><ele>299.0</ele><time>2026-04-18T10:47:29.64Z</time></trkpt><trkpt lat="45.5647716" lon="10.4862972"><ele>298.3333333333333</ele><time>2026-04-18T10:47:31.639Z</time></trkpt><trkpt lat="45.5648192" lon="10.4862001"><ele>297.6666666666667</ele><time>2026-04-18T10:47:33.637Z</time></trkpt><trkpt lat="45.5648679" lon="10.4860968"><ele>297.0</ele><time>2026-04-18T10:47:35.638Z</time></trkpt><trkpt lat="45.5649203" lon="10.4859779"><ele>300.5</ele><time>2026-04-18T10:47:37.638Z</time></trkpt><trkpt lat="45.5649739" lon="10.4858801"><ele>304.0</ele><time>2026-04-18T10:47:39.638Z</time></trkpt><trkpt lat="45.5650534" lon="10.4858178"><ele>307.5</ele><time>2026-04-18T10:47:41.637Z</time></trkpt><trkpt lat="45.565129" lon="10.485759"><ele>311.0</ele><time>2026-04-18T10:47:43.638Z</time></trkpt><trkpt lat="45.5651971" lon="10.4856741"><ele>314.5</ele><time>2026-04-18T10:47:46.637Z</time></trkpt><trkpt lat="45.5652672" lon="10.4856093"><ele>318.0</ele><time>2026-04-18T10:47:48.638Z</time></trkpt><trkpt lat="45.5653197" lon="10.4855249"><ele>317.6</ele><time>2026-04-18T10:47:50.637Z</time></trkpt><trkpt lat="45.5653963" lon="10.4855017"><ele>317.20000000000005</ele><time>2026-04-18T10:47:52.639Z</time></trkpt><trkpt lat="45.5654855" lon="10.4854698"><ele>316.8</ele><time>2026-04-18T10:47:54.639Z</time></trkpt><trkpt lat="45.5655896" lon="10.4854547"><ele>316.40000000000003</ele><time>2026-04-18T10:47:56.638Z</time></trkpt><trkpt lat="45.5656773" lon="10.4854287"><ele>316.0</ele><time>2026-04-18T10:47:58.639Z</time></trkpt><trkpt lat="45.5657728" lon="10.4853719"><ele>319.8</ele><time>2026-04-18T10:48:00.639Z</time></trkpt><trkpt lat="45.5658606" lon="10.4853361"><ele>323.6</ele><time>2026-04-18T10:48:02.638Z</time></trkpt><trkpt lat="45.5659695" lon="10.4852696"><ele>327.4</ele><time>2026-04-18T10:48:04.638Z</time></trkpt><trkpt lat="45.566091" lon="10.4852158"><ele>331.2</ele><time>2026-04-18T10:48:06.638Z</time></trkpt><trkpt lat="45.5661548" lon="10.4851917"><ele>335.0</ele><time>2026-04-18T10:48:07.637Z</time></trkpt><trkpt lat="45.5662539" lon="10.4851905"><ele>335.0</ele><time>2026-04-18T10:48:09.638Z</time></trkpt><trkpt lat="45.5663434" lon="10.4851963"><ele>335.0</ele><time>2026-04-18T10:48:11.638Z</time></trkpt><trkpt lat="45.5664126" lon="10.4852111"><ele>335.0</ele><time>2026-04-18T10:48:13.638Z</time></trkpt><trkpt lat="45.5664824" lon="10.4851851"><ele>335.0</ele><time>2026-04-18T10:48:19.637Z</time></trkpt><trkpt lat="45.5666012" lon="10.4851332"><ele>335.0</ele><time>2026-04-18T10:48:21.637Z</time></trkpt><trkpt lat="45.5666651" lon="10.4850862"><ele>335.0</ele><time>2026-04-18T10:48:22.638Z</time></trkpt><trkpt lat="45.5667355" lon="10.4850276"><ele>335.0</ele><time>2026-04-18T10:48:23.637Z</time></trkpt><trkpt lat="45.5668088" lon="10.4849947"><ele>335.0</ele><time>2026-04-18T10:48:24.639Z</time></trkpt><trkpt lat="45.566884" lon="10.4849672"><ele>335.0</ele><time>2026-04-18T10:48:25.637Z</time></trkpt><trkpt lat="45.5669606" lon="10.4849444"><ele>335.0</ele><time>2026-04-18T10:48:26.638Z</time></trkpt><trkpt lat="45.5670301" lon="10.4849348"><ele>335.0</ele><time>2026-04-18T10:48:27.638Z</time></trkpt><trkpt lat="45.5670978" lon="10.4849283"><ele>335.0</ele><time>2026-04-18T10:48:28.639Z</time></trkpt><trkpt lat="45.5672001" lon="10.484862"><ele>334.8</ele><time>2026-04-18T10:48:30.638Z</time></trkpt><trkpt lat="45.5673047" lon="10.4848114"><ele>334.6</ele><time>2026-04-18T10:48:32.637Z</time></trkpt><trkpt lat="45.5674167" lon="10.4847503"><ele>334.4</ele><time>2026-04-18T10:48:34.638Z</time></trkpt><trkpt lat="45.5675155" lon="10.484721"><ele>334.2</ele><time>2026-04-18T10:48:36.638Z</time></trkpt><trkpt lat="45.5675642" lon="10.4846582"><ele>334.0</ele><time>2026-04-18T10:48:37.638Z</time></trkpt><trkpt lat="45.5676224" lon="10.4846055"><ele>335.16666666666663</ele><time>2026-04-18T10:48:38.638Z</time></trkpt><trkpt lat="45.5676883" lon="10.4845631"><ele>336.3333333333333</ele><time>2026-04-18T10:48:39.637Z</time></trkpt><trkpt lat="45.5677497" lon="10.4845191"><ele>337.5</ele><time>2026-04-18T10:48:40.637Z</time></trkpt><trkpt lat="45.567795" lon="10.4844496"><ele>338.6666666666667</ele><time>2026-04-18T10:48:41.638Z</time></trkpt><trkpt lat="45.56784" lon="10.484386"><ele>339.83333333333337</ele><time>2026-04-18T10:48:42.638Z</time></trkpt><trkpt lat="45.5679129" lon="10.484274"><ele>341.0</ele><time>2026-04-18T10:48:44.638Z</time></trkpt><trkpt lat="45.5679543" lon="10.4841739"><ele>341.0</ele><time>2026-04-18T10:48:46.639Z</time></trkpt><trkpt lat="45.5680312" lon="10.4842479"><ele>341.0</ele><time>2026-04-18T10:48:51.638Z</time></trkpt><trkpt lat="45.5680997" lon="10.4843873"><ele>341.0</ele><time>2026-04-18T10:48:53.638Z</time></trkpt><trkpt lat="45.5681551" lon="10.48455"><ele>341.0</ele><time>2026-04-18T10:48:55.638Z</time></trkpt><trkpt lat="45.5681702" lon="10.4846653"><ele>341.0</ele><time>2026-04-18T10:48:56.638Z</time></trkpt><trkpt lat="45.5681963" lon="10.484769"><ele>340.6</ele><time>2026-04-18T10:48:57.638Z</time></trkpt><trkpt lat="45.5682266" lon="10.4848582"><ele>340.20000000000005</ele><time>2026-04-18T10:48:58.638Z</time></trkpt><trkpt lat="45.5682666" lon="10.4850243"><ele>339.79999999999995</ele><time>2026-04-18T10:49:00.638Z</time></trkpt><trkpt lat="45.568303" lon="10.4851803"><ele>339.4</ele><time>2026-04-18T10:49:02.638Z</time></trkpt><trkpt lat="45.5683237" lon="10.4853482"><ele>339.0</ele><time>2026-04-18T10:49:04.638Z</time></trkpt><trkpt lat="45.568398" lon="10.4854678"><ele>338.1666666666667</ele><time>2026-04-18T10:49:06.638Z</time></trkpt><trkpt lat="45.5684521" lon="10.4856224"><ele>337.3333333333333</ele><time>2026-04-18T10:49:08.638Z</time></trkpt><trkpt lat="45.5684756" lon="10.4857108"><ele>336.5</ele><time>2026-04-18T10:49:09.638Z</time></trkpt><trkpt lat="45.5684981" lon="10.485798"><ele>335.66666666666663</ele><time>2026-04-18T10:49:10.638Z</time></trkpt><trkpt lat="45.5685226" lon="10.48589"><ele>334.8333333333333</ele><time>2026-04-18T10:49:11.638Z</time></trkpt><trkpt lat="45.5685454" lon="10.4859795"><ele>334.0</ele><time>2026-04-18T10:49:12.637Z</time></trkpt><trkpt lat="45.5685676" lon="10.4860649"><ele>334.0</ele><time>2026-04-18T10:49:13.637Z</time></trkpt><trkpt lat="45.5686149" lon="10.486139"><ele>334.0</ele><time>2026-04-18T10:49:14.639Z</time></trkpt><trkpt lat="45.5686534" lon="10.4862144"><ele>334.0</ele><time>2026-04-18T10:49:15.638Z</time></trkpt><trkpt lat="45.5687006" lon="10.4863805"><ele>334.0</ele><time>2026-04-18T10:49:17.638Z</time></trkpt><trkpt lat="45.5687292" lon="10.4864652"><ele>334.0</ele><time>2026-04-18T10:49:18.637Z</time></trkpt><trkpt lat="45.5687746" lon="10.4865392"><ele>334.0</ele><time>2026-04-18T10:49:19.638Z</time></trkpt><trkpt lat="45.5688312" lon="10.4866007"><ele>334.0</ele><time>2026-04-18T10:49:20.638Z</time></trkpt><trkpt lat="45.5688869" lon="10.4867513"><ele>334.0</ele><time>2026-04-18T10:49:22.638Z</time></trkpt><trkpt lat="45.5689131" lon="10.4868351"><ele>334.0</ele><time>2026-04-18T10:49:23.638Z</time></trkpt><trkpt lat="45.5689401" lon="10.4869189"><ele>334.0</ele><time>2026-04-18T10:49:24.638Z</time></trkpt><trkpt lat="45.568985" lon="10.4870376"><ele>334.0</ele><time>2026-04-18T10:49:26.638Z</time></trkpt><trkpt lat="45.5690738" lon="10.4870696"><ele>334.0</ele><time>2026-04-18T10:49:27.637Z</time></trkpt><trkpt lat="45.5691679" lon="10.4871464"><ele>334.0</ele><time>2026-04-18T10:49:29.637Z</time></trkpt><trkpt lat="45.5692541" lon="10.4872509"><ele>334.0</ele><time>2026-04-18T10:49:31.637Z</time></trkpt><trkpt lat="45.5693514" lon="10.4873482"><ele>334.0</ele><time>2026-04-18T10:49:33.638Z</time></trkpt><trkpt lat="45.56943" lon="10.4874177"><ele>334.0</ele><time>2026-04-18T10:49:35.638Z</time></trkpt><trkpt lat="45.5694973" lon="10.4874246"><ele>334.0</ele><time>2026-04-18T10:49:38.638Z</time></trkpt><trkpt lat="45.5695875" lon="10.4874391"><ele>334.0</ele><time>2026-04-18T10:49:41.638Z</time></trkpt><trkpt lat="45.5696487" lon="10.4874848"><ele>334.0</ele><time>2026-04-18T10:49:42.638Z</time></trkpt><trkpt lat="45.5697467" lon="10.4875827"><ele>334.0</ele><time>2026-04-18T10:49:44.637Z</time></trkpt><trkpt lat="45.5698651" lon="10.4876369"><ele>334.0</ele><time>2026-04-18T10:49:46.639Z</time></trkpt><trkpt lat="45.5699233" lon="10.4877061"><ele>334.0</ele><time>2026-04-18T10:49:47.638Z</time></trkpt><trkpt lat="45.5699719" lon="10.4877773"><ele>334.0</ele><time>2026-04-18T10:49:48.638Z</time></trkpt><trkpt lat="45.5700219" lon="10.4878522"><ele>334.0</ele><time>2026-04-18T10:49:49.638Z</time></trkpt><trkpt lat="45.5700756" lon="10.4879858"><ele>334.0</ele><time>2026-04-18T10:49:51.638Z</time></trkpt><trkpt lat="45.5701036" lon="10.4880929"><ele>334.0</ele><time>2026-04-18T10:49:53.638Z</time></trkpt><trkpt lat="45.5701323" lon="10.4881896"><ele>334.0</ele><time>2026-04-18T10:49:56.638Z</time></trkpt><trkpt lat="45.5701454" lon="10.4882928"><ele>334.0</ele><time>2026-04-18T10:49:59.638Z</time></trkpt><trkpt lat="45.5702127" lon="10.4883552"><ele>335.0</ele><time>2026-04-18T10:50:01.637Z</time></trkpt><trkpt lat="45.5703163" lon="10.4884083"><ele>336.0</ele><time>2026-04-18T10:50:03.638Z</time></trkpt><trkpt lat="45.5704371" lon="10.4884781"><ele>337.0</ele><time>2026-04-18T10:50:05.638Z</time></trkpt><trkpt lat="45.5704954" lon="10.4885156"><ele>338.0</ele><time>2026-04-18T10:50:06.638Z</time></trkpt><trkpt lat="45.5705979" lon="10.4885779"><ele>339.0</ele><time>2026-04-18T10:50:08.638Z</time></trkpt><trkpt lat="45.5707188" lon="10.4885854"><ele>339.0</ele><time>2026-04-18T10:50:10.638Z</time></trkpt><trkpt lat="45.5708266" lon="10.4886611"><ele>339.0</ele><time>2026-04-18T10:50:12.638Z</time></trkpt><trkpt lat="45.5709409" lon="10.4887368"><ele>339.0</ele><time>2026-04-18T10:50:14.639Z</time></trkpt><trkpt lat="45.5710067" lon="10.4887917"><ele>339.0</ele><time>2026-04-18T10:50:15.639Z</time></trkpt><trkpt lat="45.571065" lon="10.4888368"><ele>339.0</ele><time>2026-04-18T10:50:17.639Z</time></trkpt><trkpt lat="45.5711286" lon="10.4888788"><ele>337.2</ele><time>2026-04-18T10:50:26.638Z</time></trkpt><trkpt lat="45.5712264" lon="10.4889831"><ele>335.4</ele><time>2026-04-18T10:50:29.638Z</time></trkpt><trkpt lat="45.571321" lon="10.4890622"><ele>333.6</ele><time>2026-04-18T10:50:31.636Z</time></trkpt><trkpt lat="45.5713987" lon="10.489164"><ele>331.8</ele><time>2026-04-18T10:50:33.637Z</time></trkpt><trkpt lat="45.5714599" lon="10.4892761"><ele>330.0</ele><time>2026-04-18T10:50:35.637Z</time></trkpt><trkpt lat="45.5715316" lon="10.489391"><ele>330.0</ele><time>2026-04-18T10:50:37.637Z</time></trkpt><trkpt lat="45.571618" lon="10.4895069"><ele>330.0</ele><time>2026-04-18T10:50:39.636Z</time></trkpt><trkpt lat="45.5716514" lon="10.4896178"><ele>330.0</ele><time>2026-04-18T10:50:40.636Z</time></trkpt><trkpt lat="45.5716723" lon="10.4897087"><ele>330.0</ele><time>2026-04-18T10:50:41.637Z</time></trkpt><trkpt lat="45.5717311" lon="10.4897954"><ele>330.0</ele><time>2026-04-18T10:50:42.637Z</time></trkpt><trkpt lat="45.5717822" lon="10.4898791"><ele>330.0</ele><time>2026-04-18T10:50:43.638Z</time></trkpt><trkpt lat="45.5718172" lon="10.4899725"><ele>327.5</ele><time>2026-04-18T10:50:44.637Z</time></trkpt><trkpt lat="45.5718656" lon="10.4900627"><ele>325.0</ele><time>2026-04-18T10:50:45.638Z</time></trkpt><trkpt lat="45.5719255" lon="10.4901397"><ele>322.5</ele><time>2026-04-18T10:50:46.637Z</time></trkpt><trkpt lat="45.5720002" lon="10.4902078"><ele>320.0</ele><time>2026-04-18T10:50:47.637Z</time></trkpt><trkpt lat="45.5720494" lon="10.4902648"><ele>317.5</ele><time>2026-04-18T10:50:48.637Z</time></trkpt><trkpt lat="45.572113" lon="10.490331"><ele>315.0</ele><time>2026-04-18T10:50:52.637Z</time></trkpt><trkpt lat="45.5721586" lon="10.4902425"><ele>315.0</ele><time>2026-04-18T10:50:54.636Z</time></trkpt><trkpt lat="45.5722008" lon="10.4901184"><ele>315.0</ele><time>2026-04-18T10:50:56.637Z</time></trkpt><trkpt lat="45.5722477" lon="10.4899561"><ele>315.0</ele><time>2026-04-18T10:50:58.637Z</time></trkpt><trkpt lat="45.5722871" lon="10.48987"><ele>315.0</ele><time>2026-04-18T10:50:59.637Z</time></trkpt><trkpt lat="45.5723374" lon="10.4897829"><ele>315.0</ele><time>2026-04-18T10:51:00.636Z</time></trkpt><trkpt lat="45.5723986" lon="10.489691"><ele>315.0</ele><time>2026-04-18T10:51:01.637Z</time></trkpt><trkpt lat="45.5724552" lon="10.4896077"><ele>315.0</ele><time>2026-04-18T10:51:02.636Z</time></trkpt><trkpt lat="45.5725225" lon="10.4895656"><ele>315.0</ele><time>2026-04-18T10:51:03.637Z</time></trkpt><trkpt lat="45.5725911" lon="10.4895324"><ele>315.0</ele><time>2026-04-18T10:51:04.637Z</time></trkpt><trkpt lat="45.5726575" lon="10.4894888"><ele>315.0</ele><time>2026-04-18T10:51:05.637Z</time></trkpt><trkpt lat="45.5727703" lon="10.4893957"><ele>315.0</ele><time>2026-04-18T10:51:07.636Z</time></trkpt><trkpt lat="45.5728386" lon="10.4893425"><ele>316.0</ele><time>2026-04-18T10:51:08.638Z</time></trkpt><trkpt lat="45.5729032" lon="10.4892741"><ele>317.0</ele><time>2026-04-18T10:51:09.637Z</time></trkpt><trkpt lat="45.5729743" lon="10.4891863"><ele>318.0</ele><time>2026-04-18T10:51:10.636Z</time></trkpt><trkpt lat="45.57305" lon="10.4891211"><ele>319.0</ele><time>2026-04-18T10:51:11.636Z</time></trkpt><trkpt lat="45.5731102" lon="10.4890914"><ele>320.0</ele><time>2026-04-18T10:51:12.637Z</time></trkpt><trkpt lat="45.5732296" lon="10.489084"><ele>321.0</ele><time>2026-04-18T10:51:14.636Z</time></trkpt><trkpt lat="45.5733552" lon="10.4890969"><ele>321.0</ele><time>2026-04-18T10:51:16.637Z</time></trkpt><trkpt lat="45.5734275" lon="10.489175"><ele>321.0</ele><time>2026-04-18T10:51:17.637Z</time></trkpt><trkpt lat="45.5734999" lon="10.4892421"><ele>321.0</ele><time>2026-04-18T10:51:18.637Z</time></trkpt><trkpt lat="45.5735894" lon="10.4892614"><ele>321.0</ele><time>2026-04-18T10:51:20.637Z</time></trkpt><trkpt lat="45.5736818" lon="10.4892568"><ele>321.0</ele><time>2026-04-18T10:51:22.637Z</time></trkpt><trkpt lat="45.57375" lon="10.4892947"><ele>321.0</ele><time>2026-04-18T10:51:23.636Z</time></trkpt><trkpt lat="45.573812" lon="10.4893221"><ele>321.2857142857143</ele><time>2026-04-18T10:51:24.638Z</time></trkpt><trkpt lat="45.5738756" lon="10.4893437"><ele>321.57142857142856</ele><time>2026-04-18T10:51:25.636Z</time></trkpt><trkpt lat="45.5739502" lon="10.4893707"><ele>321.8571428571429</ele><time>2026-04-18T10:51:26.637Z</time></trkpt><trkpt lat="45.5740111" lon="10.4894"><ele>322.1428571428571</ele><time>2026-04-18T10:51:27.637Z</time></trkpt><trkpt lat="45.5740848" lon="10.4894445"><ele>322.42857142857144</ele><time>2026-04-18T10:51:28.638Z</time></trkpt><trkpt lat="45.5741586" lon="10.4894881"><ele>322.7142857142857</ele><time>2026-04-18T10:51:29.637Z</time></trkpt><trkpt lat="45.574229" lon="10.4895052"><ele>323.0</ele><time>2026-04-18T10:51:30.637Z</time></trkpt><trkpt lat="45.574309" lon="10.4895285"><ele>323.0</ele><time>2026-04-18T10:51:31.637Z</time></trkpt><trkpt lat="45.5743963" lon="10.4895454"><ele>323.0</ele><time>2026-04-18T10:51:33.637Z</time></trkpt><trkpt lat="45.574503" lon="10.4895028"><ele>323.0</ele><time>2026-04-18T10:51:35.636Z</time></trkpt><trkpt lat="45.5745646" lon="10.4894466"><ele>323.0</ele><time>2026-04-18T10:51:36.638Z</time></trkpt><trkpt lat="45.5746223" lon="10.4893956"><ele>323.0</ele><time>2026-04-18T10:51:37.637Z</time></trkpt><trkpt lat="45.574679" lon="10.489328"><ele>323.0</ele><time>2026-04-18T10:51:38.637Z</time></trkpt><trkpt lat="45.5747292" lon="10.4892523"><ele>322.1666666666667</ele><time>2026-04-18T10:51:39.638Z</time></trkpt><trkpt lat="45.5747844" lon="10.4891749"><ele>321.33333333333337</ele><time>2026-04-18T10:51:40.637Z</time></trkpt><trkpt lat="45.5748276" lon="10.4890917"><ele>320.5</ele><time>2026-04-18T10:51:41.637Z</time></trkpt><trkpt lat="45.5748808" lon="10.4890126"><ele>319.6666666666667</ele><time>2026-04-18T10:51:42.637Z</time></trkpt><trkpt lat="45.5749342" lon="10.4889281"><ele>318.8333333333333</ele><time>2026-04-18T10:51:43.637Z</time></trkpt><trkpt lat="45.5749989" lon="10.4888679"><ele>318.0</ele><time>2026-04-18T10:51:44.637Z</time></trkpt><trkpt lat="45.5750636" lon="10.4888204"><ele>318.0</ele><time>2026-04-18T10:51:45.637Z</time></trkpt><trkpt lat="45.5751321" lon="10.4887721"><ele>318.0</ele><time>2026-04-18T10:51:46.637Z</time></trkpt><trkpt lat="45.5752023" lon="10.4887252"><ele>318.0</ele><time>2026-04-18T10:51:47.637Z</time></trkpt><trkpt lat="45.5752758" lon="10.4886887"><ele>318.0</ele><time>2026-04-18T10:51:48.638Z</time></trkpt><trkpt lat="45.5753447" lon="10.4886494"><ele>318.0</ele><time>2026-04-18T10:51:49.637Z</time></trkpt><trkpt lat="45.5754051" lon="10.4885949"><ele>318.0</ele><time>2026-04-18T10:51:50.637Z</time></trkpt><trkpt lat="45.5754543" lon="10.4885242"><ele>318.0</ele><time>2026-04-18T10:51:51.636Z</time></trkpt><trkpt lat="45.5754926" lon="10.4884458"><ele>318.3333333333333</ele><time>2026-04-18T10:51:52.636Z</time></trkpt><trkpt lat="45.5755446" lon="10.4883488"><ele>318.6666666666667</ele><time>2026-04-18T10:51:54.639Z</time></trkpt><trkpt lat="45.5756214" lon="10.4883859"><ele>319.0</ele><time>2026-04-18T10:51:57.636Z</time></trkpt><trkpt lat="45.5756902" lon="10.4885047"><ele>319.33333333333337</ele><time>2026-04-18T10:51:59.636Z</time></trkpt><trkpt lat="45.5757766" lon="10.4886039"><ele>319.6666666666667</ele><time>2026-04-18T10:52:01.639Z</time></trkpt><trkpt lat="45.5758267" lon="10.4886592"><ele>320.0</ele><time>2026-04-18T10:52:02.637Z</time></trkpt><trkpt lat="45.5758734" lon="10.488723"><ele>320.42857142857144</ele><time>2026-04-18T10:52:03.638Z</time></trkpt><trkpt lat="45.5759169" lon="10.4887978"><ele>320.8571428571429</ele><time>2026-04-18T10:52:04.637Z</time></trkpt><trkpt lat="45.5759645" lon="10.4888758"><ele>321.28571428571433</ele><time>2026-04-18T10:52:05.636Z</time></trkpt><trkpt lat="45.5760136" lon="10.4889533"><ele>321.7142857142857</ele><time>2026-04-18T10:52:06.638Z</time></trkpt><trkpt lat="45.576063" lon="10.4890367"><ele>322.14285714285717</ele><time>2026-04-18T10:52:07.637Z</time></trkpt><trkpt lat="45.5761146" lon="10.4891211"><ele>322.5714285714286</ele><time>2026-04-18T10:52:08.637Z</time></trkpt><trkpt lat="45.5761641" lon="10.4892078"><ele>323.0</ele><time>2026-04-18T10:52:09.637Z</time></trkpt><trkpt lat="45.5762144" lon="10.4892988"><ele>323.0</ele><time>2026-04-18T10:52:10.637Z</time></trkpt><trkpt lat="45.5762681" lon="10.4893954"><ele>323.0</ele><time>2026-04-18T10:52:11.637Z</time></trkpt><trkpt lat="45.5763147" lon="10.4894986"><ele>323.0</ele><time>2026-04-18T10:52:12.638Z</time></trkpt><trkpt lat="45.5763392" lon="10.4896139"><ele>323.0</ele><time>2026-04-18T10:52:13.638Z</time></trkpt><trkpt lat="45.5763421" lon="10.4897371"><ele>323.0</ele><time>2026-04-18T10:52:14.637Z</time></trkpt><trkpt lat="45.5763484" lon="10.4898557"><ele>323.0</ele><time>2026-04-18T10:52:15.637Z</time></trkpt><trkpt lat="45.5763584" lon="10.4899772"><ele>322.83333333333337</ele><time>2026-04-18T10:52:16.637Z</time></trkpt><trkpt lat="45.5763632" lon="10.4900941"><ele>322.6666666666667</ele><time>2026-04-18T10:52:17.638Z</time></trkpt><trkpt lat="45.5763697" lon="10.4902107"><ele>322.5</ele><time>2026-04-18T10:52:18.637Z</time></trkpt><trkpt lat="45.5763885" lon="10.4903297"><ele>322.3333333333333</ele><time>2026-04-18T10:52:19.637Z</time></trkpt><trkpt lat="45.5764151" lon="10.4904425"><ele>322.16666666666663</ele><time>2026-04-18T10:52:20.637Z</time></trkpt><trkpt lat="45.5764383" lon="10.4905425"><ele>322.0</ele><time>2026-04-18T10:52:21.637Z</time></trkpt><trkpt lat="45.5764981" lon="10.4906787"><ele>322.0</ele><time>2026-04-18T10:52:23.637Z</time></trkpt><trkpt lat="45.5765546" lon="10.4907266"><ele>322.0</ele><time>2026-04-18T10:52:24.636Z</time></trkpt><trkpt lat="45.5766201" lon="10.4907645"><ele>322.0</ele><time>2026-04-18T10:52:25.636Z</time></trkpt><trkpt lat="45.5766942" lon="10.4907994"><ele>322.0</ele><time>2026-04-18T10:52:26.637Z</time></trkpt><trkpt lat="45.5767752" lon="10.4908491"><ele>322.0</ele><time>2026-04-18T10:52:27.637Z</time></trkpt><trkpt lat="45.5768646" lon="10.4908922"><ele>322.0</ele><time>2026-04-18T10:52:28.636Z</time></trkpt><trkpt lat="45.5769552" lon="10.4909369"><ele>323.0</ele><time>2026-04-18T10:52:29.637Z</time></trkpt><trkpt lat="45.577046" lon="10.4909875"><ele>324.0</ele><time>2026-04-18T10:52:30.637Z</time></trkpt><trkpt lat="45.5771336" lon="10.491038"><ele>325.0</ele><time>2026-04-18T10:52:31.638Z</time></trkpt><trkpt lat="45.5772108" lon="10.4910851"><ele>326.0</ele><time>2026-04-18T10:52:32.638Z</time></trkpt><trkpt lat="45.5772732" lon="10.4911315"><ele>327.0</ele><time>2026-04-18T10:52:33.637Z</time></trkpt><trkpt lat="45.5773661" lon="10.4911972"><ele>327.0</ele><time>2026-04-18T10:52:35.637Z</time></trkpt><trkpt lat="45.5774818" lon="10.4911662"><ele>327.0</ele><time>2026-04-18T10:52:39.636Z</time></trkpt><trkpt lat="45.57759" lon="10.4911648"><ele>327.0</ele><time>2026-04-18T10:52:41.637Z</time></trkpt><trkpt lat="45.5776632" lon="10.4911722"><ele>327.0</ele><time>2026-04-18T10:52:42.637Z</time></trkpt><trkpt lat="45.5777266" lon="10.4911853"><ele>327.0</ele><time>2026-04-18T10:52:43.637Z</time></trkpt><trkpt lat="45.5777902" lon="10.4911887"><ele>327.0</ele><time>2026-04-18T10:52:44.637Z</time></trkpt><trkpt lat="45.5779141" lon="10.4912496"><ele>325.3333333333333</ele><time>2026-04-18T10:52:46.637Z</time></trkpt><trkpt lat="45.5779855" lon="10.4912877"><ele>323.6666666666667</ele><time>2026-04-18T10:52:47.638Z</time></trkpt><trkpt lat="45.5780545" lon="10.4913181"><ele>322.0</ele><time>2026-04-18T10:52:48.637Z</time></trkpt><trkpt lat="45.5781256" lon="10.4913357"><ele>320.33333333333337</ele><time>2026-04-18T10:52:49.638Z</time></trkpt><trkpt lat="45.5782026" lon="10.491318"><ele>318.6666666666667</ele><time>2026-04-18T10:52:50.636Z</time></trkpt><trkpt lat="45.578282" lon="10.491301"><ele>317.0</ele><time>2026-04-18T10:52:51.638Z</time></trkpt><trkpt lat="45.5783611" lon="10.4912964"><ele>317.0</ele><time>2026-04-18T10:52:52.637Z</time></trkpt><trkpt lat="45.5784401" lon="10.4912727"><ele>317.0</ele><time>2026-04-18T10:52:53.637Z</time></trkpt><trkpt lat="45.5785094" lon="10.4912469"><ele>317.0</ele><time>2026-04-18T10:52:54.637Z</time></trkpt><trkpt lat="45.5785615" lon="10.4911823"><ele>317.0</ele><time>2026-04-18T10:52:55.638Z</time></trkpt><trkpt lat="45.5786681" lon="10.491213"><ele>317.0</ele><time>2026-04-18T10:52:57.638Z</time></trkpt><trkpt lat="45.5787181" lon="10.4912759"><ele>317.0</ele><time>2026-04-18T10:52:58.637Z</time></trkpt><trkpt lat="45.5787642" lon="10.491361"><ele>317.8</ele><time>2026-04-18T10:52:59.638Z</time></trkpt><trkpt lat="45.5788244" lon="10.4914397"><ele>318.6</ele><time>2026-04-18T10:53:00.637Z</time></trkpt><trkpt lat="45.5789077" lon="10.4915025"><ele>319.40000000000003</ele><time>2026-04-18T10:53:01.637Z</time></trkpt><trkpt lat="45.5789945" lon="10.491569"><ele>320.2</ele><time>2026-04-18T10:53:02.637Z</time></trkpt><trkpt lat="45.5790784" lon="10.4916367"><ele>321.0</ele><time>2026-04-18T10:53:03.637Z</time></trkpt><trkpt lat="45.5791571" lon="10.4917446"><ele>321.0</ele><time>2026-04-18T10:53:04.636Z</time></trkpt><trkpt lat="45.5792349" lon="10.4918455"><ele>321.0</ele><time>2026-04-18T10:53:05.637Z</time></trkpt><trkpt lat="45.5793065" lon="10.4919465"><ele>321.0</ele><time>2026-04-18T10:53:06.636Z</time></trkpt><trkpt lat="45.5793794" lon="10.4920457"><ele>321.0</ele><time>2026-04-18T10:53:07.637Z</time></trkpt><trkpt lat="45.5795133" lon="10.4922431"><ele>322.1666666666667</ele><time>2026-04-18T10:53:09.637Z</time></trkpt><trkpt lat="45.5795794" lon="10.4923375"><ele>323.3333333333333</ele><time>2026-04-18T10:53:10.637Z</time></trkpt><trkpt lat="45.5796417" lon="10.492429"><ele>324.5</ele><time>2026-04-18T10:53:11.637Z</time></trkpt><trkpt lat="45.5797001" lon="10.4925163"><ele>325.66666666666663</ele><time>2026-04-18T10:53:12.637Z</time></trkpt><trkpt lat="45.579759" lon="10.4925999"><ele>326.8333333333333</ele><time>2026-04-18T10:53:13.637Z</time></trkpt><trkpt lat="45.5798135" lon="10.4926749"><ele>328.0</ele><time>2026-04-18T10:53:14.637Z</time></trkpt><trkpt lat="45.5798554" lon="10.4927446"><ele>328.0</ele><time>2026-04-18T10:53:15.637Z</time></trkpt><trkpt lat="45.5799371" lon="10.4928309"><ele>328.0</ele><time>2026-04-18T10:53:17.636Z</time></trkpt><trkpt lat="45.580006" lon="10.4928509"><ele>328.0</ele><time>2026-04-18T10:53:19.636Z</time></trkpt><trkpt lat="45.5800804" lon="10.4928185"><ele>328.0</ele><time>2026-04-18T10:53:21.637Z</time></trkpt><trkpt lat="45.5801853" lon="10.4927468"><ele>328.0</ele><time>2026-04-18T10:53:23.637Z</time></trkpt><trkpt lat="45.5802899" lon="10.492668"><ele>328.0</ele><time>2026-04-18T10:53:25.638Z</time></trkpt><trkpt lat="45.5803771" lon="10.4926449"><ele>328.0</ele><time>2026-04-18T10:53:27.637Z</time></trkpt><trkpt lat="45.5802768" lon="10.4926648"><ele>328.0</ele><time>2026-04-18T10:53:31.637Z</time></trkpt><trkpt lat="45.5802164" lon="10.4927085"><ele>328.0</ele><time>2026-04-18T10:53:32.637Z</time></trkpt><trkpt lat="45.5801499" lon="10.492747"><ele>328.0</ele><time>2026-04-18T10:53:33.636Z</time></trkpt><trkpt lat="45.5800773" lon="10.4928016"><ele>328.0</ele><time>2026-04-18T10:53:34.637Z</time></trkpt><trkpt lat="45.5800181" lon="10.4928487"><ele>328.0</ele><time>2026-04-18T10:53:35.636Z</time></trkpt><trkpt lat="45.5799503" lon="10.4929092"><ele>328.0</ele><time>2026-04-18T10:53:37.638Z</time></trkpt><trkpt lat="45.5799368" lon="10.4930192"><ele>328.0</ele><time>2026-04-18T10:53:40.638Z</time></trkpt><trkpt lat="45.5799637" lon="10.4931322"><ele>328.0</ele><time>2026-04-18T10:53:42.637Z</time></trkpt><trkpt lat="45.5799768" lon="10.493247"><ele>328.0</ele><time>2026-04-18T10:53:44.637Z</time></trkpt><trkpt lat="45.5799472" lon="10.4933369"><ele>328.0</ele><time>2026-04-18T10:53:47.636Z</time></trkpt><trkpt lat="45.5799278" lon="10.4934367"><ele>327.79999999999995</ele><time>2026-04-18T10:53:49.637Z</time></trkpt><trkpt lat="45.5799127" lon="10.493578"><ele>327.6</ele><time>2026-04-18T10:53:51.636Z</time></trkpt><trkpt lat="45.5799027" lon="10.4937156"><ele>327.4</ele><time>2026-04-18T10:53:53.638Z</time></trkpt><trkpt lat="45.5799352" lon="10.4938124"><ele>327.20000000000005</ele><time>2026-04-18T10:53:55.637Z</time></trkpt><trkpt lat="45.5799042" lon="10.4939725"><ele>327.0</ele><time>2026-04-18T10:53:58.639Z</time></trkpt><trkpt lat="45.5798931" lon="10.4941316"><ele>326.0</ele><time>2026-04-18T10:54:00.637Z</time></trkpt><trkpt lat="45.5799067" lon="10.4943195"><ele>325.0</ele><time>2026-04-18T10:54:02.637Z</time></trkpt><trkpt lat="45.5799253" lon="10.4944341"><ele>324.0</ele><time>2026-04-18T10:54:03.637Z</time></trkpt><trkpt lat="45.5799447" lon="10.4945345"><ele>323.0</ele><time>2026-04-18T10:54:04.637Z</time></trkpt><trkpt lat="45.5799353" lon="10.4946357"><ele>322.0</ele><time>2026-04-18T10:54:05.637Z</time></trkpt><trkpt lat="45.579963" lon="10.4947539"><ele>321.0</ele><time>2026-04-18T10:54:06.637Z</time></trkpt><trkpt lat="45.5799861" lon="10.4948562"><ele>319.1666666666667</ele><time>2026-04-18T10:54:07.638Z</time></trkpt><trkpt lat="45.5799717" lon="10.4949724"><ele>317.3333333333333</ele><time>2026-04-18T10:54:09.637Z</time></trkpt><trkpt lat="45.5799766" lon="10.495071"><ele>315.5</ele><time>2026-04-18T10:54:18.637Z</time></trkpt><trkpt lat="45.5800386" lon="10.4951218"><ele>313.66666666666663</ele><time>2026-04-18T10:54:20.637Z</time></trkpt><trkpt lat="45.5801197" lon="10.4951898"><ele>311.8333333333333</ele><time>2026-04-18T10:54:22.636Z</time></trkpt><trkpt lat="45.5802024" lon="10.495264"><ele>310.0</ele><time>2026-04-18T10:54:24.637Z</time></trkpt><trkpt lat="45.5802594" lon="10.4953239"><ele>310.0</ele><time>2026-04-18T10:54:25.637Z</time></trkpt><trkpt lat="45.5803205" lon="10.4954069"><ele>310.0</ele><time>2026-04-18T10:54:26.637Z</time></trkpt><trkpt lat="45.5803891" lon="10.4954804"><ele>310.0</ele><time>2026-04-18T10:54:27.638Z</time></trkpt><trkpt lat="45.5804561" lon="10.4955573"><ele>310.0</ele><time>2026-04-18T10:54:28.636Z</time></trkpt><trkpt lat="45.5805355" lon="10.4956324"><ele>310.0</ele><time>2026-04-18T10:54:29.637Z</time></trkpt><trkpt lat="45.580621" lon="10.495713"><ele>310.0</ele><time>2026-04-18T10:54:30.636Z</time></trkpt><trkpt lat="45.5807054" lon="10.4957855"><ele>310.0</ele><time>2026-04-18T10:54:31.637Z</time></trkpt><trkpt lat="45.5807904" lon="10.4958466"><ele>310.0</ele><time>2026-04-18T10:54:32.638Z</time></trkpt><trkpt lat="45.5808784" lon="10.495912"><ele>310.0</ele><time>2026-04-18T10:54:33.637Z</time></trkpt><trkpt lat="45.5809623" lon="10.4959917"><ele>310.0</ele><time>2026-04-18T10:54:34.637Z</time></trkpt><trkpt lat="45.581044" lon="10.4960695"><ele>310.0</ele><time>2026-04-18T10:54:35.637Z</time></trkpt><trkpt lat="45.5811286" lon="10.4961299"><ele>310.0</ele><time>2026-04-18T10:54:36.636Z</time></trkpt><trkpt lat="45.5812146" lon="10.496151"><ele>310.0</ele><time>2026-04-18T10:54:37.637Z</time></trkpt><trkpt lat="45.5813078" lon="10.4961591"><ele>310.0</ele><time>2026-04-18T10:54:38.638Z</time></trkpt><trkpt lat="45.581409" lon="10.4961919"><ele>310.0</ele><time>2026-04-18T10:54:39.636Z</time></trkpt><trkpt lat="45.5814989" lon="10.4962076"><ele>311.4</ele><time>2026-04-18T10:54:40.637Z</time></trkpt><trkpt lat="45.5815999" lon="10.4962358"><ele>312.8</ele><time>2026-04-18T10:54:41.636Z</time></trkpt><trkpt lat="45.5817034" lon="10.496279"><ele>314.2</ele><time>2026-04-18T10:54:42.637Z</time></trkpt><trkpt lat="45.5818026" lon="10.4963147"><ele>315.6</ele><time>2026-04-18T10:54:43.636Z</time></trkpt><trkpt lat="45.5819031" lon="10.4963499"><ele>317.0</ele><time>2026-04-18T10:54:44.636Z</time></trkpt><trkpt lat="45.5819859" lon="10.4963757"><ele>312.6666666666667</ele><time>2026-04-18T10:54:45.636Z</time></trkpt><trkpt lat="45.582067" lon="10.4964019"><ele>308.33333333333337</ele><time>2026-04-18T10:54:47.636Z</time></trkpt><trkpt lat="45.5821398" lon="10.4964272"><ele>304.0</ele><time>2026-04-18T10:54:49.636Z</time></trkpt><trkpt lat="45.5822304" lon="10.4964456"><ele>299.6666666666667</ele><time>2026-04-18T10:54:52.637Z</time></trkpt><trkpt lat="45.5823247" lon="10.4964434"><ele>295.3333333333333</ele><time>2026-04-18T10:54:54.638Z</time></trkpt><trkpt lat="45.5824283" lon="10.496433"><ele>291.0</ele><time>2026-04-18T10:54:56.638Z</time></trkpt><trkpt lat="45.5824985" lon="10.4964336"><ele>291.0</ele><time>2026-04-18T10:54:57.636Z</time></trkpt><trkpt lat="45.5825752" lon="10.4964299"><ele>291.0</ele><time>2026-04-18T10:54:58.636Z</time></trkpt><trkpt lat="45.5826508" lon="10.4964351"><ele>291.0</ele><time>2026-04-18T10:54:59.636Z</time></trkpt><trkpt lat="45.582714" lon="10.4964515"><ele>291.0</ele><time>2026-04-18T10:55:00.638Z</time></trkpt><trkpt lat="45.5828058" lon="10.4965153"><ele>291.0</ele><time>2026-04-18T10:55:02.636Z</time></trkpt><trkpt lat="45.5828434" lon="10.4966075"><ele>291.0</ele><time>2026-04-18T10:55:09.636Z</time></trkpt><trkpt lat="45.5828929" lon="10.4966631"><ele>291.5</ele><time>2026-04-18T10:55:10.637Z</time></trkpt><trkpt lat="45.5829682" lon="10.4967157"><ele>292.0</ele><time>2026-04-18T10:55:11.637Z</time></trkpt><trkpt lat="45.5830339" lon="10.4967606"><ele>292.5</ele><time>2026-04-18T10:55:12.637Z</time></trkpt><trkpt lat="45.5830996" lon="10.4968097"><ele>293.0</ele><time>2026-04-18T10:55:13.637Z</time></trkpt><trkpt lat="45.583169" lon="10.4968643"><ele>293.5</ele><time>2026-04-18T10:55:14.637Z</time></trkpt><trkpt lat="45.5832366" lon="10.4969336"><ele>294.0</ele><time>2026-04-18T10:55:15.636Z</time></trkpt><trkpt lat="45.5832902" lon="10.4970319"><ele>292.2</ele><time>2026-04-18T10:55:16.637Z</time></trkpt><trkpt lat="45.5833179" lon="10.4971523"><ele>290.4</ele><time>2026-04-18T10:55:17.637Z</time></trkpt><trkpt lat="45.5833403" lon="10.4972818"><ele>288.6</ele><time>2026-04-18T10:55:18.638Z</time></trkpt><trkpt lat="45.5833539" lon="10.4974152"><ele>286.8</ele><time>2026-04-18T10:55:19.636Z</time></trkpt><trkpt lat="45.5833555" lon="10.4975441"><ele>285.0</ele><time>2026-04-18T10:55:20.635Z</time></trkpt><trkpt lat="45.5833504" lon="10.4976633"><ele>285.0</ele><time>2026-04-18T10:55:21.637Z</time></trkpt><trkpt lat="45.5833317" lon="10.4977739"><ele>285.0</ele><time>2026-04-18T10:55:22.635Z</time></trkpt><trkpt lat="45.5832521" lon="10.4978697"><ele>285.0</ele><time>2026-04-18T10:55:23.636Z</time></trkpt><trkpt lat="45.5831809" lon="10.4979187"><ele>285.0</ele><time>2026-04-18T10:55:24.637Z</time></trkpt><trkpt lat="45.5830846" lon="10.4979541"><ele>285.0</ele><time>2026-04-18T10:55:26.636Z</time></trkpt><trkpt lat="45.5830356" lon="10.4980423"><ele>285.0</ele><time>2026-04-18T10:55:27.636Z</time></trkpt><trkpt lat="45.5829866" lon="10.4981113"><ele>285.3333333333333</ele><time>2026-04-18T10:55:28.637Z</time></trkpt><trkpt lat="45.5829409" lon="10.4981772"><ele>285.6666666666667</ele><time>2026-04-18T10:55:29.636Z</time></trkpt><trkpt lat="45.5828862" lon="10.4982516"><ele>286.0</ele><time>2026-04-18T10:55:30.637Z</time></trkpt><trkpt lat="45.5828256" lon="10.498346"><ele>286.33333333333337</ele><time>2026-04-18T10:55:31.637Z</time></trkpt><trkpt lat="45.5827679" lon="10.4984324"><ele>286.6666666666667</ele><time>2026-04-18T10:55:32.635Z</time></trkpt><trkpt lat="45.5827228" lon="10.4985218"><ele>287.0</ele><time>2026-04-18T10:55:33.636Z</time></trkpt><trkpt lat="45.5826893" lon="10.4986294"><ele>285.1666666666667</ele><time>2026-04-18T10:55:34.636Z</time></trkpt><trkpt lat="45.5826666" lon="10.4987704"><ele>283.33333333333337</ele><time>2026-04-18T10:55:35.636Z</time></trkpt><trkpt lat="45.5826446" lon="10.498903"><ele>281.5</ele><time>2026-04-18T10:55:36.636Z</time></trkpt><trkpt lat="45.5826442" lon="10.4990008"><ele>279.6666666666667</ele><time>2026-04-18T10:55:37.637Z</time></trkpt><trkpt lat="45.5826458" lon="10.4991247"><ele>277.8333333333333</ele><time>2026-04-18T10:55:38.637Z</time></trkpt><trkpt lat="45.5826468" lon="10.4992378"><ele>276.0</ele><time>2026-04-18T10:55:39.637Z</time></trkpt><trkpt lat="45.5826505" lon="10.4993654"><ele>276.0</ele><time>2026-04-18T10:55:40.636Z</time></trkpt><trkpt lat="45.582649" lon="10.4994859"><ele>276.0</ele><time>2026-04-18T10:55:41.637Z</time></trkpt><trkpt lat="45.5826447" lon="10.4996"><ele>276.0</ele><time>2026-04-18T10:55:42.637Z</time></trkpt><trkpt lat="45.5826472" lon="10.4997075"><ele>276.0</ele><time>2026-04-18T10:55:43.637Z</time></trkpt><trkpt lat="45.5826608" lon="10.4998046"><ele>276.0</ele><time>2026-04-18T10:55:44.637Z</time></trkpt><trkpt lat="45.582671" lon="10.4999"><ele>276.0</ele><time>2026-04-18T10:55:45.637Z</time></trkpt><trkpt lat="45.5826957" lon="10.5000414"><ele>276.75</ele><time>2026-04-18T10:55:47.637Z</time></trkpt><trkpt lat="45.582719" lon="10.5001983"><ele>277.5</ele><time>2026-04-18T10:55:49.637Z</time></trkpt><trkpt lat="45.5827576" lon="10.5003584"><ele>278.25</ele><time>2026-04-18T10:55:51.637Z</time></trkpt><trkpt lat="45.5827958" lon="10.5005119"><ele>279.0</ele><time>2026-04-18T10:55:53.635Z</time></trkpt><trkpt lat="45.582873" lon="10.5006578"><ele>279.0</ele><time>2026-04-18T10:55:55.637Z</time></trkpt><trkpt lat="45.5829253" lon="10.5007272"><ele>279.0</ele><time>2026-04-18T10:55:56.636Z</time></trkpt><trkpt lat="45.5830006" lon="10.5008309"><ele>279.0</ele><time>2026-04-18T10:55:58.637Z</time></trkpt><trkpt lat="45.583091" lon="10.50091"><ele>279.0</ele><time>2026-04-18T10:56:00.635Z</time></trkpt><trkpt lat="45.5831567" lon="10.5009742"><ele>279.0</ele><time>2026-04-18T10:56:02.635Z</time></trkpt><trkpt lat="45.5832407" lon="10.5010331"><ele>279.0</ele><time>2026-04-18T10:56:04.638Z</time></trkpt><trkpt lat="45.583335" lon="10.5010877"><ele>279.0</ele><time>2026-04-18T10:56:06.636Z</time></trkpt><trkpt lat="45.5833853" lon="10.5011446"><ele>279.0</ele><time>2026-04-18T10:56:32.638Z</time></trkpt><trkpt lat="45.5833012" lon="10.5010402"><ele>279.0</ele><time>2026-04-18T10:56:37.635Z</time></trkpt><trkpt lat="45.5832407" lon="10.501002"><ele>279.0</ele><time>2026-04-18T10:56:38.635Z</time></trkpt><trkpt lat="45.5831729" lon="10.5009529"><ele>279.0</ele><time>2026-04-18T10:56:39.637Z</time></trkpt><trkpt lat="45.5830981" lon="10.5008888"><ele>279.0</ele><time>2026-04-18T10:56:40.636Z</time></trkpt><trkpt lat="45.5830254" lon="10.500821"><ele>279.0</ele><time>2026-04-18T10:56:41.636Z</time></trkpt><trkpt lat="45.5829599" lon="10.5007405"><ele>279.0</ele><time>2026-04-18T10:56:42.636Z</time></trkpt><trkpt lat="45.5829023" lon="10.5006498"><ele>279.0</ele><time>2026-04-18T10:56:43.636Z</time></trkpt><trkpt lat="45.582852" lon="10.500551"><ele>279.0</ele><time>2026-04-18T10:56:44.638Z</time></trkpt><trkpt lat="45.5828049" lon="10.5004566"><ele>279.0</ele><time>2026-04-18T10:56:45.636Z</time></trkpt><trkpt lat="45.582768" lon="10.5003457"><ele>277.59999999999997</ele><time>2026-04-18T10:56:46.638Z</time></trkpt><trkpt lat="45.5827378" lon="10.5002199"><ele>276.2</ele><time>2026-04-18T10:56:47.637Z</time></trkpt><trkpt lat="45.5827137" lon="10.500084"><ele>274.79999999999995</ele><time>2026-04-18T10:56:48.637Z</time></trkpt><trkpt lat="45.582687" lon="10.4999249"><ele>273.4</ele><time>2026-04-18T10:56:49.636Z</time></trkpt><trkpt lat="45.582666" lon="10.4997521"><ele>272.0</ele><time>2026-04-18T10:56:50.635Z</time></trkpt><trkpt lat="45.582659" lon="10.4995854"><ele>273.0</ele><time>2026-04-18T10:56:51.636Z</time></trkpt><trkpt lat="45.5826576" lon="10.4994293"><ele>274.0</ele><time>2026-04-18T10:56:52.636Z</time></trkpt><trkpt lat="45.5826498" lon="10.4992597"><ele>275.0</ele><time>2026-04-18T10:56:53.637Z</time></trkpt><trkpt lat="45.5826423" lon="10.4990895"><ele>276.0</ele><time>2026-04-18T10:56:54.636Z</time></trkpt><trkpt lat="45.582646" lon="10.4989393"><ele>276.0</ele><time>2026-04-18T10:56:55.636Z</time></trkpt><trkpt lat="45.5826606" lon="10.4988049"><ele>276.0</ele><time>2026-04-18T10:56:56.636Z</time></trkpt><trkpt lat="45.5826832" lon="10.4986793"><ele>276.0</ele><time>2026-04-18T10:56:57.636Z</time></trkpt><trkpt lat="45.5827157" lon="10.4985562"><ele>276.0</ele><time>2026-04-18T10:56:58.636Z</time></trkpt><trkpt lat="45.582765" lon="10.4984531"><ele>276.0</ele><time>2026-04-18T10:56:59.635Z</time></trkpt><trkpt lat="45.5828275" lon="10.4983589"><ele>277.5</ele><time>2026-04-18T10:57:00.636Z</time></trkpt><trkpt lat="45.5828934" lon="10.4982625"><ele>279.0</ele><time>2026-04-18T10:57:01.635Z</time></trkpt><trkpt lat="45.5829535" lon="10.4981699"><ele>280.5</ele><time>2026-04-18T10:57:02.636Z</time></trkpt><trkpt lat="45.5830043" lon="10.4980698"><ele>282.0</ele><time>2026-04-18T10:57:03.636Z</time></trkpt><trkpt lat="45.583058" lon="10.4979771"><ele>283.5</ele><time>2026-04-18T10:57:04.636Z</time></trkpt><trkpt lat="45.5831324" lon="10.4979116"><ele>285.0</ele><time>2026-04-18T10:57:05.637Z</time></trkpt><trkpt lat="45.583206" lon="10.4978628"><ele>285.0</ele><time>2026-04-18T10:57:06.636Z</time></trkpt><trkpt lat="45.5832738" lon="10.497807"><ele>285.0</ele><time>2026-04-18T10:57:07.636Z</time></trkpt><trkpt lat="45.5833308" lon="10.497656"><ele>285.0</ele><time>2026-04-18T10:57:09.638Z</time></trkpt><trkpt lat="45.5833258" lon="10.4975275"><ele>285.0</ele><time>2026-04-18T10:57:10.636Z</time></trkpt><trkpt lat="45.5833333" lon="10.4974129"><ele>285.0</ele><time>2026-04-18T10:57:11.637Z</time></trkpt><trkpt lat="45.5833292" lon="10.4973158"><ele>285.0</ele><time>2026-04-18T10:57:12.636Z</time></trkpt><trkpt lat="45.583305" lon="10.4971933"><ele>285.0</ele><time>2026-04-18T10:57:13.638Z</time></trkpt><trkpt lat="45.5832888" lon="10.4970924"><ele>285.0</ele><time>2026-04-18T10:57:14.636Z</time></trkpt><trkpt lat="45.5832507" lon="10.4969953"><ele>285.0</ele><time>2026-04-18T10:57:15.636Z</time></trkpt><trkpt lat="45.583186" lon="10.4969194"><ele>285.0</ele><time>2026-04-18T10:57:16.637Z</time></trkpt><trkpt lat="45.5831112" lon="10.4968583"><ele>285.0</ele><time>2026-04-18T10:57:17.636Z</time></trkpt><trkpt lat="45.5830395" lon="10.4968064"><ele>285.0</ele><time>2026-04-18T10:57:18.636Z</time></trkpt><trkpt lat="45.5829773" lon="10.4967438"><ele>286.2857142857143</ele><time>2026-04-18T10:57:19.636Z</time></trkpt><trkpt lat="45.5829205" lon="10.4966873"><ele>287.57142857142856</ele><time>2026-04-18T10:57:20.637Z</time></trkpt><trkpt lat="45.5828703" lon="10.4966133"><ele>288.8571428571429</ele><time>2026-04-18T10:57:22.635Z</time></trkpt><trkpt lat="45.5828797" lon="10.4965019"><ele>290.1428571428571</ele><time>2026-04-18T10:58:06.637Z</time></trkpt><trkpt lat="45.5829442" lon="10.4964703"><ele>291.42857142857144</ele><time>2026-04-18T10:58:09.636Z</time></trkpt><trkpt lat="45.5828716" lon="10.496486"><ele>292.7142857142857</ele><time>2026-04-18T10:58:27.636Z</time></trkpt><trkpt lat="45.5828787" lon="10.4965972"><ele>294.0</ele><time>2026-04-18T10:58:39.636Z</time></trkpt><trkpt lat="45.5828495" lon="10.4966772"><ele>294.0</ele><time>2026-04-18T10:58:41.635Z</time></trkpt><trkpt lat="45.5828141" lon="10.496761"><ele>294.0</ele><time>2026-04-18T10:58:45.635Z</time></trkpt><trkpt lat="45.5828994" lon="10.4966827"><ele>294.0</ele><time>2026-04-18T10:58:48.635Z</time></trkpt><trkpt lat="45.5829935" lon="10.4966787"><ele>294.0</ele><time>2026-04-18T10:58:50.636Z</time></trkpt><trkpt lat="45.5830527" lon="10.4967275"><ele>294.0</ele><time>2026-04-18T10:58:51.636Z</time></trkpt><trkpt lat="45.5831168" lon="10.4967809"><ele>294.0</ele><time>2026-04-18T10:58:52.636Z</time></trkpt><trkpt lat="45.5831729" lon="10.4968391"><ele>294.0</ele><time>2026-04-18T10:58:53.636Z</time></trkpt><trkpt lat="45.5832323" lon="10.4969035"><ele>294.0</ele><time>2026-04-18T10:58:54.635Z</time></trkpt><trkpt lat="45.5832821" lon="10.4969862"><ele>294.0</ele><time>2026-04-18T10:58:55.635Z</time></trkpt><trkpt lat="45.5833156" lon="10.4970901"><ele>294.0</ele><time>2026-04-18T10:58:56.636Z</time></trkpt><trkpt lat="45.5833335" lon="10.4972008"><ele>294.0</ele><time>2026-04-18T10:58:57.636Z</time></trkpt><trkpt lat="45.5833446" lon="10.4973169"><ele>294.0</ele><time>2026-04-18T10:58:58.636Z</time></trkpt><trkpt lat="45.5833488" lon="10.497435"><ele>292.8333333333333</ele><time>2026-04-18T10:58:59.636Z</time></trkpt><trkpt lat="45.5833493" lon="10.4975564"><ele>291.6666666666667</ele><time>2026-04-18T10:59:00.636Z</time></trkpt><trkpt lat="45.5833373" lon="10.4976834"><ele>290.5</ele><time>2026-04-18T10:59:01.636Z</time></trkpt><trkpt lat="45.5832847" lon="10.4977747"><ele>289.33333333333337</ele><time>2026-04-18T10:59:02.636Z</time></trkpt><trkpt lat="45.5832165" lon="10.4978362"><ele>288.1666666666667</ele><time>2026-04-18T10:59:03.636Z</time></trkpt><trkpt lat="45.5831541" lon="10.497892"><ele>287.0</ele><time>2026-04-18T10:59:04.636Z</time></trkpt><trkpt lat="45.583096" lon="10.4979526"><ele>287.0</ele><time>2026-04-18T10:59:05.636Z</time></trkpt><trkpt lat="45.5830411" lon="10.4980258"><ele>287.0</ele><time>2026-04-18T10:59:06.636Z</time></trkpt><trkpt lat="45.5829908" lon="10.4981165"><ele>287.0</ele><time>2026-04-18T10:59:07.636Z</time></trkpt><trkpt lat="45.5829384" lon="10.4982121"><ele>287.0</ele><time>2026-04-18T10:59:08.635Z</time></trkpt><trkpt lat="45.5828818" lon="10.4983049"><ele>287.0</ele><time>2026-04-18T10:59:09.636Z</time></trkpt><trkpt lat="45.582822" lon="10.4983935"><ele>287.0</ele><time>2026-04-18T10:59:10.635Z</time></trkpt><trkpt lat="45.5827633" lon="10.4984716"><ele>285.6</ele><time>2026-04-18T10:59:11.636Z</time></trkpt><trkpt lat="45.5827169" lon="10.4985747"><ele>284.2</ele><time>2026-04-18T10:59:12.636Z</time></trkpt><trkpt lat="45.5826781" lon="10.4986782"><ele>282.8</ele><time>2026-04-18T10:59:13.635Z</time></trkpt><trkpt lat="45.5826514" lon="10.4988196"><ele>281.4</ele><time>2026-04-18T10:59:14.636Z</time></trkpt><trkpt lat="45.5826413" lon="10.4989617"><ele>280.0</ele><time>2026-04-18T10:59:15.637Z</time></trkpt><trkpt lat="45.5826521" lon="10.4991021"><ele>279.2</ele><time>2026-04-18T10:59:16.635Z</time></trkpt><trkpt lat="45.5826592" lon="10.4992383"><ele>278.4</ele><time>2026-04-18T10:59:17.635Z</time></trkpt><trkpt lat="45.5826606" lon="10.4993773"><ele>277.6</ele><time>2026-04-18T10:59:18.635Z</time></trkpt><trkpt lat="45.5826619" lon="10.4995185"><ele>276.8</ele><time>2026-04-18T10:59:19.636Z</time></trkpt><trkpt lat="45.5826643" lon="10.4996463"><ele>276.0</ele><time>2026-04-18T10:59:20.635Z</time></trkpt><trkpt lat="45.5826745" lon="10.4997717"><ele>275.3333333333333</ele><time>2026-04-18T10:59:21.636Z</time></trkpt><trkpt lat="45.5826903" lon="10.4999019"><ele>274.6666666666667</ele><time>2026-04-18T10:59:22.637Z</time></trkpt><trkpt lat="45.5827111" lon="10.5000241"><ele>274.0</ele><time>2026-04-18T10:59:23.637Z</time></trkpt><trkpt lat="45.5827354" lon="10.5001502"><ele>273.33333333333337</ele><time>2026-04-18T10:59:24.636Z</time></trkpt><trkpt lat="45.5827541" lon="10.5002689"><ele>272.6666666666667</ele><time>2026-04-18T10:59:25.636Z</time></trkpt><trkpt lat="45.5827789" lon="10.5003803"><ele>272.0</ele><time>2026-04-18T10:59:26.636Z</time></trkpt><trkpt lat="45.582809" lon="10.5004774"><ele>273.1666666666667</ele><time>2026-04-18T10:59:27.636Z</time></trkpt><trkpt lat="45.5828582" lon="10.500573"><ele>274.33333333333337</ele><time>2026-04-18T10:59:28.636Z</time></trkpt><trkpt lat="45.5829072" lon="10.5006702"><ele>275.5</ele><time>2026-04-18T10:59:29.636Z</time></trkpt><trkpt lat="45.5829718" lon="10.5007634"><ele>276.6666666666667</ele><time>2026-04-18T10:59:30.635Z</time></trkpt><trkpt lat="45.5830475" lon="10.5008389"><ele>277.8333333333333</ele><time>2026-04-18T10:59:31.635Z</time></trkpt><trkpt lat="45.5831241" lon="10.5009174"><ele>279.0</ele><time>2026-04-18T10:59:32.635Z</time></trkpt><trkpt lat="45.5832019" lon="10.5009915"><ele>279.0</ele><time>2026-04-18T10:59:33.636Z</time></trkpt><trkpt lat="45.5832902" lon="10.5010639"><ele>279.0</ele><time>2026-04-18T10:59:34.635Z</time></trkpt><trkpt lat="45.5833634" lon="10.501123"><ele>279.0</ele><time>2026-04-18T10:59:35.636Z</time></trkpt><trkpt lat="45.5834606" lon="10.5011689"><ele>279.0</ele><time>2026-04-18T10:59:36.636Z</time></trkpt><trkpt lat="45.5835478" lon="10.5012261"><ele>279.0</ele><time>2026-04-18T10:59:37.636Z</time></trkpt><trkpt lat="45.5836217" lon="10.5013056"><ele>278.3333333333333</ele><time>2026-04-18T10:59:38.636Z</time></trkpt><trkpt lat="45.5836787" lon="10.5013985"><ele>277.6666666666667</ele><time>2026-04-18T10:59:39.636Z</time></trkpt><trkpt lat="45.5837183" lon="10.5015124"><ele>277.0</ele><time>2026-04-18T10:59:40.637Z</time></trkpt><trkpt lat="45.5837448" lon="10.5016201"><ele>276.33333333333337</ele><time>2026-04-18T10:59:41.635Z</time></trkpt><trkpt lat="45.5837804" lon="10.5017176"><ele>275.6666666666667</ele><time>2026-04-18T10:59:42.636Z</time></trkpt><trkpt lat="45.5838172" lon="10.501802"><ele>275.0</ele><time>2026-04-18T10:59:43.635Z</time></trkpt><trkpt lat="45.5838511" lon="10.5018836"><ele>275.0</ele><time>2026-04-18T10:59:44.636Z</time></trkpt><trkpt lat="45.5838723" lon="10.5020431"><ele>275.0</ele><time>2026-04-18T10:59:46.636Z</time></trkpt><trkpt lat="45.5838431" lon="10.5022207"><ele>275.0</ele><time>2026-04-18T10:59:48.635Z</time></trkpt><trkpt lat="45.5838275" lon="10.5023104"><ele>275.0</ele><time>2026-04-18T10:59:49.636Z</time></trkpt><trkpt lat="45.5838173" lon="10.5023994"><ele>275.0</ele><time>2026-04-18T10:59:50.636Z</time></trkpt><trkpt lat="45.5838079" lon="10.5024888"><ele>275.0</ele><time>2026-04-18T10:59:51.637Z</time></trkpt><trkpt lat="45.5837871" lon="10.5026605"><ele>274.6666666666667</ele><time>2026-04-18T10:59:53.637Z</time></trkpt><trkpt lat="45.5838822" lon="10.5027227"><ele>274.33333333333337</ele><time>2026-04-18T10:59:54.637Z</time></trkpt><trkpt lat="45.5839454" lon="10.5027784"><ele>274.0</ele><time>2026-04-18T10:59:55.635Z</time></trkpt><trkpt lat="45.5840299" lon="10.5028225"><ele>273.6666666666667</ele><time>2026-04-18T10:59:56.637Z</time></trkpt><trkpt lat="45.5841081" lon="10.5028555"><ele>273.3333333333333</ele><time>2026-04-18T10:59:57.635Z</time></trkpt><trkpt lat="45.5841829" lon="10.50289"><ele>273.0</ele><time>2026-04-18T10:59:58.635Z</time></trkpt><trkpt lat="45.5843" lon="10.5029047"><ele>273.0</ele><time>2026-04-18T11:00:00.636Z</time></trkpt><trkpt lat="45.5843676" lon="10.5029121"><ele>273.0</ele><time>2026-04-18T11:00:01.635Z</time></trkpt><trkpt lat="45.5844401" lon="10.5029249"><ele>273.0</ele><time>2026-04-18T11:00:02.634Z</time></trkpt><trkpt lat="45.5844976" lon="10.5029737"><ele>273.0</ele><time>2026-04-18T11:00:03.636Z</time></trkpt><trkpt lat="45.5845644" lon="10.5029986"><ele>273.0</ele><time>2026-04-18T11:00:04.636Z</time></trkpt><trkpt lat="45.5846369" lon="10.5030286"><ele>273.0</ele><time>2026-04-18T11:00:05.636Z</time></trkpt><trkpt lat="45.5847062" lon="10.5030611"><ele>273.0</ele><time>2026-04-18T11:00:06.636Z</time></trkpt><trkpt lat="45.5848052" lon="10.5031254"><ele>271.0</ele><time>2026-04-18T11:00:07.636Z</time></trkpt><trkpt lat="45.5848864" lon="10.5031735"><ele>269.0</ele><time>2026-04-18T11:00:08.635Z</time></trkpt><trkpt lat="45.5849687" lon="10.5032343"><ele>267.0</ele><time>2026-04-18T11:00:09.634Z</time></trkpt><trkpt lat="45.585048" lon="10.5032748"><ele>265.0</ele><time>2026-04-18T11:00:10.636Z</time></trkpt><trkpt lat="45.5851098" lon="10.5033111"><ele>263.0</ele><time>2026-04-18T11:00:11.637Z</time></trkpt><trkpt lat="45.5851959" lon="10.5033471"><ele>261.0</ele><time>2026-04-18T11:00:13.636Z</time></trkpt><trkpt lat="45.5852829" lon="10.5033111"><ele>260.0</ele><time>2026-04-18T11:00:16.636Z</time></trkpt><trkpt lat="45.5853579" lon="10.5031975"><ele>259.0</ele><time>2026-04-18T11:00:18.636Z</time></trkpt><trkpt lat="45.5854247" lon="10.5030136"><ele>258.0</ele><time>2026-04-18T11:00:20.634Z</time></trkpt><trkpt lat="45.5854464" lon="10.5028869"><ele>257.0</ele><time>2026-04-18T11:00:21.636Z</time></trkpt><trkpt lat="45.5854501" lon="10.5027489"><ele>256.0</ele><time>2026-04-18T11:00:22.635Z</time></trkpt><trkpt lat="45.5854761" lon="10.5026414"><ele>255.99999999999997</ele><time>2026-04-18T11:00:23.636Z</time></trkpt><trkpt lat="45.585499" lon="10.5025148"><ele>256.0</ele><time>2026-04-18T11:00:24.635Z</time></trkpt><trkpt lat="45.5855242" lon="10.5024043"><ele>256.0</ele><time>2026-04-18T11:00:25.636Z</time></trkpt><trkpt lat="45.5855568" lon="10.5022956"><ele>256.0</ele><time>2026-04-18T11:00:26.636Z</time></trkpt><trkpt lat="45.5855903" lon="10.5021747"><ele>255.99999999999997</ele><time>2026-04-18T11:00:27.635Z</time></trkpt><trkpt lat="45.5856208" lon="10.5020645"><ele>256.0</ele><time>2026-04-18T11:00:28.637Z</time></trkpt><trkpt lat="45.5856594" lon="10.5019597"><ele>257.16666666666663</ele><time>2026-04-18T11:00:29.635Z</time></trkpt><trkpt lat="45.5856767" lon="10.501849"><ele>258.3333333333333</ele><time>2026-04-18T11:00:30.637Z</time></trkpt><trkpt lat="45.585689" lon="10.5017151"><ele>259.5</ele><time>2026-04-18T11:00:31.636Z</time></trkpt><trkpt lat="45.5857238" lon="10.5015913"><ele>260.6666666666667</ele><time>2026-04-18T11:00:32.634Z</time></trkpt><trkpt lat="45.5857573" lon="10.5014802"><ele>261.83333333333337</ele><time>2026-04-18T11:00:33.636Z</time></trkpt><trkpt lat="45.5858096" lon="10.5013928"><ele>263.0</ele><time>2026-04-18T11:00:34.636Z</time></trkpt><trkpt lat="45.585853" lon="10.5013241"><ele>263.0</ele><time>2026-04-18T11:00:35.636Z</time></trkpt><trkpt lat="45.5859457" lon="10.5012939"><ele>263.0</ele><time>2026-04-18T11:00:37.634Z</time></trkpt><trkpt lat="45.5860137" lon="10.5012899"><ele>263.0</ele><time>2026-04-18T11:00:40.635Z</time></trkpt><trkpt lat="45.5860807" lon="10.5013307"><ele>263.0</ele><time>2026-04-18T11:01:21.636Z</time></trkpt><trkpt lat="45.5861625" lon="10.5012935"><ele>263.0</ele><time>2026-04-18T11:01:35.635Z</time></trkpt><trkpt lat="45.5862307" lon="10.5012631"><ele>263.0</ele><time>2026-04-18T11:01:36.636Z</time></trkpt><trkpt lat="45.5863086" lon="10.5012289"><ele>263.2</ele><time>2026-04-18T11:01:37.635Z</time></trkpt><trkpt lat="45.5863815" lon="10.5011953"><ele>263.4</ele><time>2026-04-18T11:01:38.637Z</time></trkpt><trkpt lat="45.5864865" lon="10.5011643"><ele>263.59999999999997</ele><time>2026-04-18T11:01:40.635Z</time></trkpt><trkpt lat="45.5866187" lon="10.5011929"><ele>263.8</ele><time>2026-04-18T11:01:42.635Z</time></trkpt><trkpt lat="45.5866648" lon="10.5012969"><ele>264.0</ele><time>2026-04-18T11:01:44.635Z</time></trkpt><trkpt lat="45.5866298" lon="10.5015158"><ele>264.0</ele><time>2026-04-18T11:01:46.636Z</time></trkpt><trkpt lat="45.5865932" lon="10.5016226"><ele>264.0</ele><time>2026-04-18T11:01:47.635Z</time></trkpt><trkpt lat="45.5865864" lon="10.5017626"><ele>264.0</ele><time>2026-04-18T11:01:48.634Z</time></trkpt><trkpt lat="45.5865774" lon="10.5019049"><ele>264.0</ele><time>2026-04-18T11:01:49.636Z</time></trkpt><trkpt lat="45.5865755" lon="10.5020522"><ele>264.0</ele><time>2026-04-18T11:01:50.634Z</time></trkpt><trkpt lat="45.5865885" lon="10.5021668"><ele>261.0</ele><time>2026-04-18T11:01:51.635Z</time></trkpt><trkpt lat="45.5865983" lon="10.5022916"><ele>258.0</ele><time>2026-04-18T11:01:52.635Z</time></trkpt><trkpt lat="45.5866109" lon="10.5024201"><ele>254.99999999999997</ele><time>2026-04-18T11:01:53.634Z</time></trkpt><trkpt lat="45.5866329" lon="10.502508"><ele>252.0</ele><time>2026-04-18T11:01:54.635Z</time></trkpt><trkpt lat="45.5866895" lon="10.5026783"><ele>249.0</ele><time>2026-04-18T11:01:56.635Z</time></trkpt><trkpt lat="45.5867836" lon="10.5026952"><ele>249.0</ele><time>2026-04-18T11:01:57.637Z</time></trkpt><trkpt lat="45.5868514" lon="10.5027286"><ele>248.99999999999997</ele><time>2026-04-18T11:01:58.635Z</time></trkpt><trkpt lat="45.5869156" lon="10.502742"><ele>249.0</ele><time>2026-04-18T11:01:59.636Z</time></trkpt><trkpt lat="45.5869748" lon="10.5027772"><ele>249.0</ele><time>2026-04-18T11:02:00.636Z</time></trkpt><trkpt lat="45.587039" lon="10.5028083"><ele>248.99999999999997</ele><time>2026-04-18T11:02:01.636Z</time></trkpt><trkpt lat="45.5871103" lon="10.5028282"><ele>249.0</ele><time>2026-04-18T11:02:02.636Z</time></trkpt><trkpt lat="45.5872157" lon="10.5028451"><ele>249.0</ele><time>2026-04-18T11:02:04.635Z</time></trkpt><trkpt lat="45.587304" lon="10.5028814"><ele>249.33333333333334</ele><time>2026-04-18T11:02:06.636Z</time></trkpt><trkpt lat="45.5873908" lon="10.5028411"><ele>249.66666666666669</ele><time>2026-04-18T11:02:07.636Z</time></trkpt><trkpt lat="45.5875134" lon="10.5028"><ele>250.0</ele><time>2026-04-18T11:02:09.635Z</time></trkpt><trkpt lat="45.5875775" lon="10.5027958"><ele>250.33333333333334</ele><time>2026-04-18T11:02:10.636Z</time></trkpt><trkpt lat="45.5876448" lon="10.5027829"><ele>250.66666666666669</ele><time>2026-04-18T11:02:11.636Z</time></trkpt><trkpt lat="45.5877138" lon="10.5028161"><ele>251.0</ele><time>2026-04-18T11:02:12.635Z</time></trkpt><trkpt lat="45.5878339" lon="10.5027756"><ele>249.83333333333334</ele><time>2026-04-18T11:02:14.635Z</time></trkpt><trkpt lat="45.5879018" lon="10.5027909"><ele>248.66666666666669</ele><time>2026-04-18T11:02:15.636Z</time></trkpt><trkpt lat="45.588009" lon="10.5027985"><ele>247.5</ele><time>2026-04-18T11:02:17.635Z</time></trkpt><trkpt lat="45.5880769" lon="10.5028178"><ele>246.33333333333331</ele><time>2026-04-18T11:02:20.637Z</time></trkpt><trkpt lat="45.5881502" lon="10.5028559"><ele>245.16666666666666</ele><time>2026-04-18T11:02:22.637Z</time></trkpt><trkpt lat="45.5882499" lon="10.5028898"><ele>244.0</ele><time>2026-04-18T11:02:24.637Z</time></trkpt><trkpt lat="45.5883331" lon="10.5029313"><ele>241.0</ele><time>2026-04-18T11:02:26.636Z</time></trkpt><trkpt lat="45.5884187" lon="10.5029809"><ele>237.99999999999997</ele><time>2026-04-18T11:02:28.635Z</time></trkpt><trkpt lat="45.5885143" lon="10.5030058"><ele>234.99999999999997</ele><time>2026-04-18T11:02:30.636Z</time></trkpt><trkpt lat="45.588618" lon="10.5030494"><ele>232.0</ele><time>2026-04-18T11:02:32.636Z</time></trkpt><trkpt lat="45.5887268" lon="10.5030768"><ele>229.0</ele><time>2026-04-18T11:02:34.635Z</time></trkpt><trkpt lat="45.5888405" lon="10.5031359"><ele>227.99999999999997</ele><time>2026-04-18T11:02:36.636Z</time></trkpt><trkpt lat="45.5889" lon="10.5031933"><ele>227.0</ele><time>2026-04-18T11:02:37.635Z</time></trkpt><trkpt lat="45.5889592" lon="10.5032528"><ele>226.0</ele><time>2026-04-18T11:02:38.636Z</time></trkpt><trkpt lat="45.5890148" lon="10.5033242"><ele>225.0</ele><time>2026-04-18T11:02:39.635Z</time></trkpt><trkpt lat="45.5890614" lon="10.5033991"><ele>223.99999999999997</ele><time>2026-04-18T11:02:40.635Z</time></trkpt><trkpt lat="45.5891052" lon="10.5034794"><ele>223.0</ele><time>2026-04-18T11:02:41.634Z</time></trkpt><trkpt lat="45.5891894" lon="10.5035865"><ele>223.0</ele><time>2026-04-18T11:02:43.636Z</time></trkpt><trkpt lat="45.5892742" lon="10.5037171"><ele>223.0</ele><time>2026-04-18T11:02:45.635Z</time></trkpt><trkpt lat="45.5893928" lon="10.5038112"><ele>223.0</ele><time>2026-04-18T11:02:47.637Z</time></trkpt><trkpt lat="45.5895183" lon="10.5038472"><ele>223.0</ele><time>2026-04-18T11:02:49.634Z</time></trkpt><trkpt lat="45.5895997" lon="10.5038039"><ele>220.49999999999997</ele><time>2026-04-18T11:02:50.634Z</time></trkpt><trkpt lat="45.589667" lon="10.5037611"><ele>218.0</ele><time>2026-04-18T11:02:51.636Z</time></trkpt><trkpt lat="45.5897423" lon="10.5037354"><ele>215.5</ele><time>2026-04-18T11:02:52.636Z</time></trkpt><trkpt lat="45.5898141" lon="10.5037015"><ele>213.0</ele><time>2026-04-18T11:02:53.635Z</time></trkpt><trkpt lat="45.5898922" lon="10.5036778"><ele>210.49999999999997</ele><time>2026-04-18T11:02:54.635Z</time></trkpt><trkpt lat="45.5899716" lon="10.5036582"><ele>208.0</ele><time>2026-04-18T11:02:55.635Z</time></trkpt><trkpt lat="45.590042" lon="10.5036477"><ele>207.99999999999997</ele><time>2026-04-18T11:02:56.636Z</time></trkpt><trkpt lat="45.5901146" lon="10.5036618"><ele>208.0</ele><time>2026-04-18T11:02:57.635Z</time></trkpt><trkpt lat="45.5901816" lon="10.5036611"><ele>208.0</ele><time>2026-04-18T11:02:58.636Z</time></trkpt><trkpt lat="45.5902969" lon="10.5036321"><ele>208.0</ele><time>2026-04-18T11:03:00.637Z</time></trkpt><trkpt lat="45.5903654" lon="10.5036152"><ele>207.99999999999997</ele><time>2026-04-18T11:03:01.635Z</time></trkpt><trkpt lat="45.5904309" lon="10.5035856"><ele>208.0</ele><time>2026-04-18T11:03:02.634Z</time></trkpt><trkpt lat="45.5904991" lon="10.503557"><ele>205.33333333333331</ele><time>2026-04-18T11:03:03.635Z</time></trkpt><trkpt lat="45.5905697" lon="10.5035373"><ele>202.66666666666666</ele><time>2026-04-18T11:03:04.636Z</time></trkpt><trkpt lat="45.5906456" lon="10.5035241"><ele>200.0</ele><time>2026-04-18T11:03:05.636Z</time></trkpt><trkpt lat="45.590723" lon="10.5035"><ele>197.33333333333331</ele><time>2026-04-18T11:03:06.635Z</time></trkpt><trkpt lat="45.590802" lon="10.5034875"><ele>194.66666666666666</ele><time>2026-04-18T11:03:07.635Z</time></trkpt><trkpt lat="45.5908866" lon="10.5035177"><ele>192.0</ele><time>2026-04-18T11:03:08.637Z</time></trkpt><trkpt lat="45.59099" lon="10.5035727"><ele>190.0</ele><time>2026-04-18T11:03:09.635Z</time></trkpt><trkpt lat="45.5911877" lon="10.5036495"><ele>188.0</ele><time>2026-04-18T11:03:11.635Z</time></trkpt><trkpt lat="45.5912771" lon="10.5036948"><ele>186.0</ele><time>2026-04-18T11:03:12.635Z</time></trkpt><trkpt lat="45.5913657" lon="10.5037334"><ele>184.0</ele><time>2026-04-18T11:03:13.635Z</time></trkpt><trkpt lat="45.5914465" lon="10.5037787"><ele>182.5</ele><time>2026-04-18T11:03:14.635Z</time></trkpt><trkpt lat="45.5915289" lon="10.5038233"><ele>181.0</ele><time>2026-04-18T11:03:15.636Z</time></trkpt><trkpt lat="45.5916069" lon="10.5038716"><ele>179.5</ele><time>2026-04-18T11:03:16.635Z</time></trkpt><trkpt lat="45.5916764" lon="10.5039157"><ele>178.0</ele><time>2026-04-18T11:03:17.634Z</time></trkpt><trkpt lat="45.5917477" lon="10.5039582"><ele>176.5</ele><time>2026-04-18T11:03:18.635Z</time></trkpt><trkpt lat="45.5918195" lon="10.5039971"><ele>175.0</ele><time>2026-04-18T11:03:19.635Z</time></trkpt><trkpt lat="45.5918869" lon="10.5040344"><ele>175.0</ele><time>2026-04-18T11:03:20.634Z</time></trkpt><trkpt lat="45.5919573" lon="10.5040627"><ele>175.0</ele><time>2026-04-18T11:03:21.636Z</time></trkpt><trkpt lat="45.592022" lon="10.5040841"><ele>175.0</ele><time>2026-04-18T11:03:22.635Z</time></trkpt><trkpt lat="45.5921407" lon="10.5041353"><ele>175.0</ele><time>2026-04-18T11:03:24.636Z</time></trkpt><trkpt lat="45.5922287" lon="10.5042169"><ele>175.0</ele><time>2026-04-18T11:03:26.635Z</time></trkpt><trkpt lat="45.5922817" lon="10.5043153"><ele>174.2</ele><time>2026-04-18T11:03:28.636Z</time></trkpt><trkpt lat="45.592309" lon="10.5044513"><ele>173.4</ele><time>2026-04-18T11:03:30.635Z</time></trkpt><trkpt lat="45.5923143" lon="10.5046145"><ele>172.60000000000002</ele><time>2026-04-18T11:03:32.636Z</time></trkpt><trkpt lat="45.5922928" lon="10.50477"><ele>171.8</ele><time>2026-04-18T11:03:34.635Z</time></trkpt><trkpt lat="45.5922762" lon="10.5049057"><ele>171.0</ele><time>2026-04-18T11:03:36.634Z</time></trkpt><trkpt lat="45.5922615" lon="10.5050398"><ele>170.5</ele><time>2026-04-18T11:03:38.635Z</time></trkpt><trkpt lat="45.5922459" lon="10.5052183"><ele>170.0</ele><time>2026-04-18T11:03:40.635Z</time></trkpt><trkpt lat="45.5922436" lon="10.5053188"><ele>169.5</ele><time>2026-04-18T11:03:41.635Z</time></trkpt><trkpt lat="45.5922381" lon="10.5054089"><ele>169.0</ele><time>2026-04-18T11:03:42.637Z</time></trkpt><trkpt lat="45.5922403" lon="10.505506"><ele>168.5</ele><time>2026-04-18T11:03:43.634Z</time></trkpt><trkpt lat="45.5922383" lon="10.5056084"><ele>168.0</ele><time>2026-04-18T11:03:44.635Z</time></trkpt><trkpt lat="45.5922436" lon="10.5057233"><ele>167.33333333333334</ele><time>2026-04-18T11:03:45.636Z</time></trkpt><trkpt lat="45.5922501" lon="10.5058262"><ele>166.66666666666666</ele><time>2026-04-18T11:03:46.635Z</time></trkpt><trkpt lat="45.5922836" lon="10.5059832"><ele>166.0</ele><time>2026-04-18T11:03:48.635Z</time></trkpt><trkpt lat="45.5923064" lon="10.5060836"><ele>165.33333333333331</ele><time>2026-04-18T11:03:50.635Z</time></trkpt><trkpt lat="45.5923464" lon="10.5061679"><ele>164.66666666666666</ele><time>2026-04-18T11:03:53.635Z</time></trkpt><trkpt lat="45.5923435" lon="10.5062805"><ele>164.0</ele><time>2026-04-18T11:03:55.636Z</time></trkpt><trkpt lat="45.5922753" lon="10.5064104"><ele>163.6</ele><time>2026-04-18T11:03:57.635Z</time></trkpt><trkpt lat="45.5922042" lon="10.5065502"><ele>163.2</ele><time>2026-04-18T11:03:59.636Z</time></trkpt><trkpt lat="45.5921646" lon="10.5066252"><ele>162.79999999999998</ele><time>2026-04-18T11:04:00.636Z</time></trkpt><trkpt lat="45.592108" lon="10.5067736"><ele>162.39999999999998</ele><time>2026-04-18T11:04:02.635Z</time></trkpt><trkpt lat="45.5920509" lon="10.5069232"><ele>162.0</ele><time>2026-04-18T11:04:04.635Z</time></trkpt><trkpt lat="45.5920118" lon="10.5070108"><ele>162.0</ele><time>2026-04-18T11:04:05.635Z</time></trkpt><trkpt lat="45.591973" lon="10.5070952"><ele>162.0</ele><time>2026-04-18T11:04:06.635Z</time></trkpt><trkpt lat="45.5919425" lon="10.5071971"><ele>162.0</ele><time>2026-04-18T11:04:07.636Z</time></trkpt><trkpt lat="45.5919144" lon="10.5072979"><ele>162.0</ele><time>2026-04-18T11:04:08.635Z</time></trkpt><trkpt lat="45.5918817" lon="10.507397"><ele>162.0</ele><time>2026-04-18T11:04:09.636Z</time></trkpt><trkpt lat="45.5918614" lon="10.5074956"><ele>162.0</ele><time>2026-04-18T11:04:10.636Z</time></trkpt><trkpt lat="45.5918719" lon="10.5076189"><ele>162.0</ele><time>2026-04-18T11:04:12.636Z</time></trkpt><trkpt lat="45.5919422" lon="10.5075448"><ele>162.0</ele><time>2026-04-18T11:04:15.635Z</time></trkpt><trkpt lat="45.591979" lon="10.5073657"><ele>162.0</ele><time>2026-04-18T11:04:17.635Z</time></trkpt><trkpt lat="45.5920175" lon="10.5072623"><ele>162.0</ele><time>2026-04-18T11:04:18.635Z</time></trkpt><trkpt lat="45.5920556" lon="10.5071495"><ele>162.0</ele><time>2026-04-18T11:04:19.635Z</time></trkpt><trkpt lat="45.5920863" lon="10.5070457"><ele>162.0</ele><time>2026-04-18T11:04:20.635Z</time></trkpt><trkpt lat="45.5921188" lon="10.5069527"><ele>162.0</ele><time>2026-04-18T11:04:22.637Z</time></trkpt><trkpt lat="45.5921491" lon="10.5068529"><ele>162.0</ele><time>2026-04-18T11:04:25.635Z</time></trkpt><trkpt lat="45.5921941" lon="10.5067783"><ele>162.0</ele><time>2026-04-18T11:04:27.635Z</time></trkpt><trkpt lat="45.5922765" lon="10.506803"><ele>162.0</ele><time>2026-04-18T11:04:30.635Z</time></trkpt><trkpt lat="45.5923477" lon="10.506831"><ele>162.0</ele><time>2026-04-18T11:04:33.634Z</time></trkpt><trkpt lat="45.5924129" lon="10.5067935"><ele>162.0</ele><time>2026-04-18T11:04:46.637Z</time></trkpt><trkpt lat="45.5924251" lon="10.5066718"><ele>162.0</ele><time>2026-04-18T11:04:48.635Z</time></trkpt><trkpt lat="45.5923818" lon="10.5067821"><ele>162.0</ele><time>2026-04-18T11:04:55.635Z</time></trkpt><trkpt lat="45.5922964" lon="10.5067875"><ele>162.0</ele><time>2026-04-18T11:04:57.636Z</time></trkpt><trkpt lat="45.5922282" lon="10.5067231"><ele>162.0</ele><time>2026-04-18T11:04:59.635Z</time></trkpt><trkpt lat="45.5921649" lon="10.5067079"><ele>162.0</ele><time>2026-04-18T11:05:17.634Z</time></trkpt><trkpt lat="45.5920947" lon="10.5067917"><ele>162.0</ele><time>2026-04-18T11:05:19.635Z</time></trkpt><trkpt lat="45.5920632" lon="10.5068698"><ele>162.0</ele><time>2026-04-18T11:05:20.635Z</time></trkpt><trkpt lat="45.5920272" lon="10.5069496"><ele>162.0</ele><time>2026-04-18T11:05:21.633Z</time></trkpt><trkpt lat="45.5919901" lon="10.5070324"><ele>162.0</ele><time>2026-04-18T11:05:22.635Z</time></trkpt><trkpt lat="45.591955" lon="10.5071238"><ele>162.0</ele><time>2026-04-18T11:05:23.635Z</time></trkpt><trkpt lat="45.5919189" lon="10.5072162"><ele>162.0</ele><time>2026-04-18T11:05:24.636Z</time></trkpt><trkpt lat="45.5918847" lon="10.5073126"><ele>162.0</ele><time>2026-04-18T11:05:25.635Z</time></trkpt><trkpt lat="45.5918493" lon="10.5074127"><ele>162.0</ele><time>2026-04-18T11:05:26.635Z</time></trkpt><trkpt lat="45.5918135" lon="10.5075123"><ele>162.0</ele><time>2026-04-18T11:05:27.635Z</time></trkpt><trkpt lat="45.5917808" lon="10.5076131"><ele>162.0</ele><time>2026-04-18T11:05:28.635Z</time></trkpt><trkpt lat="45.5917533" lon="10.5077147"><ele>162.0</ele><time>2026-04-18T11:05:29.635Z</time></trkpt><trkpt lat="45.5917281" lon="10.5078076"><ele>162.0</ele><time>2026-04-18T11:05:30.634Z</time></trkpt><trkpt lat="45.5917066" lon="10.5078954"><ele>162.0</ele><time>2026-04-18T11:05:31.634Z</time></trkpt><trkpt lat="45.5916758" lon="10.5080343"><ele>162.0</ele><time>2026-04-18T11:05:33.635Z</time></trkpt><trkpt lat="45.5916624" lon="10.5081373"><ele>162.33333333333334</ele><time>2026-04-18T11:05:36.635Z</time></trkpt><trkpt lat="45.5916274" lon="10.5082856"><ele>162.66666666666666</ele><time>2026-04-18T11:05:40.634Z</time></trkpt><trkpt lat="45.5916013" lon="10.5083708"><ele>163.0</ele><time>2026-04-18T11:05:41.635Z</time></trkpt><trkpt lat="45.591574" lon="10.5084638"><ele>163.33333333333331</ele><time>2026-04-18T11:05:42.634Z</time></trkpt><trkpt lat="45.5915503" lon="10.5085621"><ele>163.66666666666666</ele><time>2026-04-18T11:05:43.634Z</time></trkpt><trkpt lat="45.5915252" lon="10.5086669"><ele>164.0</ele><time>2026-04-18T11:05:44.634Z</time></trkpt><trkpt lat="45.5915002" lon="10.5087694"><ele>164.16666666666666</ele><time>2026-04-18T11:05:45.635Z</time></trkpt><trkpt lat="45.5914771" lon="10.5088719"><ele>164.33333333333331</ele><time>2026-04-18T11:05:46.635Z</time></trkpt><trkpt lat="45.5914555" lon="10.5089709"><ele>164.5</ele><time>2026-04-18T11:05:47.634Z</time></trkpt><trkpt lat="45.5914317" lon="10.5090702"><ele>164.66666666666666</ele><time>2026-04-18T11:05:48.636Z</time></trkpt><trkpt lat="45.5914061" lon="10.5091735"><ele>164.83333333333334</ele><time>2026-04-18T11:05:49.635Z</time></trkpt><trkpt lat="45.5913766" lon="10.5092838"><ele>165.0</ele><time>2026-04-18T11:05:50.635Z</time></trkpt><trkpt lat="45.5913537" lon="10.5093947"><ele>165.0</ele><time>2026-04-18T11:05:51.636Z</time></trkpt><trkpt lat="45.5913335" lon="10.5095098"><ele>165.0</ele><time>2026-04-18T11:05:52.635Z</time></trkpt><trkpt lat="45.5913108" lon="10.5096276"><ele>165.0</ele><time>2026-04-18T11:05:53.635Z</time></trkpt><trkpt lat="45.5912847" lon="10.5097441"><ele>165.0</ele><time>2026-04-18T11:05:54.636Z</time></trkpt><trkpt lat="45.5912615" lon="10.5098641"><ele>165.0</ele><time>2026-04-18T11:05:55.636Z</time></trkpt><trkpt lat="45.5912348" lon="10.5099825"><ele>165.0</ele><time>2026-04-18T11:05:56.635Z</time></trkpt><trkpt lat="45.5912064" lon="10.5101008"><ele>165.0</ele><time>2026-04-18T11:05:57.636Z</time></trkpt><trkpt lat="45.5911741" lon="10.5102195"><ele>165.0</ele><time>2026-04-18T11:05:58.635Z</time></trkpt><trkpt lat="45.5911433" lon="10.5103415"><ele>165.0</ele><time>2026-04-18T11:05:59.634Z</time></trkpt><trkpt lat="45.5911117" lon="10.5104572"><ele>165.0</ele><time>2026-04-18T11:06:00.635Z</time></trkpt><trkpt lat="45.5910867" lon="10.5105768"><ele>165.0</ele><time>2026-04-18T11:06:01.635Z</time></trkpt><trkpt lat="45.5910615" lon="10.5106996"><ele>165.0</ele><time>2026-04-18T11:06:02.635Z</time></trkpt><trkpt lat="45.5910333" lon="10.5108252"><ele>164.0</ele><time>2026-04-18T11:06:03.635Z</time></trkpt><trkpt lat="45.5910051" lon="10.5109536"><ele>163.0</ele><time>2026-04-18T11:06:04.634Z</time></trkpt><trkpt lat="45.5909724" lon="10.5110824"><ele>162.0</ele><time>2026-04-18T11:06:05.635Z</time></trkpt><trkpt lat="45.5909457" lon="10.5112065"><ele>161.0</ele><time>2026-04-18T11:06:06.635Z</time></trkpt><trkpt lat="45.5909161" lon="10.5113322"><ele>160.0</ele><time>2026-04-18T11:06:07.635Z</time></trkpt><trkpt lat="45.590887" lon="10.5114649"><ele>160.0</ele><time>2026-04-18T11:06:08.635Z</time></trkpt><trkpt lat="45.590858" lon="10.5115951"><ele>160.0</ele><time>2026-04-18T11:06:09.634Z</time></trkpt><trkpt lat="45.5908297" lon="10.5117241"><ele>160.0</ele><time>2026-04-18T11:06:10.634Z</time></trkpt><trkpt lat="45.5908021" lon="10.5118566"><ele>160.0</ele><time>2026-04-18T11:06:11.635Z</time></trkpt><trkpt lat="45.5907759" lon="10.5119934"><ele>160.0</ele><time>2026-04-18T11:06:12.635Z</time></trkpt><trkpt lat="45.5907511" lon="10.5121221"><ele>160.0</ele><time>2026-04-18T11:06:13.634Z</time></trkpt><trkpt lat="45.590719" lon="10.5122564"><ele>160.0</ele><time>2026-04-18T11:06:14.634Z</time></trkpt><trkpt lat="45.5906812" lon="10.5123889"><ele>160.0</ele><time>2026-04-18T11:06:15.635Z</time></trkpt><trkpt lat="45.5906334" lon="10.5125196"><ele>160.0</ele><time>2026-04-18T11:06:16.635Z</time></trkpt><trkpt lat="45.590589" lon="10.5126419"><ele>160.0</ele><time>2026-04-18T11:06:17.635Z</time></trkpt><trkpt lat="45.5905411" lon="10.5127625"><ele>160.0</ele><time>2026-04-18T11:06:18.634Z</time></trkpt><trkpt lat="45.5904867" lon="10.5128802"><ele>160.0</ele><time>2026-04-18T11:06:19.635Z</time></trkpt><trkpt lat="45.5904249" lon="10.5129915"><ele>160.0</ele><time>2026-04-18T11:06:20.635Z</time></trkpt><trkpt lat="45.5903611" lon="10.513105"><ele>160.0</ele><time>2026-04-18T11:06:21.635Z</time></trkpt><trkpt lat="45.5902913" lon="10.5132163"><ele>160.0</ele><time>2026-04-18T11:06:22.634Z</time></trkpt><trkpt lat="45.5902202" lon="10.5133167"><ele>159.4</ele><time>2026-04-18T11:06:23.634Z</time></trkpt><trkpt lat="45.5901468" lon="10.5134142"><ele>158.8</ele><time>2026-04-18T11:06:24.633Z</time></trkpt><trkpt lat="45.5900684" lon="10.513508"><ele>158.2</ele><time>2026-04-18T11:06:25.635Z</time></trkpt><trkpt lat="45.589989" lon="10.5135992"><ele>157.6</ele><time>2026-04-18T11:06:26.635Z</time></trkpt><trkpt lat="45.5899085" lon="10.513691"><ele>157.0</ele><time>2026-04-18T11:06:27.633Z</time></trkpt><trkpt lat="45.5898237" lon="10.5137841"><ele>157.0</ele><time>2026-04-18T11:06:28.633Z</time></trkpt><trkpt lat="45.5897409" lon="10.5138762"><ele>157.0</ele><time>2026-04-18T11:06:29.635Z</time></trkpt><trkpt lat="45.5896612" lon="10.5139629"><ele>157.0</ele><time>2026-04-18T11:06:30.635Z</time></trkpt><trkpt lat="45.5895856" lon="10.5140521"><ele>157.0</ele><time>2026-04-18T11:06:31.634Z</time></trkpt><trkpt lat="45.5895066" lon="10.5141417"><ele>157.0</ele><time>2026-04-18T11:06:32.635Z</time></trkpt><trkpt lat="45.5894295" lon="10.5142287"><ele>157.0</ele><time>2026-04-18T11:06:33.635Z</time></trkpt><trkpt lat="45.5893506" lon="10.5143213"><ele>157.0</ele><time>2026-04-18T11:06:34.635Z</time></trkpt><trkpt lat="45.5892658" lon="10.5144114"><ele>157.0</ele><time>2026-04-18T11:06:35.634Z</time></trkpt><trkpt lat="45.5891876" lon="10.5145039"><ele>157.0</ele><time>2026-04-18T11:06:36.635Z</time></trkpt><trkpt lat="45.5891087" lon="10.514595"><ele>157.0</ele><time>2026-04-18T11:06:37.635Z</time></trkpt><trkpt lat="45.5890294" lon="10.5146798"><ele>156.79999999999998</ele><time>2026-04-18T11:06:38.635Z</time></trkpt><trkpt lat="45.5889531" lon="10.5147669"><ele>156.6</ele><time>2026-04-18T11:06:39.635Z</time></trkpt><trkpt lat="45.5888785" lon="10.5148581"><ele>156.39999999999998</ele><time>2026-04-18T11:06:40.635Z</time></trkpt><trkpt lat="45.5888035" lon="10.5149459"><ele>156.2</ele><time>2026-04-18T11:06:41.634Z</time></trkpt><trkpt lat="45.5887253" lon="10.5150333"><ele>156.0</ele><time>2026-04-18T11:06:42.635Z</time></trkpt><trkpt lat="45.5886423" lon="10.5151236"><ele>156.0</ele><time>2026-04-18T11:06:43.634Z</time></trkpt><trkpt lat="45.5885599" lon="10.5152069"><ele>156.0</ele><time>2026-04-18T11:06:44.634Z</time></trkpt><trkpt lat="45.5884783" lon="10.5152921"><ele>156.0</ele><time>2026-04-18T11:06:45.634Z</time></trkpt><trkpt lat="45.5883949" lon="10.5153904"><ele>156.0</ele><time>2026-04-18T11:06:46.634Z</time></trkpt><trkpt lat="45.5883133" lon="10.5154811"><ele>156.0</ele><time>2026-04-18T11:06:47.635Z</time></trkpt><trkpt lat="45.5882356" lon="10.5155626"><ele>156.6</ele><time>2026-04-18T11:06:48.634Z</time></trkpt><trkpt lat="45.5881618" lon="10.5156411"><ele>157.2</ele><time>2026-04-18T11:06:49.634Z</time></trkpt><trkpt lat="45.5880875" lon="10.5157202"><ele>157.8</ele><time>2026-04-18T11:06:50.634Z</time></trkpt><trkpt lat="45.5880173" lon="10.5158025"><ele>158.4</ele><time>2026-04-18T11:06:51.634Z</time></trkpt><trkpt lat="45.5879397" lon="10.5158823"><ele>159.0</ele><time>2026-04-18T11:06:52.635Z</time></trkpt><trkpt lat="45.5878749" lon="10.5159525"><ele>159.0</ele><time>2026-04-18T11:06:53.635Z</time></trkpt><trkpt lat="45.5878157" lon="10.5160033"><ele>159.0</ele><time>2026-04-18T11:06:54.634Z</time></trkpt><trkpt lat="45.5877191" lon="10.5160251"><ele>159.0</ele><time>2026-04-18T11:06:56.636Z</time></trkpt><trkpt lat="45.5876957" lon="10.5161111"><ele>159.0</ele><time>2026-04-18T11:06:59.635Z</time></trkpt><trkpt lat="45.5877792" lon="10.5160593"><ele>159.0</ele><time>2026-04-18T11:07:04.635Z</time></trkpt><trkpt lat="45.5878723" lon="10.5159433"><ele>159.0</ele><time>2026-04-18T11:07:06.634Z</time></trkpt><trkpt lat="45.5879269" lon="10.5158821"><ele>159.0</ele><time>2026-04-18T11:07:07.635Z</time></trkpt><trkpt lat="45.5879789" lon="10.5158307"><ele>159.0</ele><time>2026-04-18T11:07:08.634Z</time></trkpt><trkpt lat="45.5880529" lon="10.5157549"><ele>159.0</ele><time>2026-04-18T11:07:10.634Z</time></trkpt><trkpt lat="45.588122" lon="10.5156541"><ele>159.0</ele><time>2026-04-18T11:07:14.635Z</time></trkpt><trkpt lat="45.5882093" lon="10.5155706"><ele>159.0</ele><time>2026-04-18T11:07:16.634Z</time></trkpt><trkpt lat="45.5882519" lon="10.5154865"><ele>159.0</ele><time>2026-04-18T11:07:18.635Z</time></trkpt><trkpt lat="45.5881695" lon="10.5154584"><ele>159.0</ele><time>2026-04-18T11:07:22.634Z</time></trkpt><trkpt lat="45.5881683" lon="10.515553"><ele>159.0</ele><time>2026-04-18T11:07:25.634Z</time></trkpt><trkpt lat="45.5881276" lon="10.5154752"><ele>159.0</ele><time>2026-04-18T11:08:33.634Z</time></trkpt><trkpt lat="45.5881215" lon="10.5153842"><ele>156.0</ele><time>2026-04-18T11:09:12.635Z</time></trkpt></trkseg><trkseg><trkpt lat="45.588202" lon="10.5153582"><ele>156.0</ele><time>2026-04-18T11:36:27.628Z</time></trkpt><trkpt lat="45.5881382" lon="10.5153596"><ele>156.0</ele><time>2026-04-18T11:36:30.629Z</time></trkpt><trkpt lat="45.5881382" lon="10.5153596"><ele>156.0</ele><time>2026-04-18T11:36:30.629Z</time></trkpt><trkpt lat="45.5881382" lon="10.5153596"><ele>156.0</ele><time>2026-04-18T11:36:30.629Z</time></trkpt><trkpt lat="45.5881382" lon="10.5153596"><ele>156.0</ele><time>2026-04-18T11:36:30.629Z</time></trkpt><trkpt lat="45.5881382" lon="10.5153596"><ele>156.0</ele><time>2026-04-18T11:36:30.629Z</time></trkpt><trkpt lat="45.5881382" lon="10.5153596"><ele>156.0</ele><time>2026-04-18T11:36:30.629Z</time></trkpt><trkpt lat="45.5881382" lon="10.5153596"><ele>156.0</ele><time>2026-04-18T11:36:30.629Z</time></trkpt><trkpt lat="45.5881382" lon="10.5153596"><ele>156.0</ele><time>2026-04-18T11:36:30.629Z</time></trkpt></trkseg><trkseg><trkpt lat="45.588085" lon="10.515602"><ele>159.0</ele><time>2026-04-18T11:56:46.622Z</time></trkpt><trkpt lat="45.5880605" lon="10.5156858"><ele>159.0</ele><time>2026-04-18T11:57:34.623Z</time></trkpt><trkpt lat="45.5881148" lon="10.5157578"><ele>159.0</ele><time>2026-04-18T11:57:38.624Z</time></trkpt><trkpt lat="45.5881915" lon="10.5157506"><ele>159.0</ele><time>2026-04-18T11:57:40.623Z</time></trkpt><trkpt lat="45.5882875" lon="10.5156676"><ele>159.0</ele><time>2026-04-18T11:57:42.624Z</time></trkpt><trkpt lat="45.5883377" lon="10.5156078"><ele>159.0</ele><time>2026-04-18T11:57:43.624Z</time></trkpt><trkpt lat="45.5883897" lon="10.515546"><ele>159.0</ele><time>2026-04-18T11:57:44.624Z</time></trkpt><trkpt lat="45.5884418" lon="10.5154869"><ele>159.0</ele><time>2026-04-18T11:57:45.624Z</time></trkpt><trkpt lat="45.5885029" lon="10.515421"><ele>159.0</ele><time>2026-04-18T11:57:46.624Z</time></trkpt><trkpt lat="45.5885622" lon="10.5153543"><ele>159.0</ele><time>2026-04-18T11:57:47.623Z</time></trkpt><trkpt lat="45.5886236" lon="10.51529"><ele>159.0</ele><time>2026-04-18T11:57:48.623Z</time></trkpt><trkpt lat="45.5886878" lon="10.5152285"><ele>159.0</ele><time>2026-04-18T11:57:49.622Z</time></trkpt><trkpt lat="45.5887463" lon="10.5151572"><ele>159.0</ele><time>2026-04-18T11:57:50.624Z</time></trkpt><trkpt lat="45.5888089" lon="10.5150867"><ele>159.83333333333334</ele><time>2026-04-18T11:57:51.624Z</time></trkpt><trkpt lat="45.5888719" lon="10.5150133"><ele>160.66666666666666</ele><time>2026-04-18T11:57:52.623Z</time></trkpt><trkpt lat="45.5889349" lon="10.5149415"><ele>161.5</ele><time>2026-04-18T11:57:53.623Z</time></trkpt><trkpt lat="45.5889994" lon="10.514868"><ele>162.33333333333331</ele><time>2026-04-18T11:57:54.624Z</time></trkpt><trkpt lat="45.5890628" lon="10.5147952"><ele>163.16666666666666</ele><time>2026-04-18T11:57:55.623Z</time></trkpt><trkpt lat="45.5891273" lon="10.5147234"><ele>164.0</ele><time>2026-04-18T11:57:56.623Z</time></trkpt><trkpt lat="45.5891923" lon="10.5146493"><ele>164.0</ele><time>2026-04-18T11:57:57.623Z</time></trkpt><trkpt lat="45.5892595" lon="10.5145762"><ele>164.0</ele><time>2026-04-18T11:57:58.623Z</time></trkpt><trkpt lat="45.5893229" lon="10.5145126"><ele>164.0</ele><time>2026-04-18T11:57:59.623Z</time></trkpt><trkpt lat="45.5893897" lon="10.5144419"><ele>164.0</ele><time>2026-04-18T11:58:00.623Z</time></trkpt><trkpt lat="45.5894541" lon="10.5143656"><ele>164.0</ele><time>2026-04-18T11:58:01.623Z</time></trkpt><trkpt lat="45.589518" lon="10.514292"><ele>164.0</ele><time>2026-04-18T11:58:02.623Z</time></trkpt><trkpt lat="45.5895844" lon="10.5142173"><ele>164.0</ele><time>2026-04-18T11:58:03.623Z</time></trkpt><trkpt lat="45.5896507" lon="10.5141414"><ele>164.0</ele><time>2026-04-18T11:58:04.624Z</time></trkpt><trkpt lat="45.589719" lon="10.5140664"><ele>164.0</ele><time>2026-04-18T11:58:05.623Z</time></trkpt><trkpt lat="45.5897866" lon="10.5139893"><ele>164.0</ele><time>2026-04-18T11:58:06.623Z</time></trkpt><trkpt lat="45.5898528" lon="10.5139127"><ele>164.0</ele><time>2026-04-18T11:58:07.623Z</time></trkpt><trkpt lat="45.5899206" lon="10.513836"><ele>164.0</ele><time>2026-04-18T11:58:08.623Z</time></trkpt><trkpt lat="45.5899875" lon="10.513761"><ele>163.83333333333331</ele><time>2026-04-18T11:58:09.623Z</time></trkpt><trkpt lat="45.5900553" lon="10.5136844"><ele>163.66666666666666</ele><time>2026-04-18T11:58:10.625Z</time></trkpt><trkpt lat="45.590123" lon="10.513608"><ele>163.5</ele><time>2026-04-18T11:58:11.623Z</time></trkpt><trkpt lat="45.5901939" lon="10.5135304"><ele>163.33333333333334</ele><time>2026-04-18T11:58:12.623Z</time></trkpt><trkpt lat="45.5902603" lon="10.5134532"><ele>163.16666666666669</ele><time>2026-04-18T11:58:13.623Z</time></trkpt><trkpt lat="45.5903261" lon="10.5133752"><ele>163.0</ele><time>2026-04-18T11:58:14.623Z</time></trkpt><trkpt lat="45.5903905" lon="10.513292"><ele>163.0</ele><time>2026-04-18T11:58:15.624Z</time></trkpt><trkpt lat="45.5904419" lon="10.5131975"><ele>163.0</ele><time>2026-04-18T11:58:16.624Z</time></trkpt><trkpt lat="45.5904936" lon="10.5130989"><ele>163.0</ele><time>2026-04-18T11:58:17.623Z</time></trkpt><trkpt lat="45.5905447" lon="10.5129952"><ele>163.0</ele><time>2026-04-18T11:58:18.623Z</time></trkpt><trkpt lat="45.5905962" lon="10.5128936"><ele>163.0</ele><time>2026-04-18T11:58:19.624Z</time></trkpt><trkpt lat="45.5906473" lon="10.5127912"><ele>163.0</ele><time>2026-04-18T11:58:20.624Z</time></trkpt><trkpt lat="45.5906944" lon="10.5126772"><ele>162.4</ele><time>2026-04-18T11:58:21.624Z</time></trkpt><trkpt lat="45.5907317" lon="10.5125659"><ele>161.8</ele><time>2026-04-18T11:58:22.624Z</time></trkpt><trkpt lat="45.5907682" lon="10.5124401"><ele>161.2</ele><time>2026-04-18T11:58:23.623Z</time></trkpt><trkpt lat="45.5907939" lon="10.5123126"><ele>160.6</ele><time>2026-04-18T11:58:24.623Z</time></trkpt><trkpt lat="45.5908182" lon="10.5121886"><ele>160.0</ele><time>2026-04-18T11:58:25.622Z</time></trkpt><trkpt lat="45.5908441" lon="10.5120712"><ele>160.0</ele><time>2026-04-18T11:58:26.623Z</time></trkpt><trkpt lat="45.5908716" lon="10.511959"><ele>160.0</ele><time>2026-04-18T11:58:27.623Z</time></trkpt><trkpt lat="45.5908976" lon="10.5118431"><ele>160.0</ele><time>2026-04-18T11:58:28.623Z</time></trkpt><trkpt lat="45.590919" lon="10.5117232"><ele>160.0</ele><time>2026-04-18T11:58:29.623Z</time></trkpt><trkpt lat="45.5909411" lon="10.5116041"><ele>160.0</ele><time>2026-04-18T11:58:30.624Z</time></trkpt><trkpt lat="45.5909634" lon="10.5114898"><ele>160.0</ele><time>2026-04-18T11:58:31.623Z</time></trkpt><trkpt lat="45.5909876" lon="10.5113738"><ele>160.0</ele><time>2026-04-18T11:58:32.623Z</time></trkpt><trkpt lat="45.591013" lon="10.5112563"><ele>160.0</ele><time>2026-04-18T11:58:33.622Z</time></trkpt><trkpt lat="45.5910411" lon="10.5111372"><ele>160.0</ele><time>2026-04-18T11:58:34.623Z</time></trkpt><trkpt lat="45.591064" lon="10.5110178"><ele>160.0</ele><time>2026-04-18T11:58:35.623Z</time></trkpt><trkpt lat="45.5910937" lon="10.5108974"><ele>160.0</ele><time>2026-04-18T11:58:36.623Z</time></trkpt><trkpt lat="45.5911211" lon="10.5107785"><ele>160.0</ele><time>2026-04-18T11:58:37.623Z</time></trkpt><trkpt lat="45.5911467" lon="10.5106601"><ele>159.83333333333334</ele><time>2026-04-18T11:58:38.623Z</time></trkpt><trkpt lat="45.5911723" lon="10.5105435"><ele>159.66666666666669</ele><time>2026-04-18T11:58:39.623Z</time></trkpt><trkpt lat="45.5911999" lon="10.5104293"><ele>159.5</ele><time>2026-04-18T11:58:40.624Z</time></trkpt><trkpt lat="45.5912223" lon="10.5103135"><ele>159.33333333333334</ele><time>2026-04-18T11:58:41.624Z</time></trkpt><trkpt lat="45.5912473" lon="10.5101976"><ele>159.16666666666666</ele><time>2026-04-18T11:58:42.623Z</time></trkpt><trkpt lat="45.5912735" lon="10.5100803"><ele>159.0</ele><time>2026-04-18T11:58:43.624Z</time></trkpt><trkpt lat="45.5912995" lon="10.509963"><ele>160.0</ele><time>2026-04-18T11:58:44.622Z</time></trkpt><trkpt lat="45.5913261" lon="10.5098387"><ele>161.0</ele><time>2026-04-18T11:58:45.623Z</time></trkpt><trkpt lat="45.5913508" lon="10.5097226"><ele>162.0</ele><time>2026-04-18T11:58:46.622Z</time></trkpt><trkpt lat="45.5913759" lon="10.5096007"><ele>163.0</ele><time>2026-04-18T11:58:47.623Z</time></trkpt><trkpt lat="45.5914019" lon="10.509476"><ele>164.0</ele><time>2026-04-18T11:58:48.623Z</time></trkpt><trkpt lat="45.5914294" lon="10.5093562"><ele>165.0</ele><time>2026-04-18T11:58:49.623Z</time></trkpt><trkpt lat="45.591457" lon="10.5092313"><ele>165.0</ele><time>2026-04-18T11:58:50.623Z</time></trkpt><trkpt lat="45.591483" lon="10.509109"><ele>165.0</ele><time>2026-04-18T11:58:51.623Z</time></trkpt><trkpt lat="45.5915059" lon="10.5089795"><ele>165.0</ele><time>2026-04-18T11:58:52.623Z</time></trkpt><trkpt lat="45.5915332" lon="10.5088547"><ele>165.0</ele><time>2026-04-18T11:58:53.623Z</time></trkpt><trkpt lat="45.5915625" lon="10.5087312"><ele>165.0</ele><time>2026-04-18T11:58:54.623Z</time></trkpt><trkpt lat="45.5915931" lon="10.5086113"><ele>164.8</ele><time>2026-04-18T11:58:55.623Z</time></trkpt><trkpt lat="45.5916233" lon="10.5084942"><ele>164.6</ele><time>2026-04-18T11:58:56.623Z</time></trkpt><trkpt lat="45.5916535" lon="10.5083746"><ele>164.39999999999998</ele><time>2026-04-18T11:58:57.624Z</time></trkpt><trkpt lat="45.5916829" lon="10.5082529"><ele>164.2</ele><time>2026-04-18T11:58:58.624Z</time></trkpt><trkpt lat="45.5917116" lon="10.5081216"><ele>164.0</ele><time>2026-04-18T11:58:59.623Z</time></trkpt><trkpt lat="45.5917429" lon="10.5079984"><ele>163.6</ele><time>2026-04-18T11:59:00.623Z</time></trkpt><trkpt lat="45.591779" lon="10.5078766"><ele>163.2</ele><time>2026-04-18T11:59:01.623Z</time></trkpt><trkpt lat="45.5918156" lon="10.5077571"><ele>162.79999999999998</ele><time>2026-04-18T11:59:02.623Z</time></trkpt><trkpt lat="45.5918513" lon="10.5076324"><ele>162.39999999999998</ele><time>2026-04-18T11:59:03.622Z</time></trkpt><trkpt lat="45.5918926" lon="10.5075154"><ele>162.0</ele><time>2026-04-18T11:59:04.622Z</time></trkpt><trkpt lat="45.5919335" lon="10.5073956"><ele>162.0</ele><time>2026-04-18T11:59:05.622Z</time></trkpt><trkpt lat="45.5919712" lon="10.5072745"><ele>162.0</ele><time>2026-04-18T11:59:06.623Z</time></trkpt><trkpt lat="45.5920161" lon="10.5071568"><ele>162.0</ele><time>2026-04-18T11:59:07.623Z</time></trkpt><trkpt lat="45.5920607" lon="10.5070459"><ele>162.0</ele><time>2026-04-18T11:59:08.623Z</time></trkpt><trkpt lat="45.592105" lon="10.5069398"><ele>162.0</ele><time>2026-04-18T11:59:09.623Z</time></trkpt><trkpt lat="45.5921449" lon="10.5068371"><ele>162.0</ele><time>2026-04-18T11:59:10.622Z</time></trkpt><trkpt lat="45.5921921" lon="10.5067253"><ele>162.0</ele><time>2026-04-18T11:59:11.624Z</time></trkpt><trkpt lat="45.5922375" lon="10.5066203"><ele>162.0</ele><time>2026-04-18T11:59:12.623Z</time></trkpt><trkpt lat="45.5922772" lon="10.5065328"><ele>162.0</ele><time>2026-04-18T11:59:13.623Z</time></trkpt><trkpt lat="45.5923334" lon="10.5064232"><ele>162.0</ele><time>2026-04-18T11:59:15.623Z</time></trkpt><trkpt lat="45.5923771" lon="10.5063023"><ele>162.0</ele><time>2026-04-18T11:59:17.623Z</time></trkpt><trkpt lat="45.5923755" lon="10.5061351"><ele>162.33333333333334</ele><time>2026-04-18T11:59:19.623Z</time></trkpt><trkpt lat="45.5923438" lon="10.5060522"><ele>162.66666666666666</ele><time>2026-04-18T11:59:20.622Z</time></trkpt><trkpt lat="45.5923019" lon="10.505965"><ele>163.0</ele><time>2026-04-18T11:59:21.622Z</time></trkpt><trkpt lat="45.5922751" lon="10.5058676"><ele>163.33333333333331</ele><time>2026-04-18T11:59:22.623Z</time></trkpt><trkpt lat="45.5922668" lon="10.5057472"><ele>163.66666666666666</ele><time>2026-04-18T11:59:23.622Z</time></trkpt><trkpt lat="45.5922571" lon="10.5056221"><ele>164.0</ele><time>2026-04-18T11:59:24.622Z</time></trkpt><trkpt lat="45.5922549" lon="10.5054995"><ele>164.66666666666666</ele><time>2026-04-18T11:59:25.623Z</time></trkpt><trkpt lat="45.5922556" lon="10.5053867"><ele>165.33333333333331</ele><time>2026-04-18T11:59:26.622Z</time></trkpt><trkpt lat="45.5922541" lon="10.5052761"><ele>166.0</ele><time>2026-04-18T11:59:27.623Z</time></trkpt><trkpt lat="45.5922593" lon="10.5051669"><ele>166.66666666666666</ele><time>2026-04-18T11:59:28.623Z</time></trkpt><trkpt lat="45.5922708" lon="10.5050601"><ele>167.33333333333334</ele><time>2026-04-18T11:59:29.622Z</time></trkpt><trkpt lat="45.5922839" lon="10.5049503"><ele>168.0</ele><time>2026-04-18T11:59:30.622Z</time></trkpt><trkpt lat="45.5922959" lon="10.5048377"><ele>168.0</ele><time>2026-04-18T11:59:31.624Z</time></trkpt><trkpt lat="45.5923082" lon="10.5047208"><ele>168.0</ele><time>2026-04-18T11:59:32.623Z</time></trkpt><trkpt lat="45.5923183" lon="10.5046066"><ele>168.0</ele><time>2026-04-18T11:59:33.622Z</time></trkpt><trkpt lat="45.5923207" lon="10.504484"><ele>168.0</ele><time>2026-04-18T11:59:34.622Z</time></trkpt><trkpt lat="45.5923017" lon="10.5043773"><ele>168.0</ele><time>2026-04-18T11:59:35.621Z</time></trkpt><trkpt lat="45.5922618" lon="10.5042807"><ele>168.0</ele><time>2026-04-18T11:59:36.621Z</time></trkpt><trkpt lat="45.5922055" lon="10.5041974"><ele>168.5</ele><time>2026-04-18T11:59:37.622Z</time></trkpt><trkpt lat="45.5921488" lon="10.5041257"><ele>169.0</ele><time>2026-04-18T11:59:38.623Z</time></trkpt><trkpt lat="45.5920711" lon="10.504089"><ele>169.5</ele><time>2026-04-18T11:59:39.623Z</time></trkpt><trkpt lat="45.5919905" lon="10.5040583"><ele>170.0</ele><time>2026-04-18T11:59:40.623Z</time></trkpt><trkpt lat="45.5919127" lon="10.5040342"><ele>170.5</ele><time>2026-04-18T11:59:41.624Z</time></trkpt><trkpt lat="45.5918275" lon="10.5040045"><ele>171.0</ele><time>2026-04-18T11:59:42.622Z</time></trkpt><trkpt lat="45.591749" lon="10.5039681"><ele>171.66666666666666</ele><time>2026-04-18T11:59:43.622Z</time></trkpt><trkpt lat="45.5916724" lon="10.5039256"><ele>172.33333333333334</ele><time>2026-04-18T11:59:44.623Z</time></trkpt><trkpt lat="45.5915977" lon="10.5038759"><ele>173.0</ele><time>2026-04-18T11:59:45.623Z</time></trkpt><trkpt lat="45.5915216" lon="10.5038268"><ele>173.66666666666669</ele><time>2026-04-18T11:59:46.622Z</time></trkpt><trkpt lat="45.5914474" lon="10.5037788"><ele>174.33333333333334</ele><time>2026-04-18T11:59:47.624Z</time></trkpt><trkpt lat="45.5913678" lon="10.5037446"><ele>175.0</ele><time>2026-04-18T11:59:48.624Z</time></trkpt><trkpt lat="45.5912881" lon="10.5037134"><ele>176.5</ele><time>2026-04-18T11:59:49.623Z</time></trkpt><trkpt lat="45.5912114" lon="10.5036815"><ele>178.0</ele><time>2026-04-18T11:59:50.622Z</time></trkpt><trkpt lat="45.5911303" lon="10.503658"><ele>179.5</ele><time>2026-04-18T11:59:51.622Z</time></trkpt><trkpt lat="45.5910432" lon="10.5036422"><ele>181.0</ele><time>2026-04-18T11:59:52.623Z</time></trkpt><trkpt lat="45.5909619" lon="10.503622"><ele>182.5</ele><time>2026-04-18T11:59:53.622Z</time></trkpt><trkpt lat="45.5908936" lon="10.5035773"><ele>184.0</ele><time>2026-04-18T11:59:54.623Z</time></trkpt><trkpt lat="45.5908143" lon="10.5035571"><ele>185.33333333333334</ele><time>2026-04-18T11:59:55.622Z</time></trkpt><trkpt lat="45.5907381" lon="10.5035517"><ele>186.66666666666669</ele><time>2026-04-18T11:59:56.622Z</time></trkpt><trkpt lat="45.5906676" lon="10.5035251"><ele>188.0</ele><time>2026-04-18T11:59:57.622Z</time></trkpt><trkpt lat="45.5905876" lon="10.5035344"><ele>189.33333333333334</ele><time>2026-04-18T11:59:58.623Z</time></trkpt><trkpt lat="45.5905173" lon="10.5035656"><ele>190.66666666666666</ele><time>2026-04-18T11:59:59.623Z</time></trkpt><trkpt lat="45.5904476" lon="10.5035861"><ele>192.0</ele><time>2026-04-18T12:00:00.623Z</time></trkpt><trkpt lat="45.5903451" lon="10.5036208"><ele>195.2</ele><time>2026-04-18T12:00:01.623Z</time></trkpt><trkpt lat="45.5902491" lon="10.5036418"><ele>198.39999999999998</ele><time>2026-04-18T12:00:02.623Z</time></trkpt><trkpt lat="45.590157" lon="10.5036606"><ele>201.60000000000002</ele><time>2026-04-18T12:00:03.623Z</time></trkpt><trkpt lat="45.5900591" lon="10.5036842"><ele>204.8</ele><time>2026-04-18T12:00:04.624Z</time></trkpt><trkpt lat="45.5899659" lon="10.5036967"><ele>208.0</ele><time>2026-04-18T12:00:05.621Z</time></trkpt><trkpt lat="45.5898744" lon="10.5037172"><ele>207.99999999999997</ele><time>2026-04-18T12:00:06.623Z</time></trkpt><trkpt lat="45.5897844" lon="10.5037398"><ele>208.0</ele><time>2026-04-18T12:00:07.622Z</time></trkpt><trkpt lat="45.5897051" lon="10.5037683"><ele>208.0</ele><time>2026-04-18T12:00:08.624Z</time></trkpt><trkpt lat="45.5896175" lon="10.5038094"><ele>208.0</ele><time>2026-04-18T12:00:09.622Z</time></trkpt><trkpt lat="45.5895355" lon="10.5038388"><ele>207.99999999999997</ele><time>2026-04-18T12:00:10.622Z</time></trkpt><trkpt lat="45.5894479" lon="10.5038604"><ele>208.0</ele><time>2026-04-18T12:00:11.623Z</time></trkpt><trkpt lat="45.589367" lon="10.5038663"><ele>207.99999999999997</ele><time>2026-04-18T12:00:12.623Z</time></trkpt><trkpt lat="45.5892901" lon="10.5038109"><ele>208.0</ele><time>2026-04-18T12:00:13.623Z</time></trkpt><trkpt lat="45.5892339" lon="10.5037223"><ele>208.0</ele><time>2026-04-18T12:00:14.621Z</time></trkpt><trkpt lat="45.589181" lon="10.5036243"><ele>208.0</ele><time>2026-04-18T12:00:15.623Z</time></trkpt><trkpt lat="45.5891275" lon="10.5035349"><ele>207.99999999999997</ele><time>2026-04-18T12:00:16.623Z</time></trkpt><trkpt lat="45.5890776" lon="10.5034401"><ele>208.0</ele><time>2026-04-18T12:00:17.623Z</time></trkpt><trkpt lat="45.5890152" lon="10.5033637"><ele>210.49999999999997</ele><time>2026-04-18T12:00:18.622Z</time></trkpt><trkpt lat="45.5889482" lon="10.5032887"><ele>213.0</ele><time>2026-04-18T12:00:19.622Z</time></trkpt><trkpt lat="45.5888795" lon="10.5032181"><ele>215.5</ele><time>2026-04-18T12:00:20.623Z</time></trkpt><trkpt lat="45.5888113" lon="10.5031541"><ele>218.0</ele><time>2026-04-18T12:00:21.622Z</time></trkpt><trkpt lat="45.5887383" lon="10.5031089"><ele>220.49999999999997</ele><time>2026-04-18T12:00:22.623Z</time></trkpt><trkpt lat="45.5886551" lon="10.5030866"><ele>223.0</ele><time>2026-04-18T12:00:23.622Z</time></trkpt><trkpt lat="45.5885755" lon="10.5030627"><ele>223.99999999999997</ele><time>2026-04-18T12:00:24.623Z</time></trkpt><trkpt lat="45.5884946" lon="10.5030351"><ele>225.0</ele><time>2026-04-18T12:00:25.624Z</time></trkpt><trkpt lat="45.5884162" lon="10.5029962"><ele>226.0</ele><time>2026-04-18T12:00:26.622Z</time></trkpt><trkpt lat="45.5883351" lon="10.5029671"><ele>227.0</ele><time>2026-04-18T12:00:27.622Z</time></trkpt><trkpt lat="45.5882466" lon="10.5029382"><ele>227.99999999999997</ele><time>2026-04-18T12:00:28.622Z</time></trkpt><trkpt lat="45.5881588" lon="10.5029116"><ele>229.0</ele><time>2026-04-18T12:00:29.622Z</time></trkpt><trkpt lat="45.5880769" lon="10.5028911"><ele>231.49999999999997</ele><time>2026-04-18T12:00:30.623Z</time></trkpt><trkpt lat="45.5879801" lon="10.5028747"><ele>234.0</ele><time>2026-04-18T12:00:31.622Z</time></trkpt><trkpt lat="45.587886" lon="10.5028561"><ele>236.5</ele><time>2026-04-18T12:00:32.622Z</time></trkpt><trkpt lat="45.5877995" lon="10.50284"><ele>239.0</ele><time>2026-04-18T12:00:33.623Z</time></trkpt><trkpt lat="45.5877213" lon="10.5028324"><ele>241.49999999999997</ele><time>2026-04-18T12:00:34.622Z</time></trkpt><trkpt lat="45.5876325" lon="10.5028362"><ele>244.0</ele><time>2026-04-18T12:00:35.621Z</time></trkpt><trkpt lat="45.5875414" lon="10.50285"><ele>245.16666666666666</ele><time>2026-04-18T12:00:36.621Z</time></trkpt><trkpt lat="45.5874389" lon="10.5028847"><ele>246.33333333333331</ele><time>2026-04-18T12:00:37.624Z</time></trkpt><trkpt lat="45.5873495" lon="10.5028861"><ele>247.5</ele><time>2026-04-18T12:00:38.623Z</time></trkpt><trkpt lat="45.5872663" lon="10.5028659"><ele>248.66666666666669</ele><time>2026-04-18T12:00:39.622Z</time></trkpt><trkpt lat="45.5871784" lon="10.5028472"><ele>249.83333333333334</ele><time>2026-04-18T12:00:40.623Z</time></trkpt><trkpt lat="45.5870982" lon="10.502828"><ele>251.0</ele><time>2026-04-18T12:00:41.622Z</time></trkpt><trkpt lat="45.5870134" lon="10.5027999"><ele>250.60000000000002</ele><time>2026-04-18T12:00:42.623Z</time></trkpt><trkpt lat="45.5869063" lon="10.5027611"><ele>250.20000000000002</ele><time>2026-04-18T12:00:43.625Z</time></trkpt><trkpt lat="45.5868112" lon="10.5027176"><ele>249.79999999999998</ele><time>2026-04-18T12:00:44.622Z</time></trkpt><trkpt lat="45.5867277" lon="10.5026303"><ele>249.39999999999998</ele><time>2026-04-18T12:00:45.623Z</time></trkpt><trkpt lat="45.5866459" lon="10.5025611"><ele>249.0</ele><time>2026-04-18T12:00:46.622Z</time></trkpt><trkpt lat="45.5865926" lon="10.5024731"><ele>249.0</ele><time>2026-04-18T12:00:47.622Z</time></trkpt><trkpt lat="45.5865383" lon="10.5023845"><ele>248.99999999999997</ele><time>2026-04-18T12:00:48.622Z</time></trkpt><trkpt lat="45.5865195" lon="10.5022242"><ele>248.99999999999997</ele><time>2026-04-18T12:00:49.623Z</time></trkpt><trkpt lat="45.5864822" lon="10.5020952"><ele>249.0</ele><time>2026-04-18T12:00:50.622Z</time></trkpt><trkpt lat="45.5864703" lon="10.5019152"><ele>249.0</ele><time>2026-04-18T12:00:51.623Z</time></trkpt><trkpt lat="45.5864928" lon="10.5017815"><ele>251.5</ele><time>2026-04-18T12:00:52.622Z</time></trkpt><trkpt lat="45.5865008" lon="10.501646"><ele>254.0</ele><time>2026-04-18T12:00:53.622Z</time></trkpt><trkpt lat="45.5865376" lon="10.5015049"><ele>256.5</ele><time>2026-04-18T12:00:54.622Z</time></trkpt><trkpt lat="45.5865657" lon="10.5013801"><ele>259.0</ele><time>2026-04-18T12:00:55.622Z</time></trkpt><trkpt lat="45.5865379" lon="10.5012695"><ele>261.5</ele><time>2026-04-18T12:00:56.624Z</time></trkpt><trkpt lat="45.5864863" lon="10.5012089"><ele>264.0</ele><time>2026-04-18T12:00:57.622Z</time></trkpt><trkpt lat="45.58641" lon="10.5011126"><ele>264.0</ele><time>2026-04-18T12:00:59.623Z</time></trkpt><trkpt lat="45.5863528" lon="10.5011502"><ele>264.0</ele><time>2026-04-18T12:01:00.623Z</time></trkpt><trkpt lat="45.5862562" lon="10.5012563"><ele>264.0</ele><time>2026-04-18T12:01:01.624Z</time></trkpt><trkpt lat="45.5861781" lon="10.5013024"><ele>264.0</ele><time>2026-04-18T12:01:02.622Z</time></trkpt><trkpt lat="45.5860858" lon="10.5013074"><ele>264.0</ele><time>2026-04-18T12:01:04.622Z</time></trkpt><trkpt lat="45.5860163" lon="10.5013008"><ele>264.0</ele><time>2026-04-18T12:01:06.622Z</time></trkpt><trkpt lat="45.5859036" lon="10.5013563"><ele>263.8333333333333</ele><time>2026-04-18T12:01:08.621Z</time></trkpt><trkpt lat="45.5858365" lon="10.5014056"><ele>263.6666666666667</ele><time>2026-04-18T12:01:09.622Z</time></trkpt><trkpt lat="45.5857873" lon="10.5014969"><ele>263.5</ele><time>2026-04-18T12:01:10.623Z</time></trkpt><trkpt lat="45.5857421" lon="10.5016024"><ele>263.33333333333337</ele><time>2026-04-18T12:01:11.623Z</time></trkpt><trkpt lat="45.5856958" lon="10.5017065"><ele>263.1666666666667</ele><time>2026-04-18T12:01:12.622Z</time></trkpt><trkpt lat="45.5856543" lon="10.5018247"><ele>263.0</ele><time>2026-04-18T12:01:13.623Z</time></trkpt><trkpt lat="45.5856239" lon="10.5019452"><ele>263.0</ele><time>2026-04-18T12:01:14.623Z</time></trkpt><trkpt lat="45.5855829" lon="10.5020652"><ele>263.0</ele><time>2026-04-18T12:01:15.623Z</time></trkpt><trkpt lat="45.5855646" lon="10.5021869"><ele>263.0</ele><time>2026-04-18T12:01:16.622Z</time></trkpt><trkpt lat="45.5855283" lon="10.5023129"><ele>263.0</ele><time>2026-04-18T12:01:17.624Z</time></trkpt><trkpt lat="45.5854788" lon="10.5024389"><ele>263.0</ele><time>2026-04-18T12:01:18.622Z</time></trkpt><trkpt lat="45.5854385" lon="10.5025603"><ele>262.6</ele><time>2026-04-18T12:01:19.623Z</time></trkpt><trkpt lat="45.5853908" lon="10.5026801"><ele>262.20000000000005</ele><time>2026-04-18T12:01:20.622Z</time></trkpt><trkpt lat="45.5853829" lon="10.5028306"><ele>261.8</ele><time>2026-04-18T12:01:21.621Z</time></trkpt><trkpt lat="45.5853707" lon="10.5029786"><ele>261.40000000000003</ele><time>2026-04-18T12:01:22.621Z</time></trkpt><trkpt lat="45.5853467" lon="10.5031168"><ele>261.0</ele><time>2026-04-18T12:01:23.622Z</time></trkpt><trkpt lat="45.5853036" lon="10.5032612"><ele>261.0</ele><time>2026-04-18T12:01:24.623Z</time></trkpt><trkpt lat="45.5852847" lon="10.5033568"><ele>261.0</ele><time>2026-04-18T12:01:25.621Z</time></trkpt><trkpt lat="45.5852088" lon="10.5034478"><ele>261.0</ele><time>2026-04-18T12:01:27.621Z</time></trkpt><trkpt lat="45.5851302" lon="10.5034888"><ele>261.0</ele><time>2026-04-18T12:01:28.621Z</time></trkpt><trkpt lat="45.585029" lon="10.5033842"><ele>261.0</ele><time>2026-04-18T12:01:30.622Z</time></trkpt><trkpt lat="45.5849689" lon="10.5033099"><ele>261.0</ele><time>2026-04-18T12:01:31.622Z</time></trkpt><trkpt lat="45.5849095" lon="10.503251"><ele>261.0</ele><time>2026-04-18T12:01:32.622Z</time></trkpt><trkpt lat="45.5848449" lon="10.5031953"><ele>261.0</ele><time>2026-04-18T12:01:33.623Z</time></trkpt><trkpt lat="45.5847597" lon="10.5031519"><ele>261.0</ele><time>2026-04-18T12:01:34.623Z</time></trkpt><trkpt lat="45.5846678" lon="10.5030702"><ele>261.0</ele><time>2026-04-18T12:01:35.622Z</time></trkpt><trkpt lat="45.5845819" lon="10.5030422"><ele>261.0</ele><time>2026-04-18T12:01:36.621Z</time></trkpt><trkpt lat="45.5845005" lon="10.5029956"><ele>261.1666666666667</ele><time>2026-04-18T12:01:37.622Z</time></trkpt><trkpt lat="45.5844211" lon="10.5029207"><ele>261.3333333333333</ele><time>2026-04-18T12:01:38.624Z</time></trkpt><trkpt lat="45.5843411" lon="10.5028552"><ele>261.5</ele><time>2026-04-18T12:01:39.622Z</time></trkpt><trkpt lat="45.5842658" lon="10.5028308"><ele>261.66666666666663</ele><time>2026-04-18T12:01:40.623Z</time></trkpt><trkpt lat="45.5841743" lon="10.5028273"><ele>261.8333333333333</ele><time>2026-04-18T12:01:41.622Z</time></trkpt><trkpt lat="45.5840975" lon="10.5027905"><ele>262.0</ele><time>2026-04-18T12:01:42.622Z</time></trkpt><trkpt lat="45.5839386" lon="10.5027038"><ele>264.2</ele><time>2026-04-18T12:01:44.622Z</time></trkpt><trkpt lat="45.5838731" lon="10.5026281"><ele>266.4</ele><time>2026-04-18T12:01:45.621Z</time></trkpt><trkpt lat="45.5838112" lon="10.5025725"><ele>268.6</ele><time>2026-04-18T12:01:46.622Z</time></trkpt><trkpt lat="45.5837789" lon="10.5024277"><ele>270.8</ele><time>2026-04-18T12:01:48.623Z</time></trkpt><trkpt lat="45.5838196" lon="10.5023047"><ele>273.0</ele><time>2026-04-18T12:01:50.621Z</time></trkpt><trkpt lat="45.5838398" lon="10.5021466"><ele>273.3333333333333</ele><time>2026-04-18T12:01:52.622Z</time></trkpt><trkpt lat="45.5838581" lon="10.5020524"><ele>273.6666666666667</ele><time>2026-04-18T12:01:53.621Z</time></trkpt><trkpt lat="45.5838487" lon="10.5019546"><ele>274.0</ele><time>2026-04-18T12:01:54.621Z</time></trkpt><trkpt lat="45.5838042" lon="10.5018503"><ele>274.33333333333337</ele><time>2026-04-18T12:01:55.621Z</time></trkpt><trkpt lat="45.583759" lon="10.5017413"><ele>274.6666666666667</ele><time>2026-04-18T12:01:56.622Z</time></trkpt><trkpt lat="45.583721" lon="10.5016283"><ele>275.0</ele><time>2026-04-18T12:01:57.622Z</time></trkpt><trkpt lat="45.5836898" lon="10.5015139"><ele>275.6666666666667</ele><time>2026-04-18T12:01:58.623Z</time></trkpt><trkpt lat="45.5836476" lon="10.501407"><ele>276.33333333333337</ele><time>2026-04-18T12:01:59.621Z</time></trkpt><trkpt lat="45.5836023" lon="10.5013122"><ele>277.0</ele><time>2026-04-18T12:02:00.622Z</time></trkpt><trkpt lat="45.5835471" lon="10.5012351"><ele>277.6666666666667</ele><time>2026-04-18T12:02:01.622Z</time></trkpt><trkpt lat="45.5834728" lon="10.5011957"><ele>278.3333333333333</ele><time>2026-04-18T12:02:02.622Z</time></trkpt><trkpt lat="45.5834011" lon="10.5011505"><ele>279.0</ele><time>2026-04-18T12:02:03.621Z</time></trkpt><trkpt lat="45.5833228" lon="10.5011051"><ele>279.0</ele><time>2026-04-18T12:02:04.622Z</time></trkpt><trkpt lat="45.5832549" lon="10.5010512"><ele>279.0</ele><time>2026-04-18T12:02:05.622Z</time></trkpt><trkpt lat="45.5831887" lon="10.5009927"><ele>279.0</ele><time>2026-04-18T12:02:06.622Z</time></trkpt><trkpt lat="45.5831179" lon="10.5009328"><ele>279.0</ele><time>2026-04-18T12:02:07.621Z</time></trkpt><trkpt lat="45.5830419" lon="10.50086"><ele>279.0</ele><time>2026-04-18T12:02:08.622Z</time></trkpt><trkpt lat="45.5829727" lon="10.5007888"><ele>279.0</ele><time>2026-04-18T12:02:09.623Z</time></trkpt><trkpt lat="45.5829156" lon="10.5007066"><ele>279.0</ele><time>2026-04-18T12:02:10.621Z</time></trkpt><trkpt lat="45.5828689" lon="10.5006084"><ele>279.0</ele><time>2026-04-18T12:02:11.621Z</time></trkpt><trkpt lat="45.5828217" lon="10.5005111"><ele>279.0</ele><time>2026-04-18T12:02:12.621Z</time></trkpt><trkpt lat="45.5827779" lon="10.5004127"><ele>279.0</ele><time>2026-04-18T12:02:13.622Z</time></trkpt><trkpt lat="45.5827465" lon="10.5003047"><ele>279.0</ele><time>2026-04-18T12:02:14.622Z</time></trkpt><trkpt lat="45.5827247" lon="10.5001858"><ele>279.0</ele><time>2026-04-18T12:02:15.622Z</time></trkpt><trkpt lat="45.5827066" lon="10.5000642"><ele>278.4</ele><time>2026-04-18T12:02:16.622Z</time></trkpt><trkpt lat="45.5826852" lon="10.4999396"><ele>277.79999999999995</ele><time>2026-04-18T12:02:17.622Z</time></trkpt><trkpt lat="45.5826662" lon="10.4998078"><ele>277.20000000000005</ele><time>2026-04-18T12:02:18.621Z</time></trkpt><trkpt lat="45.5826546" lon="10.4996765"><ele>276.6</ele><time>2026-04-18T12:02:19.622Z</time></trkpt><trkpt lat="45.5826482" lon="10.499549"><ele>276.0</ele><time>2026-04-18T12:02:20.622Z</time></trkpt><trkpt lat="45.582647" lon="10.4994201"><ele>276.0</ele><time>2026-04-18T12:02:21.622Z</time></trkpt><trkpt lat="45.5826416" lon="10.4992921"><ele>276.0</ele><time>2026-04-18T12:02:22.622Z</time></trkpt><trkpt lat="45.5826322" lon="10.4991651"><ele>276.0</ele><time>2026-04-18T12:02:23.622Z</time></trkpt><trkpt lat="45.5826304" lon="10.4990373"><ele>276.0</ele><time>2026-04-18T12:02:24.623Z</time></trkpt><trkpt lat="45.5826416" lon="10.4989101"><ele>276.0</ele><time>2026-04-18T12:02:25.622Z</time></trkpt><trkpt lat="45.5826556" lon="10.4987872"><ele>276.0</ele><time>2026-04-18T12:02:26.623Z</time></trkpt><trkpt lat="45.5826799" lon="10.498663"><ele>276.8</ele><time>2026-04-18T12:02:27.622Z</time></trkpt><trkpt lat="45.5827326" lon="10.4985451"><ele>277.6</ele><time>2026-04-18T12:02:28.622Z</time></trkpt><trkpt lat="45.5827947" lon="10.4984362"><ele>278.4</ele><time>2026-04-18T12:02:29.621Z</time></trkpt><trkpt lat="45.5828607" lon="10.4983274"><ele>279.2</ele><time>2026-04-18T12:02:30.622Z</time></trkpt><trkpt lat="45.5829232" lon="10.4982175"><ele>280.0</ele><time>2026-04-18T12:02:31.624Z</time></trkpt><trkpt lat="45.5829859" lon="10.4981122"><ele>281.0</ele><time>2026-04-18T12:02:32.621Z</time></trkpt><trkpt lat="45.5830483" lon="10.4980023"><ele>282.0</ele><time>2026-04-18T12:02:33.623Z</time></trkpt><trkpt lat="45.5831161" lon="10.4979102"><ele>283.0</ele><time>2026-04-18T12:02:34.623Z</time></trkpt><trkpt lat="45.5831874" lon="10.4978263"><ele>284.0</ele><time>2026-04-18T12:02:35.623Z</time></trkpt><trkpt lat="45.5832562" lon="10.4977359"><ele>285.0</ele><time>2026-04-18T12:02:36.622Z</time></trkpt><trkpt lat="45.5833253" lon="10.4976451"><ele>285.0</ele><time>2026-04-18T12:02:37.622Z</time></trkpt><trkpt lat="45.5833033" lon="10.4975548"><ele>285.0</ele><time>2026-04-18T12:02:38.621Z</time></trkpt><trkpt lat="45.583309" lon="10.4974439"><ele>285.0</ele><time>2026-04-18T12:02:39.622Z</time></trkpt><trkpt lat="45.583306" lon="10.4973208"><ele>285.0</ele><time>2026-04-18T12:02:40.622Z</time></trkpt><trkpt lat="45.5833018" lon="10.4972174"><ele>285.0</ele><time>2026-04-18T12:02:41.62Z</time></trkpt><trkpt lat="45.5832802" lon="10.4971064"><ele>285.0</ele><time>2026-04-18T12:02:42.622Z</time></trkpt><trkpt lat="45.5832422" lon="10.4970155"><ele>286.0</ele><time>2026-04-18T12:02:43.622Z</time></trkpt><trkpt lat="45.583179" lon="10.4969362"><ele>287.0</ele><time>2026-04-18T12:02:44.622Z</time></trkpt><trkpt lat="45.5831039" lon="10.4968753"><ele>288.0</ele><time>2026-04-18T12:02:45.622Z</time></trkpt><trkpt lat="45.5830251" lon="10.4968178"><ele>289.0</ele><time>2026-04-18T12:02:46.622Z</time></trkpt><trkpt lat="45.582951" lon="10.496762"><ele>290.0</ele><time>2026-04-18T12:02:47.621Z</time></trkpt><trkpt lat="45.5828882" lon="10.4967095"><ele>291.0</ele><time>2026-04-18T12:02:48.622Z</time></trkpt><trkpt lat="45.5828335" lon="10.4966434"><ele>291.0</ele><time>2026-04-18T12:02:49.622Z</time></trkpt><trkpt lat="45.5827823" lon="10.4965664"><ele>291.0</ele><time>2026-04-18T12:02:50.623Z</time></trkpt><trkpt lat="45.5827254" lon="10.4965262"><ele>291.0</ele><time>2026-04-18T12:02:51.623Z</time></trkpt><trkpt lat="45.5826673" lon="10.4964796"><ele>291.0</ele><time>2026-04-18T12:02:52.622Z</time></trkpt><trkpt lat="45.5826083" lon="10.4964398"><ele>291.0</ele><time>2026-04-18T12:02:53.622Z</time></trkpt><trkpt lat="45.5825304" lon="10.4964326"><ele>291.0</ele><time>2026-04-18T12:02:54.622Z</time></trkpt><trkpt lat="45.5824453" lon="10.4964536"><ele>291.0</ele><time>2026-04-18T12:02:55.622Z</time></trkpt><trkpt lat="45.582354" lon="10.4964427"><ele>291.0</ele><time>2026-04-18T12:02:56.622Z</time></trkpt><trkpt lat="45.5822736" lon="10.496427"><ele>291.0</ele><time>2026-04-18T12:02:57.622Z</time></trkpt><trkpt lat="45.5821886" lon="10.4964009"><ele>291.0</ele><time>2026-04-18T12:02:58.623Z</time></trkpt><trkpt lat="45.5820882" lon="10.4964107"><ele>291.0</ele><time>2026-04-18T12:02:59.622Z</time></trkpt><trkpt lat="45.5819917" lon="10.4963935"><ele>291.0</ele><time>2026-04-18T12:03:00.623Z</time></trkpt><trkpt lat="45.5818997" lon="10.4963816"><ele>291.0</ele><time>2026-04-18T12:03:01.621Z</time></trkpt><trkpt lat="45.5818148" lon="10.4963537"><ele>291.0</ele><time>2026-04-18T12:03:02.621Z</time></trkpt><trkpt lat="45.581721" lon="10.4963249"><ele>291.0</ele><time>2026-04-18T12:03:03.623Z</time></trkpt><trkpt lat="45.5816296" lon="10.4962908"><ele>291.0</ele><time>2026-04-18T12:03:04.622Z</time></trkpt><trkpt lat="45.5815378" lon="10.4962524"><ele>291.0</ele><time>2026-04-18T12:03:05.623Z</time></trkpt><trkpt lat="45.5814508" lon="10.4962417"><ele>294.1666666666667</ele><time>2026-04-18T12:03:06.622Z</time></trkpt><trkpt lat="45.5813626" lon="10.4962358"><ele>297.3333333333333</ele><time>2026-04-18T12:03:07.622Z</time></trkpt><trkpt lat="45.5812734" lon="10.4962237"><ele>300.5</ele><time>2026-04-18T12:03:08.622Z</time></trkpt><trkpt lat="45.5811914" lon="10.4961829"><ele>303.66666666666663</ele><time>2026-04-18T12:03:09.624Z</time></trkpt><trkpt lat="45.5811117" lon="10.4961446"><ele>306.8333333333333</ele><time>2026-04-18T12:03:10.622Z</time></trkpt><trkpt lat="45.5810326" lon="10.496095"><ele>310.0</ele><time>2026-04-18T12:03:11.62Z</time></trkpt><trkpt lat="45.580962" lon="10.4960359"><ele>310.0</ele><time>2026-04-18T12:03:12.621Z</time></trkpt><trkpt lat="45.5808958" lon="10.4959745"><ele>310.0</ele><time>2026-04-18T12:03:13.622Z</time></trkpt><trkpt lat="45.5808257" lon="10.4959168"><ele>310.0</ele><time>2026-04-18T12:03:14.621Z</time></trkpt><trkpt lat="45.5807649" lon="10.4958531"><ele>310.0</ele><time>2026-04-18T12:03:15.622Z</time></trkpt><trkpt lat="45.5807017" lon="10.495787"><ele>310.0</ele><time>2026-04-18T12:03:16.622Z</time></trkpt><trkpt lat="45.5806238" lon="10.49575"><ele>310.0</ele><time>2026-04-18T12:03:17.622Z</time></trkpt><trkpt lat="45.5805502" lon="10.4957002"><ele>310.0</ele><time>2026-04-18T12:03:18.622Z</time></trkpt><trkpt lat="45.5804781" lon="10.4956414"><ele>310.0</ele><time>2026-04-18T12:03:19.622Z</time></trkpt><trkpt lat="45.58042" lon="10.4955457"><ele>310.0</ele><time>2026-04-18T12:03:20.622Z</time></trkpt><trkpt lat="45.5803581" lon="10.495478"><ele>310.0</ele><time>2026-04-18T12:03:21.622Z</time></trkpt><trkpt lat="45.5802968" lon="10.4954062"><ele>310.0</ele><time>2026-04-18T12:03:22.623Z</time></trkpt><trkpt lat="45.5802362" lon="10.4953316"><ele>310.0</ele><time>2026-04-18T12:03:23.622Z</time></trkpt><trkpt lat="45.5801694" lon="10.495259"><ele>310.0</ele><time>2026-04-18T12:03:24.622Z</time></trkpt><trkpt lat="45.5801029" lon="10.4951955"><ele>310.0</ele><time>2026-04-18T12:03:25.622Z</time></trkpt><trkpt lat="45.580025" lon="10.495141"><ele>310.0</ele><time>2026-04-18T12:03:26.622Z</time></trkpt><trkpt lat="45.5799552" lon="10.4950756"><ele>310.0</ele><time>2026-04-18T12:03:27.622Z</time></trkpt><trkpt lat="45.5798954" lon="10.4949942"><ele>310.0</ele><time>2026-04-18T12:03:28.622Z</time></trkpt><trkpt lat="45.5798385" lon="10.4949168"><ele>310.0</ele><time>2026-04-18T12:03:29.622Z</time></trkpt><trkpt lat="45.5797878" lon="10.4948307"><ele>310.0</ele><time>2026-04-18T12:03:30.622Z</time></trkpt><trkpt lat="45.5797426" lon="10.4947017"><ele>310.0</ele><time>2026-04-18T12:03:32.622Z</time></trkpt><trkpt lat="45.5797182" lon="10.4945658"><ele>310.0</ele><time>2026-04-18T12:03:34.621Z</time></trkpt><trkpt lat="45.5796679" lon="10.4944013"><ele>310.0</ele><time>2026-04-18T12:03:36.622Z</time></trkpt><trkpt lat="45.5796452" lon="10.4943085"><ele>310.0</ele><time>2026-04-18T12:03:37.622Z</time></trkpt><trkpt lat="45.5796156" lon="10.49419"><ele>311.8333333333333</ele><time>2026-04-18T12:03:39.621Z</time></trkpt><trkpt lat="45.5795995" lon="10.4940946"><ele>313.66666666666663</ele><time>2026-04-18T12:03:41.621Z</time></trkpt><trkpt lat="45.5795897" lon="10.4939523"><ele>315.5</ele><time>2026-04-18T12:03:43.622Z</time></trkpt><trkpt lat="45.5795543" lon="10.4938462"><ele>317.3333333333333</ele><time>2026-04-18T12:03:45.622Z</time></trkpt><trkpt lat="45.5795555" lon="10.4939495"><ele>319.1666666666667</ele><time>2026-04-18T12:03:51.62Z</time></trkpt><trkpt lat="45.5795838" lon="10.4941193"><ele>321.0</ele><time>2026-04-18T12:03:53.622Z</time></trkpt><trkpt lat="45.5795892" lon="10.4942205"><ele>321.0</ele><time>2026-04-18T12:03:54.622Z</time></trkpt><trkpt lat="45.5796241" lon="10.4943339"><ele>321.0</ele><time>2026-04-18T12:03:55.622Z</time></trkpt><trkpt lat="45.5796547" lon="10.4944417"><ele>321.0</ele><time>2026-04-18T12:03:56.622Z</time></trkpt><trkpt lat="45.5796868" lon="10.4945551"><ele>321.0</ele><time>2026-04-18T12:03:57.621Z</time></trkpt><trkpt lat="45.5797327" lon="10.4946586"><ele>321.0</ele><time>2026-04-18T12:03:58.621Z</time></trkpt><trkpt lat="45.5797747" lon="10.4947712"><ele>321.0</ele><time>2026-04-18T12:03:59.623Z</time></trkpt><trkpt lat="45.5798111" lon="10.4948662"><ele>318.8</ele><time>2026-04-18T12:04:00.623Z</time></trkpt><trkpt lat="45.5798896" lon="10.4949818"><ele>316.6</ele><time>2026-04-18T12:04:02.622Z</time></trkpt><trkpt lat="45.5799539" lon="10.4950264"><ele>314.4</ele><time>2026-04-18T12:04:05.621Z</time></trkpt><trkpt lat="45.5800209" lon="10.4949329"><ele>312.2</ele><time>2026-04-18T12:04:08.622Z</time></trkpt><trkpt lat="45.5800151" lon="10.4948138"><ele>310.0</ele><time>2026-04-18T12:04:10.622Z</time></trkpt><trkpt lat="45.5800029" lon="10.4946559"><ele>311.8333333333333</ele><time>2026-04-18T12:04:12.622Z</time></trkpt><trkpt lat="45.5799756" lon="10.4944892"><ele>313.66666666666663</ele><time>2026-04-18T12:04:14.622Z</time></trkpt><trkpt lat="45.5799632" lon="10.494395"><ele>315.5</ele><time>2026-04-18T12:04:15.621Z</time></trkpt><trkpt lat="45.5799492" lon="10.4943017"><ele>317.3333333333333</ele><time>2026-04-18T12:04:16.622Z</time></trkpt><trkpt lat="45.5799368" lon="10.4942058"><ele>319.1666666666667</ele><time>2026-04-18T12:04:17.622Z</time></trkpt><trkpt lat="45.5799463" lon="10.4941138"><ele>321.0</ele><time>2026-04-18T12:04:18.622Z</time></trkpt><trkpt lat="45.579943" lon="10.4939735"><ele>321.0</ele><time>2026-04-18T12:04:20.622Z</time></trkpt><trkpt lat="45.5799359" lon="10.4938639"><ele>321.0</ele><time>2026-04-18T12:04:22.621Z</time></trkpt><trkpt lat="45.5799169" lon="10.4937179"><ele>321.0</ele><time>2026-04-18T12:04:24.622Z</time></trkpt><trkpt lat="45.5799241" lon="10.4935981"><ele>321.0</ele><time>2026-04-18T12:04:25.621Z</time></trkpt><trkpt lat="45.5799571" lon="10.4934755"><ele>321.0</ele><time>2026-04-18T12:04:28.621Z</time></trkpt><trkpt lat="45.5799603" lon="10.4933641"><ele>321.0</ele><time>2026-04-18T12:04:30.622Z</time></trkpt><trkpt lat="45.5799387" lon="10.4931941"><ele>322.20000000000005</ele><time>2026-04-18T12:04:32.622Z</time></trkpt><trkpt lat="45.579948" lon="10.4930594"><ele>323.40000000000003</ele><time>2026-04-18T12:04:34.621Z</time></trkpt><trkpt lat="45.5799415" lon="10.4929357"><ele>324.6</ele><time>2026-04-18T12:04:37.621Z</time></trkpt><trkpt lat="45.5798857" lon="10.4928283"><ele>325.8</ele><time>2026-04-18T12:04:39.621Z</time></trkpt><trkpt lat="45.5798196" lon="10.4927141"><ele>327.0</ele><time>2026-04-18T12:04:41.623Z</time></trkpt><trkpt lat="45.5797317" lon="10.4926071"><ele>327.25</ele><time>2026-04-18T12:04:43.621Z</time></trkpt><trkpt lat="45.5796837" lon="10.4925397"><ele>327.5</ele><time>2026-04-18T12:04:44.622Z</time></trkpt><trkpt lat="45.5796358" lon="10.4924642"><ele>327.75</ele><time>2026-04-18T12:04:45.622Z</time></trkpt><trkpt lat="45.5795698" lon="10.4923692"><ele>328.0</ele><time>2026-04-18T12:04:46.623Z</time></trkpt><trkpt lat="45.5799492" lon="10.4943017"><ele>327.8333333333333</ele><time>2026-04-18T12:04:16.622Z</time></trkpt><trkpt lat="45.5799368" lon="10.4942058"><ele>327.66666666666663</ele><time>2026-04-18T12:04:17.622Z</time></trkpt><trkpt lat="45.5799463" lon="10.4941138"><ele>327.5</ele><time>2026-04-18T12:04:18.622Z</time></trkpt><trkpt lat="45.579943" lon="10.4939735"><ele>327.3333333333333</ele><time>2026-04-18T12:04:20.622Z</time></trkpt><trkpt lat="45.5799359" lon="10.4938639"><ele>327.1666666666667</ele><time>2026-04-18T12:04:22.621Z</time></trkpt><trkpt lat="45.5799169" lon="10.4937179"><ele>327.0</ele><time>2026-04-18T12:04:24.622Z</time></trkpt><trkpt lat="45.5799241" lon="10.4935981"><ele>327.0</ele><time>2026-04-18T12:04:25.621Z</time></trkpt><trkpt lat="45.5799571" lon="10.4934755"><ele>327.0</ele><time>2026-04-18T12:04:28.621Z</time></trkpt><trkpt lat="45.5799603" lon="10.4933641"><ele>327.0</ele><time>2026-04-18T12:04:30.622Z</time></trkpt><trkpt lat="45.5799387" lon="10.4931941"><ele>327.0</ele><time>2026-04-18T12:04:32.622Z</time></trkpt><trkpt lat="45.579948" lon="10.4930594"><ele>327.0</ele><time>2026-04-18T12:04:34.621Z</time></trkpt><trkpt lat="45.5799415" lon="10.4929357"><ele>327.20000000000005</ele><time>2026-04-18T12:04:37.621Z</time></trkpt><trkpt lat="45.5798857" lon="10.4928283"><ele>327.4</ele><time>2026-04-18T12:04:39.621Z</time></trkpt><trkpt lat="45.5798196" lon="10.4927141"><ele>327.6</ele><time>2026-04-18T12:04:41.623Z</time></trkpt><trkpt lat="45.5797317" lon="10.4926071"><ele>327.79999999999995</ele><time>2026-04-18T12:04:43.621Z</time></trkpt><trkpt lat="45.5796837" lon="10.4925397"><ele>328.0</ele><time>2026-04-18T12:04:44.622Z</time></trkpt><trkpt lat="45.5796358" lon="10.4924642"><ele>328.0</ele><time>2026-04-18T12:04:45.622Z</time></trkpt><trkpt lat="45.5795698" lon="10.4923692"><ele>328.0</ele><time>2026-04-18T12:04:46.623Z</time></trkpt><trkpt lat="45.5795027" lon="10.4922633"><ele>328.0</ele><time>2026-04-18T12:04:47.622Z</time></trkpt><trkpt lat="45.5794325" lon="10.4921553"><ele>328.0</ele><time>2026-04-18T12:04:48.622Z</time></trkpt><trkpt lat="45.5793613" lon="10.4920571"><ele>328.0</ele><time>2026-04-18T12:04:49.621Z</time></trkpt><trkpt lat="45.5792905" lon="10.4919613"><ele>326.59999999999997</ele><time>2026-04-18T12:04:50.622Z</time></trkpt><trkpt lat="45.57922" lon="10.4918699"><ele>325.2</ele><time>2026-04-18T12:04:51.621Z</time></trkpt><trkpt lat="45.5791493" lon="10.4917818"><ele>323.8</ele><time>2026-04-18T12:04:52.622Z</time></trkpt><trkpt lat="45.5790762" lon="10.4916971"><ele>322.4</ele><time>2026-04-18T12:04:53.622Z</time></trkpt><trkpt lat="45.578999" lon="10.4916211"><ele>321.0</ele><time>2026-04-18T12:04:54.622Z</time></trkpt><trkpt lat="45.5789178" lon="10.491549"><ele>321.0</ele><time>2026-04-18T12:04:55.623Z</time></trkpt><trkpt lat="45.5788418" lon="10.4914807"><ele>321.0</ele><time>2026-04-18T12:04:56.62Z</time></trkpt><trkpt lat="45.5787728" lon="10.4914105"><ele>321.0</ele><time>2026-04-18T12:04:57.623Z</time></trkpt><trkpt lat="45.5787213" lon="10.4913378"><ele>321.0</ele><time>2026-04-18T12:04:58.622Z</time></trkpt><trkpt lat="45.5786326" lon="10.491239"><ele>321.0</ele><time>2026-04-18T12:05:00.621Z</time></trkpt><trkpt lat="45.5785406" lon="10.4912292"><ele>320.3333333333333</ele><time>2026-04-18T12:05:02.621Z</time></trkpt><trkpt lat="45.5784546" lon="10.4912724"><ele>319.6666666666667</ele><time>2026-04-18T12:05:04.621Z</time></trkpt><trkpt lat="45.578376" lon="10.4913067"><ele>319.0</ele><time>2026-04-18T12:05:05.623Z</time></trkpt><trkpt lat="45.5782819" lon="10.4913243"><ele>318.33333333333337</ele><time>2026-04-18T12:05:06.621Z</time></trkpt><trkpt lat="45.578198" lon="10.4913706"><ele>317.6666666666667</ele><time>2026-04-18T12:05:07.621Z</time></trkpt><trkpt lat="45.5781278" lon="10.4914022"><ele>317.0</ele><time>2026-04-18T12:05:08.622Z</time></trkpt><trkpt lat="45.5780524" lon="10.4914079"><ele>317.0</ele><time>2026-04-18T12:05:09.621Z</time></trkpt><trkpt lat="45.5779767" lon="10.4913783"><ele>317.0</ele><time>2026-04-18T12:05:10.621Z</time></trkpt><trkpt lat="45.5778952" lon="10.4913389"><ele>317.0</ele><time>2026-04-18T12:05:11.622Z</time></trkpt><trkpt lat="45.5778322" lon="10.4912797"><ele>317.0</ele><time>2026-04-18T12:05:12.621Z</time></trkpt><trkpt lat="45.5777601" lon="10.4912363"><ele>317.0</ele><time>2026-04-18T12:05:13.621Z</time></trkpt><trkpt lat="45.5776752" lon="10.4912147"><ele>317.0</ele><time>2026-04-18T12:05:14.622Z</time></trkpt><trkpt lat="45.5775959" lon="10.4912095"><ele>318.42857142857144</ele><time>2026-04-18T12:05:15.622Z</time></trkpt><trkpt lat="45.577523" lon="10.4912117"><ele>319.85714285714283</ele><time>2026-04-18T12:05:16.622Z</time></trkpt><trkpt lat="45.5774492" lon="10.4912105"><ele>321.2857142857143</ele><time>2026-04-18T12:05:17.622Z</time></trkpt><trkpt lat="45.5773798" lon="10.4911887"><ele>322.7142857142857</ele><time>2026-04-18T12:05:18.621Z</time></trkpt><trkpt lat="45.5773153" lon="10.4911474"><ele>324.14285714285717</ele><time>2026-04-18T12:05:19.622Z</time></trkpt><trkpt lat="45.5772474" lon="10.4911073"><ele>325.57142857142856</ele><time>2026-04-18T12:05:20.621Z</time></trkpt><trkpt lat="45.5771779" lon="10.4910581"><ele>327.0</ele><time>2026-04-18T12:05:21.62Z</time></trkpt><trkpt lat="45.5771046" lon="10.4910212"><ele>327.0</ele><time>2026-04-18T12:05:22.622Z</time></trkpt><trkpt lat="45.5770293" lon="10.4909781"><ele>327.0</ele><time>2026-04-18T12:05:23.623Z</time></trkpt><trkpt lat="45.5769499" lon="10.4909363"><ele>327.0</ele><time>2026-04-18T12:05:24.621Z</time></trkpt><trkpt lat="45.5768596" lon="10.4908827"><ele>327.0</ele><time>2026-04-18T12:05:25.622Z</time></trkpt><trkpt lat="45.5767737" lon="10.4908414"><ele>327.0</ele><time>2026-04-18T12:05:26.622Z</time></trkpt><trkpt lat="45.5767" lon="10.490799"><ele>327.0</ele><time>2026-04-18T12:05:27.621Z</time></trkpt><trkpt lat="45.576635" lon="10.4907859"><ele>326.0</ele><time>2026-04-18T12:05:28.621Z</time></trkpt><trkpt lat="45.5765321" lon="10.490788"><ele>325.0</ele><time>2026-04-18T12:05:30.621Z</time></trkpt><trkpt lat="45.5764694" lon="10.490701"><ele>324.0</ele><time>2026-04-18T12:05:33.623Z</time></trkpt><trkpt lat="45.5764075" lon="10.4905521"><ele>323.0</ele><time>2026-04-18T12:05:35.622Z</time></trkpt><trkpt lat="45.576378" lon="10.4904687"><ele>322.0</ele><time>2026-04-18T12:05:36.622Z</time></trkpt><trkpt lat="45.5763729" lon="10.4903236"><ele>322.0</ele><time>2026-04-18T12:05:37.622Z</time></trkpt><trkpt lat="45.5763547" lon="10.4902054"><ele>322.0</ele><time>2026-04-18T12:05:38.62Z</time></trkpt><trkpt lat="45.5763367" lon="10.490087"><ele>322.0</ele><time>2026-04-18T12:05:39.621Z</time></trkpt><trkpt lat="45.5763299" lon="10.4899665"><ele>322.0</ele><time>2026-04-18T12:05:40.621Z</time></trkpt><trkpt lat="45.5763311" lon="10.4898419"><ele>322.0</ele><time>2026-04-18T12:05:41.62Z</time></trkpt><trkpt lat="45.5763344" lon="10.489727"><ele>322.0</ele><time>2026-04-18T12:05:42.621Z</time></trkpt><trkpt lat="45.5763354" lon="10.4896165"><ele>322.16666666666663</ele><time>2026-04-18T12:05:43.621Z</time></trkpt><trkpt lat="45.5763274" lon="10.4895014"><ele>322.3333333333333</ele><time>2026-04-18T12:05:44.622Z</time></trkpt><trkpt lat="45.5762879" lon="10.4893984"><ele>322.5</ele><time>2026-04-18T12:05:45.621Z</time></trkpt><trkpt lat="45.5762235" lon="10.4893163"><ele>322.6666666666667</ele><time>2026-04-18T12:05:46.622Z</time></trkpt><trkpt lat="45.5761546" lon="10.489229"><ele>322.83333333333337</ele><time>2026-04-18T12:05:47.62Z</time></trkpt><trkpt lat="45.5761033" lon="10.4891297"><ele>323.0</ele><time>2026-04-18T12:05:48.621Z</time></trkpt><trkpt lat="45.5760462" lon="10.4890345"><ele>322.5</ele><time>2026-04-18T12:05:49.621Z</time></trkpt><trkpt lat="45.5759948" lon="10.488943"><ele>322.0</ele><time>2026-04-18T12:05:50.621Z</time></trkpt><trkpt lat="45.5759407" lon="10.488851"><ele>321.5</ele><time>2026-04-18T12:05:51.623Z</time></trkpt><trkpt lat="45.5758785" lon="10.4887659"><ele>321.0</ele><time>2026-04-18T12:05:52.621Z</time></trkpt><trkpt lat="45.5758174" lon="10.4886861"><ele>320.5</ele><time>2026-04-18T12:05:53.621Z</time></trkpt><trkpt lat="45.5757591" lon="10.4886164"><ele>320.0</ele><time>2026-04-18T12:05:54.621Z</time></trkpt><trkpt lat="45.5757076" lon="10.4885509"><ele>320.0</ele><time>2026-04-18T12:05:56.621Z</time></trkpt><trkpt lat="45.5757577" lon="10.4886059"><ele>320.0</ele><time>2026-04-18T12:06:09.62Z</time></trkpt><trkpt lat="45.5757096" lon="10.4886686"><ele>320.0</ele><time>2026-04-18T12:06:25.621Z</time></trkpt><trkpt lat="45.5756472" lon="10.4886873"><ele>320.0</ele><time>2026-04-18T12:06:28.621Z</time></trkpt><trkpt lat="45.5755593" lon="10.4886866"><ele>320.0</ele><time>2026-04-18T12:06:30.623Z</time></trkpt><trkpt lat="45.5754788" lon="10.4886935"><ele>320.0</ele><time>2026-04-18T12:06:31.622Z</time></trkpt><trkpt lat="45.5754145" lon="10.4887015"><ele>320.0</ele><time>2026-04-18T12:06:32.621Z</time></trkpt><trkpt lat="45.5753373" lon="10.4886942"><ele>319.6666666666667</ele><time>2026-04-18T12:06:35.622Z</time></trkpt><trkpt lat="45.5752233" lon="10.4887766"><ele>319.33333333333337</ele><time>2026-04-18T12:06:37.622Z</time></trkpt><trkpt lat="45.5751494" lon="10.4888235"><ele>319.0</ele><time>2026-04-18T12:06:38.621Z</time></trkpt><trkpt lat="45.5750874" lon="10.4888656"><ele>318.6666666666667</ele><time>2026-04-18T12:06:39.621Z</time></trkpt><trkpt lat="45.5750232" lon="10.4889044"><ele>318.3333333333333</ele><time>2026-04-18T12:06:40.621Z</time></trkpt><trkpt lat="45.5749574" lon="10.4889908"><ele>318.0</ele><time>2026-04-18T12:06:41.621Z</time></trkpt><trkpt lat="45.5748982" lon="10.4890723"><ele>318.0</ele><time>2026-04-18T12:06:42.622Z</time></trkpt><trkpt lat="45.5747979" lon="10.489253"><ele>318.0</ele><time>2026-04-18T12:06:44.623Z</time></trkpt><trkpt lat="45.5747425" lon="10.4893466"><ele>318.0</ele><time>2026-04-18T12:06:45.621Z</time></trkpt><trkpt lat="45.5746891" lon="10.4894334"><ele>318.0</ele><time>2026-04-18T12:06:46.621Z</time></trkpt><trkpt lat="45.5745759" lon="10.4895523"><ele>317.3333333333333</ele><time>2026-04-18T12:06:48.621Z</time></trkpt><trkpt lat="45.5745115" lon="10.4895944"><ele>316.6666666666667</ele><time>2026-04-18T12:06:49.621Z</time></trkpt><trkpt lat="45.5744508" lon="10.4896227"><ele>316.0</ele><time>2026-04-18T12:06:50.621Z</time></trkpt><trkpt lat="45.5743142" lon="10.489625"><ele>315.33333333333337</ele><time>2026-04-18T12:06:52.621Z</time></trkpt><trkpt lat="45.5742495" lon="10.4895744"><ele>314.6666666666667</ele><time>2026-04-18T12:06:53.621Z</time></trkpt><trkpt lat="45.5741837" lon="10.4895456"><ele>314.0</ele><time>2026-04-18T12:06:54.62Z</time></trkpt><trkpt lat="45.5740654" lon="10.4894803"><ele>315.4</ele><time>2026-04-18T12:06:56.62Z</time></trkpt><trkpt lat="45.5739585" lon="10.4894202"><ele>316.79999999999995</ele><time>2026-04-18T12:06:58.622Z</time></trkpt><trkpt lat="45.573868" lon="10.4893748"><ele>318.20000000000005</ele><time>2026-04-18T12:06:59.623Z</time></trkpt><trkpt lat="45.5737915" lon="10.4893268"><ele>319.6</ele><time>2026-04-18T12:07:00.622Z</time></trkpt><trkpt lat="45.5736544" lon="10.4892849"><ele>321.0</ele><time>2026-04-18T12:07:02.622Z</time></trkpt><trkpt lat="45.5735648" lon="10.4892743"><ele>321.0</ele><time>2026-04-18T12:07:03.621Z</time></trkpt><trkpt lat="45.5734874" lon="10.4892437"><ele>321.0</ele><time>2026-04-18T12:07:04.621Z</time></trkpt><trkpt lat="45.573408" lon="10.4892132"><ele>321.0</ele><time>2026-04-18T12:07:05.62Z</time></trkpt><trkpt lat="45.573338" lon="10.4891702"><ele>321.0</ele><time>2026-04-18T12:07:06.621Z</time></trkpt><trkpt lat="45.5732546" lon="10.4891769"><ele>321.0</ele><time>2026-04-18T12:07:07.622Z</time></trkpt><trkpt lat="45.5731887" lon="10.4891599"><ele>321.0</ele><time>2026-04-18T12:07:08.622Z</time></trkpt><trkpt lat="45.5730744" lon="10.4891825"><ele>321.0</ele><time>2026-04-18T12:07:10.622Z</time></trkpt><trkpt lat="45.5730013" lon="10.4892249"><ele>321.0</ele><time>2026-04-18T12:07:12.621Z</time></trkpt><trkpt lat="45.5729211" lon="10.4893184"><ele>321.0</ele><time>2026-04-18T12:07:14.621Z</time></trkpt><trkpt lat="45.572861" lon="10.4893996"><ele>321.0</ele><time>2026-04-18T12:07:15.62Z</time></trkpt><trkpt lat="45.5727878" lon="10.4894708"><ele>321.0</ele><time>2026-04-18T12:07:16.621Z</time></trkpt><trkpt lat="45.5727128" lon="10.4895367"><ele>321.0</ele><time>2026-04-18T12:07:17.622Z</time></trkpt><trkpt lat="45.5726353" lon="10.4895923"><ele>320.0</ele><time>2026-04-18T12:07:18.621Z</time></trkpt><trkpt lat="45.5725232" lon="10.4896041"><ele>319.0</ele><time>2026-04-18T12:07:20.622Z</time></trkpt><trkpt lat="45.5724229" lon="10.4897055"><ele>318.0</ele><time>2026-04-18T12:07:22.622Z</time></trkpt><trkpt lat="45.5723742" lon="10.4897646"><ele>317.0</ele><time>2026-04-18T12:07:23.623Z</time></trkpt><trkpt lat="45.5723278" lon="10.4898409"><ele>316.0</ele><time>2026-04-18T12:07:24.621Z</time></trkpt><trkpt lat="45.5722837" lon="10.4899195"><ele>315.0</ele><time>2026-04-18T12:07:25.621Z</time></trkpt><trkpt lat="45.5722431" lon="10.490005"><ele>315.0</ele><time>2026-04-18T12:07:26.621Z</time></trkpt><trkpt lat="45.5721942" lon="10.4901502"><ele>315.0</ele><time>2026-04-18T12:07:28.623Z</time></trkpt><trkpt lat="45.5721579" lon="10.4902426"><ele>315.0</ele><time>2026-04-18T12:07:30.621Z</time></trkpt><trkpt lat="45.5721019" lon="10.4903411"><ele>315.0</ele><time>2026-04-18T12:07:32.621Z</time></trkpt><trkpt lat="45.5720399" lon="10.4903255"><ele>315.0</ele><time>2026-04-18T12:07:36.621Z</time></trkpt><trkpt lat="45.571985" lon="10.4902354"><ele>315.0</ele><time>2026-04-18T12:07:42.62Z</time></trkpt><trkpt lat="45.5719124" lon="10.4901362"><ele>314.6666666666667</ele><time>2026-04-18T12:07:44.621Z</time></trkpt><trkpt lat="45.5718658" lon="10.4900667"><ele>314.3333333333333</ele><time>2026-04-18T12:07:45.621Z</time></trkpt><trkpt lat="45.5718113" lon="10.4900004"><ele>314.0</ele><time>2026-04-18T12:07:46.622Z</time></trkpt><trkpt lat="45.5717625" lon="10.4899098"><ele>313.66666666666663</ele><time>2026-04-18T12:07:47.621Z</time></trkpt><trkpt lat="45.5717133" lon="10.4898199"><ele>313.3333333333333</ele><time>2026-04-18T12:07:48.621Z</time></trkpt><trkpt lat="45.5716655" lon="10.4897133"><ele>313.0</ele><time>2026-04-18T12:07:49.622Z</time></trkpt><trkpt lat="45.5716186" lon="10.4896274"><ele>315.8333333333333</ele><time>2026-04-18T12:07:50.621Z</time></trkpt><trkpt lat="45.5715724" lon="10.4895463"><ele>318.66666666666663</ele><time>2026-04-18T12:07:51.621Z</time></trkpt><trkpt lat="45.5715274" lon="10.4894569"><ele>321.5</ele><time>2026-04-18T12:07:52.622Z</time></trkpt><trkpt lat="45.5714905" lon="10.4893679"><ele>324.3333333333333</ele><time>2026-04-18T12:07:53.622Z</time></trkpt><trkpt lat="45.5714066" lon="10.4892422"><ele>327.1666666666667</ele><time>2026-04-18T12:07:55.621Z</time></trkpt><trkpt lat="45.5713661" lon="10.4891548"><ele>330.0</ele><time>2026-04-18T12:07:56.621Z</time></trkpt><trkpt lat="45.5712968" lon="10.4890374"><ele>330.0</ele><time>2026-04-18T12:07:58.621Z</time></trkpt><trkpt lat="45.5712321" lon="10.4889943"><ele>330.0</ele><time>2026-04-18T12:07:59.621Z</time></trkpt><trkpt lat="45.5711303" lon="10.4889164"><ele>330.0</ele><time>2026-04-18T12:08:01.621Z</time></trkpt><trkpt lat="45.5710383" lon="10.4888397"><ele>330.0</ele><time>2026-04-18T12:08:03.622Z</time></trkpt><trkpt lat="45.5709371" lon="10.488783"><ele>330.0</ele><time>2026-04-18T12:08:05.62Z</time></trkpt><trkpt lat="45.570846" lon="10.4887202"><ele>331.8</ele><time>2026-04-18T12:08:07.62Z</time></trkpt><trkpt lat="45.5707405" lon="10.4886508"><ele>333.6</ele><time>2026-04-18T12:08:09.621Z</time></trkpt><trkpt lat="45.5706748" lon="10.4886352"><ele>335.4</ele><time>2026-04-18T12:08:10.622Z</time></trkpt><trkpt lat="45.5706053" lon="10.4886393"><ele>337.2</ele><time>2026-04-18T12:08:11.621Z</time></trkpt><trkpt lat="45.5704795" lon="10.4885775"><ele>339.0</ele><time>2026-04-18T12:08:13.622Z</time></trkpt><trkpt lat="45.5703994" lon="10.4885234"><ele>336.1666666666667</ele><time>2026-04-18T12:08:14.621Z</time></trkpt><trkpt lat="45.5703261" lon="10.4884797"><ele>333.3333333333333</ele><time>2026-04-18T12:08:15.621Z</time></trkpt><trkpt lat="45.5702665" lon="10.4884224"><ele>330.5</ele><time>2026-04-18T12:08:16.621Z</time></trkpt><trkpt lat="45.5702059" lon="10.4883927"><ele>327.66666666666663</ele><time>2026-04-18T12:08:17.621Z</time></trkpt><trkpt lat="45.5701506" lon="10.4883087"><ele>324.8333333333333</ele><time>2026-04-18T12:08:19.62Z</time></trkpt><trkpt lat="45.5701155" lon="10.4881823"><ele>322.0</ele><time>2026-04-18T12:08:21.62Z</time></trkpt><trkpt lat="45.5700764" lon="10.4880692"><ele>322.0</ele><time>2026-04-18T12:08:22.62Z</time></trkpt><trkpt lat="45.5700453" lon="10.4879525"><ele>322.0</ele><time>2026-04-18T12:08:23.621Z</time></trkpt><trkpt lat="45.5699803" lon="10.4877898"><ele>322.0</ele><time>2026-04-18T12:08:25.62Z</time></trkpt><trkpt lat="45.5699363" lon="10.4876966"><ele>322.0</ele><time>2026-04-18T12:08:26.62Z</time></trkpt><trkpt lat="45.5698872" lon="10.4876068"><ele>322.0</ele><time>2026-04-18T12:08:27.621Z</time></trkpt><trkpt lat="45.5698475" lon="10.4875308"><ele>322.0</ele><time>2026-04-18T12:08:28.622Z</time></trkpt><trkpt lat="45.5697892" lon="10.4874634"><ele>322.0</ele><time>2026-04-18T12:08:29.62Z</time></trkpt><trkpt lat="45.5696961" lon="10.4874508"><ele>322.0</ele><time>2026-04-18T12:08:30.621Z</time></trkpt><trkpt lat="45.5696058" lon="10.4874055"><ele>322.0</ele><time>2026-04-18T12:08:31.621Z</time></trkpt><trkpt lat="45.5695266" lon="10.4873976"><ele>322.0</ele><time>2026-04-18T12:08:32.62Z</time></trkpt><trkpt lat="45.5694317" lon="10.4873819"><ele>322.0</ele><time>2026-04-18T12:08:34.621Z</time></trkpt><trkpt lat="45.5693264" lon="10.4873174"><ele>322.0</ele><time>2026-04-18T12:08:36.62Z</time></trkpt><trkpt lat="45.5692353" lon="10.4872509"><ele>322.0</ele><time>2026-04-18T12:08:38.62Z</time></trkpt><trkpt lat="45.5691052" lon="10.4872569"><ele>322.0</ele><time>2026-04-18T12:09:04.621Z</time></trkpt><trkpt lat="45.5690458" lon="10.487214"><ele>322.0</ele><time>2026-04-18T12:09:05.622Z</time></trkpt><trkpt lat="45.5689932" lon="10.4871505"><ele>322.0</ele><time>2026-04-18T12:09:06.62Z</time></trkpt><trkpt lat="45.5689478" lon="10.4870741"><ele>322.0</ele><time>2026-04-18T12:09:07.619Z</time></trkpt><trkpt lat="45.5689169" lon="10.4869784"><ele>322.66666666666663</ele><time>2026-04-18T12:09:08.62Z</time></trkpt><trkpt lat="45.5688833" lon="10.4868951"><ele>323.3333333333333</ele><time>2026-04-18T12:09:09.621Z</time></trkpt><trkpt lat="45.5688554" lon="10.4868113"><ele>324.0</ele><time>2026-04-18T12:09:10.62Z</time></trkpt><trkpt lat="45.5687977" lon="10.4866586"><ele>324.6666666666667</ele><time>2026-04-18T12:09:12.621Z</time></trkpt><trkpt lat="45.5687155" lon="10.4865311"><ele>325.33333333333337</ele><time>2026-04-18T12:09:14.62Z</time></trkpt><trkpt lat="45.5686782" lon="10.4864577"><ele>326.0</ele><time>2026-04-18T12:09:15.621Z</time></trkpt><trkpt lat="45.5686455" lon="10.486367"><ele>326.0</ele><time>2026-04-18T12:09:16.621Z</time></trkpt><trkpt lat="45.5686166" lon="10.4862817"><ele>326.0</ele><time>2026-04-18T12:09:17.622Z</time></trkpt><trkpt lat="45.5685916" lon="10.486189"><ele>326.0</ele><time>2026-04-18T12:09:18.621Z</time></trkpt><trkpt lat="45.5685626" lon="10.4861033"><ele>326.0</ele><time>2026-04-18T12:09:19.621Z</time></trkpt><trkpt lat="45.5685331" lon="10.4860222"><ele>326.0</ele><time>2026-04-18T12:09:20.62Z</time></trkpt><trkpt lat="45.5685135" lon="10.4859286"><ele>326.0</ele><time>2026-04-18T12:09:21.621Z</time></trkpt><trkpt lat="45.568493" lon="10.4858391"><ele>326.0</ele><time>2026-04-18T12:09:22.62Z</time></trkpt><trkpt lat="45.5684346" lon="10.4856725"><ele>327.33333333333337</ele><time>2026-04-18T12:09:24.621Z</time></trkpt><trkpt lat="45.5683963" lon="10.4855878"><ele>328.6666666666667</ele><time>2026-04-18T12:09:25.621Z</time></trkpt><trkpt lat="45.5683212" lon="10.4854463"><ele>330.0</ele><time>2026-04-18T12:09:27.621Z</time></trkpt><trkpt lat="45.5682931" lon="10.4853458"><ele>331.3333333333333</ele><time>2026-04-18T12:09:28.62Z</time></trkpt><trkpt lat="45.5682713" lon="10.4852509"><ele>332.66666666666663</ele><time>2026-04-18T12:09:29.621Z</time></trkpt><trkpt lat="45.568247" lon="10.4851465"><ele>334.0</ele><time>2026-04-18T12:09:30.622Z</time></trkpt><trkpt lat="45.568227" lon="10.4850484"><ele>334.7142857142857</ele><time>2026-04-18T12:09:31.62Z</time></trkpt><trkpt lat="45.5682102" lon="10.4849538"><ele>335.42857142857144</ele><time>2026-04-18T12:09:32.62Z</time></trkpt><trkpt lat="45.5681788" lon="10.4848633"><ele>336.1428571428571</ele><time>2026-04-18T12:09:33.621Z</time></trkpt><trkpt lat="45.5681529" lon="10.4847693"><ele>336.8571428571429</ele><time>2026-04-18T12:09:34.619Z</time></trkpt><trkpt lat="45.568129" lon="10.4846718"><ele>337.5714285714286</ele><time>2026-04-18T12:09:35.619Z</time></trkpt><trkpt lat="45.5680992" lon="10.4845652"><ele>338.2857142857143</ele><time>2026-04-18T12:09:36.622Z</time></trkpt><trkpt lat="45.5680814" lon="10.484468"><ele>339.0</ele><time>2026-04-18T12:09:37.62Z</time></trkpt><trkpt lat="45.5680444" lon="10.4843724"><ele>339.4</ele><time>2026-04-18T12:09:38.621Z</time></trkpt><trkpt lat="45.5679771" lon="10.4842392"><ele>339.79999999999995</ele><time>2026-04-18T12:09:40.621Z</time></trkpt><trkpt lat="45.5678914" lon="10.4841591"><ele>340.20000000000005</ele><time>2026-04-18T12:09:42.62Z</time></trkpt><trkpt lat="45.5679189" lon="10.4842854"><ele>340.6</ele><time>2026-04-18T12:09:48.622Z</time></trkpt><trkpt lat="45.5679728" lon="10.4843499"><ele>341.0</ele><time>2026-04-18T12:09:49.62Z</time></trkpt><trkpt lat="45.5679691" lon="10.4844537"><ele>341.0</ele><time>2026-04-18T12:09:51.623Z</time></trkpt><trkpt lat="45.56789" lon="10.4845507"><ele>341.0</ele><time>2026-04-18T12:09:53.622Z</time></trkpt><trkpt lat="45.5677693" lon="10.4846463"><ele>341.0</ele><time>2026-04-18T12:09:55.622Z</time></trkpt><trkpt lat="45.5676486" lon="10.4846702"><ele>341.0</ele><time>2026-04-18T12:09:56.622Z</time></trkpt><trkpt lat="45.5675607" lon="10.4846953"><ele>339.83333333333337</ele><time>2026-04-18T12:09:57.622Z</time></trkpt><trkpt lat="45.5675045" lon="10.4847866"><ele>338.6666666666667</ele><time>2026-04-18T12:09:58.622Z</time></trkpt><trkpt lat="45.5674534" lon="10.4848424"><ele>337.5</ele><time>2026-04-18T12:09:59.62Z</time></trkpt><trkpt lat="45.5673702" lon="10.4848881"><ele>336.3333333333333</ele><time>2026-04-18T12:10:00.62Z</time></trkpt><trkpt lat="45.5672996" lon="10.4849279"><ele>335.16666666666663</ele><time>2026-04-18T12:10:01.62Z</time></trkpt><trkpt lat="45.5672272" lon="10.4849647"><ele>334.0</ele><time>2026-04-18T12:10:02.62Z</time></trkpt><trkpt lat="45.5671639" lon="10.4849896"><ele>334.0</ele><time>2026-04-18T12:10:03.621Z</time></trkpt><trkpt lat="45.5670604" lon="10.4850283"><ele>334.0</ele><time>2026-04-18T12:10:05.62Z</time></trkpt><trkpt lat="45.5669442" lon="10.4850332"><ele>334.0</ele><time>2026-04-18T12:10:07.62Z</time></trkpt><trkpt lat="45.5668271" lon="10.4850051"><ele>334.0</ele><time>2026-04-18T12:10:09.621Z</time></trkpt><trkpt lat="45.5667036" lon="10.4850851"><ele>334.16666666666663</ele><time>2026-04-18T12:10:11.622Z</time></trkpt><trkpt lat="45.5666334" lon="10.4851409"><ele>334.3333333333333</ele><time>2026-04-18T12:10:12.622Z</time></trkpt><trkpt lat="45.5665735" lon="10.4851806"><ele>334.5</ele><time>2026-04-18T12:10:13.621Z</time></trkpt><trkpt lat="45.5665091" lon="10.4851926"><ele>334.6666666666667</ele><time>2026-04-18T12:10:14.62Z</time></trkpt><trkpt lat="45.5664005" lon="10.4851938"><ele>334.83333333333337</ele><time>2026-04-18T12:10:16.622Z</time></trkpt><trkpt lat="45.5663288" lon="10.4852209"><ele>335.0</ele><time>2026-04-18T12:10:19.62Z</time></trkpt><trkpt lat="45.5662256" lon="10.4851777"><ele>335.6666666666667</ele><time>2026-04-18T12:10:21.621Z</time></trkpt><trkpt lat="45.566123" lon="10.4851559"><ele>336.33333333333337</ele><time>2026-04-18T12:10:23.619Z</time></trkpt><trkpt lat="45.566071" lon="10.4852175"><ele>337.0</ele><time>2026-04-18T12:10:24.622Z</time></trkpt><trkpt lat="45.5660171" lon="10.4852678"><ele>337.6666666666667</ele><time>2026-04-18T12:10:25.62Z</time></trkpt><trkpt lat="45.5659671" lon="10.4853298"><ele>338.3333333333333</ele><time>2026-04-18T12:10:26.621Z</time></trkpt><trkpt lat="45.5659179" lon="10.4854013"><ele>339.0</ele><time>2026-04-18T12:10:27.619Z</time></trkpt><trkpt lat="45.5658221" lon="10.4854987"><ele>334.4</ele><time>2026-04-18T12:10:29.62Z</time></trkpt><trkpt lat="45.5657314" lon="10.4855253"><ele>329.79999999999995</ele><time>2026-04-18T12:10:31.621Z</time></trkpt><trkpt lat="45.5656534" lon="10.4855283"><ele>325.20000000000005</ele><time>2026-04-18T12:10:32.62Z</time></trkpt><trkpt lat="45.565549" lon="10.4855383"><ele>320.6</ele><time>2026-04-18T12:10:34.621Z</time></trkpt><trkpt lat="45.565454" lon="10.4855907"><ele>316.0</ele><time>2026-04-18T12:10:36.62Z</time></trkpt><trkpt lat="45.5653667" lon="10.4856129"><ele>316.40000000000003</ele><time>2026-04-18T12:10:39.621Z</time></trkpt><trkpt lat="45.5653008" lon="10.4856888"><ele>316.8</ele><time>2026-04-18T12:10:42.621Z</time></trkpt><trkpt lat="45.5652114" lon="10.4857837"><ele>317.20000000000005</ele><time>2026-04-18T12:10:45.621Z</time></trkpt><trkpt lat="45.5651282" lon="10.4858332"><ele>317.6</ele><time>2026-04-18T12:10:47.622Z</time></trkpt><trkpt lat="45.5650495" lon="10.4859106"><ele>318.0</ele><time>2026-04-18T12:10:49.622Z</time></trkpt><trkpt lat="45.5649858" lon="10.4859909"><ele>318.0</ele><time>2026-04-18T12:10:52.621Z</time></trkpt><trkpt lat="45.5649425" lon="10.4860817"><ele>318.0</ele><time>2026-04-18T12:10:54.62Z</time></trkpt><trkpt lat="45.5648903" lon="10.4862086"><ele>318.0</ele><time>2026-04-18T12:10:56.621Z</time></trkpt><trkpt lat="45.5648434" lon="10.4863286"><ele>318.0</ele><time>2026-04-18T12:10:58.621Z</time></trkpt><trkpt lat="45.5647824" lon="10.4864602"><ele>318.0</ele><time>2026-04-18T12:11:00.621Z</time></trkpt><trkpt lat="45.5647504" lon="10.4865625"><ele>314.6</ele><time>2026-04-18T12:11:02.62Z</time></trkpt><trkpt lat="45.5646838" lon="10.4866208"><ele>311.20000000000005</ele><time>2026-04-18T12:11:09.62Z</time></trkpt><trkpt lat="45.5646082" lon="10.4866126"><ele>307.8</ele><time>2026-04-18T12:11:11.621Z</time></trkpt><trkpt lat="45.5645045" lon="10.4866269"><ele>304.40000000000003</ele><time>2026-04-18T12:11:13.621Z</time></trkpt><trkpt lat="45.5643793" lon="10.486583"><ele>301.0</ele><time>2026-04-18T12:11:14.621Z</time></trkpt><trkpt lat="45.5642916" lon="10.4865538"><ele>301.0</ele><time>2026-04-18T12:11:15.62Z</time></trkpt><trkpt lat="45.5641716" lon="10.486592"><ele>301.0</ele><time>2026-04-18T12:11:16.621Z</time></trkpt><trkpt lat="45.5640774" lon="10.4866274"><ele>301.0</ele><time>2026-04-18T12:11:17.62Z</time></trkpt><trkpt lat="45.5639934" lon="10.4866591"><ele>301.0</ele><time>2026-04-18T12:11:18.621Z</time></trkpt><trkpt lat="45.5639296" lon="10.4866957"><ele>301.0</ele><time>2026-04-18T12:11:19.622Z</time></trkpt><trkpt lat="45.5638488" lon="10.4867299"><ele>301.0</ele><time>2026-04-18T12:11:20.62Z</time></trkpt><trkpt lat="45.5637688" lon="10.4867552"><ele>301.0</ele><time>2026-04-18T12:11:21.62Z</time></trkpt><trkpt lat="45.5636725" lon="10.4867502"><ele>301.0</ele><time>2026-04-18T12:11:22.619Z</time></trkpt><trkpt lat="45.5635971" lon="10.486774"><ele>301.0</ele><time>2026-04-18T12:11:23.62Z</time></trkpt><trkpt lat="45.5635145" lon="10.4868198"><ele>301.0</ele><time>2026-04-18T12:11:24.62Z</time></trkpt><trkpt lat="45.5634019" lon="10.4869171"><ele>300.2</ele><time>2026-04-18T12:11:25.621Z</time></trkpt><trkpt lat="45.5633283" lon="10.4870439"><ele>299.40000000000003</ele><time>2026-04-18T12:11:26.619Z</time></trkpt><trkpt lat="45.5632439" lon="10.4871908"><ele>298.6</ele><time>2026-04-18T12:11:28.619Z</time></trkpt><trkpt lat="45.5632484" lon="10.4873015"><ele>297.8</ele><time>2026-04-18T12:11:29.623Z</time></trkpt><trkpt lat="45.5632146" lon="10.4874282"><ele>297.0</ele><time>2026-04-18T12:11:30.62Z</time></trkpt><trkpt lat="45.5631769" lon="10.4875513"><ele>297.0</ele><time>2026-04-18T12:11:31.619Z</time></trkpt><trkpt lat="45.5631347" lon="10.4876733"><ele>297.0</ele><time>2026-04-18T12:11:32.622Z</time></trkpt><trkpt lat="45.5630533" lon="10.4877435"><ele>297.0</ele><time>2026-04-18T12:11:33.621Z</time></trkpt><trkpt lat="45.5629865" lon="10.4878363"><ele>297.0</ele><time>2026-04-18T12:11:34.62Z</time></trkpt><trkpt lat="45.5629576" lon="10.4879702"><ele>297.0</ele><time>2026-04-18T12:11:35.621Z</time></trkpt><trkpt lat="45.5629384" lon="10.4880695"><ele>295.8333333333333</ele><time>2026-04-18T12:11:36.62Z</time></trkpt><trkpt lat="45.5629047" lon="10.4881824"><ele>294.6666666666667</ele><time>2026-04-18T12:11:37.62Z</time></trkpt><trkpt lat="45.5628693" lon="10.4883211"><ele>293.5</ele><time>2026-04-18T12:11:38.621Z</time></trkpt><trkpt lat="45.5628298" lon="10.4884343"><ele>292.33333333333337</ele><time>2026-04-18T12:11:39.621Z</time></trkpt><trkpt lat="45.5627991" lon="10.4885358"><ele>291.1666666666667</ele><time>2026-04-18T12:11:40.619Z</time></trkpt><trkpt lat="45.5627855" lon="10.4886437"><ele>290.0</ele><time>2026-04-18T12:11:41.621Z</time></trkpt><trkpt lat="45.5627754" lon="10.4887405"><ele>292.8</ele><time>2026-04-18T12:11:42.62Z</time></trkpt><trkpt lat="45.5627064" lon="10.4889882"><ele>295.6</ele><time>2026-04-18T12:11:44.619Z</time></trkpt><trkpt lat="45.5626704" lon="10.489128"><ele>298.4</ele><time>2026-04-18T12:11:45.62Z</time></trkpt><trkpt lat="45.5626707" lon="10.4892423"><ele>301.2</ele><time>2026-04-18T12:11:46.62Z</time></trkpt><trkpt lat="45.5626422" lon="10.4893401"><ele>304.0</ele><time>2026-04-18T12:11:47.619Z</time></trkpt><trkpt lat="45.5626255" lon="10.4894593"><ele>302.59999999999997</ele><time>2026-04-18T12:11:48.621Z</time></trkpt><trkpt lat="45.5626169" lon="10.4895925"><ele>301.2</ele><time>2026-04-18T12:11:49.62Z</time></trkpt><trkpt lat="45.5626129" lon="10.4896854"><ele>299.79999999999995</ele><time>2026-04-18T12:11:50.62Z</time></trkpt><trkpt lat="45.5625675" lon="10.4898459"><ele>298.4</ele><time>2026-04-18T12:11:52.62Z</time></trkpt><trkpt lat="45.5625457" lon="10.4899342"><ele>297.0</ele><time>2026-04-18T12:11:53.62Z</time></trkpt><trkpt lat="45.5624736" lon="10.4900415"><ele>297.0</ele><time>2026-04-18T12:11:55.622Z</time></trkpt><trkpt lat="45.5624034" lon="10.4901163"><ele>297.0</ele><time>2026-04-18T12:11:56.621Z</time></trkpt><trkpt lat="45.5623315" lon="10.4901932"><ele>297.0</ele><time>2026-04-18T12:11:57.621Z</time></trkpt><trkpt lat="45.5622482" lon="10.4902447"><ele>297.0</ele><time>2026-04-18T12:11:58.62Z</time></trkpt><trkpt lat="45.5621458" lon="10.4902963"><ele>297.0</ele><time>2026-04-18T12:11:59.621Z</time></trkpt><trkpt lat="45.5620686" lon="10.4903552"><ele>296.2</ele><time>2026-04-18T12:12:00.619Z</time></trkpt><trkpt lat="45.561982" lon="10.4904335"><ele>295.4</ele><time>2026-04-18T12:12:01.622Z</time></trkpt><trkpt lat="45.5619045" lon="10.490517"><ele>294.6</ele><time>2026-04-18T12:12:02.62Z</time></trkpt><trkpt lat="45.5618356" lon="10.4906082"><ele>293.8</ele><time>2026-04-18T12:12:04.62Z</time></trkpt><trkpt lat="45.5617576" lon="10.4905916"><ele>293.0</ele><time>2026-04-18T12:12:05.62Z</time></trkpt><trkpt lat="45.5616449" lon="10.4906022"><ele>293.0</ele><time>2026-04-18T12:12:07.622Z</time></trkpt><trkpt lat="45.5614925" lon="10.4905938"><ele>293.0</ele><time>2026-04-18T12:12:09.62Z</time></trkpt><trkpt lat="45.5613911" lon="10.4906048"><ele>293.0</ele><time>2026-04-18T12:12:10.62Z</time></trkpt><trkpt lat="45.5613092" lon="10.4906127"><ele>293.0</ele><time>2026-04-18T12:12:11.621Z</time></trkpt><trkpt lat="45.5612359" lon="10.4906257"><ele>293.0</ele><time>2026-04-18T12:12:12.621Z</time></trkpt><trkpt lat="45.5611623" lon="10.4906027"><ele>292.1666666666667</ele><time>2026-04-18T12:12:13.62Z</time></trkpt><trkpt lat="45.5610983" lon="10.490589"><ele>291.33333333333337</ele><time>2026-04-18T12:12:14.62Z</time></trkpt><trkpt lat="45.5610296" lon="10.4905676"><ele>290.5</ele><time>2026-04-18T12:12:15.62Z</time></trkpt><trkpt lat="45.5609571" lon="10.4904688"><ele>289.6666666666667</ele><time>2026-04-18T12:12:17.621Z</time></trkpt><trkpt lat="45.5608532" lon="10.4903679"><ele>288.8333333333333</ele><time>2026-04-18T12:12:19.62Z</time></trkpt><trkpt lat="45.5607851" lon="10.4903216"><ele>288.0</ele><time>2026-04-18T12:12:20.62Z</time></trkpt><trkpt lat="45.5607237" lon="10.4902749"><ele>288.5</ele><time>2026-04-18T12:12:21.619Z</time></trkpt><trkpt lat="45.5607165" lon="10.4901763"><ele>289.0</ele><time>2026-04-18T12:12:22.621Z</time></trkpt><trkpt lat="45.560657" lon="10.4900268"><ele>289.5</ele><time>2026-04-18T12:12:24.621Z</time></trkpt><trkpt lat="45.5605954" lon="10.4900518"><ele>290.0</ele><time>2026-04-18T12:12:25.621Z</time></trkpt><trkpt lat="45.5605095" lon="10.4900988"><ele>290.5</ele><time>2026-04-18T12:12:27.62Z</time></trkpt><trkpt lat="45.5604316" lon="10.4901864"><ele>291.0</ele><time>2026-04-18T12:12:29.62Z</time></trkpt><trkpt lat="45.5603226" lon="10.4901571"><ele>291.0</ele><time>2026-04-18T12:12:31.62Z</time></trkpt><trkpt lat="45.5602424" lon="10.4900928"><ele>291.0</ele><time>2026-04-18T12:12:32.62Z</time></trkpt><trkpt lat="45.5602178" lon="10.4899782"><ele>291.0</ele><time>2026-04-18T12:12:33.621Z</time></trkpt><trkpt lat="45.5601799" lon="10.4898957"><ele>291.0</ele><time>2026-04-18T12:12:34.62Z</time></trkpt><trkpt lat="45.5601341" lon="10.4898269"><ele>291.0</ele><time>2026-04-18T12:12:35.621Z</time></trkpt><trkpt lat="45.5600512" lon="10.4897146"><ele>291.0</ele><time>2026-04-18T12:12:37.62Z</time></trkpt><trkpt lat="45.559941" lon="10.4896932"><ele>291.0</ele><time>2026-04-18T12:12:39.621Z</time></trkpt><trkpt lat="45.5598747" lon="10.4896748"><ele>291.0</ele><time>2026-04-18T12:12:40.62Z</time></trkpt><trkpt lat="45.5598149" lon="10.4897088"><ele>291.0</ele><time>2026-04-18T12:12:41.621Z</time></trkpt><trkpt lat="45.5597268" lon="10.4897341"><ele>291.0</ele><time>2026-04-18T12:12:43.621Z</time></trkpt><trkpt lat="45.5596443" lon="10.4898408"><ele>291.0</ele><time>2026-04-18T12:12:45.619Z</time></trkpt><trkpt lat="45.5595657" lon="10.4898829"><ele>291.0</ele><time>2026-04-18T12:12:47.62Z</time></trkpt><trkpt lat="45.5594604" lon="10.4898592"><ele>291.1666666666667</ele><time>2026-04-18T12:12:49.62Z</time></trkpt><trkpt lat="45.5593989" lon="10.489747"><ele>291.3333333333333</ele><time>2026-04-18T12:12:51.621Z</time></trkpt><trkpt lat="45.5593457" lon="10.4896658"><ele>291.5</ele><time>2026-04-18T12:12:52.62Z</time></trkpt><trkpt lat="45.5592537" lon="10.4896275"><ele>291.66666666666663</ele><time>2026-04-18T12:12:54.621Z</time></trkpt><trkpt lat="45.5591982" lon="10.4895791"><ele>291.8333333333333</ele><time>2026-04-18T12:12:55.621Z</time></trkpt><trkpt lat="45.559156" lon="10.4894836"><ele>292.0</ele><time>2026-04-18T12:12:56.62Z</time></trkpt><trkpt lat="45.5590687" lon="10.4893707"><ele>292.0</ele><time>2026-04-18T12:12:58.619Z</time></trkpt><trkpt lat="45.558977" lon="10.4893189"><ele>292.0</ele><time>2026-04-18T12:13:00.619Z</time></trkpt><trkpt lat="45.5588729" lon="10.4893647"><ele>292.0</ele><time>2026-04-18T12:13:02.621Z</time></trkpt><trkpt lat="45.5587611" lon="10.4893684"><ele>292.0</ele><time>2026-04-18T12:13:04.62Z</time></trkpt><trkpt lat="45.5586513" lon="10.4893233"><ele>292.0</ele><time>2026-04-18T12:13:06.619Z</time></trkpt><trkpt lat="45.5585905" lon="10.4892735"><ele>290.16666666666663</ele><time>2026-04-18T12:13:07.621Z</time></trkpt><trkpt lat="45.558526" lon="10.4892061"><ele>288.3333333333333</ele><time>2026-04-18T12:13:08.62Z</time></trkpt><trkpt lat="45.5584487" lon="10.4891378"><ele>286.5</ele><time>2026-04-18T12:13:09.621Z</time></trkpt><trkpt lat="45.5583781" lon="10.4890739"><ele>284.6666666666667</ele><time>2026-04-18T12:13:10.62Z</time></trkpt><trkpt lat="45.5583087" lon="10.4890146"><ele>282.83333333333337</ele><time>2026-04-18T12:13:11.621Z</time></trkpt><trkpt lat="45.5582346" lon="10.4889594"><ele>281.0</ele><time>2026-04-18T12:13:12.621Z</time></trkpt><trkpt lat="45.5581584" lon="10.4889727"><ele>281.00000000000006</ele><time>2026-04-18T12:13:13.619Z</time></trkpt><trkpt lat="45.558087" lon="10.4889757"><ele>281.0</ele><time>2026-04-18T12:13:14.62Z</time></trkpt><trkpt lat="45.5580127" lon="10.4889758"><ele>281.0</ele><time>2026-04-18T12:13:15.62Z</time></trkpt><trkpt lat="45.5579328" lon="10.4889694"><ele>281.0</ele><time>2026-04-18T12:13:16.621Z</time></trkpt><trkpt lat="45.5578666" lon="10.4889191"><ele>281.0</ele><time>2026-04-18T12:13:17.62Z</time></trkpt><trkpt lat="45.5577976" lon="10.4888946"><ele>281.00000000000006</ele><time>2026-04-18T12:13:18.62Z</time></trkpt><trkpt lat="45.5577217" lon="10.4888869"><ele>281.0</ele><time>2026-04-18T12:13:19.619Z</time></trkpt><trkpt lat="45.5576481" lon="10.4888847"><ele>280.0</ele><time>2026-04-18T12:13:20.62Z</time></trkpt><trkpt lat="45.5575747" lon="10.4888655"><ele>279.0</ele><time>2026-04-18T12:13:21.62Z</time></trkpt><trkpt lat="45.5574591" lon="10.4888619"><ele>278.0</ele><time>2026-04-18T12:13:23.62Z</time></trkpt><trkpt lat="45.5574312" lon="10.488943"><ele>277.0</ele><time>2026-04-18T12:13:25.62Z</time></trkpt><trkpt lat="45.5573951" lon="10.489048"><ele>276.0</ele><time>2026-04-18T12:13:37.619Z</time></trkpt><trkpt lat="45.5573429" lon="10.4891658"><ele>275.0</ele><time>2026-04-18T12:13:39.62Z</time></trkpt><trkpt lat="45.5572985" lon="10.4890652"><ele>275.0</ele><time>2026-04-18T12:13:40.62Z</time></trkpt><trkpt lat="45.557239" lon="10.4889981"><ele>275.0</ele><time>2026-04-18T12:13:42.62Z</time></trkpt><trkpt lat="45.557175" lon="10.4889869"><ele>275.0</ele><time>2026-04-18T12:13:51.62Z</time></trkpt><trkpt lat="45.5570885" lon="10.4889988"><ele>275.0</ele><time>2026-04-18T12:13:54.621Z</time></trkpt><trkpt lat="45.5570268" lon="10.4889602"><ele>275.0</ele><time>2026-04-18T12:13:56.621Z</time></trkpt><trkpt lat="45.5569609" lon="10.4889036"><ele>275.0</ele><time>2026-04-18T12:13:58.621Z</time></trkpt><trkpt lat="45.5568818" lon="10.4888579"><ele>275.6</ele><time>2026-04-18T12:14:00.621Z</time></trkpt><trkpt lat="45.5568134" lon="10.4888183"><ele>276.2</ele><time>2026-04-18T12:14:02.62Z</time></trkpt><trkpt lat="45.5567201" lon="10.4887877"><ele>276.8</ele><time>2026-04-18T12:14:04.62Z</time></trkpt><trkpt lat="45.5566169" lon="10.4887416"><ele>277.4</ele><time>2026-04-18T12:14:06.62Z</time></trkpt><trkpt lat="45.5565377" lon="10.4886055"><ele>278.0</ele><time>2026-04-18T12:14:08.621Z</time></trkpt><trkpt lat="45.5564838" lon="10.4884884"><ele>278.0</ele><time>2026-04-18T12:14:10.621Z</time></trkpt><trkpt lat="45.5564088" lon="10.4883627"><ele>278.0</ele><time>2026-04-18T12:14:12.62Z</time></trkpt><trkpt lat="45.556353" lon="10.4882989"><ele>278.0</ele><time>2026-04-18T12:14:13.62Z</time></trkpt><trkpt lat="45.5562813" lon="10.4882766"><ele>278.0</ele><time>2026-04-18T12:14:14.62Z</time></trkpt><trkpt lat="45.5562184" lon="10.4882411"><ele>278.0</ele><time>2026-04-18T12:14:15.62Z</time></trkpt><trkpt lat="45.5561486" lon="10.4881974"><ele>278.0</ele><time>2026-04-18T12:14:16.621Z</time></trkpt><trkpt lat="45.5560446" lon="10.4881162"><ele>279.0</ele><time>2026-04-18T12:14:18.62Z</time></trkpt><trkpt lat="45.5559749" lon="10.4880847"><ele>280.0</ele><time>2026-04-18T12:14:19.62Z</time></trkpt><trkpt lat="45.5559004" lon="10.4880521"><ele>281.0</ele><time>2026-04-18T12:14:20.619Z</time></trkpt><trkpt lat="45.5558349" lon="10.4880178"><ele>282.0</ele><time>2026-04-18T12:14:21.619Z</time></trkpt><trkpt lat="45.5557229" lon="10.4879509"><ele>283.0</ele><time>2026-04-18T12:14:23.62Z</time></trkpt><trkpt lat="45.5556685" lon="10.487891"><ele>284.0</ele><time>2026-04-18T12:14:25.621Z</time></trkpt><trkpt lat="45.555598" lon="10.4877974"><ele>284.0</ele><time>2026-04-18T12:14:27.62Z</time></trkpt><trkpt lat="45.5556219" lon="10.4876831"><ele>284.0</ele><time>2026-04-18T12:14:30.62Z</time></trkpt><trkpt lat="45.5555778" lon="10.4876099"><ele>284.0</ele><time>2026-04-18T12:14:33.62Z</time></trkpt><trkpt lat="45.5555054" lon="10.4875501"><ele>284.0</ele><time>2026-04-18T12:14:35.619Z</time></trkpt><trkpt lat="45.555419" lon="10.4874781"><ele>284.0</ele><time>2026-04-18T12:14:37.62Z</time></trkpt><trkpt lat="45.5553685" lon="10.4873764"><ele>284.0</ele><time>2026-04-18T12:14:39.621Z</time></trkpt><trkpt lat="45.5553708" lon="10.4872681"><ele>284.2</ele><time>2026-04-18T12:14:42.62Z</time></trkpt><trkpt lat="45.5553349" lon="10.4871411"><ele>284.4</ele><time>2026-04-18T12:14:44.619Z</time></trkpt><trkpt lat="45.5552719" lon="10.4870225"><ele>284.6</ele><time>2026-04-18T12:14:46.621Z</time></trkpt><trkpt lat="45.5552143" lon="10.4869338"><ele>284.8</ele><time>2026-04-18T12:14:48.619Z</time></trkpt><trkpt lat="45.5551561" lon="10.4868157"><ele>285.0</ele><time>2026-04-18T12:14:50.62Z</time></trkpt><trkpt lat="45.5550876" lon="10.4866735"><ele>285.0</ele><time>2026-04-18T12:14:52.619Z</time></trkpt><trkpt lat="45.5550423" lon="10.4866001"><ele>285.0</ele><time>2026-04-18T12:14:53.619Z</time></trkpt><trkpt lat="45.5550026" lon="10.4865279"><ele>285.0</ele><time>2026-04-18T12:14:54.62Z</time></trkpt><trkpt lat="45.5549224" lon="10.4864155"><ele>285.0</ele><time>2026-04-18T12:14:56.62Z</time></trkpt><trkpt lat="45.5548589" lon="10.4863011"><ele>285.0</ele><time>2026-04-18T12:14:58.621Z</time></trkpt><trkpt lat="45.5548323" lon="10.4861452"><ele>287.8</ele><time>2026-04-18T12:15:00.619Z</time></trkpt><trkpt lat="45.5547862" lon="10.4859974"><ele>290.6</ele><time>2026-04-18T12:15:02.62Z</time></trkpt><trkpt lat="45.5547467" lon="10.4858613"><ele>293.4</ele><time>2026-04-18T12:15:04.62Z</time></trkpt><trkpt lat="45.5547098" lon="10.4857568"><ele>296.2</ele><time>2026-04-18T12:15:06.619Z</time></trkpt><trkpt lat="45.5546668" lon="10.4856217"><ele>299.0</ele><time>2026-04-18T12:15:08.619Z</time></trkpt><trkpt lat="45.5546336" lon="10.4855147"><ele>296.59999999999997</ele><time>2026-04-18T12:15:10.62Z</time></trkpt><trkpt lat="45.5545973" lon="10.4853864"><ele>294.2</ele><time>2026-04-18T12:15:12.62Z</time></trkpt><trkpt lat="45.5545474" lon="10.4852587"><ele>291.79999999999995</ele><time>2026-04-18T12:15:14.62Z</time></trkpt><trkpt lat="45.5545317" lon="10.4851665"><ele>289.4</ele><time>2026-04-18T12:15:15.62Z</time></trkpt><trkpt lat="45.5544723" lon="10.4850181"><ele>287.0</ele><time>2026-04-18T12:15:17.619Z</time></trkpt><trkpt lat="45.5543925" lon="10.4848993"><ele>287.0</ele><time>2026-04-18T12:15:19.62Z</time></trkpt><trkpt lat="45.5543516" lon="10.4848155"><ele>287.0</ele><time>2026-04-18T12:15:20.619Z</time></trkpt><trkpt lat="45.5543085" lon="10.4847376"><ele>287.0</ele><time>2026-04-18T12:15:21.62Z</time></trkpt><trkpt lat="45.5542571" lon="10.484673"><ele>287.0</ele><time>2026-04-18T12:15:22.62Z</time></trkpt><trkpt lat="45.5542146" lon="10.4845802"><ele>287.0</ele><time>2026-04-18T12:15:23.619Z</time></trkpt><trkpt lat="45.554163" lon="10.4844997"><ele>287.0</ele><time>2026-04-18T12:15:24.621Z</time></trkpt><trkpt lat="45.5541141" lon="10.4844234"><ele>287.0</ele><time>2026-04-18T12:15:25.621Z</time></trkpt><trkpt lat="45.554061" lon="10.4843574"><ele>287.0</ele><time>2026-04-18T12:15:26.62Z</time></trkpt><trkpt lat="45.5539978" lon="10.4843268"><ele>287.0</ele><time>2026-04-18T12:15:27.619Z</time></trkpt><trkpt lat="45.5539365" lon="10.484281"><ele>287.0</ele><time>2026-04-18T12:15:28.619Z</time></trkpt><trkpt lat="45.5538743" lon="10.4842383"><ele>287.0</ele><time>2026-04-18T12:15:29.621Z</time></trkpt><trkpt lat="45.5538091" lon="10.4841987"><ele>287.0</ele><time>2026-04-18T12:15:30.62Z</time></trkpt><trkpt lat="45.5537416" lon="10.4841603"><ele>287.0</ele><time>2026-04-18T12:15:31.619Z</time></trkpt><trkpt lat="45.553685" lon="10.4841139"><ele>287.0</ele><time>2026-04-18T12:15:32.619Z</time></trkpt><trkpt lat="45.5535874" lon="10.4840601"><ele>287.0</ele><time>2026-04-18T12:15:34.62Z</time></trkpt><trkpt lat="45.5535006" lon="10.4840159"><ele>287.0</ele><time>2026-04-18T12:15:36.621Z</time></trkpt><trkpt lat="45.553391" lon="10.4840173"><ele>287.0</ele><time>2026-04-18T12:15:38.62Z</time></trkpt><trkpt lat="45.5533281" lon="10.4840298"><ele>287.0</ele><time>2026-04-18T12:15:41.618Z</time></trkpt><trkpt lat="45.5532626" lon="10.4840614"><ele>287.0</ele><time>2026-04-18T12:15:43.621Z</time></trkpt><trkpt lat="45.5532056" lon="10.4840187"><ele>287.0</ele><time>2026-04-18T12:15:45.62Z</time></trkpt><trkpt lat="45.5531055" lon="10.4840307"><ele>287.0</ele><time>2026-04-18T12:15:48.62Z</time></trkpt><trkpt lat="45.5529763" lon="10.484041"><ele>287.0</ele><time>2026-04-18T12:15:50.622Z</time></trkpt><trkpt lat="45.5529221" lon="10.4839697"><ele>287.0</ele><time>2026-04-18T12:15:51.619Z</time></trkpt><trkpt lat="45.5528542" lon="10.4839282"><ele>287.0</ele><time>2026-04-18T12:15:52.619Z</time></trkpt><trkpt lat="45.5527219" lon="10.4838242"><ele>287.0</ele><time>2026-04-18T12:15:54.62Z</time></trkpt><trkpt lat="45.5526678" lon="10.4837486"><ele>286.0</ele><time>2026-04-18T12:15:55.618Z</time></trkpt><trkpt lat="45.5526177" lon="10.4836698"><ele>285.0</ele><time>2026-04-18T12:15:57.618Z</time></trkpt><trkpt lat="45.5525074" lon="10.4835897"><ele>284.0</ele><time>2026-04-18T12:15:59.619Z</time></trkpt><trkpt lat="45.5524002" lon="10.4835017"><ele>283.0</ele><time>2026-04-18T12:16:01.62Z</time></trkpt><trkpt lat="45.5523458" lon="10.4834465"><ele>282.0</ele><time>2026-04-18T12:16:02.62Z</time></trkpt><trkpt lat="45.5523016" lon="10.4833634"><ele>282.0</ele><time>2026-04-18T12:16:03.621Z</time></trkpt><trkpt lat="45.5522479" lon="10.4832868"><ele>282.0</ele><time>2026-04-18T12:16:04.621Z</time></trkpt><trkpt lat="45.5521775" lon="10.483294"><ele>282.0</ele><time>2026-04-18T12:16:05.619Z</time></trkpt><trkpt lat="45.5521132" lon="10.4833378"><ele>282.0</ele><time>2026-04-18T12:16:06.619Z</time></trkpt><trkpt lat="45.5519954" lon="10.4833453"><ele>282.0</ele><time>2026-04-18T12:16:08.62Z</time></trkpt><trkpt lat="45.5518907" lon="10.4832798"><ele>279.8</ele><time>2026-04-18T12:16:10.62Z</time></trkpt><trkpt lat="45.5518139" lon="10.4833565"><ele>277.6</ele><time>2026-04-18T12:16:12.62Z</time></trkpt><trkpt lat="45.5517569" lon="10.483483"><ele>275.40000000000003</ele><time>2026-04-18T12:16:14.62Z</time></trkpt><trkpt lat="45.5516622" lon="10.4834943"><ele>273.2</ele><time>2026-04-18T12:16:16.619Z</time></trkpt><trkpt lat="45.551574" lon="10.4833802"><ele>271.0</ele><time>2026-04-18T12:16:18.619Z</time></trkpt><trkpt lat="45.5515268" lon="10.4832777"><ele>271.0</ele><time>2026-04-18T12:16:20.62Z</time></trkpt><trkpt lat="45.5514659" lon="10.4831924"><ele>271.0</ele><time>2026-04-18T12:16:23.619Z</time></trkpt><trkpt lat="45.5513655" lon="10.4832069"><ele>271.0</ele><time>2026-04-18T12:16:25.62Z</time></trkpt><trkpt lat="45.5513033" lon="10.4832374"><ele>271.0</ele><time>2026-04-18T12:16:26.619Z</time></trkpt><trkpt lat="45.5512411" lon="10.4832854"><ele>271.0</ele><time>2026-04-18T12:16:27.619Z</time></trkpt><trkpt lat="45.5511849" lon="10.4833426"><ele>271.0</ele><time>2026-04-18T12:16:28.62Z</time></trkpt><trkpt lat="45.5511205" lon="10.4833999"><ele>270.40000000000003</ele><time>2026-04-18T12:16:29.619Z</time></trkpt><trkpt lat="45.5510466" lon="10.4834533"><ele>269.8</ele><time>2026-04-18T12:16:30.62Z</time></trkpt><trkpt lat="45.5509725" lon="10.4835146"><ele>269.20000000000005</ele><time>2026-04-18T12:16:31.62Z</time></trkpt><trkpt lat="45.5508883" lon="10.4835733"><ele>268.6</ele><time>2026-04-18T12:16:32.62Z</time></trkpt><trkpt lat="45.5507989" lon="10.4836354"><ele>268.0</ele><time>2026-04-18T12:16:33.619Z</time></trkpt><trkpt lat="45.5507161" lon="10.4836949"><ele>268.0</ele><time>2026-04-18T12:16:34.618Z</time></trkpt><trkpt lat="45.5506261" lon="10.4837618"><ele>268.0</ele><time>2026-04-18T12:16:35.62Z</time></trkpt><trkpt lat="45.5505414" lon="10.4838053"><ele>268.0</ele><time>2026-04-18T12:16:36.619Z</time></trkpt><trkpt lat="45.5504604" lon="10.4838513"><ele>268.0</ele><time>2026-04-18T12:16:37.62Z</time></trkpt><trkpt lat="45.5503695" lon="10.4838799"><ele>268.0</ele><time>2026-04-18T12:16:38.619Z</time></trkpt><trkpt lat="45.550277" lon="10.4838906"><ele>266.8</ele><time>2026-04-18T12:16:39.619Z</time></trkpt><trkpt lat="45.5501819" lon="10.4838885"><ele>265.6</ele><time>2026-04-18T12:16:40.62Z</time></trkpt><trkpt lat="45.5500861" lon="10.4838806"><ele>264.4</ele><time>2026-04-18T12:16:41.62Z</time></trkpt><trkpt lat="45.5499925" lon="10.4838851"><ele>263.2</ele><time>2026-04-18T12:16:42.62Z</time></trkpt><trkpt lat="45.5499014" lon="10.4839082"><ele>262.0</ele><time>2026-04-18T12:16:43.619Z</time></trkpt><trkpt lat="45.5498104" lon="10.4839407"><ele>262.0</ele><time>2026-04-18T12:16:44.619Z</time></trkpt><trkpt lat="45.5497306" lon="10.483982"><ele>262.0</ele><time>2026-04-18T12:16:45.619Z</time></trkpt><trkpt lat="45.54965" lon="10.4840406"><ele>262.0</ele><time>2026-04-18T12:16:46.618Z</time></trkpt><trkpt lat="45.5495758" lon="10.4841059"><ele>262.0</ele><time>2026-04-18T12:16:47.619Z</time></trkpt><trkpt lat="45.5495023" lon="10.4841844"><ele>262.0</ele><time>2026-04-18T12:16:48.619Z</time></trkpt><trkpt lat="45.5494335" lon="10.4842894"><ele>262.4</ele><time>2026-04-18T12:16:49.619Z</time></trkpt><trkpt lat="45.5493718" lon="10.4843991"><ele>262.79999999999995</ele><time>2026-04-18T12:16:50.62Z</time></trkpt><trkpt lat="45.5493148" lon="10.4845164"><ele>263.2</ele><time>2026-04-18T12:16:51.62Z</time></trkpt><trkpt lat="45.5492614" lon="10.4846298"><ele>263.59999999999997</ele><time>2026-04-18T12:16:52.62Z</time></trkpt><trkpt lat="45.5492104" lon="10.4847499"><ele>264.0</ele><time>2026-04-18T12:16:53.619Z</time></trkpt><trkpt lat="45.5491605" lon="10.4848692"><ele>264.0</ele><time>2026-04-18T12:16:54.619Z</time></trkpt><trkpt lat="45.5491185" lon="10.4849947"><ele>264.0</ele><time>2026-04-18T12:16:55.62Z</time></trkpt><trkpt lat="45.5490739" lon="10.4851272"><ele>264.0</ele><time>2026-04-18T12:16:56.62Z</time></trkpt><trkpt lat="45.5490235" lon="10.4852542"><ele>264.0</ele><time>2026-04-18T12:16:57.62Z</time></trkpt><trkpt lat="45.5489708" lon="10.4853771"><ele>264.0</ele><time>2026-04-18T12:16:58.62Z</time></trkpt><trkpt lat="45.5489176" lon="10.4855003"><ele>262.4</ele><time>2026-04-18T12:16:59.621Z</time></trkpt><trkpt lat="45.5488667" lon="10.4856104"><ele>260.79999999999995</ele><time>2026-04-18T12:17:00.621Z</time></trkpt><trkpt lat="45.5488085" lon="10.4857097"><ele>259.20000000000005</ele><time>2026-04-18T12:17:01.62Z</time></trkpt><trkpt lat="45.5487485" lon="10.4858023"><ele>257.6</ele><time>2026-04-18T12:17:02.62Z</time></trkpt><trkpt lat="45.5486939" lon="10.4859003"><ele>256.0</ele><time>2026-04-18T12:17:03.621Z</time></trkpt><trkpt lat="45.548647" lon="10.4860128"><ele>258.16666666666663</ele><time>2026-04-18T12:17:04.621Z</time></trkpt><trkpt lat="45.5486045" lon="10.4861209"><ele>260.3333333333333</ele><time>2026-04-18T12:17:05.619Z</time></trkpt><trkpt lat="45.5485655" lon="10.4862325"><ele>262.5</ele><time>2026-04-18T12:17:06.62Z</time></trkpt><trkpt lat="45.5485342" lon="10.4863414"><ele>264.6666666666667</ele><time>2026-04-18T12:17:07.619Z</time></trkpt><trkpt lat="45.548509" lon="10.4864491"><ele>266.83333333333337</ele><time>2026-04-18T12:17:08.619Z</time></trkpt><trkpt lat="45.5484837" lon="10.4865625"><ele>269.0</ele><time>2026-04-18T12:17:09.619Z</time></trkpt><trkpt lat="45.5484575" lon="10.4866789"><ele>269.0</ele><time>2026-04-18T12:17:10.618Z</time></trkpt><trkpt lat="45.5484338" lon="10.4867993"><ele>269.0</ele><time>2026-04-18T12:17:11.619Z</time></trkpt><trkpt lat="45.5484098" lon="10.4869201"><ele>269.0</ele><time>2026-04-18T12:17:12.62Z</time></trkpt><trkpt lat="45.5483749" lon="10.487034"><ele>269.0</ele><time>2026-04-18T12:17:13.618Z</time></trkpt><trkpt lat="45.548334" lon="10.4871544"><ele>269.0</ele><time>2026-04-18T12:17:14.619Z</time></trkpt><trkpt lat="45.5482931" lon="10.4872814"><ele>266.75</ele><time>2026-04-18T12:17:15.618Z</time></trkpt><trkpt lat="45.548252" lon="10.4874209"><ele>264.5</ele><time>2026-04-18T12:17:16.62Z</time></trkpt><trkpt lat="45.5482142" lon="10.4875823"><ele>262.25</ele><time>2026-04-18T12:17:17.618Z</time></trkpt><trkpt lat="45.5481808" lon="10.4877584"><ele>260.0</ele><time>2026-04-18T12:17:18.619Z</time></trkpt><trkpt lat="45.5481508" lon="10.4879251"><ele>259.0</ele><time>2026-04-18T12:17:19.619Z</time></trkpt><trkpt lat="45.548104" lon="10.4880727"><ele>258.0</ele><time>2026-04-18T12:17:20.62Z</time></trkpt><trkpt lat="45.54805" lon="10.4882126"><ele>257.0</ele><time>2026-04-18T12:17:21.619Z</time></trkpt><trkpt lat="45.5480095" lon="10.4883439"><ele>256.0</ele><time>2026-04-18T12:17:22.619Z</time></trkpt><trkpt lat="45.5479736" lon="10.4884701"><ele>255.0</ele><time>2026-04-18T12:17:23.621Z</time></trkpt><trkpt lat="45.5479578" lon="10.4886125"><ele>255.0</ele><time>2026-04-18T12:17:24.619Z</time></trkpt><trkpt lat="45.5479247" lon="10.4887541"><ele>255.0</ele><time>2026-04-18T12:17:25.621Z</time></trkpt><trkpt lat="45.5479033" lon="10.4888882"><ele>255.0</ele><time>2026-04-18T12:17:26.619Z</time></trkpt><trkpt lat="45.5478748" lon="10.4890232"><ele>255.0</ele><time>2026-04-18T12:17:27.619Z</time></trkpt><trkpt lat="45.5478453" lon="10.489178"><ele>255.0</ele><time>2026-04-18T12:17:28.619Z</time></trkpt><trkpt lat="45.5478086" lon="10.4892782"><ele>256.0</ele><time>2026-04-18T12:17:29.62Z</time></trkpt><trkpt lat="45.5477512" lon="10.4893875"><ele>257.0</ele><time>2026-04-18T12:17:30.621Z</time></trkpt><trkpt lat="45.5477252" lon="10.4894836"><ele>258.0</ele><time>2026-04-18T12:17:31.619Z</time></trkpt><trkpt lat="45.5476857" lon="10.489581"><ele>259.0</ele><time>2026-04-18T12:17:32.621Z</time></trkpt><trkpt lat="45.5476411" lon="10.489689"><ele>260.0</ele><time>2026-04-18T12:17:33.619Z</time></trkpt><trkpt lat="45.5475975" lon="10.4897887"><ele>261.0</ele><time>2026-04-18T12:17:34.619Z</time></trkpt><trkpt lat="45.547559" lon="10.4898698"><ele>261.0</ele><time>2026-04-18T12:17:35.62Z</time></trkpt><trkpt lat="45.5475159" lon="10.4899607"><ele>261.0</ele><time>2026-04-18T12:17:36.619Z</time></trkpt><trkpt lat="45.5474659" lon="10.4900727"><ele>261.0</ele><time>2026-04-18T12:17:37.619Z</time></trkpt><trkpt lat="45.5474255" lon="10.4901544"><ele>261.0</ele><time>2026-04-18T12:17:38.619Z</time></trkpt><trkpt lat="45.5473834" lon="10.4902307"><ele>261.0</ele><time>2026-04-18T12:17:39.62Z</time></trkpt><trkpt lat="45.5473122" lon="10.4903892"><ele>261.0</ele><time>2026-04-18T12:17:41.62Z</time></trkpt><trkpt lat="45.547261" lon="10.4904615"><ele>259.8333333333333</ele><time>2026-04-18T12:17:42.619Z</time></trkpt><trkpt lat="45.5472084" lon="10.490569"><ele>258.6666666666667</ele><time>2026-04-18T12:17:43.62Z</time></trkpt><trkpt lat="45.5471605" lon="10.4906603"><ele>257.5</ele><time>2026-04-18T12:17:44.62Z</time></trkpt><trkpt lat="45.5471201" lon="10.4907364"><ele>256.33333333333337</ele><time>2026-04-18T12:17:45.62Z</time></trkpt><trkpt lat="45.547075" lon="10.4907998"><ele>255.16666666666669</ele><time>2026-04-18T12:17:46.62Z</time></trkpt><trkpt lat="45.5470213" lon="10.4908596"><ele>254.0</ele><time>2026-04-18T12:17:47.618Z</time></trkpt><trkpt lat="45.5468876" lon="10.4909686"><ele>255.2</ele><time>2026-04-18T12:17:49.62Z</time></trkpt><trkpt lat="45.5468056" lon="10.4910248"><ele>256.4</ele><time>2026-04-18T12:17:50.619Z</time></trkpt><trkpt lat="45.5467013" lon="10.4910735"><ele>257.6</ele><time>2026-04-18T12:17:51.619Z</time></trkpt><trkpt lat="45.5466198" lon="10.4911865"><ele>258.8</ele><time>2026-04-18T12:17:53.62Z</time></trkpt><trkpt lat="45.546541" lon="10.4912917"><ele>260.0</ele><time>2026-04-18T12:17:55.62Z</time></trkpt><trkpt lat="45.546505" lon="10.4913794"><ele>260.0</ele><time>2026-04-18T12:17:56.62Z</time></trkpt><trkpt lat="45.5464682" lon="10.4914645"><ele>260.0</ele><time>2026-04-18T12:17:57.619Z</time></trkpt><trkpt lat="45.546428" lon="10.4915361"><ele>260.0</ele><time>2026-04-18T12:17:58.619Z</time></trkpt><trkpt lat="45.5463491" lon="10.4916784"><ele>260.0</ele><time>2026-04-18T12:18:00.62Z</time></trkpt><trkpt lat="45.5462978" lon="10.4917547"><ele>260.0</ele><time>2026-04-18T12:18:01.621Z</time></trkpt><trkpt lat="45.5462241" lon="10.491872"><ele>260.0</ele><time>2026-04-18T12:18:03.62Z</time></trkpt><trkpt lat="45.5461721" lon="10.4919346"><ele>261.0</ele><time>2026-04-18T12:18:19.62Z</time></trkpt><trkpt lat="45.5460869" lon="10.4919258"><ele>262.0</ele><time>2026-04-18T12:18:21.619Z</time></trkpt><trkpt lat="45.5459783" lon="10.4918749"><ele>263.0</ele><time>2026-04-18T12:18:23.619Z</time></trkpt><trkpt lat="45.545916" lon="10.4918521"><ele>264.0</ele><time>2026-04-18T12:18:24.62Z</time></trkpt><trkpt lat="45.5458506" lon="10.4918178"><ele>265.0</ele><time>2026-04-18T12:18:25.62Z</time></trkpt><trkpt lat="45.54578" lon="10.4917828"><ele>266.0</ele><time>2026-04-18T12:18:26.618Z</time></trkpt><trkpt lat="45.5457062" lon="10.4917459"><ele>266.0</ele><time>2026-04-18T12:18:27.619Z</time></trkpt><trkpt lat="45.5456298" lon="10.4917038"><ele>266.0</ele><time>2026-04-18T12:18:28.619Z</time></trkpt><trkpt lat="45.5455529" lon="10.4916606"><ele>266.0</ele><time>2026-04-18T12:18:29.62Z</time></trkpt><trkpt lat="45.5454755" lon="10.4916213"><ele>266.0</ele><time>2026-04-18T12:18:30.62Z</time></trkpt><trkpt lat="45.5453994" lon="10.4915825"><ele>266.0</ele><time>2026-04-18T12:18:31.619Z</time></trkpt><trkpt lat="45.545327" lon="10.4915362"><ele>266.0</ele><time>2026-04-18T12:18:32.619Z</time></trkpt><trkpt lat="45.5452522" lon="10.4914974"><ele>266.33333333333337</ele><time>2026-04-18T12:18:33.62Z</time></trkpt><trkpt lat="45.5451776" lon="10.4914577"><ele>266.6666666666667</ele><time>2026-04-18T12:18:34.619Z</time></trkpt><trkpt lat="45.5451079" lon="10.4914334"><ele>267.0</ele><time>2026-04-18T12:18:35.621Z</time></trkpt><trkpt lat="45.5450472" lon="10.4914005"><ele>267.3333333333333</ele><time>2026-04-18T12:18:36.62Z</time></trkpt><trkpt lat="45.5449507" lon="10.4913773"><ele>267.66666666666663</ele><time>2026-04-18T12:18:38.619Z</time></trkpt><trkpt lat="45.5449044" lon="10.4914473"><ele>268.0</ele><time>2026-04-18T12:18:40.62Z</time></trkpt><trkpt lat="45.5448694" lon="10.4915503"><ele>268.0</ele><time>2026-04-18T12:18:42.619Z</time></trkpt><trkpt lat="45.5447926" lon="10.4915455"><ele>268.0</ele><time>2026-04-18T12:18:45.619Z</time></trkpt><trkpt lat="45.5447147" lon="10.491516"><ele>268.0</ele><time>2026-04-18T12:18:47.62Z</time></trkpt><trkpt lat="45.5446404" lon="10.4914379"><ele>268.0</ele><time>2026-04-18T12:18:49.619Z</time></trkpt><trkpt lat="45.5445385" lon="10.4913812"><ele>268.0</ele><time>2026-04-18T12:18:51.62Z</time></trkpt><trkpt lat="45.5444585" lon="10.4913275"><ele>268.0</ele><time>2026-04-18T12:18:53.62Z</time></trkpt><trkpt lat="45.5443683" lon="10.4912706"><ele>270.4</ele><time>2026-04-18T12:18:55.62Z</time></trkpt><trkpt lat="45.5442734" lon="10.4911971"><ele>272.8</ele><time>2026-04-18T12:18:57.619Z</time></trkpt><trkpt lat="45.5441806" lon="10.4911256"><ele>275.2</ele><time>2026-04-18T12:18:59.619Z</time></trkpt><trkpt lat="45.544083" lon="10.4911083"><ele>277.6</ele><time>2026-04-18T12:19:01.618Z</time></trkpt><trkpt lat="45.5439978" lon="10.4911447"><ele>280.0</ele><time>2026-04-18T12:19:03.619Z</time></trkpt><trkpt lat="45.5439179" lon="10.4911913"><ele>280.0</ele><time>2026-04-18T12:19:05.618Z</time></trkpt><trkpt lat="45.5438377" lon="10.4912657"><ele>280.0</ele><time>2026-04-18T12:19:07.619Z</time></trkpt><trkpt lat="45.5437501" lon="10.4913688"><ele>280.0</ele><time>2026-04-18T12:19:09.618Z</time></trkpt><trkpt lat="45.5436455" lon="10.4914006"><ele>280.0</ele><time>2026-04-18T12:19:11.62Z</time></trkpt><trkpt lat="45.5435685" lon="10.4913764"><ele>280.0</ele><time>2026-04-18T12:19:13.619Z</time></trkpt><trkpt lat="45.5435301" lon="10.4912835"><ele>280.0</ele><time>2026-04-18T12:19:14.621Z</time></trkpt><trkpt lat="45.5434976" lon="10.4911957"><ele>280.0</ele><time>2026-04-18T12:19:15.618Z</time></trkpt><trkpt lat="45.5434498" lon="10.4910731"><ele>280.0</ele><time>2026-04-18T12:19:17.619Z</time></trkpt><trkpt lat="45.5433696" lon="10.4911346"><ele>280.0</ele><time>2026-04-18T12:19:33.62Z</time></trkpt><trkpt lat="45.5433879" lon="10.4913247"><ele>280.0</ele><time>2026-04-18T12:19:35.62Z</time></trkpt><trkpt lat="45.5434127" lon="10.4914493"><ele>280.0</ele><time>2026-04-18T12:19:36.619Z</time></trkpt><trkpt lat="45.5434367" lon="10.4915392"><ele>280.0</ele><time>2026-04-18T12:19:37.619Z</time></trkpt><trkpt lat="45.5434228" lon="10.4916554"><ele>280.0</ele><time>2026-04-18T12:19:39.619Z</time></trkpt><trkpt lat="45.543342" lon="10.4917167"><ele>280.0</ele><time>2026-04-18T12:19:41.62Z</time></trkpt><trkpt lat="45.5432289" lon="10.4917672"><ele>280.0</ele><time>2026-04-18T12:19:43.618Z</time></trkpt><trkpt lat="45.5431675" lon="10.491798"><ele>280.0</ele><time>2026-04-18T12:19:44.62Z</time></trkpt><trkpt lat="45.5430972" lon="10.4918365"><ele>280.0</ele><time>2026-04-18T12:19:45.619Z</time></trkpt><trkpt lat="45.5430269" lon="10.4918706"><ele>280.0</ele><time>2026-04-18T12:19:46.62Z</time></trkpt><trkpt lat="45.5429481" lon="10.4918896"><ele>280.0</ele><time>2026-04-18T12:19:47.619Z</time></trkpt><trkpt lat="45.542866" lon="10.4918722"><ele>280.0</ele><time>2026-04-18T12:19:48.619Z</time></trkpt><trkpt lat="45.5427811" lon="10.4918419"><ele>280.0</ele><time>2026-04-18T12:19:49.619Z</time></trkpt><trkpt lat="45.5426928" lon="10.49182"><ele>280.0</ele><time>2026-04-18T12:19:50.618Z</time></trkpt><trkpt lat="45.5426031" lon="10.4918115"><ele>281.3333333333333</ele><time>2026-04-18T12:19:51.619Z</time></trkpt><trkpt lat="45.5425098" lon="10.4918103"><ele>282.66666666666663</ele><time>2026-04-18T12:19:52.619Z</time></trkpt><trkpt lat="45.5424347" lon="10.4918237"><ele>284.0</ele><time>2026-04-18T12:19:53.619Z</time></trkpt><trkpt lat="45.5423678" lon="10.4918606"><ele>285.3333333333333</ele><time>2026-04-18T12:19:54.619Z</time></trkpt><trkpt lat="45.5423001" lon="10.4919027"><ele>286.6666666666667</ele><time>2026-04-18T12:19:55.619Z</time></trkpt><trkpt lat="45.5422285" lon="10.4919264"><ele>288.0</ele><time>2026-04-18T12:19:59.62Z</time></trkpt><trkpt lat="45.5421965" lon="10.4918465"><ele>288.0</ele><time>2026-04-18T12:20:02.618Z</time></trkpt><trkpt lat="45.5421387" lon="10.4918017"><ele>288.0</ele><time>2026-04-18T12:20:04.619Z</time></trkpt><trkpt lat="45.5420339" lon="10.4918341"><ele>288.0</ele><time>2026-04-18T12:20:06.619Z</time></trkpt><trkpt lat="45.5419517" lon="10.4918157"><ele>288.0</ele><time>2026-04-18T12:20:09.619Z</time></trkpt><trkpt lat="45.5418463" lon="10.491915"><ele>288.0</ele><time>2026-04-18T12:20:11.621Z</time></trkpt><trkpt lat="45.5417854" lon="10.4919638"><ele>288.00000000000006</ele><time>2026-04-18T12:20:12.619Z</time></trkpt><trkpt lat="45.5417243" lon="10.4920086"><ele>288.0</ele><time>2026-04-18T12:20:13.619Z</time></trkpt><trkpt lat="45.5416611" lon="10.4920572"><ele>288.0</ele><time>2026-04-18T12:20:14.619Z</time></trkpt><trkpt lat="45.5415971" lon="10.4921054"><ele>288.0</ele><time>2026-04-18T12:20:15.618Z</time></trkpt><trkpt lat="45.5415279" lon="10.4921188"><ele>288.0</ele><time>2026-04-18T12:20:16.62Z</time></trkpt><trkpt lat="45.5414566" lon="10.4921287"><ele>288.00000000000006</ele><time>2026-04-18T12:20:17.619Z</time></trkpt><trkpt lat="45.5413789" lon="10.4921005"><ele>288.0</ele><time>2026-04-18T12:20:18.621Z</time></trkpt><trkpt lat="45.5413039" lon="10.4920783"><ele>288.00000000000006</ele><time>2026-04-18T12:20:19.619Z</time></trkpt><trkpt lat="45.5412286" lon="10.4920695"><ele>288.0</ele><time>2026-04-18T12:20:20.621Z</time></trkpt><trkpt lat="45.5411515" lon="10.4920699"><ele>288.0</ele><time>2026-04-18T12:20:21.618Z</time></trkpt><trkpt lat="45.5410815" lon="10.4920703"><ele>288.0</ele><time>2026-04-18T12:20:22.618Z</time></trkpt><trkpt lat="45.5410087" lon="10.4920694"><ele>288.0</ele><time>2026-04-18T12:20:23.619Z</time></trkpt><trkpt lat="45.5409409" lon="10.4920627"><ele>288.00000000000006</ele><time>2026-04-18T12:20:24.618Z</time></trkpt><trkpt lat="45.5408707" lon="10.4920468"><ele>288.0</ele><time>2026-04-18T12:20:25.618Z</time></trkpt><trkpt lat="45.5408029" lon="10.4920298"><ele>288.3333333333333</ele><time>2026-04-18T12:20:26.618Z</time></trkpt><trkpt lat="45.5407321" lon="10.4920133"><ele>288.6666666666667</ele><time>2026-04-18T12:20:27.62Z</time></trkpt><trkpt lat="45.5406633" lon="10.492007"><ele>289.0</ele><time>2026-04-18T12:20:28.619Z</time></trkpt><trkpt lat="45.5405971" lon="10.4920004"><ele>289.33333333333337</ele><time>2026-04-18T12:20:29.618Z</time></trkpt><trkpt lat="45.5404795" lon="10.4919656"><ele>289.6666666666667</ele><time>2026-04-18T12:20:31.619Z</time></trkpt><trkpt lat="45.5403912" lon="10.4918927"><ele>290.0</ele><time>2026-04-18T12:20:33.618Z</time></trkpt><trkpt lat="45.540353" lon="10.491769"><ele>290.33333333333337</ele><time>2026-04-18T12:20:35.619Z</time></trkpt><trkpt lat="45.540352" lon="10.4916703"><ele>290.6666666666667</ele><time>2026-04-18T12:20:37.619Z</time></trkpt><trkpt lat="45.540349" lon="10.4915568"><ele>291.0</ele><time>2026-04-18T12:20:39.618Z</time></trkpt><trkpt lat="45.5403031" lon="10.4914471"><ele>291.3333333333333</ele><time>2026-04-18T12:20:41.619Z</time></trkpt><trkpt lat="45.54025" lon="10.4913923"><ele>291.66666666666663</ele><time>2026-04-18T12:20:44.619Z</time></trkpt><trkpt lat="45.5401882" lon="10.4913463"><ele>292.0</ele><time>2026-04-18T12:20:47.62Z</time></trkpt><trkpt lat="45.5401279" lon="10.4912793"><ele>293.5</ele><time>2026-04-18T12:20:50.62Z</time></trkpt><trkpt lat="45.5400679" lon="10.491216"><ele>295.0</ele><time>2026-04-18T12:20:53.619Z</time></trkpt><trkpt lat="45.540013" lon="10.4911505"><ele>296.5</ele><time>2026-04-18T12:20:55.618Z</time></trkpt><trkpt lat="45.5399443" lon="10.4910767"><ele>298.0</ele><time>2026-04-18T12:20:57.617Z</time></trkpt><trkpt lat="45.5398705" lon="10.4910063"><ele>299.5</ele><time>2026-04-18T12:20:59.62Z</time></trkpt><trkpt lat="45.5397919" lon="10.4909497"><ele>301.0</ele><time>2026-04-18T12:21:01.618Z</time></trkpt><trkpt lat="45.5397148" lon="10.4909155"><ele>301.0</ele><time>2026-04-18T12:21:03.619Z</time></trkpt><trkpt lat="45.5396477" lon="10.4908503"><ele>301.0</ele><time>2026-04-18T12:21:05.619Z</time></trkpt><trkpt lat="45.53955" lon="10.4907833"><ele>301.0</ele><time>2026-04-18T12:21:07.619Z</time></trkpt><trkpt lat="45.5394783" lon="10.4907568"><ele>301.0</ele><time>2026-04-18T12:21:08.618Z</time></trkpt><trkpt lat="45.5394054" lon="10.4907295"><ele>301.0</ele><time>2026-04-18T12:21:09.617Z</time></trkpt><trkpt lat="45.539335" lon="10.4906985"><ele>301.0</ele><time>2026-04-18T12:21:10.62Z</time></trkpt><trkpt lat="45.5392565" lon="10.4906654"><ele>300.8333333333333</ele><time>2026-04-18T12:21:11.618Z</time></trkpt><trkpt lat="45.5391833" lon="10.4906457"><ele>300.66666666666663</ele><time>2026-04-18T12:21:12.62Z</time></trkpt><trkpt lat="45.5391065" lon="10.4906441"><ele>300.5</ele><time>2026-04-18T12:21:13.619Z</time></trkpt><trkpt lat="45.5390145" lon="10.4906287"><ele>300.3333333333333</ele><time>2026-04-18T12:21:14.618Z</time></trkpt><trkpt lat="45.538938" lon="10.490609"><ele>300.1666666666667</ele><time>2026-04-18T12:21:15.619Z</time></trkpt><trkpt lat="45.5388635" lon="10.4905809"><ele>300.0</ele><time>2026-04-18T12:21:16.619Z</time></trkpt><trkpt lat="45.5387536" lon="10.490492"><ele>299.3333333333333</ele><time>2026-04-18T12:21:18.618Z</time></trkpt><trkpt lat="45.5386903" lon="10.490452"><ele>298.6666666666667</ele><time>2026-04-18T12:21:19.618Z</time></trkpt><trkpt lat="45.5386148" lon="10.4904164"><ele>298.0</ele><time>2026-04-18T12:21:20.621Z</time></trkpt><trkpt lat="45.5385377" lon="10.4903919"><ele>297.33333333333337</ele><time>2026-04-18T12:21:21.619Z</time></trkpt><trkpt lat="45.5384637" lon="10.4903557"><ele>296.6666666666667</ele><time>2026-04-18T12:21:22.619Z</time></trkpt><trkpt lat="45.5383959" lon="10.4903259"><ele>296.0</ele><time>2026-04-18T12:21:23.619Z</time></trkpt><trkpt lat="45.538322" lon="10.4902902"><ele>296.40000000000003</ele><time>2026-04-18T12:21:24.619Z</time></trkpt><trkpt lat="45.5382339" lon="10.4902653"><ele>296.8</ele><time>2026-04-18T12:21:25.619Z</time></trkpt><trkpt lat="45.5381444" lon="10.4902353"><ele>297.20000000000005</ele><time>2026-04-18T12:21:26.618Z</time></trkpt><trkpt lat="45.5380584" lon="10.4901975"><ele>297.6</ele><time>2026-04-18T12:21:27.618Z</time></trkpt><trkpt lat="45.5379681" lon="10.4901866"><ele>298.0</ele><time>2026-04-18T12:21:28.618Z</time></trkpt><trkpt lat="45.5378705" lon="10.4901737"><ele>298.0</ele><time>2026-04-18T12:21:29.619Z</time></trkpt><trkpt lat="45.5377893" lon="10.4901464"><ele>298.0</ele><time>2026-04-18T12:21:30.619Z</time></trkpt><trkpt lat="45.5376999" lon="10.4901274"><ele>298.0</ele><time>2026-04-18T12:21:31.618Z</time></trkpt><trkpt lat="45.5376236" lon="10.4901189"><ele>298.0</ele><time>2026-04-18T12:21:32.619Z</time></trkpt><trkpt lat="45.5375458" lon="10.4900819"><ele>298.0</ele><time>2026-04-18T12:21:33.62Z</time></trkpt><trkpt lat="45.5374827" lon="10.4900596"><ele>298.0</ele><time>2026-04-18T12:21:34.619Z</time></trkpt><trkpt lat="45.5373948" lon="10.4900216"><ele>298.0</ele><time>2026-04-18T12:21:35.619Z</time></trkpt><trkpt lat="45.5372861" lon="10.4899524"><ele>298.0</ele><time>2026-04-18T12:21:37.62Z</time></trkpt><trkpt lat="45.5372335" lon="10.4898981"><ele>298.0</ele><time>2026-04-18T12:21:38.619Z</time></trkpt><trkpt lat="45.5371165" lon="10.4898323"><ele>298.0</ele><time>2026-04-18T12:21:40.618Z</time></trkpt><trkpt lat="45.5371762" lon="10.4897987"><ele>298.0</ele><time>2026-04-18T12:21:44.619Z</time></trkpt><trkpt lat="45.537205" lon="10.4896663"><ele>299.2</ele><time>2026-04-18T12:21:47.619Z</time></trkpt><trkpt lat="45.5372216" lon="10.4895677"><ele>300.4</ele><time>2026-04-18T12:21:49.619Z</time></trkpt><trkpt lat="45.5371959" lon="10.4894207"><ele>301.59999999999997</ele><time>2026-04-18T12:21:51.618Z</time></trkpt><trkpt lat="45.5371828" lon="10.4892714"><ele>302.8</ele><time>2026-04-18T12:21:53.619Z</time></trkpt><trkpt lat="45.537166" lon="10.4891327"><ele>304.0</ele><time>2026-04-18T12:21:55.619Z</time></trkpt><trkpt lat="45.5370782" lon="10.4890704"><ele>303.59999999999997</ele><time>2026-04-18T12:21:57.618Z</time></trkpt><trkpt lat="45.5370049" lon="10.4889477"><ele>303.2</ele><time>2026-04-18T12:21:59.62Z</time></trkpt><trkpt lat="45.536919" lon="10.4888522"><ele>302.79999999999995</ele><time>2026-04-18T12:22:01.619Z</time></trkpt><trkpt lat="45.5368427" lon="10.4887843"><ele>302.4</ele><time>2026-04-18T12:22:03.618Z</time></trkpt><trkpt lat="45.5368083" lon="10.4886726"><ele>302.0</ele><time>2026-04-18T12:22:05.617Z</time></trkpt><trkpt lat="45.5367703" lon="10.4885234"><ele>304.4</ele><time>2026-04-18T12:22:07.619Z</time></trkpt><trkpt lat="45.5368283" lon="10.4884287"><ele>306.79999999999995</ele><time>2026-04-18T12:22:09.618Z</time></trkpt><trkpt lat="45.5369565" lon="10.4884628"><ele>309.2</ele><time>2026-04-18T12:22:11.619Z</time></trkpt><trkpt lat="45.5370742" lon="10.4884278"><ele>311.59999999999997</ele><time>2026-04-18T12:22:13.619Z</time></trkpt><trkpt lat="45.5371351" lon="10.4884016"><ele>314.0</ele><time>2026-04-18T12:22:14.619Z</time></trkpt><trkpt lat="45.5371937" lon="10.4882621"><ele>314.0</ele><time>2026-04-18T12:22:16.618Z</time></trkpt><trkpt lat="45.5372296" lon="10.4881404"><ele>314.0</ele><time>2026-04-18T12:22:18.617Z</time></trkpt><trkpt lat="45.5371961" lon="10.4880025"><ele>314.0</ele><time>2026-04-18T12:22:20.618Z</time></trkpt><trkpt lat="45.5371371" lon="10.4880493"><ele>314.0</ele><time>2026-04-18T12:22:21.618Z</time></trkpt><trkpt lat="45.5370355" lon="10.4880771"><ele>314.0</ele><time>2026-04-18T12:22:23.618Z</time></trkpt><trkpt lat="45.5369551" lon="10.4880656"><ele>314.0</ele><time>2026-04-18T12:22:25.618Z</time></trkpt><trkpt lat="45.5368887" lon="10.4879982"><ele>314.4</ele><time>2026-04-18T12:22:27.619Z</time></trkpt><trkpt lat="45.5368257" lon="10.4879448"><ele>314.79999999999995</ele><time>2026-04-18T12:22:29.618Z</time></trkpt><trkpt lat="45.5367629" lon="10.4878845"><ele>315.20000000000005</ele><time>2026-04-18T12:22:31.617Z</time></trkpt><trkpt lat="45.5366883" lon="10.4878189"><ele>315.6</ele><time>2026-04-18T12:22:33.618Z</time></trkpt><trkpt lat="45.53655" lon="10.4877768"><ele>316.0</ele><time>2026-04-18T12:22:35.618Z</time></trkpt><trkpt lat="45.5364896" lon="10.4876854"><ele>319.8</ele><time>2026-04-18T12:22:37.618Z</time></trkpt><trkpt lat="45.536417" lon="10.4875414"><ele>323.6</ele><time>2026-04-18T12:22:39.62Z</time></trkpt><trkpt lat="45.5363754" lon="10.4874557"><ele>327.4</ele><time>2026-04-18T12:22:41.619Z</time></trkpt><trkpt lat="45.5363582" lon="10.4873446"><ele>331.2</ele><time>2026-04-18T12:22:42.619Z</time></trkpt><trkpt lat="45.5363247" lon="10.4871849"><ele>335.0</ele><time>2026-04-18T12:22:44.619Z</time></trkpt><trkpt lat="45.5362782" lon="10.4870982"><ele>335.4</ele><time>2026-04-18T12:22:46.617Z</time></trkpt><trkpt lat="45.5362794" lon="10.4869841"><ele>335.8</ele><time>2026-04-18T12:22:50.619Z</time></trkpt><trkpt lat="45.5361936" lon="10.4869074"><ele>336.20000000000005</ele><time>2026-04-18T12:22:53.617Z</time></trkpt><trkpt lat="45.5361176" lon="10.4868663"><ele>336.6</ele><time>2026-04-18T12:22:54.618Z</time></trkpt><trkpt lat="45.5360351" lon="10.4868668"><ele>337.0</ele><time>2026-04-18T12:22:55.619Z</time></trkpt><trkpt lat="45.5359088" lon="10.4868706"><ele>335.8</ele><time>2026-04-18T12:22:57.617Z</time></trkpt><trkpt lat="45.5358095" lon="10.4868897"><ele>334.6</ele><time>2026-04-18T12:22:59.618Z</time></trkpt><trkpt lat="45.5357367" lon="10.4869453"><ele>333.40000000000003</ele><time>2026-04-18T12:23:02.62Z</time></trkpt><trkpt lat="45.5356158" lon="10.4869331"><ele>332.20000000000005</ele><time>2026-04-18T12:23:04.618Z</time></trkpt><trkpt lat="45.5355331" lon="10.4869329"><ele>331.0</ele><time>2026-04-18T12:23:06.62Z</time></trkpt><trkpt lat="45.5354587" lon="10.4869343"><ele>331.0</ele><time>2026-04-18T12:23:07.618Z</time></trkpt><trkpt lat="45.5353887" lon="10.4869409"><ele>331.0</ele><time>2026-04-18T12:23:08.618Z</time></trkpt><trkpt lat="45.5353241" lon="10.4869517"><ele>331.0</ele><time>2026-04-18T12:23:09.621Z</time></trkpt><trkpt lat="45.5351997" lon="10.486931"><ele>331.0</ele><time>2026-04-18T12:23:11.619Z</time></trkpt><trkpt lat="45.5351375" lon="10.486883"><ele>331.0</ele><time>2026-04-18T12:23:12.62Z</time></trkpt><trkpt lat="45.5350763" lon="10.4868578"><ele>331.0</ele><time>2026-04-18T12:23:13.618Z</time></trkpt><trkpt lat="45.5350136" lon="10.4868432"><ele>328.8333333333333</ele><time>2026-04-18T12:23:14.617Z</time></trkpt><trkpt lat="45.5349488" lon="10.4868715"><ele>326.66666666666663</ele><time>2026-04-18T12:23:15.617Z</time></trkpt><trkpt lat="45.5348472" lon="10.4868854"><ele>324.5</ele><time>2026-04-18T12:23:17.619Z</time></trkpt><trkpt lat="45.5347436" lon="10.486848"><ele>322.3333333333333</ele><time>2026-04-18T12:23:19.618Z</time></trkpt><trkpt lat="45.5346724" lon="10.4868486"><ele>320.1666666666667</ele><time>2026-04-18T12:23:20.617Z</time></trkpt><trkpt lat="45.5346086" lon="10.4868404"><ele>318.0</ele><time>2026-04-18T12:23:21.618Z</time></trkpt><trkpt lat="45.5344868" lon="10.4868327"><ele>314.4</ele><time>2026-04-18T12:23:23.618Z</time></trkpt><trkpt lat="45.5344411" lon="10.4867616"><ele>310.8</ele><time>2026-04-18T12:23:24.618Z</time></trkpt><trkpt lat="45.5343716" lon="10.486683"><ele>307.2</ele><time>2026-04-18T12:23:26.619Z</time></trkpt><trkpt lat="45.5343193" lon="10.4865218"><ele>303.6</ele><time>2026-04-18T12:23:28.62Z</time></trkpt><trkpt lat="45.5342767" lon="10.4864135"><ele>300.0</ele><time>2026-04-18T12:23:30.618Z</time></trkpt><trkpt lat="45.5342512" lon="10.4862665"><ele>301.5</ele><time>2026-04-18T12:23:32.618Z</time></trkpt><trkpt lat="45.5342566" lon="10.4861557"><ele>303.0</ele><time>2026-04-18T12:23:39.619Z</time></trkpt><trkpt lat="45.5341897" lon="10.4861669"><ele>304.5</ele><time>2026-04-18T12:23:40.618Z</time></trkpt><trkpt lat="45.534098" lon="10.4861296"><ele>306.0</ele><time>2026-04-18T12:23:42.618Z</time></trkpt><trkpt lat="45.5340354" lon="10.4860945"><ele>307.5</ele><time>2026-04-18T12:23:46.617Z</time></trkpt><trkpt lat="45.5339606" lon="10.4860735"><ele>309.0</ele><time>2026-04-18T12:23:49.618Z</time></trkpt><trkpt lat="45.5338888" lon="10.4860329"><ele>309.0</ele><time>2026-04-18T12:23:52.617Z</time></trkpt><trkpt lat="45.5338102" lon="10.4859475"><ele>309.0</ele><time>2026-04-18T12:23:55.617Z</time></trkpt><trkpt lat="45.5337594" lon="10.4858652"><ele>309.0</ele><time>2026-04-18T12:23:57.62Z</time></trkpt><trkpt lat="45.5337142" lon="10.4857963"><ele>309.0</ele><time>2026-04-18T12:23:59.618Z</time></trkpt><trkpt lat="45.5336645" lon="10.4857325"><ele>309.0</ele><time>2026-04-18T12:24:01.618Z</time></trkpt><trkpt lat="45.5335337" lon="10.4856137"><ele>308.6666666666667</ele><time>2026-04-18T12:24:03.618Z</time></trkpt><trkpt lat="45.5334763" lon="10.4855568"><ele>308.3333333333333</ele><time>2026-04-18T12:24:04.618Z</time></trkpt><trkpt lat="45.533405" lon="10.4854939"><ele>308.0</ele><time>2026-04-18T12:24:05.618Z</time></trkpt><trkpt lat="45.5333444" lon="10.4853884"><ele>307.66666666666663</ele><time>2026-04-18T12:24:07.617Z</time></trkpt><trkpt lat="45.5332604" lon="10.4852878"><ele>307.3333333333333</ele><time>2026-04-18T12:24:10.619Z</time></trkpt><trkpt lat="45.5331902" lon="10.4852164"><ele>307.0</ele><time>2026-04-18T12:24:12.618Z</time></trkpt><trkpt lat="45.5330905" lon="10.485158"><ele>307.5</ele><time>2026-04-18T12:24:14.619Z</time></trkpt><trkpt lat="45.5330015" lon="10.4851149"><ele>308.0</ele><time>2026-04-18T12:24:15.617Z</time></trkpt><trkpt lat="45.5329311" lon="10.4850663"><ele>308.5</ele><time>2026-04-18T12:24:16.617Z</time></trkpt><trkpt lat="45.5328589" lon="10.4850099"><ele>309.0</ele><time>2026-04-18T12:24:17.62Z</time></trkpt><trkpt lat="45.5327869" lon="10.4849909"><ele>309.5</ele><time>2026-04-18T12:24:18.618Z</time></trkpt><trkpt lat="45.5327183" lon="10.4849626"><ele>310.0</ele><time>2026-04-18T12:24:19.618Z</time></trkpt><trkpt lat="45.5326708" lon="10.4848611"><ele>310.0</ele><time>2026-04-18T12:24:20.619Z</time></trkpt><trkpt lat="45.5326274" lon="10.484775"><ele>310.0</ele><time>2026-04-18T12:24:21.617Z</time></trkpt><trkpt lat="45.5325703" lon="10.4846865"><ele>310.0</ele><time>2026-04-18T12:24:22.618Z</time></trkpt><trkpt lat="45.5324898" lon="10.484576"><ele>310.0</ele><time>2026-04-18T12:24:24.619Z</time></trkpt><trkpt lat="45.5324239" lon="10.4845077"><ele>310.0</ele><time>2026-04-18T12:24:25.618Z</time></trkpt><trkpt lat="45.532368" lon="10.4844438"><ele>310.0</ele><time>2026-04-18T12:24:26.619Z</time></trkpt><trkpt lat="45.5323121" lon="10.4843899"><ele>309.8571428571429</ele><time>2026-04-18T12:24:27.617Z</time></trkpt><trkpt lat="45.5322552" lon="10.4843276"><ele>309.7142857142857</ele><time>2026-04-18T12:24:28.617Z</time></trkpt><trkpt lat="45.5321652" lon="10.4843364"><ele>309.57142857142856</ele><time>2026-04-18T12:24:29.619Z</time></trkpt><trkpt lat="45.532116" lon="10.4842633"><ele>309.42857142857144</ele><time>2026-04-18T12:24:30.617Z</time></trkpt><trkpt lat="45.5320515" lon="10.4842015"><ele>309.2857142857143</ele><time>2026-04-18T12:24:31.617Z</time></trkpt><trkpt lat="45.532003" lon="10.4841338"><ele>309.14285714285717</ele><time>2026-04-18T12:24:32.618Z</time></trkpt><trkpt lat="45.5319483" lon="10.484073"><ele>309.0</ele><time>2026-04-18T12:24:33.618Z</time></trkpt><trkpt lat="45.5318887" lon="10.4840107"><ele>309.0</ele><time>2026-04-18T12:24:34.619Z</time></trkpt><trkpt lat="45.5318474" lon="10.4839351"><ele>309.0</ele><time>2026-04-18T12:24:35.617Z</time></trkpt><trkpt lat="45.5317977" lon="10.483869"><ele>309.0</ele><time>2026-04-18T12:24:36.618Z</time></trkpt><trkpt lat="45.5317137" lon="10.4837563"><ele>309.0</ele><time>2026-04-18T12:24:38.619Z</time></trkpt><trkpt lat="45.5316321" lon="10.4836428"><ele>309.0</ele><time>2026-04-18T12:24:40.618Z</time></trkpt><trkpt lat="45.5315593" lon="10.4835841"><ele>309.0</ele><time>2026-04-18T12:24:41.619Z</time></trkpt><trkpt lat="45.5314831" lon="10.4835378"><ele>309.42857142857144</ele><time>2026-04-18T12:24:42.618Z</time></trkpt><trkpt lat="45.5314191" lon="10.4835049"><ele>309.8571428571429</ele><time>2026-04-18T12:24:43.618Z</time></trkpt><trkpt lat="45.5313483" lon="10.4834933"><ele>310.28571428571433</ele><time>2026-04-18T12:24:44.618Z</time></trkpt><trkpt lat="45.5312722" lon="10.4834901"><ele>310.7142857142857</ele><time>2026-04-18T12:24:45.618Z</time></trkpt><trkpt lat="45.5311939" lon="10.4834783"><ele>311.1428571428571</ele><time>2026-04-18T12:24:46.618Z</time></trkpt><trkpt lat="45.5311228" lon="10.4834488"><ele>311.5714285714286</ele><time>2026-04-18T12:24:47.619Z</time></trkpt><trkpt lat="45.531043" lon="10.4834402"><ele>312.0</ele><time>2026-04-18T12:24:48.618Z</time></trkpt><trkpt lat="45.5309494" lon="10.4834703"><ele>312.8</ele><time>2026-04-18T12:24:49.618Z</time></trkpt><trkpt lat="45.530864" lon="10.4834327"><ele>313.6</ele><time>2026-04-18T12:24:50.618Z</time></trkpt><trkpt lat="45.5307606" lon="10.4834531"><ele>314.40000000000003</ele><time>2026-04-18T12:24:52.618Z</time></trkpt><trkpt lat="45.530697" lon="10.4834619"><ele>315.2</ele><time>2026-04-18T12:24:53.619Z</time></trkpt><trkpt lat="45.5306349" lon="10.4835877"><ele>316.0</ele><time>2026-04-18T12:24:54.619Z</time></trkpt><trkpt lat="45.5305311" lon="10.4837015"><ele>316.0</ele><time>2026-04-18T12:24:56.618Z</time></trkpt><trkpt lat="45.5304706" lon="10.4837352"><ele>316.0</ele><time>2026-04-18T12:24:57.618Z</time></trkpt><trkpt lat="45.5303464" lon="10.4837588"><ele>316.0</ele><time>2026-04-18T12:24:59.618Z</time></trkpt><trkpt lat="45.5302722" lon="10.4837891"><ele>316.0</ele><time>2026-04-18T12:25:00.619Z</time></trkpt><trkpt lat="45.5302072" lon="10.4838213"><ele>316.0</ele><time>2026-04-18T12:25:01.618Z</time></trkpt><trkpt lat="45.530149" lon="10.4838689"><ele>316.0</ele><time>2026-04-18T12:25:02.618Z</time></trkpt><trkpt lat="45.5300849" lon="10.4839086"><ele>314.3333333333333</ele><time>2026-04-18T12:25:03.618Z</time></trkpt><trkpt lat="45.5300145" lon="10.4839347"><ele>312.66666666666663</ele><time>2026-04-18T12:25:04.617Z</time></trkpt><trkpt lat="45.5299389" lon="10.4839435"><ele>311.0</ele><time>2026-04-18T12:25:05.618Z</time></trkpt><trkpt lat="45.529866" lon="10.4839639"><ele>309.3333333333333</ele><time>2026-04-18T12:25:06.618Z</time></trkpt><trkpt lat="45.5297954" lon="10.4839468"><ele>307.6666666666667</ele><time>2026-04-18T12:25:07.619Z</time></trkpt><trkpt lat="45.5296876" lon="10.4840368"><ele>306.0</ele><time>2026-04-18T12:25:09.618Z</time></trkpt><trkpt lat="45.5296526" lon="10.4841181"><ele>306.0</ele><time>2026-04-18T12:25:10.618Z</time></trkpt><trkpt lat="45.5295698" lon="10.4842207"><ele>306.0</ele><time>2026-04-18T12:25:12.619Z</time></trkpt><trkpt lat="45.5295747" lon="10.4843472"><ele>306.0</ele><time>2026-04-18T12:25:33.618Z</time></trkpt><trkpt lat="45.5295176" lon="10.4844123"><ele>306.0</ele><time>2026-04-18T12:25:43.619Z</time></trkpt><trkpt lat="45.5294647" lon="10.4844714"><ele>306.0</ele><time>2026-04-18T12:25:45.618Z</time></trkpt><trkpt lat="45.5294345" lon="10.4845657"><ele>306.0</ele><time>2026-04-18T12:25:52.618Z</time></trkpt><trkpt lat="45.5294158" lon="10.4846814"><ele>305.0</ele><time>2026-04-18T12:25:58.617Z</time></trkpt><trkpt lat="45.5294079" lon="10.4848018"><ele>304.0</ele><time>2026-04-18T12:26:01.619Z</time></trkpt><trkpt lat="45.5293538" lon="10.4849424"><ele>303.0</ele><time>2026-04-18T12:26:04.618Z</time></trkpt><trkpt lat="45.5293114" lon="10.4850873"><ele>302.0</ele><time>2026-04-18T12:26:06.619Z</time></trkpt><trkpt lat="45.5292865" lon="10.4852316"><ele>301.0</ele><time>2026-04-18T12:26:08.618Z</time></trkpt><trkpt lat="45.5292511" lon="10.4853626"><ele>298.3333333333333</ele><time>2026-04-18T12:26:10.618Z</time></trkpt><trkpt lat="45.5291864" lon="10.4854461"><ele>295.66666666666663</ele><time>2026-04-18T12:26:12.618Z</time></trkpt><trkpt lat="45.5290961" lon="10.4855047"><ele>293.0</ele><time>2026-04-18T12:26:15.618Z</time></trkpt><trkpt lat="45.5290051" lon="10.4855498"><ele>290.3333333333333</ele><time>2026-04-18T12:26:17.619Z</time></trkpt><trkpt lat="45.5289407" lon="10.4855516"><ele>287.6666666666667</ele><time>2026-04-18T12:26:18.617Z</time></trkpt><trkpt lat="45.5288404" lon="10.4855631"><ele>285.0</ele><time>2026-04-18T12:26:20.617Z</time></trkpt><trkpt lat="45.5288264" lon="10.4854742"><ele>287.6666666666667</ele><time>2026-04-18T12:26:45.618Z</time></trkpt><trkpt lat="45.5288017" lon="10.4853766"><ele>290.3333333333333</ele><time>2026-04-18T12:26:47.619Z</time></trkpt><trkpt lat="45.5287824" lon="10.4852819"><ele>293.0</ele><time>2026-04-18T12:26:49.618Z</time></trkpt><trkpt lat="45.5287184" lon="10.4852183"><ele>295.66666666666663</ele><time>2026-04-18T12:26:57.618Z</time></trkpt><trkpt lat="45.5286499" lon="10.4852153"><ele>298.3333333333333</ele><time>2026-04-18T12:26:59.618Z</time></trkpt><trkpt lat="45.5285626" lon="10.4852472"><ele>301.0</ele><time>2026-04-18T12:27:01.618Z</time></trkpt><trkpt lat="45.5284621" lon="10.4852408"><ele>301.16666666666663</ele><time>2026-04-18T12:27:03.619Z</time></trkpt><trkpt lat="45.5283899" lon="10.4851848"><ele>301.3333333333333</ele><time>2026-04-18T12:27:05.618Z</time></trkpt><trkpt lat="45.5283782" lon="10.4850697"><ele>301.5</ele><time>2026-04-18T12:27:20.618Z</time></trkpt><trkpt lat="45.5283108" lon="10.4849836"><ele>301.6666666666667</ele><time>2026-04-18T12:27:22.617Z</time></trkpt><trkpt lat="45.5282544" lon="10.4849205"><ele>301.83333333333337</ele><time>2026-04-18T12:27:24.618Z</time></trkpt><trkpt lat="45.5281439" lon="10.4849474"><ele>302.0</ele><time>2026-04-18T12:27:26.617Z</time></trkpt><trkpt lat="45.5280052" lon="10.4850768"><ele>302.0</ele><time>2026-04-18T12:27:27.618Z</time></trkpt><trkpt lat="45.5279292" lon="10.4851402"><ele>302.0</ele><time>2026-04-18T12:27:28.618Z</time></trkpt><trkpt lat="45.5278598" lon="10.4851648"><ele>302.0</ele><time>2026-04-18T12:27:30.617Z</time></trkpt><trkpt lat="45.5277555" lon="10.4851864"><ele>302.0</ele><time>2026-04-18T12:27:32.618Z</time></trkpt><trkpt lat="45.5276892" lon="10.4852008"><ele>302.0</ele><time>2026-04-18T12:27:33.618Z</time></trkpt><trkpt lat="45.527582" lon="10.485205"><ele>302.0</ele><time>2026-04-18T12:27:35.618Z</time></trkpt><trkpt lat="45.5274993" lon="10.485088"><ele>303.0</ele><time>2026-04-18T12:27:37.617Z</time></trkpt><trkpt lat="45.5274888" lon="10.484956"><ele>304.0</ele><time>2026-04-18T12:27:39.617Z</time></trkpt><trkpt lat="45.5274934" lon="10.4848277"><ele>305.0</ele><time>2026-04-18T12:27:41.618Z</time></trkpt><trkpt lat="45.5274966" lon="10.4849531"><ele>306.0</ele><time>2026-04-18T12:28:04.619Z</time></trkpt><trkpt lat="45.5274933" lon="10.4850597"><ele>307.0</ele><time>2026-04-18T12:28:06.617Z</time></trkpt><trkpt lat="45.5275197" lon="10.4851493"><ele>308.0</ele><time>2026-04-18T12:28:08.617Z</time></trkpt><trkpt lat="45.5275649" lon="10.4852137"><ele>308.0</ele><time>2026-04-18T12:28:10.618Z</time></trkpt><trkpt lat="45.5276576" lon="10.4852017"><ele>308.0</ele><time>2026-04-18T12:28:12.619Z</time></trkpt><trkpt lat="45.5277446" lon="10.4851684"><ele>308.0</ele><time>2026-04-18T12:28:14.618Z</time></trkpt><trkpt lat="45.5278288" lon="10.4851474"><ele>308.0</ele><time>2026-04-18T12:28:16.618Z</time></trkpt><trkpt lat="45.5278953" lon="10.4851447"><ele>308.0</ele><time>2026-04-18T12:28:26.618Z</time></trkpt><trkpt lat="45.5278994" lon="10.4852528"><ele>308.0</ele><time>2026-04-18T12:28:37.616Z</time></trkpt><trkpt lat="45.5278602" lon="10.4853238"><ele>308.0</ele><time>2026-04-18T12:28:39.618Z</time></trkpt><trkpt lat="45.5278091" lon="10.4854079"><ele>308.0</ele><time>2026-04-18T12:28:42.617Z</time></trkpt><trkpt lat="45.5277323" lon="10.4854898"><ele>308.0</ele><time>2026-04-18T12:28:46.616Z</time></trkpt><trkpt lat="45.5276707" lon="10.4855178"><ele>308.0</ele><time>2026-04-18T12:28:47.617Z</time></trkpt><trkpt lat="45.5275838" lon="10.4855753"><ele>308.0</ele><time>2026-04-18T12:28:49.617Z</time></trkpt><trkpt lat="45.5275134" lon="10.4855856"><ele>308.0</ele><time>2026-04-18T12:28:51.618Z</time></trkpt><trkpt lat="45.527471" lon="10.4854882"><ele>308.0</ele><time>2026-04-18T12:28:53.617Z</time></trkpt><trkpt lat="45.5274249" lon="10.4854222"><ele>308.0</ele><time>2026-04-18T12:28:55.617Z</time></trkpt><trkpt lat="45.5273393" lon="10.4853359"><ele>308.0</ele><time>2026-04-18T12:28:57.618Z</time></trkpt><trkpt lat="45.5272663" lon="10.4852132"><ele>308.0</ele><time>2026-04-18T12:28:59.617Z</time></trkpt><trkpt lat="45.5272428" lon="10.485125"><ele>308.0</ele><time>2026-04-18T12:29:00.617Z</time></trkpt><trkpt lat="45.5272051" lon="10.4850049"><ele>308.0</ele><time>2026-04-18T12:29:02.619Z</time></trkpt><trkpt lat="45.5271473" lon="10.4848868"><ele>308.0</ele><time>2026-04-18T12:29:05.618Z</time></trkpt><trkpt lat="45.5271195" lon="10.484767"><ele>308.0</ele><time>2026-04-18T12:29:07.618Z</time></trkpt><trkpt lat="45.5270677" lon="10.4846615"><ele>308.0</ele><time>2026-04-18T12:29:09.617Z</time></trkpt><trkpt lat="45.5270003" lon="10.4845955"><ele>308.0</ele><time>2026-04-18T12:29:11.617Z</time></trkpt><trkpt lat="45.5269768" lon="10.484505"><ele>308.0</ele><time>2026-04-18T12:29:14.616Z</time></trkpt><trkpt lat="45.526925" lon="10.4844516"><ele>308.0</ele><time>2026-04-18T12:29:22.617Z</time></trkpt><trkpt lat="45.5268576" lon="10.4844066"><ele>308.4</ele><time>2026-04-18T12:29:25.617Z</time></trkpt><trkpt lat="45.5267894" lon="10.4843167"><ele>308.8</ele><time>2026-04-18T12:29:28.618Z</time></trkpt><trkpt lat="45.5267378" lon="10.484221"><ele>309.2</ele><time>2026-04-18T12:29:30.617Z</time></trkpt><trkpt lat="45.5266766" lon="10.4840777"><ele>309.6</ele><time>2026-04-18T12:29:32.618Z</time></trkpt><trkpt lat="45.5266392" lon="10.4839757"><ele>310.0</ele><time>2026-04-18T12:29:34.617Z</time></trkpt><trkpt lat="45.526618" lon="10.4838556"><ele>310.0</ele><time>2026-04-18T12:29:37.616Z</time></trkpt><trkpt lat="45.5266013" lon="10.4837665"><ele>310.0</ele><time>2026-04-18T12:29:39.617Z</time></trkpt><trkpt lat="45.5266207" lon="10.4836234"><ele>310.0</ele><time>2026-04-18T12:29:41.616Z</time></trkpt><trkpt lat="45.526568" lon="10.4835298"><ele>310.0</ele><time>2026-04-18T12:29:43.618Z</time></trkpt><trkpt lat="45.5265046" lon="10.48342"><ele>310.0</ele><time>2026-04-18T12:29:45.617Z</time></trkpt><trkpt lat="45.5264032" lon="10.4833582"><ele>309.3333333333333</ele><time>2026-04-18T12:29:47.616Z</time></trkpt><trkpt lat="45.5263159" lon="10.4833502"><ele>308.66666666666663</ele><time>2026-04-18T12:29:49.618Z</time></trkpt><trkpt lat="45.5262398" lon="10.4833215"><ele>308.0</ele><time>2026-04-18T12:29:51.616Z</time></trkpt><trkpt lat="45.5261739" lon="10.4832596"><ele>307.3333333333333</ele><time>2026-04-18T12:29:54.617Z</time></trkpt><trkpt lat="45.5260826" lon="10.4832775"><ele>306.6666666666667</ele><time>2026-04-18T12:29:57.618Z</time></trkpt><trkpt lat="45.5259967" lon="10.4833177"><ele>306.0</ele><time>2026-04-18T12:29:59.617Z</time></trkpt><trkpt lat="45.5259276" lon="10.4833497"><ele>303.6666666666667</ele><time>2026-04-18T12:30:00.617Z</time></trkpt><trkpt lat="45.525864" lon="10.4833802"><ele>301.3333333333333</ele><time>2026-04-18T12:30:01.616Z</time></trkpt><trkpt lat="45.5257991" lon="10.4833838"><ele>299.0</ele><time>2026-04-18T12:30:02.617Z</time></trkpt><trkpt lat="45.5257323" lon="10.4833447"><ele>296.66666666666663</ele><time>2026-04-18T12:30:03.616Z</time></trkpt><trkpt lat="45.5256945" lon="10.4832298"><ele>294.3333333333333</ele><time>2026-04-18T12:30:04.618Z</time></trkpt><trkpt lat="45.5256344" lon="10.4831262"><ele>292.0</ele><time>2026-04-18T12:30:06.616Z</time></trkpt><trkpt lat="45.52556" lon="10.4830986"><ele>292.0</ele><time>2026-04-18T12:30:09.617Z</time></trkpt><trkpt lat="45.525487" lon="10.4830621"><ele>292.0</ele><time>2026-04-18T12:30:11.617Z</time></trkpt><trkpt lat="45.5254177" lon="10.4830349"><ele>292.0</ele><time>2026-04-18T12:30:12.616Z</time></trkpt><trkpt lat="45.5253177" lon="10.4830265"><ele>292.0</ele><time>2026-04-18T12:30:14.617Z</time></trkpt><trkpt lat="45.5252842" lon="10.483103"><ele>292.0</ele><time>2026-04-18T12:30:28.618Z</time></trkpt><trkpt lat="45.525319" lon="10.4831821"><ele>292.0</ele><time>2026-04-18T12:30:31.617Z</time></trkpt><trkpt lat="45.5252983" lon="10.4830851"><ele>292.0</ele><time>2026-04-18T12:30:43.617Z</time></trkpt><trkpt lat="45.5252834" lon="10.4829129"><ele>291.2857142857143</ele><time>2026-04-18T12:30:45.617Z</time></trkpt><trkpt lat="45.5252683" lon="10.4828196"><ele>290.57142857142856</ele><time>2026-04-18T12:30:46.618Z</time></trkpt><trkpt lat="45.5252542" lon="10.4827294"><ele>289.8571428571429</ele><time>2026-04-18T12:30:47.617Z</time></trkpt><trkpt lat="45.5252448" lon="10.482637"><ele>289.1428571428571</ele><time>2026-04-18T12:30:48.616Z</time></trkpt><trkpt lat="45.5252385" lon="10.4825435"><ele>288.42857142857144</ele><time>2026-04-18T12:30:49.616Z</time></trkpt><trkpt lat="45.5252319" lon="10.482448"><ele>287.7142857142857</ele><time>2026-04-18T12:30:50.616Z</time></trkpt><trkpt lat="45.5252218" lon="10.4823104"><ele>287.0</ele><time>2026-04-18T12:30:52.615Z</time></trkpt><trkpt lat="45.5251934" lon="10.4822275"><ele>287.0</ele><time>2026-04-18T12:30:56.617Z</time></trkpt><trkpt lat="45.5252097" lon="10.4823343"><ele>287.0</ele><time>2026-04-18T12:30:58.617Z</time></trkpt><trkpt lat="45.5252354" lon="10.4824198"><ele>287.0</ele><time>2026-04-18T12:30:59.616Z</time></trkpt><trkpt lat="45.5252583" lon="10.4825189"><ele>287.0</ele><time>2026-04-18T12:31:00.616Z</time></trkpt><trkpt lat="45.5252751" lon="10.482629"><ele>287.0</ele><time>2026-04-18T12:31:01.616Z</time></trkpt><trkpt lat="45.5252823" lon="10.4827312"><ele>287.0</ele><time>2026-04-18T12:31:02.617Z</time></trkpt><trkpt lat="45.5252905" lon="10.4828279"><ele>287.0</ele><time>2026-04-18T12:31:03.615Z</time></trkpt><trkpt lat="45.5253002" lon="10.4829674"><ele>287.0</ele><time>2026-04-18T12:31:05.616Z</time></trkpt><trkpt lat="45.5252676" lon="10.4830587"><ele>287.0</ele><time>2026-04-18T12:31:09.617Z</time></trkpt><trkpt lat="45.5251764" lon="10.482993"><ele>287.0</ele><time>2026-04-18T12:31:11.617Z</time></trkpt><trkpt lat="45.525077" lon="10.4829093"><ele>287.0</ele><time>2026-04-18T12:31:13.618Z</time></trkpt><trkpt lat="45.524978" lon="10.4828307"><ele>287.0</ele><time>2026-04-18T12:31:15.617Z</time></trkpt><trkpt lat="45.5249211" lon="10.4827885"><ele>287.0</ele><time>2026-04-18T12:31:16.616Z</time></trkpt><trkpt lat="45.5248516" lon="10.4827452"><ele>287.0</ele><time>2026-04-18T12:31:17.616Z</time></trkpt><trkpt lat="45.5247797" lon="10.4827076"><ele>287.0</ele><time>2026-04-18T12:31:18.617Z</time></trkpt><trkpt lat="45.5246935" lon="10.4827157"><ele>287.0</ele><time>2026-04-18T12:31:19.617Z</time></trkpt><trkpt lat="45.5246074" lon="10.4827265"><ele>287.0</ele><time>2026-04-18T12:31:20.616Z</time></trkpt><trkpt lat="45.5245158" lon="10.4827377"><ele>287.0</ele><time>2026-04-18T12:31:21.616Z</time></trkpt><trkpt lat="45.5244193" lon="10.4827536"><ele>286.6</ele><time>2026-04-18T12:31:22.616Z</time></trkpt><trkpt lat="45.5243196" lon="10.4827685"><ele>286.2</ele><time>2026-04-18T12:31:23.617Z</time></trkpt><trkpt lat="45.5242163" lon="10.4827742"><ele>285.8</ele><time>2026-04-18T12:31:24.617Z</time></trkpt><trkpt lat="45.5241152" lon="10.4827721"><ele>285.4</ele><time>2026-04-18T12:31:25.616Z</time></trkpt><trkpt lat="45.524015" lon="10.4827643"><ele>285.0</ele><time>2026-04-18T12:31:26.617Z</time></trkpt><trkpt lat="45.5239186" lon="10.4827484"><ele>285.0</ele><time>2026-04-18T12:31:27.617Z</time></trkpt><trkpt lat="45.5238262" lon="10.4827229"><ele>285.0</ele><time>2026-04-18T12:31:28.617Z</time></trkpt><trkpt lat="45.5237407" lon="10.4826892"><ele>285.0</ele><time>2026-04-18T12:31:29.616Z</time></trkpt><trkpt lat="45.5236797" lon="10.482655"><ele>285.0</ele><time>2026-04-18T12:31:30.617Z</time></trkpt><trkpt lat="45.523569" lon="10.4825705"><ele>285.0</ele><time>2026-04-18T12:31:32.617Z</time></trkpt><trkpt lat="45.5234808" lon="10.4824728"><ele>285.6</ele><time>2026-04-18T12:31:34.616Z</time></trkpt><trkpt lat="45.5233878" lon="10.4823658"><ele>286.2</ele><time>2026-04-18T12:31:36.617Z</time></trkpt><trkpt lat="45.5233159" lon="10.4822644"><ele>286.8</ele><time>2026-04-18T12:31:38.618Z</time></trkpt><trkpt lat="45.5232477" lon="10.4821572"><ele>287.4</ele><time>2026-04-18T12:31:40.616Z</time></trkpt><trkpt lat="45.523161" lon="10.4820412"><ele>288.0</ele><time>2026-04-18T12:31:42.616Z</time></trkpt><trkpt lat="45.5230793" lon="10.4819175"><ele>288.0</ele><time>2026-04-18T12:31:44.616Z</time></trkpt><trkpt lat="45.5229892" lon="10.4818658"><ele>288.0</ele><time>2026-04-18T12:31:46.616Z</time></trkpt><trkpt lat="45.5228977" lon="10.4818041"><ele>288.0</ele><time>2026-04-18T12:31:49.616Z</time></trkpt><trkpt lat="45.5228173" lon="10.4817712"><ele>288.0</ele><time>2026-04-18T12:31:51.616Z</time></trkpt><trkpt lat="45.5227398" lon="10.4817339"><ele>288.0</ele><time>2026-04-18T12:31:53.617Z</time></trkpt><trkpt lat="45.5226747" lon="10.481721"><ele>288.0</ele><time>2026-04-18T12:31:55.616Z</time></trkpt><trkpt lat="45.5226118" lon="10.4816116"><ele>287.6666666666667</ele><time>2026-04-18T12:31:57.617Z</time></trkpt><trkpt lat="45.5225576" lon="10.4815136"><ele>287.3333333333333</ele><time>2026-04-18T12:31:59.616Z</time></trkpt><trkpt lat="45.5224988" lon="10.48141"><ele>287.0</ele><time>2026-04-18T12:32:01.616Z</time></trkpt><trkpt lat="45.5224465" lon="10.481328"><ele>286.66666666666663</ele><time>2026-04-18T12:32:03.617Z</time></trkpt><trkpt lat="45.5223806" lon="10.4813817"><ele>286.3333333333333</ele><time>2026-04-18T12:32:13.615Z</time></trkpt><trkpt lat="45.5223148" lon="10.4814134"><ele>286.0</ele><time>2026-04-18T12:32:28.616Z</time></trkpt><trkpt lat="45.5222442" lon="10.4814262"><ele>286.0</ele><time>2026-04-18T12:32:32.617Z</time></trkpt><trkpt lat="45.5221552" lon="10.4813932"><ele>286.0</ele><time>2026-04-18T12:32:35.616Z</time></trkpt><trkpt lat="45.5220957" lon="10.4813238"><ele>286.0</ele><time>2026-04-18T12:32:40.616Z</time></trkpt><trkpt lat="45.5220392" lon="10.4812792"><ele>286.0</ele><time>2026-04-18T12:32:42.616Z</time></trkpt><trkpt lat="45.5219489" lon="10.4812721"><ele>286.0</ele><time>2026-04-18T12:32:48.615Z</time></trkpt><trkpt lat="45.5218641" lon="10.4812662"><ele>286.0</ele><time>2026-04-18T12:32:50.616Z</time></trkpt><trkpt lat="45.521788" lon="10.4812553"><ele>284.66666666666663</ele><time>2026-04-18T12:32:51.616Z</time></trkpt><trkpt lat="45.521681" lon="10.4812545"><ele>283.3333333333333</ele><time>2026-04-18T12:32:53.616Z</time></trkpt><trkpt lat="45.5215716" lon="10.4812402"><ele>282.0</ele><time>2026-04-18T12:32:55.616Z</time></trkpt><trkpt lat="45.5215021" lon="10.4812221"><ele>280.6666666666667</ele><time>2026-04-18T12:32:56.616Z</time></trkpt><trkpt lat="45.5214406" lon="10.481188"><ele>279.33333333333337</ele><time>2026-04-18T12:32:57.617Z</time></trkpt><trkpt lat="45.5213749" lon="10.4811636"><ele>278.0</ele><time>2026-04-18T12:32:58.615Z</time></trkpt><trkpt lat="45.5213152" lon="10.481135"><ele>275.4</ele><time>2026-04-18T12:32:59.615Z</time></trkpt><trkpt lat="45.521191" lon="10.4810906"><ele>272.8</ele><time>2026-04-18T12:33:01.617Z</time></trkpt><trkpt lat="45.5211189" lon="10.4810758"><ele>270.2</ele><time>2026-04-18T12:33:02.617Z</time></trkpt><trkpt lat="45.5210543" lon="10.4810567"><ele>267.6</ele><time>2026-04-18T12:33:03.616Z</time></trkpt><trkpt lat="45.5209355" lon="10.4810378"><ele>265.0</ele><time>2026-04-18T12:33:05.617Z</time></trkpt><trkpt lat="45.5208308" lon="10.4810295"><ele>265.0</ele><time>2026-04-18T12:33:07.616Z</time></trkpt><trkpt lat="45.5207395" lon="10.4810427"><ele>265.0</ele><time>2026-04-18T12:33:09.616Z</time></trkpt><trkpt lat="45.5206477" lon="10.48102"><ele>265.0</ele><time>2026-04-18T12:33:11.616Z</time></trkpt><trkpt lat="45.5205653" lon="10.4810219"><ele>265.0</ele><time>2026-04-18T12:33:13.616Z</time></trkpt><trkpt lat="45.520485" lon="10.4810267"><ele>265.0</ele><time>2026-04-18T12:33:16.617Z</time></trkpt><trkpt lat="45.5204135" lon="10.4810271"><ele>265.0</ele><time>2026-04-18T12:33:19.616Z</time></trkpt><trkpt lat="45.5203273" lon="10.4810362"><ele>263.0</ele><time>2026-04-18T12:33:26.617Z</time></trkpt><trkpt lat="45.5202116" lon="10.4809817"><ele>261.0</ele><time>2026-04-18T12:33:28.617Z</time></trkpt><trkpt lat="45.5201131" lon="10.480915"><ele>259.0</ele><time>2026-04-18T12:33:30.617Z</time></trkpt><trkpt lat="45.5200264" lon="10.4808011"><ele>257.0</ele><time>2026-04-18T12:33:32.615Z</time></trkpt><trkpt lat="45.5199533" lon="10.4806894"><ele>257.0</ele><time>2026-04-18T12:33:34.616Z</time></trkpt><trkpt lat="45.5198863" lon="10.480576"><ele>257.0</ele><time>2026-04-18T12:33:36.617Z</time></trkpt><trkpt lat="45.5198337" lon="10.4805216"><ele>257.0</ele><time>2026-04-18T12:33:39.617Z</time></trkpt><trkpt lat="45.519765" lon="10.4805491"><ele>257.0</ele><time>2026-04-18T12:33:43.616Z</time></trkpt><trkpt lat="45.5197238" lon="10.4806387"><ele>257.0</ele><time>2026-04-18T12:33:49.616Z</time></trkpt><trkpt lat="45.5196705" lon="10.48072"><ele>257.0</ele><time>2026-04-18T12:34:00.616Z</time></trkpt><trkpt lat="45.5196042" lon="10.4808383"><ele>255.50000000000003</ele><time>2026-04-18T12:34:02.616Z</time></trkpt><trkpt lat="45.5195243" lon="10.4809577"><ele>254.0</ele><time>2026-04-18T12:34:04.616Z</time></trkpt><trkpt lat="45.5194558" lon="10.4810396"><ele>252.5</ele><time>2026-04-18T12:34:06.617Z</time></trkpt><trkpt lat="45.5194034" lon="10.4811356"><ele>251.0</ele><time>2026-04-18T12:34:10.616Z</time></trkpt><trkpt lat="45.5193317" lon="10.48117"><ele>249.50000000000003</ele><time>2026-04-18T12:34:16.616Z</time></trkpt><trkpt lat="45.5193036" lon="10.481059"><ele>248.0</ele><time>2026-04-18T12:34:23.617Z</time></trkpt><trkpt lat="45.5192389" lon="10.4810323"><ele>248.0</ele><time>2026-04-18T12:34:29.615Z</time></trkpt><trkpt lat="45.5192126" lon="10.4811311"><ele>248.00000000000003</ele><time>2026-04-18T12:34:33.616Z</time></trkpt><trkpt lat="45.5192119" lon="10.4812498"><ele>248.0</ele><time>2026-04-18T12:34:38.616Z</time></trkpt><trkpt lat="45.519183" lon="10.4813426"><ele>248.0</ele><time>2026-04-18T12:34:40.616Z</time></trkpt><trkpt lat="45.5191675" lon="10.4814547"><ele>248.00000000000003</ele><time>2026-04-18T12:34:44.616Z</time></trkpt><trkpt lat="45.5191271" lon="10.4815251"><ele>248.0</ele><time>2026-04-18T12:34:47.616Z</time></trkpt><trkpt lat="45.5190592" lon="10.4815483"><ele>248.0</ele><time>2026-04-18T12:34:49.616Z</time></trkpt><trkpt lat="45.519026" lon="10.4817133"><ele>246.60000000000002</ele><time>2026-04-18T12:34:51.616Z</time></trkpt><trkpt lat="45.5190184" lon="10.4818116"><ele>245.20000000000002</ele><time>2026-04-18T12:34:52.616Z</time></trkpt><trkpt lat="45.5189701" lon="10.481969"><ele>243.8</ele><time>2026-04-18T12:34:54.615Z</time></trkpt><trkpt lat="45.5188509" lon="10.4820423"><ele>242.4</ele><time>2026-04-18T12:34:56.617Z</time></trkpt><trkpt lat="45.5187791" lon="10.4820395"><ele>241.0</ele><time>2026-04-18T12:34:57.616Z</time></trkpt><trkpt lat="45.518707" lon="10.4820161"><ele>241.0</ele><time>2026-04-18T12:34:58.616Z</time></trkpt><trkpt lat="45.5186261" lon="10.4819889"><ele>241.00000000000003</ele><time>2026-04-18T12:34:59.617Z</time></trkpt><trkpt lat="45.5185393" lon="10.4819722"><ele>241.00000000000003</ele><time>2026-04-18T12:35:00.617Z</time></trkpt><trkpt lat="45.5184472" lon="10.4819774"><ele>241.0</ele><time>2026-04-18T12:35:01.616Z</time></trkpt><trkpt lat="45.5183511" lon="10.4819771"><ele>241.0</ele><time>2026-04-18T12:35:02.616Z</time></trkpt><trkpt lat="45.5182527" lon="10.4819715"><ele>241.0</ele><time>2026-04-18T12:35:03.616Z</time></trkpt><trkpt lat="45.5181532" lon="10.4819662"><ele>241.0</ele><time>2026-04-18T12:35:04.616Z</time></trkpt><trkpt lat="45.5192119" lon="10.4812498"><ele>240.99999999999997</ele><time>2026-04-18T12:34:38.616Z</time></trkpt><trkpt lat="45.519183" lon="10.4813426"><ele>241.0</ele><time>2026-04-18T12:34:40.616Z</time></trkpt><trkpt lat="45.5191675" lon="10.4814547"><ele>241.0</ele><time>2026-04-18T12:34:44.616Z</time></trkpt><trkpt lat="45.5191271" lon="10.4815251"><ele>241.0</ele><time>2026-04-18T12:34:47.616Z</time></trkpt><trkpt lat="45.5190592" lon="10.4815483"><ele>240.99999999999997</ele><time>2026-04-18T12:34:49.616Z</time></trkpt><trkpt lat="45.519026" lon="10.4817133"><ele>241.0</ele><time>2026-04-18T12:34:51.616Z</time></trkpt><trkpt lat="45.5190184" lon="10.4818116"><ele>241.0</ele><time>2026-04-18T12:34:52.616Z</time></trkpt><trkpt lat="45.5189701" lon="10.481969"><ele>241.00000000000003</ele><time>2026-04-18T12:34:54.615Z</time></trkpt><trkpt lat="45.5188509" lon="10.4820423"><ele>241.00000000000003</ele><time>2026-04-18T12:34:56.617Z</time></trkpt><trkpt lat="45.5187791" lon="10.4820395"><ele>241.0</ele><time>2026-04-18T12:34:57.616Z</time></trkpt><trkpt lat="45.518707" lon="10.4820161"><ele>241.0</ele><time>2026-04-18T12:34:58.616Z</time></trkpt><trkpt lat="45.5186261" lon="10.4819889"><ele>241.0</ele><time>2026-04-18T12:34:59.617Z</time></trkpt><trkpt lat="45.5185393" lon="10.4819722"><ele>241.00000000000003</ele><time>2026-04-18T12:35:00.617Z</time></trkpt><trkpt lat="45.5184472" lon="10.4819774"><ele>241.00000000000003</ele><time>2026-04-18T12:35:01.616Z</time></trkpt><trkpt lat="45.5183511" lon="10.4819771"><ele>241.0</ele><time>2026-04-18T12:35:02.616Z</time></trkpt><trkpt lat="45.5182527" lon="10.4819715"><ele>241.0</ele><time>2026-04-18T12:35:03.616Z</time></trkpt><trkpt lat="45.5181532" lon="10.4819662"><ele>241.0</ele><time>2026-04-18T12:35:04.616Z</time></trkpt><trkpt lat="45.5180542" lon="10.4819747"><ele>241.00000000000003</ele><time>2026-04-18T12:35:05.617Z</time></trkpt><trkpt lat="45.5179606" lon="10.4820285"><ele>241.00000000000003</ele><time>2026-04-18T12:35:06.616Z</time></trkpt><trkpt lat="45.5178732" lon="10.4820994"><ele>241.0</ele><time>2026-04-18T12:35:07.616Z</time></trkpt><trkpt lat="45.5177904" lon="10.4821718"><ele>241.0</ele><time>2026-04-18T12:35:08.616Z</time></trkpt><trkpt lat="45.5177182" lon="10.4822238"><ele>241.20000000000002</ele><time>2026-04-18T12:35:09.615Z</time></trkpt><trkpt lat="45.5176544" lon="10.482259"><ele>241.40000000000003</ele><time>2026-04-18T12:35:10.616Z</time></trkpt><trkpt lat="45.5175255" lon="10.4821979"><ele>241.6</ele><time>2026-04-18T12:35:12.616Z</time></trkpt><trkpt lat="45.5174511" lon="10.4821376"><ele>241.8</ele><time>2026-04-18T12:35:13.615Z</time></trkpt><trkpt lat="45.5173661" lon="10.4820951"><ele>242.0</ele><time>2026-04-18T12:35:14.615Z</time></trkpt><trkpt lat="45.5172768" lon="10.4820629"><ele>242.0</ele><time>2026-04-18T12:35:15.616Z</time></trkpt><trkpt lat="45.5171878" lon="10.4820404"><ele>242.0</ele><time>2026-04-18T12:35:16.616Z</time></trkpt><trkpt lat="45.5171051" lon="10.4820141"><ele>242.0</ele><time>2026-04-18T12:35:17.616Z</time></trkpt><trkpt lat="45.5170184" lon="10.4819767"><ele>242.0</ele><time>2026-04-18T12:35:18.616Z</time></trkpt><trkpt lat="45.5169286" lon="10.4819345"><ele>242.0</ele><time>2026-04-18T12:35:19.616Z</time></trkpt><trkpt lat="45.5168389" lon="10.4818908"><ele>240.2</ele><time>2026-04-18T12:35:20.615Z</time></trkpt><trkpt lat="45.5167424" lon="10.4818499"><ele>238.39999999999998</ele><time>2026-04-18T12:35:21.616Z</time></trkpt><trkpt lat="45.5166495" lon="10.4818096"><ele>236.60000000000002</ele><time>2026-04-18T12:35:22.616Z</time></trkpt><trkpt lat="45.5165531" lon="10.4817715"><ele>234.8</ele><time>2026-04-18T12:35:23.616Z</time></trkpt><trkpt lat="45.5164643" lon="10.4817282"><ele>233.0</ele><time>2026-04-18T12:35:24.616Z</time></trkpt><trkpt lat="45.5163753" lon="10.4816901"><ele>233.0</ele><time>2026-04-18T12:35:25.617Z</time></trkpt><trkpt lat="45.5162805" lon="10.481661"><ele>233.0</ele><time>2026-04-18T12:35:26.615Z</time></trkpt><trkpt lat="45.5161755" lon="10.4816426"><ele>233.0</ele><time>2026-04-18T12:35:27.616Z</time></trkpt><trkpt lat="45.5160711" lon="10.4816158"><ele>233.0</ele><time>2026-04-18T12:35:28.617Z</time></trkpt><trkpt lat="45.5159641" lon="10.4815708"><ele>233.0</ele><time>2026-04-18T12:35:29.616Z</time></trkpt><trkpt lat="45.5158616" lon="10.4815282"><ele>231.8</ele><time>2026-04-18T12:35:30.616Z</time></trkpt><trkpt lat="45.5157546" lon="10.4814978"><ele>230.60000000000002</ele><time>2026-04-18T12:35:31.615Z</time></trkpt><trkpt lat="45.5156512" lon="10.4814745"><ele>229.39999999999998</ele><time>2026-04-18T12:35:32.616Z</time></trkpt><trkpt lat="45.5155457" lon="10.4814553"><ele>228.2</ele><time>2026-04-18T12:35:33.616Z</time></trkpt><trkpt lat="45.5154374" lon="10.4814364"><ele>227.0</ele><time>2026-04-18T12:35:34.615Z</time></trkpt><trkpt lat="45.515326" lon="10.4814235"><ele>226.6</ele><time>2026-04-18T12:35:35.615Z</time></trkpt><trkpt lat="45.5152177" lon="10.4814178"><ele>226.2</ele><time>2026-04-18T12:35:36.616Z</time></trkpt><trkpt lat="45.5151088" lon="10.4814281"><ele>225.8</ele><time>2026-04-18T12:35:37.615Z</time></trkpt><trkpt lat="45.5149965" lon="10.4814464"><ele>225.4</ele><time>2026-04-18T12:35:38.615Z</time></trkpt><trkpt lat="45.5148825" lon="10.4814728"><ele>225.0</ele><time>2026-04-18T12:35:39.616Z</time></trkpt><trkpt lat="45.5147691" lon="10.4815056"><ele>225.0</ele><time>2026-04-18T12:35:40.616Z</time></trkpt><trkpt lat="45.5146561" lon="10.4815351"><ele>225.0</ele><time>2026-04-18T12:35:41.615Z</time></trkpt><trkpt lat="45.5145395" lon="10.4815548"><ele>225.0</ele><time>2026-04-18T12:35:42.614Z</time></trkpt><trkpt lat="45.5144331" lon="10.4815656"><ele>225.0</ele><time>2026-04-18T12:35:43.615Z</time></trkpt><trkpt lat="45.5143417" lon="10.4815613"><ele>225.0</ele><time>2026-04-18T12:35:44.615Z</time></trkpt><trkpt lat="45.5142658" lon="10.4815732"><ele>224.83333333333334</ele><time>2026-04-18T12:35:45.616Z</time></trkpt><trkpt lat="45.5142006" lon="10.4816145"><ele>224.66666666666669</ele><time>2026-04-18T12:35:46.616Z</time></trkpt><trkpt lat="45.5141357" lon="10.4816744"><ele>224.5</ele><time>2026-04-18T12:35:47.615Z</time></trkpt><trkpt lat="45.51407" lon="10.4817226"><ele>224.33333333333334</ele><time>2026-04-18T12:35:48.615Z</time></trkpt><trkpt lat="45.5139703" lon="10.4817497"><ele>224.16666666666669</ele><time>2026-04-18T12:35:50.616Z</time></trkpt><trkpt lat="45.5139162" lon="10.4818355"><ele>224.0</ele><time>2026-04-18T12:35:54.616Z</time></trkpt><trkpt lat="45.5139007" lon="10.4819578"><ele>224.00000000000003</ele><time>2026-04-18T12:35:56.616Z</time></trkpt><trkpt lat="45.5138476" lon="10.4820469"><ele>224.0</ele><time>2026-04-18T12:35:58.615Z</time></trkpt><trkpt lat="45.5137828" lon="10.4820692"><ele>224.0</ele><time>2026-04-18T12:36:02.615Z</time></trkpt><trkpt lat="45.5137426" lon="10.4821475"><ele>224.0</ele><time>2026-04-18T12:36:04.615Z</time></trkpt><trkpt lat="45.5137141" lon="10.4823118"><ele>224.00000000000003</ele><time>2026-04-18T12:36:06.615Z</time></trkpt><trkpt lat="45.5136953" lon="10.4824056"><ele>224.0</ele><time>2026-04-18T12:36:07.616Z</time></trkpt><trkpt lat="45.5136755" lon="10.4824994"><ele>221.50000000000003</ele><time>2026-04-18T12:36:08.616Z</time></trkpt><trkpt lat="45.5136618" lon="10.4825905"><ele>219.0</ele><time>2026-04-18T12:36:09.616Z</time></trkpt><trkpt lat="45.5136541" lon="10.4827558"><ele>216.5</ele><time>2026-04-18T12:36:11.616Z</time></trkpt><trkpt lat="45.5136312" lon="10.4828752"><ele>214.0</ele><time>2026-04-18T12:36:13.617Z</time></trkpt><trkpt lat="45.5136589" lon="10.482794"><ele>211.50000000000003</ele><time>2026-04-18T12:36:17.615Z</time></trkpt><trkpt lat="45.5136637" lon="10.4826536"><ele>209.0</ele><time>2026-04-18T12:36:19.616Z</time></trkpt><trkpt lat="45.513676" lon="10.4824913"><ele>209.0</ele><time>2026-04-18T12:36:21.616Z</time></trkpt><trkpt lat="45.513707" lon="10.4823352"><ele>209.0</ele><time>2026-04-18T12:36:23.615Z</time></trkpt><trkpt lat="45.513737" lon="10.4822044"><ele>209.0</ele><time>2026-04-18T12:36:25.616Z</time></trkpt><trkpt lat="45.5137164" lon="10.4820457"><ele>209.0</ele><time>2026-04-18T12:36:27.616Z</time></trkpt><trkpt lat="45.5136434" lon="10.4819367"><ele>209.0</ele><time>2026-04-18T12:36:29.615Z</time></trkpt><trkpt lat="45.5135802" lon="10.4819007"><ele>210.79999999999998</ele><time>2026-04-18T12:36:30.617Z</time></trkpt><trkpt lat="45.5135011" lon="10.4818682"><ele>212.6</ele><time>2026-04-18T12:36:31.616Z</time></trkpt><trkpt lat="45.5134134" lon="10.4818364"><ele>214.4</ele><time>2026-04-18T12:36:32.615Z</time></trkpt><trkpt lat="45.5133233" lon="10.4817974"><ele>216.2</ele><time>2026-04-18T12:36:33.615Z</time></trkpt><trkpt lat="45.5132313" lon="10.4817564"><ele>218.0</ele><time>2026-04-18T12:36:34.614Z</time></trkpt><trkpt lat="45.5131333" lon="10.4817147"><ele>218.0</ele><time>2026-04-18T12:36:35.616Z</time></trkpt><trkpt lat="45.5130437" lon="10.4816717"><ele>218.0</ele><time>2026-04-18T12:36:36.616Z</time></trkpt><trkpt lat="45.512957" lon="10.4816305"><ele>218.0</ele><time>2026-04-18T12:36:37.617Z</time></trkpt><trkpt lat="45.512871" lon="10.481587"><ele>218.0</ele><time>2026-04-18T12:36:38.615Z</time></trkpt><trkpt lat="45.5127873" lon="10.4815425"><ele>218.0</ele><time>2026-04-18T12:36:39.616Z</time></trkpt><trkpt lat="45.5127046" lon="10.4815084"><ele>217.00000000000003</ele><time>2026-04-18T12:36:40.614Z</time></trkpt><trkpt lat="45.5126262" lon="10.4814825"><ele>216.0</ele><time>2026-04-18T12:36:41.615Z</time></trkpt><trkpt lat="45.5125493" lon="10.4814569"><ele>215.0</ele><time>2026-04-18T12:36:42.615Z</time></trkpt><trkpt lat="45.5124726" lon="10.4814233"><ele>214.0</ele><time>2026-04-18T12:36:43.616Z</time></trkpt><trkpt lat="45.5123944" lon="10.4813827"><ele>213.00000000000003</ele><time>2026-04-18T12:36:44.615Z</time></trkpt><trkpt lat="45.5123147" lon="10.4813443"><ele>212.0</ele><time>2026-04-18T12:36:45.615Z</time></trkpt><trkpt lat="45.5122328" lon="10.4813023"><ele>213.00000000000003</ele><time>2026-04-18T12:36:46.616Z</time></trkpt><trkpt lat="45.5121489" lon="10.4812621"><ele>214.0</ele><time>2026-04-18T12:36:47.615Z</time></trkpt><trkpt lat="45.5120631" lon="10.4812197"><ele>215.0</ele><time>2026-04-18T12:36:48.614Z</time></trkpt><trkpt lat="45.511982" lon="10.481165"><ele>216.0</ele><time>2026-04-18T12:36:49.616Z</time></trkpt><trkpt lat="45.5119086" lon="10.4810972"><ele>217.00000000000003</ele><time>2026-04-18T12:36:50.615Z</time></trkpt><trkpt lat="45.511833" lon="10.4810209"><ele>218.0</ele><time>2026-04-18T12:36:51.615Z</time></trkpt><trkpt lat="45.5117641" lon="10.4809296"><ele>218.0</ele><time>2026-04-18T12:36:52.616Z</time></trkpt><trkpt lat="45.5116972" lon="10.4808402"><ele>218.0</ele><time>2026-04-18T12:36:53.617Z</time></trkpt><trkpt lat="45.5116344" lon="10.4807515"><ele>218.0</ele><time>2026-04-18T12:36:54.615Z</time></trkpt><trkpt lat="45.5115829" lon="10.4806434"><ele>218.0</ele><time>2026-04-18T12:36:55.616Z</time></trkpt><trkpt lat="45.5115242" lon="10.4805424"><ele>218.0</ele><time>2026-04-18T12:36:56.617Z</time></trkpt><trkpt lat="45.5114709" lon="10.4804276"><ele>219.25</ele><time>2026-04-18T12:36:57.616Z</time></trkpt><trkpt lat="45.5114174" lon="10.480315"><ele>220.5</ele><time>2026-04-18T12:36:58.616Z</time></trkpt><trkpt lat="45.5113187" lon="10.4800927"><ele>221.75</ele><time>2026-04-18T12:37:00.617Z</time></trkpt><trkpt lat="45.5112936" lon="10.47995"><ele>223.0</ele><time>2026-04-18T12:37:01.615Z</time></trkpt><trkpt lat="45.5112645" lon="10.4798217"><ele>223.0</ele><time>2026-04-18T12:37:02.616Z</time></trkpt><trkpt lat="45.5112418" lon="10.4796786"><ele>223.0</ele><time>2026-04-18T12:37:03.616Z</time></trkpt><trkpt lat="45.5112145" lon="10.4795505"><ele>223.0</ele><time>2026-04-18T12:37:04.616Z</time></trkpt><trkpt lat="45.5112068" lon="10.4794112"><ele>223.0</ele><time>2026-04-18T12:37:05.615Z</time></trkpt><trkpt lat="45.5111988" lon="10.4792776"><ele>223.0</ele><time>2026-04-18T12:37:06.616Z</time></trkpt><trkpt lat="45.5111906" lon="10.4791578"><ele>221.66666666666666</ele><time>2026-04-18T12:37:07.615Z</time></trkpt><trkpt lat="45.5111935" lon="10.4790286"><ele>220.33333333333331</ele><time>2026-04-18T12:37:08.616Z</time></trkpt><trkpt lat="45.511196" lon="10.4789137"><ele>219.0</ele><time>2026-04-18T12:37:09.616Z</time></trkpt><trkpt lat="45.5111997" lon="10.4788077"><ele>217.66666666666669</ele><time>2026-04-18T12:37:10.615Z</time></trkpt><trkpt lat="45.5112249" lon="10.4786542"><ele>216.33333333333334</ele><time>2026-04-18T12:37:12.615Z</time></trkpt><trkpt lat="45.511221" lon="10.4785482"><ele>215.0</ele><time>2026-04-18T12:37:14.616Z</time></trkpt><trkpt lat="45.5111112" lon="10.4785092"><ele>215.00000000000003</ele><time>2026-04-18T12:37:17.616Z</time></trkpt><trkpt lat="45.5110437" lon="10.4785151"><ele>215.0</ele><time>2026-04-18T12:37:18.617Z</time></trkpt><trkpt lat="45.5109372" lon="10.4785438"><ele>215.0</ele><time>2026-04-18T12:37:20.616Z</time></trkpt><trkpt lat="45.5108649" lon="10.4785507"><ele>215.0</ele><time>2026-04-18T12:37:22.615Z</time></trkpt><trkpt lat="45.5108049" lon="10.4786348"><ele>215.00000000000003</ele><time>2026-04-18T12:37:25.616Z</time></trkpt><trkpt lat="45.5107405" lon="10.4787452"><ele>215.0</ele><time>2026-04-18T12:37:27.616Z</time></trkpt><trkpt lat="45.5106884" lon="10.4788594"><ele>215.00000000000003</ele><time>2026-04-18T12:37:29.617Z</time></trkpt><trkpt lat="45.5106888" lon="10.4790268"><ele>215.0</ele><time>2026-04-18T12:37:31.616Z</time></trkpt><trkpt lat="45.5106746" lon="10.4791885"><ele>215.0</ele><time>2026-04-18T12:37:33.615Z</time></trkpt><trkpt lat="45.5106607" lon="10.4792794"><ele>215.0</ele><time>2026-04-18T12:37:34.616Z</time></trkpt><trkpt lat="45.5106706" lon="10.4793741"><ele>215.00000000000003</ele><time>2026-04-18T12:37:35.616Z</time></trkpt><trkpt lat="45.5106889" lon="10.4794746"><ele>215.0</ele><time>2026-04-18T12:37:36.616Z</time></trkpt><trkpt lat="45.5106964" lon="10.4795853"><ele>215.66666666666669</ele><time>2026-04-18T12:37:37.616Z</time></trkpt><trkpt lat="45.5106995" lon="10.4796943"><ele>216.33333333333334</ele><time>2026-04-18T12:37:38.615Z</time></trkpt><trkpt lat="45.510709" lon="10.479806"><ele>217.0</ele><time>2026-04-18T12:37:39.617Z</time></trkpt><trkpt lat="45.5107252" lon="10.4799161"><ele>217.66666666666669</ele><time>2026-04-18T12:37:40.616Z</time></trkpt><trkpt lat="45.5107382" lon="10.4800183"><ele>218.33333333333334</ele><time>2026-04-18T12:37:41.616Z</time></trkpt><trkpt lat="45.5107564" lon="10.4801221"><ele>219.0</ele><time>2026-04-18T12:37:42.616Z</time></trkpt><trkpt lat="45.5107701" lon="10.4802258"><ele>219.0</ele><time>2026-04-18T12:37:43.616Z</time></trkpt><trkpt lat="45.51079" lon="10.4803348"><ele>219.0</ele><time>2026-04-18T12:37:44.615Z</time></trkpt><trkpt lat="45.5108133" lon="10.4804348"><ele>219.0</ele><time>2026-04-18T12:37:45.616Z</time></trkpt><trkpt lat="45.5108432" lon="10.480528"><ele>219.0</ele><time>2026-04-18T12:37:46.615Z</time></trkpt><trkpt lat="45.5108545" lon="10.4806186"><ele>219.0</ele><time>2026-04-18T12:37:47.617Z</time></trkpt><trkpt lat="45.5108227" lon="10.480767"><ele>219.0</ele><time>2026-04-18T12:37:49.616Z</time></trkpt><trkpt lat="45.5107044" lon="10.4808043"><ele>220.0</ele><time>2026-04-18T12:37:51.616Z</time></trkpt><trkpt lat="45.5106289" lon="10.4807748"><ele>221.0</ele><time>2026-04-18T12:37:52.615Z</time></trkpt><trkpt lat="45.5105551" lon="10.4807494"><ele>222.0</ele><time>2026-04-18T12:37:53.616Z</time></trkpt><trkpt lat="45.5104732" lon="10.480735"><ele>223.0</ele><time>2026-04-18T12:37:54.616Z</time></trkpt><trkpt lat="45.510378" lon="10.4807204"><ele>224.0</ele><time>2026-04-18T12:37:55.614Z</time></trkpt><trkpt lat="45.5102818" lon="10.4807053"><ele>225.0</ele><time>2026-04-18T12:37:56.615Z</time></trkpt><trkpt lat="45.5101982" lon="10.4806957"><ele>225.0</ele><time>2026-04-18T12:37:57.615Z</time></trkpt><trkpt lat="45.5101263" lon="10.4806935"><ele>225.0</ele><time>2026-04-18T12:37:58.615Z</time></trkpt><trkpt lat="45.5100635" lon="10.4806849"><ele>225.0</ele><time>2026-04-18T12:37:59.615Z</time></trkpt><trkpt lat="45.509979" lon="10.4806498"><ele>225.0</ele><time>2026-04-18T12:38:01.615Z</time></trkpt><trkpt lat="45.5099232" lon="10.4806029"><ele>225.0</ele><time>2026-04-18T12:38:04.615Z</time></trkpt><trkpt lat="45.5099006" lon="10.4804926"><ele>225.0</ele><time>2026-04-18T12:38:06.616Z</time></trkpt><trkpt lat="45.5098644" lon="10.4803529"><ele>224.66666666666666</ele><time>2026-04-18T12:38:08.614Z</time></trkpt><trkpt lat="45.5098333" lon="10.4802682"><ele>224.33333333333331</ele><time>2026-04-18T12:38:09.616Z</time></trkpt><trkpt lat="45.5097858" lon="10.4801733"><ele>224.0</ele><time>2026-04-18T12:38:10.616Z</time></trkpt><trkpt lat="45.5097449" lon="10.4800949"><ele>223.66666666666666</ele><time>2026-04-18T12:38:11.616Z</time></trkpt><trkpt lat="45.5096545" lon="10.4800276"><ele>223.33333333333331</ele><time>2026-04-18T12:38:13.615Z</time></trkpt><trkpt lat="45.5095732" lon="10.4800163"><ele>223.0</ele><time>2026-04-18T12:38:25.615Z</time></trkpt><trkpt lat="45.50945" lon="10.480009"><ele>222.49999999999997</ele><time>2026-04-18T12:38:27.616Z</time></trkpt><trkpt lat="45.509381" lon="10.4800075"><ele>222.0</ele><time>2026-04-18T12:38:28.615Z</time></trkpt><trkpt lat="45.5093023" lon="10.479983"><ele>221.5</ele><time>2026-04-18T12:38:29.615Z</time></trkpt><trkpt lat="45.5092235" lon="10.4799659"><ele>221.0</ele><time>2026-04-18T12:38:30.614Z</time></trkpt><trkpt lat="45.5091401" lon="10.47995"><ele>220.49999999999997</ele><time>2026-04-18T12:38:31.615Z</time></trkpt><trkpt lat="45.5090534" lon="10.4799419"><ele>220.0</ele><time>2026-04-18T12:38:32.616Z</time></trkpt><trkpt lat="45.5089686" lon="10.4799264"><ele>219.99999999999997</ele><time>2026-04-18T12:38:33.615Z</time></trkpt><trkpt lat="45.5088849" lon="10.479917"><ele>220.0</ele><time>2026-04-18T12:38:34.615Z</time></trkpt><trkpt lat="45.5087982" lon="10.4799092"><ele>220.0</ele><time>2026-04-18T12:38:35.615Z</time></trkpt><trkpt lat="45.5087091" lon="10.4798923"><ele>220.0</ele><time>2026-04-18T12:38:36.616Z</time></trkpt><trkpt lat="45.5086201" lon="10.4798808"><ele>219.99999999999997</ele><time>2026-04-18T12:38:37.614Z</time></trkpt><trkpt lat="45.5085331" lon="10.479868"><ele>220.0</ele><time>2026-04-18T12:38:38.615Z</time></trkpt><trkpt lat="45.508445" lon="10.4798537"><ele>219.6</ele><time>2026-04-18T12:38:39.616Z</time></trkpt><trkpt lat="45.508354" lon="10.4798432"><ele>219.2</ele><time>2026-04-18T12:38:40.616Z</time></trkpt><trkpt lat="45.5082635" lon="10.4798277"><ele>218.8</ele><time>2026-04-18T12:38:41.615Z</time></trkpt><trkpt lat="45.5081704" lon="10.4798073"><ele>218.4</ele><time>2026-04-18T12:38:42.615Z</time></trkpt><trkpt lat="45.5080826" lon="10.4798179"><ele>218.0</ele><time>2026-04-18T12:38:43.615Z</time></trkpt><trkpt lat="45.5079588" lon="10.4798062"><ele>217.33333333333334</ele><time>2026-04-18T12:38:45.615Z</time></trkpt><trkpt lat="45.5078941" lon="10.4797963"><ele>216.66666666666669</ele><time>2026-04-18T12:38:46.615Z</time></trkpt><trkpt lat="45.5078322" lon="10.4797762"><ele>216.0</ele><time>2026-04-18T12:38:47.615Z</time></trkpt><trkpt lat="45.5077677" lon="10.4797487"><ele>215.33333333333331</ele><time>2026-04-18T12:38:48.614Z</time></trkpt><trkpt lat="45.507699" lon="10.4796791"><ele>214.66666666666666</ele><time>2026-04-18T12:38:49.615Z</time></trkpt><trkpt lat="45.5076039" lon="10.4796201"><ele>214.0</ele><time>2026-04-18T12:38:50.614Z</time></trkpt><trkpt lat="45.5074921" lon="10.4795971"><ele>213.79999999999998</ele><time>2026-04-18T12:38:51.614Z</time></trkpt><trkpt lat="45.5073854" lon="10.4795682"><ele>213.59999999999997</ele><time>2026-04-18T12:38:52.615Z</time></trkpt><trkpt lat="45.5072819" lon="10.4795333"><ele>213.4</ele><time>2026-04-18T12:38:53.614Z</time></trkpt><trkpt lat="45.5071748" lon="10.4795024"><ele>213.2</ele><time>2026-04-18T12:38:54.614Z</time></trkpt><trkpt lat="45.5070678" lon="10.4794661"><ele>213.0</ele><time>2026-04-18T12:38:55.616Z</time></trkpt><trkpt lat="45.5069668" lon="10.4794116"><ele>212.0</ele><time>2026-04-18T12:38:56.615Z</time></trkpt><trkpt lat="45.5068723" lon="10.4793474"><ele>211.0</ele><time>2026-04-18T12:38:57.615Z</time></trkpt><trkpt lat="45.5067767" lon="10.4792949"><ele>210.0</ele><time>2026-04-18T12:38:58.615Z</time></trkpt><trkpt lat="45.5066865" lon="10.4792446"><ele>209.0</ele><time>2026-04-18T12:38:59.615Z</time></trkpt><trkpt lat="45.506595" lon="10.479181"><ele>208.0</ele><time>2026-04-18T12:39:00.615Z</time></trkpt><trkpt lat="45.5064949" lon="10.4791457"><ele>208.0</ele><time>2026-04-18T12:39:01.615Z</time></trkpt><trkpt lat="45.5063971" lon="10.4791219"><ele>208.0</ele><time>2026-04-18T12:39:02.615Z</time></trkpt><trkpt lat="45.5062981" lon="10.479087"><ele>208.0</ele><time>2026-04-18T12:39:03.616Z</time></trkpt><trkpt lat="45.5061962" lon="10.4790387"><ele>208.0</ele><time>2026-04-18T12:39:04.616Z</time></trkpt><trkpt lat="45.5060912" lon="10.4789999"><ele>208.0</ele><time>2026-04-18T12:39:05.615Z</time></trkpt><trkpt lat="45.5059821" lon="10.4789531"><ele>207.99999999999997</ele><time>2026-04-18T12:39:06.615Z</time></trkpt><trkpt lat="45.5058789" lon="10.4789054"><ele>208.0</ele><time>2026-04-18T12:39:07.614Z</time></trkpt><trkpt lat="45.5057911" lon="10.478853"><ele>208.0</ele><time>2026-04-18T12:39:08.615Z</time></trkpt><trkpt lat="45.505712" lon="10.4788042"><ele>208.0</ele><time>2026-04-18T12:39:09.616Z</time></trkpt><trkpt lat="45.5056553" lon="10.4787543"><ele>207.99999999999997</ele><time>2026-04-18T12:39:10.616Z</time></trkpt><trkpt lat="45.5056254" lon="10.4786536"><ele>208.0</ele><time>2026-04-18T12:39:12.615Z</time></trkpt><trkpt lat="45.5056779" lon="10.4785644"><ele>207.99999999999997</ele><time>2026-04-18T12:39:14.616Z</time></trkpt><trkpt lat="45.5057227" lon="10.4785002"><ele>208.0</ele><time>2026-04-18T12:39:15.616Z</time></trkpt><trkpt lat="45.5057772" lon="10.4784234"><ele>208.0</ele><time>2026-04-18T12:39:16.616Z</time></trkpt><trkpt lat="45.5058323" lon="10.4783336"><ele>208.0</ele><time>2026-04-18T12:39:17.615Z</time></trkpt><trkpt lat="45.5058872" lon="10.4782356"><ele>207.99999999999997</ele><time>2026-04-18T12:39:18.615Z</time></trkpt><trkpt lat="45.5059315" lon="10.4781159"><ele>208.0</ele><time>2026-04-18T12:39:19.615Z</time></trkpt><trkpt lat="45.5059656" lon="10.4779784"><ele>208.4</ele><time>2026-04-18T12:39:20.615Z</time></trkpt><trkpt lat="45.5060023" lon="10.4778334"><ele>208.8</ele><time>2026-04-18T12:39:21.615Z</time></trkpt><trkpt lat="45.5060358" lon="10.4776877"><ele>209.2</ele><time>2026-04-18T12:39:22.615Z</time></trkpt><trkpt lat="45.5060578" lon="10.4775388"><ele>209.6</ele><time>2026-04-18T12:39:23.615Z</time></trkpt><trkpt lat="45.5060693" lon="10.4773851"><ele>210.0</ele><time>2026-04-18T12:39:24.614Z</time></trkpt><trkpt lat="45.5060786" lon="10.4772282"><ele>209.0</ele><time>2026-04-18T12:39:25.614Z</time></trkpt><trkpt lat="45.5060819" lon="10.4770719"><ele>208.0</ele><time>2026-04-18T12:39:26.614Z</time></trkpt><trkpt lat="45.5060792" lon="10.4769157"><ele>207.0</ele><time>2026-04-18T12:39:27.616Z</time></trkpt><trkpt lat="45.5060746" lon="10.4767599"><ele>206.0</ele><time>2026-04-18T12:39:28.615Z</time></trkpt><trkpt lat="45.5060656" lon="10.4766028"><ele>205.0</ele><time>2026-04-18T12:39:29.615Z</time></trkpt><trkpt lat="45.5060581" lon="10.4764459"><ele>205.0</ele><time>2026-04-18T12:39:30.615Z</time></trkpt><trkpt lat="45.506058" lon="10.4762912"><ele>205.0</ele><time>2026-04-18T12:39:31.615Z</time></trkpt><trkpt lat="45.5060635" lon="10.4761356"><ele>205.0</ele><time>2026-04-18T12:39:32.615Z</time></trkpt><trkpt lat="45.5060691" lon="10.4759842"><ele>205.0</ele><time>2026-04-18T12:39:33.616Z</time></trkpt><trkpt lat="45.5060854" lon="10.4758257"><ele>205.0</ele><time>2026-04-18T12:39:34.615Z</time></trkpt><trkpt lat="45.506115" lon="10.4756775"><ele>204.0</ele><time>2026-04-18T12:39:35.615Z</time></trkpt><trkpt lat="45.5061427" lon="10.4755383"><ele>203.0</ele><time>2026-04-18T12:39:36.615Z</time></trkpt><trkpt lat="45.5061606" lon="10.4753908"><ele>202.0</ele><time>2026-04-18T12:39:37.615Z</time></trkpt><trkpt lat="45.5061785" lon="10.4752459"><ele>201.0</ele><time>2026-04-18T12:39:38.615Z</time></trkpt><trkpt lat="45.5061972" lon="10.4751244"><ele>200.0</ele><time>2026-04-18T12:39:39.615Z</time></trkpt><trkpt lat="45.5062108" lon="10.4750191"><ele>199.0</ele><time>2026-04-18T12:39:40.614Z</time></trkpt><trkpt lat="45.5062119" lon="10.4749286"><ele>198.0</ele><time>2026-04-18T12:39:41.614Z</time></trkpt><trkpt lat="45.506157" lon="10.4747821"><ele>197.0</ele><time>2026-04-18T12:39:43.615Z</time></trkpt><trkpt lat="45.5060804" lon="10.4746811"><ele>196.0</ele><time>2026-04-18T12:39:45.615Z</time></trkpt><trkpt lat="45.5059851" lon="10.4745781"><ele>195.0</ele><time>2026-04-18T12:39:47.614Z</time></trkpt><trkpt lat="45.505929" lon="10.47452"><ele>194.83333333333334</ele><time>2026-04-18T12:39:48.614Z</time></trkpt><trkpt lat="45.5058768" lon="10.4744417"><ele>194.66666666666669</ele><time>2026-04-18T12:39:49.615Z</time></trkpt><trkpt lat="45.5058356" lon="10.47434"><ele>194.5</ele><time>2026-04-18T12:39:50.615Z</time></trkpt><trkpt lat="45.5058075" lon="10.4742204"><ele>194.33333333333334</ele><time>2026-04-18T12:39:51.614Z</time></trkpt><trkpt lat="45.5057883" lon="10.474092"><ele>194.16666666666669</ele><time>2026-04-18T12:39:52.615Z</time></trkpt><trkpt lat="45.5057683" lon="10.4739627"><ele>194.0</ele><time>2026-04-18T12:39:53.616Z</time></trkpt><trkpt lat="45.5057572" lon="10.4738311"><ele>194.0</ele><time>2026-04-18T12:39:54.615Z</time></trkpt><trkpt lat="45.5057366" lon="10.473695"><ele>194.0</ele><time>2026-04-18T12:39:55.615Z</time></trkpt><trkpt lat="45.5057116" lon="10.4735743"><ele>194.0</ele><time>2026-04-18T12:39:56.615Z</time></trkpt><trkpt lat="45.5056842" lon="10.4734496"><ele>194.0</ele><time>2026-04-18T12:39:57.616Z</time></trkpt><trkpt lat="45.5056563" lon="10.4733303"><ele>194.0</ele><time>2026-04-18T12:39:58.616Z</time></trkpt><trkpt lat="45.5056146" lon="10.4732165"><ele>194.00000000000003</ele><time>2026-04-18T12:39:59.615Z</time></trkpt><trkpt lat="45.5055661" lon="10.4731206"><ele>194.0</ele><time>2026-04-18T12:40:00.616Z</time></trkpt><trkpt lat="45.5055102" lon="10.4730542"><ele>194.0</ele><time>2026-04-18T12:40:01.615Z</time></trkpt><trkpt lat="45.5054063" lon="10.47301"><ele>194.0</ele><time>2026-04-18T12:40:03.614Z</time></trkpt><trkpt lat="45.5053527" lon="10.4730883"><ele>194.00000000000003</ele><time>2026-04-18T12:40:04.615Z</time></trkpt><trkpt lat="45.5052975" lon="10.4731766"><ele>194.0</ele><time>2026-04-18T12:40:05.615Z</time></trkpt><trkpt lat="45.5052398" lon="10.4732592"><ele>194.16666666666669</ele><time>2026-04-18T12:40:06.613Z</time></trkpt><trkpt lat="45.5051823" lon="10.4733436"><ele>194.33333333333334</ele><time>2026-04-18T12:40:07.614Z</time></trkpt><trkpt lat="45.5051167" lon="10.4734321"><ele>194.5</ele><time>2026-04-18T12:40:08.614Z</time></trkpt><trkpt lat="45.5050516" lon="10.4735207"><ele>194.66666666666669</ele><time>2026-04-18T12:40:09.615Z</time></trkpt><trkpt lat="45.5049856" lon="10.473598"><ele>194.83333333333334</ele><time>2026-04-18T12:40:10.614Z</time></trkpt><trkpt lat="45.5049203" lon="10.4736742"><ele>195.0</ele><time>2026-04-18T12:40:11.614Z</time></trkpt><trkpt lat="45.5048526" lon="10.4737586"><ele>194.83333333333334</ele><time>2026-04-18T12:40:12.616Z</time></trkpt><trkpt lat="45.5047829" lon="10.4738358"><ele>194.66666666666669</ele><time>2026-04-18T12:40:13.614Z</time></trkpt><trkpt lat="45.5047181" lon="10.4739001"><ele>194.5</ele><time>2026-04-18T12:40:14.615Z</time></trkpt><trkpt lat="45.5046496" lon="10.4739597"><ele>194.33333333333334</ele><time>2026-04-18T12:40:15.615Z</time></trkpt><trkpt lat="45.5045701" lon="10.4740018"><ele>194.16666666666669</ele><time>2026-04-18T12:40:16.616Z</time></trkpt><trkpt lat="45.5044864" lon="10.4740349"><ele>194.0</ele><time>2026-04-18T12:40:17.614Z</time></trkpt><trkpt lat="45.504398" lon="10.4740659"><ele>195.83333333333334</ele><time>2026-04-18T12:40:18.616Z</time></trkpt><trkpt lat="45.5043102" lon="10.474076"><ele>197.66666666666669</ele><time>2026-04-18T12:40:19.614Z</time></trkpt><trkpt lat="45.5042275" lon="10.4740722"><ele>199.5</ele><time>2026-04-18T12:40:20.615Z</time></trkpt><trkpt lat="45.5041426" lon="10.4740542"><ele>201.33333333333331</ele><time>2026-04-18T12:40:21.614Z</time></trkpt><trkpt lat="45.5040583" lon="10.4740399"><ele>203.16666666666666</ele><time>2026-04-18T12:40:22.615Z</time></trkpt><trkpt lat="45.5039737" lon="10.4740304"><ele>205.0</ele><time>2026-04-18T12:40:23.615Z</time></trkpt><trkpt lat="45.5038807" lon="10.4740317"><ele>205.0</ele><time>2026-04-18T12:40:24.615Z</time></trkpt><trkpt lat="45.5037855" lon="10.4740356"><ele>205.0</ele><time>2026-04-18T12:40:25.615Z</time></trkpt><trkpt lat="45.5036897" lon="10.4740415"><ele>205.0</ele><time>2026-04-18T12:40:26.615Z</time></trkpt><trkpt lat="45.5035939" lon="10.4740343"><ele>205.0</ele><time>2026-04-18T12:40:27.616Z</time></trkpt><trkpt lat="45.5034948" lon="10.4740492"><ele>205.0</ele><time>2026-04-18T12:40:28.614Z</time></trkpt><trkpt lat="45.5033997" lon="10.4740771"><ele>206.0</ele><time>2026-04-18T12:40:29.615Z</time></trkpt><trkpt lat="45.5033056" lon="10.4741323"><ele>207.0</ele><time>2026-04-18T12:40:30.616Z</time></trkpt><trkpt lat="45.5032163" lon="10.4742013"><ele>208.0</ele><time>2026-04-18T12:40:31.614Z</time></trkpt><trkpt lat="45.5031232" lon="10.4742659"><ele>209.0</ele><time>2026-04-18T12:40:32.615Z</time></trkpt><trkpt lat="45.5030397" lon="10.4743239"><ele>210.0</ele><time>2026-04-18T12:40:33.615Z</time></trkpt><trkpt lat="45.5029486" lon="10.47439"><ele>209.8</ele><time>2026-04-18T12:40:34.615Z</time></trkpt><trkpt lat="45.5028661" lon="10.4744556"><ele>209.6</ele><time>2026-04-18T12:40:35.614Z</time></trkpt><trkpt lat="45.5027794" lon="10.4745315"><ele>209.39999999999998</ele><time>2026-04-18T12:40:36.615Z</time></trkpt><trkpt lat="45.5026948" lon="10.4745948"><ele>209.2</ele><time>2026-04-18T12:40:37.615Z</time></trkpt><trkpt lat="45.5026049" lon="10.4746342"><ele>209.0</ele><time>2026-04-18T12:40:38.613Z</time></trkpt><trkpt lat="45.5025087" lon="10.4746629"><ele>209.0</ele><time>2026-04-18T12:40:39.616Z</time></trkpt><trkpt lat="45.5024072" lon="10.4746781"><ele>209.0</ele><time>2026-04-18T12:40:40.615Z</time></trkpt><trkpt lat="45.5023073" lon="10.4746421"><ele>209.0</ele><time>2026-04-18T12:40:41.616Z</time></trkpt><trkpt lat="45.5021993" lon="10.4745934"><ele>209.0</ele><time>2026-04-18T12:40:42.615Z</time></trkpt><trkpt lat="45.5020905" lon="10.4745412"><ele>209.0</ele><time>2026-04-18T12:40:43.615Z</time></trkpt><trkpt lat="45.5019887" lon="10.4744774"><ele>209.2</ele><time>2026-04-18T12:40:44.615Z</time></trkpt><trkpt lat="45.5018859" lon="10.4744175"><ele>209.39999999999998</ele><time>2026-04-18T12:40:45.615Z</time></trkpt><trkpt lat="45.5017872" lon="10.4743527"><ele>209.6</ele><time>2026-04-18T12:40:46.615Z</time></trkpt><trkpt lat="45.5016905" lon="10.4742755"><ele>209.8</ele><time>2026-04-18T12:40:47.615Z</time></trkpt><trkpt lat="45.5015999" lon="10.4741952"><ele>210.0</ele><time>2026-04-18T12:40:48.615Z</time></trkpt><trkpt lat="45.5015178" lon="10.4741142"><ele>210.0</ele><time>2026-04-18T12:40:49.614Z</time></trkpt><trkpt lat="45.5014607" lon="10.4740651"><ele>210.0</ele><time>2026-04-18T12:40:50.613Z</time></trkpt><trkpt lat="45.501398" lon="10.474056"><ele>210.0</ele><time>2026-04-18T12:40:51.614Z</time></trkpt><trkpt lat="45.5012831" lon="10.474094"><ele>210.0</ele><time>2026-04-18T12:40:53.614Z</time></trkpt><trkpt lat="45.5012183" lon="10.4741167"><ele>210.0</ele><time>2026-04-18T12:40:54.615Z</time></trkpt><trkpt lat="45.501146" lon="10.4740579"><ele>210.0</ele><time>2026-04-18T12:40:55.614Z</time></trkpt><trkpt lat="45.50108" lon="10.4739778"><ele>209.8</ele><time>2026-04-18T12:40:56.614Z</time></trkpt><trkpt lat="45.5010161" lon="10.4738972"><ele>209.6</ele><time>2026-04-18T12:40:57.613Z</time></trkpt><trkpt lat="45.5009665" lon="10.4737816"><ele>209.39999999999998</ele><time>2026-04-18T12:40:58.614Z</time></trkpt><trkpt lat="45.5009049" lon="10.4736605"><ele>209.2</ele><time>2026-04-18T12:40:59.617Z</time></trkpt><trkpt lat="45.5008608" lon="10.4735498"><ele>209.0</ele><time>2026-04-18T12:41:00.615Z</time></trkpt><trkpt lat="45.5008088" lon="10.4734341"><ele>209.0</ele><time>2026-04-18T12:41:01.615Z</time></trkpt><trkpt lat="45.5007478" lon="10.4733244"><ele>209.0</ele><time>2026-04-18T12:41:02.615Z</time></trkpt><trkpt lat="45.500695" lon="10.4732074"><ele>209.0</ele><time>2026-04-18T12:41:03.615Z</time></trkpt><trkpt lat="45.5006493" lon="10.4730973"><ele>209.0</ele><time>2026-04-18T12:41:04.615Z</time></trkpt><trkpt lat="45.5005153" lon="10.4730018"><ele>209.0</ele><time>2026-04-18T12:41:06.615Z</time></trkpt><trkpt lat="45.5003892" lon="10.4730171"><ele>207.6</ele><time>2026-04-18T12:41:07.615Z</time></trkpt><trkpt lat="45.5002838" lon="10.4729823"><ele>206.2</ele><time>2026-04-18T12:41:08.615Z</time></trkpt><trkpt lat="45.5001801" lon="10.4729383"><ele>204.79999999999998</ele><time>2026-04-18T12:41:09.616Z</time></trkpt><trkpt lat="45.5000701" lon="10.4729072"><ele>203.39999999999998</ele><time>2026-04-18T12:41:10.615Z</time></trkpt><trkpt lat="45.4999574" lon="10.4728778"><ele>202.0</ele><time>2026-04-18T12:41:11.615Z</time></trkpt><trkpt lat="45.4998428" lon="10.4728521"><ele>202.0</ele><time>2026-04-18T12:41:12.615Z</time></trkpt><trkpt lat="45.499731" lon="10.4728219"><ele>202.0</ele><time>2026-04-18T12:41:13.615Z</time></trkpt><trkpt lat="45.4996232" lon="10.4727868"><ele>202.0</ele><time>2026-04-18T12:41:14.616Z</time></trkpt><trkpt lat="45.4995173" lon="10.4727523"><ele>202.0</ele><time>2026-04-18T12:41:15.615Z</time></trkpt><trkpt lat="45.499411" lon="10.4727203"><ele>202.0</ele><time>2026-04-18T12:41:16.614Z</time></trkpt><trkpt lat="45.4993125" lon="10.4726854"><ele>201.49999999999997</ele><time>2026-04-18T12:41:17.615Z</time></trkpt><trkpt lat="45.4992311" lon="10.4726523"><ele>201.0</ele><time>2026-04-18T12:41:18.615Z</time></trkpt><trkpt lat="45.4991619" lon="10.4726136"><ele>200.5</ele><time>2026-04-18T12:41:19.615Z</time></trkpt><trkpt lat="45.4990584" lon="10.4725837"><ele>200.0</ele><time>2026-04-18T12:41:21.615Z</time></trkpt><trkpt lat="45.4990172" lon="10.4726605"><ele>199.49999999999997</ele><time>2026-04-18T12:41:23.614Z</time></trkpt><trkpt lat="45.4990116" lon="10.4728094"><ele>199.0</ele><time>2026-04-18T12:41:25.615Z</time></trkpt><trkpt lat="45.4990102" lon="10.4728997"><ele>199.16666666666666</ele><time>2026-04-18T12:41:26.615Z</time></trkpt><trkpt lat="45.4990038" lon="10.4729975"><ele>199.33333333333331</ele><time>2026-04-18T12:41:27.615Z</time></trkpt><trkpt lat="45.4990013" lon="10.4731086"><ele>199.5</ele><time>2026-04-18T12:41:28.615Z</time></trkpt><trkpt lat="45.4989995" lon="10.4732276"><ele>199.66666666666669</ele><time>2026-04-18T12:41:29.615Z</time></trkpt><trkpt lat="45.4989951" lon="10.473348"><ele>199.83333333333334</ele><time>2026-04-18T12:41:30.614Z</time></trkpt><trkpt lat="45.4989956" lon="10.4734686"><ele>200.0</ele><time>2026-04-18T12:41:31.614Z</time></trkpt><trkpt lat="45.4989868" lon="10.473591"><ele>200.00000000000003</ele><time>2026-04-18T12:41:32.615Z</time></trkpt><trkpt lat="45.4989813" lon="10.4737142"><ele>200.0</ele><time>2026-04-18T12:41:33.615Z</time></trkpt><trkpt lat="45.4989778" lon="10.4738295"><ele>200.0</ele><time>2026-04-18T12:41:34.615Z</time></trkpt><trkpt lat="45.4989704" lon="10.4739489"><ele>200.0</ele><time>2026-04-18T12:41:35.614Z</time></trkpt><trkpt lat="45.4989672" lon="10.4740675"><ele>200.00000000000003</ele><time>2026-04-18T12:41:36.615Z</time></trkpt><trkpt lat="45.498967" lon="10.474185"><ele>200.0</ele><time>2026-04-18T12:41:37.615Z</time></trkpt><trkpt lat="45.4989645" lon="10.4743029"><ele>200.33333333333334</ele><time>2026-04-18T12:41:38.615Z</time></trkpt><trkpt lat="45.4989642" lon="10.4744238"><ele>200.66666666666669</ele><time>2026-04-18T12:41:39.616Z</time></trkpt><trkpt lat="45.4989625" lon="10.4745442"><ele>201.0</ele><time>2026-04-18T12:41:40.614Z</time></trkpt><trkpt lat="45.4989592" lon="10.4746625"><ele>201.33333333333331</ele><time>2026-04-18T12:41:41.613Z</time></trkpt><trkpt lat="45.4989555" lon="10.4747789"><ele>201.66666666666666</ele><time>2026-04-18T12:41:42.614Z</time></trkpt><trkpt lat="45.4989473" lon="10.4749022"><ele>202.0</ele><time>2026-04-18T12:41:43.616Z</time></trkpt><trkpt lat="45.498934" lon="10.4750297"><ele>202.39999999999998</ele><time>2026-04-18T12:41:44.614Z</time></trkpt><trkpt lat="45.4989292" lon="10.4751563"><ele>202.79999999999998</ele><time>2026-04-18T12:41:45.614Z</time></trkpt><trkpt lat="45.4989277" lon="10.4752882"><ele>203.2</ele><time>2026-04-18T12:41:46.616Z</time></trkpt><trkpt lat="45.4989219" lon="10.4754298"><ele>203.6</ele><time>2026-04-18T12:41:47.614Z</time></trkpt><trkpt lat="45.498915" lon="10.4755983"><ele>204.0</ele><time>2026-04-18T12:41:48.615Z</time></trkpt><trkpt lat="45.4989053" lon="10.4757636"><ele>205.2</ele><time>2026-04-18T12:41:49.615Z</time></trkpt><trkpt lat="45.4988983" lon="10.4759173"><ele>206.39999999999998</ele><time>2026-04-18T12:41:50.614Z</time></trkpt><trkpt lat="45.4988945" lon="10.4760579"><ele>207.6</ele><time>2026-04-18T12:41:51.615Z</time></trkpt><trkpt lat="45.4988885" lon="10.4761986"><ele>208.8</ele><time>2026-04-18T12:41:52.616Z</time></trkpt><trkpt lat="45.4988776" lon="10.4763296"><ele>210.0</ele><time>2026-04-18T12:41:53.614Z</time></trkpt><trkpt lat="45.4988539" lon="10.4764601"><ele>210.4</ele><time>2026-04-18T12:41:54.614Z</time></trkpt><trkpt lat="45.4988176" lon="10.4765756"><ele>210.8</ele><time>2026-04-18T12:41:55.615Z</time></trkpt><trkpt lat="45.4987855" lon="10.4766959"><ele>211.2</ele><time>2026-04-18T12:41:56.615Z</time></trkpt><trkpt lat="45.4987651" lon="10.4768141"><ele>211.6</ele><time>2026-04-18T12:41:57.614Z</time></trkpt><trkpt lat="45.498743" lon="10.4769466"><ele>212.0</ele><time>2026-04-18T12:41:58.614Z</time></trkpt><trkpt lat="45.4987181" lon="10.4770809"><ele>213.25</ele><time>2026-04-18T12:41:59.613Z</time></trkpt><trkpt lat="45.498665" lon="10.4773496"><ele>214.5</ele><time>2026-04-18T12:42:01.615Z</time></trkpt><trkpt lat="45.4986388" lon="10.4774772"><ele>215.75</ele><time>2026-04-18T12:42:02.614Z</time></trkpt><trkpt lat="45.4986123" lon="10.4776086"><ele>217.0</ele><time>2026-04-18T12:42:03.615Z</time></trkpt><trkpt lat="45.4985879" lon="10.4777318"><ele>217.0</ele><time>2026-04-18T12:42:04.616Z</time></trkpt><trkpt lat="45.4985542" lon="10.4778484"><ele>217.0</ele><time>2026-04-18T12:42:05.614Z</time></trkpt><trkpt lat="45.4985075" lon="10.4779653"><ele>217.0</ele><time>2026-04-18T12:42:06.615Z</time></trkpt><trkpt lat="45.4984448" lon="10.4780641"><ele>217.0</ele><time>2026-04-18T12:42:07.615Z</time></trkpt><trkpt lat="45.4983699" lon="10.4781451"><ele>217.0</ele><time>2026-04-18T12:42:08.615Z</time></trkpt><trkpt lat="45.4982768" lon="10.4782165"><ele>218.2</ele><time>2026-04-18T12:42:09.615Z</time></trkpt><trkpt lat="45.4981817" lon="10.4782741"><ele>219.39999999999998</ele><time>2026-04-18T12:42:10.616Z</time></trkpt><trkpt lat="45.4980945" lon="10.4783235"><ele>220.60000000000002</ele><time>2026-04-18T12:42:11.614Z</time></trkpt><trkpt lat="45.498014" lon="10.4783751"><ele>221.8</ele><time>2026-04-18T12:42:12.616Z</time></trkpt><trkpt lat="45.497932" lon="10.4784182"><ele>223.0</ele><time>2026-04-18T12:42:13.616Z</time></trkpt><trkpt lat="45.497845" lon="10.4784489"><ele>223.0</ele><time>2026-04-18T12:42:14.615Z</time></trkpt><trkpt lat="45.4977557" lon="10.4784746"><ele>223.0</ele><time>2026-04-18T12:42:15.615Z</time></trkpt><trkpt lat="45.4976636" lon="10.4784609"><ele>223.0</ele><time>2026-04-18T12:42:16.615Z</time></trkpt><trkpt lat="45.4975687" lon="10.4784376"><ele>223.0</ele><time>2026-04-18T12:42:17.615Z</time></trkpt><trkpt lat="45.4974692" lon="10.4784184"><ele>223.0</ele><time>2026-04-18T12:42:18.615Z</time></trkpt><trkpt lat="45.4973739" lon="10.4783851"><ele>223.0</ele><time>2026-04-18T12:42:19.615Z</time></trkpt><trkpt lat="45.4972591" lon="10.4783677"><ele>223.0</ele><time>2026-04-18T12:42:20.615Z</time></trkpt><trkpt lat="45.4971652" lon="10.4783171"><ele>223.0</ele><time>2026-04-18T12:42:21.616Z</time></trkpt><trkpt lat="45.4970794" lon="10.478261"><ele>223.0</ele><time>2026-04-18T12:42:22.615Z</time></trkpt><trkpt lat="45.4969943" lon="10.4782008"><ele>223.0</ele><time>2026-04-18T12:42:23.615Z</time></trkpt><trkpt lat="45.4969205" lon="10.4781274"><ele>223.2</ele><time>2026-04-18T12:42:24.614Z</time></trkpt><trkpt lat="45.496833" lon="10.4780765"><ele>223.4</ele><time>2026-04-18T12:42:25.615Z</time></trkpt><trkpt lat="45.4967262" lon="10.4780479"><ele>223.59999999999997</ele><time>2026-04-18T12:42:26.615Z</time></trkpt><trkpt lat="45.4966398" lon="10.4780189"><ele>223.79999999999998</ele><time>2026-04-18T12:42:27.616Z</time></trkpt><trkpt lat="45.4965394" lon="10.4779994"><ele>224.0</ele><time>2026-04-18T12:42:28.616Z</time></trkpt><trkpt lat="45.4964354" lon="10.4779862"><ele>224.0</ele><time>2026-04-18T12:42:29.615Z</time></trkpt><trkpt lat="45.4963416" lon="10.4779967"><ele>223.99999999999997</ele><time>2026-04-18T12:42:30.616Z</time></trkpt><trkpt lat="45.4962607" lon="10.4780008"><ele>223.99999999999997</ele><time>2026-04-18T12:42:31.615Z</time></trkpt><trkpt lat="45.4961812" lon="10.4780775"><ele>224.0</ele><time>2026-04-18T12:42:32.616Z</time></trkpt><trkpt lat="45.4961066" lon="10.4781811"><ele>224.0</ele><time>2026-04-18T12:42:33.615Z</time></trkpt><trkpt lat="45.4960404" lon="10.4782653"><ele>223.6</ele><time>2026-04-18T12:42:34.615Z</time></trkpt><trkpt lat="45.4959933" lon="10.4783678"><ele>223.2</ele><time>2026-04-18T12:42:35.615Z</time></trkpt><trkpt lat="45.4959875" lon="10.4785512"><ele>222.79999999999998</ele><time>2026-04-18T12:42:36.615Z</time></trkpt><trkpt lat="45.4959808" lon="10.4787018"><ele>222.39999999999998</ele><time>2026-04-18T12:42:37.614Z</time></trkpt><trkpt lat="45.4959695" lon="10.4788287"><ele>222.0</ele><time>2026-04-18T12:42:38.614Z</time></trkpt><trkpt lat="45.4959406" lon="10.4789584"><ele>223.2</ele><time>2026-04-18T12:42:39.615Z</time></trkpt><trkpt lat="45.4959078" lon="10.4790823"><ele>224.39999999999998</ele><time>2026-04-18T12:42:40.614Z</time></trkpt><trkpt lat="45.4958651" lon="10.4792024"><ele>225.60000000000002</ele><time>2026-04-18T12:42:41.615Z</time></trkpt><trkpt lat="45.4958216" lon="10.4793187"><ele>226.8</ele><time>2026-04-18T12:42:42.614Z</time></trkpt><trkpt lat="45.4957723" lon="10.4794187"><ele>228.0</ele><time>2026-04-18T12:42:43.613Z</time></trkpt><trkpt lat="45.495721" lon="10.4795257"><ele>229.8</ele><time>2026-04-18T12:42:44.615Z</time></trkpt><trkpt lat="45.4956665" lon="10.4796145"><ele>231.60000000000002</ele><time>2026-04-18T12:42:45.614Z</time></trkpt><trkpt lat="45.4956034" lon="10.4797068"><ele>233.39999999999998</ele><time>2026-04-18T12:42:46.615Z</time></trkpt><trkpt lat="45.4955234" lon="10.4797825"><ele>235.2</ele><time>2026-04-18T12:42:47.614Z</time></trkpt><trkpt lat="45.4954388" lon="10.4798509"><ele>237.0</ele><time>2026-04-18T12:42:48.615Z</time></trkpt><trkpt lat="45.4953524" lon="10.479925"><ele>237.39999999999998</ele><time>2026-04-18T12:42:49.614Z</time></trkpt><trkpt lat="45.495269" lon="10.4799943"><ele>237.79999999999998</ele><time>2026-04-18T12:42:50.615Z</time></trkpt><trkpt lat="45.4952059" lon="10.4801382"><ele>238.2</ele><time>2026-04-18T12:42:51.615Z</time></trkpt><trkpt lat="45.4951426" lon="10.4802566"><ele>238.6</ele><time>2026-04-18T12:42:52.614Z</time></trkpt><trkpt lat="45.4950873" lon="10.4803649"><ele>239.0</ele><time>2026-04-18T12:42:53.614Z</time></trkpt><trkpt lat="45.4950283" lon="10.4804797"><ele>241.6</ele><time>2026-04-18T12:42:54.614Z</time></trkpt><trkpt lat="45.4949733" lon="10.4805995"><ele>244.2</ele><time>2026-04-18T12:42:55.614Z</time></trkpt><trkpt lat="45.4949011" lon="10.4806436"><ele>246.79999999999998</ele><time>2026-04-18T12:42:56.614Z</time></trkpt><trkpt lat="45.4948197" lon="10.4806816"><ele>249.39999999999998</ele><time>2026-04-18T12:42:57.614Z</time></trkpt><trkpt lat="45.4947222" lon="10.4806884"><ele>252.0</ele><time>2026-04-18T12:42:58.614Z</time></trkpt><trkpt lat="45.4946324" lon="10.4806856"><ele>252.0</ele><time>2026-04-18T12:42:59.614Z</time></trkpt><trkpt lat="45.4945388" lon="10.4806771"><ele>252.0</ele><time>2026-04-18T12:43:00.615Z</time></trkpt><trkpt lat="45.4944359" lon="10.4806515"><ele>252.0</ele><time>2026-04-18T12:43:01.613Z</time></trkpt><trkpt lat="45.494339" lon="10.4806075"><ele>252.0</ele><time>2026-04-18T12:43:02.614Z</time></trkpt><trkpt lat="45.4942434" lon="10.4805998"><ele>252.0</ele><time>2026-04-18T12:43:03.615Z</time></trkpt><trkpt lat="45.4941558" lon="10.4805654"><ele>252.0</ele><time>2026-04-18T12:43:04.615Z</time></trkpt><trkpt lat="45.4940741" lon="10.4805957"><ele>252.0</ele><time>2026-04-18T12:43:05.614Z</time></trkpt><trkpt lat="45.4939862" lon="10.4806048"><ele>252.0</ele><time>2026-04-18T12:43:07.614Z</time></trkpt><trkpt lat="45.4939135" lon="10.4806621"><ele>252.0</ele><time>2026-04-18T12:43:10.614Z</time></trkpt><trkpt lat="45.4938478" lon="10.4807881"><ele>252.0</ele><time>2026-04-18T12:43:12.614Z</time></trkpt><trkpt lat="45.4937866" lon="10.4809179"><ele>252.0</ele><time>2026-04-18T12:43:14.614Z</time></trkpt><trkpt lat="45.4937686" lon="10.4810306"><ele>252.0</ele><time>2026-04-18T12:43:16.614Z</time></trkpt><trkpt lat="45.4937087" lon="10.4811421"><ele>252.0</ele><time>2026-04-18T12:43:22.613Z</time></trkpt><trkpt lat="45.4936224" lon="10.4812031"><ele>252.0</ele><time>2026-04-18T12:43:24.615Z</time></trkpt><trkpt lat="45.4935345" lon="10.4812423"><ele>252.0</ele><time>2026-04-18T12:43:27.613Z</time></trkpt><trkpt lat="45.4936105" lon="10.4812465"><ele>252.0</ele><time>2026-04-18T12:43:36.614Z</time></trkpt><trkpt lat="45.4936866" lon="10.4811712"><ele>252.0</ele><time>2026-04-18T12:43:38.615Z</time></trkpt><trkpt lat="45.4937987" lon="10.4811671"><ele>252.0</ele><time>2026-04-18T12:43:40.613Z</time></trkpt><trkpt lat="45.4938602" lon="10.4811927"><ele>252.0</ele><time>2026-04-18T12:43:41.614Z</time></trkpt><trkpt lat="45.4939256" lon="10.4812303"><ele>252.0</ele><time>2026-04-18T12:43:42.615Z</time></trkpt><trkpt lat="45.4939886" lon="10.4812681"><ele>252.0</ele><time>2026-04-18T12:43:43.613Z</time></trkpt><trkpt lat="45.4940541" lon="10.481313"><ele>252.0</ele><time>2026-04-18T12:43:44.614Z</time></trkpt><trkpt lat="45.4941223" lon="10.4813614"><ele>253.16666666666666</ele><time>2026-04-18T12:43:45.615Z</time></trkpt><trkpt lat="45.4941888" lon="10.4814171"><ele>254.33333333333331</ele><time>2026-04-18T12:43:46.614Z</time></trkpt><trkpt lat="45.4942549" lon="10.4814729"><ele>255.5</ele><time>2026-04-18T12:43:47.614Z</time></trkpt><trkpt lat="45.4943246" lon="10.4815498"><ele>256.66666666666663</ele><time>2026-04-18T12:43:48.614Z</time></trkpt><trkpt lat="45.4943923" lon="10.4816024"><ele>257.8333333333333</ele><time>2026-04-18T12:43:49.615Z</time></trkpt><trkpt lat="45.4944759" lon="10.4816406"><ele>259.0</ele><time>2026-04-18T12:43:50.614Z</time></trkpt><trkpt lat="45.4945562" lon="10.4816833"><ele>260.0</ele><time>2026-04-18T12:43:51.614Z</time></trkpt><trkpt lat="45.4946386" lon="10.4817068"><ele>261.0</ele><time>2026-04-18T12:43:52.614Z</time></trkpt><trkpt lat="45.4947062" lon="10.4817276"><ele>262.0</ele><time>2026-04-18T12:43:53.615Z</time></trkpt><trkpt lat="45.4947997" lon="10.4817791"><ele>263.0</ele><time>2026-04-18T12:43:55.614Z</time></trkpt><trkpt lat="45.4949044" lon="10.4818228"><ele>264.0</ele><time>2026-04-18T12:43:57.615Z</time></trkpt><trkpt lat="45.4949899" lon="10.4818719"><ele>264.0</ele><time>2026-04-18T12:43:59.614Z</time></trkpt><trkpt lat="45.4950722" lon="10.4819386"><ele>264.0</ele><time>2026-04-18T12:44:02.614Z</time></trkpt><trkpt lat="45.4949785" lon="10.481867"><ele>264.0</ele><time>2026-04-18T12:44:06.614Z</time></trkpt><trkpt lat="45.4948954" lon="10.4818234"><ele>264.0</ele><time>2026-04-18T12:44:08.613Z</time></trkpt><trkpt lat="45.4948077" lon="10.4817645"><ele>264.0</ele><time>2026-04-18T12:44:10.615Z</time></trkpt><trkpt lat="45.4947167" lon="10.4817254"><ele>264.0</ele><time>2026-04-18T12:44:11.614Z</time></trkpt><trkpt lat="45.4946381" lon="10.4816949"><ele>264.0</ele><time>2026-04-18T12:44:12.614Z</time></trkpt><trkpt lat="45.4945568" lon="10.4816596"><ele>264.0</ele><time>2026-04-18T12:44:13.614Z</time></trkpt><trkpt lat="45.4944796" lon="10.4816265"><ele>264.0</ele><time>2026-04-18T12:44:14.614Z</time></trkpt><trkpt lat="45.4943737" lon="10.4815648"><ele>264.0</ele><time>2026-04-18T12:44:16.614Z</time></trkpt><trkpt lat="45.494283" lon="10.4815442"><ele>264.4</ele><time>2026-04-18T12:44:19.614Z</time></trkpt><trkpt lat="45.494278" lon="10.4816363"><ele>264.79999999999995</ele><time>2026-04-18T12:44:21.614Z</time></trkpt><trkpt lat="45.4942967" lon="10.4817554"><ele>265.20000000000005</ele><time>2026-04-18T12:44:22.615Z</time></trkpt><trkpt lat="45.4942962" lon="10.4819049"><ele>265.6</ele><time>2026-04-18T12:44:24.615Z</time></trkpt><trkpt lat="45.4942761" lon="10.4820472"><ele>266.0</ele><time>2026-04-18T12:44:26.614Z</time></trkpt><trkpt lat="45.4942509" lon="10.4822078"><ele>266.0</ele><time>2026-04-18T12:44:28.615Z</time></trkpt><trkpt lat="45.4942353" lon="10.4823026"><ele>266.0</ele><time>2026-04-18T12:44:29.615Z</time></trkpt><trkpt lat="45.4942174" lon="10.4824021"><ele>266.0</ele><time>2026-04-18T12:44:30.614Z</time></trkpt><trkpt lat="45.4942027" lon="10.4825097"><ele>266.0</ele><time>2026-04-18T12:44:31.614Z</time></trkpt><trkpt lat="45.494188" lon="10.4826171"><ele>266.0</ele><time>2026-04-18T12:44:32.614Z</time></trkpt><trkpt lat="45.4941722" lon="10.4827261"><ele>266.0</ele><time>2026-04-18T12:44:33.614Z</time></trkpt><trkpt lat="45.4941571" lon="10.4828377"><ele>266.33333333333337</ele><time>2026-04-18T12:44:34.614Z</time></trkpt><trkpt lat="45.494139" lon="10.4829496"><ele>266.6666666666667</ele><time>2026-04-18T12:44:35.614Z</time></trkpt><trkpt lat="45.4941303" lon="10.4830651"><ele>267.0</ele><time>2026-04-18T12:44:36.614Z</time></trkpt><trkpt lat="45.4941318" lon="10.4831765"><ele>267.3333333333333</ele><time>2026-04-18T12:44:37.613Z</time></trkpt><trkpt lat="45.494136" lon="10.4832877"><ele>267.66666666666663</ele><time>2026-04-18T12:44:38.614Z</time></trkpt><trkpt lat="45.4941346" lon="10.4834014"><ele>268.0</ele><time>2026-04-18T12:44:39.614Z</time></trkpt><trkpt lat="45.4941416" lon="10.4835044"><ele>268.0</ele><time>2026-04-18T12:44:40.613Z</time></trkpt><trkpt lat="45.4941529" lon="10.4835928"><ele>268.0</ele><time>2026-04-18T12:44:41.614Z</time></trkpt><trkpt lat="45.4941544" lon="10.4836927"><ele>268.0</ele><time>2026-04-18T12:44:43.614Z</time></trkpt><trkpt lat="45.4941551" lon="10.4838066"><ele>268.0</ele><time>2026-04-18T12:44:45.614Z</time></trkpt><trkpt lat="45.4941175" lon="10.4839665"><ele>268.0</ele><time>2026-04-18T12:44:47.614Z</time></trkpt><trkpt lat="45.4940741" lon="10.4840875"><ele>268.0</ele><time>2026-04-18T12:44:49.614Z</time></trkpt><trkpt lat="45.4940119" lon="10.4841854"><ele>266.8</ele><time>2026-04-18T12:44:51.614Z</time></trkpt><trkpt lat="45.4939336" lon="10.4842563"><ele>265.6</ele><time>2026-04-18T12:44:53.614Z</time></trkpt><trkpt lat="45.4938602" lon="10.4843323"><ele>264.4</ele><time>2026-04-18T12:44:56.614Z</time></trkpt><trkpt lat="45.4938046" lon="10.4843849"><ele>263.2</ele><time>2026-04-18T12:44:58.614Z</time></trkpt><trkpt lat="45.493718" lon="10.4844691"><ele>262.0</ele><time>2026-04-18T12:45:00.614Z</time></trkpt><trkpt lat="45.493622" lon="10.4845376"><ele>261.2857142857143</ele><time>2026-04-18T12:45:02.613Z</time></trkpt><trkpt lat="45.4935553" lon="10.4845641"><ele>260.5714285714286</ele><time>2026-04-18T12:45:04.614Z</time></trkpt><trkpt lat="45.4934961" lon="10.4846527"><ele>259.8571428571429</ele><time>2026-04-18T12:45:08.614Z</time></trkpt><trkpt lat="45.4934771" lon="10.484771"><ele>259.14285714285717</ele><time>2026-04-18T12:45:10.614Z</time></trkpt><trkpt lat="45.4934879" lon="10.4848597"><ele>258.42857142857144</ele><time>2026-04-18T12:45:11.614Z</time></trkpt><trkpt lat="45.4934969" lon="10.4849566"><ele>257.7142857142857</ele><time>2026-04-18T12:45:12.613Z</time></trkpt><trkpt lat="45.4934921" lon="10.4850517"><ele>257.0</ele><time>2026-04-18T12:45:13.614Z</time></trkpt><trkpt lat="45.4934825" lon="10.4851588"><ele>257.0</ele><time>2026-04-18T12:45:14.614Z</time></trkpt><trkpt lat="45.49348" lon="10.4852696"><ele>257.0</ele><time>2026-04-18T12:45:15.614Z</time></trkpt><trkpt lat="45.4934805" lon="10.4853712"><ele>257.0</ele><time>2026-04-18T12:45:16.615Z</time></trkpt><trkpt lat="45.4934752" lon="10.4854788"><ele>257.0</ele><time>2026-04-18T12:45:17.614Z</time></trkpt><trkpt lat="45.4934648" lon="10.4855816"><ele>257.0</ele><time>2026-04-18T12:45:18.613Z</time></trkpt><trkpt lat="45.4934405" lon="10.4856906"><ele>257.0</ele><time>2026-04-18T12:45:19.614Z</time></trkpt><trkpt lat="45.4934162" lon="10.4857987"><ele>257.0</ele><time>2026-04-18T12:45:20.614Z</time></trkpt><trkpt lat="45.4933939" lon="10.4858931"><ele>257.0</ele><time>2026-04-18T12:45:21.613Z</time></trkpt><trkpt lat="45.4933614" lon="10.4859804"><ele>257.0</ele><time>2026-04-18T12:45:22.613Z</time></trkpt><trkpt lat="45.493317" lon="10.4861568"><ele>257.0</ele><time>2026-04-18T12:45:24.615Z</time></trkpt><trkpt lat="45.4933085" lon="10.4862658"><ele>257.0</ele><time>2026-04-18T12:45:25.614Z</time></trkpt><trkpt lat="45.4932942" lon="10.4864149"><ele>256.57142857142856</ele><time>2026-04-18T12:45:27.614Z</time></trkpt><trkpt lat="45.4933131" lon="10.4865275"><ele>256.14285714285717</ele><time>2026-04-18T12:45:33.614Z</time></trkpt><trkpt lat="45.4933395" lon="10.4866364"><ele>255.71428571428572</ele><time>2026-04-18T12:45:37.616Z</time></trkpt><trkpt lat="45.4932986" lon="10.4867201"><ele>255.28571428571428</ele><time>2026-04-18T12:45:41.614Z</time></trkpt><trkpt lat="45.4932435" lon="10.4867797"><ele>254.85714285714283</ele><time>2026-04-18T12:45:46.612Z</time></trkpt><trkpt lat="45.4932909" lon="10.4867011"><ele>254.42857142857144</ele><time>2026-04-18T12:46:08.613Z</time></trkpt><trkpt lat="45.4933285" lon="10.4866288"><ele>254.0</ele><time>2026-04-18T12:46:12.613Z</time></trkpt><trkpt lat="45.493293" lon="10.4865351"><ele>254.00000000000003</ele><time>2026-04-18T12:46:15.613Z</time></trkpt><trkpt lat="45.4932152" lon="10.486518"><ele>254.0</ele><time>2026-04-18T12:46:17.614Z</time></trkpt><trkpt lat="45.4931467" lon="10.4865678"><ele>254.0</ele><time>2026-04-18T12:46:25.614Z</time></trkpt><trkpt lat="45.4930857" lon="10.4865946"><ele>254.0</ele><time>2026-04-18T12:46:33.613Z</time></trkpt><trkpt lat="45.4930491" lon="10.4867046"><ele>254.00000000000003</ele><time>2026-04-18T12:46:40.613Z</time></trkpt><trkpt lat="45.4930004" lon="10.4867799"><ele>254.0</ele><time>2026-04-18T12:46:43.612Z</time></trkpt><trkpt lat="45.4929248" lon="10.4868176"><ele>256.42857142857144</ele><time>2026-04-18T12:46:48.613Z</time></trkpt><trkpt lat="45.492862" lon="10.4868372"><ele>258.85714285714283</ele><time>2026-04-18T12:46:51.614Z</time></trkpt><trkpt lat="45.492807" lon="10.4867868"><ele>261.2857142857143</ele><time>2026-04-18T12:47:01.614Z</time></trkpt><trkpt lat="45.4927859" lon="10.4866947"><ele>263.7142857142857</ele><time>2026-04-18T12:47:06.615Z</time></trkpt><trkpt lat="45.4926982" lon="10.4866311"><ele>266.14285714285717</ele><time>2026-04-18T12:47:09.614Z</time></trkpt><trkpt lat="45.4926295" lon="10.4866187"><ele>268.57142857142856</ele><time>2026-04-18T12:47:11.614Z</time></trkpt><trkpt lat="45.4925489" lon="10.4866119"><ele>271.0</ele><time>2026-04-18T12:47:13.615Z</time></trkpt><trkpt lat="45.4924539" lon="10.4866188"><ele>271.0</ele><time>2026-04-18T12:47:16.614Z</time></trkpt><trkpt lat="45.4923707" lon="10.4866552"><ele>271.0</ele><time>2026-04-18T12:47:18.613Z</time></trkpt><trkpt lat="45.4923103" lon="10.4866917"><ele>271.0</ele><time>2026-04-18T12:47:20.613Z</time></trkpt><trkpt lat="45.4922217" lon="10.4866564"><ele>271.0</ele><time>2026-04-18T12:47:23.614Z</time></trkpt><trkpt lat="45.4921656" lon="10.486602"><ele>271.0</ele><time>2026-04-18T12:47:25.614Z</time></trkpt><trkpt lat="45.4920749" lon="10.4865965"><ele>271.0</ele><time>2026-04-18T12:47:27.613Z</time></trkpt><trkpt lat="45.492014" lon="10.4865509"><ele>271.8333333333333</ele><time>2026-04-18T12:47:30.613Z</time></trkpt><trkpt lat="45.4919172" lon="10.4865248"><ele>272.66666666666663</ele><time>2026-04-18T12:47:33.613Z</time></trkpt><trkpt lat="45.4918521" lon="10.4865391"><ele>273.5</ele><time>2026-04-18T12:47:35.613Z</time></trkpt><trkpt lat="45.4917976" lon="10.4865909"><ele>274.3333333333333</ele><time>2026-04-18T12:47:37.613Z</time></trkpt><trkpt lat="45.4917184" lon="10.4865974"><ele>275.1666666666667</ele><time>2026-04-18T12:47:39.613Z</time></trkpt><trkpt lat="45.491633" lon="10.4865825"><ele>276.0</ele><time>2026-04-18T12:47:42.613Z</time></trkpt><trkpt lat="45.4915646" lon="10.4866557"><ele>276.0</ele><time>2026-04-18T12:47:57.612Z</time></trkpt><trkpt lat="45.4914996" lon="10.486716"><ele>276.0</ele><time>2026-04-18T12:47:59.612Z</time></trkpt><trkpt lat="45.4914142" lon="10.486741"><ele>276.0</ele><time>2026-04-18T12:48:02.613Z</time></trkpt><trkpt lat="45.4913637" lon="10.4868149"><ele>276.0</ele><time>2026-04-18T12:48:08.613Z</time></trkpt><trkpt lat="45.4912958" lon="10.4869016"><ele>276.0</ele><time>2026-04-18T12:48:11.613Z</time></trkpt><trkpt lat="45.4912331" lon="10.4869469"><ele>276.0</ele><time>2026-04-18T12:48:13.612Z</time></trkpt><trkpt lat="45.491166" lon="10.4869973"><ele>274.1666666666667</ele><time>2026-04-18T12:48:15.613Z</time></trkpt><trkpt lat="45.4911054" lon="10.4869719"><ele>272.3333333333333</ele><time>2026-04-18T12:48:17.613Z</time></trkpt><trkpt lat="45.4910466" lon="10.4868801"><ele>270.5</ele><time>2026-04-18T12:48:19.614Z</time></trkpt><trkpt lat="45.4909878" lon="10.486786"><ele>268.66666666666663</ele><time>2026-04-18T12:48:21.614Z</time></trkpt><trkpt lat="45.4909273" lon="10.4867262"><ele>266.8333333333333</ele><time>2026-04-18T12:48:23.615Z</time></trkpt><trkpt lat="45.4908795" lon="10.4866022"><ele>265.0</ele><time>2026-04-18T12:48:25.613Z</time></trkpt><trkpt lat="45.490846" lon="10.4865243"><ele>265.0</ele><time>2026-04-18T12:48:26.613Z</time></trkpt><trkpt lat="45.4908091" lon="10.4864349"><ele>265.0</ele><time>2026-04-18T12:48:27.612Z</time></trkpt><trkpt lat="45.4907652" lon="10.4863516"><ele>265.0</ele><time>2026-04-18T12:48:28.613Z</time></trkpt><trkpt lat="45.4907258" lon="10.4862697"><ele>265.0</ele><time>2026-04-18T12:48:29.612Z</time></trkpt><trkpt lat="45.4906523" lon="10.4861187"><ele>265.0</ele><time>2026-04-18T12:48:31.613Z</time></trkpt><trkpt lat="45.4906047" lon="10.4860324"><ele>265.0</ele><time>2026-04-18T12:48:32.613Z</time></trkpt><trkpt lat="45.4905492" lon="10.4859545"><ele>263.8333333333333</ele><time>2026-04-18T12:48:33.613Z</time></trkpt><trkpt lat="45.4905016" lon="10.485882"><ele>262.66666666666663</ele><time>2026-04-18T12:48:34.613Z</time></trkpt><trkpt lat="45.4904699" lon="10.4857975"><ele>261.5</ele><time>2026-04-18T12:48:35.612Z</time></trkpt><trkpt lat="45.4904406" lon="10.4857139"><ele>260.3333333333333</ele><time>2026-04-18T12:48:36.612Z</time></trkpt><trkpt lat="45.4903739" lon="10.4855765"><ele>259.1666666666667</ele><time>2026-04-18T12:48:38.613Z</time></trkpt><trkpt lat="45.49031" lon="10.48545"><ele>258.0</ele><time>2026-04-18T12:48:40.613Z</time></trkpt><trkpt lat="45.4902603" lon="10.485321"><ele>257.4</ele><time>2026-04-18T12:48:42.612Z</time></trkpt><trkpt lat="45.4902242" lon="10.4852077"><ele>256.8</ele><time>2026-04-18T12:48:44.613Z</time></trkpt><trkpt lat="45.490184" lon="10.4851129"><ele>256.2</ele><time>2026-04-18T12:48:46.613Z</time></trkpt><trkpt lat="45.4901088" lon="10.4850314"><ele>255.6</ele><time>2026-04-18T12:48:49.613Z</time></trkpt><trkpt lat="45.4900492" lon="10.4849027"><ele>255.0</ele><time>2026-04-18T12:48:51.613Z</time></trkpt><trkpt lat="45.4900008" lon="10.4847702"><ele>255.0</ele><time>2026-04-18T12:48:53.613Z</time></trkpt><trkpt lat="45.4899668" lon="10.4846191"><ele>255.0</ele><time>2026-04-18T12:48:55.614Z</time></trkpt><trkpt lat="45.4899385" lon="10.4845277"><ele>255.0</ele><time>2026-04-18T12:48:56.613Z</time></trkpt><trkpt lat="45.4899442" lon="10.4844044"><ele>255.0</ele><time>2026-04-18T12:48:58.613Z</time></trkpt><trkpt lat="45.4899859" lon="10.4842526"><ele>255.0</ele><time>2026-04-18T12:49:00.612Z</time></trkpt><trkpt lat="45.4899876" lon="10.4840989"><ele>255.4</ele><time>2026-04-18T12:49:02.613Z</time></trkpt><trkpt lat="45.4899199" lon="10.4840012"><ele>255.8</ele><time>2026-04-18T12:49:04.612Z</time></trkpt><trkpt lat="45.489856" lon="10.4838936"><ele>256.2</ele><time>2026-04-18T12:49:06.613Z</time></trkpt><trkpt lat="45.4898263" lon="10.4837983"><ele>256.6</ele><time>2026-04-18T12:49:08.613Z</time></trkpt><trkpt lat="45.4897752" lon="10.4836658"><ele>257.0</ele><time>2026-04-18T12:49:10.613Z</time></trkpt><trkpt lat="45.4897216" lon="10.4835272"><ele>257.0</ele><time>2026-04-18T12:49:12.613Z</time></trkpt><trkpt lat="45.4896567" lon="10.4834767"><ele>257.0</ele><time>2026-04-18T12:49:15.613Z</time></trkpt><trkpt lat="45.4896134" lon="10.4835711"><ele>257.0</ele><time>2026-04-18T12:49:45.613Z</time></trkpt><trkpt lat="45.4896015" lon="10.4836611"><ele>257.0</ele><time>2026-04-18T12:49:47.613Z</time></trkpt><trkpt lat="45.4895608" lon="10.4837487"><ele>257.0</ele><time>2026-04-18T12:49:50.613Z</time></trkpt><trkpt lat="45.4895124" lon="10.4838926"><ele>257.0</ele><time>2026-04-18T12:49:55.613Z</time></trkpt><trkpt lat="45.4894956" lon="10.4840353"><ele>258.1666666666667</ele><time>2026-04-18T12:49:57.612Z</time></trkpt><trkpt lat="45.4894932" lon="10.484145"><ele>259.33333333333337</ele><time>2026-04-18T12:49:59.613Z</time></trkpt><trkpt lat="45.4895027" lon="10.4842827"><ele>260.5</ele><time>2026-04-18T12:50:02.614Z</time></trkpt><trkpt lat="45.4894924" lon="10.4844052"><ele>261.6666666666667</ele><time>2026-04-18T12:50:04.613Z</time></trkpt><trkpt lat="45.4894394" lon="10.4845049"><ele>262.8333333333333</ele><time>2026-04-18T12:50:06.614Z</time></trkpt><trkpt lat="45.4893806" lon="10.484553"><ele>264.0</ele><time>2026-04-18T12:50:09.613Z</time></trkpt><trkpt lat="45.4893072" lon="10.4846731"><ele>264.0</ele><time>2026-04-18T12:50:14.613Z</time></trkpt><trkpt lat="45.4892148" lon="10.4847391"><ele>264.0</ele><time>2026-04-18T12:50:16.614Z</time></trkpt><trkpt lat="45.4890924" lon="10.4847622"><ele>264.0</ele><time>2026-04-18T12:50:18.613Z</time></trkpt><trkpt lat="45.4890236" lon="10.4847728"><ele>264.0</ele><time>2026-04-18T12:50:19.612Z</time></trkpt><trkpt lat="45.4889088" lon="10.4848137"><ele>264.0</ele><time>2026-04-18T12:50:21.613Z</time></trkpt><trkpt lat="45.4888471" lon="10.4848803"><ele>264.0</ele><time>2026-04-18T12:50:22.613Z</time></trkpt><trkpt lat="45.4887934" lon="10.4849384"><ele>264.0</ele><time>2026-04-18T12:50:23.614Z</time></trkpt><trkpt lat="45.4887112" lon="10.4850235"><ele>264.0</ele><time>2026-04-18T12:50:25.613Z</time></trkpt><trkpt lat="45.4886329" lon="10.4850734"><ele>264.0</ele><time>2026-04-18T12:50:27.613Z</time></trkpt><trkpt lat="45.4885478" lon="10.4851075"><ele>264.0</ele><time>2026-04-18T12:50:29.613Z</time></trkpt><trkpt lat="45.4884628" lon="10.4851419"><ele>264.0</ele><time>2026-04-18T12:50:31.613Z</time></trkpt><trkpt lat="45.4883754" lon="10.4852439"><ele>262.8333333333333</ele><time>2026-04-18T12:50:33.612Z</time></trkpt><trkpt lat="45.4883321" lon="10.4853127"><ele>261.6666666666667</ele><time>2026-04-18T12:50:34.613Z</time></trkpt><trkpt lat="45.488273" lon="10.4854325"><ele>260.5</ele><time>2026-04-18T12:50:36.614Z</time></trkpt><trkpt lat="45.4882962" lon="10.4855266"><ele>259.33333333333337</ele><time>2026-04-18T12:50:38.613Z</time></trkpt><trkpt lat="45.4882814" lon="10.4856223"><ele>258.1666666666667</ele><time>2026-04-18T12:50:43.614Z</time></trkpt><trkpt lat="45.4883121" lon="10.485711"><ele>257.0</ele><time>2026-04-18T12:50:47.614Z</time></trkpt><trkpt lat="45.4883877" lon="10.4857722"><ele>257.0</ele><time>2026-04-18T12:50:50.613Z</time></trkpt><trkpt lat="45.4884541" lon="10.4858256"><ele>257.0</ele><time>2026-04-18T12:50:56.613Z</time></trkpt><trkpt lat="45.4885172" lon="10.4859034"><ele>257.0</ele><time>2026-04-18T12:50:58.612Z</time></trkpt><trkpt lat="45.4885874" lon="10.4859773"><ele>257.0</ele><time>2026-04-18T12:51:00.612Z</time></trkpt><trkpt lat="45.4886303" lon="10.4860661"><ele>257.0</ele><time>2026-04-18T12:51:02.613Z</time></trkpt><trkpt lat="45.4886618" lon="10.4861628"><ele>257.0</ele><time>2026-04-18T12:51:04.613Z</time></trkpt><trkpt lat="45.4887021" lon="10.4862364"><ele>257.0</ele><time>2026-04-18T12:51:07.614Z</time></trkpt><trkpt lat="45.4886579" lon="10.486168"><ele>257.0</ele><time>2026-04-18T12:52:10.613Z</time></trkpt><trkpt lat="45.4887508" lon="10.4861871"><ele>257.0</ele><time>2026-04-18T12:52:14.612Z</time></trkpt><trkpt lat="45.4888543" lon="10.486131"><ele>257.0</ele><time>2026-04-18T12:52:16.612Z</time></trkpt><trkpt lat="45.488927" lon="10.486076"><ele>257.0</ele><time>2026-04-18T12:52:18.612Z</time></trkpt><trkpt lat="45.4889884" lon="10.4860023"><ele>257.0</ele><time>2026-04-18T12:52:20.611Z</time></trkpt><trkpt lat="45.4890862" lon="10.4859448"><ele>257.0</ele><time>2026-04-18T12:52:22.612Z</time></trkpt><trkpt lat="45.4891811" lon="10.4858792"><ele>257.0</ele><time>2026-04-18T12:52:24.612Z</time></trkpt><trkpt lat="45.4892764" lon="10.4857933"><ele>257.0</ele><time>2026-04-18T12:52:26.613Z</time></trkpt><trkpt lat="45.48937" lon="10.4857237"><ele>257.0</ele><time>2026-04-18T12:52:28.612Z</time></trkpt><trkpt lat="45.48947" lon="10.4856474"><ele>257.0</ele><time>2026-04-18T12:52:30.612Z</time></trkpt><trkpt lat="45.4895599" lon="10.485565"><ele>256.5</ele><time>2026-04-18T12:52:32.613Z</time></trkpt><trkpt lat="45.4896588" lon="10.4854758"><ele>256.0</ele><time>2026-04-18T12:52:34.612Z</time></trkpt><trkpt lat="45.4898044" lon="10.485345"><ele>255.5</ele><time>2026-04-18T12:52:37.612Z</time></trkpt><trkpt lat="45.489905" lon="10.4852673"><ele>255.0</ele><time>2026-04-18T12:52:39.614Z</time></trkpt><trkpt lat="45.4900104" lon="10.4851829"><ele>255.0</ele><time>2026-04-18T12:52:41.613Z</time></trkpt><trkpt lat="45.4901143" lon="10.4851026"><ele>255.0</ele><time>2026-04-18T12:52:43.613Z</time></trkpt><trkpt lat="45.4902164" lon="10.4850101"><ele>255.0</ele><time>2026-04-18T12:52:45.611Z</time></trkpt><trkpt lat="45.490314" lon="10.4848986"><ele>255.0</ele><time>2026-04-18T12:52:47.612Z</time></trkpt><trkpt lat="45.4903656" lon="10.4848433"><ele>255.0</ele><time>2026-04-18T12:52:48.612Z</time></trkpt><trkpt lat="45.490419" lon="10.4847791"><ele>254.6</ele><time>2026-04-18T12:52:49.612Z</time></trkpt><trkpt lat="45.490473" lon="10.484724"><ele>254.2</ele><time>2026-04-18T12:52:50.613Z</time></trkpt><trkpt lat="45.4905746" lon="10.4846104"><ele>253.8</ele><time>2026-04-18T12:52:52.611Z</time></trkpt><trkpt lat="45.4906638" lon="10.484481"><ele>253.4</ele><time>2026-04-18T12:52:54.613Z</time></trkpt><trkpt lat="45.4907143" lon="10.4844139"><ele>253.0</ele><time>2026-04-18T12:52:55.612Z</time></trkpt><trkpt lat="45.4907599" lon="10.4843499"><ele>252.99999999999997</ele><time>2026-04-18T12:52:56.612Z</time></trkpt><trkpt lat="45.4908518" lon="10.484218"><ele>253.0</ele><time>2026-04-18T12:52:58.612Z</time></trkpt><trkpt lat="45.4908977" lon="10.4841511"><ele>253.0</ele><time>2026-04-18T12:52:59.614Z</time></trkpt><trkpt lat="45.4909357" lon="10.4840772"><ele>253.0</ele><time>2026-04-18T12:53:00.613Z</time></trkpt><trkpt lat="45.4909683" lon="10.4839898"><ele>252.99999999999997</ele><time>2026-04-18T12:53:01.613Z</time></trkpt><trkpt lat="45.4909959" lon="10.4838959"><ele>253.0</ele><time>2026-04-18T12:53:02.612Z</time></trkpt><trkpt lat="45.4910184" lon="10.4837921"><ele>252.49999999999997</ele><time>2026-04-18T12:53:03.611Z</time></trkpt><trkpt lat="45.4910383" lon="10.4836895"><ele>252.0</ele><time>2026-04-18T12:53:04.611Z</time></trkpt><trkpt lat="45.4910534" lon="10.4835774"><ele>251.5</ele><time>2026-04-18T12:53:05.614Z</time></trkpt><trkpt lat="45.4910595" lon="10.4834652"><ele>251.0</ele><time>2026-04-18T12:53:06.611Z</time></trkpt><trkpt lat="45.4910635" lon="10.4833576"><ele>250.49999999999997</ele><time>2026-04-18T12:53:07.612Z</time></trkpt><trkpt lat="45.4910747" lon="10.4832523"><ele>250.0</ele><time>2026-04-18T12:53:08.612Z</time></trkpt><trkpt lat="45.4910823" lon="10.4831467"><ele>250.0</ele><time>2026-04-18T12:53:09.613Z</time></trkpt><trkpt lat="45.4911095" lon="10.4830463"><ele>250.0</ele><time>2026-04-18T12:53:10.614Z</time></trkpt><trkpt lat="45.491156" lon="10.4829547"><ele>250.0</ele><time>2026-04-18T12:53:11.613Z</time></trkpt><trkpt lat="45.4912141" lon="10.4828973"><ele>250.0</ele><time>2026-04-18T12:53:12.612Z</time></trkpt><trkpt lat="45.4912792" lon="10.4828609"><ele>250.0</ele><time>2026-04-18T12:53:13.612Z</time></trkpt><trkpt lat="45.4913504" lon="10.4828349"><ele>250.0</ele><time>2026-04-18T12:53:14.612Z</time></trkpt><trkpt lat="45.4914244" lon="10.4828214"><ele>250.0</ele><time>2026-04-18T12:53:15.612Z</time></trkpt><trkpt lat="45.4915008" lon="10.4828111"><ele>248.33333333333331</ele><time>2026-04-18T12:53:16.613Z</time></trkpt><trkpt lat="45.4915865" lon="10.4827963"><ele>246.66666666666666</ele><time>2026-04-18T12:53:17.613Z</time></trkpt><trkpt lat="45.4916657" lon="10.4827732"><ele>245.0</ele><time>2026-04-18T12:53:18.613Z</time></trkpt><trkpt lat="45.4917446" lon="10.4827601"><ele>243.33333333333331</ele><time>2026-04-18T12:53:19.613Z</time></trkpt><trkpt lat="45.4918182" lon="10.482745"><ele>241.66666666666666</ele><time>2026-04-18T12:53:20.611Z</time></trkpt><trkpt lat="45.4918764" lon="10.4827028"><ele>240.0</ele><time>2026-04-18T12:53:21.612Z</time></trkpt><trkpt lat="45.4919236" lon="10.4825516"><ele>240.0</ele><time>2026-04-18T12:53:23.612Z</time></trkpt><trkpt lat="45.491918" lon="10.4824474"><ele>240.0</ele><time>2026-04-18T12:53:24.613Z</time></trkpt><trkpt lat="45.4918944" lon="10.4823424"><ele>240.0</ele><time>2026-04-18T12:53:25.612Z</time></trkpt><trkpt lat="45.4918669" lon="10.4822358"><ele>240.0</ele><time>2026-04-18T12:53:26.613Z</time></trkpt><trkpt lat="45.4918301" lon="10.4821404"><ele>240.0</ele><time>2026-04-18T12:53:27.613Z</time></trkpt><trkpt lat="45.4917949" lon="10.4820369"><ele>240.0</ele><time>2026-04-18T12:53:28.611Z</time></trkpt><trkpt lat="45.4917572" lon="10.4819367"><ele>238.8</ele><time>2026-04-18T12:53:29.613Z</time></trkpt><trkpt lat="45.4917296" lon="10.4818191"><ele>237.6</ele><time>2026-04-18T12:53:30.612Z</time></trkpt><trkpt lat="45.4917205" lon="10.4816874"><ele>236.39999999999998</ele><time>2026-04-18T12:53:31.612Z</time></trkpt><trkpt lat="45.4917353" lon="10.4815445"><ele>235.2</ele><time>2026-04-18T12:53:32.613Z</time></trkpt><trkpt lat="45.491757" lon="10.481392"><ele>234.0</ele><time>2026-04-18T12:53:33.612Z</time></trkpt><trkpt lat="45.4917621" lon="10.4812333"><ele>233.25</ele><time>2026-04-18T12:53:34.612Z</time></trkpt><trkpt lat="45.4917467" lon="10.4810781"><ele>232.5</ele><time>2026-04-18T12:53:35.612Z</time></trkpt><trkpt lat="45.4917212" lon="10.4809179"><ele>231.75</ele><time>2026-04-18T12:53:36.612Z</time></trkpt><trkpt lat="45.4916987" lon="10.4807572"><ele>231.0</ele><time>2026-04-18T12:53:37.612Z</time></trkpt><trkpt lat="45.4916817" lon="10.4805975"><ele>231.0</ele><time>2026-04-18T12:53:38.611Z</time></trkpt><trkpt lat="45.4916698" lon="10.4804344"><ele>231.0</ele><time>2026-04-18T12:53:39.612Z</time></trkpt><trkpt lat="45.491654" lon="10.4802648"><ele>231.0</ele><time>2026-04-18T12:53:40.612Z</time></trkpt><trkpt lat="45.4916368" lon="10.4800982"><ele>231.0</ele><time>2026-04-18T12:53:41.612Z</time></trkpt><trkpt lat="45.4916224" lon="10.4799244"><ele>231.25</ele><time>2026-04-18T12:53:42.612Z</time></trkpt><trkpt lat="45.4916033" lon="10.4797518"><ele>231.5</ele><time>2026-04-18T12:53:43.612Z</time></trkpt><trkpt lat="45.4915767" lon="10.4795901"><ele>231.75</ele><time>2026-04-18T12:53:44.613Z</time></trkpt><trkpt lat="45.491558" lon="10.4794384"><ele>232.0</ele><time>2026-04-18T12:53:45.613Z</time></trkpt><trkpt lat="45.4915457" lon="10.4792833"><ele>231.6</ele><time>2026-04-18T12:53:46.612Z</time></trkpt><trkpt lat="45.4915466" lon="10.4791312"><ele>231.2</ele><time>2026-04-18T12:53:47.612Z</time></trkpt><trkpt lat="45.4915489" lon="10.4789829"><ele>230.8</ele><time>2026-04-18T12:53:48.612Z</time></trkpt><trkpt lat="45.4915473" lon="10.4788367"><ele>230.4</ele><time>2026-04-18T12:53:49.612Z</time></trkpt><trkpt lat="45.4915375" lon="10.4786943"><ele>230.0</ele><time>2026-04-18T12:53:50.613Z</time></trkpt><trkpt lat="45.491523" lon="10.4785546"><ele>229.0</ele><time>2026-04-18T12:53:51.612Z</time></trkpt><trkpt lat="45.4915114" lon="10.4784182"><ele>228.0</ele><time>2026-04-18T12:53:52.612Z</time></trkpt><trkpt lat="45.4915105" lon="10.4782728"><ele>227.0</ele><time>2026-04-18T12:53:53.612Z</time></trkpt><trkpt lat="45.4915103" lon="10.4781246"><ele>226.0</ele><time>2026-04-18T12:53:54.612Z</time></trkpt><trkpt lat="45.4915286" lon="10.4779763"><ele>225.0</ele><time>2026-04-18T12:53:55.613Z</time></trkpt><trkpt lat="45.4915445" lon="10.4778302"><ele>224.0</ele><time>2026-04-18T12:53:56.611Z</time></trkpt><trkpt lat="45.4915707" lon="10.4776843"><ele>223.0</ele><time>2026-04-18T12:53:57.612Z</time></trkpt><trkpt lat="45.4916019" lon="10.4775439"><ele>222.0</ele><time>2026-04-18T12:53:58.612Z</time></trkpt><trkpt lat="45.4916286" lon="10.4774065"><ele>221.0</ele><time>2026-04-18T12:53:59.611Z</time></trkpt><trkpt lat="45.4916456" lon="10.47726"><ele>220.0</ele><time>2026-04-18T12:54:00.613Z</time></trkpt><trkpt lat="45.4916571" lon="10.4771189"><ele>219.0</ele><time>2026-04-18T12:54:01.612Z</time></trkpt><trkpt lat="45.4916649" lon="10.476974"><ele>218.0</ele><time>2026-04-18T12:54:02.612Z</time></trkpt><trkpt lat="45.4916683" lon="10.4768337"><ele>217.0</ele><time>2026-04-18T12:54:03.613Z</time></trkpt><trkpt lat="45.4916247" lon="10.4766944"><ele>216.0</ele><time>2026-04-18T12:54:04.611Z</time></trkpt><trkpt lat="45.4916053" lon="10.4765481"><ele>215.0</ele><time>2026-04-18T12:54:05.612Z</time></trkpt><trkpt lat="45.4915785" lon="10.4764177"><ele>215.0</ele><time>2026-04-18T12:54:06.612Z</time></trkpt><trkpt lat="45.4915549" lon="10.4763042"><ele>215.0</ele><time>2026-04-18T12:54:07.613Z</time></trkpt><trkpt lat="45.4915145" lon="10.4761962"><ele>215.0</ele><time>2026-04-18T12:54:08.612Z</time></trkpt><trkpt lat="45.4914632" lon="10.4760863"><ele>215.0</ele><time>2026-04-18T12:54:09.612Z</time></trkpt><trkpt lat="45.491404" lon="10.4759738"><ele>215.0</ele><time>2026-04-18T12:54:10.612Z</time></trkpt><trkpt lat="45.4913493" lon="10.4758497"><ele>214.25</ele><time>2026-04-18T12:54:11.612Z</time></trkpt><trkpt lat="45.4912982" lon="10.475723"><ele>213.5</ele><time>2026-04-18T12:54:12.613Z</time></trkpt><trkpt lat="45.4912466" lon="10.4755652"><ele>212.75</ele><time>2026-04-18T12:54:13.612Z</time></trkpt><trkpt lat="45.4911826" lon="10.475425"><ele>212.0</ele><time>2026-04-18T12:54:14.612Z</time></trkpt><trkpt lat="45.4911212" lon="10.4752736"><ele>210.6</ele><time>2026-04-18T12:54:15.612Z</time></trkpt><trkpt lat="45.4910595" lon="10.4751334"><ele>209.2</ele><time>2026-04-18T12:54:16.612Z</time></trkpt><trkpt lat="45.4910036" lon="10.4750054"><ele>207.8</ele><time>2026-04-18T12:54:17.612Z</time></trkpt><trkpt lat="45.4909249" lon="10.4749233"><ele>206.4</ele><time>2026-04-18T12:54:18.612Z</time></trkpt><trkpt lat="45.4908369" lon="10.4748961"><ele>205.0</ele><time>2026-04-18T12:54:19.612Z</time></trkpt><trkpt lat="45.4907637" lon="10.4748199"><ele>205.0</ele><time>2026-04-18T12:54:20.611Z</time></trkpt><trkpt lat="45.4907039" lon="10.474709"><ele>205.0</ele><time>2026-04-18T12:54:21.613Z</time></trkpt><trkpt lat="45.4906474" lon="10.4746026"><ele>205.0</ele><time>2026-04-18T12:54:22.612Z</time></trkpt><trkpt lat="45.4905885" lon="10.4745008"><ele>205.0</ele><time>2026-04-18T12:54:23.613Z</time></trkpt><trkpt lat="45.4905256" lon="10.4743885"><ele>205.0</ele><time>2026-04-18T12:54:24.612Z</time></trkpt><trkpt lat="45.490466" lon="10.4742687"><ele>202.2</ele><time>2026-04-18T12:54:25.612Z</time></trkpt><trkpt lat="45.4904096" lon="10.4741325"><ele>199.4</ele><time>2026-04-18T12:54:26.612Z</time></trkpt><trkpt lat="45.490344" lon="10.4740169"><ele>196.60000000000002</ele><time>2026-04-18T12:54:27.613Z</time></trkpt><trkpt lat="45.4902773" lon="10.4738953"><ele>193.8</ele><time>2026-04-18T12:54:28.612Z</time></trkpt><trkpt lat="45.490216" lon="10.4737812"><ele>191.0</ele><time>2026-04-18T12:54:29.613Z</time></trkpt><trkpt lat="45.490153" lon="10.4736794"><ele>191.0</ele><time>2026-04-18T12:54:30.612Z</time></trkpt><trkpt lat="45.4900908" lon="10.4735762"><ele>191.0</ele><time>2026-04-18T12:54:31.612Z</time></trkpt><trkpt lat="45.4899961" lon="10.4735788"><ele>191.0</ele><time>2026-04-18T12:54:33.612Z</time></trkpt><trkpt lat="45.4898894" lon="10.4736455"><ele>191.0</ele><time>2026-04-18T12:54:35.612Z</time></trkpt><trkpt lat="45.4898218" lon="10.4737137"><ele>191.0</ele><time>2026-04-18T12:54:36.612Z</time></trkpt><trkpt lat="45.4897502" lon="10.4737977"><ele>191.0</ele><time>2026-04-18T12:54:37.612Z</time></trkpt><trkpt lat="45.4896753" lon="10.4738762"><ele>191.0</ele><time>2026-04-18T12:54:38.612Z</time></trkpt><trkpt lat="45.4895868" lon="10.4739491"><ele>191.0</ele><time>2026-04-18T12:54:39.612Z</time></trkpt><trkpt lat="45.4894955" lon="10.4740165"><ele>191.0</ele><time>2026-04-18T12:54:40.612Z</time></trkpt><trkpt lat="45.489401" lon="10.4740871"><ele>191.0</ele><time>2026-04-18T12:54:41.612Z</time></trkpt><trkpt lat="45.4893004" lon="10.4741501"><ele>190.0</ele><time>2026-04-18T12:54:42.612Z</time></trkpt><trkpt lat="45.4892075" lon="10.4742012"><ele>189.0</ele><time>2026-04-18T12:54:43.612Z</time></trkpt><trkpt lat="45.4891173" lon="10.4742457"><ele>188.0</ele><time>2026-04-18T12:54:44.613Z</time></trkpt><trkpt lat="45.4890346" lon="10.4742928"><ele>187.0</ele><time>2026-04-18T12:54:45.613Z</time></trkpt><trkpt lat="45.4889561" lon="10.4743388"><ele>186.0</ele><time>2026-04-18T12:54:46.612Z</time></trkpt><trkpt lat="45.4888773" lon="10.4743951"><ele>186.0</ele><time>2026-04-18T12:54:47.612Z</time></trkpt><trkpt lat="45.4887883" lon="10.4744517"><ele>186.0</ele><time>2026-04-18T12:54:48.611Z</time></trkpt><trkpt lat="45.4887013" lon="10.4745015"><ele>186.0</ele><time>2026-04-18T12:54:49.61Z</time></trkpt><trkpt lat="45.4886068" lon="10.4745485"><ele>186.0</ele><time>2026-04-18T12:54:50.612Z</time></trkpt><trkpt lat="45.4885221" lon="10.4745869"><ele>186.0</ele><time>2026-04-18T12:54:51.612Z</time></trkpt><trkpt lat="45.4884467" lon="10.4746228"><ele>185.60000000000002</ele><time>2026-04-18T12:54:52.612Z</time></trkpt><trkpt lat="45.488378" lon="10.4746513"><ele>185.2</ele><time>2026-04-18T12:54:54.613Z</time></trkpt><trkpt lat="45.4882623" lon="10.4747433"><ele>184.8</ele><time>2026-04-18T12:54:56.613Z</time></trkpt><trkpt lat="45.488194" lon="10.4747934"><ele>184.39999999999998</ele><time>2026-04-18T12:54:57.612Z</time></trkpt><trkpt lat="45.4880971" lon="10.4748138"><ele>184.0</ele><time>2026-04-18T12:54:59.613Z</time></trkpt><trkpt lat="45.4880298" lon="10.4748893"><ele>183.6</ele><time>2026-04-18T12:55:53.612Z</time></trkpt><trkpt lat="45.4879103" lon="10.4749666"><ele>183.2</ele><time>2026-04-18T12:55:55.612Z</time></trkpt><trkpt lat="45.487763" lon="10.4750573"><ele>182.79999999999998</ele><time>2026-04-18T12:55:57.612Z</time></trkpt><trkpt lat="45.4876997" lon="10.4751023"><ele>182.39999999999998</ele><time>2026-04-18T12:55:58.612Z</time></trkpt><trkpt lat="45.4876417" lon="10.4751557"><ele>182.0</ele><time>2026-04-18T12:55:59.611Z</time></trkpt><trkpt lat="45.4875834" lon="10.4752116"><ele>182.0</ele><time>2026-04-18T12:56:00.611Z</time></trkpt><trkpt lat="45.4875376" lon="10.4752915"><ele>182.0</ele><time>2026-04-18T12:56:01.612Z</time></trkpt><trkpt lat="45.4874795" lon="10.4754075"><ele>182.0</ele><time>2026-04-18T12:56:03.613Z</time></trkpt><trkpt lat="45.4874251" lon="10.4754844"><ele>182.0</ele><time>2026-04-18T12:56:05.611Z</time></trkpt><trkpt lat="45.4873386" lon="10.4755239"><ele>182.0</ele><time>2026-04-18T12:56:07.612Z</time></trkpt><trkpt lat="45.4872525" lon="10.4755524"><ele>182.0</ele><time>2026-04-18T12:56:09.611Z</time></trkpt><trkpt lat="45.4871783" lon="10.475584"><ele>182.33333333333331</ele><time>2026-04-18T12:56:11.612Z</time></trkpt><trkpt lat="45.4871099" lon="10.4756025"><ele>182.66666666666666</ele><time>2026-04-18T12:56:13.61Z</time></trkpt><trkpt lat="45.4870439" lon="10.4756455"><ele>183.0</ele><time>2026-04-18T12:56:15.612Z</time></trkpt><trkpt lat="45.486976" lon="10.4756972"><ele>183.33333333333334</ele><time>2026-04-18T12:56:17.612Z</time></trkpt><trkpt lat="45.4869032" lon="10.4757332"><ele>183.66666666666669</ele><time>2026-04-18T12:56:19.613Z</time></trkpt><trkpt lat="45.4868242" lon="10.4757681"><ele>184.0</ele><time>2026-04-18T12:56:21.612Z</time></trkpt><trkpt lat="45.4867377" lon="10.4758452"><ele>184.0</ele><time>2026-04-18T12:56:23.61Z</time></trkpt><trkpt lat="45.4866294" lon="10.4758993"><ele>184.0</ele><time>2026-04-18T12:56:25.611Z</time></trkpt><trkpt lat="45.4865695" lon="10.4759299"><ele>184.0</ele><time>2026-04-18T12:56:26.612Z</time></trkpt><trkpt lat="45.4865066" lon="10.4759604"><ele>184.0</ele><time>2026-04-18T12:56:27.611Z</time></trkpt><trkpt lat="45.4864443" lon="10.4759899"><ele>184.0</ele><time>2026-04-18T12:56:28.611Z</time></trkpt><trkpt lat="45.4863811" lon="10.4760182"><ele>184.0</ele><time>2026-04-18T12:56:29.61Z</time></trkpt><trkpt lat="45.4863176" lon="10.4760444"><ele>184.0</ele><time>2026-04-18T12:56:30.612Z</time></trkpt><trkpt lat="45.4861972" lon="10.4760952"><ele>184.0</ele><time>2026-04-18T12:56:32.612Z</time></trkpt><trkpt lat="45.4861329" lon="10.4761197"><ele>184.0</ele><time>2026-04-18T12:56:33.611Z</time></trkpt><trkpt lat="45.4860704" lon="10.4761406"><ele>184.0</ele><time>2026-04-18T12:56:34.61Z</time></trkpt><trkpt lat="45.4860061" lon="10.4761649"><ele>184.0</ele><time>2026-04-18T12:56:35.611Z</time></trkpt><trkpt lat="45.4859383" lon="10.4761843"><ele>184.0</ele><time>2026-04-18T12:56:36.611Z</time></trkpt><trkpt lat="45.4858675" lon="10.4762084"><ele>184.0</ele><time>2026-04-18T12:56:37.611Z</time></trkpt><trkpt lat="45.485774" lon="10.4762277"><ele>184.0</ele><time>2026-04-18T12:56:39.612Z</time></trkpt><trkpt lat="45.4856849" lon="10.4762209"><ele>184.0</ele><time>2026-04-18T12:56:41.611Z</time></trkpt><trkpt lat="45.4855596" lon="10.4762342"><ele>184.0</ele><time>2026-04-18T12:56:43.61Z</time></trkpt><trkpt lat="45.4854326" lon="10.4762494"><ele>184.0</ele><time>2026-04-18T12:56:45.611Z</time></trkpt><trkpt lat="45.4853678" lon="10.4762535"><ele>184.0</ele><time>2026-04-18T12:56:46.61Z</time></trkpt><trkpt lat="45.4852969" lon="10.4762543"><ele>184.0</ele><time>2026-04-18T12:56:47.611Z</time></trkpt><trkpt lat="45.4852276" lon="10.4762536"><ele>184.0</ele><time>2026-04-18T12:56:48.611Z</time></trkpt><trkpt lat="45.4851583" lon="10.4762512"><ele>184.0</ele><time>2026-04-18T12:56:49.612Z</time></trkpt><trkpt lat="45.4850891" lon="10.4762479"><ele>184.0</ele><time>2026-04-18T12:56:50.613Z</time></trkpt><trkpt lat="45.4849973" lon="10.4762446"><ele>184.0</ele><time>2026-04-18T12:56:52.612Z</time></trkpt><trkpt lat="45.4848894" lon="10.4762483"><ele>184.0</ele><time>2026-04-18T12:56:55.611Z</time></trkpt><trkpt lat="45.4847776" lon="10.4762332"><ele>184.0</ele><time>2026-04-18T12:56:57.611Z</time></trkpt><trkpt lat="45.4846595" lon="10.4761996"><ele>184.0</ele><time>2026-04-18T12:56:59.611Z</time></trkpt><trkpt lat="45.4845647" lon="10.4761896"><ele>184.0</ele><time>2026-04-18T12:57:01.614Z</time></trkpt><trkpt lat="45.4844985" lon="10.4761803"><ele>184.0</ele><time>2026-04-18T12:57:03.611Z</time></trkpt><trkpt lat="45.4844274" lon="10.4761697"><ele>184.0</ele><time>2026-04-18T12:57:05.611Z</time></trkpt><trkpt lat="45.4843264" lon="10.476155"><ele>184.16666666666669</ele><time>2026-04-18T12:57:07.611Z</time></trkpt><trkpt lat="45.4842059" lon="10.4761435"><ele>184.33333333333334</ele><time>2026-04-18T12:57:09.612Z</time></trkpt><trkpt lat="45.4841417" lon="10.4761464"><ele>184.5</ele><time>2026-04-18T12:57:10.611Z</time></trkpt><trkpt lat="45.4840706" lon="10.4761422"><ele>184.66666666666666</ele><time>2026-04-18T12:57:11.612Z</time></trkpt><trkpt lat="45.483996" lon="10.4761445"><ele>184.83333333333331</ele><time>2026-04-18T12:57:12.611Z</time></trkpt><trkpt lat="45.483925" lon="10.4761478"><ele>185.0</ele><time>2026-04-18T12:57:13.612Z</time></trkpt><trkpt lat="45.483849" lon="10.4761489"><ele>185.0</ele><time>2026-04-18T12:57:14.612Z</time></trkpt><trkpt lat="45.483772" lon="10.4761497"><ele>185.0</ele><time>2026-04-18T12:57:15.613Z</time></trkpt><trkpt lat="45.4836976" lon="10.4761512"><ele>185.0</ele><time>2026-04-18T12:57:16.611Z</time></trkpt><trkpt lat="45.4836132" lon="10.4761578"><ele>185.0</ele><time>2026-04-18T12:57:17.611Z</time></trkpt><trkpt lat="45.4835351" lon="10.4761719"><ele>185.0</ele><time>2026-04-18T12:57:18.612Z</time></trkpt><trkpt lat="45.4834574" lon="10.4761885"><ele>185.0</ele><time>2026-04-18T12:57:19.611Z</time></trkpt><trkpt lat="45.4833796" lon="10.4761872"><ele>185.0</ele><time>2026-04-18T12:57:20.611Z</time></trkpt><trkpt lat="45.4833023" lon="10.4761983"><ele>185.0</ele><time>2026-04-18T12:57:21.612Z</time></trkpt><trkpt lat="45.4832213" lon="10.4762141"><ele>185.0</ele><time>2026-04-18T12:57:22.612Z</time></trkpt><trkpt lat="45.4831392" lon="10.4762292"><ele>185.0</ele><time>2026-04-18T12:57:23.612Z</time></trkpt><trkpt lat="45.483058" lon="10.4762466"><ele>185.0</ele><time>2026-04-18T12:57:24.611Z</time></trkpt><trkpt lat="45.482974" lon="10.4762622"><ele>185.0</ele><time>2026-04-18T12:57:25.612Z</time></trkpt><trkpt lat="45.4828937" lon="10.4762745"><ele>185.33333333333331</ele><time>2026-04-18T12:57:26.611Z</time></trkpt><trkpt lat="45.4828095" lon="10.4762754"><ele>185.66666666666666</ele><time>2026-04-18T12:57:27.61Z</time></trkpt><trkpt lat="45.4827273" lon="10.4762698"><ele>186.0</ele><time>2026-04-18T12:57:28.612Z</time></trkpt><trkpt lat="45.4826407" lon="10.4762635"><ele>186.33333333333334</ele><time>2026-04-18T12:57:29.612Z</time></trkpt><trkpt lat="45.4825529" lon="10.4762552"><ele>186.66666666666669</ele><time>2026-04-18T12:57:30.612Z</time></trkpt><trkpt lat="45.4824643" lon="10.4762473"><ele>187.0</ele><time>2026-04-18T12:57:31.611Z</time></trkpt><trkpt lat="45.4823736" lon="10.4762387"><ele>187.0</ele><time>2026-04-18T12:57:32.612Z</time></trkpt><trkpt lat="45.4822868" lon="10.4762231"><ele>187.0</ele><time>2026-04-18T12:57:33.612Z</time></trkpt><trkpt lat="45.4821961" lon="10.4762043"><ele>187.0</ele><time>2026-04-18T12:57:34.611Z</time></trkpt><trkpt lat="45.4821084" lon="10.4761836"><ele>187.0</ele><time>2026-04-18T12:57:35.611Z</time></trkpt><trkpt lat="45.4820193" lon="10.4761618"><ele>187.0</ele><time>2026-04-18T12:57:36.613Z</time></trkpt><trkpt lat="45.4819318" lon="10.4761277"><ele>187.0</ele><time>2026-04-18T12:57:37.612Z</time></trkpt><trkpt lat="45.4818472" lon="10.4760968"><ele>187.33333333333334</ele><time>2026-04-18T12:57:38.611Z</time></trkpt><trkpt lat="45.4817581" lon="10.4760642"><ele>187.66666666666669</ele><time>2026-04-18T12:57:39.61Z</time></trkpt><trkpt lat="45.4816707" lon="10.4760331"><ele>188.0</ele><time>2026-04-18T12:57:40.611Z</time></trkpt><trkpt lat="45.4815783" lon="10.4760089"><ele>188.33333333333334</ele><time>2026-04-18T12:57:41.612Z</time></trkpt><trkpt lat="45.4814928" lon="10.4759851"><ele>188.66666666666666</ele><time>2026-04-18T12:57:42.612Z</time></trkpt><trkpt lat="45.4814189" lon="10.4759576"><ele>189.0</ele><time>2026-04-18T12:57:43.61Z</time></trkpt><trkpt lat="45.4813349" lon="10.4759161"><ele>189.33333333333334</ele><time>2026-04-18T12:57:45.611Z</time></trkpt><trkpt lat="45.4812489" lon="10.4758561"><ele>189.66666666666666</ele><time>2026-04-18T12:57:49.61Z</time></trkpt><trkpt lat="45.4811346" lon="10.4759178"><ele>190.0</ele><time>2026-04-18T12:57:51.613Z</time></trkpt><trkpt lat="45.4810684" lon="10.4759502"><ele>190.33333333333331</ele><time>2026-04-18T12:57:52.612Z</time></trkpt><trkpt lat="45.4810009" lon="10.4759861"><ele>190.66666666666666</ele><time>2026-04-18T12:57:53.611Z</time></trkpt><trkpt lat="45.4809315" lon="10.4760229"><ele>191.0</ele><time>2026-04-18T12:57:54.611Z</time></trkpt><trkpt lat="45.4808583" lon="10.4760652"><ele>191.0</ele><time>2026-04-18T12:57:55.611Z</time></trkpt><trkpt lat="45.4807842" lon="10.4761031"><ele>191.0</ele><time>2026-04-18T12:57:56.612Z</time></trkpt><trkpt lat="45.480706" lon="10.4761438"><ele>191.0</ele><time>2026-04-18T12:57:57.611Z</time></trkpt><trkpt lat="45.4806262" lon="10.4761851"><ele>191.0</ele><time>2026-04-18T12:57:58.611Z</time></trkpt><trkpt lat="45.4805438" lon="10.4762312"><ele>191.0</ele><time>2026-04-18T12:57:59.611Z</time></trkpt><trkpt lat="45.4804623" lon="10.4762719"><ele>191.0</ele><time>2026-04-18T12:58:00.61Z</time></trkpt><trkpt lat="45.4803762" lon="10.4763149"><ele>190.0</ele><time>2026-04-18T12:58:01.612Z</time></trkpt><trkpt lat="45.4802932" lon="10.4763608"><ele>189.0</ele><time>2026-04-18T12:58:02.612Z</time></trkpt><trkpt lat="45.4802077" lon="10.4764042"><ele>188.0</ele><time>2026-04-18T12:58:03.611Z</time></trkpt><trkpt lat="45.4801274" lon="10.4764491"><ele>187.0</ele><time>2026-04-18T12:58:04.611Z</time></trkpt><trkpt lat="45.4821961" lon="10.4762043"><ele>187.0</ele><time>2026-04-18T12:57:34.611Z</time></trkpt><trkpt lat="45.4821084" lon="10.4761836"><ele>187.0</ele><time>2026-04-18T12:57:35.611Z</time></trkpt><trkpt lat="45.4820193" lon="10.4761618"><ele>187.0</ele><time>2026-04-18T12:57:36.613Z</time></trkpt><trkpt lat="45.4819318" lon="10.4761277"><ele>187.0</ele><time>2026-04-18T12:57:37.612Z</time></trkpt><trkpt lat="45.4818472" lon="10.4760968"><ele>187.0</ele><time>2026-04-18T12:57:38.611Z</time></trkpt><trkpt lat="45.4817581" lon="10.4760642"><ele>187.0</ele><time>2026-04-18T12:57:39.61Z</time></trkpt><trkpt lat="45.4816707" lon="10.4760331"><ele>187.33333333333334</ele><time>2026-04-18T12:57:40.611Z</time></trkpt><trkpt lat="45.4815783" lon="10.4760089"><ele>187.66666666666669</ele><time>2026-04-18T12:57:41.612Z</time></trkpt><trkpt lat="45.4814928" lon="10.4759851"><ele>188.0</ele><time>2026-04-18T12:57:42.612Z</time></trkpt><trkpt lat="45.4814189" lon="10.4759576"><ele>188.33333333333334</ele><time>2026-04-18T12:57:43.61Z</time></trkpt><trkpt lat="45.4813349" lon="10.4759161"><ele>188.66666666666666</ele><time>2026-04-18T12:57:45.611Z</time></trkpt><trkpt lat="45.4812489" lon="10.4758561"><ele>189.0</ele><time>2026-04-18T12:57:49.61Z</time></trkpt><trkpt lat="45.4811346" lon="10.4759178"><ele>189.33333333333334</ele><time>2026-04-18T12:57:51.613Z</time></trkpt><trkpt lat="45.4810684" lon="10.4759502"><ele>189.66666666666666</ele><time>2026-04-18T12:57:52.612Z</time></trkpt><trkpt lat="45.4810009" lon="10.4759861"><ele>190.0</ele><time>2026-04-18T12:57:53.611Z</time></trkpt><trkpt lat="45.4809315" lon="10.4760229"><ele>190.33333333333331</ele><time>2026-04-18T12:57:54.611Z</time></trkpt><trkpt lat="45.4808583" lon="10.4760652"><ele>190.66666666666666</ele><time>2026-04-18T12:57:55.611Z</time></trkpt><trkpt lat="45.4807842" lon="10.4761031"><ele>191.0</ele><time>2026-04-18T12:57:56.612Z</time></trkpt><trkpt lat="45.480706" lon="10.4761438"><ele>191.0</ele><time>2026-04-18T12:57:57.611Z</time></trkpt><trkpt lat="45.4806262" lon="10.4761851"><ele>191.0</ele><time>2026-04-18T12:57:58.611Z</time></trkpt><trkpt lat="45.4805438" lon="10.4762312"><ele>191.0</ele><time>2026-04-18T12:57:59.611Z</time></trkpt><trkpt lat="45.4804623" lon="10.4762719"><ele>191.0</ele><time>2026-04-18T12:58:00.61Z</time></trkpt><trkpt lat="45.4803762" lon="10.4763149"><ele>191.0</ele><time>2026-04-18T12:58:01.612Z</time></trkpt><trkpt lat="45.4802932" lon="10.4763608"><ele>191.0</ele><time>2026-04-18T12:58:02.612Z</time></trkpt><trkpt lat="45.4802077" lon="10.4764042"><ele>191.83333333333331</ele><time>2026-04-18T12:58:03.611Z</time></trkpt><trkpt lat="45.4801274" lon="10.4764491"><ele>192.66666666666666</ele><time>2026-04-18T12:58:04.611Z</time></trkpt><trkpt lat="45.480045" lon="10.4764919"><ele>193.5</ele><time>2026-04-18T12:58:05.612Z</time></trkpt><trkpt lat="45.4799648" lon="10.4765381"><ele>194.33333333333331</ele><time>2026-04-18T12:58:06.613Z</time></trkpt><trkpt lat="45.4798932" lon="10.4765833"><ele>195.16666666666666</ele><time>2026-04-18T12:58:07.61Z</time></trkpt><trkpt lat="45.4798135" lon="10.4766216"><ele>196.0</ele><time>2026-04-18T12:58:08.611Z</time></trkpt><trkpt lat="45.4797443" lon="10.4766456"><ele>195.99999999999997</ele><time>2026-04-18T12:58:09.612Z</time></trkpt><trkpt lat="45.4796471" lon="10.4766853"><ele>196.0</ele><time>2026-04-18T12:58:11.611Z</time></trkpt><trkpt lat="45.4796076" lon="10.4767651"><ele>196.0</ele><time>2026-04-18T12:58:13.61Z</time></trkpt><trkpt lat="45.4795294" lon="10.4767712"><ele>196.0</ele><time>2026-04-18T12:58:16.612Z</time></trkpt><trkpt lat="45.4794185" lon="10.476717"><ele>195.99999999999997</ele><time>2026-04-18T12:58:18.611Z</time></trkpt><trkpt lat="45.4793454" lon="10.4767068"><ele>196.0</ele><time>2026-04-18T12:58:19.612Z</time></trkpt><trkpt lat="45.4792701" lon="10.4766989"><ele>196.16666666666666</ele><time>2026-04-18T12:58:20.612Z</time></trkpt><trkpt lat="45.4791976" lon="10.476686"><ele>196.33333333333331</ele><time>2026-04-18T12:58:21.612Z</time></trkpt><trkpt lat="45.4791233" lon="10.4766719"><ele>196.5</ele><time>2026-04-18T12:58:22.613Z</time></trkpt><trkpt lat="45.4790465" lon="10.4766555"><ele>196.66666666666669</ele><time>2026-04-18T12:58:23.611Z</time></trkpt><trkpt lat="45.4789692" lon="10.4766413"><ele>196.83333333333334</ele><time>2026-04-18T12:58:24.611Z</time></trkpt><trkpt lat="45.4788906" lon="10.4766337"><ele>197.0</ele><time>2026-04-18T12:58:25.611Z</time></trkpt><trkpt lat="45.4788136" lon="10.4766262"><ele>197.00000000000003</ele><time>2026-04-18T12:58:26.61Z</time></trkpt><trkpt lat="45.4787355" lon="10.4766216"><ele>197.0</ele><time>2026-04-18T12:58:27.612Z</time></trkpt><trkpt lat="45.4786598" lon="10.476614"><ele>197.0</ele><time>2026-04-18T12:58:28.611Z</time></trkpt><trkpt lat="45.4785845" lon="10.4766065"><ele>197.0</ele><time>2026-04-18T12:58:29.612Z</time></trkpt><trkpt lat="45.4785086" lon="10.4765998"><ele>197.00000000000003</ele><time>2026-04-18T12:58:30.611Z</time></trkpt><trkpt lat="45.4784366" lon="10.476593"><ele>197.0</ele><time>2026-04-18T12:58:31.611Z</time></trkpt><trkpt lat="45.4783603" lon="10.4765792"><ele>197.00000000000003</ele><time>2026-04-18T12:58:32.612Z</time></trkpt><trkpt lat="45.4782832" lon="10.4765716"><ele>197.0</ele><time>2026-04-18T12:58:33.611Z</time></trkpt><trkpt lat="45.4782031" lon="10.4765649"><ele>197.0</ele><time>2026-04-18T12:58:34.612Z</time></trkpt><trkpt lat="45.4781206" lon="10.4765611"><ele>197.0</ele><time>2026-04-18T12:58:35.611Z</time></trkpt><trkpt lat="45.4780382" lon="10.4765599"><ele>197.00000000000003</ele><time>2026-04-18T12:58:36.612Z</time></trkpt><trkpt lat="45.4779544" lon="10.4765606"><ele>197.0</ele><time>2026-04-18T12:58:37.612Z</time></trkpt><trkpt lat="45.4778709" lon="10.4765688"><ele>197.2</ele><time>2026-04-18T12:58:38.61Z</time></trkpt><trkpt lat="45.4777892" lon="10.4765825"><ele>197.39999999999998</ele><time>2026-04-18T12:58:39.611Z</time></trkpt><trkpt lat="45.4777006" lon="10.4766053"><ele>197.60000000000002</ele><time>2026-04-18T12:58:40.612Z</time></trkpt><trkpt lat="45.4776112" lon="10.4766404"><ele>197.8</ele><time>2026-04-18T12:58:41.611Z</time></trkpt><trkpt lat="45.4775236" lon="10.4766783"><ele>198.0</ele><time>2026-04-18T12:58:42.611Z</time></trkpt><trkpt lat="45.4774342" lon="10.4767203"><ele>198.0</ele><time>2026-04-18T12:58:43.611Z</time></trkpt><trkpt lat="45.4773446" lon="10.4767675"><ele>198.0</ele><time>2026-04-18T12:58:44.612Z</time></trkpt><trkpt lat="45.4772546" lon="10.4768108"><ele>198.0</ele><time>2026-04-18T12:58:45.611Z</time></trkpt><trkpt lat="45.4771665" lon="10.4768575"><ele>198.0</ele><time>2026-04-18T12:58:46.611Z</time></trkpt><trkpt lat="45.4770829" lon="10.4768927"><ele>198.0</ele><time>2026-04-18T12:58:47.611Z</time></trkpt><trkpt lat="45.4770038" lon="10.4769335"><ele>197.83333333333334</ele><time>2026-04-18T12:58:48.612Z</time></trkpt><trkpt lat="45.476918" lon="10.4769762"><ele>197.66666666666669</ele><time>2026-04-18T12:58:49.61Z</time></trkpt><trkpt lat="45.4768326" lon="10.4770197"><ele>197.5</ele><time>2026-04-18T12:58:50.611Z</time></trkpt><trkpt lat="45.4767469" lon="10.4770609"><ele>197.33333333333334</ele><time>2026-04-18T12:58:51.611Z</time></trkpt><trkpt lat="45.4766644" lon="10.4771007"><ele>197.16666666666669</ele><time>2026-04-18T12:58:52.611Z</time></trkpt><trkpt lat="45.4765797" lon="10.4771449"><ele>197.0</ele><time>2026-04-18T12:58:53.611Z</time></trkpt><trkpt lat="45.4764926" lon="10.477187"><ele>197.66666666666669</ele><time>2026-04-18T12:58:54.611Z</time></trkpt><trkpt lat="45.4764018" lon="10.4772331"><ele>198.33333333333334</ele><time>2026-04-18T12:58:55.611Z</time></trkpt><trkpt lat="45.4763193" lon="10.4772784"><ele>199.0</ele><time>2026-04-18T12:58:56.61Z</time></trkpt><trkpt lat="45.4762482" lon="10.4773228"><ele>199.66666666666669</ele><time>2026-04-18T12:58:57.611Z</time></trkpt><trkpt lat="45.4761879" lon="10.4773728"><ele>200.33333333333334</ele><time>2026-04-18T12:58:58.612Z</time></trkpt><trkpt lat="45.4761387" lon="10.4774292"><ele>201.0</ele><time>2026-04-18T12:58:59.611Z</time></trkpt><trkpt lat="45.4761072" lon="10.4775535"><ele>201.0</ele><time>2026-04-18T12:59:01.611Z</time></trkpt><trkpt lat="45.4761358" lon="10.4776866"><ele>201.0</ele><time>2026-04-18T12:59:03.611Z</time></trkpt><trkpt lat="45.4761919" lon="10.4778384"><ele>201.0</ele><time>2026-04-18T12:59:05.612Z</time></trkpt><trkpt lat="45.4762312" lon="10.4779927"><ele>201.0</ele><time>2026-04-18T12:59:07.61Z</time></trkpt><trkpt lat="45.4762973" lon="10.4781192"><ele>201.0</ele><time>2026-04-18T12:59:09.611Z</time></trkpt><trkpt lat="45.4763579" lon="10.478199"><ele>202.0</ele><time>2026-04-18T12:59:11.612Z</time></trkpt><trkpt lat="45.4764636" lon="10.4782826"><ele>203.0</ele><time>2026-04-18T12:59:13.611Z</time></trkpt><trkpt lat="45.4765272" lon="10.4783371"><ele>204.0</ele><time>2026-04-18T12:59:14.611Z</time></trkpt><trkpt lat="45.4765958" lon="10.4783883"><ele>205.0</ele><time>2026-04-18T12:59:15.611Z</time></trkpt><trkpt lat="45.4766557" lon="10.4784531"><ele>206.0</ele><time>2026-04-18T12:59:16.611Z</time></trkpt><trkpt lat="45.4767125" lon="10.4785156"><ele>207.0</ele><time>2026-04-18T12:59:17.609Z</time></trkpt><trkpt lat="45.4767711" lon="10.4785767"><ele>207.0</ele><time>2026-04-18T12:59:18.612Z</time></trkpt><trkpt lat="45.4768304" lon="10.4786402"><ele>207.0</ele><time>2026-04-18T12:59:19.612Z</time></trkpt><trkpt lat="45.4768938" lon="10.4786994"><ele>207.0</ele><time>2026-04-18T12:59:20.611Z</time></trkpt><trkpt lat="45.4769456" lon="10.4787598"><ele>207.0</ele><time>2026-04-18T12:59:21.611Z</time></trkpt><trkpt lat="45.477014" lon="10.4788989"><ele>207.0</ele><time>2026-04-18T12:59:23.611Z</time></trkpt><trkpt lat="45.4770374" lon="10.4789877"><ele>207.0</ele><time>2026-04-18T12:59:24.611Z</time></trkpt><trkpt lat="45.477058" lon="10.479083"><ele>207.16666666666666</ele><time>2026-04-18T12:59:25.611Z</time></trkpt><trkpt lat="45.4770828" lon="10.479183"><ele>207.33333333333331</ele><time>2026-04-18T12:59:26.611Z</time></trkpt><trkpt lat="45.4771182" lon="10.4792752"><ele>207.5</ele><time>2026-04-18T12:59:27.61Z</time></trkpt><trkpt lat="45.477169" lon="10.4793603"><ele>207.66666666666666</ele><time>2026-04-18T12:59:28.611Z</time></trkpt><trkpt lat="45.4772316" lon="10.479415"><ele>207.83333333333331</ele><time>2026-04-18T12:59:29.611Z</time></trkpt><trkpt lat="45.4773123" lon="10.4794742"><ele>208.0</ele><time>2026-04-18T12:59:30.611Z</time></trkpt><trkpt lat="45.4773941" lon="10.4795322"><ele>208.16666666666666</ele><time>2026-04-18T12:59:31.611Z</time></trkpt><trkpt lat="45.4774755" lon="10.4795864"><ele>208.33333333333331</ele><time>2026-04-18T12:59:32.612Z</time></trkpt><trkpt lat="45.4775485" lon="10.4796432"><ele>208.5</ele><time>2026-04-18T12:59:33.61Z</time></trkpt><trkpt lat="45.4776218" lon="10.4796921"><ele>208.66666666666669</ele><time>2026-04-18T12:59:34.612Z</time></trkpt><trkpt lat="45.4776977" lon="10.4797239"><ele>208.83333333333334</ele><time>2026-04-18T12:59:35.611Z</time></trkpt><trkpt lat="45.4777763" lon="10.4797404"><ele>209.0</ele><time>2026-04-18T12:59:36.611Z</time></trkpt><trkpt lat="45.4778527" lon="10.4797476"><ele>209.50000000000003</ele><time>2026-04-18T12:59:37.611Z</time></trkpt><trkpt lat="45.4779289" lon="10.4797533"><ele>210.0</ele><time>2026-04-18T12:59:38.611Z</time></trkpt><trkpt lat="45.4780097" lon="10.4797457"><ele>210.5</ele><time>2026-04-18T12:59:39.611Z</time></trkpt><trkpt lat="45.4780875" lon="10.4797369"><ele>211.0</ele><time>2026-04-18T12:59:40.611Z</time></trkpt><trkpt lat="45.478165" lon="10.479742"><ele>211.50000000000003</ele><time>2026-04-18T12:59:41.613Z</time></trkpt><trkpt lat="45.4782364" lon="10.4797665"><ele>212.0</ele><time>2026-04-18T12:59:42.611Z</time></trkpt><trkpt lat="45.4783003" lon="10.4798047"><ele>212.33333333333334</ele><time>2026-04-18T12:59:43.611Z</time></trkpt><trkpt lat="45.47838" lon="10.4799309"><ele>212.66666666666669</ele><time>2026-04-18T12:59:45.612Z</time></trkpt><trkpt lat="45.4783989" lon="10.4800266"><ele>213.0</ele><time>2026-04-18T12:59:46.611Z</time></trkpt><trkpt lat="45.4784117" lon="10.4801332"><ele>213.33333333333331</ele><time>2026-04-18T12:59:47.611Z</time></trkpt><trkpt lat="45.4784238" lon="10.4802387"><ele>213.66666666666666</ele><time>2026-04-18T12:59:48.61Z</time></trkpt><trkpt lat="45.4784363" lon="10.4803469"><ele>214.0</ele><time>2026-04-18T12:59:49.611Z</time></trkpt><trkpt lat="45.478505" lon="10.4804719"><ele>214.33333333333331</ele><time>2026-04-18T12:59:51.611Z</time></trkpt><trkpt lat="45.4785699" lon="10.4805061"><ele>214.66666666666666</ele><time>2026-04-18T12:59:52.612Z</time></trkpt><trkpt lat="45.4786472" lon="10.480523"><ele>215.0</ele><time>2026-04-18T12:59:53.611Z</time></trkpt><trkpt lat="45.4787293" lon="10.4805352"><ele>215.33333333333331</ele><time>2026-04-18T12:59:54.611Z</time></trkpt><trkpt lat="45.4788131" lon="10.4805472"><ele>215.66666666666666</ele><time>2026-04-18T12:59:55.611Z</time></trkpt><trkpt lat="45.4788857" lon="10.480557"><ele>216.0</ele><time>2026-04-18T12:59:56.611Z</time></trkpt><trkpt lat="45.4789541" lon="10.4805747"><ele>216.0</ele><time>2026-04-18T12:59:57.611Z</time></trkpt><trkpt lat="45.4790165" lon="10.4805884"><ele>216.00000000000003</ele><time>2026-04-18T12:59:58.61Z</time></trkpt><trkpt lat="45.4791267" lon="10.4806177"><ele>216.00000000000003</ele><time>2026-04-18T13:00:00.612Z</time></trkpt><trkpt lat="45.4792054" lon="10.4807154"><ele>216.0</ele><time>2026-04-18T13:00:02.611Z</time></trkpt><trkpt lat="45.4792512" lon="10.4808888"><ele>216.0</ele><time>2026-04-18T13:00:04.611Z</time></trkpt><trkpt lat="45.4792635" lon="10.4810016"><ele>216.0</ele><time>2026-04-18T13:00:05.612Z</time></trkpt><trkpt lat="45.4792907" lon="10.4811131"><ele>216.0</ele><time>2026-04-18T13:00:06.61Z</time></trkpt><trkpt lat="45.4793227" lon="10.4812222"><ele>216.0</ele><time>2026-04-18T13:00:07.61Z</time></trkpt><trkpt lat="45.4793542" lon="10.481326"><ele>216.0</ele><time>2026-04-18T13:00:08.611Z</time></trkpt><trkpt lat="45.4793894" lon="10.4814257"><ele>216.0</ele><time>2026-04-18T13:00:09.61Z</time></trkpt><trkpt lat="45.479432" lon="10.4815228"><ele>216.0</ele><time>2026-04-18T13:00:10.611Z</time></trkpt><trkpt lat="45.4794705" lon="10.481616"><ele>217.33333333333334</ele><time>2026-04-18T13:00:11.61Z</time></trkpt><trkpt lat="45.4795117" lon="10.4817068"><ele>218.66666666666669</ele><time>2026-04-18T13:00:12.611Z</time></trkpt><trkpt lat="45.4795597" lon="10.4817876"><ele>220.0</ele><time>2026-04-18T13:00:13.611Z</time></trkpt><trkpt lat="45.479603" lon="10.4818677"><ele>221.33333333333334</ele><time>2026-04-18T13:00:14.61Z</time></trkpt><trkpt lat="45.4796537" lon="10.4820275"><ele>222.66666666666669</ele><time>2026-04-18T13:00:16.611Z</time></trkpt><trkpt lat="45.479664" lon="10.4821178"><ele>224.0</ele><time>2026-04-18T13:00:17.612Z</time></trkpt><trkpt lat="45.4796537" lon="10.4822132"><ele>224.79999999999998</ele><time>2026-04-18T13:00:18.61Z</time></trkpt><trkpt lat="45.4796506" lon="10.4823921"><ele>225.59999999999997</ele><time>2026-04-18T13:00:20.611Z</time></trkpt><trkpt lat="45.4796637" lon="10.4824882"><ele>226.4</ele><time>2026-04-18T13:00:21.61Z</time></trkpt><trkpt lat="45.4796819" lon="10.4825801"><ele>227.2</ele><time>2026-04-18T13:00:22.61Z</time></trkpt><trkpt lat="45.4796992" lon="10.4826685"><ele>228.0</ele><time>2026-04-18T13:00:23.613Z</time></trkpt><trkpt lat="45.4797275" lon="10.4828464"><ele>227.16666666666666</ele><time>2026-04-18T13:00:25.611Z</time></trkpt><trkpt lat="45.4797324" lon="10.4829553"><ele>226.33333333333331</ele><time>2026-04-18T13:00:26.61Z</time></trkpt><trkpt lat="45.4797326" lon="10.4830673"><ele>225.5</ele><time>2026-04-18T13:00:27.611Z</time></trkpt><trkpt lat="45.4797406" lon="10.4831708"><ele>224.66666666666666</ele><time>2026-04-18T13:00:28.611Z</time></trkpt><trkpt lat="45.4797978" lon="10.4833332"><ele>223.83333333333331</ele><time>2026-04-18T13:00:30.611Z</time></trkpt><trkpt lat="45.4798475" lon="10.4834155"><ele>223.0</ele><time>2026-04-18T13:00:31.613Z</time></trkpt><trkpt lat="45.4798964" lon="10.4835023"><ele>223.0</ele><time>2026-04-18T13:00:32.611Z</time></trkpt><trkpt lat="45.4799391" lon="10.4836044"><ele>223.0</ele><time>2026-04-18T13:00:33.611Z</time></trkpt><trkpt lat="45.4799904" lon="10.4836878"><ele>223.0</ele><time>2026-04-18T13:00:34.611Z</time></trkpt><trkpt lat="45.480043" lon="10.4837731"><ele>223.0</ele><time>2026-04-18T13:00:35.61Z</time></trkpt><trkpt lat="45.480078" lon="10.4838479"><ele>223.0</ele><time>2026-04-18T13:00:36.611Z</time></trkpt><trkpt lat="45.4801101" lon="10.483928"><ele>223.0</ele><time>2026-04-18T13:00:37.611Z</time></trkpt><trkpt lat="45.4801333" lon="10.4840241"><ele>223.0</ele><time>2026-04-18T13:00:38.611Z</time></trkpt><trkpt lat="45.4801615" lon="10.4841131"><ele>222.0</ele><time>2026-04-18T13:00:39.611Z</time></trkpt><trkpt lat="45.480201" lon="10.4842071"><ele>221.0</ele><time>2026-04-18T13:00:41.612Z</time></trkpt><trkpt lat="45.4802244" lon="10.4842909"><ele>220.0</ele><time>2026-04-18T13:00:54.611Z</time></trkpt><trkpt lat="45.4802365" lon="10.4844305"><ele>219.0</ele><time>2026-04-18T13:00:57.61Z</time></trkpt><trkpt lat="45.4802179" lon="10.4845889"><ele>218.0</ele><time>2026-04-18T13:00:59.611Z</time></trkpt><trkpt lat="45.4801897" lon="10.4847575"><ele>217.2</ele><time>2026-04-18T13:01:01.611Z</time></trkpt><trkpt lat="45.4801709" lon="10.4848479"><ele>216.4</ele><time>2026-04-18T13:01:02.61Z</time></trkpt><trkpt lat="45.4801313" lon="10.4849876"><ele>215.59999999999997</ele><time>2026-04-18T13:01:04.61Z</time></trkpt><trkpt lat="45.4800971" lon="10.4851016"><ele>214.79999999999998</ele><time>2026-04-18T13:01:06.61Z</time></trkpt><trkpt lat="45.4800393" lon="10.4852663"><ele>214.0</ele><time>2026-04-18T13:01:08.61Z</time></trkpt><trkpt lat="45.4800058" lon="10.485345"><ele>213.33333333333331</ele><time>2026-04-18T13:01:09.612Z</time></trkpt><trkpt lat="45.4799695" lon="10.485443"><ele>212.66666666666666</ele><time>2026-04-18T13:01:10.611Z</time></trkpt><trkpt lat="45.4799305" lon="10.4855421"><ele>212.0</ele><time>2026-04-18T13:01:11.611Z</time></trkpt><trkpt lat="45.4798888" lon="10.4856445"><ele>211.33333333333331</ele><time>2026-04-18T13:01:12.609Z</time></trkpt><trkpt lat="45.4798357" lon="10.4857455"><ele>210.66666666666666</ele><time>2026-04-18T13:01:13.61Z</time></trkpt><trkpt lat="45.4797868" lon="10.4858599"><ele>210.0</ele><time>2026-04-18T13:01:14.61Z</time></trkpt><trkpt lat="45.4797341" lon="10.4859734"><ele>210.0</ele><time>2026-04-18T13:01:15.611Z</time></trkpt><trkpt lat="45.4796811" lon="10.4860889"><ele>210.0</ele><time>2026-04-18T13:01:16.611Z</time></trkpt><trkpt lat="45.479627" lon="10.4862132"><ele>210.0</ele><time>2026-04-18T13:01:17.611Z</time></trkpt><trkpt lat="45.4795849" lon="10.4863412"><ele>210.0</ele><time>2026-04-18T13:01:18.609Z</time></trkpt><trkpt lat="45.4795422" lon="10.4864778"><ele>210.0</ele><time>2026-04-18T13:01:19.611Z</time></trkpt><trkpt lat="45.4794922" lon="10.4865928"><ele>209.33333333333334</ele><time>2026-04-18T13:01:20.612Z</time></trkpt><trkpt lat="45.4794473" lon="10.4867071"><ele>208.66666666666669</ele><time>2026-04-18T13:01:21.611Z</time></trkpt><trkpt lat="45.4794043" lon="10.4868125"><ele>208.0</ele><time>2026-04-18T13:01:22.611Z</time></trkpt><trkpt lat="45.4793725" lon="10.4869181"><ele>207.33333333333334</ele><time>2026-04-18T13:01:23.611Z</time></trkpt><trkpt lat="45.479339" lon="10.4870143"><ele>206.66666666666669</ele><time>2026-04-18T13:01:24.609Z</time></trkpt><trkpt lat="45.4793048" lon="10.4871071"><ele>206.0</ele><time>2026-04-18T13:01:25.61Z</time></trkpt><trkpt lat="45.4792716" lon="10.4872035"><ele>205.4</ele><time>2026-04-18T13:01:26.61Z</time></trkpt><trkpt lat="45.4792064" lon="10.487337"><ele>204.8</ele><time>2026-04-18T13:01:28.609Z</time></trkpt><trkpt lat="45.4791456" lon="10.487387"><ele>204.20000000000002</ele><time>2026-04-18T13:01:30.611Z</time></trkpt><trkpt lat="45.4790449" lon="10.487338"><ele>203.60000000000002</ele><time>2026-04-18T13:01:33.61Z</time></trkpt><trkpt lat="45.4789509" lon="10.4872725"><ele>203.0</ele><time>2026-04-18T13:01:35.611Z</time></trkpt><trkpt lat="45.4788289" lon="10.4872113"><ele>203.66666666666669</ele><time>2026-04-18T13:01:37.611Z</time></trkpt><trkpt lat="45.4787613" lon="10.4871803"><ele>204.33333333333334</ele><time>2026-04-18T13:01:38.61Z</time></trkpt><trkpt lat="45.4786893" lon="10.4871514"><ele>205.0</ele><time>2026-04-18T13:01:39.61Z</time></trkpt><trkpt lat="45.4786142" lon="10.4871058"><ele>205.66666666666669</ele><time>2026-04-18T13:01:40.611Z</time></trkpt><trkpt lat="45.4785475" lon="10.4870557"><ele>206.33333333333334</ele><time>2026-04-18T13:01:41.612Z</time></trkpt><trkpt lat="45.4784769" lon="10.4870057"><ele>207.0</ele><time>2026-04-18T13:01:42.61Z</time></trkpt><trkpt lat="45.4784064" lon="10.4869437"><ele>207.0</ele><time>2026-04-18T13:01:43.611Z</time></trkpt><trkpt lat="45.4783387" lon="10.4868775"><ele>207.0</ele><time>2026-04-18T13:01:44.612Z</time></trkpt><trkpt lat="45.4782671" lon="10.4868121"><ele>207.0</ele><time>2026-04-18T13:01:45.61Z</time></trkpt><trkpt lat="45.4781963" lon="10.4867475"><ele>207.0</ele><time>2026-04-18T13:01:46.61Z</time></trkpt><trkpt lat="45.4781306" lon="10.486676"><ele>207.0</ele><time>2026-04-18T13:01:47.61Z</time></trkpt><trkpt lat="45.4780597" lon="10.4865988"><ele>207.0</ele><time>2026-04-18T13:01:48.61Z</time></trkpt><trkpt lat="45.4779893" lon="10.4865206"><ele>207.33333333333334</ele><time>2026-04-18T13:01:49.61Z</time></trkpt><trkpt lat="45.4779276" lon="10.486433"><ele>207.66666666666669</ele><time>2026-04-18T13:01:50.611Z</time></trkpt><trkpt lat="45.4778556" lon="10.4863583"><ele>208.0</ele><time>2026-04-18T13:01:51.61Z</time></trkpt><trkpt lat="45.4777766" lon="10.4862864"><ele>208.33333333333334</ele><time>2026-04-18T13:01:52.612Z</time></trkpt><trkpt lat="45.4777053" lon="10.486223"><ele>208.66666666666669</ele><time>2026-04-18T13:01:53.611Z</time></trkpt><trkpt lat="45.4776346" lon="10.4861781"><ele>209.0</ele><time>2026-04-18T13:01:54.61Z</time></trkpt><trkpt lat="45.4775619" lon="10.486136"><ele>209.00000000000003</ele><time>2026-04-18T13:01:55.611Z</time></trkpt><trkpt lat="45.477487" lon="10.4860934"><ele>209.0</ele><time>2026-04-18T13:01:56.61Z</time></trkpt><trkpt lat="45.4774225" lon="10.4860515"><ele>209.0</ele><time>2026-04-18T13:01:57.609Z</time></trkpt><trkpt lat="45.477372" lon="10.4859957"><ele>209.0</ele><time>2026-04-18T13:01:58.61Z</time></trkpt><trkpt lat="45.4772945" lon="10.4859162"><ele>209.00000000000003</ele><time>2026-04-18T13:02:00.609Z</time></trkpt><trkpt lat="45.4771931" lon="10.4858183"><ele>209.0</ele><time>2026-04-18T13:02:02.61Z</time></trkpt><trkpt lat="45.4771277" lon="10.4857723"><ele>209.33333333333334</ele><time>2026-04-18T13:02:03.611Z</time></trkpt><trkpt lat="45.4770631" lon="10.4857318"><ele>209.66666666666669</ele><time>2026-04-18T13:02:04.61Z</time></trkpt><trkpt lat="45.4769919" lon="10.4856881"><ele>210.0</ele><time>2026-04-18T13:02:05.611Z</time></trkpt><trkpt lat="45.4769191" lon="10.4856521"><ele>210.33333333333331</ele><time>2026-04-18T13:02:06.61Z</time></trkpt><trkpt lat="45.476841" lon="10.485617"><ele>210.66666666666666</ele><time>2026-04-18T13:02:07.61Z</time></trkpt><trkpt lat="45.4767666" lon="10.4855752"><ele>211.0</ele><time>2026-04-18T13:02:08.609Z</time></trkpt><trkpt lat="45.4766946" lon="10.4855322"><ele>210.99999999999997</ele><time>2026-04-18T13:02:09.61Z</time></trkpt><trkpt lat="45.4766186" lon="10.4854977"><ele>211.0</ele><time>2026-04-18T13:02:10.61Z</time></trkpt><trkpt lat="45.476539" lon="10.4854585"><ele>211.0</ele><time>2026-04-18T13:02:11.61Z</time></trkpt><trkpt lat="45.4764593" lon="10.4854121"><ele>211.0</ele><time>2026-04-18T13:02:12.611Z</time></trkpt><trkpt lat="45.4763781" lon="10.4853602"><ele>210.99999999999997</ele><time>2026-04-18T13:02:13.61Z</time></trkpt><trkpt lat="45.4762984" lon="10.4853003"><ele>211.0</ele><time>2026-04-18T13:02:14.611Z</time></trkpt><trkpt lat="45.4762204" lon="10.4852421"><ele>212.33333333333331</ele><time>2026-04-18T13:02:15.611Z</time></trkpt><trkpt lat="45.4761456" lon="10.4851915"><ele>213.66666666666666</ele><time>2026-04-18T13:02:16.611Z</time></trkpt><trkpt lat="45.4760818" lon="10.4851469"><ele>215.0</ele><time>2026-04-18T13:02:17.61Z</time></trkpt><trkpt lat="45.4759917" lon="10.4850811"><ele>216.33333333333331</ele><time>2026-04-18T13:02:19.61Z</time></trkpt><trkpt lat="45.4759268" lon="10.4851041"><ele>217.66666666666666</ele><time>2026-04-18T13:02:23.61Z</time></trkpt><trkpt lat="45.4759252" lon="10.4852114"><ele>219.0</ele><time>2026-04-18T13:02:25.61Z</time></trkpt><trkpt lat="45.4759196" lon="10.4853071"><ele>219.0</ele><time>2026-04-18T13:02:27.61Z</time></trkpt><trkpt lat="45.4758774" lon="10.4853991"><ele>218.99999999999997</ele><time>2026-04-18T13:02:30.611Z</time></trkpt><trkpt lat="45.4757794" lon="10.4854678"><ele>218.99999999999997</ele><time>2026-04-18T13:02:32.61Z</time></trkpt><trkpt lat="45.4756708" lon="10.4855235"><ele>219.0</ele><time>2026-04-18T13:02:34.61Z</time></trkpt><trkpt lat="45.4755467" lon="10.4855763"><ele>219.0</ele><time>2026-04-18T13:02:36.61Z</time></trkpt><trkpt lat="45.4754766" lon="10.4856129"><ele>218.66666666666666</ele><time>2026-04-18T13:02:37.61Z</time></trkpt><trkpt lat="45.4754136" lon="10.4856334"><ele>218.33333333333331</ele><time>2026-04-18T13:02:38.61Z</time></trkpt><trkpt lat="45.4752891" lon="10.4856929"><ele>218.0</ele><time>2026-04-18T13:02:40.61Z</time></trkpt><trkpt lat="45.475216" lon="10.4857249"><ele>217.66666666666666</ele><time>2026-04-18T13:02:41.61Z</time></trkpt><trkpt lat="45.4751422" lon="10.4857515"><ele>217.33333333333331</ele><time>2026-04-18T13:02:42.61Z</time></trkpt><trkpt lat="45.4750718" lon="10.4857775"><ele>217.0</ele><time>2026-04-18T13:02:43.61Z</time></trkpt><trkpt lat="45.4750051" lon="10.485797"><ele>216.99999999999997</ele><time>2026-04-18T13:02:44.61Z</time></trkpt><trkpt lat="45.4749409" lon="10.4858348"><ele>217.0</ele><time>2026-04-18T13:02:45.61Z</time></trkpt><trkpt lat="45.4748808" lon="10.4858799"><ele>217.0</ele><time>2026-04-18T13:02:46.611Z</time></trkpt><trkpt lat="45.4748284" lon="10.4859443"><ele>217.0</ele><time>2026-04-18T13:02:49.612Z</time></trkpt><trkpt lat="45.4747708" lon="10.4860526"><ele>216.99999999999997</ele><time>2026-04-18T13:02:52.61Z</time></trkpt><trkpt lat="45.4747436" lon="10.4861702"><ele>217.0</ele><time>2026-04-18T13:02:54.61Z</time></trkpt><trkpt lat="45.4747538" lon="10.4863058"><ele>214.6</ele><time>2026-04-18T13:02:56.611Z</time></trkpt><trkpt lat="45.4747358" lon="10.486437"><ele>212.2</ele><time>2026-04-18T13:02:58.611Z</time></trkpt><trkpt lat="45.4746668" lon="10.4865446"><ele>209.8</ele><time>2026-04-18T13:03:00.609Z</time></trkpt><trkpt lat="45.4746046" lon="10.486571"><ele>207.4</ele><time>2026-04-18T13:03:03.611Z</time></trkpt><trkpt lat="45.4746784" lon="10.4864619"><ele>205.0</ele><time>2026-04-18T13:03:18.609Z</time></trkpt><trkpt lat="45.4747253" lon="10.486316"><ele>207.4</ele><time>2026-04-18T13:03:20.609Z</time></trkpt><trkpt lat="45.4747161" lon="10.4861494"><ele>209.8</ele><time>2026-04-18T13:03:22.609Z</time></trkpt><trkpt lat="45.4747489" lon="10.4859957"><ele>212.2</ele><time>2026-04-18T13:03:24.61Z</time></trkpt><trkpt lat="45.4748211" lon="10.4858671"><ele>214.6</ele><time>2026-04-18T13:03:26.61Z</time></trkpt><trkpt lat="45.4747702" lon="10.4859358"><ele>217.0</ele><time>2026-04-18T13:03:34.61Z</time></trkpt><trkpt lat="45.4748379" lon="10.4858596"><ele>216.99999999999997</ele><time>2026-04-18T13:03:38.61Z</time></trkpt><trkpt lat="45.4749086" lon="10.4858208"><ele>217.0</ele><time>2026-04-18T13:03:39.61Z</time></trkpt><trkpt lat="45.4749811" lon="10.4857891"><ele>217.0</ele><time>2026-04-18T13:03:40.61Z</time></trkpt><trkpt lat="45.4750553" lon="10.4857547"><ele>217.0</ele><time>2026-04-18T13:03:41.61Z</time></trkpt><trkpt lat="45.4751505" lon="10.4857296"><ele>216.99999999999997</ele><time>2026-04-18T13:03:42.61Z</time></trkpt><trkpt lat="45.4752397" lon="10.4856994"><ele>217.0</ele><time>2026-04-18T13:03:43.61Z</time></trkpt><trkpt lat="45.4753294" lon="10.4856615"><ele>217.0</ele><time>2026-04-18T13:03:44.611Z</time></trkpt><trkpt lat="45.4754173" lon="10.4856239"><ele>217.0</ele><time>2026-04-18T13:03:45.609Z</time></trkpt><trkpt lat="45.4755178" lon="10.4855888"><ele>217.0</ele><time>2026-04-18T13:03:46.61Z</time></trkpt><trkpt lat="45.4756042" lon="10.485539"><ele>217.0</ele><time>2026-04-18T13:03:47.61Z</time></trkpt><trkpt lat="45.4757003" lon="10.4854823"><ele>217.0</ele><time>2026-04-18T13:03:48.611Z</time></trkpt><trkpt lat="45.4757814" lon="10.4854397"><ele>217.33333333333331</ele><time>2026-04-18T13:03:49.61Z</time></trkpt><trkpt lat="45.4758479" lon="10.4854065"><ele>217.66666666666666</ele><time>2026-04-18T13:03:50.609Z</time></trkpt><trkpt lat="45.4759089" lon="10.4853762"><ele>218.0</ele><time>2026-04-18T13:03:51.61Z</time></trkpt><trkpt lat="45.4759097" lon="10.4852684"><ele>218.33333333333331</ele><time>2026-04-18T13:04:26.61Z</time></trkpt><trkpt lat="45.475908" lon="10.4851351"><ele>218.66666666666666</ele><time>2026-04-18T13:04:29.61Z</time></trkpt><trkpt lat="45.4759009" lon="10.4850038"><ele>219.0</ele><time>2026-04-18T13:04:32.61Z</time></trkpt><trkpt lat="45.4758332" lon="10.4849611"><ele>219.0</ele><time>2026-04-18T13:04:34.609Z</time></trkpt><trkpt lat="45.4757829" lon="10.4849037"><ele>219.0</ele><time>2026-04-18T13:04:43.608Z</time></trkpt><trkpt lat="45.4757307" lon="10.4848426"><ele>219.0</ele><time>2026-04-18T13:04:45.609Z</time></trkpt><trkpt lat="45.4756762" lon="10.4847678"><ele>219.0</ele><time>2026-04-18T13:04:47.609Z</time></trkpt><trkpt lat="45.4756244" lon="10.4846559"><ele>219.0</ele><time>2026-04-18T13:04:49.609Z</time></trkpt><trkpt lat="45.4755987" lon="10.4845632"><ele>219.0</ele><time>2026-04-18T13:04:51.609Z</time></trkpt><trkpt lat="45.4756457" lon="10.4846838"><ele>219.0</ele><time>2026-04-18T13:05:00.608Z</time></trkpt><trkpt lat="45.4757176" lon="10.4848089"><ele>218.99999999999997</ele><time>2026-04-18T13:05:02.61Z</time></trkpt><trkpt lat="45.4758046" lon="10.4849219"><ele>218.99999999999997</ele><time>2026-04-18T13:05:04.609Z</time></trkpt><trkpt lat="45.475887" lon="10.4850013"><ele>219.0</ele><time>2026-04-18T13:05:06.609Z</time></trkpt><trkpt lat="45.4759309" lon="10.4850846"><ele>219.0</ele><time>2026-04-18T13:05:09.608Z</time></trkpt><trkpt lat="45.4760133" lon="10.4851075"><ele>219.0</ele><time>2026-04-18T13:05:24.609Z</time></trkpt><trkpt lat="45.4761171" lon="10.4851911"><ele>219.0</ele><time>2026-04-18T13:05:26.609Z</time></trkpt><trkpt lat="45.47618" lon="10.4852391"><ele>219.0</ele><time>2026-04-18T13:05:27.609Z</time></trkpt><trkpt lat="45.4762482" lon="10.4852855"><ele>219.0</ele><time>2026-04-18T13:05:28.609Z</time></trkpt><trkpt lat="45.4763154" lon="10.4853334"><ele>219.0</ele><time>2026-04-18T13:05:29.608Z</time></trkpt><trkpt lat="45.4763858" lon="10.4853834"><ele>219.0</ele><time>2026-04-18T13:05:30.609Z</time></trkpt><trkpt lat="45.4764541" lon="10.4854325"><ele>217.85714285714286</ele><time>2026-04-18T13:05:31.608Z</time></trkpt><trkpt lat="45.4765237" lon="10.4854761"><ele>216.7142857142857</ele><time>2026-04-18T13:05:32.609Z</time></trkpt><trkpt lat="45.4765937" lon="10.4855128"><ele>215.57142857142856</ele><time>2026-04-18T13:05:33.609Z</time></trkpt><trkpt lat="45.4766614" lon="10.4855459"><ele>214.42857142857144</ele><time>2026-04-18T13:05:34.609Z</time></trkpt><trkpt lat="45.4767323" lon="10.4855779"><ele>213.28571428571428</ele><time>2026-04-18T13:05:35.61Z</time></trkpt><trkpt lat="45.4768042" lon="10.4856083"><ele>212.14285714285714</ele><time>2026-04-18T13:05:36.608Z</time></trkpt><trkpt lat="45.4768772" lon="10.4856422"><ele>211.0</ele><time>2026-04-18T13:05:37.608Z</time></trkpt><trkpt lat="45.4769511" lon="10.4856865"><ele>210.99999999999997</ele><time>2026-04-18T13:05:38.609Z</time></trkpt><trkpt lat="45.4770272" lon="10.4857312"><ele>211.0</ele><time>2026-04-18T13:05:39.609Z</time></trkpt><trkpt lat="45.477103" lon="10.4857846"><ele>211.0</ele><time>2026-04-18T13:05:40.609Z</time></trkpt><trkpt lat="45.4771694" lon="10.4858344"><ele>211.0</ele><time>2026-04-18T13:05:41.609Z</time></trkpt><trkpt lat="45.4772359" lon="10.4858849"><ele>210.99999999999997</ele><time>2026-04-18T13:05:42.61Z</time></trkpt><trkpt lat="45.477297" lon="10.4859302"><ele>211.0</ele><time>2026-04-18T13:05:43.609Z</time></trkpt><trkpt lat="45.477361" lon="10.4859766"><ele>210.71428571428572</ele><time>2026-04-18T13:05:44.609Z</time></trkpt><trkpt lat="45.4774198" lon="10.4860297"><ele>210.42857142857144</ele><time>2026-04-18T13:05:45.609Z</time></trkpt><trkpt lat="45.4774842" lon="10.4860747"><ele>210.14285714285714</ele><time>2026-04-18T13:05:46.609Z</time></trkpt><trkpt lat="45.4775498" lon="10.4861169"><ele>209.85714285714286</ele><time>2026-04-18T13:05:47.609Z</time></trkpt><trkpt lat="45.4776105" lon="10.4861589"><ele>209.57142857142856</ele><time>2026-04-18T13:05:48.609Z</time></trkpt><trkpt lat="45.4776714" lon="10.4862048"><ele>209.28571428571428</ele><time>2026-04-18T13:05:49.608Z</time></trkpt><trkpt lat="45.477733" lon="10.4862539"><ele>209.0</ele><time>2026-04-18T13:05:50.61Z</time></trkpt><trkpt lat="45.4777911" lon="10.4863047"><ele>208.71428571428572</ele><time>2026-04-18T13:05:51.608Z</time></trkpt><trkpt lat="45.4778483" lon="10.4863584"><ele>208.42857142857142</ele><time>2026-04-18T13:05:52.609Z</time></trkpt><trkpt lat="45.4779041" lon="10.4864159"><ele>208.14285714285717</ele><time>2026-04-18T13:05:53.61Z</time></trkpt><trkpt lat="45.4779553" lon="10.4864816"><ele>207.85714285714286</ele><time>2026-04-18T13:05:54.609Z</time></trkpt><trkpt lat="45.4780073" lon="10.48655"><ele>207.57142857142858</ele><time>2026-04-18T13:05:55.609Z</time></trkpt><trkpt lat="45.4780585" lon="10.4866269"><ele>207.2857142857143</ele><time>2026-04-18T13:05:56.608Z</time></trkpt><trkpt lat="45.4781215" lon="10.4866794"><ele>207.0</ele><time>2026-04-18T13:05:57.609Z</time></trkpt><trkpt lat="45.4781891" lon="10.4867466"><ele>207.0</ele><time>2026-04-18T13:05:58.609Z</time></trkpt><trkpt lat="45.4782599" lon="10.4868102"><ele>207.0</ele><time>2026-04-18T13:05:59.609Z</time></trkpt><trkpt lat="45.4783312" lon="10.4868829"><ele>207.0</ele><time>2026-04-18T13:06:00.609Z</time></trkpt><trkpt lat="45.4784066" lon="10.4869481"><ele>207.0</ele><time>2026-04-18T13:06:01.609Z</time></trkpt><trkpt lat="45.4784858" lon="10.4870082"><ele>207.0</ele><time>2026-04-18T13:06:02.609Z</time></trkpt><trkpt lat="45.4785528" lon="10.4870647"><ele>207.0</ele><time>2026-04-18T13:06:03.609Z</time></trkpt><trkpt lat="45.4786149" lon="10.4871053"><ele>206.33333333333334</ele><time>2026-04-18T13:06:04.61Z</time></trkpt><trkpt lat="45.4786918" lon="10.4871345"><ele>205.66666666666669</ele><time>2026-04-18T13:06:28.609Z</time></trkpt><trkpt lat="45.4787663" lon="10.4871682"><ele>205.0</ele><time>2026-04-18T13:06:30.609Z</time></trkpt><trkpt lat="45.4788266" lon="10.4871955"><ele>204.33333333333334</ele><time>2026-04-18T13:06:31.61Z</time></trkpt><trkpt lat="45.4788943" lon="10.4872335"><ele>203.66666666666669</ele><time>2026-04-18T13:06:32.609Z</time></trkpt><trkpt lat="45.4789594" lon="10.4872833"><ele>203.0</ele><time>2026-04-18T13:06:33.609Z</time></trkpt><trkpt lat="45.4790338" lon="10.4873399"><ele>203.00000000000003</ele><time>2026-04-18T13:06:34.609Z</time></trkpt><trkpt lat="45.4791107" lon="10.4873872"><ele>203.0</ele><time>2026-04-18T13:06:35.608Z</time></trkpt><trkpt lat="45.4791779" lon="10.4874507"><ele>203.0</ele><time>2026-04-18T13:06:36.61Z</time></trkpt><trkpt lat="45.4792509" lon="10.487518"><ele>203.0</ele><time>2026-04-18T13:06:37.61Z</time></trkpt><trkpt lat="45.4793277" lon="10.4875765"><ele>203.00000000000003</ele><time>2026-04-18T13:06:38.609Z</time></trkpt><trkpt lat="45.4793564" lon="10.4876795"><ele>203.0</ele><time>2026-04-18T13:06:39.609Z</time></trkpt><trkpt lat="45.4794045" lon="10.4877816"><ele>203.0</ele><time>2026-04-18T13:06:40.61Z</time></trkpt><trkpt lat="45.4794524" lon="10.4878933"><ele>203.0</ele><time>2026-04-18T13:06:41.609Z</time></trkpt><trkpt lat="45.4795064" lon="10.4880042"><ele>203.0</ele><time>2026-04-18T13:06:42.609Z</time></trkpt><trkpt lat="45.4795514" lon="10.4881228"><ele>203.0</ele><time>2026-04-18T13:06:43.609Z</time></trkpt><trkpt lat="45.4796027" lon="10.4882663"><ele>203.0</ele><time>2026-04-18T13:06:44.609Z</time></trkpt><trkpt lat="45.4796378" lon="10.4884078"><ele>202.66666666666669</ele><time>2026-04-18T13:06:45.609Z</time></trkpt><trkpt lat="45.479677" lon="10.4884927"><ele>202.33333333333334</ele><time>2026-04-18T13:06:46.609Z</time></trkpt><trkpt lat="45.4797143" lon="10.4886059"><ele>202.0</ele><time>2026-04-18T13:06:47.609Z</time></trkpt><trkpt lat="45.479755" lon="10.4886976"><ele>201.66666666666669</ele><time>2026-04-18T13:06:48.608Z</time></trkpt><trkpt lat="45.4798007" lon="10.4887999"><ele>201.33333333333334</ele><time>2026-04-18T13:06:49.609Z</time></trkpt><trkpt lat="45.4798527" lon="10.4889418"><ele>201.0</ele><time>2026-04-18T13:06:50.609Z</time></trkpt><trkpt lat="45.4799175" lon="10.4890427"><ele>200.4</ele><time>2026-04-18T13:06:51.609Z</time></trkpt><trkpt lat="45.4799688" lon="10.4891661"><ele>199.8</ele><time>2026-04-18T13:06:52.61Z</time></trkpt><trkpt lat="45.4800358" lon="10.4892626"><ele>199.20000000000002</ele><time>2026-04-18T13:06:53.61Z</time></trkpt><trkpt lat="45.4800999" lon="10.4893625"><ele>198.60000000000002</ele><time>2026-04-18T13:06:54.608Z</time></trkpt><trkpt lat="45.4801801" lon="10.4894416"><ele>198.0</ele><time>2026-04-18T13:06:55.609Z</time></trkpt><trkpt lat="45.4802524" lon="10.4895166"><ele>196.5</ele><time>2026-04-18T13:06:56.609Z</time></trkpt><trkpt lat="45.4803269" lon="10.4895937"><ele>195.0</ele><time>2026-04-18T13:06:57.609Z</time></trkpt><trkpt lat="45.4803983" lon="10.489679"><ele>193.5</ele><time>2026-04-18T13:06:58.609Z</time></trkpt><trkpt lat="45.4804883" lon="10.4896665"><ele>192.0</ele><time>2026-04-18T13:06:59.609Z</time></trkpt><trkpt lat="45.4805715" lon="10.4896842"><ele>190.5</ele><time>2026-04-18T13:07:00.609Z</time></trkpt><trkpt lat="45.4806509" lon="10.4896668"><ele>189.0</ele><time>2026-04-18T13:07:01.609Z</time></trkpt><trkpt lat="45.480728" lon="10.4896735"><ele>189.0</ele><time>2026-04-18T13:07:02.609Z</time></trkpt><trkpt lat="45.4808176" lon="10.4896792"><ele>189.0</ele><time>2026-04-18T13:07:03.609Z</time></trkpt><trkpt lat="45.4808904" lon="10.4896959"><ele>189.0</ele><time>2026-04-18T13:07:04.61Z</time></trkpt><trkpt lat="45.4809291" lon="10.489794"><ele>189.0</ele><time>2026-04-18T13:07:05.609Z</time></trkpt><trkpt lat="45.4809931" lon="10.4898637"><ele>189.0</ele><time>2026-04-18T13:07:06.608Z</time></trkpt><trkpt lat="45.4810495" lon="10.4899485"><ele>189.0</ele><time>2026-04-18T13:07:07.609Z</time></trkpt><trkpt lat="45.4811071" lon="10.4900371"><ele>189.0</ele><time>2026-04-18T13:07:08.609Z</time></trkpt><trkpt lat="45.4811796" lon="10.4901208"><ele>189.0</ele><time>2026-04-18T13:07:09.609Z</time></trkpt><trkpt lat="45.4812501" lon="10.49021"><ele>189.0</ele><time>2026-04-18T13:07:10.609Z</time></trkpt><trkpt lat="45.4813142" lon="10.4903087"><ele>189.0</ele><time>2026-04-18T13:07:11.609Z</time></trkpt><trkpt lat="45.4813571" lon="10.4904071"><ele>189.0</ele><time>2026-04-18T13:07:12.609Z</time></trkpt><trkpt lat="45.4814215" lon="10.4904851"><ele>189.0</ele><time>2026-04-18T13:07:13.61Z</time></trkpt><trkpt lat="45.4814776" lon="10.4905758"><ele>189.79999999999998</ele><time>2026-04-18T13:07:14.609Z</time></trkpt><trkpt lat="45.4815173" lon="10.4906921"><ele>190.6</ele><time>2026-04-18T13:07:15.609Z</time></trkpt><trkpt lat="45.4815724" lon="10.4907813"><ele>191.4</ele><time>2026-04-18T13:07:16.608Z</time></trkpt><trkpt lat="45.4816348" lon="10.4908921"><ele>192.2</ele><time>2026-04-18T13:07:17.609Z</time></trkpt><trkpt lat="45.4817126" lon="10.4909973"><ele>193.0</ele><time>2026-04-18T13:07:18.61Z</time></trkpt><trkpt lat="45.4817785" lon="10.4910902"><ele>193.0</ele><time>2026-04-18T13:07:19.609Z</time></trkpt><trkpt lat="45.4818374" lon="10.491178"><ele>193.0</ele><time>2026-04-18T13:07:20.609Z</time></trkpt><trkpt lat="45.4819071" lon="10.4912771"><ele>193.0</ele><time>2026-04-18T13:07:21.609Z</time></trkpt><trkpt lat="45.4819901" lon="10.4913766"><ele>193.0</ele><time>2026-04-18T13:07:22.61Z</time></trkpt><trkpt lat="45.4820484" lon="10.4914869"><ele>193.0</ele><time>2026-04-18T13:07:23.609Z</time></trkpt><trkpt lat="45.4821201" lon="10.4915799"><ele>193.2</ele><time>2026-04-18T13:07:24.608Z</time></trkpt><trkpt lat="45.4821719" lon="10.4916697"><ele>193.4</ele><time>2026-04-18T13:07:25.608Z</time></trkpt><trkpt lat="45.4822567" lon="10.4918412"><ele>193.6</ele><time>2026-04-18T13:07:27.61Z</time></trkpt><trkpt lat="45.4823055" lon="10.4919121"><ele>193.79999999999998</ele><time>2026-04-18T13:07:28.609Z</time></trkpt><trkpt lat="45.4823608" lon="10.4920485"><ele>194.0</ele><time>2026-04-18T13:07:30.609Z</time></trkpt><trkpt lat="45.4823738" lon="10.4921365"><ele>192.66666666666669</ele><time>2026-04-18T13:07:32.609Z</time></trkpt><trkpt lat="45.4822806" lon="10.4921583"><ele>191.33333333333334</ele><time>2026-04-18T13:07:36.611Z</time></trkpt><trkpt lat="45.4821844" lon="10.4921533"><ele>190.0</ele><time>2026-04-18T13:07:38.61Z</time></trkpt><trkpt lat="45.482114" lon="10.49214"><ele>188.66666666666669</ele><time>2026-04-18T13:07:39.609Z</time></trkpt><trkpt lat="45.4820404" lon="10.4921243"><ele>187.33333333333334</ele><time>2026-04-18T13:07:40.608Z</time></trkpt><trkpt lat="45.4819658" lon="10.4921025"><ele>186.0</ele><time>2026-04-18T13:07:41.609Z</time></trkpt><trkpt lat="45.4818835" lon="10.4920778"><ele>186.0</ele><time>2026-04-18T13:07:42.608Z</time></trkpt><trkpt lat="45.4817951" lon="10.4920526"><ele>186.0</ele><time>2026-04-18T13:07:43.609Z</time></trkpt><trkpt lat="45.4817073" lon="10.4920283"><ele>186.0</ele><time>2026-04-18T13:07:44.611Z</time></trkpt><trkpt lat="45.4816182" lon="10.4920057"><ele>186.0</ele><time>2026-04-18T13:07:45.609Z</time></trkpt><trkpt lat="45.4815236" lon="10.4919842"><ele>186.0</ele><time>2026-04-18T13:07:46.609Z</time></trkpt><trkpt lat="45.4814258" lon="10.4919704"><ele>186.0</ele><time>2026-04-18T13:07:47.609Z</time></trkpt><trkpt lat="45.4813289" lon="10.4919553"><ele>186.0</ele><time>2026-04-18T13:07:48.609Z</time></trkpt><trkpt lat="45.4812268" lon="10.4919395"><ele>186.0</ele><time>2026-04-18T13:07:49.61Z</time></trkpt><trkpt lat="45.4811275" lon="10.4919268"><ele>186.0</ele><time>2026-04-18T13:07:50.609Z</time></trkpt><trkpt lat="45.4810306" lon="10.4919024"><ele>186.0</ele><time>2026-04-18T13:07:51.61Z</time></trkpt><trkpt lat="45.4809424" lon="10.4918623"><ele>185.16666666666666</ele><time>2026-04-18T13:07:52.609Z</time></trkpt><trkpt lat="45.4808475" lon="10.4918215"><ele>184.33333333333334</ele><time>2026-04-18T13:07:53.61Z</time></trkpt><trkpt lat="45.4807605" lon="10.4917766"><ele>183.5</ele><time>2026-04-18T13:07:54.609Z</time></trkpt><trkpt lat="45.4806779" lon="10.4917436"><ele>182.66666666666669</ele><time>2026-04-18T13:07:55.608Z</time></trkpt><trkpt lat="45.4805981" lon="10.4917163"><ele>181.83333333333334</ele><time>2026-04-18T13:07:56.608Z</time></trkpt><trkpt lat="45.4805173" lon="10.491699"><ele>181.0</ele><time>2026-04-18T13:07:57.609Z</time></trkpt><trkpt lat="45.4804341" lon="10.4916878"><ele>180.60000000000002</ele><time>2026-04-18T13:07:58.609Z</time></trkpt><trkpt lat="45.4803442" lon="10.4916912"><ele>180.2</ele><time>2026-04-18T13:07:59.609Z</time></trkpt><trkpt lat="45.4802494" lon="10.4916972"><ele>179.8</ele><time>2026-04-18T13:08:00.608Z</time></trkpt><trkpt lat="45.4801516" lon="10.4917026"><ele>179.39999999999998</ele><time>2026-04-18T13:08:01.609Z</time></trkpt><trkpt lat="45.4800558" lon="10.4917033"><ele>179.0</ele><time>2026-04-18T13:08:02.609Z</time></trkpt><trkpt lat="45.4799576" lon="10.4916909"><ele>179.0</ele><time>2026-04-18T13:08:03.609Z</time></trkpt><trkpt lat="45.4798628" lon="10.49167"><ele>179.0</ele><time>2026-04-18T13:08:04.609Z</time></trkpt><trkpt lat="45.4797721" lon="10.4916403"><ele>179.0</ele><time>2026-04-18T13:08:05.609Z</time></trkpt><trkpt lat="45.4796758" lon="10.4916105"><ele>179.0</ele><time>2026-04-18T13:08:06.609Z</time></trkpt><trkpt lat="45.4795824" lon="10.4915913"><ele>179.0</ele><time>2026-04-18T13:08:07.609Z</time></trkpt><trkpt lat="45.4794874" lon="10.4915753"><ele>178.66666666666666</ele><time>2026-04-18T13:08:08.609Z</time></trkpt><trkpt lat="45.4793965" lon="10.4915645"><ele>178.33333333333331</ele><time>2026-04-18T13:08:09.609Z</time></trkpt><trkpt lat="45.4793082" lon="10.4915694"><ele>178.0</ele><time>2026-04-18T13:08:10.611Z</time></trkpt><trkpt lat="45.4792244" lon="10.4915828"><ele>177.66666666666666</ele><time>2026-04-18T13:08:11.609Z</time></trkpt><trkpt lat="45.4791519" lon="10.4916202"><ele>177.33333333333334</ele><time>2026-04-18T13:08:12.609Z</time></trkpt><trkpt lat="45.4790875" lon="10.4916842"><ele>177.0</ele><time>2026-04-18T13:08:13.609Z</time></trkpt><trkpt lat="45.479029" lon="10.4917789"><ele>177.0</ele><time>2026-04-18T13:08:14.61Z</time></trkpt><trkpt lat="45.4789818" lon="10.4918938"><ele>177.0</ele><time>2026-04-18T13:08:15.609Z</time></trkpt><trkpt lat="45.4789423" lon="10.4920128"><ele>177.0</ele><time>2026-04-18T13:08:16.608Z</time></trkpt><trkpt lat="45.4789129" lon="10.4921436"><ele>177.0</ele><time>2026-04-18T13:08:17.608Z</time></trkpt><trkpt lat="45.4788802" lon="10.4922872"><ele>177.0</ele><time>2026-04-18T13:08:18.609Z</time></trkpt><trkpt lat="45.4788489" lon="10.4924326"><ele>177.39999999999998</ele><time>2026-04-18T13:08:19.61Z</time></trkpt><trkpt lat="45.4788214" lon="10.4925807"><ele>177.79999999999998</ele><time>2026-04-18T13:08:20.61Z</time></trkpt><trkpt lat="45.4787917" lon="10.4927251"><ele>178.2</ele><time>2026-04-18T13:08:21.609Z</time></trkpt><trkpt lat="45.478764" lon="10.4928632"><ele>178.6</ele><time>2026-04-18T13:08:22.608Z</time></trkpt><trkpt lat="45.4787365" lon="10.4929954"><ele>179.0</ele><time>2026-04-18T13:08:23.608Z</time></trkpt><trkpt lat="45.4787015" lon="10.4931143"><ele>177.33333333333331</ele><time>2026-04-18T13:08:24.608Z</time></trkpt><trkpt lat="45.4786595" lon="10.4932023"><ele>175.66666666666666</ele><time>2026-04-18T13:08:25.609Z</time></trkpt><trkpt lat="45.4786087" lon="10.493257"><ele>174.0</ele><time>2026-04-18T13:08:26.609Z</time></trkpt><trkpt lat="45.4784844" lon="10.4932559"><ele>172.33333333333334</ele><time>2026-04-18T13:08:28.609Z</time></trkpt><trkpt lat="45.4784137" lon="10.4932023"><ele>170.66666666666669</ele><time>2026-04-18T13:08:29.609Z</time></trkpt><trkpt lat="45.4783378" lon="10.493133"><ele>169.0</ele><time>2026-04-18T13:08:30.609Z</time></trkpt><trkpt lat="45.4782652" lon="10.4930465"><ele>169.0</ele><time>2026-04-18T13:08:31.61Z</time></trkpt><trkpt lat="45.4781951" lon="10.4929307"><ele>169.0</ele><time>2026-04-18T13:08:32.61Z</time></trkpt><trkpt lat="45.4781118" lon="10.4928778"><ele>169.0</ele><time>2026-04-18T13:08:33.609Z</time></trkpt><trkpt lat="45.4780323" lon="10.4927899"><ele>169.0</ele><time>2026-04-18T13:08:34.608Z</time></trkpt><trkpt lat="45.4779525" lon="10.4927065"><ele>169.0</ele><time>2026-04-18T13:08:35.608Z</time></trkpt><trkpt lat="45.4778663" lon="10.4926208"><ele>169.39999999999998</ele><time>2026-04-18T13:08:36.609Z</time></trkpt><trkpt lat="45.4777864" lon="10.4925288"><ele>169.8</ele><time>2026-04-18T13:08:37.609Z</time></trkpt><trkpt lat="45.4777025" lon="10.4924351"><ele>170.2</ele><time>2026-04-18T13:08:38.608Z</time></trkpt><trkpt lat="45.4776244" lon="10.4923387"><ele>170.60000000000002</ele><time>2026-04-18T13:08:39.608Z</time></trkpt><trkpt lat="45.4775391" lon="10.4922402"><ele>171.0</ele><time>2026-04-18T13:08:40.608Z</time></trkpt><trkpt lat="45.477456" lon="10.4921474"><ele>171.8</ele><time>2026-04-18T13:08:41.61Z</time></trkpt><trkpt lat="45.4773766" lon="10.4920483"><ele>172.60000000000002</ele><time>2026-04-18T13:08:42.609Z</time></trkpt><trkpt lat="45.4772918" lon="10.4919497"><ele>173.4</ele><time>2026-04-18T13:08:43.608Z</time></trkpt><trkpt lat="45.477212" lon="10.4918491"><ele>174.2</ele><time>2026-04-18T13:08:44.609Z</time></trkpt><trkpt lat="45.4771339" lon="10.4917361"><ele>175.0</ele><time>2026-04-18T13:08:45.609Z</time></trkpt><trkpt lat="45.4770544" lon="10.4916337"><ele>174.4</ele><time>2026-04-18T13:08:46.609Z</time></trkpt><trkpt lat="45.4769685" lon="10.4915425"><ele>173.8</ele><time>2026-04-18T13:08:47.609Z</time></trkpt><trkpt lat="45.4768826" lon="10.4914516"><ele>173.2</ele><time>2026-04-18T13:08:48.609Z</time></trkpt><trkpt lat="45.4767901" lon="10.4913719"><ele>172.6</ele><time>2026-04-18T13:08:49.609Z</time></trkpt><trkpt lat="45.4766941" lon="10.4912975"><ele>172.0</ele><time>2026-04-18T13:08:50.608Z</time></trkpt><trkpt lat="45.4765989" lon="10.4912337"><ele>172.0</ele><time>2026-04-18T13:08:51.609Z</time></trkpt><trkpt lat="45.4765061" lon="10.4911704"><ele>172.0</ele><time>2026-04-18T13:08:52.61Z</time></trkpt><trkpt lat="45.4764078" lon="10.4911076"><ele>172.0</ele><time>2026-04-18T13:08:53.609Z</time></trkpt><trkpt lat="45.4763152" lon="10.4910385"><ele>172.0</ele><time>2026-04-18T13:08:54.609Z</time></trkpt><trkpt lat="45.4762232" lon="10.4909565"><ele>172.0</ele><time>2026-04-18T13:08:55.609Z</time></trkpt><trkpt lat="45.4761352" lon="10.4908703"><ele>171.0</ele><time>2026-04-18T13:08:56.609Z</time></trkpt><trkpt lat="45.4760453" lon="10.4907864"><ele>170.0</ele><time>2026-04-18T13:08:57.609Z</time></trkpt><trkpt lat="45.4759466" lon="10.4907134"><ele>169.0</ele><time>2026-04-18T13:08:58.61Z</time></trkpt><trkpt lat="45.4758357" lon="10.4906566"><ele>168.0</ele><time>2026-04-18T13:08:59.609Z</time></trkpt><trkpt lat="45.4757254" lon="10.4906239"><ele>167.0</ele><time>2026-04-18T13:09:00.611Z</time></trkpt><trkpt lat="45.4756208" lon="10.490566"><ele>167.0</ele><time>2026-04-18T13:09:01.609Z</time></trkpt><trkpt lat="45.4755166" lon="10.4905122"><ele>167.0</ele><time>2026-04-18T13:09:02.609Z</time></trkpt><trkpt lat="45.4754158" lon="10.4904739"><ele>167.0</ele><time>2026-04-18T13:09:03.608Z</time></trkpt><trkpt lat="45.4753258" lon="10.4904555"><ele>167.0</ele><time>2026-04-18T13:09:04.609Z</time></trkpt><trkpt lat="45.4752348" lon="10.4904696"><ele>167.0</ele><time>2026-04-18T13:09:05.609Z</time></trkpt><trkpt lat="45.4751411" lon="10.4905109"><ele>166.2</ele><time>2026-04-18T13:09:06.609Z</time></trkpt><trkpt lat="45.4750429" lon="10.490571"><ele>165.39999999999998</ele><time>2026-04-18T13:09:07.609Z</time></trkpt><trkpt lat="45.4749516" lon="10.49062"><ele>164.60000000000002</ele><time>2026-04-18T13:09:08.609Z</time></trkpt><trkpt lat="45.4748603" lon="10.4906779"><ele>163.8</ele><time>2026-04-18T13:09:09.609Z</time></trkpt><trkpt lat="45.4747724" lon="10.4907182"><ele>163.0</ele><time>2026-04-18T13:09:10.609Z</time></trkpt><trkpt lat="45.4746848" lon="10.4907343"><ele>162.25</ele><time>2026-04-18T13:09:11.609Z</time></trkpt><trkpt lat="45.474581" lon="10.4907294"><ele>161.5</ele><time>2026-04-18T13:09:12.608Z</time></trkpt><trkpt lat="45.4744732" lon="10.4907218"><ele>160.75</ele><time>2026-04-18T13:09:13.609Z</time></trkpt><trkpt lat="45.4743546" lon="10.4907052"><ele>160.0</ele><time>2026-04-18T13:09:14.609Z</time></trkpt><trkpt lat="45.4742316" lon="10.4906927"><ele>160.0</ele><time>2026-04-18T13:09:15.609Z</time></trkpt><trkpt lat="45.4741132" lon="10.4906671"><ele>160.0</ele><time>2026-04-18T13:09:16.609Z</time></trkpt><trkpt lat="45.4740058" lon="10.4906429"><ele>160.0</ele><time>2026-04-18T13:09:17.608Z</time></trkpt><trkpt lat="45.4739049" lon="10.4906204"><ele>160.0</ele><time>2026-04-18T13:09:18.609Z</time></trkpt><trkpt lat="45.4738204" lon="10.490607"><ele>160.0</ele><time>2026-04-18T13:09:19.608Z</time></trkpt><trkpt lat="45.4737448" lon="10.4906247"><ele>159.5</ele><time>2026-04-18T13:09:20.608Z</time></trkpt><trkpt lat="45.4736755" lon="10.4906674"><ele>159.0</ele><time>2026-04-18T13:09:21.608Z</time></trkpt><trkpt lat="45.4736193" lon="10.4907648"><ele>158.5</ele><time>2026-04-18T13:09:22.608Z</time></trkpt><trkpt lat="45.4735537" lon="10.4908433"><ele>158.0</ele><time>2026-04-18T13:09:23.609Z</time></trkpt><trkpt lat="45.4734683" lon="10.4908931"><ele>157.5</ele><time>2026-04-18T13:09:24.609Z</time></trkpt><trkpt lat="45.4733717" lon="10.4908932"><ele>157.0</ele><time>2026-04-18T13:09:25.61Z</time></trkpt><trkpt lat="45.4732676" lon="10.490874"><ele>157.0</ele><time>2026-04-18T13:09:26.609Z</time></trkpt><trkpt lat="45.4731724" lon="10.4908466"><ele>157.0</ele><time>2026-04-18T13:09:27.609Z</time></trkpt><trkpt lat="45.4730863" lon="10.4908265"><ele>157.0</ele><time>2026-04-18T13:09:28.61Z</time></trkpt><trkpt lat="45.4730136" lon="10.4908347"><ele>157.0</ele><time>2026-04-18T13:09:29.609Z</time></trkpt><trkpt lat="45.4729298" lon="10.490992"><ele>157.0</ele><time>2026-04-18T13:09:31.609Z</time></trkpt><trkpt lat="45.4729098" lon="10.4911176"><ele>156.83333333333334</ele><time>2026-04-18T13:09:32.609Z</time></trkpt><trkpt lat="45.4728912" lon="10.4912571"><ele>156.66666666666669</ele><time>2026-04-18T13:09:33.609Z</time></trkpt><trkpt lat="45.4728724" lon="10.4913908"><ele>156.5</ele><time>2026-04-18T13:09:34.61Z</time></trkpt><trkpt lat="45.4728554" lon="10.4915077"><ele>156.33333333333334</ele><time>2026-04-18T13:09:35.609Z</time></trkpt><trkpt lat="45.4728144" lon="10.4916217"><ele>156.16666666666666</ele><time>2026-04-18T13:09:37.608Z</time></trkpt><trkpt lat="45.4727658" lon="10.491703"><ele>156.0</ele><time>2026-04-18T13:10:29.609Z</time></trkpt><trkpt lat="45.4726602" lon="10.4917949"><ele>155.33333333333334</ele><time>2026-04-18T13:10:31.609Z</time></trkpt><trkpt lat="45.4725967" lon="10.4918017"><ele>154.66666666666666</ele><time>2026-04-18T13:10:32.608Z</time></trkpt><trkpt lat="45.4725263" lon="10.4917861"><ele>154.0</ele><time>2026-04-18T13:10:33.608Z</time></trkpt><trkpt lat="45.4724424" lon="10.4917693"><ele>153.33333333333331</ele><time>2026-04-18T13:10:34.607Z</time></trkpt><trkpt lat="45.4723524" lon="10.4917717"><ele>152.66666666666666</ele><time>2026-04-18T13:10:35.609Z</time></trkpt><trkpt lat="45.4722593" lon="10.4917942"><ele>152.0</ele><time>2026-04-18T13:10:36.609Z</time></trkpt><trkpt lat="45.4721639" lon="10.491823"><ele>152.0</ele><time>2026-04-18T13:10:37.609Z</time></trkpt><trkpt lat="45.4720697" lon="10.4918606"><ele>152.0</ele><time>2026-04-18T13:10:38.608Z</time></trkpt><trkpt lat="45.471978" lon="10.4919077"><ele>152.0</ele><time>2026-04-18T13:10:39.609Z</time></trkpt><trkpt lat="45.4718816" lon="10.4919566"><ele>152.0</ele><time>2026-04-18T13:10:40.609Z</time></trkpt><trkpt lat="45.4717846" lon="10.4920083"><ele>152.0</ele><time>2026-04-18T13:10:41.609Z</time></trkpt><trkpt lat="45.4716888" lon="10.4920681"><ele>152.0</ele><time>2026-04-18T13:10:42.608Z</time></trkpt><trkpt lat="45.4715976" lon="10.4921134"><ele>152.0</ele><time>2026-04-18T13:10:43.609Z</time></trkpt><trkpt lat="45.4715135" lon="10.4921599"><ele>152.0</ele><time>2026-04-18T13:10:44.609Z</time></trkpt><trkpt lat="45.4714398" lon="10.4921916"><ele>152.0</ele><time>2026-04-18T13:10:45.609Z</time></trkpt><trkpt lat="45.471376" lon="10.4922312"><ele>152.0</ele><time>2026-04-18T13:10:46.609Z</time></trkpt><trkpt lat="45.4713022" lon="10.4923675"><ele>152.0</ele><time>2026-04-18T13:10:48.608Z</time></trkpt><trkpt lat="45.4712838" lon="10.4924693"><ele>152.0</ele><time>2026-04-18T13:10:49.607Z</time></trkpt><trkpt lat="45.4712598" lon="10.4925826"><ele>152.0</ele><time>2026-04-18T13:10:50.61Z</time></trkpt><trkpt lat="45.4712463" lon="10.4926993"><ele>152.0</ele><time>2026-04-18T13:10:51.607Z</time></trkpt><trkpt lat="45.4712412" lon="10.4928042"><ele>152.0</ele><time>2026-04-18T13:10:52.609Z</time></trkpt><trkpt lat="45.4712672" lon="10.4929536"><ele>152.0</ele><time>2026-04-18T13:10:54.61Z</time></trkpt><trkpt lat="45.4713045" lon="10.4930312"><ele>151.2</ele><time>2026-04-18T13:10:55.609Z</time></trkpt><trkpt lat="45.4713475" lon="10.4931342"><ele>150.39999999999998</ele><time>2026-04-18T13:10:56.61Z</time></trkpt><trkpt lat="45.4713904" lon="10.4932537"><ele>149.60000000000002</ele><time>2026-04-18T13:10:57.607Z</time></trkpt><trkpt lat="45.4714462" lon="10.4933768"><ele>148.8</ele><time>2026-04-18T13:10:58.609Z</time></trkpt><trkpt lat="45.471507" lon="10.4935006"><ele>148.0</ele><time>2026-04-18T13:10:59.609Z</time></trkpt><trkpt lat="45.4715636" lon="10.4936358"><ele>147.6</ele><time>2026-04-18T13:11:00.609Z</time></trkpt><trkpt lat="45.4716198" lon="10.4937794"><ele>147.20000000000002</ele><time>2026-04-18T13:11:01.608Z</time></trkpt><trkpt lat="45.4716749" lon="10.4939107"><ele>146.8</ele><time>2026-04-18T13:11:02.609Z</time></trkpt><trkpt lat="45.4717311" lon="10.4940424"><ele>146.4</ele><time>2026-04-18T13:11:03.609Z</time></trkpt><trkpt lat="45.4717848" lon="10.4941644"><ele>146.0</ele><time>2026-04-18T13:11:04.609Z</time></trkpt><trkpt lat="45.4718287" lon="10.4942691"><ele>146.0</ele><time>2026-04-18T13:11:05.61Z</time></trkpt><trkpt lat="45.4718682" lon="10.4943749"><ele>146.0</ele><time>2026-04-18T13:11:06.609Z</time></trkpt><trkpt lat="45.4719093" lon="10.4944738"><ele>146.0</ele><time>2026-04-18T13:11:07.609Z</time></trkpt><trkpt lat="45.4719408" lon="10.4945669"><ele>146.0</ele><time>2026-04-18T13:11:08.609Z</time></trkpt><trkpt lat="45.471959" lon="10.4946611"><ele>146.0</ele><time>2026-04-18T13:11:09.609Z</time></trkpt><trkpt lat="45.4719244" lon="10.4948277"><ele>146.0</ele><time>2026-04-18T13:11:11.609Z</time></trkpt><trkpt lat="45.4718662" lon="10.4949013"><ele>147.2</ele><time>2026-04-18T13:11:12.609Z</time></trkpt><trkpt lat="45.4718073" lon="10.4949692"><ele>148.39999999999998</ele><time>2026-04-18T13:11:13.608Z</time></trkpt><trkpt lat="45.4717342" lon="10.4950532"><ele>149.6</ele><time>2026-04-18T13:11:14.608Z</time></trkpt><trkpt lat="45.4716607" lon="10.4951392"><ele>150.79999999999998</ele><time>2026-04-18T13:11:15.608Z</time></trkpt><trkpt lat="45.471579" lon="10.4952143"><ele>152.0</ele><time>2026-04-18T13:11:16.608Z</time></trkpt><trkpt lat="45.4714948" lon="10.4952998"><ele>152.0</ele><time>2026-04-18T13:11:17.608Z</time></trkpt><trkpt lat="45.4714089" lon="10.4953911"><ele>152.0</ele><time>2026-04-18T13:11:18.61Z</time></trkpt><trkpt lat="45.4713159" lon="10.4954807"><ele>152.0</ele><time>2026-04-18T13:11:19.608Z</time></trkpt><trkpt lat="45.4712258" lon="10.4955587"><ele>152.0</ele><time>2026-04-18T13:11:20.609Z</time></trkpt><trkpt lat="45.4711331" lon="10.4956361"><ele>152.0</ele><time>2026-04-18T13:11:21.607Z</time></trkpt><trkpt lat="45.4710459" lon="10.495715"><ele>152.4</ele><time>2026-04-18T13:11:22.609Z</time></trkpt><trkpt lat="45.4709613" lon="10.4957996"><ele>152.79999999999998</ele><time>2026-04-18T13:11:23.607Z</time></trkpt><trkpt lat="45.4708771" lon="10.495902"><ele>153.2</ele><time>2026-04-18T13:11:24.607Z</time></trkpt><trkpt lat="45.4708014" lon="10.4960088"><ele>153.6</ele><time>2026-04-18T13:11:25.608Z</time></trkpt><trkpt lat="45.4707269" lon="10.4961228"><ele>154.0</ele><time>2026-04-18T13:11:26.609Z</time></trkpt><trkpt lat="45.4706458" lon="10.4962395"><ele>153.0</ele><time>2026-04-18T13:11:27.608Z</time></trkpt><trkpt lat="45.4705631" lon="10.4963593"><ele>152.0</ele><time>2026-04-18T13:11:28.608Z</time></trkpt><trkpt lat="45.4704833" lon="10.4964643"><ele>151.0</ele><time>2026-04-18T13:11:29.609Z</time></trkpt><trkpt lat="45.4704031" lon="10.4965752"><ele>150.0</ele><time>2026-04-18T13:11:30.609Z</time></trkpt><trkpt lat="45.4703192" lon="10.4966772"><ele>149.0</ele><time>2026-04-18T13:11:31.608Z</time></trkpt><trkpt lat="45.4702298" lon="10.4967706"><ele>149.0</ele><time>2026-04-18T13:11:32.608Z</time></trkpt><trkpt lat="45.4701418" lon="10.4968458"><ele>149.0</ele><time>2026-04-18T13:11:33.608Z</time></trkpt><trkpt lat="45.4700508" lon="10.4969242"><ele>149.0</ele><time>2026-04-18T13:11:34.608Z</time></trkpt><trkpt lat="45.4699746" lon="10.4969983"><ele>149.0</ele><time>2026-04-18T13:11:35.608Z</time></trkpt><trkpt lat="45.4699046" lon="10.497064"><ele>149.0</ele><time>2026-04-18T13:11:36.61Z</time></trkpt><trkpt lat="45.4698553" lon="10.4971363"><ele>149.33333333333331</ele><time>2026-04-18T13:11:37.609Z</time></trkpt><trkpt lat="45.4698247" lon="10.4972169"><ele>149.66666666666666</ele><time>2026-04-18T13:11:38.608Z</time></trkpt><trkpt lat="45.4698145" lon="10.4973099"><ele>150.0</ele><time>2026-04-18T13:11:39.61Z</time></trkpt><trkpt lat="45.469815" lon="10.4974"><ele>150.33333333333334</ele><time>2026-04-18T13:11:40.609Z</time></trkpt><trkpt lat="45.4698353" lon="10.4975581"><ele>150.66666666666669</ele><time>2026-04-18T13:11:42.609Z</time></trkpt><trkpt lat="45.4698034" lon="10.4977329"><ele>151.0</ele><time>2026-04-18T13:11:44.607Z</time></trkpt><trkpt lat="45.4697682" lon="10.4978183"><ele>151.0</ele><time>2026-04-18T13:11:45.609Z</time></trkpt><trkpt lat="45.4697111" lon="10.4978918"><ele>151.0</ele><time>2026-04-18T13:11:46.609Z</time></trkpt><trkpt lat="45.4696444" lon="10.4979626"><ele>151.0</ele><time>2026-04-18T13:11:47.608Z</time></trkpt><trkpt lat="45.4695806" lon="10.4980213"><ele>151.0</ele><time>2026-04-18T13:11:48.608Z</time></trkpt><trkpt lat="45.469506" lon="10.4980805"><ele>151.0</ele><time>2026-04-18T13:11:49.609Z</time></trkpt><trkpt lat="45.4694344" lon="10.4981502"><ele>151.0</ele><time>2026-04-18T13:11:50.609Z</time></trkpt><trkpt lat="45.4693755" lon="10.4982423"><ele>150.83333333333334</ele><time>2026-04-18T13:11:51.608Z</time></trkpt><trkpt lat="45.4693322" lon="10.4983562"><ele>150.66666666666669</ele><time>2026-04-18T13:11:52.609Z</time></trkpt><trkpt lat="45.4693102" lon="10.4984752"><ele>150.5</ele><time>2026-04-18T13:11:53.609Z</time></trkpt><trkpt lat="45.4693203" lon="10.4985944"><ele>150.33333333333334</ele><time>2026-04-18T13:11:54.607Z</time></trkpt><trkpt lat="45.4693526" lon="10.4987197"><ele>150.16666666666666</ele><time>2026-04-18T13:11:55.609Z</time></trkpt><trkpt lat="45.4693992" lon="10.4988368"><ele>150.0</ele><time>2026-04-18T13:11:56.609Z</time></trkpt><trkpt lat="45.469459" lon="10.4989468"><ele>150.0</ele><time>2026-04-18T13:11:57.608Z</time></trkpt><trkpt lat="45.4695239" lon="10.4990526"><ele>150.0</ele><time>2026-04-18T13:11:58.607Z</time></trkpt><trkpt lat="45.4695937" lon="10.4991681"><ele>150.0</ele><time>2026-04-18T13:11:59.609Z</time></trkpt><trkpt lat="45.4696614" lon="10.4992716"><ele>150.0</ele><time>2026-04-18T13:12:00.609Z</time></trkpt><trkpt lat="45.4697234" lon="10.4993803"><ele>150.0</ele><time>2026-04-18T13:12:01.608Z</time></trkpt><trkpt lat="45.4697918" lon="10.4994907"><ele>147.8</ele><time>2026-04-18T13:12:02.609Z</time></trkpt><trkpt lat="45.4698591" lon="10.4996026"><ele>145.6</ele><time>2026-04-18T13:12:03.608Z</time></trkpt><trkpt lat="45.4699205" lon="10.4997092"><ele>143.4</ele><time>2026-04-18T13:12:04.609Z</time></trkpt><trkpt lat="45.4699824" lon="10.4998187"><ele>141.2</ele><time>2026-04-18T13:12:05.608Z</time></trkpt><trkpt lat="45.4700396" lon="10.4999264"><ele>139.0</ele><time>2026-04-18T13:12:06.607Z</time></trkpt><trkpt lat="45.4700866" lon="10.5000474"><ele>139.0</ele><time>2026-04-18T13:12:07.608Z</time></trkpt><trkpt lat="45.4701378" lon="10.5001709"><ele>139.0</ele><time>2026-04-18T13:12:08.607Z</time></trkpt><trkpt lat="45.4701839" lon="10.5002961"><ele>139.0</ele><time>2026-04-18T13:12:09.607Z</time></trkpt><trkpt lat="45.4702336" lon="10.5004314"><ele>139.0</ele><time>2026-04-18T13:12:10.608Z</time></trkpt><trkpt lat="45.4702757" lon="10.500571"><ele>139.0</ele><time>2026-04-18T13:12:11.608Z</time></trkpt><trkpt lat="45.4703095" lon="10.5007178"><ele>139.8</ele><time>2026-04-18T13:12:12.609Z</time></trkpt><trkpt lat="45.4703403" lon="10.5008572"><ele>140.60000000000002</ele><time>2026-04-18T13:12:13.607Z</time></trkpt><trkpt lat="45.4703637" lon="10.5010101"><ele>141.4</ele><time>2026-04-18T13:12:14.609Z</time></trkpt><trkpt lat="45.4703711" lon="10.5011546"><ele>142.20000000000002</ele><time>2026-04-18T13:12:15.608Z</time></trkpt><trkpt lat="45.4703763" lon="10.5012604"><ele>143.0</ele><time>2026-04-18T13:12:16.607Z</time></trkpt><trkpt lat="45.4703691" lon="10.5013925"><ele>143.0</ele><time>2026-04-18T13:12:18.609Z</time></trkpt><trkpt lat="45.4703404" lon="10.5015381"><ele>143.0</ele><time>2026-04-18T13:12:20.608Z</time></trkpt><trkpt lat="45.4702993" lon="10.5016594"><ele>143.0</ele><time>2026-04-18T13:12:22.609Z</time></trkpt><trkpt lat="45.4702817" lon="10.5017944"><ele>143.0</ele><time>2026-04-18T13:12:24.608Z</time></trkpt><trkpt lat="45.4702613" lon="10.5018798"><ele>143.0</ele><time>2026-04-18T13:12:25.609Z</time></trkpt><trkpt lat="45.4702524" lon="10.5019939"><ele>143.0</ele><time>2026-04-18T13:12:27.608Z</time></trkpt><trkpt lat="45.4701868" lon="10.5020564"><ele>143.0</ele><time>2026-04-18T13:12:30.608Z</time></trkpt><trkpt lat="45.4700825" lon="10.502052"><ele>143.0</ele><time>2026-04-18T13:12:32.608Z</time></trkpt><trkpt lat="45.4700192" lon="10.5020414"><ele>143.0</ele><time>2026-04-18T13:12:33.609Z</time></trkpt><trkpt lat="45.4699448" lon="10.5020321"><ele>143.0</ele><time>2026-04-18T13:12:34.608Z</time></trkpt><trkpt lat="45.4698625" lon="10.5020234"><ele>143.0</ele><time>2026-04-18T13:12:35.608Z</time></trkpt><trkpt lat="45.4697804" lon="10.5020247"><ele>143.0</ele><time>2026-04-18T13:12:36.609Z</time></trkpt><trkpt lat="45.469701" lon="10.5020352"><ele>143.0</ele><time>2026-04-18T13:12:37.61Z</time></trkpt><trkpt lat="45.4696193" lon="10.5020622"><ele>143.0</ele><time>2026-04-18T13:12:38.609Z</time></trkpt><trkpt lat="45.4695374" lon="10.5020935"><ele>143.0</ele><time>2026-04-18T13:12:39.608Z</time></trkpt><trkpt lat="45.469474" lon="10.5021163"><ele>143.0</ele><time>2026-04-18T13:12:40.609Z</time></trkpt><trkpt lat="45.4693614" lon="10.5021881"><ele>143.0</ele><time>2026-04-18T13:12:42.608Z</time></trkpt><trkpt lat="45.4692986" lon="10.5022217"><ele>143.0</ele><time>2026-04-18T13:12:43.609Z</time></trkpt><trkpt lat="45.4692345" lon="10.5022643"><ele>143.0</ele><time>2026-04-18T13:12:44.608Z</time></trkpt><trkpt lat="45.4691692" lon="10.5023057"><ele>143.0</ele><time>2026-04-18T13:12:45.609Z</time></trkpt><trkpt lat="45.4691044" lon="10.5023441"><ele>143.0</ele><time>2026-04-18T13:12:46.608Z</time></trkpt><trkpt lat="45.46903" lon="10.5023837"><ele>143.0</ele><time>2026-04-18T13:12:47.608Z</time></trkpt><trkpt lat="45.4689586" lon="10.5024246"><ele>143.0</ele><time>2026-04-18T13:12:48.609Z</time></trkpt><trkpt lat="45.4688858" lon="10.5024556"><ele>143.0</ele><time>2026-04-18T13:12:49.608Z</time></trkpt><trkpt lat="45.46881" lon="10.5024699"><ele>143.33333333333331</ele><time>2026-04-18T13:12:50.608Z</time></trkpt><trkpt lat="45.4687324" lon="10.5024787"><ele>143.66666666666666</ele><time>2026-04-18T13:12:51.607Z</time></trkpt><trkpt lat="45.4686583" lon="10.5024773"><ele>144.0</ele><time>2026-04-18T13:12:52.608Z</time></trkpt><trkpt lat="45.4685829" lon="10.5024689"><ele>144.33333333333334</ele><time>2026-04-18T13:12:53.609Z</time></trkpt><trkpt lat="45.4685014" lon="10.50246"><ele>144.66666666666669</ele><time>2026-04-18T13:12:54.608Z</time></trkpt><trkpt lat="45.4684278" lon="10.5024465"><ele>145.0</ele><time>2026-04-18T13:12:55.609Z</time></trkpt><trkpt lat="45.4683494" lon="10.5024361"><ele>145.0</ele><time>2026-04-18T13:12:56.61Z</time></trkpt><trkpt lat="45.468274" lon="10.5024288"><ele>145.0</ele><time>2026-04-18T13:12:57.608Z</time></trkpt><trkpt lat="45.4682003" lon="10.5024208"><ele>145.0</ele><time>2026-04-18T13:12:58.609Z</time></trkpt><trkpt lat="45.4681248" lon="10.5024232"><ele>145.0</ele><time>2026-04-18T13:12:59.607Z</time></trkpt><trkpt lat="45.4680519" lon="10.5024257"><ele>145.0</ele><time>2026-04-18T13:13:00.608Z</time></trkpt><trkpt lat="45.4679817" lon="10.5024176"><ele>145.0</ele><time>2026-04-18T13:13:01.608Z</time></trkpt><trkpt lat="45.4679104" lon="10.502414"><ele>145.0</ele><time>2026-04-18T13:13:02.608Z</time></trkpt><trkpt lat="45.467838" lon="10.5024084"><ele>145.0</ele><time>2026-04-18T13:13:03.608Z</time></trkpt><trkpt lat="45.4677618" lon="10.5024033"><ele>145.0</ele><time>2026-04-18T13:13:04.607Z</time></trkpt><trkpt lat="45.4676821" lon="10.5024031"><ele>145.0</ele><time>2026-04-18T13:13:05.607Z</time></trkpt><trkpt lat="45.4676017" lon="10.5024013"><ele>145.0</ele><time>2026-04-18T13:13:06.608Z</time></trkpt><trkpt lat="45.4675141" lon="10.5024189"><ele>145.0</ele><time>2026-04-18T13:13:07.608Z</time></trkpt><trkpt lat="45.4674243" lon="10.5024487"><ele>145.0</ele><time>2026-04-18T13:13:08.607Z</time></trkpt><trkpt lat="45.4673272" lon="10.5024897"><ele>145.0</ele><time>2026-04-18T13:13:09.608Z</time></trkpt><trkpt lat="45.4672278" lon="10.5025309"><ele>145.0</ele><time>2026-04-18T13:13:10.609Z</time></trkpt><trkpt lat="45.4671268" lon="10.5025686"><ele>145.0</ele><time>2026-04-18T13:13:11.608Z</time></trkpt><trkpt lat="45.4670268" lon="10.5026015"><ele>145.0</ele><time>2026-04-18T13:13:12.608Z</time></trkpt><trkpt lat="45.466933" lon="10.5026341"><ele>145.0</ele><time>2026-04-18T13:13:13.608Z</time></trkpt><trkpt lat="45.4668432" lon="10.5026659"><ele>144.4</ele><time>2026-04-18T13:13:14.608Z</time></trkpt><trkpt lat="45.466747" lon="10.5026924"><ele>143.8</ele><time>2026-04-18T13:13:15.607Z</time></trkpt><trkpt lat="45.4666496" lon="10.5027245"><ele>143.2</ele><time>2026-04-18T13:13:16.607Z</time></trkpt><trkpt lat="45.4665548" lon="10.5027575"><ele>142.6</ele><time>2026-04-18T13:13:17.61Z</time></trkpt><trkpt lat="45.466458" lon="10.5027894"><ele>142.0</ele><time>2026-04-18T13:13:18.61Z</time></trkpt><trkpt lat="45.4663572" lon="10.5028219"><ele>142.0</ele><time>2026-04-18T13:13:19.608Z</time></trkpt><trkpt lat="45.4662576" lon="10.5028433"><ele>142.0</ele><time>2026-04-18T13:13:20.608Z</time></trkpt><trkpt lat="45.4661562" lon="10.5028649"><ele>142.0</ele><time>2026-04-18T13:13:21.608Z</time></trkpt><trkpt lat="45.4660556" lon="10.5029005"><ele>142.0</ele><time>2026-04-18T13:13:22.608Z</time></trkpt><trkpt lat="45.4659582" lon="10.5029435"><ele>142.0</ele><time>2026-04-18T13:13:23.607Z</time></trkpt><trkpt lat="45.4658554" lon="10.5029969"><ele>142.0</ele><time>2026-04-18T13:13:24.608Z</time></trkpt><trkpt lat="45.465755" lon="10.5030508"><ele>142.0</ele><time>2026-04-18T13:13:25.608Z</time></trkpt><trkpt lat="45.4656569" lon="10.5031028"><ele>142.0</ele><time>2026-04-18T13:13:26.608Z</time></trkpt><trkpt lat="45.4655628" lon="10.5031515"><ele>142.0</ele><time>2026-04-18T13:13:27.608Z</time></trkpt><trkpt lat="45.465474" lon="10.5031914"><ele>142.0</ele><time>2026-04-18T13:13:28.608Z</time></trkpt><trkpt lat="45.4654009" lon="10.5032316"><ele>142.16666666666669</ele><time>2026-04-18T13:13:29.609Z</time></trkpt><trkpt lat="45.4652997" lon="10.5032613"><ele>142.33333333333334</ele><time>2026-04-18T13:13:31.608Z</time></trkpt><trkpt lat="45.4652254" lon="10.50326"><ele>142.5</ele><time>2026-04-18T13:13:42.609Z</time></trkpt><trkpt lat="45.4652552" lon="10.503377"><ele>142.66666666666666</ele><time>2026-04-18T13:13:52.608Z</time></trkpt><trkpt lat="45.4653191" lon="10.5033457"><ele>142.83333333333331</ele><time>2026-04-18T13:13:53.607Z</time></trkpt><trkpt lat="45.4653791" lon="10.5033137"><ele>143.0</ele><time>2026-04-18T13:13:54.607Z</time></trkpt><trkpt lat="45.465442" lon="10.5032808"><ele>142.8</ele><time>2026-04-18T13:13:55.609Z</time></trkpt><trkpt lat="45.465518" lon="10.5032311"><ele>142.60000000000002</ele><time>2026-04-18T13:13:56.608Z</time></trkpt><trkpt lat="45.4655956" lon="10.5031821"><ele>142.39999999999998</ele><time>2026-04-18T13:13:57.608Z</time></trkpt><trkpt lat="45.4656808" lon="10.5031263"><ele>142.2</ele><time>2026-04-18T13:13:58.608Z</time></trkpt><trkpt lat="45.4657705" lon="10.5030732"><ele>142.0</ele><time>2026-04-18T13:13:59.607Z</time></trkpt><trkpt lat="45.4658619" lon="10.5030198"><ele>142.0</ele><time>2026-04-18T13:14:00.607Z</time></trkpt><trkpt lat="45.4659538" lon="10.5029699"><ele>142.0</ele><time>2026-04-18T13:14:01.608Z</time></trkpt><trkpt lat="45.4660511" lon="10.5029265"><ele>142.0</ele><time>2026-04-18T13:14:02.608Z</time></trkpt><trkpt lat="45.4661474" lon="10.50289"><ele>142.0</ele><time>2026-04-18T13:14:03.609Z</time></trkpt><trkpt lat="45.466241" lon="10.5028515"><ele>142.0</ele><time>2026-04-18T13:14:04.608Z</time></trkpt><trkpt lat="45.466332" lon="10.5028189"><ele>142.0</ele><time>2026-04-18T13:14:05.609Z</time></trkpt><trkpt lat="45.4664168" lon="10.5027877"><ele>142.0</ele><time>2026-04-18T13:14:06.607Z</time></trkpt><trkpt lat="45.4664936" lon="10.5027554"><ele>142.0</ele><time>2026-04-18T13:14:07.608Z</time></trkpt><trkpt lat="45.4665619" lon="10.5026982"><ele>142.0</ele><time>2026-04-18T13:14:08.608Z</time></trkpt><trkpt lat="45.4666112" lon="10.5026236"><ele>142.0</ele><time>2026-04-18T13:14:09.608Z</time></trkpt><trkpt lat="45.4666329" lon="10.5024366"><ele>142.0</ele><time>2026-04-18T13:14:11.608Z</time></trkpt><trkpt lat="45.4666275" lon="10.5023175"><ele>142.0</ele><time>2026-04-18T13:14:12.608Z</time></trkpt><trkpt lat="45.4666265" lon="10.5021994"><ele>142.0</ele><time>2026-04-18T13:14:13.608Z</time></trkpt><trkpt lat="45.4666274" lon="10.5020612"><ele>142.0</ele><time>2026-04-18T13:14:14.608Z</time></trkpt><trkpt lat="45.466625" lon="10.5019209"><ele>142.0</ele><time>2026-04-18T13:14:15.608Z</time></trkpt><trkpt lat="45.4666185" lon="10.5017801"><ele>142.0</ele><time>2026-04-18T13:14:16.609Z</time></trkpt><trkpt lat="45.4666048" lon="10.5016347"><ele>142.0</ele><time>2026-04-18T13:14:17.607Z</time></trkpt><trkpt lat="45.4665769" lon="10.5014868"><ele>142.0</ele><time>2026-04-18T13:14:18.609Z</time></trkpt><trkpt lat="45.4665284" lon="10.5013493"><ele>142.0</ele><time>2026-04-18T13:14:19.607Z</time></trkpt><trkpt lat="45.4664648" lon="10.5012143"><ele>142.0</ele><time>2026-04-18T13:14:20.607Z</time></trkpt><trkpt lat="45.4663942" lon="10.5010877"><ele>142.0</ele><time>2026-04-18T13:14:21.608Z</time></trkpt><trkpt lat="45.4663205" lon="10.5009621"><ele>142.0</ele><time>2026-04-18T13:14:22.608Z</time></trkpt><trkpt lat="45.4662462" lon="10.5008337"><ele>142.0</ele><time>2026-04-18T13:14:23.609Z</time></trkpt><trkpt lat="45.4661879" lon="10.5007095"><ele>142.0</ele><time>2026-04-18T13:14:24.609Z</time></trkpt><trkpt lat="45.4661309" lon="10.5005698"><ele>141.79999999999998</ele><time>2026-04-18T13:14:25.608Z</time></trkpt><trkpt lat="45.4660747" lon="10.5004376"><ele>141.6</ele><time>2026-04-18T13:14:26.608Z</time></trkpt><trkpt lat="45.4660162" lon="10.5003072"><ele>141.39999999999998</ele><time>2026-04-18T13:14:27.608Z</time></trkpt><trkpt lat="45.4659596" lon="10.5001835"><ele>141.2</ele><time>2026-04-18T13:14:28.607Z</time></trkpt><trkpt lat="45.4659021" lon="10.5000595"><ele>141.0</ele><time>2026-04-18T13:14:29.608Z</time></trkpt><trkpt lat="45.465845" lon="10.4999329"><ele>141.4</ele><time>2026-04-18T13:14:30.608Z</time></trkpt><trkpt lat="45.4657865" lon="10.4998112"><ele>141.8</ele><time>2026-04-18T13:14:31.608Z</time></trkpt><trkpt lat="45.4657241" lon="10.4996992"><ele>142.20000000000002</ele><time>2026-04-18T13:14:32.607Z</time></trkpt><trkpt lat="45.465661" lon="10.4995906"><ele>142.6</ele><time>2026-04-18T13:14:33.607Z</time></trkpt><trkpt lat="45.465589" lon="10.4994789"><ele>143.0</ele><time>2026-04-18T13:14:34.608Z</time></trkpt><trkpt lat="45.4655126" lon="10.4993712"><ele>144.0</ele><time>2026-04-18T13:14:35.609Z</time></trkpt><trkpt lat="45.4654392" lon="10.4992563"><ele>145.0</ele><time>2026-04-18T13:14:36.608Z</time></trkpt><trkpt lat="45.4653621" lon="10.4991442"><ele>146.0</ele><time>2026-04-18T13:14:37.608Z</time></trkpt><trkpt lat="45.4652883" lon="10.4990385"><ele>147.0</ele><time>2026-04-18T13:14:38.607Z</time></trkpt><trkpt lat="45.4652141" lon="10.4989285"><ele>148.0</ele><time>2026-04-18T13:14:39.608Z</time></trkpt><trkpt lat="45.4651372" lon="10.4988267"><ele>148.8</ele><time>2026-04-18T13:14:40.608Z</time></trkpt><trkpt lat="45.4650671" lon="10.4987171"><ele>149.60000000000002</ele><time>2026-04-18T13:14:41.609Z</time></trkpt><trkpt lat="45.4649917" lon="10.4986132"><ele>150.39999999999998</ele><time>2026-04-18T13:14:42.608Z</time></trkpt><trkpt lat="45.4649197" lon="10.4985058"><ele>151.2</ele><time>2026-04-18T13:14:43.607Z</time></trkpt><trkpt lat="45.4648434" lon="10.4984015"><ele>152.0</ele><time>2026-04-18T13:14:44.607Z</time></trkpt><trkpt lat="45.4647699" lon="10.4982939"><ele>152.0</ele><time>2026-04-18T13:14:45.608Z</time></trkpt><trkpt lat="45.4646935" lon="10.4981907"><ele>152.0</ele><time>2026-04-18T13:14:46.608Z</time></trkpt><trkpt lat="45.4646177" lon="10.4980876"><ele>152.0</ele><time>2026-04-18T13:14:47.608Z</time></trkpt><trkpt lat="45.4645457" lon="10.4979805"><ele>152.0</ele><time>2026-04-18T13:14:48.607Z</time></trkpt><trkpt lat="45.4644705" lon="10.4978807"><ele>152.0</ele><time>2026-04-18T13:14:49.607Z</time></trkpt><trkpt lat="45.4643953" lon="10.4977808"><ele>154.0</ele><time>2026-04-18T13:14:50.608Z</time></trkpt><trkpt lat="45.4643151" lon="10.4976854"><ele>156.0</ele><time>2026-04-18T13:14:51.608Z</time></trkpt><trkpt lat="45.4642399" lon="10.4975898"><ele>158.0</ele><time>2026-04-18T13:14:52.608Z</time></trkpt><trkpt lat="45.4641589" lon="10.497494"><ele>160.0</ele><time>2026-04-18T13:14:53.608Z</time></trkpt><trkpt lat="45.4640835" lon="10.4973986"><ele>162.0</ele><time>2026-04-18T13:14:54.607Z</time></trkpt><trkpt lat="45.4639993" lon="10.4973112"><ele>162.0</ele><time>2026-04-18T13:14:55.608Z</time></trkpt><trkpt lat="45.4639115" lon="10.4972303"><ele>162.0</ele><time>2026-04-18T13:14:56.606Z</time></trkpt><trkpt lat="45.4638231" lon="10.4971516"><ele>162.0</ele><time>2026-04-18T13:14:57.608Z</time></trkpt><trkpt lat="45.4637273" lon="10.4970738"><ele>162.0</ele><time>2026-04-18T13:14:58.609Z</time></trkpt><trkpt lat="45.4636352" lon="10.4969908"><ele>162.0</ele><time>2026-04-18T13:14:59.607Z</time></trkpt><trkpt lat="45.4635484" lon="10.4969113"><ele>161.2</ele><time>2026-04-18T13:15:00.608Z</time></trkpt><trkpt lat="45.4634548" lon="10.496819"><ele>160.39999999999998</ele><time>2026-04-18T13:15:01.608Z</time></trkpt><trkpt lat="45.4633689" lon="10.4967169"><ele>159.60000000000002</ele><time>2026-04-18T13:15:02.608Z</time></trkpt><trkpt lat="45.4632878" lon="10.4966101"><ele>158.8</ele><time>2026-04-18T13:15:03.607Z</time></trkpt><trkpt lat="45.4632039" lon="10.4965014"><ele>158.0</ele><time>2026-04-18T13:15:04.608Z</time></trkpt><trkpt lat="45.4631232" lon="10.4963895"><ele>158.0</ele><time>2026-04-18T13:15:05.608Z</time></trkpt><trkpt lat="45.4630437" lon="10.4962831"><ele>158.0</ele><time>2026-04-18T13:15:06.609Z</time></trkpt><trkpt lat="45.4629546" lon="10.4961797"><ele>158.0</ele><time>2026-04-18T13:15:07.608Z</time></trkpt><trkpt lat="45.4628623" lon="10.4960879"><ele>158.0</ele><time>2026-04-18T13:15:08.608Z</time></trkpt><trkpt lat="45.4627716" lon="10.4960005"><ele>158.0</ele><time>2026-04-18T13:15:09.608Z</time></trkpt><trkpt lat="45.4626743" lon="10.495923"><ele>157.6</ele><time>2026-04-18T13:15:10.607Z</time></trkpt><trkpt lat="45.4625816" lon="10.4958441"><ele>157.20000000000002</ele><time>2026-04-18T13:15:11.607Z</time></trkpt><trkpt lat="45.4624849" lon="10.4957725"><ele>156.8</ele><time>2026-04-18T13:15:12.607Z</time></trkpt><trkpt lat="45.4623941" lon="10.4957025"><ele>156.4</ele><time>2026-04-18T13:15:13.608Z</time></trkpt><trkpt lat="45.4623074" lon="10.4956362"><ele>156.0</ele><time>2026-04-18T13:15:14.609Z</time></trkpt><trkpt lat="45.4622265" lon="10.4955724"><ele>156.0</ele><time>2026-04-18T13:15:15.608Z</time></trkpt><trkpt lat="45.4621582" lon="10.4955166"><ele>156.0</ele><time>2026-04-18T13:15:16.607Z</time></trkpt><trkpt lat="45.4620905" lon="10.4954873"><ele>156.0</ele><time>2026-04-18T13:15:17.607Z</time></trkpt><trkpt lat="45.4619803" lon="10.4954676"><ele>156.0</ele><time>2026-04-18T13:15:19.608Z</time></trkpt><trkpt lat="45.4619096" lon="10.4955017"><ele>156.0</ele><time>2026-04-18T13:15:21.607Z</time></trkpt><trkpt lat="45.4618583" lon="10.4955813"><ele>156.0</ele><time>2026-04-18T13:15:23.608Z</time></trkpt><trkpt lat="45.4618608" lon="10.4957363"><ele>156.83333333333334</ele><time>2026-04-18T13:15:25.608Z</time></trkpt><trkpt lat="45.4618805" lon="10.4958374"><ele>157.66666666666666</ele><time>2026-04-18T13:15:26.608Z</time></trkpt><trkpt lat="45.4618961" lon="10.4959608"><ele>158.5</ele><time>2026-04-18T13:15:27.607Z</time></trkpt><trkpt lat="45.4619111" lon="10.4960868"><ele>159.33333333333331</ele><time>2026-04-18T13:15:28.608Z</time></trkpt><trkpt lat="45.4619247" lon="10.4962147"><ele>160.16666666666666</ele><time>2026-04-18T13:15:29.608Z</time></trkpt><trkpt lat="45.4619376" lon="10.4963493"><ele>161.0</ele><time>2026-04-18T13:15:30.607Z</time></trkpt><trkpt lat="45.4619506" lon="10.4964865"><ele>161.20000000000002</ele><time>2026-04-18T13:15:31.608Z</time></trkpt><trkpt lat="45.4619652" lon="10.4966302"><ele>161.4</ele><time>2026-04-18T13:15:32.608Z</time></trkpt><trkpt lat="45.4619781" lon="10.4967727"><ele>161.6</ele><time>2026-04-18T13:15:33.607Z</time></trkpt><trkpt lat="45.4619919" lon="10.4969145"><ele>161.8</ele><time>2026-04-18T13:15:34.608Z</time></trkpt><trkpt lat="45.4620082" lon="10.4970565"><ele>162.0</ele><time>2026-04-18T13:15:35.608Z</time></trkpt><trkpt lat="45.4620236" lon="10.4971886"><ele>161.0</ele><time>2026-04-18T13:15:36.608Z</time></trkpt><trkpt lat="45.4620389" lon="10.4973301"><ele>160.0</ele><time>2026-04-18T13:15:37.607Z</time></trkpt><trkpt lat="45.4620519" lon="10.4974689"><ele>159.0</ele><time>2026-04-18T13:15:38.607Z</time></trkpt><trkpt lat="45.4620682" lon="10.4976059"><ele>158.0</ele><time>2026-04-18T13:15:39.607Z</time></trkpt><trkpt lat="45.4620815" lon="10.4977487"><ele>157.0</ele><time>2026-04-18T13:15:40.608Z</time></trkpt><trkpt lat="45.4620925" lon="10.4978917"><ele>156.79999999999998</ele><time>2026-04-18T13:15:41.608Z</time></trkpt><trkpt lat="45.4620986" lon="10.4980306"><ele>156.6</ele><time>2026-04-18T13:15:42.609Z</time></trkpt><trkpt lat="45.4621054" lon="10.4981769"><ele>156.39999999999998</ele><time>2026-04-18T13:15:43.607Z</time></trkpt><trkpt lat="45.4621095" lon="10.4983236"><ele>156.2</ele><time>2026-04-18T13:15:44.608Z</time></trkpt><trkpt lat="45.4621147" lon="10.4984645"><ele>156.0</ele><time>2026-04-18T13:15:45.608Z</time></trkpt><trkpt lat="45.4621179" lon="10.4986091"><ele>156.2</ele><time>2026-04-18T13:15:46.608Z</time></trkpt><trkpt lat="45.462122" lon="10.4987588"><ele>156.39999999999998</ele><time>2026-04-18T13:15:47.608Z</time></trkpt><trkpt lat="45.462127" lon="10.4989024"><ele>156.6</ele><time>2026-04-18T13:15:48.609Z</time></trkpt><trkpt lat="45.4621286" lon="10.4990462"><ele>156.79999999999998</ele><time>2026-04-18T13:15:49.608Z</time></trkpt><trkpt lat="45.462127" lon="10.4991881"><ele>157.0</ele><time>2026-04-18T13:15:50.608Z</time></trkpt><trkpt lat="45.4621146" lon="10.4993271"><ele>157.2</ele><time>2026-04-18T13:15:51.608Z</time></trkpt><trkpt lat="45.4620982" lon="10.4994574"><ele>157.39999999999998</ele><time>2026-04-18T13:15:52.608Z</time></trkpt><trkpt lat="45.4620647" lon="10.4995856"><ele>157.60000000000002</ele><time>2026-04-18T13:15:53.608Z</time></trkpt><trkpt lat="45.4620215" lon="10.4997048"><ele>157.8</ele><time>2026-04-18T13:15:54.607Z</time></trkpt><trkpt lat="45.4619693" lon="10.4998276"><ele>158.0</ele><time>2026-04-18T13:15:55.608Z</time></trkpt><trkpt lat="45.4619317" lon="10.4999485"><ele>158.0</ele><time>2026-04-18T13:15:56.607Z</time></trkpt><trkpt lat="45.4619006" lon="10.5000743"><ele>158.0</ele><time>2026-04-18T13:15:57.608Z</time></trkpt><trkpt lat="45.4618866" lon="10.5001954"><ele>158.0</ele><time>2026-04-18T13:15:58.606Z</time></trkpt><trkpt lat="45.4618749" lon="10.5003097"><ele>158.0</ele><time>2026-04-18T13:15:59.607Z</time></trkpt><trkpt lat="45.4618605" lon="10.5004472"><ele>158.0</ele><time>2026-04-18T13:16:01.606Z</time></trkpt><trkpt lat="45.4618" lon="10.5003749"><ele>158.0</ele><time>2026-04-18T13:16:05.608Z</time></trkpt><trkpt lat="45.4617424" lon="10.5002299"><ele>158.0</ele><time>2026-04-18T13:16:07.609Z</time></trkpt><trkpt lat="45.4616986" lon="10.500139"><ele>158.0</ele><time>2026-04-18T13:16:08.608Z</time></trkpt><trkpt lat="45.4616453" lon="10.5000545"><ele>158.0</ele><time>2026-04-18T13:16:09.608Z</time></trkpt><trkpt lat="45.4616043" lon="10.4999485"><ele>158.0</ele><time>2026-04-18T13:16:10.608Z</time></trkpt><trkpt lat="45.4615621" lon="10.4998424"><ele>158.0</ele><time>2026-04-18T13:16:11.609Z</time></trkpt><trkpt lat="45.4615225" lon="10.4997306"><ele>158.0</ele><time>2026-04-18T13:16:12.608Z</time></trkpt><trkpt lat="45.4614877" lon="10.4996088"><ele>157.33333333333331</ele><time>2026-04-18T13:16:13.607Z</time></trkpt><trkpt lat="45.4614527" lon="10.4994817"><ele>156.66666666666666</ele><time>2026-04-18T13:16:14.607Z</time></trkpt><trkpt lat="45.4614174" lon="10.4993538"><ele>156.0</ele><time>2026-04-18T13:16:15.607Z</time></trkpt><trkpt lat="45.4613809" lon="10.4992381"><ele>155.33333333333334</ele><time>2026-04-18T13:16:16.607Z</time></trkpt><trkpt lat="45.4613487" lon="10.4991236"><ele>154.66666666666669</ele><time>2026-04-18T13:16:17.607Z</time></trkpt><trkpt lat="45.4613168" lon="10.4990191"><ele>154.0</ele><time>2026-04-18T13:16:18.607Z</time></trkpt><trkpt lat="45.4612837" lon="10.4989049"><ele>155.8</ele><time>2026-04-18T13:16:19.607Z</time></trkpt><trkpt lat="45.4612588" lon="10.4987747"><ele>157.60000000000002</ele><time>2026-04-18T13:16:20.607Z</time></trkpt><trkpt lat="45.4612463" lon="10.4986508"><ele>159.4</ele><time>2026-04-18T13:16:21.608Z</time></trkpt><trkpt lat="45.461234" lon="10.4985264"><ele>161.20000000000002</ele><time>2026-04-18T13:16:22.607Z</time></trkpt><trkpt lat="45.4612157" lon="10.4983975"><ele>163.0</ele><time>2026-04-18T13:16:23.607Z</time></trkpt><trkpt lat="45.461205" lon="10.4982719"><ele>163.0</ele><time>2026-04-18T13:16:24.607Z</time></trkpt><trkpt lat="45.4611573" lon="10.4981513"><ele>163.0</ele><time>2026-04-18T13:16:25.607Z</time></trkpt><trkpt lat="45.4611284" lon="10.4980338"><ele>163.0</ele><time>2026-04-18T13:16:26.609Z</time></trkpt><trkpt lat="45.4610859" lon="10.4979284"><ele>163.0</ele><time>2026-04-18T13:16:27.607Z</time></trkpt><trkpt lat="45.4610444" lon="10.4978273"><ele>163.0</ele><time>2026-04-18T13:16:28.608Z</time></trkpt><trkpt lat="45.4610033" lon="10.4977573"><ele>163.0</ele><time>2026-04-18T13:16:29.606Z</time></trkpt><trkpt lat="45.460911" lon="10.49773"><ele>163.0</ele><time>2026-04-18T13:16:31.608Z</time></trkpt><trkpt lat="45.4608231" lon="10.4978254"><ele>163.0</ele><time>2026-04-18T13:16:33.607Z</time></trkpt><trkpt lat="45.4607933" lon="10.4979092"><ele>163.0</ele><time>2026-04-18T13:16:34.608Z</time></trkpt><trkpt lat="45.460764" lon="10.4979923"><ele>163.0</ele><time>2026-04-18T13:16:35.608Z</time></trkpt><trkpt lat="45.4607382" lon="10.4980905"><ele>163.0</ele><time>2026-04-18T13:16:36.607Z</time></trkpt><trkpt lat="45.4607266" lon="10.49818"><ele>163.0</ele><time>2026-04-18T13:16:37.607Z</time></trkpt><trkpt lat="45.4606862" lon="10.4983051"><ele>163.0</ele><time>2026-04-18T13:16:39.609Z</time></trkpt><trkpt lat="45.4606115" lon="10.4983035"><ele>163.0</ele><time>2026-04-18T13:16:42.608Z</time></trkpt><trkpt lat="45.4605501" lon="10.4981897"><ele>163.0</ele><time>2026-04-18T13:16:44.608Z</time></trkpt><trkpt lat="45.4605057" lon="10.4981155"><ele>163.0</ele><time>2026-04-18T13:16:45.608Z</time></trkpt><trkpt lat="45.4604561" lon="10.4980465"><ele>163.0</ele><time>2026-04-18T13:16:46.608Z</time></trkpt><trkpt lat="45.4604082" lon="10.4979703"><ele>163.0</ele><time>2026-04-18T13:16:47.606Z</time></trkpt><trkpt lat="45.4603559" lon="10.4978805"><ele>164.5</ele><time>2026-04-18T13:16:48.607Z</time></trkpt><trkpt lat="45.4602978" lon="10.497794"><ele>166.0</ele><time>2026-04-18T13:16:49.607Z</time></trkpt><trkpt lat="45.4602389" lon="10.497708"><ele>167.5</ele><time>2026-04-18T13:16:50.607Z</time></trkpt><trkpt lat="45.4601846" lon="10.497621"><ele>169.0</ele><time>2026-04-18T13:16:51.607Z</time></trkpt><trkpt lat="45.4601283" lon="10.4975309"><ele>170.5</ele><time>2026-04-18T13:16:52.607Z</time></trkpt><trkpt lat="45.4600718" lon="10.4974521"><ele>172.0</ele><time>2026-04-18T13:16:53.606Z</time></trkpt><trkpt lat="45.4600167" lon="10.4973615"><ele>172.0</ele><time>2026-04-18T13:16:54.607Z</time></trkpt><trkpt lat="45.4599639" lon="10.497258"><ele>172.0</ele><time>2026-04-18T13:16:55.606Z</time></trkpt><trkpt lat="45.459916" lon="10.4971516"><ele>172.0</ele><time>2026-04-18T13:16:56.606Z</time></trkpt><trkpt lat="45.4598667" lon="10.4970407"><ele>172.0</ele><time>2026-04-18T13:16:57.607Z</time></trkpt><trkpt lat="45.4598222" lon="10.496923"><ele>172.0</ele><time>2026-04-18T13:16:58.607Z</time></trkpt><trkpt lat="45.459778" lon="10.49682"><ele>172.0</ele><time>2026-04-18T13:16:59.607Z</time></trkpt><trkpt lat="45.4597358" lon="10.4967131"><ele>172.25</ele><time>2026-04-18T13:17:00.607Z</time></trkpt><trkpt lat="45.4596662" lon="10.4965514"><ele>172.5</ele><time>2026-04-18T13:17:02.607Z</time></trkpt><trkpt lat="45.4596046" lon="10.4964454"><ele>172.75</ele><time>2026-04-18T13:17:04.608Z</time></trkpt><trkpt lat="45.459504" lon="10.4964526"><ele>173.0</ele><time>2026-04-18T13:17:06.608Z</time></trkpt><trkpt lat="45.4593848" lon="10.4964732"><ele>173.0</ele><time>2026-04-18T13:17:08.606Z</time></trkpt><trkpt lat="45.4593151" lon="10.4964682"><ele>173.0</ele><time>2026-04-18T13:17:09.607Z</time></trkpt><trkpt lat="45.4592383" lon="10.4964535"><ele>173.0</ele><time>2026-04-18T13:17:10.609Z</time></trkpt><trkpt lat="45.4591621" lon="10.4964448"><ele>173.0</ele><time>2026-04-18T13:17:11.607Z</time></trkpt><trkpt lat="45.4590897" lon="10.4964307"><ele>173.0</ele><time>2026-04-18T13:17:12.609Z</time></trkpt><trkpt lat="45.4590181" lon="10.4964437"><ele>173.0</ele><time>2026-04-18T13:17:13.608Z</time></trkpt><trkpt lat="45.4589549" lon="10.4964586"><ele>173.0</ele><time>2026-04-18T13:17:14.606Z</time></trkpt><trkpt lat="45.4588603" lon="10.4965051"><ele>173.0</ele><time>2026-04-18T13:17:16.607Z</time></trkpt><trkpt lat="45.4588204" lon="10.4965758"><ele>173.0</ele><time>2026-04-18T13:17:19.607Z</time></trkpt><trkpt lat="45.4587661" lon="10.4966418"><ele>173.0</ele><time>2026-04-18T13:17:25.608Z</time></trkpt><trkpt lat="45.4587825" lon="10.496729"><ele>173.0</ele><time>2026-04-18T13:17:26.607Z</time></trkpt><trkpt lat="45.4588383" lon="10.4969139"><ele>173.0</ele><time>2026-04-18T13:17:28.607Z</time></trkpt><trkpt lat="45.4588606" lon="10.4970125"><ele>173.0</ele><time>2026-04-18T13:17:29.608Z</time></trkpt><trkpt lat="45.4588745" lon="10.4971079"><ele>174.16666666666666</ele><time>2026-04-18T13:17:30.607Z</time></trkpt><trkpt lat="45.4588941" lon="10.4972083"><ele>175.33333333333331</ele><time>2026-04-18T13:17:31.607Z</time></trkpt><trkpt lat="45.4589079" lon="10.4973039"><ele>176.5</ele><time>2026-04-18T13:17:32.608Z</time></trkpt><trkpt lat="45.4589258" lon="10.4973989"><ele>177.66666666666666</ele><time>2026-04-18T13:17:33.606Z</time></trkpt><trkpt lat="45.4589664" lon="10.4975125"><ele>178.83333333333334</ele><time>2026-04-18T13:17:34.607Z</time></trkpt><trkpt lat="45.458999" lon="10.4976296"><ele>180.0</ele><time>2026-04-18T13:17:35.608Z</time></trkpt><trkpt lat="45.4590281" lon="10.4977572"><ele>180.0</ele><time>2026-04-18T13:17:36.607Z</time></trkpt><trkpt lat="45.45906" lon="10.4978782"><ele>180.0</ele><time>2026-04-18T13:17:37.607Z</time></trkpt><trkpt lat="45.4590922" lon="10.4980232"><ele>180.0</ele><time>2026-04-18T13:17:38.608Z</time></trkpt><trkpt lat="45.4591263" lon="10.4981654"><ele>180.0</ele><time>2026-04-18T13:17:39.606Z</time></trkpt><trkpt lat="45.4591596" lon="10.4983012"><ele>180.0</ele><time>2026-04-18T13:17:40.606Z</time></trkpt><trkpt lat="45.4591945" lon="10.4984366"><ele>181.2</ele><time>2026-04-18T13:17:41.606Z</time></trkpt><trkpt lat="45.4592292" lon="10.4985785"><ele>182.4</ele><time>2026-04-18T13:17:42.607Z</time></trkpt><trkpt lat="45.4592588" lon="10.4987205"><ele>183.60000000000002</ele><time>2026-04-18T13:17:43.606Z</time></trkpt><trkpt lat="45.4592871" lon="10.4988537"><ele>184.8</ele><time>2026-04-18T13:17:44.608Z</time></trkpt><trkpt lat="45.4593094" lon="10.4989905"><ele>186.0</ele><time>2026-04-18T13:17:45.606Z</time></trkpt><trkpt lat="45.4593358" lon="10.4991175"><ele>186.0</ele><time>2026-04-18T13:17:46.607Z</time></trkpt><trkpt lat="45.4593625" lon="10.4992359"><ele>186.0</ele><time>2026-04-18T13:17:47.607Z</time></trkpt><trkpt lat="45.4593828" lon="10.4993534"><ele>186.0</ele><time>2026-04-18T13:17:48.608Z</time></trkpt><trkpt lat="45.459401" lon="10.4994503"><ele>186.0</ele><time>2026-04-18T13:17:49.607Z</time></trkpt><trkpt lat="45.4594278" lon="10.4995834"><ele>186.0</ele><time>2026-04-18T13:17:51.608Z</time></trkpt><trkpt lat="45.4594621" lon="10.4997163"><ele>186.0</ele><time>2026-04-18T13:17:53.607Z</time></trkpt><trkpt lat="45.4594892" lon="10.4998812"><ele>186.0</ele><time>2026-04-18T13:17:55.607Z</time></trkpt><trkpt lat="45.4594872" lon="10.4999739"><ele>186.0</ele><time>2026-04-18T13:17:56.607Z</time></trkpt><trkpt lat="45.4594735" lon="10.5000707"><ele>186.0</ele><time>2026-04-18T13:17:57.607Z</time></trkpt><trkpt lat="45.4594576" lon="10.5001801"><ele>186.0</ele><time>2026-04-18T13:17:58.607Z</time></trkpt><trkpt lat="45.4594268" lon="10.5002927"><ele>186.0</ele><time>2026-04-18T13:17:59.607Z</time></trkpt><trkpt lat="45.4594048" lon="10.5003959"><ele>186.0</ele><time>2026-04-18T13:18:00.607Z</time></trkpt><trkpt lat="45.4593787" lon="10.5005005"><ele>186.16666666666666</ele><time>2026-04-18T13:18:01.607Z</time></trkpt><trkpt lat="45.4593542" lon="10.5006074"><ele>186.33333333333334</ele><time>2026-04-18T13:18:02.607Z</time></trkpt><trkpt lat="45.4593232" lon="10.5007107"><ele>186.5</ele><time>2026-04-18T13:18:03.607Z</time></trkpt><trkpt lat="45.4592859" lon="10.5008212"><ele>186.66666666666669</ele><time>2026-04-18T13:18:04.607Z</time></trkpt><trkpt lat="45.4592405" lon="10.5009274"><ele>186.83333333333334</ele><time>2026-04-18T13:18:05.607Z</time></trkpt><trkpt lat="45.4591905" lon="10.5010377"><ele>187.0</ele><time>2026-04-18T13:18:06.607Z</time></trkpt><trkpt lat="45.4591348" lon="10.5011401"><ele>187.0</ele><time>2026-04-18T13:18:07.606Z</time></trkpt><trkpt lat="45.4590806" lon="10.5012345"><ele>187.0</ele><time>2026-04-18T13:18:08.607Z</time></trkpt><trkpt lat="45.4590311" lon="10.501318"><ele>187.0</ele><time>2026-04-18T13:18:09.607Z</time></trkpt><trkpt lat="45.458986" lon="10.5013893"><ele>187.0</ele><time>2026-04-18T13:18:10.607Z</time></trkpt><trkpt lat="45.4589324" lon="10.5014528"><ele>187.0</ele><time>2026-04-18T13:18:11.608Z</time></trkpt><trkpt lat="45.4588724" lon="10.5015234"><ele>187.0</ele><time>2026-04-18T13:18:12.608Z</time></trkpt><trkpt lat="45.4588163" lon="10.5015847"><ele>187.0</ele><time>2026-04-18T13:18:13.607Z</time></trkpt><trkpt lat="45.4587598" lon="10.5016405"><ele>187.33333333333334</ele><time>2026-04-18T13:18:14.606Z</time></trkpt><trkpt lat="45.4587187" lon="10.5017278"><ele>187.66666666666669</ele><time>2026-04-18T13:18:15.607Z</time></trkpt><trkpt lat="45.458665" lon="10.5018216"><ele>188.0</ele><time>2026-04-18T13:18:16.608Z</time></trkpt><trkpt lat="45.4586171" lon="10.501938"><ele>188.33333333333334</ele><time>2026-04-18T13:18:17.608Z</time></trkpt><trkpt lat="45.4585731" lon="10.5020458"><ele>188.66666666666666</ele><time>2026-04-18T13:18:18.607Z</time></trkpt><trkpt lat="45.4585333" lon="10.5021553"><ele>189.0</ele><time>2026-04-18T13:18:19.608Z</time></trkpt><trkpt lat="45.4584912" lon="10.5022718"><ele>186.79999999999998</ele><time>2026-04-18T13:18:20.607Z</time></trkpt><trkpt lat="45.4584368" lon="10.5023891"><ele>184.6</ele><time>2026-04-18T13:18:21.607Z</time></trkpt><trkpt lat="45.4583711" lon="10.5024839"><ele>182.4</ele><time>2026-04-18T13:18:22.607Z</time></trkpt><trkpt lat="45.45831" lon="10.5025745"><ele>180.2</ele><time>2026-04-18T13:18:23.606Z</time></trkpt><trkpt lat="45.4582459" lon="10.5026717"><ele>178.0</ele><time>2026-04-18T13:18:24.607Z</time></trkpt><trkpt lat="45.4581688" lon="10.5027721"><ele>178.0</ele><time>2026-04-18T13:18:25.607Z</time></trkpt><trkpt lat="45.4581089" lon="10.5028492"><ele>178.0</ele><time>2026-04-18T13:18:26.607Z</time></trkpt><trkpt lat="45.4580624" lon="10.5029186"><ele>178.0</ele><time>2026-04-18T13:18:27.608Z</time></trkpt><trkpt lat="45.4580342" lon="10.5030196"><ele>178.0</ele><time>2026-04-18T13:18:28.608Z</time></trkpt><trkpt lat="45.4579952" lon="10.503124"><ele>178.0</ele><time>2026-04-18T13:18:29.607Z</time></trkpt><trkpt lat="45.4579587" lon="10.5032312"><ele>178.0</ele><time>2026-04-18T13:18:30.607Z</time></trkpt><trkpt lat="45.457922" lon="10.5033501"><ele>177.4</ele><time>2026-04-18T13:18:31.607Z</time></trkpt><trkpt lat="45.4578998" lon="10.5035074"><ele>176.8</ele><time>2026-04-18T13:18:32.607Z</time></trkpt><trkpt lat="45.4578741" lon="10.5036331"><ele>176.2</ele><time>2026-04-18T13:18:33.607Z</time></trkpt><trkpt lat="45.4578261" lon="10.5037582"><ele>175.6</ele><time>2026-04-18T13:18:34.608Z</time></trkpt><trkpt lat="45.4577878" lon="10.5038887"><ele>175.0</ele><time>2026-04-18T13:18:35.607Z</time></trkpt><trkpt lat="45.4577563" lon="10.5040143"><ele>175.0</ele><time>2026-04-18T13:18:36.607Z</time></trkpt><trkpt lat="45.4577415" lon="10.5041325"><ele>175.0</ele><time>2026-04-18T13:18:37.608Z</time></trkpt><trkpt lat="45.4577259" lon="10.5042576"><ele>175.0</ele><time>2026-04-18T13:18:38.607Z</time></trkpt><trkpt lat="45.4577572" lon="10.5043488"><ele>175.0</ele><time>2026-04-18T13:18:39.608Z</time></trkpt><trkpt lat="45.4577601" lon="10.5044401"><ele>175.0</ele><time>2026-04-18T13:18:40.607Z</time></trkpt><trkpt lat="45.4577683" lon="10.5045358"><ele>175.0</ele><time>2026-04-18T13:18:41.607Z</time></trkpt><trkpt lat="45.4578157" lon="10.504636"><ele>176.4</ele><time>2026-04-18T13:18:42.607Z</time></trkpt><trkpt lat="45.4578572" lon="10.5047345"><ele>177.8</ele><time>2026-04-18T13:18:43.607Z</time></trkpt><trkpt lat="45.4578874" lon="10.5048435"><ele>179.2</ele><time>2026-04-18T13:18:44.607Z</time></trkpt><trkpt lat="45.4579248" lon="10.5049693"><ele>180.6</ele><time>2026-04-18T13:18:45.607Z</time></trkpt><trkpt lat="45.457943" lon="10.5051144"><ele>182.0</ele><time>2026-04-18T13:18:46.607Z</time></trkpt><trkpt lat="45.4579525" lon="10.5052744"><ele>179.6</ele><time>2026-04-18T13:18:47.607Z</time></trkpt><trkpt lat="45.4579899" lon="10.5054013"><ele>177.2</ele><time>2026-04-18T13:18:48.607Z</time></trkpt><trkpt lat="45.4580205" lon="10.5055462"><ele>174.8</ele><time>2026-04-18T13:18:49.608Z</time></trkpt><trkpt lat="45.458041" lon="10.5056825"><ele>172.4</ele><time>2026-04-18T13:18:50.608Z</time></trkpt><trkpt lat="45.458056" lon="10.5058114"><ele>170.0</ele><time>2026-04-18T13:18:51.607Z</time></trkpt><trkpt lat="45.4580461" lon="10.5059498"><ele>170.0</ele><time>2026-04-18T13:18:52.606Z</time></trkpt><trkpt lat="45.4580299" lon="10.5060667"><ele>170.0</ele><time>2026-04-18T13:18:53.607Z</time></trkpt><trkpt lat="45.45803" lon="10.5061822"><ele>170.0</ele><time>2026-04-18T13:18:54.607Z</time></trkpt><trkpt lat="45.4580085" lon="10.506299"><ele>170.0</ele><time>2026-04-18T13:18:56.607Z</time></trkpt><trkpt lat="45.4580069" lon="10.5064361"><ele>170.0</ele><time>2026-04-18T13:19:14.606Z</time></trkpt><trkpt lat="45.4579762" lon="10.5066263"><ele>169.83333333333331</ele><time>2026-04-18T13:19:16.606Z</time></trkpt><trkpt lat="45.457961" lon="10.5067312"><ele>169.66666666666666</ele><time>2026-04-18T13:19:17.606Z</time></trkpt><trkpt lat="45.457946" lon="10.5068412"><ele>169.5</ele><time>2026-04-18T13:19:18.605Z</time></trkpt><trkpt lat="45.4579328" lon="10.5069577"><ele>169.33333333333334</ele><time>2026-04-18T13:19:19.606Z</time></trkpt><trkpt lat="45.457904" lon="10.5070612"><ele>169.16666666666669</ele><time>2026-04-18T13:19:20.606Z</time></trkpt><trkpt lat="45.4578835" lon="10.5071924"><ele>169.0</ele><time>2026-04-18T13:19:21.607Z</time></trkpt><trkpt lat="45.4578446" lon="10.5072981"><ele>169.0</ele><time>2026-04-18T13:19:22.606Z</time></trkpt><trkpt lat="45.4578103" lon="10.5073917"><ele>169.0</ele><time>2026-04-18T13:19:23.606Z</time></trkpt><trkpt lat="45.4577693" lon="10.507468"><ele>169.0</ele><time>2026-04-18T13:19:24.606Z</time></trkpt><trkpt lat="45.4577096" lon="10.5075583"><ele>169.0</ele><time>2026-04-18T13:19:26.607Z</time></trkpt><trkpt lat="45.4576507" lon="10.5076149"><ele>169.0</ele><time>2026-04-18T13:19:28.606Z</time></trkpt><trkpt lat="45.4575918" lon="10.507692"><ele>169.0</ele><time>2026-04-18T13:19:29.606Z</time></trkpt><trkpt lat="45.4575416" lon="10.5077898"><ele>169.0</ele><time>2026-04-18T13:19:30.606Z</time></trkpt><trkpt lat="45.4574941" lon="10.5078696"><ele>169.0</ele><time>2026-04-18T13:19:31.607Z</time></trkpt><trkpt lat="45.457454" lon="10.5079602"><ele>169.0</ele><time>2026-04-18T13:19:32.606Z</time></trkpt><trkpt lat="45.4574327" lon="10.5080454"><ele>169.0</ele><time>2026-04-18T13:19:33.606Z</time></trkpt><trkpt lat="45.4574139" lon="10.5081363"><ele>169.0</ele><time>2026-04-18T13:19:34.606Z</time></trkpt><trkpt lat="45.4573916" lon="10.5082203"><ele>169.0</ele><time>2026-04-18T13:19:35.607Z</time></trkpt><trkpt lat="45.4573563" lon="10.5083161"><ele>169.0</ele><time>2026-04-18T13:19:37.605Z</time></trkpt><trkpt lat="45.4572825" lon="10.5083989"><ele>168.6</ele><time>2026-04-18T13:19:39.608Z</time></trkpt><trkpt lat="45.4572103" lon="10.5084806"><ele>168.2</ele><time>2026-04-18T13:19:41.609Z</time></trkpt><trkpt lat="45.4571657" lon="10.5085625"><ele>167.79999999999998</ele><time>2026-04-18T13:19:42.608Z</time></trkpt><trkpt lat="45.4570577" lon="10.5086559"><ele>167.39999999999998</ele><time>2026-04-18T13:19:44.606Z</time></trkpt><trkpt lat="45.4569397" lon="10.5086554"><ele>167.0</ele><time>2026-04-18T13:19:46.607Z</time></trkpt><trkpt lat="45.4568057" lon="10.5087424"><ele>168.6</ele><time>2026-04-18T13:19:48.606Z</time></trkpt><trkpt lat="45.4567397" lon="10.5088069"><ele>170.2</ele><time>2026-04-18T13:19:49.608Z</time></trkpt><trkpt lat="45.456666" lon="10.508865"><ele>171.8</ele><time>2026-04-18T13:19:50.606Z</time></trkpt><trkpt lat="45.4566112" lon="10.5089145"><ele>173.4</ele><time>2026-04-18T13:19:51.607Z</time></trkpt><trkpt lat="45.4565556" lon="10.5090298"><ele>175.0</ele><time>2026-04-18T13:19:53.607Z</time></trkpt><trkpt lat="45.456534" lon="10.5092245"><ele>175.0</ele><time>2026-04-18T13:19:55.607Z</time></trkpt><trkpt lat="45.4565217" lon="10.5093496"><ele>175.0</ele><time>2026-04-18T13:19:56.607Z</time></trkpt><trkpt lat="45.4565075" lon="10.5094723"><ele>175.0</ele><time>2026-04-18T13:19:57.608Z</time></trkpt><trkpt lat="45.4564967" lon="10.5095925"><ele>175.0</ele><time>2026-04-18T13:19:58.607Z</time></trkpt><trkpt lat="45.4564792" lon="10.5097116"><ele>175.0</ele><time>2026-04-18T13:19:59.608Z</time></trkpt><trkpt lat="45.456461" lon="10.5098319"><ele>175.0</ele><time>2026-04-18T13:20:00.607Z</time></trkpt><trkpt lat="45.4564327" lon="10.5099575"><ele>175.16666666666669</ele><time>2026-04-18T13:20:01.607Z</time></trkpt><trkpt lat="45.456386" lon="10.5100505"><ele>175.33333333333334</ele><time>2026-04-18T13:20:02.607Z</time></trkpt><trkpt lat="45.4563468" lon="10.5101637"><ele>175.5</ele><time>2026-04-18T13:20:03.607Z</time></trkpt><trkpt lat="45.4562804" lon="10.5102642"><ele>175.66666666666666</ele><time>2026-04-18T13:20:04.607Z</time></trkpt><trkpt lat="45.456227" lon="10.5103595"><ele>175.83333333333331</ele><time>2026-04-18T13:20:05.608Z</time></trkpt><trkpt lat="45.456173" lon="10.5104563"><ele>176.0</ele><time>2026-04-18T13:20:06.607Z</time></trkpt><trkpt lat="45.4561233" lon="10.5105497"><ele>175.16666666666666</ele><time>2026-04-18T13:20:07.607Z</time></trkpt><trkpt lat="45.4560518" lon="10.5106531"><ele>174.33333333333331</ele><time>2026-04-18T13:20:08.607Z</time></trkpt><trkpt lat="45.455994" lon="10.5107366"><ele>173.5</ele><time>2026-04-18T13:20:09.607Z</time></trkpt><trkpt lat="45.4559367" lon="10.5108231"><ele>172.66666666666666</ele><time>2026-04-18T13:20:10.606Z</time></trkpt><trkpt lat="45.4558809" lon="10.5108788"><ele>171.83333333333334</ele><time>2026-04-18T13:20:11.607Z</time></trkpt><trkpt lat="45.455783" lon="10.5108936"><ele>171.0</ele><time>2026-04-18T13:20:12.607Z</time></trkpt><trkpt lat="45.4557145" lon="10.5108798"><ele>171.0</ele><time>2026-04-18T13:20:13.607Z</time></trkpt><trkpt lat="45.4556081" lon="10.5108756"><ele>171.0</ele><time>2026-04-18T13:20:14.607Z</time></trkpt><trkpt lat="45.4555234" lon="10.5108438"><ele>171.0</ele><time>2026-04-18T13:20:15.607Z</time></trkpt><trkpt lat="45.4554257" lon="10.5108152"><ele>171.0</ele><time>2026-04-18T13:20:16.607Z</time></trkpt><trkpt lat="45.4553491" lon="10.5107858"><ele>171.0</ele><time>2026-04-18T13:20:17.607Z</time></trkpt><trkpt lat="45.4552507" lon="10.5107476"><ele>170.66666666666666</ele><time>2026-04-18T13:20:18.607Z</time></trkpt><trkpt lat="45.4551563" lon="10.5107289"><ele>170.33333333333334</ele><time>2026-04-18T13:20:19.607Z</time></trkpt><trkpt lat="45.4550693" lon="10.5107063"><ele>170.0</ele><time>2026-04-18T13:20:20.607Z</time></trkpt><trkpt lat="45.4549742" lon="10.5106937"><ele>169.66666666666669</ele><time>2026-04-18T13:20:21.606Z</time></trkpt><trkpt lat="45.4548914" lon="10.5106801"><ele>169.33333333333334</ele><time>2026-04-18T13:20:22.605Z</time></trkpt><trkpt lat="45.4548249" lon="10.5106584"><ele>169.0</ele><time>2026-04-18T13:20:23.606Z</time></trkpt><trkpt lat="45.4547632" lon="10.5106984"><ele>169.0</ele><time>2026-04-18T13:20:24.606Z</time></trkpt><trkpt lat="45.4546931" lon="10.510754"><ele>169.0</ele><time>2026-04-18T13:20:25.606Z</time></trkpt><trkpt lat="45.4546148" lon="10.5108041"><ele>169.0</ele><time>2026-04-18T13:20:26.606Z</time></trkpt><trkpt lat="45.4545319" lon="10.5108487"><ele>169.0</ele><time>2026-04-18T13:20:27.606Z</time></trkpt><trkpt lat="45.4544527" lon="10.5108789"><ele>169.0</ele><time>2026-04-18T13:20:28.606Z</time></trkpt><trkpt lat="45.4543605" lon="10.5108386"><ele>169.0</ele><time>2026-04-18T13:20:29.606Z</time></trkpt><trkpt lat="45.4542538" lon="10.5108338"><ele>167.6</ele><time>2026-04-18T13:20:30.606Z</time></trkpt><trkpt lat="45.454164" lon="10.5108435"><ele>166.2</ele><time>2026-04-18T13:20:31.607Z</time></trkpt><trkpt lat="45.4540813" lon="10.5108473"><ele>164.79999999999998</ele><time>2026-04-18T13:20:32.606Z</time></trkpt><trkpt lat="45.4539861" lon="10.5108855"><ele>163.39999999999998</ele><time>2026-04-18T13:20:34.606Z</time></trkpt><trkpt lat="45.4538978" lon="10.5108466"><ele>162.0</ele><time>2026-04-18T13:20:36.606Z</time></trkpt><trkpt lat="45.4537971" lon="10.5108485"><ele>160.6</ele><time>2026-04-18T13:20:38.607Z</time></trkpt><trkpt lat="45.4537287" lon="10.5108468"><ele>159.2</ele><time>2026-04-18T13:20:39.606Z</time></trkpt><trkpt lat="45.4536296" lon="10.5108624"><ele>157.8</ele><time>2026-04-18T13:20:41.606Z</time></trkpt><trkpt lat="45.4535277" lon="10.5108634"><ele>156.4</ele><time>2026-04-18T13:20:43.607Z</time></trkpt><trkpt lat="45.4534185" lon="10.5108677"><ele>155.0</ele><time>2026-04-18T13:20:45.605Z</time></trkpt><trkpt lat="45.4533033" lon="10.510905"><ele>155.0</ele><time>2026-04-18T13:20:47.605Z</time></trkpt><trkpt lat="45.4532106" lon="10.5108719"><ele>155.0</ele><time>2026-04-18T13:20:49.606Z</time></trkpt><trkpt lat="45.4531076" lon="10.5108323"><ele>155.0</ele><time>2026-04-18T13:20:51.607Z</time></trkpt><trkpt lat="45.4530183" lon="10.5107614"><ele>155.0</ele><time>2026-04-18T13:20:53.606Z</time></trkpt><trkpt lat="45.4529179" lon="10.5106891"><ele>155.0</ele><time>2026-04-18T13:20:55.605Z</time></trkpt><trkpt lat="45.4527949" lon="10.5106638"><ele>153.83333333333331</ele><time>2026-04-18T13:20:57.605Z</time></trkpt><trkpt lat="45.4527333" lon="10.5106877"><ele>152.66666666666666</ele><time>2026-04-18T13:20:58.606Z</time></trkpt><trkpt lat="45.452639" lon="10.5107016"><ele>151.5</ele><time>2026-04-18T13:21:00.606Z</time></trkpt><trkpt lat="45.4525655" lon="10.5106286"><ele>150.33333333333334</ele><time>2026-04-18T13:21:02.606Z</time></trkpt><trkpt lat="45.4525129" lon="10.5105094"><ele>149.16666666666669</ele><time>2026-04-18T13:21:04.606Z</time></trkpt><trkpt lat="45.4524485" lon="10.5104278"><ele>148.0</ele><time>2026-04-18T13:21:06.607Z</time></trkpt><trkpt lat="45.4523794" lon="10.510509"><ele>148.0</ele><time>2026-04-18T13:21:08.606Z</time></trkpt><trkpt lat="45.4523172" lon="10.5105654"><ele>148.0</ele><time>2026-04-18T13:21:10.606Z</time></trkpt><trkpt lat="45.4522633" lon="10.5106585"><ele>148.0</ele><time>2026-04-18T13:21:13.607Z</time></trkpt><trkpt lat="45.4522154" lon="10.5107475"><ele>148.0</ele><time>2026-04-18T13:21:15.607Z</time></trkpt><trkpt lat="45.4521756" lon="10.5108564"><ele>148.0</ele><time>2026-04-18T13:21:17.606Z</time></trkpt><trkpt lat="45.4521092" lon="10.5109926"><ele>148.0</ele><time>2026-04-18T13:21:19.606Z</time></trkpt><trkpt lat="45.4520665" lon="10.5110612"><ele>148.0</ele><time>2026-04-18T13:21:20.606Z</time></trkpt><trkpt lat="45.4520201" lon="10.5111306"><ele>148.0</ele><time>2026-04-18T13:21:21.606Z</time></trkpt><trkpt lat="45.4519788" lon="10.5112182"><ele>148.0</ele><time>2026-04-18T13:21:22.606Z</time></trkpt><trkpt lat="45.4519312" lon="10.5112973"><ele>148.0</ele><time>2026-04-18T13:21:23.606Z</time></trkpt><trkpt lat="45.4519112" lon="10.5114045"><ele>148.0</ele><time>2026-04-18T13:21:24.605Z</time></trkpt><trkpt lat="45.4518845" lon="10.5114909"><ele>148.0</ele><time>2026-04-18T13:21:25.606Z</time></trkpt><trkpt lat="45.4518054" lon="10.5116041"><ele>147.0</ele><time>2026-04-18T13:21:27.606Z</time></trkpt><trkpt lat="45.4517346" lon="10.5116579"><ele>146.0</ele><time>2026-04-18T13:21:29.606Z</time></trkpt><trkpt lat="45.4516152" lon="10.5116478"><ele>145.0</ele><time>2026-04-18T13:21:31.606Z</time></trkpt><trkpt lat="45.4515429" lon="10.5116269"><ele>144.0</ele><time>2026-04-18T13:21:32.606Z</time></trkpt><trkpt lat="45.4514708" lon="10.5116152"><ele>143.0</ele><time>2026-04-18T13:21:33.606Z</time></trkpt><trkpt lat="45.4513916" lon="10.5116069"><ele>142.0</ele><time>2026-04-18T13:21:34.606Z</time></trkpt><trkpt lat="45.4513073" lon="10.5115889"><ele>142.5</ele><time>2026-04-18T13:21:35.607Z</time></trkpt><trkpt lat="45.4512264" lon="10.5115653"><ele>143.0</ele><time>2026-04-18T13:21:36.605Z</time></trkpt><trkpt lat="45.4511471" lon="10.511542"><ele>143.5</ele><time>2026-04-18T13:21:37.606Z</time></trkpt><trkpt lat="45.4510717" lon="10.5115108"><ele>144.0</ele><time>2026-04-18T13:21:38.605Z</time></trkpt><trkpt lat="45.4509988" lon="10.5114636"><ele>144.5</ele><time>2026-04-18T13:21:39.605Z</time></trkpt><trkpt lat="45.4509365" lon="10.5113955"><ele>145.0</ele><time>2026-04-18T13:21:40.607Z</time></trkpt><trkpt lat="45.4508836" lon="10.5113412"><ele>145.0</ele><time>2026-04-18T13:21:41.606Z</time></trkpt><trkpt lat="45.4507749" lon="10.5113502"><ele>145.0</ele><time>2026-04-18T13:21:43.607Z</time></trkpt><trkpt lat="45.4507083" lon="10.5113798"><ele>145.0</ele><time>2026-04-18T13:21:44.606Z</time></trkpt><trkpt lat="45.4506268" lon="10.5113883"><ele>145.0</ele><time>2026-04-18T13:21:45.606Z</time></trkpt><trkpt lat="45.4505437" lon="10.5113867"><ele>145.0</ele><time>2026-04-18T13:21:46.606Z</time></trkpt><trkpt lat="45.4504593" lon="10.51138"><ele>145.0</ele><time>2026-04-18T13:21:47.607Z</time></trkpt><trkpt lat="45.4503729" lon="10.5113619"><ele>145.0</ele><time>2026-04-18T13:21:48.606Z</time></trkpt><trkpt lat="45.4502932" lon="10.5113222"><ele>145.0</ele><time>2026-04-18T13:21:49.606Z</time></trkpt><trkpt lat="45.4502269" lon="10.5112612"><ele>145.0</ele><time>2026-04-18T13:21:50.606Z</time></trkpt><trkpt lat="45.4501897" lon="10.5111643"><ele>145.0</ele><time>2026-04-18T13:21:51.606Z</time></trkpt><trkpt lat="45.4501639" lon="10.5110587"><ele>145.0</ele><time>2026-04-18T13:21:52.607Z</time></trkpt><trkpt lat="45.4501484" lon="10.510949"><ele>145.0</ele><time>2026-04-18T13:21:53.606Z</time></trkpt><trkpt lat="45.4501402" lon="10.5108353"><ele>145.5</ele><time>2026-04-18T13:21:54.607Z</time></trkpt><trkpt lat="45.4501376" lon="10.5107151"><ele>146.0</ele><time>2026-04-18T13:21:55.606Z</time></trkpt><trkpt lat="45.4501378" lon="10.5106033"><ele>146.5</ele><time>2026-04-18T13:21:56.606Z</time></trkpt><trkpt lat="45.4501357" lon="10.5104903"><ele>147.0</ele><time>2026-04-18T13:21:57.606Z</time></trkpt><trkpt lat="45.4501308" lon="10.5103997"><ele>147.5</ele><time>2026-04-18T13:21:58.606Z</time></trkpt><trkpt lat="45.450095" lon="10.5103219"><ele>148.0</ele><time>2026-04-18T13:21:59.605Z</time></trkpt><trkpt lat="45.4499683" lon="10.5102443"><ele>148.5</ele><time>2026-04-18T13:22:01.606Z</time></trkpt><trkpt lat="45.4497916" lon="10.5101914"><ele>149.0</ele><time>2026-04-18T13:22:03.607Z</time></trkpt><trkpt lat="45.4496906" lon="10.5101525"><ele>149.5</ele><time>2026-04-18T13:22:04.607Z</time></trkpt><trkpt lat="45.4495946" lon="10.510118"><ele>150.0</ele><time>2026-04-18T13:22:05.608Z</time></trkpt><trkpt lat="45.4494946" lon="10.5100793"><ele>150.0</ele><time>2026-04-18T13:22:06.606Z</time></trkpt><trkpt lat="45.4493985" lon="10.5100392"><ele>150.0</ele><time>2026-04-18T13:22:07.606Z</time></trkpt><trkpt lat="45.4492957" lon="10.5099871"><ele>150.0</ele><time>2026-04-18T13:22:08.607Z</time></trkpt><trkpt lat="45.449199" lon="10.5099317"><ele>150.0</ele><time>2026-04-18T13:22:09.608Z</time></trkpt><trkpt lat="45.4491008" lon="10.5098856"><ele>150.0</ele><time>2026-04-18T13:22:10.606Z</time></trkpt><trkpt lat="45.4490132" lon="10.5098597"><ele>150.0</ele><time>2026-04-18T13:22:11.606Z</time></trkpt><trkpt lat="45.4489376" lon="10.5098465"><ele>150.0</ele><time>2026-04-18T13:22:12.606Z</time></trkpt><trkpt lat="45.4488292" lon="10.5098375"><ele>150.0</ele><time>2026-04-18T13:22:14.607Z</time></trkpt><trkpt lat="45.4487522" lon="10.509815"><ele>150.0</ele><time>2026-04-18T13:22:16.606Z</time></trkpt><trkpt lat="45.4486884" lon="10.5097767"><ele>150.0</ele><time>2026-04-18T13:22:19.605Z</time></trkpt><trkpt lat="45.4486315" lon="10.5097119"><ele>150.0</ele><time>2026-04-18T13:22:22.606Z</time></trkpt><trkpt lat="45.448558" lon="10.5096322"><ele>150.16666666666666</ele><time>2026-04-18T13:22:25.607Z</time></trkpt><trkpt lat="45.4485017" lon="10.5095734"><ele>150.33333333333334</ele><time>2026-04-18T13:22:27.607Z</time></trkpt><trkpt lat="45.4484494" lon="10.5094957"><ele>150.5</ele><time>2026-04-18T13:22:30.605Z</time></trkpt><trkpt lat="45.4484888" lon="10.5095909"><ele>150.66666666666669</ele><time>2026-04-18T13:22:35.607Z</time></trkpt><trkpt lat="45.4485935" lon="10.5096468"><ele>150.83333333333334</ele><time>2026-04-18T13:22:37.606Z</time></trkpt><trkpt lat="45.4486728" lon="10.5097247"><ele>151.0</ele><time>2026-04-18T13:22:39.606Z</time></trkpt><trkpt lat="45.4487366" lon="10.5097948"><ele>151.00000000000003</ele><time>2026-04-18T13:22:41.606Z</time></trkpt><trkpt lat="45.4487716" lon="10.5098748"><ele>151.0</ele><time>2026-04-18T13:22:43.607Z</time></trkpt><trkpt lat="45.4487152" lon="10.5097901"><ele>151.0</ele><time>2026-04-18T13:22:53.606Z</time></trkpt><trkpt lat="45.4486617" lon="10.5097414"><ele>151.0</ele><time>2026-04-18T13:22:54.605Z</time></trkpt><trkpt lat="45.4486021" lon="10.5096873"><ele>151.0</ele><time>2026-04-18T13:22:55.607Z</time></trkpt><trkpt lat="45.4485391" lon="10.5096275"><ele>151.00000000000003</ele><time>2026-04-18T13:22:56.607Z</time></trkpt><trkpt lat="45.4484821" lon="10.5095664"><ele>151.0</ele><time>2026-04-18T13:22:57.606Z</time></trkpt><trkpt lat="45.4484012" lon="10.5094948"><ele>151.66666666666669</ele><time>2026-04-18T13:22:59.605Z</time></trkpt><trkpt lat="45.4483974" lon="10.5093853"><ele>152.33333333333334</ele><time>2026-04-18T13:23:11.606Z</time></trkpt><trkpt lat="45.4484227" lon="10.5092323"><ele>153.0</ele><time>2026-04-18T13:23:13.606Z</time></trkpt><trkpt lat="45.4484348" lon="10.5091432"><ele>153.66666666666666</ele><time>2026-04-18T13:23:14.606Z</time></trkpt><trkpt lat="45.4484361" lon="10.5090226"><ele>154.33333333333331</ele><time>2026-04-18T13:23:16.607Z</time></trkpt><trkpt lat="45.4483742" lon="10.5089699"><ele>155.0</ele><time>2026-04-18T13:23:19.605Z</time></trkpt><trkpt lat="45.4482742" lon="10.508936"><ele>155.0</ele><time>2026-04-18T13:23:21.607Z</time></trkpt><trkpt lat="45.4482287" lon="10.5088517"><ele>155.0</ele><time>2026-04-18T13:23:23.606Z</time></trkpt><trkpt lat="45.4481958" lon="10.5086863"><ele>155.0</ele><time>2026-04-18T13:23:25.606Z</time></trkpt><trkpt lat="45.4481642" lon="10.5085982"><ele>155.0</ele><time>2026-04-18T13:23:26.606Z</time></trkpt><trkpt lat="45.4481167" lon="10.5085132"><ele>155.0</ele><time>2026-04-18T13:23:27.607Z</time></trkpt><trkpt lat="45.4480638" lon="10.5084255"><ele>155.0</ele><time>2026-04-18T13:23:28.606Z</time></trkpt><trkpt lat="45.4479792" lon="10.5083027"><ele>157.75</ele><time>2026-04-18T13:23:30.606Z</time></trkpt><trkpt lat="45.4478974" lon="10.5082142"><ele>160.5</ele><time>2026-04-18T13:23:32.606Z</time></trkpt><trkpt lat="45.4477692" lon="10.5083178"><ele>163.25</ele><time>2026-04-18T13:23:34.606Z</time></trkpt><trkpt lat="45.4476644" lon="10.5084087"><ele>166.0</ele><time>2026-04-18T13:23:36.605Z</time></trkpt><trkpt lat="45.4476069" lon="10.5085319"><ele>166.0</ele><time>2026-04-18T13:23:38.606Z</time></trkpt><trkpt lat="45.4475649" lon="10.5086057"><ele>166.0</ele><time>2026-04-18T13:23:39.606Z</time></trkpt><trkpt lat="45.4474963" lon="10.5087098"><ele>166.0</ele><time>2026-04-18T13:23:41.606Z</time></trkpt><trkpt lat="45.4474288" lon="10.5087233"><ele>166.0</ele><time>2026-04-18T13:23:42.606Z</time></trkpt><trkpt lat="45.4473544" lon="10.5087451"><ele>166.0</ele><time>2026-04-18T13:23:43.607Z</time></trkpt><trkpt lat="45.4472779" lon="10.5087744"><ele>166.0</ele><time>2026-04-18T13:23:44.606Z</time></trkpt><trkpt lat="45.4472013" lon="10.5088132"><ele>165.85714285714286</ele><time>2026-04-18T13:23:45.606Z</time></trkpt><trkpt lat="45.4471254" lon="10.5088506"><ele>165.71428571428572</ele><time>2026-04-18T13:23:46.606Z</time></trkpt><trkpt lat="45.4470499" lon="10.5088801"><ele>165.57142857142858</ele><time>2026-04-18T13:23:47.606Z</time></trkpt><trkpt lat="45.4469724" lon="10.5089142"><ele>165.42857142857144</ele><time>2026-04-18T13:23:48.605Z</time></trkpt><trkpt lat="45.4469062" lon="10.5089462"><ele>165.28571428571428</ele><time>2026-04-18T13:23:49.607Z</time></trkpt><trkpt lat="45.4468441" lon="10.5089742"><ele>165.14285714285717</ele><time>2026-04-18T13:23:50.607Z</time></trkpt><trkpt lat="45.4467786" lon="10.5090037"><ele>165.0</ele><time>2026-04-18T13:23:51.606Z</time></trkpt><trkpt lat="45.4467155" lon="10.5090148"><ele>165.0</ele><time>2026-04-18T13:23:52.606Z</time></trkpt><trkpt lat="45.4466446" lon="10.5090476"><ele>165.0</ele><time>2026-04-18T13:23:53.607Z</time></trkpt><trkpt lat="45.4465762" lon="10.5090792"><ele>165.0</ele><time>2026-04-18T13:23:54.607Z</time></trkpt><trkpt lat="45.446504" lon="10.5091081"><ele>165.0</ele><time>2026-04-18T13:23:55.607Z</time></trkpt><trkpt lat="45.4464331" lon="10.5091492"><ele>165.0</ele><time>2026-04-18T13:23:56.606Z</time></trkpt><trkpt lat="45.4463632" lon="10.5091369"><ele>165.0</ele><time>2026-04-18T13:24:00.606Z</time></trkpt><trkpt lat="45.4462293" lon="10.5091266"><ele>165.5</ele><time>2026-04-18T13:24:11.606Z</time></trkpt><trkpt lat="45.4461606" lon="10.5091621"><ele>166.0</ele><time>2026-04-18T13:24:14.607Z</time></trkpt><trkpt lat="45.4461282" lon="10.5092528"><ele>166.5</ele><time>2026-04-18T13:24:16.607Z</time></trkpt><trkpt lat="45.4460374" lon="10.5093114"><ele>167.0</ele><time>2026-04-18T13:24:18.606Z</time></trkpt><trkpt lat="45.4459679" lon="10.5093378"><ele>167.5</ele><time>2026-04-18T13:24:19.607Z</time></trkpt><trkpt lat="45.4458912" lon="10.5093719"><ele>168.0</ele><time>2026-04-18T13:24:20.605Z</time></trkpt><trkpt lat="45.4458026" lon="10.5094145"><ele>168.0</ele><time>2026-04-18T13:24:21.606Z</time></trkpt><trkpt lat="45.4457209" lon="10.5094608"><ele>168.0</ele><time>2026-04-18T13:24:22.606Z</time></trkpt><trkpt lat="45.4456355" lon="10.5095097"><ele>168.0</ele><time>2026-04-18T13:24:23.606Z</time></trkpt><trkpt lat="45.4455753" lon="10.5095688"><ele>168.0</ele><time>2026-04-18T13:24:24.606Z</time></trkpt><trkpt lat="45.4455061" lon="10.5095763"><ele>168.0</ele><time>2026-04-18T13:24:25.606Z</time></trkpt><trkpt lat="45.4454377" lon="10.509608"><ele>168.0</ele><time>2026-04-18T13:24:26.606Z</time></trkpt><trkpt lat="45.4453592" lon="10.5096584"><ele>167.33333333333334</ele><time>2026-04-18T13:24:27.606Z</time></trkpt><trkpt lat="45.4452808" lon="10.5097283"><ele>166.66666666666666</ele><time>2026-04-18T13:24:28.606Z</time></trkpt><trkpt lat="45.4452108" lon="10.5097896"><ele>166.0</ele><time>2026-04-18T13:24:29.606Z</time></trkpt><trkpt lat="45.4451549" lon="10.5098718"><ele>165.33333333333331</ele><time>2026-04-18T13:24:30.606Z</time></trkpt><trkpt lat="45.4450851" lon="10.5099378"><ele>164.66666666666666</ele><time>2026-04-18T13:24:33.606Z</time></trkpt><trkpt lat="45.4450579" lon="10.5100513"><ele>164.0</ele><time>2026-04-18T13:24:35.606Z</time></trkpt><trkpt lat="45.4450034" lon="10.5101946"><ele>163.99999999999997</ele><time>2026-04-18T13:24:37.606Z</time></trkpt><trkpt lat="45.4449769" lon="10.5102809"><ele>164.0</ele><time>2026-04-18T13:24:38.607Z</time></trkpt><trkpt lat="45.4449497" lon="10.5103708"><ele>164.0</ele><time>2026-04-18T13:24:39.606Z</time></trkpt><trkpt lat="45.4449161" lon="10.5104631"><ele>164.0</ele><time>2026-04-18T13:24:40.606Z</time></trkpt><trkpt lat="45.4448839" lon="10.5105533"><ele>164.0</ele><time>2026-04-18T13:24:41.606Z</time></trkpt><trkpt lat="45.4448522" lon="10.5106391"><ele>163.99999999999997</ele><time>2026-04-18T13:24:42.606Z</time></trkpt><trkpt lat="45.4448162" lon="10.5107443"><ele>164.0</ele><time>2026-04-18T13:24:43.606Z</time></trkpt><trkpt lat="45.4447834" lon="10.5108237"><ele>165.39999999999998</ele><time>2026-04-18T13:24:44.606Z</time></trkpt><trkpt lat="45.4446935" lon="10.5109295"><ele>166.8</ele><time>2026-04-18T13:24:46.606Z</time></trkpt><trkpt lat="45.4445863" lon="10.5110385"><ele>168.2</ele><time>2026-04-18T13:24:48.607Z</time></trkpt><trkpt lat="45.4445198" lon="10.5110999"><ele>169.60000000000002</ele><time>2026-04-18T13:24:49.605Z</time></trkpt><trkpt lat="45.4444602" lon="10.5111643"><ele>171.0</ele><time>2026-04-18T13:24:50.604Z</time></trkpt><trkpt lat="45.4444097" lon="10.5112181"><ele>171.0</ele><time>2026-04-18T13:24:51.606Z</time></trkpt><trkpt lat="45.4443869" lon="10.5113019"><ele>171.0</ele><time>2026-04-18T13:24:55.606Z</time></trkpt><trkpt lat="45.4442908" lon="10.5112752"><ele>171.0</ele><time>2026-04-18T13:24:58.607Z</time></trkpt><trkpt lat="45.4441679" lon="10.5112172"><ele>171.0</ele><time>2026-04-18T13:25:00.606Z</time></trkpt><trkpt lat="45.4441048" lon="10.5111954"><ele>171.0</ele><time>2026-04-18T13:25:01.606Z</time></trkpt><trkpt lat="45.4439848" lon="10.511137"><ele>171.0</ele><time>2026-04-18T13:25:03.606Z</time></trkpt><trkpt lat="45.4439272" lon="10.5110967"><ele>171.0</ele><time>2026-04-18T13:25:04.606Z</time></trkpt><trkpt lat="45.4438783" lon="10.5110365"><ele>171.0</ele><time>2026-04-18T13:25:05.606Z</time></trkpt><trkpt lat="45.4438339" lon="10.5109728"><ele>171.0</ele><time>2026-04-18T13:25:06.606Z</time></trkpt><trkpt lat="45.4437656" lon="10.5108899"><ele>171.0</ele><time>2026-04-18T13:25:07.607Z</time></trkpt><trkpt lat="45.4436842" lon="10.510788"><ele>171.0</ele><time>2026-04-18T13:25:08.605Z</time></trkpt><trkpt lat="45.4436107" lon="10.5107345"><ele>170.5</ele><time>2026-04-18T13:25:09.606Z</time></trkpt><trkpt lat="45.4435491" lon="10.5106654"><ele>170.0</ele><time>2026-04-18T13:25:10.605Z</time></trkpt><trkpt lat="45.4434885" lon="10.5106074"><ele>169.5</ele><time>2026-04-18T13:25:11.605Z</time></trkpt><trkpt lat="45.4434159" lon="10.5105606"><ele>169.0</ele><time>2026-04-18T13:25:14.605Z</time></trkpt><trkpt lat="45.4433256" lon="10.510527"><ele>168.5</ele><time>2026-04-18T13:25:16.605Z</time></trkpt><trkpt lat="45.4432059" lon="10.5105573"><ele>168.0</ele><time>2026-04-18T13:25:18.606Z</time></trkpt><trkpt lat="45.4431347" lon="10.5105745"><ele>168.0</ele><time>2026-04-18T13:25:19.605Z</time></trkpt><trkpt lat="45.4430684" lon="10.5105913"><ele>168.0</ele><time>2026-04-18T13:25:20.606Z</time></trkpt><trkpt lat="45.4429966" lon="10.5106017"><ele>168.0</ele><time>2026-04-18T13:25:21.605Z</time></trkpt><trkpt lat="45.4428854" lon="10.5106298"><ele>168.0</ele><time>2026-04-18T13:25:23.605Z</time></trkpt><trkpt lat="45.4428213" lon="10.5106417"><ele>168.0</ele><time>2026-04-18T13:25:24.606Z</time></trkpt><trkpt lat="45.4427578" lon="10.5106572"><ele>168.0</ele><time>2026-04-18T13:25:25.605Z</time></trkpt><trkpt lat="45.4426879" lon="10.5106476"><ele>168.0</ele><time>2026-04-18T13:25:26.607Z</time></trkpt><trkpt lat="45.4426147" lon="10.5106393"><ele>168.0</ele><time>2026-04-18T13:25:27.606Z</time></trkpt><trkpt lat="45.4425506" lon="10.5106437"><ele>168.0</ele><time>2026-04-18T13:25:28.606Z</time></trkpt><trkpt lat="45.4424465" lon="10.510658"><ele>168.0</ele><time>2026-04-18T13:25:30.606Z</time></trkpt><trkpt lat="45.4423487" lon="10.5106977"><ele>168.0</ele><time>2026-04-18T13:25:32.606Z</time></trkpt><trkpt lat="45.4422383" lon="10.5107458"><ele>168.0</ele><time>2026-04-18T13:25:34.605Z</time></trkpt><trkpt lat="45.4421893" lon="10.5108027"><ele>168.0</ele><time>2026-04-18T13:25:35.606Z</time></trkpt><trkpt lat="45.442079" lon="10.5108515"><ele>168.0</ele><time>2026-04-18T13:25:37.606Z</time></trkpt><trkpt lat="45.4419787" lon="10.5108808"><ele>168.0</ele><time>2026-04-18T13:25:39.606Z</time></trkpt><trkpt lat="45.441871" lon="10.510887"><ele>168.0</ele><time>2026-04-18T13:25:41.606Z</time></trkpt><trkpt lat="45.4417709" lon="10.5108837"><ele>167.42857142857142</ele><time>2026-04-18T13:25:43.605Z</time></trkpt><trkpt lat="45.4416901" lon="10.5108834"><ele>166.85714285714286</ele><time>2026-04-18T13:25:45.605Z</time></trkpt><trkpt lat="45.4416163" lon="10.5109031"><ele>166.28571428571428</ele><time>2026-04-18T13:25:48.605Z</time></trkpt><trkpt lat="45.4415467" lon="10.5108856"><ele>165.71428571428572</ele><time>2026-04-18T13:25:52.606Z</time></trkpt><trkpt lat="45.4414785" lon="10.5108712"><ele>165.14285714285714</ele><time>2026-04-18T13:26:07.606Z</time></trkpt><trkpt lat="45.4414147" lon="10.5109204"><ele>164.57142857142856</ele><time>2026-04-18T13:26:12.606Z</time></trkpt><trkpt lat="45.4413688" lon="10.5109911"><ele>164.0</ele><time>2026-04-18T13:26:17.606Z</time></trkpt><trkpt lat="45.441321" lon="10.5110567"><ele>163.66666666666666</ele><time>2026-04-18T13:26:24.606Z</time></trkpt><trkpt lat="45.4412819" lon="10.5112136"><ele>163.33333333333331</ele><time>2026-04-18T13:26:40.605Z</time></trkpt><trkpt lat="45.4412231" lon="10.5112482"><ele>163.0</ele><time>2026-04-18T13:26:45.605Z</time></trkpt><trkpt lat="45.4411386" lon="10.5111973"><ele>162.66666666666666</ele><time>2026-04-18T13:26:48.604Z</time></trkpt><trkpt lat="45.4410838" lon="10.5111268"><ele>162.33333333333334</ele><time>2026-04-18T13:26:50.605Z</time></trkpt><trkpt lat="45.4410126" lon="10.5110806"><ele>162.0</ele><time>2026-04-18T13:26:53.605Z</time></trkpt><trkpt lat="45.4409487" lon="10.5111066"><ele>162.0</ele><time>2026-04-18T13:26:55.604Z</time></trkpt><trkpt lat="45.4408772" lon="10.5111292"><ele>162.0</ele><time>2026-04-18T13:26:58.606Z</time></trkpt><trkpt lat="45.4408134" lon="10.5111457"><ele>162.0</ele><time>2026-04-18T13:27:02.605Z</time></trkpt><trkpt lat="45.4407468" lon="10.5111151"><ele>162.0</ele><time>2026-04-18T13:27:10.605Z</time></trkpt><trkpt lat="45.4407069" lon="10.5110359"><ele>162.0</ele><time>2026-04-18T13:27:14.604Z</time></trkpt><trkpt lat="45.4406225" lon="10.5110183"><ele>162.0</ele><time>2026-04-18T13:27:17.606Z</time></trkpt><trkpt lat="45.4405448" lon="10.5110548"><ele>162.0</ele><time>2026-04-18T13:27:19.605Z</time></trkpt><trkpt lat="45.4404668" lon="10.5111337"><ele>162.39999999999998</ele><time>2026-04-18T13:27:20.605Z</time></trkpt><trkpt lat="45.4403721" lon="10.5112198"><ele>162.79999999999998</ele><time>2026-04-18T13:27:22.605Z</time></trkpt><trkpt lat="45.4403042" lon="10.5112411"><ele>163.2</ele><time>2026-04-18T13:27:24.606Z</time></trkpt><trkpt lat="45.4402224" lon="10.5112794"><ele>163.6</ele><time>2026-04-18T13:27:27.606Z</time></trkpt><trkpt lat="45.4401288" lon="10.5113298"><ele>164.0</ele><time>2026-04-18T13:27:29.605Z</time></trkpt><trkpt lat="45.4400474" lon="10.511372"><ele>160.66666666666666</ele><time>2026-04-18T13:27:31.605Z</time></trkpt><trkpt lat="45.4399777" lon="10.511396"><ele>157.33333333333331</ele><time>2026-04-18T13:27:33.605Z</time></trkpt><trkpt lat="45.4398997" lon="10.5114661"><ele>154.0</ele><time>2026-04-18T13:27:35.605Z</time></trkpt><trkpt lat="45.4398179" lon="10.5115217"><ele>150.66666666666666</ele><time>2026-04-18T13:27:38.606Z</time></trkpt><trkpt lat="45.4397482" lon="10.5115955"><ele>147.33333333333334</ele><time>2026-04-18T13:27:41.606Z</time></trkpt><trkpt lat="45.4396765" lon="10.511532"><ele>144.0</ele><time>2026-04-18T13:27:44.605Z</time></trkpt><trkpt lat="45.4395678" lon="10.5115258"><ele>143.6</ele><time>2026-04-18T13:27:47.605Z</time></trkpt><trkpt lat="45.439504" lon="10.5115031"><ele>143.2</ele><time>2026-04-18T13:27:48.605Z</time></trkpt><trkpt lat="45.439398" lon="10.5115236"><ele>142.79999999999998</ele><time>2026-04-18T13:27:50.604Z</time></trkpt><trkpt lat="45.4392954" lon="10.5116041"><ele>142.4</ele><time>2026-04-18T13:27:52.604Z</time></trkpt><trkpt lat="45.4391967" lon="10.511655"><ele>142.0</ele><time>2026-04-18T13:27:54.605Z</time></trkpt><trkpt lat="45.4391186" lon="10.5117253"><ele>142.0</ele><time>2026-04-18T13:27:57.605Z</time></trkpt><trkpt lat="45.4390435" lon="10.511735"><ele>142.0</ele><time>2026-04-18T13:28:04.604Z</time></trkpt><trkpt lat="45.4389544" lon="10.5117256"><ele>142.0</ele><time>2026-04-18T13:28:06.604Z</time></trkpt><trkpt lat="45.4388884" lon="10.5116908"><ele>142.0</ele><time>2026-04-18T13:28:08.605Z</time></trkpt><trkpt lat="45.4387787" lon="10.511675"><ele>142.0</ele><time>2026-04-18T13:28:10.604Z</time></trkpt><trkpt lat="45.4387011" lon="10.5116111"><ele>142.0</ele><time>2026-04-18T13:28:12.604Z</time></trkpt><trkpt lat="45.4386491" lon="10.5115446"><ele>141.66666666666669</ele><time>2026-04-18T13:28:31.605Z</time></trkpt><trkpt lat="45.4385523" lon="10.5115363"><ele>141.33333333333334</ele><time>2026-04-18T13:28:41.606Z</time></trkpt><trkpt lat="45.4384505" lon="10.5116243"><ele>141.0</ele><time>2026-04-18T13:28:43.605Z</time></trkpt><trkpt lat="45.4383949" lon="10.5116703"><ele>140.66666666666666</ele><time>2026-04-18T13:28:44.605Z</time></trkpt><trkpt lat="45.438333" lon="10.5117173"><ele>140.33333333333331</ele><time>2026-04-18T13:28:45.605Z</time></trkpt><trkpt lat="45.438269" lon="10.5117644"><ele>140.0</ele><time>2026-04-18T13:28:46.605Z</time></trkpt><trkpt lat="45.4382016" lon="10.5118142"><ele>140.0</ele><time>2026-04-18T13:28:47.605Z</time></trkpt><trkpt lat="45.4381348" lon="10.5118587"><ele>140.0</ele><time>2026-04-18T13:28:48.605Z</time></trkpt><trkpt lat="45.43807" lon="10.5119016"><ele>140.0</ele><time>2026-04-18T13:28:49.606Z</time></trkpt><trkpt lat="45.4380019" lon="10.5119424"><ele>140.0</ele><time>2026-04-18T13:28:50.603Z</time></trkpt><trkpt lat="45.4379403" lon="10.5119822"><ele>140.0</ele><time>2026-04-18T13:28:51.605Z</time></trkpt><trkpt lat="45.4378315" lon="10.5120395"><ele>140.0</ele><time>2026-04-18T13:28:53.605Z</time></trkpt><trkpt lat="45.4377588" lon="10.5120372"><ele>140.0</ele><time>2026-04-18T13:28:55.605Z</time></trkpt><trkpt lat="45.4378352" lon="10.5120978"><ele>140.0</ele><time>2026-04-18T13:29:10.605Z</time></trkpt><trkpt lat="45.4378968" lon="10.5120704"><ele>140.0</ele><time>2026-04-18T13:29:11.604Z</time></trkpt><trkpt lat="45.4379673" lon="10.5120304"><ele>140.0</ele><time>2026-04-18T13:29:12.605Z</time></trkpt><trkpt lat="45.4380461" lon="10.5119712"><ele>140.0</ele><time>2026-04-18T13:29:13.605Z</time></trkpt><trkpt lat="45.4381234" lon="10.5119173"><ele>140.0</ele><time>2026-04-18T13:29:14.605Z</time></trkpt><trkpt lat="45.4381937" lon="10.5118626"><ele>140.0</ele><time>2026-04-18T13:29:15.605Z</time></trkpt><trkpt lat="45.4382599" lon="10.5118083"><ele>140.0</ele><time>2026-04-18T13:29:16.606Z</time></trkpt><trkpt lat="45.4383253" lon="10.5117405"><ele>140.0</ele><time>2026-04-18T13:29:17.605Z</time></trkpt><trkpt lat="45.4383891" lon="10.511684"><ele>140.0</ele><time>2026-04-18T13:29:18.605Z</time></trkpt><trkpt lat="45.438444" lon="10.5116185"><ele>140.0</ele><time>2026-04-18T13:29:19.604Z</time></trkpt><trkpt lat="45.4385193" lon="10.5115261"><ele>140.0</ele><time>2026-04-18T13:29:21.606Z</time></trkpt><trkpt lat="45.4385238" lon="10.5114012"><ele>140.0</ele><time>2026-04-18T13:29:23.605Z</time></trkpt><trkpt lat="45.4385103" lon="10.511294"><ele>140.0</ele><time>2026-04-18T13:29:25.605Z</time></trkpt><trkpt lat="45.438421" lon="10.5112042"><ele>140.0</ele><time>2026-04-18T13:29:27.604Z</time></trkpt><trkpt lat="45.4383187" lon="10.5110971"><ele>140.0</ele><time>2026-04-18T13:29:29.604Z</time></trkpt><trkpt lat="45.4382507" lon="10.5110513"><ele>140.0</ele><time>2026-04-18T13:29:30.606Z</time></trkpt><trkpt lat="45.4381825" lon="10.5110042"><ele>140.66666666666666</ele><time>2026-04-18T13:29:31.606Z</time></trkpt><trkpt lat="45.4381186" lon="10.5109641"><ele>141.33333333333331</ele><time>2026-04-18T13:29:32.605Z</time></trkpt><trkpt lat="45.4380476" lon="10.5109214"><ele>142.0</ele><time>2026-04-18T13:29:33.604Z</time></trkpt><trkpt lat="45.4379762" lon="10.5108711"><ele>142.66666666666666</ele><time>2026-04-18T13:29:34.606Z</time></trkpt><trkpt lat="45.437904" lon="10.5108156"><ele>143.33333333333334</ele><time>2026-04-18T13:29:35.606Z</time></trkpt><trkpt lat="45.4378316" lon="10.5107539"><ele>144.0</ele><time>2026-04-18T13:29:36.604Z</time></trkpt><trkpt lat="45.4377572" lon="10.5106828"><ele>144.0</ele><time>2026-04-18T13:29:37.605Z</time></trkpt><trkpt lat="45.437677" lon="10.5106126"><ele>144.0</ele><time>2026-04-18T13:29:38.606Z</time></trkpt><trkpt lat="45.437598" lon="10.5105345"><ele>144.0</ele><time>2026-04-18T13:29:39.605Z</time></trkpt><trkpt lat="45.4375187" lon="10.5104497"><ele>144.0</ele><time>2026-04-18T13:29:40.604Z</time></trkpt><trkpt lat="45.4374391" lon="10.5103685"><ele>144.0</ele><time>2026-04-18T13:29:41.605Z</time></trkpt><trkpt lat="45.4373653" lon="10.5102937"><ele>144.16666666666666</ele><time>2026-04-18T13:29:42.605Z</time></trkpt><trkpt lat="45.4372998" lon="10.5102313"><ele>144.33333333333334</ele><time>2026-04-18T13:29:43.607Z</time></trkpt><trkpt lat="45.4372275" lon="10.5101723"><ele>144.5</ele><time>2026-04-18T13:29:44.605Z</time></trkpt><trkpt lat="45.4371655" lon="10.510132"><ele>144.66666666666669</ele><time>2026-04-18T13:29:45.605Z</time></trkpt><trkpt lat="45.4370566" lon="10.5101033"><ele>144.83333333333334</ele><time>2026-04-18T13:29:47.605Z</time></trkpt><trkpt lat="45.4369618" lon="10.5101637"><ele>145.0</ele><time>2026-04-18T13:29:49.605Z</time></trkpt><trkpt lat="45.4368841" lon="10.5102902"><ele>144.4</ele><time>2026-04-18T13:29:51.606Z</time></trkpt><trkpt lat="45.4368124" lon="10.5104191"><ele>143.8</ele><time>2026-04-18T13:29:53.605Z</time></trkpt><trkpt lat="45.4367431" lon="10.5104836"><ele>143.2</ele><time>2026-04-18T13:29:55.605Z</time></trkpt><trkpt lat="45.4366606" lon="10.5104454"><ele>142.6</ele><time>2026-04-18T13:29:57.605Z</time></trkpt><trkpt lat="45.4365926" lon="10.5103366"><ele>142.0</ele><time>2026-04-18T13:29:59.605Z</time></trkpt><trkpt lat="45.4365181" lon="10.5102124"><ele>142.0</ele><time>2026-04-18T13:30:01.605Z</time></trkpt><trkpt lat="45.4364422" lon="10.5101291"><ele>142.0</ele><time>2026-04-18T13:30:03.605Z</time></trkpt><trkpt lat="45.4363336" lon="10.5100791"><ele>142.0</ele><time>2026-04-18T13:30:05.605Z</time></trkpt><trkpt lat="45.4362261" lon="10.51002"><ele>142.0</ele><time>2026-04-18T13:30:07.604Z</time></trkpt><trkpt lat="45.436122" lon="10.509965"><ele>142.0</ele><time>2026-04-18T13:30:09.605Z</time></trkpt><trkpt lat="45.4360691" lon="10.5098926"><ele>142.79999999999998</ele><time>2026-04-18T13:30:11.605Z</time></trkpt><trkpt lat="45.4359836" lon="10.509919"><ele>143.6</ele><time>2026-04-18T13:30:15.604Z</time></trkpt><trkpt lat="45.4358784" lon="10.5099475"><ele>144.39999999999998</ele><time>2026-04-18T13:30:18.604Z</time></trkpt><trkpt lat="45.4357502" lon="10.5099511"><ele>145.2</ele><time>2026-04-18T13:30:20.605Z</time></trkpt><trkpt lat="45.4356812" lon="10.5099526"><ele>146.0</ele><time>2026-04-18T13:30:21.604Z</time></trkpt><trkpt lat="45.4356101" lon="10.5099548"><ele>146.0</ele><time>2026-04-18T13:30:22.604Z</time></trkpt><trkpt lat="45.4355455" lon="10.5099674"><ele>146.0</ele><time>2026-04-18T13:30:23.604Z</time></trkpt><trkpt lat="45.4354287" lon="10.5100049"><ele>146.0</ele><time>2026-04-18T13:30:25.603Z</time></trkpt><trkpt lat="45.4353271" lon="10.5100053"><ele>146.0</ele><time>2026-04-18T13:30:27.605Z</time></trkpt><trkpt lat="45.4352653" lon="10.5099809"><ele>146.0</ele><time>2026-04-18T13:30:28.605Z</time></trkpt><trkpt lat="45.4352005" lon="10.5099388"><ele>146.0</ele><time>2026-04-18T13:30:29.605Z</time></trkpt><trkpt lat="45.4351254" lon="10.509897"><ele>146.0</ele><time>2026-04-18T13:30:30.605Z</time></trkpt><trkpt lat="45.4350433" lon="10.5098663"><ele>146.0</ele><time>2026-04-18T13:30:31.606Z</time></trkpt><trkpt lat="45.4349703" lon="10.5098383"><ele>146.0</ele><time>2026-04-18T13:30:32.605Z</time></trkpt><trkpt lat="45.4349053" lon="10.5098052"><ele>146.0</ele><time>2026-04-18T13:30:33.605Z</time></trkpt><trkpt lat="45.4348439" lon="10.5097706"><ele>146.0</ele><time>2026-04-18T13:30:34.604Z</time></trkpt><trkpt lat="45.4347494" lon="10.5096793"><ele>146.0</ele><time>2026-04-18T13:30:36.605Z</time></trkpt><trkpt lat="45.4346944" lon="10.509631"><ele>146.33333333333331</ele><time>2026-04-18T13:30:37.605Z</time></trkpt><trkpt lat="45.4346306" lon="10.5095717"><ele>146.66666666666666</ele><time>2026-04-18T13:30:38.605Z</time></trkpt><trkpt lat="45.434571" lon="10.5095195"><ele>147.0</ele><time>2026-04-18T13:30:39.604Z</time></trkpt><trkpt lat="45.4345083" lon="10.5094687"><ele>147.33333333333334</ele><time>2026-04-18T13:30:40.605Z</time></trkpt><trkpt lat="45.4344472" lon="10.5094144"><ele>147.66666666666669</ele><time>2026-04-18T13:30:41.605Z</time></trkpt><trkpt lat="45.4343589" lon="10.5093261"><ele>148.0</ele><time>2026-04-18T13:30:43.605Z</time></trkpt><trkpt lat="45.4342716" lon="10.5092621"><ele>148.0</ele><time>2026-04-18T13:30:45.605Z</time></trkpt><trkpt lat="45.4342142" lon="10.5091723"><ele>148.0</ele><time>2026-04-18T13:30:47.605Z</time></trkpt><trkpt lat="45.4341501" lon="10.5090887"><ele>148.0</ele><time>2026-04-18T13:30:49.605Z</time></trkpt><trkpt lat="45.434079" lon="10.5090533"><ele>148.0</ele><time>2026-04-18T13:30:51.604Z</time></trkpt><trkpt lat="45.4339807" lon="10.5090237"><ele>148.0</ele><time>2026-04-18T13:30:53.605Z</time></trkpt><trkpt lat="45.4339316" lon="10.5089477"><ele>148.0</ele><time>2026-04-18T13:30:55.604Z</time></trkpt><trkpt lat="45.4338739" lon="10.5088954"><ele>148.0</ele><time>2026-04-18T13:31:02.605Z</time></trkpt><trkpt lat="45.4338116" lon="10.5089194"><ele>148.0</ele><time>2026-04-18T13:31:09.604Z</time></trkpt><trkpt lat="45.4337482" lon="10.5089546"><ele>148.0</ele><time>2026-04-18T13:31:24.605Z</time></trkpt><trkpt lat="45.4336837" lon="10.5090145"><ele>148.0</ele><time>2026-04-18T13:31:27.605Z</time></trkpt><trkpt lat="45.433604" lon="10.5090178"><ele>148.0</ele><time>2026-04-18T13:31:30.604Z</time></trkpt><trkpt lat="45.4335376" lon="10.5090148"><ele>148.0</ele><time>2026-04-18T13:31:34.604Z</time></trkpt><trkpt lat="45.4334688" lon="10.509055"><ele>148.0</ele><time>2026-04-18T13:31:36.606Z</time></trkpt><trkpt lat="45.4333929" lon="10.5090796"><ele>147.83333333333334</ele><time>2026-04-18T13:31:38.606Z</time></trkpt><trkpt lat="45.4333267" lon="10.5090914"><ele>147.66666666666669</ele><time>2026-04-18T13:31:40.604Z</time></trkpt><trkpt lat="45.4332515" lon="10.5091133"><ele>147.5</ele><time>2026-04-18T13:31:43.605Z</time></trkpt><trkpt lat="45.4331803" lon="10.5091677"><ele>147.33333333333334</ele><time>2026-04-18T13:31:45.605Z</time></trkpt><trkpt lat="45.4330998" lon="10.5092517"><ele>147.16666666666666</ele><time>2026-04-18T13:31:47.605Z</time></trkpt><trkpt lat="45.4330315" lon="10.5092535"><ele>147.0</ele><time>2026-04-18T13:31:49.605Z</time></trkpt><trkpt lat="45.4329233" lon="10.5091698"><ele>145.66666666666666</ele><time>2026-04-18T13:31:51.604Z</time></trkpt><trkpt lat="45.4328708" lon="10.5091158"><ele>144.33333333333334</ele><time>2026-04-18T13:31:52.604Z</time></trkpt><trkpt lat="45.432817" lon="10.5090578"><ele>143.0</ele><time>2026-04-18T13:31:53.604Z</time></trkpt><trkpt lat="45.4327122" lon="10.5089783"><ele>141.66666666666669</ele><time>2026-04-18T13:31:55.604Z</time></trkpt><trkpt lat="45.4326115" lon="10.5089191"><ele>140.33333333333334</ele><time>2026-04-18T13:31:57.603Z</time></trkpt><trkpt lat="45.4325595" lon="10.5088583"><ele>139.0</ele><time>2026-04-18T13:31:59.604Z</time></trkpt><trkpt lat="45.4325412" lon="10.5087547"><ele>140.0</ele><time>2026-04-18T13:32:02.605Z</time></trkpt><trkpt lat="45.4325675" lon="10.5086598"><ele>141.0</ele><time>2026-04-18T13:32:04.607Z</time></trkpt><trkpt lat="45.4326021" lon="10.5085742"><ele>142.0</ele><time>2026-04-18T13:32:05.606Z</time></trkpt><trkpt lat="45.4326467" lon="10.5084116"><ele>143.0</ele><time>2026-04-18T13:32:07.605Z</time></trkpt><trkpt lat="45.4326608" lon="10.5082417"><ele>144.0</ele><time>2026-04-18T13:32:09.605Z</time></trkpt><trkpt lat="45.4326473" lon="10.5080624"><ele>144.0</ele><time>2026-04-18T13:32:11.605Z</time></trkpt><trkpt lat="45.4326325" lon="10.5079738"><ele>144.0</ele><time>2026-04-18T13:32:12.605Z</time></trkpt><trkpt lat="45.432545" lon="10.507861"><ele>144.0</ele><time>2026-04-18T13:32:14.605Z</time></trkpt><trkpt lat="45.4324673" lon="10.5077572"><ele>144.0</ele><time>2026-04-18T13:32:16.605Z</time></trkpt><trkpt lat="45.4324027" lon="10.5077003"><ele>144.0</ele><time>2026-04-18T13:32:17.605Z</time></trkpt><trkpt lat="45.4322738" lon="10.5076146"><ele>143.5</ele><time>2026-04-18T13:32:19.605Z</time></trkpt><trkpt lat="45.4322091" lon="10.5075691"><ele>143.0</ele><time>2026-04-18T13:32:20.604Z</time></trkpt><trkpt lat="45.4321434" lon="10.5075123"><ele>142.5</ele><time>2026-04-18T13:32:21.605Z</time></trkpt><trkpt lat="45.4320792" lon="10.5074504"><ele>142.0</ele><time>2026-04-18T13:32:22.604Z</time></trkpt><trkpt lat="45.4320065" lon="10.5073839"><ele>141.5</ele><time>2026-04-18T13:32:23.605Z</time></trkpt><trkpt lat="45.4319294" lon="10.5073824"><ele>141.0</ele><time>2026-04-18T13:32:24.605Z</time></trkpt><trkpt lat="45.4318659" lon="10.507374"><ele>141.0</ele><time>2026-04-18T13:32:25.605Z</time></trkpt><trkpt lat="45.4317571" lon="10.5073564"><ele>141.0</ele><time>2026-04-18T13:32:27.605Z</time></trkpt><trkpt lat="45.4316923" lon="10.5073064"><ele>141.0</ele><time>2026-04-18T13:32:29.605Z</time></trkpt><trkpt lat="45.4316042" lon="10.50729"><ele>141.0</ele><time>2026-04-18T13:32:31.604Z</time></trkpt><trkpt lat="45.4314847" lon="10.5073245"><ele>141.0</ele><time>2026-04-18T13:32:33.604Z</time></trkpt><trkpt lat="45.4314193" lon="10.5073464"><ele>141.0</ele><time>2026-04-18T13:32:34.604Z</time></trkpt><trkpt lat="45.4313475" lon="10.5073812"><ele>141.0</ele><time>2026-04-18T13:32:35.604Z</time></trkpt><trkpt lat="45.431274" lon="10.5074258"><ele>141.0</ele><time>2026-04-18T13:32:36.604Z</time></trkpt><trkpt lat="45.4312009" lon="10.5074736"><ele>141.0</ele><time>2026-04-18T13:32:37.604Z</time></trkpt><trkpt lat="45.4311254" lon="10.5075275"><ele>141.0</ele><time>2026-04-18T13:32:38.604Z</time></trkpt><trkpt lat="45.4310466" lon="10.5075833"><ele>141.0</ele><time>2026-04-18T13:32:39.605Z</time></trkpt><trkpt lat="45.4309683" lon="10.5076431"><ele>139.6</ele><time>2026-04-18T13:32:40.604Z</time></trkpt><trkpt lat="45.4308895" lon="10.5077065"><ele>138.2</ele><time>2026-04-18T13:32:41.605Z</time></trkpt><trkpt lat="45.4308117" lon="10.507774"><ele>136.8</ele><time>2026-04-18T13:32:42.604Z</time></trkpt><trkpt lat="45.4307382" lon="10.5078531"><ele>135.4</ele><time>2026-04-18T13:32:43.605Z</time></trkpt><trkpt lat="45.4306658" lon="10.5079382"><ele>134.0</ele><time>2026-04-18T13:32:44.605Z</time></trkpt><trkpt lat="45.430594" lon="10.5080129"><ele>133.8</ele><time>2026-04-18T13:32:45.604Z</time></trkpt><trkpt lat="45.4305168" lon="10.5080902"><ele>133.60000000000002</ele><time>2026-04-18T13:32:46.604Z</time></trkpt><trkpt lat="45.4304416" lon="10.5081664"><ele>133.4</ele><time>2026-04-18T13:32:47.603Z</time></trkpt><trkpt lat="45.4303676" lon="10.5082361"><ele>133.20000000000002</ele><time>2026-04-18T13:32:48.604Z</time></trkpt><trkpt lat="45.4302943" lon="10.5083212"><ele>133.0</ele><time>2026-04-18T13:32:49.605Z</time></trkpt><trkpt lat="45.4302128" lon="10.5083973"><ele>132.0</ele><time>2026-04-18T13:32:50.604Z</time></trkpt><trkpt lat="45.4301318" lon="10.5084699"><ele>131.0</ele><time>2026-04-18T13:32:51.604Z</time></trkpt><trkpt lat="45.4300585" lon="10.5085475"><ele>130.0</ele><time>2026-04-18T13:32:52.604Z</time></trkpt><trkpt lat="45.42998" lon="10.5086322"><ele>129.0</ele><time>2026-04-18T13:32:53.605Z</time></trkpt><trkpt lat="45.4299073" lon="10.5087199"><ele>128.0</ele><time>2026-04-18T13:32:54.604Z</time></trkpt><trkpt lat="45.4298397" lon="10.5088131"><ele>127.60000000000001</ele><time>2026-04-18T13:32:55.604Z</time></trkpt><trkpt lat="45.4297816" lon="10.5089165"><ele>127.20000000000002</ele><time>2026-04-18T13:32:56.604Z</time></trkpt><trkpt lat="45.4297233" lon="10.5090245"><ele>126.8</ele><time>2026-04-18T13:32:57.604Z</time></trkpt><trkpt lat="45.4296642" lon="10.5091359"><ele>126.4</ele><time>2026-04-18T13:32:58.603Z</time></trkpt><trkpt lat="45.4296067" lon="10.5092521"><ele>126.0</ele><time>2026-04-18T13:32:59.604Z</time></trkpt><trkpt lat="45.4295532" lon="10.5093773"><ele>125.8</ele><time>2026-04-18T13:33:00.604Z</time></trkpt><trkpt lat="45.4295019" lon="10.5095069"><ele>125.6</ele><time>2026-04-18T13:33:01.604Z</time></trkpt><trkpt lat="45.4294474" lon="10.5096362"><ele>125.4</ele><time>2026-04-18T13:33:02.605Z</time></trkpt><trkpt lat="45.4293897" lon="10.5097678"><ele>125.2</ele><time>2026-04-18T13:33:03.605Z</time></trkpt><trkpt lat="45.4293317" lon="10.5098931"><ele>125.0</ele><time>2026-04-18T13:33:04.605Z</time></trkpt><trkpt lat="45.4292711" lon="10.5100117"><ele>124.8</ele><time>2026-04-18T13:33:05.604Z</time></trkpt><trkpt lat="45.429212" lon="10.5101292"><ele>124.6</ele><time>2026-04-18T13:33:06.604Z</time></trkpt><trkpt lat="45.4291501" lon="10.5102517"><ele>124.4</ele><time>2026-04-18T13:33:07.604Z</time></trkpt><trkpt lat="45.4290838" lon="10.5103843"><ele>124.2</ele><time>2026-04-18T13:33:08.604Z</time></trkpt><trkpt lat="45.4290255" lon="10.5105154"><ele>124.0</ele><time>2026-04-18T13:33:09.604Z</time></trkpt><trkpt lat="45.4289635" lon="10.5106464"><ele>123.80000000000001</ele><time>2026-04-18T13:33:10.603Z</time></trkpt><trkpt lat="45.4289023" lon="10.510773"><ele>123.60000000000001</ele><time>2026-04-18T13:33:11.604Z</time></trkpt><trkpt lat="45.4288405" lon="10.5108995"><ele>123.4</ele><time>2026-04-18T13:33:12.604Z</time></trkpt><trkpt lat="45.4287766" lon="10.5110324"><ele>123.2</ele><time>2026-04-18T13:33:13.604Z</time></trkpt><trkpt lat="45.4287169" lon="10.5111606"><ele>123.0</ele><time>2026-04-18T13:33:14.604Z</time></trkpt><trkpt lat="45.4286519" lon="10.5112957"><ele>122.25</ele><time>2026-04-18T13:33:15.603Z</time></trkpt><trkpt lat="45.4285866" lon="10.5114302"><ele>121.5</ele><time>2026-04-18T13:33:16.604Z</time></trkpt><trkpt lat="45.4285241" lon="10.5115704"><ele>120.75</ele><time>2026-04-18T13:33:17.605Z</time></trkpt><trkpt lat="45.4284641" lon="10.511703"><ele>120.0</ele><time>2026-04-18T13:33:18.606Z</time></trkpt><trkpt lat="45.4284057" lon="10.5118438"><ele>120.0</ele><time>2026-04-18T13:33:19.605Z</time></trkpt><trkpt lat="45.4283451" lon="10.5119817"><ele>120.0</ele><time>2026-04-18T13:33:20.605Z</time></trkpt><trkpt lat="45.4282844" lon="10.5121115"><ele>120.0</ele><time>2026-04-18T13:33:21.604Z</time></trkpt><trkpt lat="45.428226" lon="10.5122401"><ele>120.0</ele><time>2026-04-18T13:33:22.604Z</time></trkpt><trkpt lat="45.4281666" lon="10.5123742"><ele>120.0</ele><time>2026-04-18T13:33:23.605Z</time></trkpt><trkpt lat="45.4281082" lon="10.5125103"><ele>120.0</ele><time>2026-04-18T13:33:24.603Z</time></trkpt><trkpt lat="45.4280485" lon="10.5126422"><ele>120.0</ele><time>2026-04-18T13:33:25.605Z</time></trkpt><trkpt lat="45.4279956" lon="10.5127753"><ele>120.0</ele><time>2026-04-18T13:33:26.604Z</time></trkpt><trkpt lat="45.4279461" lon="10.5129074"><ele>120.0</ele><time>2026-04-18T13:33:27.604Z</time></trkpt><trkpt lat="45.4278909" lon="10.5130438"><ele>120.0</ele><time>2026-04-18T13:33:28.604Z</time></trkpt><trkpt lat="45.4278364" lon="10.5131816"><ele>120.0</ele><time>2026-04-18T13:33:29.605Z</time></trkpt><trkpt lat="45.4277834" lon="10.5133143"><ele>120.0</ele><time>2026-04-18T13:33:30.604Z</time></trkpt><trkpt lat="45.4277334" lon="10.5134386"><ele>120.0</ele><time>2026-04-18T13:33:31.603Z</time></trkpt><trkpt lat="45.4276875" lon="10.5135526"><ele>120.0</ele><time>2026-04-18T13:33:32.604Z</time></trkpt><trkpt lat="45.427652" lon="10.5136476"><ele>120.0</ele><time>2026-04-18T13:33:33.605Z</time></trkpt><trkpt lat="45.4276116" lon="10.5137403"><ele>120.4</ele><time>2026-04-18T13:33:34.604Z</time></trkpt><trkpt lat="45.4275541" lon="10.5138842"><ele>120.8</ele><time>2026-04-18T13:33:36.604Z</time></trkpt><trkpt lat="45.427514" lon="10.5139794"><ele>121.19999999999999</ele><time>2026-04-18T13:33:38.604Z</time></trkpt><trkpt lat="45.4274845" lon="10.5140648"><ele>121.6</ele><time>2026-04-18T13:33:43.605Z</time></trkpt><trkpt lat="45.4275349" lon="10.5141372"><ele>122.0</ele><time>2026-04-18T13:33:45.604Z</time></trkpt><trkpt lat="45.4276801" lon="10.5141643"><ele>121.99999999999999</ele><time>2026-04-18T13:33:47.603Z</time></trkpt><trkpt lat="45.4277715" lon="10.514178"><ele>122.0</ele><time>2026-04-18T13:33:48.604Z</time></trkpt><trkpt lat="45.4278554" lon="10.5141999"><ele>122.0</ele><time>2026-04-18T13:33:49.604Z</time></trkpt><trkpt lat="45.4279267" lon="10.5142273"><ele>122.0</ele><time>2026-04-18T13:33:50.604Z</time></trkpt><trkpt lat="45.4279915" lon="10.5142486"><ele>121.99999999999999</ele><time>2026-04-18T13:33:51.604Z</time></trkpt><trkpt lat="45.4280935" lon="10.5142739"><ele>122.0</ele><time>2026-04-18T13:33:53.605Z</time></trkpt><trkpt lat="45.4281783" lon="10.5143086"><ele>121.99999999999999</ele><time>2026-04-18T13:33:55.604Z</time></trkpt><trkpt lat="45.4282641" lon="10.5143709"><ele>122.0</ele><time>2026-04-18T13:33:57.604Z</time></trkpt><trkpt lat="45.4283648" lon="10.5143126"><ele>122.0</ele><time>2026-04-18T13:33:59.603Z</time></trkpt><trkpt lat="45.4283916" lon="10.5142314"><ele>122.0</ele><time>2026-04-18T13:34:00.604Z</time></trkpt><trkpt lat="45.4284095" lon="10.5141397"><ele>121.99999999999999</ele><time>2026-04-18T13:34:01.604Z</time></trkpt><trkpt lat="45.4284213" lon="10.5140489"><ele>122.0</ele><time>2026-04-18T13:34:02.604Z</time></trkpt><trkpt lat="45.4284374" lon="10.5139603"><ele>122.0</ele><time>2026-04-18T13:34:03.604Z</time></trkpt><trkpt lat="45.4284972" lon="10.5138614"><ele>122.0</ele><time>2026-04-18T13:34:05.604Z</time></trkpt><trkpt lat="45.4285851" lon="10.5138729"><ele>122.0</ele><time>2026-04-18T13:34:08.604Z</time></trkpt><trkpt lat="45.4286085" lon="10.5139832"><ele>122.0</ele><time>2026-04-18T13:34:11.604Z</time></trkpt></trkseg></trk></gpx>